<?xml version="1.0" encoding="UTF-8" standalone="no" ?>
<gpx xmlns="http://www.topografix.com/GPX/1/1" xmlns:xsi="http://www.w3.org/2001/XMLSchema-instance" xsi:schemaLocation="http://www.topografix.com/GPX/1/1 http://www.topografix.com/GPX/1/1/gpx.xsd" version="1.1" creator="VisuGPX - https://www.visugpx.com">
  <metadata>
    <name>cap fréhel fort lalatte</name>
    <desc><![CDATA[sentir des douaniers (gr34) sur 17 km puis retour par chemin carrossable et petite route]]></desc>
  </metadata>
  <trk>
    <name><![CDATA[cap fréhel fort lalatte_1]]></name>
    <trkseg>
      <trkpt lat="48.65421" lon="-2.36503">
        <ele>21</ele>
        <time>2020-06-24T07:44:33.000Z</time>
      </trkpt>
      <trkpt lat="48.65422" lon="-2.36502">
        <ele>20</ele>
        <time>2020-06-24T07:44:34.000Z</time>
      </trkpt>
      <trkpt lat="48.65422" lon="-2.365">
        <ele>19</ele>
        <time>2020-06-24T07:44:35.000Z</time>
      </trkpt>
      <trkpt lat="48.65423" lon="-2.36498">
        <ele>18</ele>
        <time>2020-06-24T07:44:36.000Z</time>
      </trkpt>
      <trkpt lat="48.65423" lon="-2.36496">
        <ele>18</ele>
        <time>2020-06-24T07:44:37.000Z</time>
      </trkpt>
      <trkpt lat="48.65422" lon="-2.36494">
        <ele>18</ele>
        <time>2020-06-24T07:44:38.000Z</time>
      </trkpt>
      <trkpt lat="48.65422" lon="-2.36493">
        <ele>17</ele>
        <time>2020-06-24T07:44:39.000Z</time>
      </trkpt>
      <trkpt lat="48.65423" lon="-2.36491">
        <ele>16</ele>
        <time>2020-06-24T07:44:40.000Z</time>
      </trkpt>
      <trkpt lat="48.65423" lon="-2.3649">
        <ele>16</ele>
        <time>2020-06-24T07:44:41.000Z</time>
      </trkpt>
      <trkpt lat="48.65424" lon="-2.3649">
        <ele>16</ele>
        <time>2020-06-24T07:44:42.000Z</time>
      </trkpt>
      <trkpt lat="48.65425" lon="-2.36489">
        <ele>15</ele>
        <time>2020-06-24T07:44:43.000Z</time>
      </trkpt>
      <trkpt lat="48.65426" lon="-2.36488">
        <ele>15</ele>
        <time>2020-06-24T07:44:44.000Z</time>
      </trkpt>
      <trkpt lat="48.65427" lon="-2.36486">
        <ele>15</ele>
        <time>2020-06-24T07:44:45.000Z</time>
      </trkpt>
      <trkpt lat="48.65428" lon="-2.36485">
        <ele>14</ele>
        <time>2020-06-24T07:44:46.000Z</time>
      </trkpt>
      <trkpt lat="48.65428" lon="-2.36483">
        <ele>15</ele>
        <time>2020-06-24T07:44:47.000Z</time>
      </trkpt>
      <trkpt lat="48.65429" lon="-2.36482">
        <ele>15</ele>
        <time>2020-06-24T07:44:48.000Z</time>
      </trkpt>
      <trkpt lat="48.65429" lon="-2.3648">
        <ele>15</ele>
        <time>2020-06-24T07:44:49.000Z</time>
      </trkpt>
      <trkpt lat="48.65429" lon="-2.36479">
        <ele>15</ele>
        <time>2020-06-24T07:44:50.000Z</time>
      </trkpt>
      <trkpt lat="48.65429" lon="-2.36477">
        <ele>14</ele>
        <time>2020-06-24T07:44:51.000Z</time>
      </trkpt>
      <trkpt lat="48.65429" lon="-2.36475">
        <ele>15</ele>
        <time>2020-06-24T07:44:52.000Z</time>
      </trkpt>
      <trkpt lat="48.65428" lon="-2.36473">
        <ele>15</ele>
        <time>2020-06-24T07:44:53.000Z</time>
      </trkpt>
      <trkpt lat="48.65428" lon="-2.36472">
        <ele>14</ele>
        <time>2020-06-24T07:44:54.000Z</time>
      </trkpt>
      <trkpt lat="48.65427" lon="-2.3647">
        <ele>14</ele>
        <time>2020-06-24T07:44:55.000Z</time>
      </trkpt>
      <trkpt lat="48.65427" lon="-2.36469">
        <ele>14</ele>
        <time>2020-06-24T07:44:56.000Z</time>
      </trkpt>
      <trkpt lat="48.65426" lon="-2.36468">
        <ele>15</ele>
        <time>2020-06-24T07:44:57.000Z</time>
      </trkpt>
      <trkpt lat="48.65425" lon="-2.36467">
        <ele>15</ele>
        <time>2020-06-24T07:44:58.000Z</time>
      </trkpt>
      <trkpt lat="48.65425" lon="-2.36467">
        <ele>15</ele>
        <time>2020-06-24T07:44:59.000Z</time>
      </trkpt>
      <trkpt lat="48.65424" lon="-2.36466">
        <ele>15</ele>
        <time>2020-06-24T07:45:00.000Z</time>
      </trkpt>
      <trkpt lat="48.65424" lon="-2.36465">
        <ele>15</ele>
        <time>2020-06-24T07:45:01.000Z</time>
      </trkpt>
      <trkpt lat="48.65423" lon="-2.36464">
        <ele>15</ele>
        <time>2020-06-24T07:45:02.000Z</time>
      </trkpt>
      <trkpt lat="48.65423" lon="-2.36463">
        <ele>15</ele>
        <time>2020-06-24T07:45:03.000Z</time>
      </trkpt>
      <trkpt lat="48.65422" lon="-2.36462">
        <ele>15</ele>
        <time>2020-06-24T07:45:04.000Z</time>
      </trkpt>
      <trkpt lat="48.65421" lon="-2.36461">
        <ele>15</ele>
        <time>2020-06-24T07:45:05.000Z</time>
      </trkpt>
      <trkpt lat="48.65421" lon="-2.3646">
        <ele>15</ele>
        <time>2020-06-24T07:45:06.000Z</time>
      </trkpt>
      <trkpt lat="48.6542" lon="-2.36459">
        <ele>15</ele>
        <time>2020-06-24T07:45:07.000Z</time>
      </trkpt>
      <trkpt lat="48.65419" lon="-2.36458">
        <ele>15</ele>
        <time>2020-06-24T07:45:08.000Z</time>
      </trkpt>
      <trkpt lat="48.65418" lon="-2.36457">
        <ele>15</ele>
        <time>2020-06-24T07:45:09.000Z</time>
      </trkpt>
      <trkpt lat="48.65417" lon="-2.36456">
        <ele>15</ele>
        <time>2020-06-24T07:45:10.000Z</time>
      </trkpt>
      <trkpt lat="48.65416" lon="-2.36455">
        <ele>15</ele>
        <time>2020-06-24T07:45:11.000Z</time>
      </trkpt>
      <trkpt lat="48.65415" lon="-2.36453">
        <ele>15</ele>
        <time>2020-06-24T07:45:12.000Z</time>
      </trkpt>
      <trkpt lat="48.65414" lon="-2.36453">
        <ele>15</ele>
        <time>2020-06-24T07:45:13.000Z</time>
      </trkpt>
      <trkpt lat="48.65413" lon="-2.36452">
        <ele>15</ele>
        <time>2020-06-24T07:45:14.000Z</time>
      </trkpt>
      <trkpt lat="48.65412" lon="-2.36452">
        <ele>15</ele>
        <time>2020-06-24T07:45:15.000Z</time>
      </trkpt>
      <trkpt lat="48.65411" lon="-2.36451">
        <ele>15</ele>
        <time>2020-06-24T07:45:16.000Z</time>
      </trkpt>
      <trkpt lat="48.6541" lon="-2.3645">
        <ele>15</ele>
        <time>2020-06-24T07:45:17.000Z</time>
      </trkpt>
      <trkpt lat="48.6541" lon="-2.36449">
        <ele>15</ele>
        <time>2020-06-24T07:45:18.000Z</time>
      </trkpt>
      <trkpt lat="48.65409" lon="-2.36448">
        <ele>15</ele>
        <time>2020-06-24T07:45:19.000Z</time>
      </trkpt>
      <trkpt lat="48.65408" lon="-2.36448">
        <ele>15</ele>
        <time>2020-06-24T07:45:20.000Z</time>
      </trkpt>
      <trkpt lat="48.65407" lon="-2.36446">
        <ele>14</ele>
        <time>2020-06-24T07:45:21.000Z</time>
      </trkpt>
      <trkpt lat="48.65406" lon="-2.36445">
        <ele>14</ele>
        <time>2020-06-24T07:45:22.000Z</time>
      </trkpt>
      <trkpt lat="48.65406" lon="-2.36444">
        <ele>14</ele>
        <time>2020-06-24T07:45:23.000Z</time>
      </trkpt>
      <trkpt lat="48.65405" lon="-2.36443">
        <ele>14</ele>
        <time>2020-06-24T07:45:24.000Z</time>
      </trkpt>
      <trkpt lat="48.65405" lon="-2.36442">
        <ele>14</ele>
        <time>2020-06-24T07:45:25.000Z</time>
      </trkpt>
      <trkpt lat="48.65404" lon="-2.36441">
        <ele>14</ele>
        <time>2020-06-24T07:45:26.000Z</time>
      </trkpt>
      <trkpt lat="48.65404" lon="-2.36439">
        <ele>14</ele>
        <time>2020-06-24T07:45:27.000Z</time>
      </trkpt>
      <trkpt lat="48.65403" lon="-2.36438">
        <ele>14</ele>
        <time>2020-06-24T07:45:28.000Z</time>
      </trkpt>
      <trkpt lat="48.65403" lon="-2.36437">
        <ele>14</ele>
        <time>2020-06-24T07:45:29.000Z</time>
      </trkpt>
      <trkpt lat="48.65402" lon="-2.36435">
        <ele>14</ele>
        <time>2020-06-24T07:45:30.000Z</time>
      </trkpt>
      <trkpt lat="48.65402" lon="-2.36434">
        <ele>14</ele>
        <time>2020-06-24T07:45:31.000Z</time>
      </trkpt>
      <trkpt lat="48.65401" lon="-2.36432">
        <ele>14</ele>
        <time>2020-06-24T07:45:32.000Z</time>
      </trkpt>
      <trkpt lat="48.65401" lon="-2.36431">
        <ele>13</ele>
        <time>2020-06-24T07:45:33.000Z</time>
      </trkpt>
      <trkpt lat="48.654" lon="-2.3643">
        <ele>14</ele>
        <time>2020-06-24T07:45:34.000Z</time>
      </trkpt>
      <trkpt lat="48.654" lon="-2.36428">
        <ele>14</ele>
        <time>2020-06-24T07:45:35.000Z</time>
      </trkpt>
      <trkpt lat="48.654" lon="-2.36427">
        <ele>14</ele>
        <time>2020-06-24T07:45:36.000Z</time>
      </trkpt>
      <trkpt lat="48.65399" lon="-2.36425">
        <ele>13</ele>
        <time>2020-06-24T07:45:37.000Z</time>
      </trkpt>
      <trkpt lat="48.65399" lon="-2.36424">
        <ele>14</ele>
        <time>2020-06-24T07:45:38.000Z</time>
      </trkpt>
      <trkpt lat="48.65398" lon="-2.36423">
        <ele>14</ele>
        <time>2020-06-24T07:45:39.000Z</time>
      </trkpt>
      <trkpt lat="48.65397" lon="-2.36421">
        <ele>14</ele>
        <time>2020-06-24T07:45:40.000Z</time>
      </trkpt>
      <trkpt lat="48.65397" lon="-2.3642">
        <ele>14</ele>
        <time>2020-06-24T07:45:41.000Z</time>
      </trkpt>
      <trkpt lat="48.65396" lon="-2.36419">
        <ele>13</ele>
        <time>2020-06-24T07:45:42.000Z</time>
      </trkpt>
      <trkpt lat="48.65395" lon="-2.36417">
        <ele>14</ele>
        <time>2020-06-24T07:45:43.000Z</time>
      </trkpt>
      <trkpt lat="48.65395" lon="-2.36416">
        <ele>14</ele>
        <time>2020-06-24T07:45:44.000Z</time>
      </trkpt>
      <trkpt lat="48.65395" lon="-2.36415">
        <ele>14</ele>
        <time>2020-06-24T07:45:45.000Z</time>
      </trkpt>
      <trkpt lat="48.65394" lon="-2.36413">
        <ele>14</ele>
        <time>2020-06-24T07:45:46.000Z</time>
      </trkpt>
      <trkpt lat="48.65394" lon="-2.36412">
        <ele>14</ele>
        <time>2020-06-24T07:45:47.000Z</time>
      </trkpt>
      <trkpt lat="48.65393" lon="-2.36411">
        <ele>14</ele>
        <time>2020-06-24T07:45:48.000Z</time>
      </trkpt>
      <trkpt lat="48.65393" lon="-2.36409">
        <ele>14</ele>
        <time>2020-06-24T07:45:49.000Z</time>
      </trkpt>
      <trkpt lat="48.65392" lon="-2.36408">
        <ele>14</ele>
        <time>2020-06-24T07:45:50.000Z</time>
      </trkpt>
      <trkpt lat="48.65392" lon="-2.36407">
        <ele>14</ele>
        <time>2020-06-24T07:45:51.000Z</time>
      </trkpt>
      <trkpt lat="48.65392" lon="-2.36406">
        <ele>14</ele>
        <time>2020-06-24T07:45:52.000Z</time>
      </trkpt>
      <trkpt lat="48.65391" lon="-2.36406">
        <ele>14</ele>
        <time>2020-06-24T07:45:53.000Z</time>
      </trkpt>
      <trkpt lat="48.65391" lon="-2.36405">
        <ele>14</ele>
        <time>2020-06-24T07:45:54.000Z</time>
      </trkpt>
      <trkpt lat="48.6539" lon="-2.36404">
        <ele>14</ele>
        <time>2020-06-24T07:45:55.000Z</time>
      </trkpt>
      <trkpt lat="48.6539" lon="-2.36404">
        <ele>15</ele>
        <time>2020-06-24T07:45:56.000Z</time>
      </trkpt>
      <trkpt lat="48.65389" lon="-2.36403">
        <ele>15</ele>
        <time>2020-06-24T07:45:57.000Z</time>
      </trkpt>
      <trkpt lat="48.65389" lon="-2.36402">
        <ele>15</ele>
        <time>2020-06-24T07:45:58.000Z</time>
      </trkpt>
      <trkpt lat="48.65388" lon="-2.36401">
        <ele>15</ele>
        <time>2020-06-24T07:45:59.000Z</time>
      </trkpt>
      <trkpt lat="48.65388" lon="-2.36401">
        <ele>16</ele>
        <time>2020-06-24T07:46:00.000Z</time>
      </trkpt>
      <trkpt lat="48.65387" lon="-2.364">
        <ele>16</ele>
        <time>2020-06-24T07:46:01.000Z</time>
      </trkpt>
      <trkpt lat="48.65386" lon="-2.36399">
        <ele>16</ele>
        <time>2020-06-24T07:46:02.000Z</time>
      </trkpt>
      <trkpt lat="48.65386" lon="-2.36397">
        <ele>16</ele>
        <time>2020-06-24T07:46:03.000Z</time>
      </trkpt>
      <trkpt lat="48.65385" lon="-2.36396">
        <ele>16</ele>
        <time>2020-06-24T07:46:04.000Z</time>
      </trkpt>
      <trkpt lat="48.65385" lon="-2.36395">
        <ele>16</ele>
        <time>2020-06-24T07:46:05.000Z</time>
      </trkpt>
      <trkpt lat="48.65384" lon="-2.36393">
        <ele>16</ele>
        <time>2020-06-24T07:46:06.000Z</time>
      </trkpt>
      <trkpt lat="48.65384" lon="-2.36392">
        <ele>16</ele>
        <time>2020-06-24T07:46:07.000Z</time>
      </trkpt>
      <trkpt lat="48.65383" lon="-2.36391">
        <ele>17</ele>
        <time>2020-06-24T07:46:08.000Z</time>
      </trkpt>
      <trkpt lat="48.65383" lon="-2.36389">
        <ele>17</ele>
        <time>2020-06-24T07:46:09.000Z</time>
      </trkpt>
      <trkpt lat="48.65383" lon="-2.36388">
        <ele>17</ele>
        <time>2020-06-24T07:46:10.000Z</time>
      </trkpt>
      <trkpt lat="48.65384" lon="-2.36386">
        <ele>17</ele>
        <time>2020-06-24T07:46:11.000Z</time>
      </trkpt>
      <trkpt lat="48.65384" lon="-2.36385">
        <ele>17</ele>
        <time>2020-06-24T07:46:12.000Z</time>
      </trkpt>
      <trkpt lat="48.65384" lon="-2.36384">
        <ele>17</ele>
        <time>2020-06-24T07:46:13.000Z</time>
      </trkpt>
      <trkpt lat="48.65385" lon="-2.36383">
        <ele>18</ele>
        <time>2020-06-24T07:46:14.000Z</time>
      </trkpt>
      <trkpt lat="48.65386" lon="-2.36382">
        <ele>18</ele>
        <time>2020-06-24T07:46:15.000Z</time>
      </trkpt>
      <trkpt lat="48.65386" lon="-2.36381">
        <ele>18</ele>
        <time>2020-06-24T07:46:16.000Z</time>
      </trkpt>
      <trkpt lat="48.65387" lon="-2.36379">
        <ele>18</ele>
        <time>2020-06-24T07:46:17.000Z</time>
      </trkpt>
      <trkpt lat="48.65387" lon="-2.36379">
        <ele>19</ele>
        <time>2020-06-24T07:46:18.000Z</time>
      </trkpt>
      <trkpt lat="48.65388" lon="-2.36378">
        <ele>19</ele>
        <time>2020-06-24T07:46:19.000Z</time>
      </trkpt>
      <trkpt lat="48.65389" lon="-2.36377">
        <ele>19</ele>
        <time>2020-06-24T07:46:20.000Z</time>
      </trkpt>
      <trkpt lat="48.65389" lon="-2.36376">
        <ele>19</ele>
        <time>2020-06-24T07:46:21.000Z</time>
      </trkpt>
      <trkpt lat="48.6539" lon="-2.36375">
        <ele>19</ele>
        <time>2020-06-24T07:46:22.000Z</time>
      </trkpt>
      <trkpt lat="48.65391" lon="-2.36374">
        <ele>19</ele>
        <time>2020-06-24T07:46:23.000Z</time>
      </trkpt>
      <trkpt lat="48.65391" lon="-2.36373">
        <ele>19</ele>
        <time>2020-06-24T07:46:24.000Z</time>
      </trkpt>
      <trkpt lat="48.65392" lon="-2.36372">
        <ele>19</ele>
        <time>2020-06-24T07:46:25.000Z</time>
      </trkpt>
      <trkpt lat="48.65392" lon="-2.36371">
        <ele>19</ele>
        <time>2020-06-24T07:46:26.000Z</time>
      </trkpt>
      <trkpt lat="48.65393" lon="-2.36371">
        <ele>19</ele>
        <time>2020-06-24T07:46:27.000Z</time>
      </trkpt>
      <trkpt lat="48.65394" lon="-2.3637">
        <ele>19</ele>
        <time>2020-06-24T07:46:28.000Z</time>
      </trkpt>
      <trkpt lat="48.65394" lon="-2.36369">
        <ele>18</ele>
        <time>2020-06-24T07:46:29.000Z</time>
      </trkpt>
      <trkpt lat="48.65395" lon="-2.36368">
        <ele>19</ele>
        <time>2020-06-24T07:46:30.000Z</time>
      </trkpt>
      <trkpt lat="48.65395" lon="-2.36367">
        <ele>19</ele>
        <time>2020-06-24T07:46:31.000Z</time>
      </trkpt>
      <trkpt lat="48.65396" lon="-2.36366">
        <ele>19</ele>
        <time>2020-06-24T07:46:32.000Z</time>
      </trkpt>
      <trkpt lat="48.65397" lon="-2.36365">
        <ele>18</ele>
        <time>2020-06-24T07:46:33.000Z</time>
      </trkpt>
      <trkpt lat="48.65397" lon="-2.36363">
        <ele>18</ele>
        <time>2020-06-24T07:46:34.000Z</time>
      </trkpt>
      <trkpt lat="48.65397" lon="-2.36362">
        <ele>18</ele>
        <time>2020-06-24T07:46:35.000Z</time>
      </trkpt>
      <trkpt lat="48.65397" lon="-2.36361">
        <ele>18</ele>
        <time>2020-06-24T07:46:36.000Z</time>
      </trkpt>
      <trkpt lat="48.65397" lon="-2.36359">
        <ele>18</ele>
        <time>2020-06-24T07:46:37.000Z</time>
      </trkpt>
      <trkpt lat="48.65396" lon="-2.36358">
        <ele>18</ele>
        <time>2020-06-24T07:46:38.000Z</time>
      </trkpt>
      <trkpt lat="48.65396" lon="-2.36357">
        <ele>19</ele>
        <time>2020-06-24T07:46:39.000Z</time>
      </trkpt>
      <trkpt lat="48.65395" lon="-2.36356">
        <ele>18</ele>
        <time>2020-06-24T07:46:40.000Z</time>
      </trkpt>
      <trkpt lat="48.65394" lon="-2.36355">
        <ele>18</ele>
        <time>2020-06-24T07:46:41.000Z</time>
      </trkpt>
      <trkpt lat="48.65393" lon="-2.36354">
        <ele>19</ele>
        <time>2020-06-24T07:46:42.000Z</time>
      </trkpt>
      <trkpt lat="48.65392" lon="-2.36353">
        <ele>19</ele>
        <time>2020-06-24T07:46:43.000Z</time>
      </trkpt>
      <trkpt lat="48.65392" lon="-2.36352">
        <ele>19</ele>
        <time>2020-06-24T07:46:44.000Z</time>
      </trkpt>
      <trkpt lat="48.65391" lon="-2.36352">
        <ele>19</ele>
        <time>2020-06-24T07:46:45.000Z</time>
      </trkpt>
      <trkpt lat="48.6539" lon="-2.36351">
        <ele>19</ele>
        <time>2020-06-24T07:46:46.000Z</time>
      </trkpt>
      <trkpt lat="48.65389" lon="-2.3635">
        <ele>19</ele>
        <time>2020-06-24T07:46:47.000Z</time>
      </trkpt>
      <trkpt lat="48.65388" lon="-2.3635">
        <ele>20</ele>
        <time>2020-06-24T07:46:48.000Z</time>
      </trkpt>
      <trkpt lat="48.65387" lon="-2.36349">
        <ele>20</ele>
        <time>2020-06-24T07:46:49.000Z</time>
      </trkpt>
      <trkpt lat="48.65386" lon="-2.36348">
        <ele>19</ele>
        <time>2020-06-24T07:46:50.000Z</time>
      </trkpt>
      <trkpt lat="48.65385" lon="-2.36347">
        <ele>20</ele>
        <time>2020-06-24T07:46:51.000Z</time>
      </trkpt>
      <trkpt lat="48.65384" lon="-2.36347">
        <ele>20</ele>
        <time>2020-06-24T07:46:52.000Z</time>
      </trkpt>
      <trkpt lat="48.65383" lon="-2.36346">
        <ele>20</ele>
        <time>2020-06-24T07:46:53.000Z</time>
      </trkpt>
      <trkpt lat="48.65382" lon="-2.36345">
        <ele>20</ele>
        <time>2020-06-24T07:46:54.000Z</time>
      </trkpt>
      <trkpt lat="48.65381" lon="-2.36344">
        <ele>20</ele>
        <time>2020-06-24T07:46:55.000Z</time>
      </trkpt>
      <trkpt lat="48.6538" lon="-2.36343">
        <ele>20</ele>
        <time>2020-06-24T07:46:56.000Z</time>
      </trkpt>
      <trkpt lat="48.6538" lon="-2.36342">
        <ele>21</ele>
        <time>2020-06-24T07:46:57.000Z</time>
      </trkpt>
      <trkpt lat="48.65379" lon="-2.36342">
        <ele>21</ele>
        <time>2020-06-24T07:46:58.000Z</time>
      </trkpt>
      <trkpt lat="48.65378" lon="-2.36341">
        <ele>21</ele>
        <time>2020-06-24T07:46:59.000Z</time>
      </trkpt>
      <trkpt lat="48.65377" lon="-2.3634">
        <ele>21</ele>
        <time>2020-06-24T07:47:00.000Z</time>
      </trkpt>
      <trkpt lat="48.65376" lon="-2.36339">
        <ele>22</ele>
        <time>2020-06-24T07:47:01.000Z</time>
      </trkpt>
      <trkpt lat="48.65376" lon="-2.36338">
        <ele>22</ele>
        <time>2020-06-24T07:47:02.000Z</time>
      </trkpt>
      <trkpt lat="48.65375" lon="-2.36337">
        <ele>22</ele>
        <time>2020-06-24T07:47:03.000Z</time>
      </trkpt>
      <trkpt lat="48.65374" lon="-2.36336">
        <ele>22</ele>
        <time>2020-06-24T07:47:04.000Z</time>
      </trkpt>
      <trkpt lat="48.65374" lon="-2.36335">
        <ele>22</ele>
        <time>2020-06-24T07:47:05.000Z</time>
      </trkpt>
      <trkpt lat="48.65373" lon="-2.36334">
        <ele>22</ele>
        <time>2020-06-24T07:47:06.000Z</time>
      </trkpt>
      <trkpt lat="48.65372" lon="-2.36333">
        <ele>21</ele>
        <time>2020-06-24T07:47:07.000Z</time>
      </trkpt>
      <trkpt lat="48.65371" lon="-2.36332">
        <ele>22</ele>
        <time>2020-06-24T07:47:08.000Z</time>
      </trkpt>
      <trkpt lat="48.6537" lon="-2.36331">
        <ele>22</ele>
        <time>2020-06-24T07:47:09.000Z</time>
      </trkpt>
      <trkpt lat="48.6537" lon="-2.3633">
        <ele>22</ele>
        <time>2020-06-24T07:47:10.000Z</time>
      </trkpt>
      <trkpt lat="48.65369" lon="-2.36329">
        <ele>23</ele>
        <time>2020-06-24T07:47:11.000Z</time>
      </trkpt>
      <trkpt lat="48.65369" lon="-2.36328">
        <ele>23</ele>
        <time>2020-06-24T07:47:12.000Z</time>
      </trkpt>
      <trkpt lat="48.65368" lon="-2.36328">
        <ele>23</ele>
        <time>2020-06-24T07:47:13.000Z</time>
      </trkpt>
      <trkpt lat="48.65368" lon="-2.36327">
        <ele>23</ele>
        <time>2020-06-24T07:47:14.000Z</time>
      </trkpt>
      <trkpt lat="48.65367" lon="-2.36326">
        <ele>23</ele>
        <time>2020-06-24T07:47:15.000Z</time>
      </trkpt>
      <trkpt lat="48.65367" lon="-2.36325">
        <ele>23</ele>
        <time>2020-06-24T07:47:16.000Z</time>
      </trkpt>
      <trkpt lat="48.65366" lon="-2.36324">
        <ele>22</ele>
        <time>2020-06-24T07:47:17.000Z</time>
      </trkpt>
      <trkpt lat="48.65365" lon="-2.36323">
        <ele>22</ele>
        <time>2020-06-24T07:47:18.000Z</time>
      </trkpt>
      <trkpt lat="48.65364" lon="-2.36322">
        <ele>22</ele>
        <time>2020-06-24T07:47:19.000Z</time>
      </trkpt>
      <trkpt lat="48.65363" lon="-2.3632">
        <ele>22</ele>
        <time>2020-06-24T07:47:20.000Z</time>
      </trkpt>
      <trkpt lat="48.65363" lon="-2.36319">
        <ele>21</ele>
        <time>2020-06-24T07:47:21.000Z</time>
      </trkpt>
      <trkpt lat="48.65362" lon="-2.36317">
        <ele>21</ele>
        <time>2020-06-24T07:47:22.000Z</time>
      </trkpt>
      <trkpt lat="48.65362" lon="-2.36315">
        <ele>21</ele>
        <time>2020-06-24T07:47:23.000Z</time>
      </trkpt>
      <trkpt lat="48.65362" lon="-2.36314">
        <ele>21</ele>
        <time>2020-06-24T07:47:24.000Z</time>
      </trkpt>
      <trkpt lat="48.65362" lon="-2.36312">
        <ele>22</ele>
        <time>2020-06-24T07:47:25.000Z</time>
      </trkpt>
      <trkpt lat="48.65362" lon="-2.3631">
        <ele>21</ele>
        <time>2020-06-24T07:47:26.000Z</time>
      </trkpt>
      <trkpt lat="48.65361" lon="-2.36309">
        <ele>21</ele>
        <time>2020-06-24T07:47:27.000Z</time>
      </trkpt>
      <trkpt lat="48.65361" lon="-2.36307">
        <ele>21</ele>
        <time>2020-06-24T07:47:28.000Z</time>
      </trkpt>
      <trkpt lat="48.65361" lon="-2.36305">
        <ele>21</ele>
        <time>2020-06-24T07:47:29.000Z</time>
      </trkpt>
      <trkpt lat="48.65361" lon="-2.36304">
        <ele>21</ele>
        <time>2020-06-24T07:47:30.000Z</time>
      </trkpt>
      <trkpt lat="48.65361" lon="-2.36302">
        <ele>21</ele>
        <time>2020-06-24T07:47:31.000Z</time>
      </trkpt>
      <trkpt lat="48.6536" lon="-2.363">
        <ele>21</ele>
        <time>2020-06-24T07:47:32.000Z</time>
      </trkpt>
      <trkpt lat="48.6536" lon="-2.36298">
        <ele>20</ele>
        <time>2020-06-24T07:47:33.000Z</time>
      </trkpt>
      <trkpt lat="48.65359" lon="-2.36297">
        <ele>20</ele>
        <time>2020-06-24T07:47:34.000Z</time>
      </trkpt>
      <trkpt lat="48.65359" lon="-2.36295">
        <ele>20</ele>
        <time>2020-06-24T07:47:35.000Z</time>
      </trkpt>
      <trkpt lat="48.65358" lon="-2.36293">
        <ele>19</ele>
        <time>2020-06-24T07:47:36.000Z</time>
      </trkpt>
      <trkpt lat="48.65358" lon="-2.36291">
        <ele>19</ele>
        <time>2020-06-24T07:47:37.000Z</time>
      </trkpt>
      <trkpt lat="48.65358" lon="-2.3629">
        <ele>18</ele>
        <time>2020-06-24T07:47:38.000Z</time>
      </trkpt>
      <trkpt lat="48.65357" lon="-2.36288">
        <ele>18</ele>
        <time>2020-06-24T07:47:39.000Z</time>
      </trkpt>
      <trkpt lat="48.65357" lon="-2.36286">
        <ele>17</ele>
        <time>2020-06-24T07:47:40.000Z</time>
      </trkpt>
      <trkpt lat="48.65356" lon="-2.36284">
        <ele>17</ele>
        <time>2020-06-24T07:47:41.000Z</time>
      </trkpt>
      <trkpt lat="48.65356" lon="-2.36283">
        <ele>16</ele>
        <time>2020-06-24T07:47:42.000Z</time>
      </trkpt>
      <trkpt lat="48.65355" lon="-2.36281">
        <ele>17</ele>
        <time>2020-06-24T07:47:43.000Z</time>
      </trkpt>
      <trkpt lat="48.65355" lon="-2.36279">
        <ele>17</ele>
        <time>2020-06-24T07:47:44.000Z</time>
      </trkpt>
      <trkpt lat="48.65355" lon="-2.36277">
        <ele>17</ele>
        <time>2020-06-24T07:47:45.000Z</time>
      </trkpt>
      <trkpt lat="48.65355" lon="-2.36275">
        <ele>17</ele>
        <time>2020-06-24T07:47:46.000Z</time>
      </trkpt>
      <trkpt lat="48.65355" lon="-2.36274">
        <ele>17</ele>
        <time>2020-06-24T07:47:47.000Z</time>
      </trkpt>
      <trkpt lat="48.65355" lon="-2.36272">
        <ele>17</ele>
        <time>2020-06-24T07:47:48.000Z</time>
      </trkpt>
      <trkpt lat="48.65354" lon="-2.3627">
        <ele>17</ele>
        <time>2020-06-24T07:47:49.000Z</time>
      </trkpt>
      <trkpt lat="48.65354" lon="-2.36269">
        <ele>16</ele>
        <time>2020-06-24T07:47:50.000Z</time>
      </trkpt>
      <trkpt lat="48.65354" lon="-2.36267">
        <ele>16</ele>
        <time>2020-06-24T07:47:51.000Z</time>
      </trkpt>
      <trkpt lat="48.65354" lon="-2.36265">
        <ele>16</ele>
        <time>2020-06-24T07:47:52.000Z</time>
      </trkpt>
      <trkpt lat="48.65354" lon="-2.36263">
        <ele>16</ele>
        <time>2020-06-24T07:47:53.000Z</time>
      </trkpt>
      <trkpt lat="48.65354" lon="-2.36261">
        <ele>15</ele>
        <time>2020-06-24T07:47:54.000Z</time>
      </trkpt>
      <trkpt lat="48.65354" lon="-2.36259">
        <ele>15</ele>
        <time>2020-06-24T07:47:55.000Z</time>
      </trkpt>
      <trkpt lat="48.65354" lon="-2.36257">
        <ele>15</ele>
        <time>2020-06-24T07:47:56.000Z</time>
      </trkpt>
      <trkpt lat="48.65354" lon="-2.36256">
        <ele>15</ele>
        <time>2020-06-24T07:47:57.000Z</time>
      </trkpt>
      <trkpt lat="48.65354" lon="-2.36254">
        <ele>15</ele>
        <time>2020-06-24T07:47:58.000Z</time>
      </trkpt>
      <trkpt lat="48.65354" lon="-2.36252">
        <ele>15</ele>
        <time>2020-06-24T07:47:59.000Z</time>
      </trkpt>
      <trkpt lat="48.65354" lon="-2.3625">
        <ele>15</ele>
        <time>2020-06-24T07:48:00.000Z</time>
      </trkpt>
      <trkpt lat="48.65354" lon="-2.36249">
        <ele>15</ele>
        <time>2020-06-24T07:48:01.000Z</time>
      </trkpt>
      <trkpt lat="48.65354" lon="-2.36247">
        <ele>15</ele>
        <time>2020-06-24T07:48:02.000Z</time>
      </trkpt>
      <trkpt lat="48.65355" lon="-2.36246">
        <ele>16</ele>
        <time>2020-06-24T07:48:03.000Z</time>
      </trkpt>
      <trkpt lat="48.65355" lon="-2.36244">
        <ele>16</ele>
        <time>2020-06-24T07:48:04.000Z</time>
      </trkpt>
      <trkpt lat="48.65356" lon="-2.36243">
        <ele>16</ele>
        <time>2020-06-24T07:48:05.000Z</time>
      </trkpt>
      <trkpt lat="48.65356" lon="-2.36241">
        <ele>16</ele>
        <time>2020-06-24T07:48:06.000Z</time>
      </trkpt>
      <trkpt lat="48.65356" lon="-2.3624">
        <ele>16</ele>
        <time>2020-06-24T07:48:07.000Z</time>
      </trkpt>
      <trkpt lat="48.65356" lon="-2.36238">
        <ele>16</ele>
        <time>2020-06-24T07:48:08.000Z</time>
      </trkpt>
      <trkpt lat="48.65356" lon="-2.36237">
        <ele>16</ele>
        <time>2020-06-24T07:48:09.000Z</time>
      </trkpt>
      <trkpt lat="48.65356" lon="-2.36235">
        <ele>17</ele>
        <time>2020-06-24T07:48:10.000Z</time>
      </trkpt>
      <trkpt lat="48.65357" lon="-2.36234">
        <ele>17</ele>
        <time>2020-06-24T07:48:11.000Z</time>
      </trkpt>
      <trkpt lat="48.65357" lon="-2.36232">
        <ele>17</ele>
        <time>2020-06-24T07:48:12.000Z</time>
      </trkpt>
      <trkpt lat="48.65358" lon="-2.36231">
        <ele>17</ele>
        <time>2020-06-24T07:48:13.000Z</time>
      </trkpt>
      <trkpt lat="48.65358" lon="-2.36229">
        <ele>18</ele>
        <time>2020-06-24T07:48:14.000Z</time>
      </trkpt>
      <trkpt lat="48.65359" lon="-2.36228">
        <ele>18</ele>
        <time>2020-06-24T07:48:15.000Z</time>
      </trkpt>
      <trkpt lat="48.65359" lon="-2.36227">
        <ele>18</ele>
        <time>2020-06-24T07:48:16.000Z</time>
      </trkpt>
      <trkpt lat="48.65359" lon="-2.36225">
        <ele>18</ele>
        <time>2020-06-24T07:48:17.000Z</time>
      </trkpt>
      <trkpt lat="48.6536" lon="-2.36224">
        <ele>18</ele>
        <time>2020-06-24T07:48:18.000Z</time>
      </trkpt>
      <trkpt lat="48.6536" lon="-2.36222">
        <ele>18</ele>
        <time>2020-06-24T07:48:19.000Z</time>
      </trkpt>
      <trkpt lat="48.6536" lon="-2.36221">
        <ele>18</ele>
        <time>2020-06-24T07:48:20.000Z</time>
      </trkpt>
      <trkpt lat="48.65361" lon="-2.36219">
        <ele>18</ele>
        <time>2020-06-24T07:48:21.000Z</time>
      </trkpt>
      <trkpt lat="48.65361" lon="-2.36217">
        <ele>18</ele>
        <time>2020-06-24T07:48:22.000Z</time>
      </trkpt>
      <trkpt lat="48.65361" lon="-2.36216">
        <ele>18</ele>
        <time>2020-06-24T07:48:23.000Z</time>
      </trkpt>
      <trkpt lat="48.65361" lon="-2.36214">
        <ele>18</ele>
        <time>2020-06-24T07:48:24.000Z</time>
      </trkpt>
      <trkpt lat="48.65361" lon="-2.36212">
        <ele>18</ele>
        <time>2020-06-24T07:48:25.000Z</time>
      </trkpt>
      <trkpt lat="48.65361" lon="-2.3621">
        <ele>18</ele>
        <time>2020-06-24T07:48:26.000Z</time>
      </trkpt>
      <trkpt lat="48.65361" lon="-2.36209">
        <ele>19</ele>
        <time>2020-06-24T07:48:27.000Z</time>
      </trkpt>
      <trkpt lat="48.6536" lon="-2.36207">
        <ele>19</ele>
        <time>2020-06-24T07:48:28.000Z</time>
      </trkpt>
      <trkpt lat="48.6536" lon="-2.36206">
        <ele>19</ele>
        <time>2020-06-24T07:48:29.000Z</time>
      </trkpt>
      <trkpt lat="48.6536" lon="-2.36204">
        <ele>19</ele>
        <time>2020-06-24T07:48:30.000Z</time>
      </trkpt>
      <trkpt lat="48.6536" lon="-2.36203">
        <ele>19</ele>
        <time>2020-06-24T07:48:31.000Z</time>
      </trkpt>
      <trkpt lat="48.6536" lon="-2.36202">
        <ele>19</ele>
        <time>2020-06-24T07:48:32.000Z</time>
      </trkpt>
      <trkpt lat="48.6536" lon="-2.362">
        <ele>19</ele>
        <time>2020-06-24T07:48:33.000Z</time>
      </trkpt>
      <trkpt lat="48.6536" lon="-2.36199">
        <ele>19</ele>
        <time>2020-06-24T07:48:34.000Z</time>
      </trkpt>
      <trkpt lat="48.6536" lon="-2.36198">
        <ele>19</ele>
        <time>2020-06-24T07:48:35.000Z</time>
      </trkpt>
      <trkpt lat="48.6536" lon="-2.36197">
        <ele>19</ele>
        <time>2020-06-24T07:48:36.000Z</time>
      </trkpt>
      <trkpt lat="48.65359" lon="-2.36195">
        <ele>19</ele>
        <time>2020-06-24T07:48:37.000Z</time>
      </trkpt>
      <trkpt lat="48.65359" lon="-2.36194">
        <ele>19</ele>
        <time>2020-06-24T07:48:38.000Z</time>
      </trkpt>
      <trkpt lat="48.6536" lon="-2.36193">
        <ele>20</ele>
        <time>2020-06-24T07:48:39.000Z</time>
      </trkpt>
      <trkpt lat="48.6536" lon="-2.36191">
        <ele>21</ele>
        <time>2020-06-24T07:48:40.000Z</time>
      </trkpt>
      <trkpt lat="48.6536" lon="-2.3619">
        <ele>21</ele>
        <time>2020-06-24T07:48:41.000Z</time>
      </trkpt>
      <trkpt lat="48.6536" lon="-2.36188">
        <ele>20</ele>
        <time>2020-06-24T07:48:42.000Z</time>
      </trkpt>
      <trkpt lat="48.6536" lon="-2.36186">
        <ele>20</ele>
        <time>2020-06-24T07:48:43.000Z</time>
      </trkpt>
      <trkpt lat="48.6536" lon="-2.36185">
        <ele>20</ele>
        <time>2020-06-24T07:48:44.000Z</time>
      </trkpt>
      <trkpt lat="48.6536" lon="-2.36183">
        <ele>20</ele>
        <time>2020-06-24T07:48:45.000Z</time>
      </trkpt>
      <trkpt lat="48.6536" lon="-2.36182">
        <ele>20</ele>
        <time>2020-06-24T07:48:46.000Z</time>
      </trkpt>
      <trkpt lat="48.6536" lon="-2.3618">
        <ele>20</ele>
        <time>2020-06-24T07:48:47.000Z</time>
      </trkpt>
      <trkpt lat="48.6536" lon="-2.36179">
        <ele>20</ele>
        <time>2020-06-24T07:48:48.000Z</time>
      </trkpt>
      <trkpt lat="48.6536" lon="-2.36177">
        <ele>20</ele>
        <time>2020-06-24T07:48:49.000Z</time>
      </trkpt>
      <trkpt lat="48.6536" lon="-2.36176">
        <ele>20</ele>
        <time>2020-06-24T07:48:50.000Z</time>
      </trkpt>
      <trkpt lat="48.6536" lon="-2.36174">
        <ele>20</ele>
        <time>2020-06-24T07:48:51.000Z</time>
      </trkpt>
      <trkpt lat="48.6536" lon="-2.36173">
        <ele>20</ele>
        <time>2020-06-24T07:48:52.000Z</time>
      </trkpt>
      <trkpt lat="48.6536" lon="-2.36171">
        <ele>20</ele>
        <time>2020-06-24T07:48:53.000Z</time>
      </trkpt>
      <trkpt lat="48.6536" lon="-2.3617">
        <ele>20</ele>
        <time>2020-06-24T07:48:54.000Z</time>
      </trkpt>
      <trkpt lat="48.65361" lon="-2.36168">
        <ele>20</ele>
        <time>2020-06-24T07:48:55.000Z</time>
      </trkpt>
      <trkpt lat="48.65361" lon="-2.36166">
        <ele>21</ele>
        <time>2020-06-24T07:48:56.000Z</time>
      </trkpt>
      <trkpt lat="48.65361" lon="-2.36165">
        <ele>20</ele>
        <time>2020-06-24T07:48:57.000Z</time>
      </trkpt>
      <trkpt lat="48.65361" lon="-2.36163">
        <ele>20</ele>
        <time>2020-06-24T07:48:58.000Z</time>
      </trkpt>
      <trkpt lat="48.65361" lon="-2.36161">
        <ele>20</ele>
        <time>2020-06-24T07:48:59.000Z</time>
      </trkpt>
      <trkpt lat="48.65361" lon="-2.3616">
        <ele>20</ele>
        <time>2020-06-24T07:49:00.000Z</time>
      </trkpt>
      <trkpt lat="48.6536" lon="-2.36158">
        <ele>21</ele>
        <time>2020-06-24T07:49:01.000Z</time>
      </trkpt>
      <trkpt lat="48.6536" lon="-2.36156">
        <ele>21</ele>
        <time>2020-06-24T07:49:02.000Z</time>
      </trkpt>
      <trkpt lat="48.6536" lon="-2.36155">
        <ele>21</ele>
        <time>2020-06-24T07:49:03.000Z</time>
      </trkpt>
      <trkpt lat="48.6536" lon="-2.36153">
        <ele>21</ele>
        <time>2020-06-24T07:49:04.000Z</time>
      </trkpt>
      <trkpt lat="48.65361" lon="-2.36151">
        <ele>21</ele>
        <time>2020-06-24T07:49:05.000Z</time>
      </trkpt>
      <trkpt lat="48.65361" lon="-2.3615">
        <ele>21</ele>
        <time>2020-06-24T07:49:06.000Z</time>
      </trkpt>
      <trkpt lat="48.65361" lon="-2.36148">
        <ele>21</ele>
        <time>2020-06-24T07:49:07.000Z</time>
      </trkpt>
      <trkpt lat="48.65361" lon="-2.36146">
        <ele>22</ele>
        <time>2020-06-24T07:49:08.000Z</time>
      </trkpt>
      <trkpt lat="48.65361" lon="-2.36145">
        <ele>22</ele>
        <time>2020-06-24T07:49:09.000Z</time>
      </trkpt>
      <trkpt lat="48.65361" lon="-2.36143">
        <ele>21</ele>
        <time>2020-06-24T07:49:10.000Z</time>
      </trkpt>
      <trkpt lat="48.65361" lon="-2.36141">
        <ele>21</ele>
        <time>2020-06-24T07:49:11.000Z</time>
      </trkpt>
      <trkpt lat="48.65361" lon="-2.3614">
        <ele>21</ele>
        <time>2020-06-24T07:49:12.000Z</time>
      </trkpt>
      <trkpt lat="48.65361" lon="-2.36138">
        <ele>21</ele>
        <time>2020-06-24T07:49:13.000Z</time>
      </trkpt>
      <trkpt lat="48.65361" lon="-2.36136">
        <ele>21</ele>
        <time>2020-06-24T07:49:14.000Z</time>
      </trkpt>
      <trkpt lat="48.6536" lon="-2.36135">
        <ele>21</ele>
        <time>2020-06-24T07:49:15.000Z</time>
      </trkpt>
      <trkpt lat="48.6536" lon="-2.36133">
        <ele>21</ele>
        <time>2020-06-24T07:49:16.000Z</time>
      </trkpt>
      <trkpt lat="48.6536" lon="-2.36131">
        <ele>21</ele>
        <time>2020-06-24T07:49:17.000Z</time>
      </trkpt>
      <trkpt lat="48.6536" lon="-2.3613">
        <ele>21</ele>
        <time>2020-06-24T07:49:18.000Z</time>
      </trkpt>
      <trkpt lat="48.65361" lon="-2.36128">
        <ele>21</ele>
        <time>2020-06-24T07:49:19.000Z</time>
      </trkpt>
      <trkpt lat="48.65361" lon="-2.36126">
        <ele>21</ele>
        <time>2020-06-24T07:49:20.000Z</time>
      </trkpt>
      <trkpt lat="48.65361" lon="-2.36125">
        <ele>21</ele>
        <time>2020-06-24T07:49:21.000Z</time>
      </trkpt>
      <trkpt lat="48.65362" lon="-2.36123">
        <ele>20</ele>
        <time>2020-06-24T07:49:22.000Z</time>
      </trkpt>
      <trkpt lat="48.65362" lon="-2.36121">
        <ele>21</ele>
        <time>2020-06-24T07:49:23.000Z</time>
      </trkpt>
      <trkpt lat="48.65362" lon="-2.3612">
        <ele>20</ele>
        <time>2020-06-24T07:49:24.000Z</time>
      </trkpt>
      <trkpt lat="48.65362" lon="-2.36118">
        <ele>20</ele>
        <time>2020-06-24T07:49:25.000Z</time>
      </trkpt>
      <trkpt lat="48.65363" lon="-2.36117">
        <ele>19</ele>
        <time>2020-06-24T07:49:26.000Z</time>
      </trkpt>
      <trkpt lat="48.65362" lon="-2.36115">
        <ele>20</ele>
        <time>2020-06-24T07:49:27.000Z</time>
      </trkpt>
      <trkpt lat="48.65363" lon="-2.36113">
        <ele>20</ele>
        <time>2020-06-24T07:49:28.000Z</time>
      </trkpt>
      <trkpt lat="48.65363" lon="-2.36112">
        <ele>21</ele>
        <time>2020-06-24T07:49:29.000Z</time>
      </trkpt>
      <trkpt lat="48.65363" lon="-2.3611">
        <ele>21</ele>
        <time>2020-06-24T07:49:30.000Z</time>
      </trkpt>
      <trkpt lat="48.65364" lon="-2.36108">
        <ele>23</ele>
        <time>2020-06-24T07:49:31.000Z</time>
      </trkpt>
      <trkpt lat="48.65365" lon="-2.36106">
        <ele>23</ele>
        <time>2020-06-24T07:49:32.000Z</time>
      </trkpt>
      <trkpt lat="48.65366" lon="-2.36105">
        <ele>24</ele>
        <time>2020-06-24T07:49:33.000Z</time>
      </trkpt>
      <trkpt lat="48.65367" lon="-2.36103">
        <ele>24</ele>
        <time>2020-06-24T07:49:34.000Z</time>
      </trkpt>
      <trkpt lat="48.65367" lon="-2.36101">
        <ele>24</ele>
        <time>2020-06-24T07:49:35.000Z</time>
      </trkpt>
      <trkpt lat="48.65368" lon="-2.36099">
        <ele>24</ele>
        <time>2020-06-24T07:49:36.000Z</time>
      </trkpt>
      <trkpt lat="48.65368" lon="-2.36097">
        <ele>24</ele>
        <time>2020-06-24T07:49:37.000Z</time>
      </trkpt>
      <trkpt lat="48.65368" lon="-2.36095">
        <ele>25</ele>
        <time>2020-06-24T07:49:38.000Z</time>
      </trkpt>
      <trkpt lat="48.65368" lon="-2.36093">
        <ele>25</ele>
        <time>2020-06-24T07:49:39.000Z</time>
      </trkpt>
      <trkpt lat="48.65369" lon="-2.36091">
        <ele>24</ele>
        <time>2020-06-24T07:49:40.000Z</time>
      </trkpt>
      <trkpt lat="48.65369" lon="-2.3609">
        <ele>24</ele>
        <time>2020-06-24T07:49:41.000Z</time>
      </trkpt>
      <trkpt lat="48.65369" lon="-2.36088">
        <ele>24</ele>
        <time>2020-06-24T07:49:42.000Z</time>
      </trkpt>
      <trkpt lat="48.65369" lon="-2.36086">
        <ele>23</ele>
        <time>2020-06-24T07:49:43.000Z</time>
      </trkpt>
      <trkpt lat="48.6537" lon="-2.36085">
        <ele>23</ele>
        <time>2020-06-24T07:49:44.000Z</time>
      </trkpt>
      <trkpt lat="48.6537" lon="-2.36083">
        <ele>23</ele>
        <time>2020-06-24T07:49:45.000Z</time>
      </trkpt>
      <trkpt lat="48.6537" lon="-2.36081">
        <ele>23</ele>
        <time>2020-06-24T07:49:46.000Z</time>
      </trkpt>
      <trkpt lat="48.6537" lon="-2.3608">
        <ele>22</ele>
        <time>2020-06-24T07:49:47.000Z</time>
      </trkpt>
      <trkpt lat="48.65369" lon="-2.36078">
        <ele>22</ele>
        <time>2020-06-24T07:49:48.000Z</time>
      </trkpt>
      <trkpt lat="48.65369" lon="-2.36076">
        <ele>22</ele>
        <time>2020-06-24T07:49:49.000Z</time>
      </trkpt>
      <trkpt lat="48.6537" lon="-2.36075">
        <ele>22</ele>
        <time>2020-06-24T07:49:50.000Z</time>
      </trkpt>
      <trkpt lat="48.6537" lon="-2.36073">
        <ele>22</ele>
        <time>2020-06-24T07:49:51.000Z</time>
      </trkpt>
      <trkpt lat="48.6537" lon="-2.36071">
        <ele>22</ele>
        <time>2020-06-24T07:49:52.000Z</time>
      </trkpt>
      <trkpt lat="48.65371" lon="-2.3607">
        <ele>22</ele>
        <time>2020-06-24T07:49:53.000Z</time>
      </trkpt>
      <trkpt lat="48.65371" lon="-2.36068">
        <ele>22</ele>
        <time>2020-06-24T07:49:54.000Z</time>
      </trkpt>
      <trkpt lat="48.65371" lon="-2.36067">
        <ele>21</ele>
        <time>2020-06-24T07:49:55.000Z</time>
      </trkpt>
      <trkpt lat="48.65371" lon="-2.36065">
        <ele>20</ele>
        <time>2020-06-24T07:49:56.000Z</time>
      </trkpt>
      <trkpt lat="48.65372" lon="-2.36063">
        <ele>20</ele>
        <time>2020-06-24T07:49:57.000Z</time>
      </trkpt>
      <trkpt lat="48.65372" lon="-2.36061">
        <ele>20</ele>
        <time>2020-06-24T07:49:58.000Z</time>
      </trkpt>
      <trkpt lat="48.65373" lon="-2.36059">
        <ele>20</ele>
        <time>2020-06-24T07:49:59.000Z</time>
      </trkpt>
      <trkpt lat="48.65373" lon="-2.36057">
        <ele>20</ele>
        <time>2020-06-24T07:50:00.000Z</time>
      </trkpt>
      <trkpt lat="48.65374" lon="-2.36056">
        <ele>20</ele>
        <time>2020-06-24T07:50:01.000Z</time>
      </trkpt>
      <trkpt lat="48.65374" lon="-2.36054">
        <ele>21</ele>
        <time>2020-06-24T07:50:02.000Z</time>
      </trkpt>
      <trkpt lat="48.65374" lon="-2.36053">
        <ele>22</ele>
        <time>2020-06-24T07:50:03.000Z</time>
      </trkpt>
      <trkpt lat="48.65375" lon="-2.36052">
        <ele>22</ele>
        <time>2020-06-24T07:50:04.000Z</time>
      </trkpt>
      <trkpt lat="48.65376" lon="-2.3605">
        <ele>21</ele>
        <time>2020-06-24T07:50:05.000Z</time>
      </trkpt>
      <trkpt lat="48.65376" lon="-2.36049">
        <ele>21</ele>
        <time>2020-06-24T07:50:06.000Z</time>
      </trkpt>
      <trkpt lat="48.65377" lon="-2.36048">
        <ele>21</ele>
        <time>2020-06-24T07:50:07.000Z</time>
      </trkpt>
      <trkpt lat="48.65377" lon="-2.36047">
        <ele>21</ele>
        <time>2020-06-24T07:50:08.000Z</time>
      </trkpt>
      <trkpt lat="48.65378" lon="-2.36046">
        <ele>21</ele>
        <time>2020-06-24T07:50:09.000Z</time>
      </trkpt>
      <trkpt lat="48.65379" lon="-2.36045">
        <ele>21</ele>
        <time>2020-06-24T07:50:10.000Z</time>
      </trkpt>
      <trkpt lat="48.65379" lon="-2.36044">
        <ele>21</ele>
        <time>2020-06-24T07:50:11.000Z</time>
      </trkpt>
      <trkpt lat="48.65379" lon="-2.36042">
        <ele>21</ele>
        <time>2020-06-24T07:50:12.000Z</time>
      </trkpt>
      <trkpt lat="48.65379" lon="-2.36041">
        <ele>21</ele>
        <time>2020-06-24T07:50:13.000Z</time>
      </trkpt>
      <trkpt lat="48.6538" lon="-2.36039">
        <ele>21</ele>
        <time>2020-06-24T07:50:14.000Z</time>
      </trkpt>
      <trkpt lat="48.6538" lon="-2.36038">
        <ele>21</ele>
        <time>2020-06-24T07:50:15.000Z</time>
      </trkpt>
      <trkpt lat="48.6538" lon="-2.36036">
        <ele>20</ele>
        <time>2020-06-24T07:50:16.000Z</time>
      </trkpt>
      <trkpt lat="48.6538" lon="-2.36035">
        <ele>20</ele>
        <time>2020-06-24T07:50:17.000Z</time>
      </trkpt>
      <trkpt lat="48.65381" lon="-2.36033">
        <ele>20</ele>
        <time>2020-06-24T07:50:18.000Z</time>
      </trkpt>
      <trkpt lat="48.65381" lon="-2.36032">
        <ele>20</ele>
        <time>2020-06-24T07:50:19.000Z</time>
      </trkpt>
      <trkpt lat="48.65381" lon="-2.3603">
        <ele>20</ele>
        <time>2020-06-24T07:50:20.000Z</time>
      </trkpt>
      <trkpt lat="48.65381" lon="-2.36029">
        <ele>19</ele>
        <time>2020-06-24T07:50:21.000Z</time>
      </trkpt>
      <trkpt lat="48.65382" lon="-2.36028">
        <ele>20</ele>
        <time>2020-06-24T07:50:22.000Z</time>
      </trkpt>
      <trkpt lat="48.65382" lon="-2.36026">
        <ele>20</ele>
        <time>2020-06-24T07:50:23.000Z</time>
      </trkpt>
      <trkpt lat="48.65382" lon="-2.36025">
        <ele>20</ele>
        <time>2020-06-24T07:50:24.000Z</time>
      </trkpt>
      <trkpt lat="48.65382" lon="-2.36025">
        <ele>21</ele>
        <time>2020-06-24T07:50:25.000Z</time>
      </trkpt>
      <trkpt lat="48.65381" lon="-2.36025">
        <ele>21</ele>
        <time>2020-06-24T07:50:26.000Z</time>
      </trkpt>
      <trkpt lat="48.65381" lon="-2.36024">
        <ele>21</ele>
        <time>2020-06-24T07:50:27.000Z</time>
      </trkpt>
      <trkpt lat="48.6538" lon="-2.36024">
        <ele>21</ele>
        <time>2020-06-24T07:50:28.000Z</time>
      </trkpt>
      <trkpt lat="48.65379" lon="-2.36024">
        <ele>21</ele>
        <time>2020-06-24T07:50:29.000Z</time>
      </trkpt>
      <trkpt lat="48.65378" lon="-2.36025">
        <ele>22</ele>
        <time>2020-06-24T07:50:30.000Z</time>
      </trkpt>
      <trkpt lat="48.65377" lon="-2.36025">
        <ele>22</ele>
        <time>2020-06-24T07:50:31.000Z</time>
      </trkpt>
      <trkpt lat="48.65375" lon="-2.36025">
        <ele>22</ele>
        <time>2020-06-24T07:50:32.000Z</time>
      </trkpt>
      <trkpt lat="48.65374" lon="-2.36025">
        <ele>22</ele>
        <time>2020-06-24T07:50:33.000Z</time>
      </trkpt>
      <trkpt lat="48.65373" lon="-2.36024">
        <ele>22</ele>
        <time>2020-06-24T07:50:34.000Z</time>
      </trkpt>
      <trkpt lat="48.65372" lon="-2.36024">
        <ele>23</ele>
        <time>2020-06-24T07:50:35.000Z</time>
      </trkpt>
      <trkpt lat="48.65371" lon="-2.36024">
        <ele>22</ele>
        <time>2020-06-24T07:50:36.000Z</time>
      </trkpt>
      <trkpt lat="48.6537" lon="-2.36023">
        <ele>22</ele>
        <time>2020-06-24T07:50:37.000Z</time>
      </trkpt>
      <trkpt lat="48.65369" lon="-2.36022">
        <ele>22</ele>
        <time>2020-06-24T07:50:38.000Z</time>
      </trkpt>
      <trkpt lat="48.65368" lon="-2.36022">
        <ele>23</ele>
        <time>2020-06-24T07:50:39.000Z</time>
      </trkpt>
      <trkpt lat="48.65368" lon="-2.36021">
        <ele>23</ele>
        <time>2020-06-24T07:50:40.000Z</time>
      </trkpt>
      <trkpt lat="48.65368" lon="-2.36022">
        <ele>24</ele>
        <time>2020-06-24T07:50:41.000Z</time>
      </trkpt>
      <trkpt lat="48.65368" lon="-2.36022">
        <ele>25</ele>
        <time>2020-06-24T07:50:42.000Z</time>
      </trkpt>
      <trkpt lat="48.65368" lon="-2.36022">
        <ele>24</ele>
        <time>2020-06-24T07:50:43.000Z</time>
      </trkpt>
      <trkpt lat="48.65368" lon="-2.36022">
        <ele>23</ele>
        <time>2020-06-24T07:50:44.000Z</time>
      </trkpt>
      <trkpt lat="48.65367" lon="-2.36022">
        <ele>23</ele>
        <time>2020-06-24T07:50:45.000Z</time>
      </trkpt>
      <trkpt lat="48.65366" lon="-2.36022">
        <ele>22</ele>
        <time>2020-06-24T07:50:46.000Z</time>
      </trkpt>
      <trkpt lat="48.65366" lon="-2.36022">
        <ele>22</ele>
        <time>2020-06-24T07:50:47.000Z</time>
      </trkpt>
      <trkpt lat="48.65366" lon="-2.36021">
        <ele>22</ele>
        <time>2020-06-24T07:50:48.000Z</time>
      </trkpt>
      <trkpt lat="48.65366" lon="-2.36021">
        <ele>22</ele>
        <time>2020-06-24T07:50:49.000Z</time>
      </trkpt>
      <trkpt lat="48.6537" lon="-2.36024">
        <ele>20</ele>
        <time>2020-06-24T07:50:50.102Z</time>
      </trkpt>
      <trkpt lat="48.65371" lon="-2.36025">
        <ele>19</ele>
        <time>2020-06-24T07:50:51.102Z</time>
      </trkpt>
      <trkpt lat="48.65372" lon="-2.36025">
        <ele>19</ele>
        <time>2020-06-24T07:50:52.102Z</time>
      </trkpt>
      <trkpt lat="48.65373" lon="-2.36024">
        <ele>19</ele>
        <time>2020-06-24T07:50:53.102Z</time>
      </trkpt>
      <trkpt lat="48.65374" lon="-2.36024">
        <ele>19</ele>
        <time>2020-06-24T07:50:54.102Z</time>
      </trkpt>
      <trkpt lat="48.65376" lon="-2.36024">
        <ele>19</ele>
        <time>2020-06-24T07:50:55.102Z</time>
      </trkpt>
      <trkpt lat="48.65377" lon="-2.36024">
        <ele>19</ele>
        <time>2020-06-24T07:50:56.102Z</time>
      </trkpt>
      <trkpt lat="48.65378" lon="-2.36024">
        <ele>19</ele>
        <time>2020-06-24T07:50:57.102Z</time>
      </trkpt>
      <trkpt lat="48.65379" lon="-2.36023">
        <ele>19</ele>
        <time>2020-06-24T07:50:58.102Z</time>
      </trkpt>
      <trkpt lat="48.65381" lon="-2.36022">
        <ele>19</ele>
        <time>2020-06-24T07:50:59.102Z</time>
      </trkpt>
      <trkpt lat="48.65382" lon="-2.36021">
        <ele>19</ele>
        <time>2020-06-24T07:51:00.102Z</time>
      </trkpt>
      <trkpt lat="48.65382" lon="-2.3602">
        <ele>19</ele>
        <time>2020-06-24T07:51:01.102Z</time>
      </trkpt>
      <trkpt lat="48.65383" lon="-2.36018">
        <ele>19</ele>
        <time>2020-06-24T07:51:02.102Z</time>
      </trkpt>
      <trkpt lat="48.65384" lon="-2.36017">
        <ele>19</ele>
        <time>2020-06-24T07:51:03.102Z</time>
      </trkpt>
      <trkpt lat="48.65385" lon="-2.36015">
        <ele>19</ele>
        <time>2020-06-24T07:51:04.102Z</time>
      </trkpt>
      <trkpt lat="48.65385" lon="-2.36014">
        <ele>19</ele>
        <time>2020-06-24T07:51:05.102Z</time>
      </trkpt>
      <trkpt lat="48.65385" lon="-2.36013">
        <ele>17</ele>
        <time>2020-06-24T07:51:06.102Z</time>
      </trkpt>
      <trkpt lat="48.65385" lon="-2.36014">
        <ele>17</ele>
        <time>2020-06-24T07:51:07.102Z</time>
      </trkpt>
      <trkpt lat="48.65384" lon="-2.36015">
        <ele>16</ele>
        <time>2020-06-24T07:51:08.102Z</time>
      </trkpt>
      <trkpt lat="48.65384" lon="-2.36016">
        <ele>18</ele>
        <time>2020-06-24T07:51:09.102Z</time>
      </trkpt>
      <trkpt lat="48.65383" lon="-2.36017">
        <ele>18</ele>
        <time>2020-06-24T07:51:10.102Z</time>
      </trkpt>
      <trkpt lat="48.65383" lon="-2.36018">
        <ele>18</ele>
        <time>2020-06-24T07:51:11.102Z</time>
      </trkpt>
      <trkpt lat="48.65383" lon="-2.36018">
        <ele>18</ele>
        <time>2020-06-24T07:51:12.102Z</time>
      </trkpt>
      <trkpt lat="48.65382" lon="-2.36018">
        <ele>18</ele>
        <time>2020-06-24T07:51:13.102Z</time>
      </trkpt>
      <trkpt lat="48.65382" lon="-2.36018">
        <ele>18</ele>
        <time>2020-06-24T07:51:14.102Z</time>
      </trkpt>
      <trkpt lat="48.65382" lon="-2.36018">
        <ele>18</ele>
        <time>2020-06-24T07:51:15.102Z</time>
      </trkpt>
      <trkpt lat="48.65382" lon="-2.36018">
        <ele>18</ele>
        <time>2020-06-24T07:51:16.102Z</time>
      </trkpt>
      <trkpt lat="48.65384" lon="-2.36013">
        <ele>16</ele>
        <time>2020-06-24T07:51:17.098Z</time>
      </trkpt>
      <trkpt lat="48.65384" lon="-2.36011">
        <ele>16</ele>
        <time>2020-06-24T07:51:18.098Z</time>
      </trkpt>
      <trkpt lat="48.65384" lon="-2.36009">
        <ele>15</ele>
        <time>2020-06-24T07:51:19.098Z</time>
      </trkpt>
      <trkpt lat="48.65384" lon="-2.36007">
        <ele>16</ele>
        <time>2020-06-24T07:51:20.098Z</time>
      </trkpt>
      <trkpt lat="48.65385" lon="-2.36006">
        <ele>16</ele>
        <time>2020-06-24T07:51:21.098Z</time>
      </trkpt>
      <trkpt lat="48.65385" lon="-2.36004">
        <ele>16</ele>
        <time>2020-06-24T07:51:22.098Z</time>
      </trkpt>
      <trkpt lat="48.65386" lon="-2.36002">
        <ele>16</ele>
        <time>2020-06-24T07:51:23.098Z</time>
      </trkpt>
      <trkpt lat="48.65386" lon="-2.36">
        <ele>16</ele>
        <time>2020-06-24T07:51:24.098Z</time>
      </trkpt>
      <trkpt lat="48.65387" lon="-2.35999">
        <ele>16</ele>
        <time>2020-06-24T07:51:25.098Z</time>
      </trkpt>
      <trkpt lat="48.65387" lon="-2.35997">
        <ele>16</ele>
        <time>2020-06-24T07:51:26.098Z</time>
      </trkpt>
      <trkpt lat="48.65388" lon="-2.35995">
        <ele>16</ele>
        <time>2020-06-24T07:51:27.098Z</time>
      </trkpt>
      <trkpt lat="48.65388" lon="-2.35994">
        <ele>16</ele>
        <time>2020-06-24T07:51:28.098Z</time>
      </trkpt>
      <trkpt lat="48.65389" lon="-2.35992">
        <ele>17</ele>
        <time>2020-06-24T07:51:29.098Z</time>
      </trkpt>
      <trkpt lat="48.6539" lon="-2.3599">
        <ele>17</ele>
        <time>2020-06-24T07:51:30.098Z</time>
      </trkpt>
      <trkpt lat="48.6539" lon="-2.35988">
        <ele>17</ele>
        <time>2020-06-24T07:51:31.098Z</time>
      </trkpt>
      <trkpt lat="48.65391" lon="-2.35987">
        <ele>17</ele>
        <time>2020-06-24T07:51:32.098Z</time>
      </trkpt>
      <trkpt lat="48.65391" lon="-2.35985">
        <ele>17</ele>
        <time>2020-06-24T07:51:33.098Z</time>
      </trkpt>
      <trkpt lat="48.65391" lon="-2.35983">
        <ele>17</ele>
        <time>2020-06-24T07:51:34.098Z</time>
      </trkpt>
      <trkpt lat="48.65392" lon="-2.35981">
        <ele>18</ele>
        <time>2020-06-24T07:51:35.098Z</time>
      </trkpt>
      <trkpt lat="48.65392" lon="-2.35979">
        <ele>18</ele>
        <time>2020-06-24T07:51:36.098Z</time>
      </trkpt>
      <trkpt lat="48.65393" lon="-2.35977">
        <ele>17</ele>
        <time>2020-06-24T07:51:37.098Z</time>
      </trkpt>
      <trkpt lat="48.65393" lon="-2.35976">
        <ele>17</ele>
        <time>2020-06-24T07:51:38.098Z</time>
      </trkpt>
      <trkpt lat="48.65393" lon="-2.35974">
        <ele>18</ele>
        <time>2020-06-24T07:51:39.098Z</time>
      </trkpt>
      <trkpt lat="48.65394" lon="-2.35972">
        <ele>18</ele>
        <time>2020-06-24T07:51:40.098Z</time>
      </trkpt>
      <trkpt lat="48.65394" lon="-2.35971">
        <ele>18</ele>
        <time>2020-06-24T07:51:41.098Z</time>
      </trkpt>
      <trkpt lat="48.65395" lon="-2.35969">
        <ele>18</ele>
        <time>2020-06-24T07:51:42.098Z</time>
      </trkpt>
      <trkpt lat="48.65396" lon="-2.35967">
        <ele>18</ele>
        <time>2020-06-24T07:51:43.098Z</time>
      </trkpt>
      <trkpt lat="48.65396" lon="-2.35966">
        <ele>18</ele>
        <time>2020-06-24T07:51:44.098Z</time>
      </trkpt>
      <trkpt lat="48.65397" lon="-2.35964">
        <ele>18</ele>
        <time>2020-06-24T07:51:45.098Z</time>
      </trkpt>
      <trkpt lat="48.65397" lon="-2.35962">
        <ele>18</ele>
        <time>2020-06-24T07:51:46.098Z</time>
      </trkpt>
      <trkpt lat="48.65397" lon="-2.3596">
        <ele>19</ele>
        <time>2020-06-24T07:51:47.098Z</time>
      </trkpt>
      <trkpt lat="48.65398" lon="-2.35958">
        <ele>19</ele>
        <time>2020-06-24T07:51:48.098Z</time>
      </trkpt>
      <trkpt lat="48.65398" lon="-2.35957">
        <ele>19</ele>
        <time>2020-06-24T07:51:49.098Z</time>
      </trkpt>
      <trkpt lat="48.65399" lon="-2.35955">
        <ele>19</ele>
        <time>2020-06-24T07:51:50.098Z</time>
      </trkpt>
      <trkpt lat="48.654" lon="-2.35954">
        <ele>19</ele>
        <time>2020-06-24T07:51:51.098Z</time>
      </trkpt>
      <trkpt lat="48.65401" lon="-2.35952">
        <ele>19</ele>
        <time>2020-06-24T07:51:52.098Z</time>
      </trkpt>
      <trkpt lat="48.65401" lon="-2.35951">
        <ele>19</ele>
        <time>2020-06-24T07:51:53.098Z</time>
      </trkpt>
      <trkpt lat="48.65402" lon="-2.35949">
        <ele>19</ele>
        <time>2020-06-24T07:51:54.098Z</time>
      </trkpt>
      <trkpt lat="48.65403" lon="-2.35948">
        <ele>20</ele>
        <time>2020-06-24T07:51:55.098Z</time>
      </trkpt>
      <trkpt lat="48.65404" lon="-2.35946">
        <ele>20</ele>
        <time>2020-06-24T07:51:56.098Z</time>
      </trkpt>
      <trkpt lat="48.65404" lon="-2.35945">
        <ele>20</ele>
        <time>2020-06-24T07:51:57.098Z</time>
      </trkpt>
      <trkpt lat="48.65405" lon="-2.35944">
        <ele>20</ele>
        <time>2020-06-24T07:51:58.098Z</time>
      </trkpt>
      <trkpt lat="48.65405" lon="-2.35943">
        <ele>20</ele>
        <time>2020-06-24T07:51:59.098Z</time>
      </trkpt>
      <trkpt lat="48.65406" lon="-2.35941">
        <ele>20</ele>
        <time>2020-06-24T07:52:00.098Z</time>
      </trkpt>
      <trkpt lat="48.65406" lon="-2.3594">
        <ele>20</ele>
        <time>2020-06-24T07:52:01.098Z</time>
      </trkpt>
      <trkpt lat="48.65407" lon="-2.35938">
        <ele>20</ele>
        <time>2020-06-24T07:52:02.098Z</time>
      </trkpt>
      <trkpt lat="48.65408" lon="-2.35937">
        <ele>20</ele>
        <time>2020-06-24T07:52:03.098Z</time>
      </trkpt>
      <trkpt lat="48.65408" lon="-2.35936">
        <ele>20</ele>
        <time>2020-06-24T07:52:04.098Z</time>
      </trkpt>
      <trkpt lat="48.65409" lon="-2.35934">
        <ele>21</ele>
        <time>2020-06-24T07:52:05.098Z</time>
      </trkpt>
      <trkpt lat="48.65409" lon="-2.35933">
        <ele>20</ele>
        <time>2020-06-24T07:52:06.098Z</time>
      </trkpt>
      <trkpt lat="48.6541" lon="-2.35931">
        <ele>20</ele>
        <time>2020-06-24T07:52:07.098Z</time>
      </trkpt>
      <trkpt lat="48.65411" lon="-2.3593">
        <ele>21</ele>
        <time>2020-06-24T07:52:08.098Z</time>
      </trkpt>
      <trkpt lat="48.65411" lon="-2.35928">
        <ele>20</ele>
        <time>2020-06-24T07:52:09.098Z</time>
      </trkpt>
      <trkpt lat="48.65412" lon="-2.35926">
        <ele>20</ele>
        <time>2020-06-24T07:52:10.098Z</time>
      </trkpt>
      <trkpt lat="48.65412" lon="-2.35924">
        <ele>21</ele>
        <time>2020-06-24T07:52:11.098Z</time>
      </trkpt>
      <trkpt lat="48.65413" lon="-2.35922">
        <ele>20</ele>
        <time>2020-06-24T07:52:12.098Z</time>
      </trkpt>
      <trkpt lat="48.65413" lon="-2.3592">
        <ele>21</ele>
        <time>2020-06-24T07:52:13.098Z</time>
      </trkpt>
      <trkpt lat="48.65413" lon="-2.35919">
        <ele>20</ele>
        <time>2020-06-24T07:52:14.098Z</time>
      </trkpt>
      <trkpt lat="48.65413" lon="-2.35917">
        <ele>21</ele>
        <time>2020-06-24T07:52:15.098Z</time>
      </trkpt>
      <trkpt lat="48.65413" lon="-2.35915">
        <ele>21</ele>
        <time>2020-06-24T07:52:16.098Z</time>
      </trkpt>
      <trkpt lat="48.65413" lon="-2.35914">
        <ele>21</ele>
        <time>2020-06-24T07:52:17.098Z</time>
      </trkpt>
      <trkpt lat="48.65413" lon="-2.35912">
        <ele>21</ele>
        <time>2020-06-24T07:52:18.098Z</time>
      </trkpt>
      <trkpt lat="48.65413" lon="-2.3591">
        <ele>21</ele>
        <time>2020-06-24T07:52:19.098Z</time>
      </trkpt>
      <trkpt lat="48.65413" lon="-2.35908">
        <ele>21</ele>
        <time>2020-06-24T07:52:20.098Z</time>
      </trkpt>
      <trkpt lat="48.65413" lon="-2.35907">
        <ele>21</ele>
        <time>2020-06-24T07:52:21.098Z</time>
      </trkpt>
      <trkpt lat="48.65413" lon="-2.35905">
        <ele>22</ele>
        <time>2020-06-24T07:52:22.098Z</time>
      </trkpt>
      <trkpt lat="48.65412" lon="-2.35903">
        <ele>21</ele>
        <time>2020-06-24T07:52:23.098Z</time>
      </trkpt>
      <trkpt lat="48.65412" lon="-2.35902">
        <ele>21</ele>
        <time>2020-06-24T07:52:24.098Z</time>
      </trkpt>
      <trkpt lat="48.65411" lon="-2.359">
        <ele>21</ele>
        <time>2020-06-24T07:52:25.098Z</time>
      </trkpt>
      <trkpt lat="48.6541" lon="-2.35899">
        <ele>22</ele>
        <time>2020-06-24T07:52:26.098Z</time>
      </trkpt>
      <trkpt lat="48.6541" lon="-2.35897">
        <ele>22</ele>
        <time>2020-06-24T07:52:27.098Z</time>
      </trkpt>
      <trkpt lat="48.65409" lon="-2.35895">
        <ele>22</ele>
        <time>2020-06-24T07:52:28.098Z</time>
      </trkpt>
      <trkpt lat="48.65409" lon="-2.35894">
        <ele>22</ele>
        <time>2020-06-24T07:52:29.098Z</time>
      </trkpt>
      <trkpt lat="48.65408" lon="-2.35892">
        <ele>22</ele>
        <time>2020-06-24T07:52:30.098Z</time>
      </trkpt>
      <trkpt lat="48.65407" lon="-2.3589">
        <ele>22</ele>
        <time>2020-06-24T07:52:31.098Z</time>
      </trkpt>
      <trkpt lat="48.65407" lon="-2.35889">
        <ele>21</ele>
        <time>2020-06-24T07:52:32.098Z</time>
      </trkpt>
      <trkpt lat="48.65406" lon="-2.35888">
        <ele>21</ele>
        <time>2020-06-24T07:52:33.098Z</time>
      </trkpt>
      <trkpt lat="48.65406" lon="-2.35887">
        <ele>21</ele>
        <time>2020-06-24T07:52:34.098Z</time>
      </trkpt>
      <trkpt lat="48.65405" lon="-2.35887">
        <ele>21</ele>
        <time>2020-06-24T07:52:35.098Z</time>
      </trkpt>
      <trkpt lat="48.65406" lon="-2.35888">
        <ele>21</ele>
        <time>2020-06-24T07:52:36.098Z</time>
      </trkpt>
      <trkpt lat="48.65405" lon="-2.35888">
        <ele>21</ele>
        <time>2020-06-24T07:52:37.098Z</time>
      </trkpt>
      <trkpt lat="48.65405" lon="-2.35888">
        <ele>21</ele>
        <time>2020-06-24T07:52:38.098Z</time>
      </trkpt>
      <trkpt lat="48.65406" lon="-2.35888">
        <ele>21</ele>
        <time>2020-06-24T07:52:39.098Z</time>
      </trkpt>
      <trkpt lat="48.65406" lon="-2.35888">
        <ele>21</ele>
        <time>2020-06-24T07:52:40.098Z</time>
      </trkpt>
      <trkpt lat="48.65406" lon="-2.35884">
        <ele>22</ele>
        <time>2020-06-24T07:52:41.098Z</time>
      </trkpt>
      <trkpt lat="48.65405" lon="-2.35883">
        <ele>23</ele>
        <time>2020-06-24T07:52:42.098Z</time>
      </trkpt>
      <trkpt lat="48.65404" lon="-2.35883">
        <ele>22</ele>
        <time>2020-06-24T07:52:43.098Z</time>
      </trkpt>
      <trkpt lat="48.65404" lon="-2.35884">
        <ele>21</ele>
        <time>2020-06-24T07:52:44.098Z</time>
      </trkpt>
      <trkpt lat="48.65405" lon="-2.35886">
        <ele>22</ele>
        <time>2020-06-24T07:52:45.098Z</time>
      </trkpt>
      <trkpt lat="48.65406" lon="-2.35888">
        <ele>21</ele>
        <time>2020-06-24T07:52:46.098Z</time>
      </trkpt>
      <trkpt lat="48.65407" lon="-2.35889">
        <ele>21</ele>
        <time>2020-06-24T07:52:47.098Z</time>
      </trkpt>
      <trkpt lat="48.65407" lon="-2.35891">
        <ele>22</ele>
        <time>2020-06-24T07:52:48.098Z</time>
      </trkpt>
      <trkpt lat="48.65408" lon="-2.35892">
        <ele>22</ele>
        <time>2020-06-24T07:52:49.098Z</time>
      </trkpt>
      <trkpt lat="48.65409" lon="-2.35894">
        <ele>22</ele>
        <time>2020-06-24T07:52:50.098Z</time>
      </trkpt>
      <trkpt lat="48.65409" lon="-2.35895">
        <ele>21</ele>
        <time>2020-06-24T07:52:51.098Z</time>
      </trkpt>
      <trkpt lat="48.6541" lon="-2.35896">
        <ele>22</ele>
        <time>2020-06-24T07:52:52.098Z</time>
      </trkpt>
      <trkpt lat="48.65411" lon="-2.35897">
        <ele>22</ele>
        <time>2020-06-24T07:52:53.098Z</time>
      </trkpt>
      <trkpt lat="48.65412" lon="-2.35898">
        <ele>22</ele>
        <time>2020-06-24T07:52:54.098Z</time>
      </trkpt>
      <trkpt lat="48.65413" lon="-2.35899">
        <ele>22</ele>
        <time>2020-06-24T07:52:55.098Z</time>
      </trkpt>
      <trkpt lat="48.65414" lon="-2.35901">
        <ele>22</ele>
        <time>2020-06-24T07:52:56.098Z</time>
      </trkpt>
      <trkpt lat="48.65415" lon="-2.35902">
        <ele>21</ele>
        <time>2020-06-24T07:52:57.098Z</time>
      </trkpt>
      <trkpt lat="48.65416" lon="-2.35903">
        <ele>22</ele>
        <time>2020-06-24T07:52:58.098Z</time>
      </trkpt>
      <trkpt lat="48.65417" lon="-2.35903">
        <ele>21</ele>
        <time>2020-06-24T07:52:59.098Z</time>
      </trkpt>
      <trkpt lat="48.65418" lon="-2.35904">
        <ele>21</ele>
        <time>2020-06-24T07:53:00.098Z</time>
      </trkpt>
      <trkpt lat="48.65419" lon="-2.35904">
        <ele>21</ele>
        <time>2020-06-24T07:53:01.098Z</time>
      </trkpt>
      <trkpt lat="48.65421" lon="-2.35904">
        <ele>21</ele>
        <time>2020-06-24T07:53:02.098Z</time>
      </trkpt>
      <trkpt lat="48.65422" lon="-2.35905">
        <ele>21</ele>
        <time>2020-06-24T07:53:03.098Z</time>
      </trkpt>
      <trkpt lat="48.65423" lon="-2.35905">
        <ele>21</ele>
        <time>2020-06-24T07:53:04.098Z</time>
      </trkpt>
      <trkpt lat="48.65424" lon="-2.35906">
        <ele>21</ele>
        <time>2020-06-24T07:53:05.098Z</time>
      </trkpt>
      <trkpt lat="48.65425" lon="-2.35906">
        <ele>21</ele>
        <time>2020-06-24T07:53:06.098Z</time>
      </trkpt>
      <trkpt lat="48.65426" lon="-2.35906">
        <ele>21</ele>
        <time>2020-06-24T07:53:07.098Z</time>
      </trkpt>
      <trkpt lat="48.65427" lon="-2.35906">
        <ele>21</ele>
        <time>2020-06-24T07:53:08.098Z</time>
      </trkpt>
      <trkpt lat="48.65428" lon="-2.35907">
        <ele>21</ele>
        <time>2020-06-24T07:53:09.098Z</time>
      </trkpt>
      <trkpt lat="48.65429" lon="-2.35907">
        <ele>21</ele>
        <time>2020-06-24T07:53:10.098Z</time>
      </trkpt>
      <trkpt lat="48.6543" lon="-2.35908">
        <ele>21</ele>
        <time>2020-06-24T07:53:11.098Z</time>
      </trkpt>
      <trkpt lat="48.65432" lon="-2.35908">
        <ele>21</ele>
        <time>2020-06-24T07:53:12.098Z</time>
      </trkpt>
      <trkpt lat="48.65433" lon="-2.35908">
        <ele>21</ele>
        <time>2020-06-24T07:53:13.098Z</time>
      </trkpt>
      <trkpt lat="48.65434" lon="-2.35908">
        <ele>21</ele>
        <time>2020-06-24T07:53:14.098Z</time>
      </trkpt>
      <trkpt lat="48.65435" lon="-2.35909">
        <ele>21</ele>
        <time>2020-06-24T07:53:15.098Z</time>
      </trkpt>
      <trkpt lat="48.65436" lon="-2.35909">
        <ele>21</ele>
        <time>2020-06-24T07:53:16.098Z</time>
      </trkpt>
      <trkpt lat="48.65437" lon="-2.35909">
        <ele>21</ele>
        <time>2020-06-24T07:53:17.098Z</time>
      </trkpt>
      <trkpt lat="48.65439" lon="-2.35908">
        <ele>21</ele>
        <time>2020-06-24T07:53:18.098Z</time>
      </trkpt>
      <trkpt lat="48.6544" lon="-2.35908">
        <ele>21</ele>
        <time>2020-06-24T07:53:19.098Z</time>
      </trkpt>
      <trkpt lat="48.65441" lon="-2.35908">
        <ele>21</ele>
        <time>2020-06-24T07:53:20.098Z</time>
      </trkpt>
      <trkpt lat="48.65442" lon="-2.35908">
        <ele>21</ele>
        <time>2020-06-24T07:53:21.098Z</time>
      </trkpt>
      <trkpt lat="48.65443" lon="-2.35908">
        <ele>20</ele>
        <time>2020-06-24T07:53:22.098Z</time>
      </trkpt>
      <trkpt lat="48.65445" lon="-2.35909">
        <ele>20</ele>
        <time>2020-06-24T07:53:23.098Z</time>
      </trkpt>
      <trkpt lat="48.65446" lon="-2.35909">
        <ele>20</ele>
        <time>2020-06-24T07:53:24.098Z</time>
      </trkpt>
      <trkpt lat="48.65447" lon="-2.35909">
        <ele>20</ele>
        <time>2020-06-24T07:53:25.098Z</time>
      </trkpt>
      <trkpt lat="48.65448" lon="-2.35909">
        <ele>20</ele>
        <time>2020-06-24T07:53:26.098Z</time>
      </trkpt>
      <trkpt lat="48.6545" lon="-2.35909">
        <ele>20</ele>
        <time>2020-06-24T07:53:27.098Z</time>
      </trkpt>
      <trkpt lat="48.65451" lon="-2.3591">
        <ele>21</ele>
        <time>2020-06-24T07:53:28.098Z</time>
      </trkpt>
      <trkpt lat="48.65452" lon="-2.3591">
        <ele>21</ele>
        <time>2020-06-24T07:53:29.098Z</time>
      </trkpt>
      <trkpt lat="48.65454" lon="-2.3591">
        <ele>21</ele>
        <time>2020-06-24T07:53:30.098Z</time>
      </trkpt>
      <trkpt lat="48.65455" lon="-2.3591">
        <ele>21</ele>
        <time>2020-06-24T07:53:31.098Z</time>
      </trkpt>
      <trkpt lat="48.65456" lon="-2.35911">
        <ele>21</ele>
        <time>2020-06-24T07:53:32.098Z</time>
      </trkpt>
      <trkpt lat="48.65457" lon="-2.35911">
        <ele>21</ele>
        <time>2020-06-24T07:53:33.098Z</time>
      </trkpt>
      <trkpt lat="48.65459" lon="-2.35911">
        <ele>21</ele>
        <time>2020-06-24T07:53:34.098Z</time>
      </trkpt>
      <trkpt lat="48.6546" lon="-2.35912">
        <ele>21</ele>
        <time>2020-06-24T07:53:35.098Z</time>
      </trkpt>
      <trkpt lat="48.65461" lon="-2.35912">
        <ele>19</ele>
        <time>2020-06-24T07:53:36.098Z</time>
      </trkpt>
      <trkpt lat="48.65462" lon="-2.35912">
        <ele>19</ele>
        <time>2020-06-24T07:53:37.098Z</time>
      </trkpt>
      <trkpt lat="48.65464" lon="-2.35911">
        <ele>19</ele>
        <time>2020-06-24T07:53:38.098Z</time>
      </trkpt>
      <trkpt lat="48.65465" lon="-2.35911">
        <ele>19</ele>
        <time>2020-06-24T07:53:39.098Z</time>
      </trkpt>
      <trkpt lat="48.65465" lon="-2.35912">
        <ele>19</ele>
        <time>2020-06-24T07:53:40.098Z</time>
      </trkpt>
      <trkpt lat="48.65466" lon="-2.35912">
        <ele>19</ele>
        <time>2020-06-24T07:53:41.098Z</time>
      </trkpt>
      <trkpt lat="48.65467" lon="-2.35913">
        <ele>19</ele>
        <time>2020-06-24T07:53:42.098Z</time>
      </trkpt>
      <trkpt lat="48.65469" lon="-2.35913">
        <ele>19</ele>
        <time>2020-06-24T07:53:43.098Z</time>
      </trkpt>
      <trkpt lat="48.6547" lon="-2.35913">
        <ele>19</ele>
        <time>2020-06-24T07:53:44.098Z</time>
      </trkpt>
      <trkpt lat="48.65471" lon="-2.35913">
        <ele>19</ele>
        <time>2020-06-24T07:53:45.098Z</time>
      </trkpt>
      <trkpt lat="48.65473" lon="-2.35914">
        <ele>19</ele>
        <time>2020-06-24T07:53:46.098Z</time>
      </trkpt>
      <trkpt lat="48.65474" lon="-2.35914">
        <ele>19</ele>
        <time>2020-06-24T07:53:47.098Z</time>
      </trkpt>
      <trkpt lat="48.65475" lon="-2.35914">
        <ele>19</ele>
        <time>2020-06-24T07:53:48.098Z</time>
      </trkpt>
      <trkpt lat="48.65476" lon="-2.35913">
        <ele>19</ele>
        <time>2020-06-24T07:53:49.098Z</time>
      </trkpt>
      <trkpt lat="48.65478" lon="-2.35913">
        <ele>19</ele>
        <time>2020-06-24T07:53:50.098Z</time>
      </trkpt>
      <trkpt lat="48.65479" lon="-2.35913">
        <ele>19</ele>
        <time>2020-06-24T07:53:51.098Z</time>
      </trkpt>
      <trkpt lat="48.6548" lon="-2.35912">
        <ele>19</ele>
        <time>2020-06-24T07:53:52.098Z</time>
      </trkpt>
      <trkpt lat="48.65481" lon="-2.35912">
        <ele>19</ele>
        <time>2020-06-24T07:53:53.098Z</time>
      </trkpt>
      <trkpt lat="48.65482" lon="-2.35911">
        <ele>19</ele>
        <time>2020-06-24T07:53:54.098Z</time>
      </trkpt>
      <trkpt lat="48.65483" lon="-2.35909">
        <ele>18</ele>
        <time>2020-06-24T07:53:55.098Z</time>
      </trkpt>
      <trkpt lat="48.65483" lon="-2.35908">
        <ele>18</ele>
        <time>2020-06-24T07:53:56.098Z</time>
      </trkpt>
      <trkpt lat="48.65484" lon="-2.35907">
        <ele>18</ele>
        <time>2020-06-24T07:53:57.098Z</time>
      </trkpt>
      <trkpt lat="48.65485" lon="-2.35906">
        <ele>18</ele>
        <time>2020-06-24T07:53:58.098Z</time>
      </trkpt>
      <trkpt lat="48.65486" lon="-2.35905">
        <ele>19</ele>
        <time>2020-06-24T07:53:59.098Z</time>
      </trkpt>
      <trkpt lat="48.65487" lon="-2.35904">
        <ele>19</ele>
        <time>2020-06-24T07:54:00.098Z</time>
      </trkpt>
      <trkpt lat="48.65488" lon="-2.35902">
        <ele>19</ele>
        <time>2020-06-24T07:54:01.098Z</time>
      </trkpt>
      <trkpt lat="48.65489" lon="-2.35901">
        <ele>18</ele>
        <time>2020-06-24T07:54:02.098Z</time>
      </trkpt>
      <trkpt lat="48.6549" lon="-2.359">
        <ele>19</ele>
        <time>2020-06-24T07:54:03.098Z</time>
      </trkpt>
      <trkpt lat="48.65491" lon="-2.35899">
        <ele>19</ele>
        <time>2020-06-24T07:54:04.098Z</time>
      </trkpt>
      <trkpt lat="48.65492" lon="-2.35898">
        <ele>18</ele>
        <time>2020-06-24T07:54:05.098Z</time>
      </trkpt>
      <trkpt lat="48.65493" lon="-2.35897">
        <ele>18</ele>
        <time>2020-06-24T07:54:06.098Z</time>
      </trkpt>
      <trkpt lat="48.65494" lon="-2.35896">
        <ele>19</ele>
        <time>2020-06-24T07:54:07.098Z</time>
      </trkpt>
      <trkpt lat="48.65495" lon="-2.35894">
        <ele>19</ele>
        <time>2020-06-24T07:54:08.098Z</time>
      </trkpt>
      <trkpt lat="48.65496" lon="-2.35893">
        <ele>19</ele>
        <time>2020-06-24T07:54:09.098Z</time>
      </trkpt>
      <trkpt lat="48.65497" lon="-2.35892">
        <ele>19</ele>
        <time>2020-06-24T07:54:10.098Z</time>
      </trkpt>
      <trkpt lat="48.65498" lon="-2.35891">
        <ele>19</ele>
        <time>2020-06-24T07:54:11.098Z</time>
      </trkpt>
      <trkpt lat="48.65499" lon="-2.35891">
        <ele>19</ele>
        <time>2020-06-24T07:54:12.098Z</time>
      </trkpt>
      <trkpt lat="48.655" lon="-2.3589">
        <ele>19</ele>
        <time>2020-06-24T07:54:13.098Z</time>
      </trkpt>
      <trkpt lat="48.65501" lon="-2.35889">
        <ele>19</ele>
        <time>2020-06-24T07:54:14.098Z</time>
      </trkpt>
      <trkpt lat="48.65502" lon="-2.35888">
        <ele>19</ele>
        <time>2020-06-24T07:54:15.098Z</time>
      </trkpt>
      <trkpt lat="48.65502" lon="-2.35887">
        <ele>19</ele>
        <time>2020-06-24T07:54:16.098Z</time>
      </trkpt>
      <trkpt lat="48.65503" lon="-2.35885">
        <ele>19</ele>
        <time>2020-06-24T07:54:17.098Z</time>
      </trkpt>
      <trkpt lat="48.65504" lon="-2.35884">
        <ele>19</ele>
        <time>2020-06-24T07:54:18.098Z</time>
      </trkpt>
      <trkpt lat="48.65505" lon="-2.35883">
        <ele>18</ele>
        <time>2020-06-24T07:54:19.098Z</time>
      </trkpt>
      <trkpt lat="48.65506" lon="-2.35882">
        <ele>19</ele>
        <time>2020-06-24T07:54:20.098Z</time>
      </trkpt>
      <trkpt lat="48.65507" lon="-2.35881">
        <ele>18</ele>
        <time>2020-06-24T07:54:21.098Z</time>
      </trkpt>
      <trkpt lat="48.65508" lon="-2.3588">
        <ele>18</ele>
        <time>2020-06-24T07:54:22.098Z</time>
      </trkpt>
      <trkpt lat="48.65509" lon="-2.35878">
        <ele>18</ele>
        <time>2020-06-24T07:54:23.098Z</time>
      </trkpt>
      <trkpt lat="48.6551" lon="-2.35877">
        <ele>18</ele>
        <time>2020-06-24T07:54:24.098Z</time>
      </trkpt>
      <trkpt lat="48.65511" lon="-2.35876">
        <ele>18</ele>
        <time>2020-06-24T07:54:25.098Z</time>
      </trkpt>
      <trkpt lat="48.65512" lon="-2.35874">
        <ele>18</ele>
        <time>2020-06-24T07:54:26.098Z</time>
      </trkpt>
      <trkpt lat="48.65512" lon="-2.35873">
        <ele>18</ele>
        <time>2020-06-24T07:54:27.098Z</time>
      </trkpt>
      <trkpt lat="48.65513" lon="-2.35872">
        <ele>18</ele>
        <time>2020-06-24T07:54:28.098Z</time>
      </trkpt>
      <trkpt lat="48.65514" lon="-2.35871">
        <ele>18</ele>
        <time>2020-06-24T07:54:29.098Z</time>
      </trkpt>
      <trkpt lat="48.65515" lon="-2.3587">
        <ele>18</ele>
        <time>2020-06-24T07:54:30.098Z</time>
      </trkpt>
      <trkpt lat="48.65516" lon="-2.35869">
        <ele>18</ele>
        <time>2020-06-24T07:54:31.098Z</time>
      </trkpt>
      <trkpt lat="48.65517" lon="-2.35868">
        <ele>18</ele>
        <time>2020-06-24T07:54:32.098Z</time>
      </trkpt>
      <trkpt lat="48.65518" lon="-2.35867">
        <ele>17</ele>
        <time>2020-06-24T07:54:33.098Z</time>
      </trkpt>
      <trkpt lat="48.65519" lon="-2.35866">
        <ele>17</ele>
        <time>2020-06-24T07:54:34.098Z</time>
      </trkpt>
      <trkpt lat="48.6552" lon="-2.35865">
        <ele>17</ele>
        <time>2020-06-24T07:54:35.098Z</time>
      </trkpt>
      <trkpt lat="48.65521" lon="-2.35864">
        <ele>17</ele>
        <time>2020-06-24T07:54:36.098Z</time>
      </trkpt>
      <trkpt lat="48.65522" lon="-2.35863">
        <ele>17</ele>
        <time>2020-06-24T07:54:37.098Z</time>
      </trkpt>
      <trkpt lat="48.65523" lon="-2.35863">
        <ele>17</ele>
        <time>2020-06-24T07:54:38.098Z</time>
      </trkpt>
      <trkpt lat="48.65524" lon="-2.35862">
        <ele>17</ele>
        <time>2020-06-24T07:54:39.098Z</time>
      </trkpt>
      <trkpt lat="48.65525" lon="-2.35861">
        <ele>17</ele>
        <time>2020-06-24T07:54:40.098Z</time>
      </trkpt>
      <trkpt lat="48.65526" lon="-2.3586">
        <ele>17</ele>
        <time>2020-06-24T07:54:41.098Z</time>
      </trkpt>
      <trkpt lat="48.65527" lon="-2.35859">
        <ele>17</ele>
        <time>2020-06-24T07:54:42.098Z</time>
      </trkpt>
      <trkpt lat="48.65528" lon="-2.35858">
        <ele>17</ele>
        <time>2020-06-24T07:54:43.098Z</time>
      </trkpt>
      <trkpt lat="48.65529" lon="-2.35858">
        <ele>18</ele>
        <time>2020-06-24T07:54:44.098Z</time>
      </trkpt>
      <trkpt lat="48.6553" lon="-2.35857">
        <ele>18</ele>
        <time>2020-06-24T07:54:45.098Z</time>
      </trkpt>
      <trkpt lat="48.65531" lon="-2.35856">
        <ele>18</ele>
        <time>2020-06-24T07:54:46.098Z</time>
      </trkpt>
      <trkpt lat="48.65532" lon="-2.35855">
        <ele>18</ele>
        <time>2020-06-24T07:54:47.098Z</time>
      </trkpt>
      <trkpt lat="48.65533" lon="-2.35854">
        <ele>18</ele>
        <time>2020-06-24T07:54:48.098Z</time>
      </trkpt>
      <trkpt lat="48.65534" lon="-2.35853">
        <ele>18</ele>
        <time>2020-06-24T07:54:49.098Z</time>
      </trkpt>
      <trkpt lat="48.65535" lon="-2.35853">
        <ele>18</ele>
        <time>2020-06-24T07:54:50.098Z</time>
      </trkpt>
      <trkpt lat="48.65536" lon="-2.35852">
        <ele>17</ele>
        <time>2020-06-24T07:54:51.098Z</time>
      </trkpt>
      <trkpt lat="48.65537" lon="-2.35851">
        <ele>17</ele>
        <time>2020-06-24T07:54:52.098Z</time>
      </trkpt>
      <trkpt lat="48.65538" lon="-2.3585">
        <ele>17</ele>
        <time>2020-06-24T07:54:53.098Z</time>
      </trkpt>
      <trkpt lat="48.6554" lon="-2.35849">
        <ele>17</ele>
        <time>2020-06-24T07:54:54.098Z</time>
      </trkpt>
      <trkpt lat="48.65541" lon="-2.35848">
        <ele>17</ele>
        <time>2020-06-24T07:54:55.098Z</time>
      </trkpt>
      <trkpt lat="48.65541" lon="-2.35847">
        <ele>16</ele>
        <time>2020-06-24T07:54:56.098Z</time>
      </trkpt>
      <trkpt lat="48.65542" lon="-2.35846">
        <ele>16</ele>
        <time>2020-06-24T07:54:57.098Z</time>
      </trkpt>
      <trkpt lat="48.65543" lon="-2.35844">
        <ele>16</ele>
        <time>2020-06-24T07:54:58.098Z</time>
      </trkpt>
      <trkpt lat="48.65544" lon="-2.35843">
        <ele>16</ele>
        <time>2020-06-24T07:54:59.098Z</time>
      </trkpt>
      <trkpt lat="48.65545" lon="-2.35842">
        <ele>16</ele>
        <time>2020-06-24T07:55:00.098Z</time>
      </trkpt>
      <trkpt lat="48.65546" lon="-2.35841">
        <ele>15</ele>
        <time>2020-06-24T07:55:01.098Z</time>
      </trkpt>
      <trkpt lat="48.65546" lon="-2.35839">
        <ele>16</ele>
        <time>2020-06-24T07:55:02.098Z</time>
      </trkpt>
      <trkpt lat="48.65547" lon="-2.35838">
        <ele>15</ele>
        <time>2020-06-24T07:55:03.098Z</time>
      </trkpt>
      <trkpt lat="48.65547" lon="-2.35836">
        <ele>15</ele>
        <time>2020-06-24T07:55:04.098Z</time>
      </trkpt>
      <trkpt lat="48.65548" lon="-2.35835">
        <ele>15</ele>
        <time>2020-06-24T07:55:05.098Z</time>
      </trkpt>
      <trkpt lat="48.65548" lon="-2.35833">
        <ele>15</ele>
        <time>2020-06-24T07:55:06.098Z</time>
      </trkpt>
      <trkpt lat="48.65549" lon="-2.35832">
        <ele>15</ele>
        <time>2020-06-24T07:55:07.098Z</time>
      </trkpt>
      <trkpt lat="48.6555" lon="-2.3583">
        <ele>15</ele>
        <time>2020-06-24T07:55:08.098Z</time>
      </trkpt>
      <trkpt lat="48.6555" lon="-2.35829">
        <ele>15</ele>
        <time>2020-06-24T07:55:09.098Z</time>
      </trkpt>
      <trkpt lat="48.65551" lon="-2.35827">
        <ele>15</ele>
        <time>2020-06-24T07:55:10.098Z</time>
      </trkpt>
      <trkpt lat="48.65552" lon="-2.35826">
        <ele>16</ele>
        <time>2020-06-24T07:55:11.098Z</time>
      </trkpt>
      <trkpt lat="48.65552" lon="-2.35825">
        <ele>16</ele>
        <time>2020-06-24T07:55:12.098Z</time>
      </trkpt>
      <trkpt lat="48.65553" lon="-2.35823">
        <ele>16</ele>
        <time>2020-06-24T07:55:13.098Z</time>
      </trkpt>
      <trkpt lat="48.65553" lon="-2.35822">
        <ele>16</ele>
        <time>2020-06-24T07:55:14.098Z</time>
      </trkpt>
      <trkpt lat="48.65554" lon="-2.35821">
        <ele>16</ele>
        <time>2020-06-24T07:55:15.098Z</time>
      </trkpt>
      <trkpt lat="48.65554" lon="-2.3582">
        <ele>16</ele>
        <time>2020-06-24T07:55:16.098Z</time>
      </trkpt>
      <trkpt lat="48.65554" lon="-2.35818">
        <ele>16</ele>
        <time>2020-06-24T07:55:17.098Z</time>
      </trkpt>
      <trkpt lat="48.65555" lon="-2.35817">
        <ele>17</ele>
        <time>2020-06-24T07:55:18.098Z</time>
      </trkpt>
      <trkpt lat="48.65555" lon="-2.35816">
        <ele>18</ele>
        <time>2020-06-24T07:55:19.098Z</time>
      </trkpt>
      <trkpt lat="48.65556" lon="-2.35815">
        <ele>17</ele>
        <time>2020-06-24T07:55:20.098Z</time>
      </trkpt>
      <trkpt lat="48.65557" lon="-2.35814">
        <ele>18</ele>
        <time>2020-06-24T07:55:21.098Z</time>
      </trkpt>
      <trkpt lat="48.65558" lon="-2.35814">
        <ele>18</ele>
        <time>2020-06-24T07:55:22.098Z</time>
      </trkpt>
      <trkpt lat="48.65559" lon="-2.35813">
        <ele>18</ele>
        <time>2020-06-24T07:55:23.098Z</time>
      </trkpt>
      <trkpt lat="48.6556" lon="-2.35813">
        <ele>18</ele>
        <time>2020-06-24T07:55:24.098Z</time>
      </trkpt>
      <trkpt lat="48.65561" lon="-2.35812">
        <ele>17</ele>
        <time>2020-06-24T07:55:25.098Z</time>
      </trkpt>
      <trkpt lat="48.65562" lon="-2.35811">
        <ele>17</ele>
        <time>2020-06-24T07:55:26.098Z</time>
      </trkpt>
      <trkpt lat="48.65564" lon="-2.35811">
        <ele>16</ele>
        <time>2020-06-24T07:55:27.098Z</time>
      </trkpt>
      <trkpt lat="48.65565" lon="-2.35811">
        <ele>16</ele>
        <time>2020-06-24T07:55:28.098Z</time>
      </trkpt>
      <trkpt lat="48.65566" lon="-2.3581">
        <ele>15</ele>
        <time>2020-06-24T07:55:29.098Z</time>
      </trkpt>
      <trkpt lat="48.65567" lon="-2.35809">
        <ele>15</ele>
        <time>2020-06-24T07:55:30.098Z</time>
      </trkpt>
      <trkpt lat="48.65569" lon="-2.35809">
        <ele>15</ele>
        <time>2020-06-24T07:55:31.098Z</time>
      </trkpt>
      <trkpt lat="48.6557" lon="-2.35808">
        <ele>14</ele>
        <time>2020-06-24T07:55:32.098Z</time>
      </trkpt>
      <trkpt lat="48.65571" lon="-2.35808">
        <ele>14</ele>
        <time>2020-06-24T07:55:33.098Z</time>
      </trkpt>
      <trkpt lat="48.65571" lon="-2.35807">
        <ele>14</ele>
        <time>2020-06-24T07:55:34.098Z</time>
      </trkpt>
      <trkpt lat="48.65572" lon="-2.35806">
        <ele>13</ele>
        <time>2020-06-24T07:55:35.098Z</time>
      </trkpt>
      <trkpt lat="48.65572" lon="-2.35805">
        <ele>13</ele>
        <time>2020-06-24T07:55:36.098Z</time>
      </trkpt>
      <trkpt lat="48.65572" lon="-2.35803">
        <ele>13</ele>
        <time>2020-06-24T07:55:37.098Z</time>
      </trkpt>
      <trkpt lat="48.65573" lon="-2.35802">
        <ele>13</ele>
        <time>2020-06-24T07:55:38.098Z</time>
      </trkpt>
      <trkpt lat="48.65574" lon="-2.35801">
        <ele>13</ele>
        <time>2020-06-24T07:55:39.098Z</time>
      </trkpt>
      <trkpt lat="48.65575" lon="-2.35799">
        <ele>13</ele>
        <time>2020-06-24T07:55:40.098Z</time>
      </trkpt>
      <trkpt lat="48.65576" lon="-2.35797">
        <ele>12</ele>
        <time>2020-06-24T07:55:41.098Z</time>
      </trkpt>
      <trkpt lat="48.65576" lon="-2.35796">
        <ele>12</ele>
        <time>2020-06-24T07:55:42.098Z</time>
      </trkpt>
      <trkpt lat="48.65577" lon="-2.35794">
        <ele>12</ele>
        <time>2020-06-24T07:55:43.098Z</time>
      </trkpt>
      <trkpt lat="48.65577" lon="-2.35792">
        <ele>11</ele>
        <time>2020-06-24T07:55:44.098Z</time>
      </trkpt>
      <trkpt lat="48.65578" lon="-2.3579">
        <ele>10</ele>
        <time>2020-06-24T07:55:45.098Z</time>
      </trkpt>
      <trkpt lat="48.65578" lon="-2.35789">
        <ele>10</ele>
        <time>2020-06-24T07:55:46.098Z</time>
      </trkpt>
      <trkpt lat="48.65578" lon="-2.35787">
        <ele>9</ele>
        <time>2020-06-24T07:55:47.098Z</time>
      </trkpt>
      <trkpt lat="48.65579" lon="-2.35785">
        <ele>9</ele>
        <time>2020-06-24T07:55:48.098Z</time>
      </trkpt>
      <trkpt lat="48.6558" lon="-2.35784">
        <ele>9</ele>
        <time>2020-06-24T07:55:49.098Z</time>
      </trkpt>
      <trkpt lat="48.65581" lon="-2.35782">
        <ele>9</ele>
        <time>2020-06-24T07:55:50.098Z</time>
      </trkpt>
      <trkpt lat="48.65581" lon="-2.3578">
        <ele>8</ele>
        <time>2020-06-24T07:55:51.098Z</time>
      </trkpt>
      <trkpt lat="48.65581" lon="-2.35778">
        <ele>7</ele>
        <time>2020-06-24T07:55:52.098Z</time>
      </trkpt>
      <trkpt lat="48.65581" lon="-2.35775">
        <ele>8</ele>
        <time>2020-06-24T07:55:53.098Z</time>
      </trkpt>
      <trkpt lat="48.65582" lon="-2.35773">
        <ele>7</ele>
        <time>2020-06-24T07:55:54.098Z</time>
      </trkpt>
      <trkpt lat="48.65582" lon="-2.35772">
        <ele>7</ele>
        <time>2020-06-24T07:55:55.098Z</time>
      </trkpt>
      <trkpt lat="48.65582" lon="-2.3577">
        <ele>7</ele>
        <time>2020-06-24T07:55:56.098Z</time>
      </trkpt>
      <trkpt lat="48.65582" lon="-2.35768">
        <ele>7</ele>
        <time>2020-06-24T07:55:57.098Z</time>
      </trkpt>
      <trkpt lat="48.65582" lon="-2.35765">
        <ele>7</ele>
        <time>2020-06-24T07:55:58.098Z</time>
      </trkpt>
      <trkpt lat="48.65582" lon="-2.35763">
        <ele>7</ele>
        <time>2020-06-24T07:55:59.098Z</time>
      </trkpt>
      <trkpt lat="48.65581" lon="-2.35761">
        <ele>6</ele>
        <time>2020-06-24T07:56:00.098Z</time>
      </trkpt>
      <trkpt lat="48.6558" lon="-2.3576">
        <ele>6</ele>
        <time>2020-06-24T07:56:01.098Z</time>
      </trkpt>
      <trkpt lat="48.6558" lon="-2.35758">
        <ele>5</ele>
        <time>2020-06-24T07:56:02.098Z</time>
      </trkpt>
      <trkpt lat="48.65579" lon="-2.35757">
        <ele>5</ele>
        <time>2020-06-24T07:56:03.098Z</time>
      </trkpt>
      <trkpt lat="48.65578" lon="-2.35756">
        <ele>6</ele>
        <time>2020-06-24T07:56:04.098Z</time>
      </trkpt>
      <trkpt lat="48.65578" lon="-2.35754">
        <ele>6</ele>
        <time>2020-06-24T07:56:05.098Z</time>
      </trkpt>
      <trkpt lat="48.65578" lon="-2.35754">
        <ele>6</ele>
        <time>2020-06-24T07:56:06.098Z</time>
      </trkpt>
      <trkpt lat="48.65577" lon="-2.35753">
        <ele>6</ele>
        <time>2020-06-24T07:56:07.098Z</time>
      </trkpt>
      <trkpt lat="48.65577" lon="-2.35752">
        <ele>5</ele>
        <time>2020-06-24T07:56:08.098Z</time>
      </trkpt>
      <trkpt lat="48.65577" lon="-2.35752">
        <ele>5</ele>
        <time>2020-06-24T07:56:09.098Z</time>
      </trkpt>
      <trkpt lat="48.65576" lon="-2.35752">
        <ele>5</ele>
        <time>2020-06-24T07:56:10.098Z</time>
      </trkpt>
      <trkpt lat="48.65577" lon="-2.35752">
        <ele>5</ele>
        <time>2020-06-24T07:56:11.098Z</time>
      </trkpt>
      <trkpt lat="48.65577" lon="-2.35751">
        <ele>5</ele>
        <time>2020-06-24T07:56:12.098Z</time>
      </trkpt>
      <trkpt lat="48.65577" lon="-2.35751">
        <ele>6</ele>
        <time>2020-06-24T07:56:13.098Z</time>
      </trkpt>
      <trkpt lat="48.65577" lon="-2.35751">
        <ele>6</ele>
        <time>2020-06-24T07:56:14.098Z</time>
      </trkpt>
      <trkpt lat="48.65578" lon="-2.35751">
        <ele>6</ele>
        <time>2020-06-24T07:56:15.098Z</time>
      </trkpt>
      <trkpt lat="48.65578" lon="-2.35751">
        <ele>6</ele>
        <time>2020-06-24T07:56:16.098Z</time>
      </trkpt>
      <trkpt lat="48.65578" lon="-2.35751">
        <ele>7</ele>
        <time>2020-06-24T07:56:17.098Z</time>
      </trkpt>
      <trkpt lat="48.65579" lon="-2.35751">
        <ele>7</ele>
        <time>2020-06-24T07:56:18.098Z</time>
      </trkpt>
      <trkpt lat="48.65581" lon="-2.35745">
        <ele>12</ele>
        <time>2020-06-24T07:56:19.090Z</time>
      </trkpt>
      <trkpt lat="48.65582" lon="-2.35746">
        <ele>12</ele>
        <time>2020-06-24T07:56:20.090Z</time>
      </trkpt>
      <trkpt lat="48.65583" lon="-2.35746">
        <ele>12</ele>
        <time>2020-06-24T07:56:21.090Z</time>
      </trkpt>
      <trkpt lat="48.65584" lon="-2.35746">
        <ele>12</ele>
        <time>2020-06-24T07:56:22.090Z</time>
      </trkpt>
      <trkpt lat="48.65586" lon="-2.35746">
        <ele>11</ele>
        <time>2020-06-24T07:56:23.090Z</time>
      </trkpt>
      <trkpt lat="48.65587" lon="-2.35746">
        <ele>11</ele>
        <time>2020-06-24T07:56:24.090Z</time>
      </trkpt>
      <trkpt lat="48.65588" lon="-2.35745">
        <ele>11</ele>
        <time>2020-06-24T07:56:25.090Z</time>
      </trkpt>
      <trkpt lat="48.65589" lon="-2.35745">
        <ele>11</ele>
        <time>2020-06-24T07:56:26.090Z</time>
      </trkpt>
      <trkpt lat="48.6559" lon="-2.35744">
        <ele>11</ele>
        <time>2020-06-24T07:56:27.090Z</time>
      </trkpt>
      <trkpt lat="48.65591" lon="-2.35743">
        <ele>11</ele>
        <time>2020-06-24T07:56:28.090Z</time>
      </trkpt>
      <trkpt lat="48.65592" lon="-2.35742">
        <ele>11</ele>
        <time>2020-06-24T07:56:29.090Z</time>
      </trkpt>
      <trkpt lat="48.65594" lon="-2.35741">
        <ele>11</ele>
        <time>2020-06-24T07:56:30.090Z</time>
      </trkpt>
      <trkpt lat="48.65595" lon="-2.35739">
        <ele>11</ele>
        <time>2020-06-24T07:56:31.090Z</time>
      </trkpt>
      <trkpt lat="48.65595" lon="-2.35738">
        <ele>11</ele>
        <time>2020-06-24T07:56:32.090Z</time>
      </trkpt>
      <trkpt lat="48.65597" lon="-2.35737">
        <ele>10</ele>
        <time>2020-06-24T07:56:33.090Z</time>
      </trkpt>
      <trkpt lat="48.65598" lon="-2.35736">
        <ele>10</ele>
        <time>2020-06-24T07:56:34.090Z</time>
      </trkpt>
      <trkpt lat="48.65599" lon="-2.35736">
        <ele>10</ele>
        <time>2020-06-24T07:56:35.090Z</time>
      </trkpt>
      <trkpt lat="48.656" lon="-2.35735">
        <ele>10</ele>
        <time>2020-06-24T07:56:36.090Z</time>
      </trkpt>
      <trkpt lat="48.65601" lon="-2.35735">
        <ele>9</ele>
        <time>2020-06-24T07:56:37.090Z</time>
      </trkpt>
      <trkpt lat="48.65602" lon="-2.35735">
        <ele>9</ele>
        <time>2020-06-24T07:56:38.090Z</time>
      </trkpt>
      <trkpt lat="48.65602" lon="-2.35735">
        <ele>9</ele>
        <time>2020-06-24T07:56:39.090Z</time>
      </trkpt>
      <trkpt lat="48.65602" lon="-2.35735">
        <ele>9</ele>
        <time>2020-06-24T07:56:40.090Z</time>
      </trkpt>
      <trkpt lat="48.65602" lon="-2.35734">
        <ele>9</ele>
        <time>2020-06-24T07:56:41.090Z</time>
      </trkpt>
      <trkpt lat="48.65601" lon="-2.35735">
        <ele>9</ele>
        <time>2020-06-24T07:56:42.090Z</time>
      </trkpt>
      <trkpt lat="48.65601" lon="-2.35735">
        <ele>9</ele>
        <time>2020-06-24T07:56:43.090Z</time>
      </trkpt>
      <trkpt lat="48.65601" lon="-2.35735">
        <ele>9</ele>
        <time>2020-06-24T07:56:44.090Z</time>
      </trkpt>
      <trkpt lat="48.65601" lon="-2.35735">
        <ele>9</ele>
        <time>2020-06-24T07:56:45.090Z</time>
      </trkpt>
      <trkpt lat="48.65602" lon="-2.35736">
        <ele>9</ele>
        <time>2020-06-24T07:56:46.090Z</time>
      </trkpt>
      <trkpt lat="48.65602" lon="-2.35736">
        <ele>9</ele>
        <time>2020-06-24T07:56:47.090Z</time>
      </trkpt>
      <trkpt lat="48.65602" lon="-2.35736">
        <ele>9</ele>
        <time>2020-06-24T07:56:48.090Z</time>
      </trkpt>
      <trkpt lat="48.65601" lon="-2.35736">
        <ele>12</ele>
        <time>2020-06-24T07:56:49.102Z</time>
      </trkpt>
      <trkpt lat="48.65601" lon="-2.35735">
        <ele>11</ele>
        <time>2020-06-24T07:56:50.102Z</time>
      </trkpt>
      <trkpt lat="48.65601" lon="-2.35733">
        <ele>11</ele>
        <time>2020-06-24T07:56:51.102Z</time>
      </trkpt>
      <trkpt lat="48.65601" lon="-2.35731">
        <ele>10</ele>
        <time>2020-06-24T07:56:52.102Z</time>
      </trkpt>
      <trkpt lat="48.65601" lon="-2.3573">
        <ele>10</ele>
        <time>2020-06-24T07:56:53.102Z</time>
      </trkpt>
      <trkpt lat="48.65602" lon="-2.35728">
        <ele>10</ele>
        <time>2020-06-24T07:56:54.102Z</time>
      </trkpt>
      <trkpt lat="48.65602" lon="-2.35726">
        <ele>10</ele>
        <time>2020-06-24T07:56:55.102Z</time>
      </trkpt>
      <trkpt lat="48.65603" lon="-2.35724">
        <ele>11</ele>
        <time>2020-06-24T07:56:56.102Z</time>
      </trkpt>
      <trkpt lat="48.65604" lon="-2.35723">
        <ele>10</ele>
        <time>2020-06-24T07:56:57.102Z</time>
      </trkpt>
      <trkpt lat="48.65605" lon="-2.35721">
        <ele>10</ele>
        <time>2020-06-24T07:56:58.102Z</time>
      </trkpt>
      <trkpt lat="48.65605" lon="-2.3572">
        <ele>10</ele>
        <time>2020-06-24T07:56:59.102Z</time>
      </trkpt>
      <trkpt lat="48.65606" lon="-2.35719">
        <ele>10</ele>
        <time>2020-06-24T07:57:00.102Z</time>
      </trkpt>
      <trkpt lat="48.65607" lon="-2.35718">
        <ele>10</ele>
        <time>2020-06-24T07:57:01.102Z</time>
      </trkpt>
      <trkpt lat="48.65608" lon="-2.35716">
        <ele>10</ele>
        <time>2020-06-24T07:57:02.102Z</time>
      </trkpt>
      <trkpt lat="48.65608" lon="-2.35715">
        <ele>10</ele>
        <time>2020-06-24T07:57:03.102Z</time>
      </trkpt>
      <trkpt lat="48.65609" lon="-2.35714">
        <ele>10</ele>
        <time>2020-06-24T07:57:04.102Z</time>
      </trkpt>
      <trkpt lat="48.6561" lon="-2.35712">
        <ele>10</ele>
        <time>2020-06-24T07:57:05.102Z</time>
      </trkpt>
      <trkpt lat="48.6561" lon="-2.35711">
        <ele>10</ele>
        <time>2020-06-24T07:57:06.102Z</time>
      </trkpt>
      <trkpt lat="48.65611" lon="-2.35709">
        <ele>10</ele>
        <time>2020-06-24T07:57:07.102Z</time>
      </trkpt>
      <trkpt lat="48.65612" lon="-2.35708">
        <ele>11</ele>
        <time>2020-06-24T07:57:08.102Z</time>
      </trkpt>
      <trkpt lat="48.65613" lon="-2.35706">
        <ele>11</ele>
        <time>2020-06-24T07:57:09.102Z</time>
      </trkpt>
      <trkpt lat="48.65613" lon="-2.35705">
        <ele>11</ele>
        <time>2020-06-24T07:57:10.102Z</time>
      </trkpt>
      <trkpt lat="48.65614" lon="-2.35703">
        <ele>11</ele>
        <time>2020-06-24T07:57:11.102Z</time>
      </trkpt>
      <trkpt lat="48.65615" lon="-2.35702">
        <ele>11</ele>
        <time>2020-06-24T07:57:12.102Z</time>
      </trkpt>
      <trkpt lat="48.65616" lon="-2.35701">
        <ele>11</ele>
        <time>2020-06-24T07:57:13.102Z</time>
      </trkpt>
      <trkpt lat="48.65617" lon="-2.35699">
        <ele>11</ele>
        <time>2020-06-24T07:57:14.102Z</time>
      </trkpt>
      <trkpt lat="48.65617" lon="-2.35698">
        <ele>11</ele>
        <time>2020-06-24T07:57:15.102Z</time>
      </trkpt>
      <trkpt lat="48.65618" lon="-2.35697">
        <ele>11</ele>
        <time>2020-06-24T07:57:16.102Z</time>
      </trkpt>
      <trkpt lat="48.65619" lon="-2.35695">
        <ele>11</ele>
        <time>2020-06-24T07:57:17.102Z</time>
      </trkpt>
      <trkpt lat="48.6562" lon="-2.35694">
        <ele>11</ele>
        <time>2020-06-24T07:57:18.102Z</time>
      </trkpt>
      <trkpt lat="48.65621" lon="-2.35693">
        <ele>12</ele>
        <time>2020-06-24T07:57:19.102Z</time>
      </trkpt>
      <trkpt lat="48.65622" lon="-2.35692">
        <ele>12</ele>
        <time>2020-06-24T07:57:20.102Z</time>
      </trkpt>
      <trkpt lat="48.65623" lon="-2.35691">
        <ele>12</ele>
        <time>2020-06-24T07:57:21.102Z</time>
      </trkpt>
      <trkpt lat="48.65624" lon="-2.3569">
        <ele>12</ele>
        <time>2020-06-24T07:57:22.102Z</time>
      </trkpt>
      <trkpt lat="48.65625" lon="-2.35689">
        <ele>12</ele>
        <time>2020-06-24T07:57:23.102Z</time>
      </trkpt>
      <trkpt lat="48.65626" lon="-2.35689">
        <ele>12</ele>
        <time>2020-06-24T07:57:24.102Z</time>
      </trkpt>
      <trkpt lat="48.65627" lon="-2.35688">
        <ele>12</ele>
        <time>2020-06-24T07:57:25.102Z</time>
      </trkpt>
      <trkpt lat="48.65628" lon="-2.35687">
        <ele>12</ele>
        <time>2020-06-24T07:57:26.102Z</time>
      </trkpt>
      <trkpt lat="48.65629" lon="-2.35686">
        <ele>12</ele>
        <time>2020-06-24T07:57:27.102Z</time>
      </trkpt>
      <trkpt lat="48.6563" lon="-2.35685">
        <ele>12</ele>
        <time>2020-06-24T07:57:28.102Z</time>
      </trkpt>
      <trkpt lat="48.65631" lon="-2.35685">
        <ele>12</ele>
        <time>2020-06-24T07:57:29.102Z</time>
      </trkpt>
      <trkpt lat="48.65633" lon="-2.35684">
        <ele>12</ele>
        <time>2020-06-24T07:57:30.102Z</time>
      </trkpt>
      <trkpt lat="48.65634" lon="-2.35683">
        <ele>12</ele>
        <time>2020-06-24T07:57:31.102Z</time>
      </trkpt>
      <trkpt lat="48.65635" lon="-2.35682">
        <ele>12</ele>
        <time>2020-06-24T07:57:32.102Z</time>
      </trkpt>
      <trkpt lat="48.65636" lon="-2.35681">
        <ele>13</ele>
        <time>2020-06-24T07:57:33.102Z</time>
      </trkpt>
      <trkpt lat="48.65637" lon="-2.35681">
        <ele>13</ele>
        <time>2020-06-24T07:57:34.102Z</time>
      </trkpt>
      <trkpt lat="48.65638" lon="-2.3568">
        <ele>13</ele>
        <time>2020-06-24T07:57:35.102Z</time>
      </trkpt>
      <trkpt lat="48.6564" lon="-2.35679">
        <ele>13</ele>
        <time>2020-06-24T07:57:36.102Z</time>
      </trkpt>
      <trkpt lat="48.65641" lon="-2.35679">
        <ele>13</ele>
        <time>2020-06-24T07:57:37.102Z</time>
      </trkpt>
      <trkpt lat="48.65642" lon="-2.35679">
        <ele>13</ele>
        <time>2020-06-24T07:57:38.102Z</time>
      </trkpt>
      <trkpt lat="48.65643" lon="-2.35678">
        <ele>13</ele>
        <time>2020-06-24T07:57:39.102Z</time>
      </trkpt>
      <trkpt lat="48.65644" lon="-2.35677">
        <ele>13</ele>
        <time>2020-06-24T07:57:40.102Z</time>
      </trkpt>
      <trkpt lat="48.65646" lon="-2.35677">
        <ele>13</ele>
        <time>2020-06-24T07:57:41.102Z</time>
      </trkpt>
      <trkpt lat="48.65647" lon="-2.35676">
        <ele>13</ele>
        <time>2020-06-24T07:57:42.102Z</time>
      </trkpt>
      <trkpt lat="48.65648" lon="-2.35675">
        <ele>13</ele>
        <time>2020-06-24T07:57:43.102Z</time>
      </trkpt>
      <trkpt lat="48.65649" lon="-2.35674">
        <ele>13</ele>
        <time>2020-06-24T07:57:44.102Z</time>
      </trkpt>
      <trkpt lat="48.6565" lon="-2.35673">
        <ele>13</ele>
        <time>2020-06-24T07:57:45.102Z</time>
      </trkpt>
      <trkpt lat="48.65651" lon="-2.35673">
        <ele>13</ele>
        <time>2020-06-24T07:57:46.102Z</time>
      </trkpt>
      <trkpt lat="48.65652" lon="-2.35672">
        <ele>14</ele>
        <time>2020-06-24T07:57:47.102Z</time>
      </trkpt>
      <trkpt lat="48.65653" lon="-2.35673">
        <ele>14</ele>
        <time>2020-06-24T07:57:48.102Z</time>
      </trkpt>
      <trkpt lat="48.65655" lon="-2.35673">
        <ele>14</ele>
        <time>2020-06-24T07:57:49.102Z</time>
      </trkpt>
      <trkpt lat="48.65656" lon="-2.35673">
        <ele>14</ele>
        <time>2020-06-24T07:57:50.102Z</time>
      </trkpt>
      <trkpt lat="48.65657" lon="-2.35672">
        <ele>14</ele>
        <time>2020-06-24T07:57:51.102Z</time>
      </trkpt>
      <trkpt lat="48.65658" lon="-2.35672">
        <ele>15</ele>
        <time>2020-06-24T07:57:52.102Z</time>
      </trkpt>
      <trkpt lat="48.65659" lon="-2.35672">
        <ele>15</ele>
        <time>2020-06-24T07:57:53.102Z</time>
      </trkpt>
      <trkpt lat="48.6566" lon="-2.35671">
        <ele>15</ele>
        <time>2020-06-24T07:57:54.102Z</time>
      </trkpt>
      <trkpt lat="48.65662" lon="-2.35671">
        <ele>15</ele>
        <time>2020-06-24T07:57:55.102Z</time>
      </trkpt>
      <trkpt lat="48.65663" lon="-2.3567">
        <ele>15</ele>
        <time>2020-06-24T07:57:56.102Z</time>
      </trkpt>
      <trkpt lat="48.65664" lon="-2.3567">
        <ele>15</ele>
        <time>2020-06-24T07:57:57.102Z</time>
      </trkpt>
      <trkpt lat="48.65665" lon="-2.35669">
        <ele>15</ele>
        <time>2020-06-24T07:57:58.102Z</time>
      </trkpt>
      <trkpt lat="48.65666" lon="-2.35669">
        <ele>15</ele>
        <time>2020-06-24T07:57:59.102Z</time>
      </trkpt>
      <trkpt lat="48.65667" lon="-2.35668">
        <ele>15</ele>
        <time>2020-06-24T07:58:00.102Z</time>
      </trkpt>
      <trkpt lat="48.65668" lon="-2.35668">
        <ele>15</ele>
        <time>2020-06-24T07:58:01.102Z</time>
      </trkpt>
      <trkpt lat="48.65669" lon="-2.35667">
        <ele>15</ele>
        <time>2020-06-24T07:58:02.102Z</time>
      </trkpt>
      <trkpt lat="48.6567" lon="-2.35666">
        <ele>16</ele>
        <time>2020-06-24T07:58:03.102Z</time>
      </trkpt>
      <trkpt lat="48.65672" lon="-2.35666">
        <ele>16</ele>
        <time>2020-06-24T07:58:04.102Z</time>
      </trkpt>
      <trkpt lat="48.65673" lon="-2.35665">
        <ele>15</ele>
        <time>2020-06-24T07:58:05.102Z</time>
      </trkpt>
      <trkpt lat="48.65674" lon="-2.35664">
        <ele>16</ele>
        <time>2020-06-24T07:58:06.102Z</time>
      </trkpt>
      <trkpt lat="48.65675" lon="-2.35663">
        <ele>16</ele>
        <time>2020-06-24T07:58:07.102Z</time>
      </trkpt>
      <trkpt lat="48.65676" lon="-2.35662">
        <ele>16</ele>
        <time>2020-06-24T07:58:08.102Z</time>
      </trkpt>
      <trkpt lat="48.65677" lon="-2.35662">
        <ele>16</ele>
        <time>2020-06-24T07:58:09.102Z</time>
      </trkpt>
      <trkpt lat="48.65678" lon="-2.35661">
        <ele>16</ele>
        <time>2020-06-24T07:58:10.102Z</time>
      </trkpt>
      <trkpt lat="48.65679" lon="-2.3566">
        <ele>16</ele>
        <time>2020-06-24T07:58:11.102Z</time>
      </trkpt>
      <trkpt lat="48.6568" lon="-2.35659">
        <ele>16</ele>
        <time>2020-06-24T07:58:12.102Z</time>
      </trkpt>
      <trkpt lat="48.6568" lon="-2.35658">
        <ele>16</ele>
        <time>2020-06-24T07:58:13.102Z</time>
      </trkpt>
      <trkpt lat="48.65681" lon="-2.35657">
        <ele>16</ele>
        <time>2020-06-24T07:58:14.102Z</time>
      </trkpt>
      <trkpt lat="48.65682" lon="-2.35656">
        <ele>16</ele>
        <time>2020-06-24T07:58:15.102Z</time>
      </trkpt>
      <trkpt lat="48.65683" lon="-2.35654">
        <ele>16</ele>
        <time>2020-06-24T07:58:16.102Z</time>
      </trkpt>
      <trkpt lat="48.65684" lon="-2.35653">
        <ele>16</ele>
        <time>2020-06-24T07:58:17.102Z</time>
      </trkpt>
      <trkpt lat="48.65684" lon="-2.35651">
        <ele>17</ele>
        <time>2020-06-24T07:58:18.102Z</time>
      </trkpt>
      <trkpt lat="48.65685" lon="-2.3565">
        <ele>17</ele>
        <time>2020-06-24T07:58:19.102Z</time>
      </trkpt>
      <trkpt lat="48.65686" lon="-2.35649">
        <ele>17</ele>
        <time>2020-06-24T07:58:20.102Z</time>
      </trkpt>
      <trkpt lat="48.65687" lon="-2.35647">
        <ele>17</ele>
        <time>2020-06-24T07:58:21.102Z</time>
      </trkpt>
      <trkpt lat="48.65687" lon="-2.35646">
        <ele>17</ele>
        <time>2020-06-24T07:58:22.102Z</time>
      </trkpt>
      <trkpt lat="48.65688" lon="-2.35645">
        <ele>17</ele>
        <time>2020-06-24T07:58:23.102Z</time>
      </trkpt>
      <trkpt lat="48.65688" lon="-2.35643">
        <ele>16</ele>
        <time>2020-06-24T07:58:24.102Z</time>
      </trkpt>
      <trkpt lat="48.65689" lon="-2.35642">
        <ele>16</ele>
        <time>2020-06-24T07:58:25.102Z</time>
      </trkpt>
      <trkpt lat="48.65689" lon="-2.3564">
        <ele>17</ele>
        <time>2020-06-24T07:58:26.102Z</time>
      </trkpt>
      <trkpt lat="48.65689" lon="-2.35638">
        <ele>17</ele>
        <time>2020-06-24T07:58:27.102Z</time>
      </trkpt>
      <trkpt lat="48.6569" lon="-2.35637">
        <ele>17</ele>
        <time>2020-06-24T07:58:28.102Z</time>
      </trkpt>
      <trkpt lat="48.6569" lon="-2.35635">
        <ele>16</ele>
        <time>2020-06-24T07:58:29.102Z</time>
      </trkpt>
      <trkpt lat="48.65691" lon="-2.35633">
        <ele>16</ele>
        <time>2020-06-24T07:58:30.102Z</time>
      </trkpt>
      <trkpt lat="48.65691" lon="-2.35632">
        <ele>16</ele>
        <time>2020-06-24T07:58:31.102Z</time>
      </trkpt>
      <trkpt lat="48.65691" lon="-2.3563">
        <ele>17</ele>
        <time>2020-06-24T07:58:32.102Z</time>
      </trkpt>
      <trkpt lat="48.65692" lon="-2.35628">
        <ele>17</ele>
        <time>2020-06-24T07:58:33.102Z</time>
      </trkpt>
      <trkpt lat="48.65692" lon="-2.35627">
        <ele>16</ele>
        <time>2020-06-24T07:58:34.102Z</time>
      </trkpt>
      <trkpt lat="48.65693" lon="-2.35625">
        <ele>17</ele>
        <time>2020-06-24T07:58:35.102Z</time>
      </trkpt>
      <trkpt lat="48.65693" lon="-2.35623">
        <ele>17</ele>
        <time>2020-06-24T07:58:36.102Z</time>
      </trkpt>
      <trkpt lat="48.65693" lon="-2.35621">
        <ele>17</ele>
        <time>2020-06-24T07:58:37.102Z</time>
      </trkpt>
      <trkpt lat="48.65694" lon="-2.35619">
        <ele>17</ele>
        <time>2020-06-24T07:58:38.102Z</time>
      </trkpt>
      <trkpt lat="48.65694" lon="-2.35617">
        <ele>17</ele>
        <time>2020-06-24T07:58:39.102Z</time>
      </trkpt>
      <trkpt lat="48.65694" lon="-2.35616">
        <ele>17</ele>
        <time>2020-06-24T07:58:40.102Z</time>
      </trkpt>
      <trkpt lat="48.65694" lon="-2.35613">
        <ele>17</ele>
        <time>2020-06-24T07:58:41.102Z</time>
      </trkpt>
      <trkpt lat="48.65695" lon="-2.35611">
        <ele>17</ele>
        <time>2020-06-24T07:58:42.102Z</time>
      </trkpt>
      <trkpt lat="48.65695" lon="-2.35609">
        <ele>17</ele>
        <time>2020-06-24T07:58:43.102Z</time>
      </trkpt>
      <trkpt lat="48.65695" lon="-2.35608">
        <ele>17</ele>
        <time>2020-06-24T07:58:44.102Z</time>
      </trkpt>
      <trkpt lat="48.65696" lon="-2.35606">
        <ele>18</ele>
        <time>2020-06-24T07:58:45.102Z</time>
      </trkpt>
      <trkpt lat="48.65696" lon="-2.35604">
        <ele>18</ele>
        <time>2020-06-24T07:58:46.102Z</time>
      </trkpt>
      <trkpt lat="48.65697" lon="-2.35602">
        <ele>18</ele>
        <time>2020-06-24T07:58:47.102Z</time>
      </trkpt>
      <trkpt lat="48.65697" lon="-2.356">
        <ele>18</ele>
        <time>2020-06-24T07:58:48.102Z</time>
      </trkpt>
      <trkpt lat="48.65698" lon="-2.35598">
        <ele>18</ele>
        <time>2020-06-24T07:58:49.102Z</time>
      </trkpt>
      <trkpt lat="48.65698" lon="-2.35596">
        <ele>19</ele>
        <time>2020-06-24T07:58:50.102Z</time>
      </trkpt>
      <trkpt lat="48.65698" lon="-2.35594">
        <ele>18</ele>
        <time>2020-06-24T07:58:51.102Z</time>
      </trkpt>
      <trkpt lat="48.65699" lon="-2.35592">
        <ele>19</ele>
        <time>2020-06-24T07:58:52.102Z</time>
      </trkpt>
      <trkpt lat="48.65699" lon="-2.3559">
        <ele>19</ele>
        <time>2020-06-24T07:58:53.102Z</time>
      </trkpt>
      <trkpt lat="48.657" lon="-2.35589">
        <ele>19</ele>
        <time>2020-06-24T07:58:54.102Z</time>
      </trkpt>
      <trkpt lat="48.657" lon="-2.35587">
        <ele>19</ele>
        <time>2020-06-24T07:58:55.102Z</time>
      </trkpt>
      <trkpt lat="48.657" lon="-2.35586">
        <ele>19</ele>
        <time>2020-06-24T07:58:56.102Z</time>
      </trkpt>
      <trkpt lat="48.65701" lon="-2.35584">
        <ele>19</ele>
        <time>2020-06-24T07:58:57.102Z</time>
      </trkpt>
      <trkpt lat="48.65701" lon="-2.35583">
        <ele>19</ele>
        <time>2020-06-24T07:58:58.102Z</time>
      </trkpt>
      <trkpt lat="48.65701" lon="-2.35581">
        <ele>20</ele>
        <time>2020-06-24T07:58:59.102Z</time>
      </trkpt>
      <trkpt lat="48.65702" lon="-2.35579">
        <ele>20</ele>
        <time>2020-06-24T07:59:00.102Z</time>
      </trkpt>
      <trkpt lat="48.65702" lon="-2.35578">
        <ele>20</ele>
        <time>2020-06-24T07:59:01.102Z</time>
      </trkpt>
      <trkpt lat="48.65702" lon="-2.35576">
        <ele>20</ele>
        <time>2020-06-24T07:59:02.102Z</time>
      </trkpt>
      <trkpt lat="48.65703" lon="-2.35574">
        <ele>20</ele>
        <time>2020-06-24T07:59:03.102Z</time>
      </trkpt>
      <trkpt lat="48.65703" lon="-2.35572">
        <ele>20</ele>
        <time>2020-06-24T07:59:04.102Z</time>
      </trkpt>
      <trkpt lat="48.65703" lon="-2.3557">
        <ele>20</ele>
        <time>2020-06-24T07:59:05.102Z</time>
      </trkpt>
      <trkpt lat="48.65704" lon="-2.35569">
        <ele>20</ele>
        <time>2020-06-24T07:59:06.102Z</time>
      </trkpt>
      <trkpt lat="48.65704" lon="-2.35567">
        <ele>21</ele>
        <time>2020-06-24T07:59:07.102Z</time>
      </trkpt>
      <trkpt lat="48.65704" lon="-2.35565">
        <ele>21</ele>
        <time>2020-06-24T07:59:08.102Z</time>
      </trkpt>
      <trkpt lat="48.65705" lon="-2.35563">
        <ele>21</ele>
        <time>2020-06-24T07:59:09.102Z</time>
      </trkpt>
      <trkpt lat="48.65705" lon="-2.35562">
        <ele>21</ele>
        <time>2020-06-24T07:59:10.102Z</time>
      </trkpt>
      <trkpt lat="48.65705" lon="-2.3556">
        <ele>21</ele>
        <time>2020-06-24T07:59:11.102Z</time>
      </trkpt>
      <trkpt lat="48.65706" lon="-2.35558">
        <ele>22</ele>
        <time>2020-06-24T07:59:12.102Z</time>
      </trkpt>
      <trkpt lat="48.65706" lon="-2.35556">
        <ele>22</ele>
        <time>2020-06-24T07:59:13.102Z</time>
      </trkpt>
      <trkpt lat="48.65707" lon="-2.35554">
        <ele>22</ele>
        <time>2020-06-24T07:59:14.102Z</time>
      </trkpt>
      <trkpt lat="48.65707" lon="-2.35552">
        <ele>22</ele>
        <time>2020-06-24T07:59:15.102Z</time>
      </trkpt>
      <trkpt lat="48.65707" lon="-2.3555">
        <ele>22</ele>
        <time>2020-06-24T07:59:16.102Z</time>
      </trkpt>
      <trkpt lat="48.65707" lon="-2.35548">
        <ele>22</ele>
        <time>2020-06-24T07:59:17.102Z</time>
      </trkpt>
      <trkpt lat="48.65707" lon="-2.35546">
        <ele>22</ele>
        <time>2020-06-24T07:59:18.102Z</time>
      </trkpt>
      <trkpt lat="48.65708" lon="-2.35544">
        <ele>22</ele>
        <time>2020-06-24T07:59:19.102Z</time>
      </trkpt>
      <trkpt lat="48.65708" lon="-2.35543">
        <ele>21</ele>
        <time>2020-06-24T07:59:20.102Z</time>
      </trkpt>
      <trkpt lat="48.65708" lon="-2.35541">
        <ele>22</ele>
        <time>2020-06-24T07:59:21.102Z</time>
      </trkpt>
      <trkpt lat="48.65709" lon="-2.35539">
        <ele>21</ele>
        <time>2020-06-24T07:59:22.102Z</time>
      </trkpt>
      <trkpt lat="48.65709" lon="-2.35537">
        <ele>22</ele>
        <time>2020-06-24T07:59:23.102Z</time>
      </trkpt>
      <trkpt lat="48.6571" lon="-2.35536">
        <ele>22</ele>
        <time>2020-06-24T07:59:24.102Z</time>
      </trkpt>
      <trkpt lat="48.65711" lon="-2.35534">
        <ele>21</ele>
        <time>2020-06-24T07:59:25.102Z</time>
      </trkpt>
      <trkpt lat="48.65711" lon="-2.35532">
        <ele>21</ele>
        <time>2020-06-24T07:59:26.102Z</time>
      </trkpt>
      <trkpt lat="48.65712" lon="-2.35531">
        <ele>21</ele>
        <time>2020-06-24T07:59:27.102Z</time>
      </trkpt>
      <trkpt lat="48.65713" lon="-2.35529">
        <ele>22</ele>
        <time>2020-06-24T07:59:28.102Z</time>
      </trkpt>
      <trkpt lat="48.65714" lon="-2.35528">
        <ele>21</ele>
        <time>2020-06-24T07:59:29.102Z</time>
      </trkpt>
      <trkpt lat="48.65714" lon="-2.35526">
        <ele>21</ele>
        <time>2020-06-24T07:59:30.102Z</time>
      </trkpt>
      <trkpt lat="48.65716" lon="-2.35525">
        <ele>21</ele>
        <time>2020-06-24T07:59:31.102Z</time>
      </trkpt>
      <trkpt lat="48.65717" lon="-2.35525">
        <ele>22</ele>
        <time>2020-06-24T07:59:32.102Z</time>
      </trkpt>
      <trkpt lat="48.65718" lon="-2.35524">
        <ele>22</ele>
        <time>2020-06-24T07:59:33.102Z</time>
      </trkpt>
      <trkpt lat="48.65719" lon="-2.35524">
        <ele>22</ele>
        <time>2020-06-24T07:59:34.102Z</time>
      </trkpt>
      <trkpt lat="48.6572" lon="-2.35524">
        <ele>22</ele>
        <time>2020-06-24T07:59:35.102Z</time>
      </trkpt>
      <trkpt lat="48.65722" lon="-2.35524">
        <ele>21</ele>
        <time>2020-06-24T07:59:36.102Z</time>
      </trkpt>
      <trkpt lat="48.65723" lon="-2.35525">
        <ele>21</ele>
        <time>2020-06-24T07:59:37.102Z</time>
      </trkpt>
      <trkpt lat="48.65724" lon="-2.35526">
        <ele>21</ele>
        <time>2020-06-24T07:59:38.102Z</time>
      </trkpt>
      <trkpt lat="48.65725" lon="-2.35528">
        <ele>21</ele>
        <time>2020-06-24T07:59:39.102Z</time>
      </trkpt>
      <trkpt lat="48.65726" lon="-2.35529">
        <ele>21</ele>
        <time>2020-06-24T07:59:40.102Z</time>
      </trkpt>
      <trkpt lat="48.65727" lon="-2.35531">
        <ele>20</ele>
        <time>2020-06-24T07:59:41.102Z</time>
      </trkpt>
      <trkpt lat="48.65728" lon="-2.35532">
        <ele>20</ele>
        <time>2020-06-24T07:59:42.102Z</time>
      </trkpt>
      <trkpt lat="48.65729" lon="-2.35533">
        <ele>20</ele>
        <time>2020-06-24T07:59:43.102Z</time>
      </trkpt>
      <trkpt lat="48.6573" lon="-2.35534">
        <ele>19</ele>
        <time>2020-06-24T07:59:44.102Z</time>
      </trkpt>
      <trkpt lat="48.65731" lon="-2.35535">
        <ele>20</ele>
        <time>2020-06-24T07:59:45.102Z</time>
      </trkpt>
      <trkpt lat="48.65732" lon="-2.35537">
        <ele>19</ele>
        <time>2020-06-24T07:59:46.102Z</time>
      </trkpt>
      <trkpt lat="48.65733" lon="-2.35538">
        <ele>19</ele>
        <time>2020-06-24T07:59:47.102Z</time>
      </trkpt>
      <trkpt lat="48.65734" lon="-2.3554">
        <ele>20</ele>
        <time>2020-06-24T07:59:48.102Z</time>
      </trkpt>
      <trkpt lat="48.65735" lon="-2.35541">
        <ele>19</ele>
        <time>2020-06-24T07:59:49.102Z</time>
      </trkpt>
      <trkpt lat="48.65736" lon="-2.35543">
        <ele>20</ele>
        <time>2020-06-24T07:59:50.102Z</time>
      </trkpt>
      <trkpt lat="48.65737" lon="-2.35544">
        <ele>19</ele>
        <time>2020-06-24T07:59:51.102Z</time>
      </trkpt>
      <trkpt lat="48.65738" lon="-2.35545">
        <ele>19</ele>
        <time>2020-06-24T07:59:52.102Z</time>
      </trkpt>
      <trkpt lat="48.65739" lon="-2.35546">
        <ele>19</ele>
        <time>2020-06-24T07:59:53.102Z</time>
      </trkpt>
      <trkpt lat="48.65741" lon="-2.35546">
        <ele>19</ele>
        <time>2020-06-24T07:59:54.102Z</time>
      </trkpt>
      <trkpt lat="48.65742" lon="-2.35546">
        <ele>19</ele>
        <time>2020-06-24T07:59:55.102Z</time>
      </trkpt>
      <trkpt lat="48.65743" lon="-2.35546">
        <ele>19</ele>
        <time>2020-06-24T07:59:56.102Z</time>
      </trkpt>
      <trkpt lat="48.65745" lon="-2.35546">
        <ele>19</ele>
        <time>2020-06-24T07:59:57.102Z</time>
      </trkpt>
      <trkpt lat="48.65746" lon="-2.35546">
        <ele>19</ele>
        <time>2020-06-24T07:59:58.102Z</time>
      </trkpt>
      <trkpt lat="48.65746" lon="-2.35546">
        <ele>19</ele>
        <time>2020-06-24T07:59:59.102Z</time>
      </trkpt>
      <trkpt lat="48.65747" lon="-2.35546">
        <ele>19</ele>
        <time>2020-06-24T08:00:00.102Z</time>
      </trkpt>
      <trkpt lat="48.65747" lon="-2.35546">
        <ele>19</ele>
        <time>2020-06-24T08:00:01.102Z</time>
      </trkpt>
      <trkpt lat="48.65747" lon="-2.35546">
        <ele>19</ele>
        <time>2020-06-24T08:00:02.102Z</time>
      </trkpt>
      <trkpt lat="48.65746" lon="-2.35546">
        <ele>19</ele>
        <time>2020-06-24T08:00:03.102Z</time>
      </trkpt>
      <trkpt lat="48.65746" lon="-2.35547">
        <ele>19</ele>
        <time>2020-06-24T08:00:04.102Z</time>
      </trkpt>
      <trkpt lat="48.65745" lon="-2.35549">
        <ele>19</ele>
        <time>2020-06-24T08:00:05.102Z</time>
      </trkpt>
      <trkpt lat="48.65744" lon="-2.3555">
        <ele>19</ele>
        <time>2020-06-24T08:00:06.102Z</time>
      </trkpt>
      <trkpt lat="48.65743" lon="-2.35552">
        <ele>19</ele>
        <time>2020-06-24T08:00:07.102Z</time>
      </trkpt>
      <trkpt lat="48.65742" lon="-2.35553">
        <ele>19</ele>
        <time>2020-06-24T08:00:08.102Z</time>
      </trkpt>
      <trkpt lat="48.65742" lon="-2.35555">
        <ele>18</ele>
        <time>2020-06-24T08:00:09.102Z</time>
      </trkpt>
      <trkpt lat="48.65741" lon="-2.35557">
        <ele>18</ele>
        <time>2020-06-24T08:00:10.102Z</time>
      </trkpt>
      <trkpt lat="48.65741" lon="-2.35559">
        <ele>18</ele>
        <time>2020-06-24T08:00:11.102Z</time>
      </trkpt>
      <trkpt lat="48.65741" lon="-2.35562">
        <ele>18</ele>
        <time>2020-06-24T08:00:12.102Z</time>
      </trkpt>
      <trkpt lat="48.65741" lon="-2.35564">
        <ele>18</ele>
        <time>2020-06-24T08:00:13.102Z</time>
      </trkpt>
      <trkpt lat="48.65742" lon="-2.35566">
        <ele>18</ele>
        <time>2020-06-24T08:00:14.102Z</time>
      </trkpt>
      <trkpt lat="48.65743" lon="-2.35568">
        <ele>18</ele>
        <time>2020-06-24T08:00:15.102Z</time>
      </trkpt>
      <trkpt lat="48.65744" lon="-2.3557">
        <ele>18</ele>
        <time>2020-06-24T08:00:16.102Z</time>
      </trkpt>
      <trkpt lat="48.65746" lon="-2.35571">
        <ele>18</ele>
        <time>2020-06-24T08:00:17.102Z</time>
      </trkpt>
      <trkpt lat="48.65747" lon="-2.35572">
        <ele>18</ele>
        <time>2020-06-24T08:00:18.102Z</time>
      </trkpt>
      <trkpt lat="48.65749" lon="-2.35573">
        <ele>17</ele>
        <time>2020-06-24T08:00:19.102Z</time>
      </trkpt>
      <trkpt lat="48.6575" lon="-2.35573">
        <ele>17</ele>
        <time>2020-06-24T08:00:20.102Z</time>
      </trkpt>
      <trkpt lat="48.65752" lon="-2.35574">
        <ele>17</ele>
        <time>2020-06-24T08:00:21.102Z</time>
      </trkpt>
      <trkpt lat="48.65753" lon="-2.35575">
        <ele>17</ele>
        <time>2020-06-24T08:00:22.102Z</time>
      </trkpt>
      <trkpt lat="48.65755" lon="-2.35576">
        <ele>17</ele>
        <time>2020-06-24T08:00:23.102Z</time>
      </trkpt>
      <trkpt lat="48.65756" lon="-2.35577">
        <ele>16</ele>
        <time>2020-06-24T08:00:24.102Z</time>
      </trkpt>
      <trkpt lat="48.65757" lon="-2.35578">
        <ele>17</ele>
        <time>2020-06-24T08:00:25.102Z</time>
      </trkpt>
      <trkpt lat="48.65757" lon="-2.3558">
        <ele>16</ele>
        <time>2020-06-24T08:00:26.102Z</time>
      </trkpt>
      <trkpt lat="48.65758" lon="-2.35581">
        <ele>16</ele>
        <time>2020-06-24T08:00:27.102Z</time>
      </trkpt>
      <trkpt lat="48.65759" lon="-2.35582">
        <ele>17</ele>
        <time>2020-06-24T08:00:28.102Z</time>
      </trkpt>
      <trkpt lat="48.6576" lon="-2.35583">
        <ele>16</ele>
        <time>2020-06-24T08:00:29.102Z</time>
      </trkpt>
      <trkpt lat="48.65761" lon="-2.35584">
        <ele>16</ele>
        <time>2020-06-24T08:00:30.102Z</time>
      </trkpt>
      <trkpt lat="48.65762" lon="-2.35585">
        <ele>17</ele>
        <time>2020-06-24T08:00:31.102Z</time>
      </trkpt>
      <trkpt lat="48.65763" lon="-2.35586">
        <ele>16</ele>
        <time>2020-06-24T08:00:32.102Z</time>
      </trkpt>
      <trkpt lat="48.65764" lon="-2.35587">
        <ele>16</ele>
        <time>2020-06-24T08:00:33.102Z</time>
      </trkpt>
      <trkpt lat="48.65764" lon="-2.35587">
        <ele>16</ele>
        <time>2020-06-24T08:00:34.102Z</time>
      </trkpt>
      <trkpt lat="48.65764" lon="-2.35587">
        <ele>16</ele>
        <time>2020-06-24T08:00:35.102Z</time>
      </trkpt>
      <trkpt lat="48.65765" lon="-2.35587">
        <ele>16</ele>
        <time>2020-06-24T08:00:36.102Z</time>
      </trkpt>
      <trkpt lat="48.65765" lon="-2.35587">
        <ele>15</ele>
        <time>2020-06-24T08:00:37.102Z</time>
      </trkpt>
      <trkpt lat="48.65766" lon="-2.35587">
        <ele>15</ele>
        <time>2020-06-24T08:00:38.102Z</time>
      </trkpt>
      <trkpt lat="48.65766" lon="-2.35587">
        <ele>15</ele>
        <time>2020-06-24T08:00:39.102Z</time>
      </trkpt>
      <trkpt lat="48.65767" lon="-2.35588">
        <ele>14</ele>
        <time>2020-06-24T08:00:40.102Z</time>
      </trkpt>
      <trkpt lat="48.65768" lon="-2.35588">
        <ele>14</ele>
        <time>2020-06-24T08:00:41.102Z</time>
      </trkpt>
      <trkpt lat="48.65768" lon="-2.35589">
        <ele>14</ele>
        <time>2020-06-24T08:00:42.102Z</time>
      </trkpt>
      <trkpt lat="48.65769" lon="-2.3559">
        <ele>14</ele>
        <time>2020-06-24T08:00:43.102Z</time>
      </trkpt>
      <trkpt lat="48.6577" lon="-2.3559">
        <ele>14</ele>
        <time>2020-06-24T08:00:44.102Z</time>
      </trkpt>
      <trkpt lat="48.65771" lon="-2.35591">
        <ele>14</ele>
        <time>2020-06-24T08:00:45.102Z</time>
      </trkpt>
      <trkpt lat="48.65773" lon="-2.35591">
        <ele>14</ele>
        <time>2020-06-24T08:00:46.102Z</time>
      </trkpt>
      <trkpt lat="48.65774" lon="-2.35591">
        <ele>15</ele>
        <time>2020-06-24T08:00:47.102Z</time>
      </trkpt>
      <trkpt lat="48.65775" lon="-2.35591">
        <ele>15</ele>
        <time>2020-06-24T08:00:48.102Z</time>
      </trkpt>
      <trkpt lat="48.65777" lon="-2.35592">
        <ele>15</ele>
        <time>2020-06-24T08:00:49.102Z</time>
      </trkpt>
      <trkpt lat="48.65778" lon="-2.35592">
        <ele>15</ele>
        <time>2020-06-24T08:00:50.102Z</time>
      </trkpt>
      <trkpt lat="48.65779" lon="-2.35593">
        <ele>15</ele>
        <time>2020-06-24T08:00:51.102Z</time>
      </trkpt>
      <trkpt lat="48.6578" lon="-2.35594">
        <ele>16</ele>
        <time>2020-06-24T08:00:52.102Z</time>
      </trkpt>
      <trkpt lat="48.65781" lon="-2.35595">
        <ele>16</ele>
        <time>2020-06-24T08:00:53.102Z</time>
      </trkpt>
      <trkpt lat="48.65782" lon="-2.35596">
        <ele>15</ele>
        <time>2020-06-24T08:00:54.102Z</time>
      </trkpt>
      <trkpt lat="48.65783" lon="-2.35598">
        <ele>16</ele>
        <time>2020-06-24T08:00:55.102Z</time>
      </trkpt>
      <trkpt lat="48.65784" lon="-2.35599">
        <ele>16</ele>
        <time>2020-06-24T08:00:56.102Z</time>
      </trkpt>
      <trkpt lat="48.65784" lon="-2.35601">
        <ele>16</ele>
        <time>2020-06-24T08:00:57.102Z</time>
      </trkpt>
      <trkpt lat="48.65785" lon="-2.35602">
        <ele>16</ele>
        <time>2020-06-24T08:00:58.102Z</time>
      </trkpt>
      <trkpt lat="48.65786" lon="-2.35603">
        <ele>16</ele>
        <time>2020-06-24T08:00:59.102Z</time>
      </trkpt>
      <trkpt lat="48.65786" lon="-2.35604">
        <ele>15</ele>
        <time>2020-06-24T08:01:00.102Z</time>
      </trkpt>
      <trkpt lat="48.65786" lon="-2.35606">
        <ele>16</ele>
        <time>2020-06-24T08:01:01.102Z</time>
      </trkpt>
      <trkpt lat="48.65786" lon="-2.35608">
        <ele>15</ele>
        <time>2020-06-24T08:01:02.102Z</time>
      </trkpt>
      <trkpt lat="48.65787" lon="-2.35609">
        <ele>15</ele>
        <time>2020-06-24T08:01:03.102Z</time>
      </trkpt>
      <trkpt lat="48.65788" lon="-2.35611">
        <ele>15</ele>
        <time>2020-06-24T08:01:04.102Z</time>
      </trkpt>
      <trkpt lat="48.65789" lon="-2.35612">
        <ele>15</ele>
        <time>2020-06-24T08:01:05.102Z</time>
      </trkpt>
      <trkpt lat="48.6579" lon="-2.35613">
        <ele>15</ele>
        <time>2020-06-24T08:01:06.102Z</time>
      </trkpt>
      <trkpt lat="48.65791" lon="-2.35614">
        <ele>14</ele>
        <time>2020-06-24T08:01:07.102Z</time>
      </trkpt>
      <trkpt lat="48.65792" lon="-2.35615">
        <ele>14</ele>
        <time>2020-06-24T08:01:08.102Z</time>
      </trkpt>
      <trkpt lat="48.65794" lon="-2.35616">
        <ele>14</ele>
        <time>2020-06-24T08:01:09.102Z</time>
      </trkpt>
      <trkpt lat="48.65795" lon="-2.35616">
        <ele>14</ele>
        <time>2020-06-24T08:01:10.102Z</time>
      </trkpt>
      <trkpt lat="48.65797" lon="-2.35616">
        <ele>14</ele>
        <time>2020-06-24T08:01:11.102Z</time>
      </trkpt>
      <trkpt lat="48.65798" lon="-2.35616">
        <ele>14</ele>
        <time>2020-06-24T08:01:12.102Z</time>
      </trkpt>
      <trkpt lat="48.65799" lon="-2.35617">
        <ele>14</ele>
        <time>2020-06-24T08:01:13.102Z</time>
      </trkpt>
      <trkpt lat="48.65801" lon="-2.35617">
        <ele>14</ele>
        <time>2020-06-24T08:01:14.102Z</time>
      </trkpt>
      <trkpt lat="48.65802" lon="-2.35617">
        <ele>14</ele>
        <time>2020-06-24T08:01:15.102Z</time>
      </trkpt>
      <trkpt lat="48.65803" lon="-2.35617">
        <ele>14</ele>
        <time>2020-06-24T08:01:16.102Z</time>
      </trkpt>
      <trkpt lat="48.65804" lon="-2.35618">
        <ele>14</ele>
        <time>2020-06-24T08:01:17.102Z</time>
      </trkpt>
      <trkpt lat="48.65805" lon="-2.35618">
        <ele>14</ele>
        <time>2020-06-24T08:01:18.102Z</time>
      </trkpt>
      <trkpt lat="48.65806" lon="-2.35618">
        <ele>14</ele>
        <time>2020-06-24T08:01:19.102Z</time>
      </trkpt>
      <trkpt lat="48.65807" lon="-2.35619">
        <ele>14</ele>
        <time>2020-06-24T08:01:20.102Z</time>
      </trkpt>
      <trkpt lat="48.65807" lon="-2.35619">
        <ele>14</ele>
        <time>2020-06-24T08:01:21.102Z</time>
      </trkpt>
      <trkpt lat="48.65807" lon="-2.35619">
        <ele>14</ele>
        <time>2020-06-24T08:01:22.102Z</time>
      </trkpt>
      <trkpt lat="48.65807" lon="-2.35619">
        <ele>15</ele>
        <time>2020-06-24T08:01:23.102Z</time>
      </trkpt>
      <trkpt lat="48.65807" lon="-2.35619">
        <ele>14</ele>
        <time>2020-06-24T08:01:24.102Z</time>
      </trkpt>
      <trkpt lat="48.65807" lon="-2.35619">
        <ele>14</ele>
        <time>2020-06-24T08:01:25.102Z</time>
      </trkpt>
      <trkpt lat="48.65807" lon="-2.35619">
        <ele>14</ele>
        <time>2020-06-24T08:01:26.102Z</time>
      </trkpt>
      <trkpt lat="48.65807" lon="-2.35619">
        <ele>15</ele>
        <time>2020-06-24T08:01:27.102Z</time>
      </trkpt>
      <trkpt lat="48.65807" lon="-2.35619">
        <ele>15</ele>
        <time>2020-06-24T08:01:28.102Z</time>
      </trkpt>
      <trkpt lat="48.65806" lon="-2.35619">
        <ele>15</ele>
        <time>2020-06-24T08:01:29.102Z</time>
      </trkpt>
      <trkpt lat="48.65806" lon="-2.35619">
        <ele>15</ele>
        <time>2020-06-24T08:01:30.102Z</time>
      </trkpt>
      <trkpt lat="48.65806" lon="-2.35619">
        <ele>15</ele>
        <time>2020-06-24T08:01:31.102Z</time>
      </trkpt>
      <trkpt lat="48.65806" lon="-2.35619">
        <ele>15</ele>
        <time>2020-06-24T08:01:32.102Z</time>
      </trkpt>
      <trkpt lat="48.65805" lon="-2.35619">
        <ele>17</ele>
        <time>2020-06-24T08:01:33.114Z</time>
      </trkpt>
      <trkpt lat="48.65806" lon="-2.35618">
        <ele>16</ele>
        <time>2020-06-24T08:01:34.114Z</time>
      </trkpt>
      <trkpt lat="48.65806" lon="-2.35617">
        <ele>17</ele>
        <time>2020-06-24T08:01:35.114Z</time>
      </trkpt>
      <trkpt lat="48.65806" lon="-2.35616">
        <ele>17</ele>
        <time>2020-06-24T08:01:36.114Z</time>
      </trkpt>
      <trkpt lat="48.65807" lon="-2.35615">
        <ele>17</ele>
        <time>2020-06-24T08:01:37.114Z</time>
      </trkpt>
      <trkpt lat="48.65807" lon="-2.35614">
        <ele>17</ele>
        <time>2020-06-24T08:01:38.114Z</time>
      </trkpt>
      <trkpt lat="48.65808" lon="-2.35614">
        <ele>17</ele>
        <time>2020-06-24T08:01:39.114Z</time>
      </trkpt>
      <trkpt lat="48.65809" lon="-2.35614">
        <ele>16</ele>
        <time>2020-06-24T08:01:40.114Z</time>
      </trkpt>
      <trkpt lat="48.6581" lon="-2.35615">
        <ele>16</ele>
        <time>2020-06-24T08:01:41.114Z</time>
      </trkpt>
      <trkpt lat="48.65811" lon="-2.35617">
        <ele>16</ele>
        <time>2020-06-24T08:01:42.114Z</time>
      </trkpt>
      <trkpt lat="48.65812" lon="-2.35618">
        <ele>16</ele>
        <time>2020-06-24T08:01:43.114Z</time>
      </trkpt>
      <trkpt lat="48.65813" lon="-2.35619">
        <ele>16</ele>
        <time>2020-06-24T08:01:44.114Z</time>
      </trkpt>
      <trkpt lat="48.65814" lon="-2.35621">
        <ele>16</ele>
        <time>2020-06-24T08:01:45.114Z</time>
      </trkpt>
      <trkpt lat="48.65815" lon="-2.35622">
        <ele>16</ele>
        <time>2020-06-24T08:01:46.114Z</time>
      </trkpt>
      <trkpt lat="48.65816" lon="-2.35623">
        <ele>16</ele>
        <time>2020-06-24T08:01:47.114Z</time>
      </trkpt>
      <trkpt lat="48.65818" lon="-2.35624">
        <ele>15</ele>
        <time>2020-06-24T08:01:48.114Z</time>
      </trkpt>
      <trkpt lat="48.65819" lon="-2.35625">
        <ele>16</ele>
        <time>2020-06-24T08:01:49.114Z</time>
      </trkpt>
      <trkpt lat="48.6582" lon="-2.35626">
        <ele>15</ele>
        <time>2020-06-24T08:01:50.114Z</time>
      </trkpt>
      <trkpt lat="48.65821" lon="-2.35627">
        <ele>15</ele>
        <time>2020-06-24T08:01:51.114Z</time>
      </trkpt>
      <trkpt lat="48.65822" lon="-2.35628">
        <ele>15</ele>
        <time>2020-06-24T08:01:52.114Z</time>
      </trkpt>
      <trkpt lat="48.65824" lon="-2.35629">
        <ele>14</ele>
        <time>2020-06-24T08:01:53.114Z</time>
      </trkpt>
      <trkpt lat="48.65825" lon="-2.35629">
        <ele>14</ele>
        <time>2020-06-24T08:01:54.114Z</time>
      </trkpt>
      <trkpt lat="48.65826" lon="-2.35629">
        <ele>14</ele>
        <time>2020-06-24T08:01:55.114Z</time>
      </trkpt>
      <trkpt lat="48.65828" lon="-2.35629">
        <ele>14</ele>
        <time>2020-06-24T08:01:56.114Z</time>
      </trkpt>
      <trkpt lat="48.65829" lon="-2.35629">
        <ele>14</ele>
        <time>2020-06-24T08:01:57.114Z</time>
      </trkpt>
      <trkpt lat="48.6583" lon="-2.35628">
        <ele>14</ele>
        <time>2020-06-24T08:01:58.114Z</time>
      </trkpt>
      <trkpt lat="48.65832" lon="-2.35628">
        <ele>15</ele>
        <time>2020-06-24T08:01:59.114Z</time>
      </trkpt>
      <trkpt lat="48.65833" lon="-2.35628">
        <ele>15</ele>
        <time>2020-06-24T08:02:00.114Z</time>
      </trkpt>
      <trkpt lat="48.65834" lon="-2.35628">
        <ele>15</ele>
        <time>2020-06-24T08:02:01.114Z</time>
      </trkpt>
      <trkpt lat="48.65835" lon="-2.35628">
        <ele>15</ele>
        <time>2020-06-24T08:02:02.114Z</time>
      </trkpt>
      <trkpt lat="48.65836" lon="-2.35628">
        <ele>16</ele>
        <time>2020-06-24T08:02:03.114Z</time>
      </trkpt>
      <trkpt lat="48.65837" lon="-2.35628">
        <ele>16</ele>
        <time>2020-06-24T08:02:04.114Z</time>
      </trkpt>
      <trkpt lat="48.65838" lon="-2.35628">
        <ele>16</ele>
        <time>2020-06-24T08:02:05.114Z</time>
      </trkpt>
      <trkpt lat="48.65839" lon="-2.35627">
        <ele>16</ele>
        <time>2020-06-24T08:02:06.114Z</time>
      </trkpt>
      <trkpt lat="48.6584" lon="-2.35627">
        <ele>17</ele>
        <time>2020-06-24T08:02:07.114Z</time>
      </trkpt>
      <trkpt lat="48.65841" lon="-2.35627">
        <ele>17</ele>
        <time>2020-06-24T08:02:08.114Z</time>
      </trkpt>
      <trkpt lat="48.65842" lon="-2.35627">
        <ele>17</ele>
        <time>2020-06-24T08:02:09.114Z</time>
      </trkpt>
      <trkpt lat="48.65843" lon="-2.35627">
        <ele>17</ele>
        <time>2020-06-24T08:02:10.114Z</time>
      </trkpt>
      <trkpt lat="48.65844" lon="-2.35627">
        <ele>17</ele>
        <time>2020-06-24T08:02:11.114Z</time>
      </trkpt>
      <trkpt lat="48.65845" lon="-2.35627">
        <ele>17</ele>
        <time>2020-06-24T08:02:12.114Z</time>
      </trkpt>
      <trkpt lat="48.65846" lon="-2.35627">
        <ele>17</ele>
        <time>2020-06-24T08:02:13.114Z</time>
      </trkpt>
      <trkpt lat="48.65846" lon="-2.35627">
        <ele>17</ele>
        <time>2020-06-24T08:02:14.114Z</time>
      </trkpt>
      <trkpt lat="48.65847" lon="-2.35628">
        <ele>17</ele>
        <time>2020-06-24T08:02:15.114Z</time>
      </trkpt>
      <trkpt lat="48.65848" lon="-2.35629">
        <ele>17</ele>
        <time>2020-06-24T08:02:16.114Z</time>
      </trkpt>
      <trkpt lat="48.65848" lon="-2.35629">
        <ele>17</ele>
        <time>2020-06-24T08:02:17.114Z</time>
      </trkpt>
      <trkpt lat="48.65848" lon="-2.35629">
        <ele>17</ele>
        <time>2020-06-24T08:02:18.114Z</time>
      </trkpt>
      <trkpt lat="48.65848" lon="-2.35629">
        <ele>17</ele>
        <time>2020-06-24T08:02:19.114Z</time>
      </trkpt>
      <trkpt lat="48.65848" lon="-2.3563">
        <ele>17</ele>
        <time>2020-06-24T08:02:20.114Z</time>
      </trkpt>
      <trkpt lat="48.65848" lon="-2.3563">
        <ele>17</ele>
        <time>2020-06-24T08:02:21.114Z</time>
      </trkpt>
      <trkpt lat="48.65848" lon="-2.3563">
        <ele>17</ele>
        <time>2020-06-24T08:02:22.114Z</time>
      </trkpt>
      <trkpt lat="48.65848" lon="-2.3563">
        <ele>17</ele>
        <time>2020-06-24T08:02:23.114Z</time>
      </trkpt>
      <trkpt lat="48.65848" lon="-2.35632">
        <ele>17</ele>
        <time>2020-06-24T08:02:24.114Z</time>
      </trkpt>
      <trkpt lat="48.65848" lon="-2.35632">
        <ele>17</ele>
        <time>2020-06-24T08:02:25.114Z</time>
      </trkpt>
      <trkpt lat="48.65848" lon="-2.35632">
        <ele>17</ele>
        <time>2020-06-24T08:02:26.114Z</time>
      </trkpt>
      <trkpt lat="48.65848" lon="-2.35632">
        <ele>17</ele>
        <time>2020-06-24T08:02:27.114Z</time>
      </trkpt>
      <trkpt lat="48.65848" lon="-2.35632">
        <ele>18</ele>
        <time>2020-06-24T08:02:28.114Z</time>
      </trkpt>
      <trkpt lat="48.65848" lon="-2.35632">
        <ele>18</ele>
        <time>2020-06-24T08:02:29.114Z</time>
      </trkpt>
      <trkpt lat="48.65848" lon="-2.35628">
        <ele>18</ele>
        <time>2020-06-24T08:02:30.114Z</time>
      </trkpt>
      <trkpt lat="48.65848" lon="-2.35626">
        <ele>18</ele>
        <time>2020-06-24T08:02:31.114Z</time>
      </trkpt>
      <trkpt lat="48.65849" lon="-2.35624">
        <ele>19</ele>
        <time>2020-06-24T08:02:32.114Z</time>
      </trkpt>
      <trkpt lat="48.6585" lon="-2.35623">
        <ele>19</ele>
        <time>2020-06-24T08:02:33.114Z</time>
      </trkpt>
      <trkpt lat="48.65851" lon="-2.35621">
        <ele>19</ele>
        <time>2020-06-24T08:02:34.114Z</time>
      </trkpt>
      <trkpt lat="48.65851" lon="-2.35619">
        <ele>19</ele>
        <time>2020-06-24T08:02:35.114Z</time>
      </trkpt>
      <trkpt lat="48.65852" lon="-2.35618">
        <ele>18</ele>
        <time>2020-06-24T08:02:36.114Z</time>
      </trkpt>
      <trkpt lat="48.65852" lon="-2.35617">
        <ele>19</ele>
        <time>2020-06-24T08:02:37.114Z</time>
      </trkpt>
      <trkpt lat="48.65853" lon="-2.35615">
        <ele>19</ele>
        <time>2020-06-24T08:02:38.114Z</time>
      </trkpt>
      <trkpt lat="48.65853" lon="-2.35614">
        <ele>19</ele>
        <time>2020-06-24T08:02:39.114Z</time>
      </trkpt>
      <trkpt lat="48.65853" lon="-2.35612">
        <ele>19</ele>
        <time>2020-06-24T08:02:40.114Z</time>
      </trkpt>
      <trkpt lat="48.65854" lon="-2.35611">
        <ele>19</ele>
        <time>2020-06-24T08:02:41.114Z</time>
      </trkpt>
      <trkpt lat="48.65854" lon="-2.3561">
        <ele>19</ele>
        <time>2020-06-24T08:02:42.114Z</time>
      </trkpt>
      <trkpt lat="48.65855" lon="-2.35608">
        <ele>19</ele>
        <time>2020-06-24T08:02:43.114Z</time>
      </trkpt>
      <trkpt lat="48.65855" lon="-2.35607">
        <ele>19</ele>
        <time>2020-06-24T08:02:44.114Z</time>
      </trkpt>
      <trkpt lat="48.65855" lon="-2.35606">
        <ele>19</ele>
        <time>2020-06-24T08:02:45.114Z</time>
      </trkpt>
      <trkpt lat="48.65855" lon="-2.35605">
        <ele>19</ele>
        <time>2020-06-24T08:02:46.114Z</time>
      </trkpt>
      <trkpt lat="48.65856" lon="-2.35603">
        <ele>19</ele>
        <time>2020-06-24T08:02:47.114Z</time>
      </trkpt>
      <trkpt lat="48.65856" lon="-2.35602">
        <ele>20</ele>
        <time>2020-06-24T08:02:48.114Z</time>
      </trkpt>
      <trkpt lat="48.65856" lon="-2.35601">
        <ele>20</ele>
        <time>2020-06-24T08:02:49.114Z</time>
      </trkpt>
      <trkpt lat="48.65856" lon="-2.35599">
        <ele>20</ele>
        <time>2020-06-24T08:02:50.114Z</time>
      </trkpt>
      <trkpt lat="48.65856" lon="-2.35597">
        <ele>20</ele>
        <time>2020-06-24T08:02:51.114Z</time>
      </trkpt>
      <trkpt lat="48.65857" lon="-2.35596">
        <ele>19</ele>
        <time>2020-06-24T08:02:52.114Z</time>
      </trkpt>
      <trkpt lat="48.65857" lon="-2.35594">
        <ele>19</ele>
        <time>2020-06-24T08:02:53.114Z</time>
      </trkpt>
      <trkpt lat="48.65858" lon="-2.35593">
        <ele>19</ele>
        <time>2020-06-24T08:02:54.114Z</time>
      </trkpt>
      <trkpt lat="48.65858" lon="-2.35592">
        <ele>20</ele>
        <time>2020-06-24T08:02:55.114Z</time>
      </trkpt>
      <trkpt lat="48.65859" lon="-2.35591">
        <ele>20</ele>
        <time>2020-06-24T08:02:56.114Z</time>
      </trkpt>
      <trkpt lat="48.6586" lon="-2.3559">
        <ele>20</ele>
        <time>2020-06-24T08:02:57.114Z</time>
      </trkpt>
      <trkpt lat="48.65861" lon="-2.35589">
        <ele>20</ele>
        <time>2020-06-24T08:02:58.114Z</time>
      </trkpt>
      <trkpt lat="48.65862" lon="-2.35588">
        <ele>20</ele>
        <time>2020-06-24T08:02:59.114Z</time>
      </trkpt>
      <trkpt lat="48.65862" lon="-2.35587">
        <ele>20</ele>
        <time>2020-06-24T08:03:00.114Z</time>
      </trkpt>
      <trkpt lat="48.65863" lon="-2.35586">
        <ele>21</ele>
        <time>2020-06-24T08:03:01.114Z</time>
      </trkpt>
      <trkpt lat="48.65864" lon="-2.35584">
        <ele>21</ele>
        <time>2020-06-24T08:03:02.114Z</time>
      </trkpt>
      <trkpt lat="48.65864" lon="-2.35583">
        <ele>21</ele>
        <time>2020-06-24T08:03:03.114Z</time>
      </trkpt>
      <trkpt lat="48.65865" lon="-2.35583">
        <ele>21</ele>
        <time>2020-06-24T08:03:04.114Z</time>
      </trkpt>
      <trkpt lat="48.65865" lon="-2.35582">
        <ele>22</ele>
        <time>2020-06-24T08:03:05.114Z</time>
      </trkpt>
      <trkpt lat="48.65865" lon="-2.35582">
        <ele>22</ele>
        <time>2020-06-24T08:03:06.114Z</time>
      </trkpt>
      <trkpt lat="48.65865" lon="-2.35582">
        <ele>22</ele>
        <time>2020-06-24T08:03:07.114Z</time>
      </trkpt>
      <trkpt lat="48.65865" lon="-2.35582">
        <ele>22</ele>
        <time>2020-06-24T08:03:08.114Z</time>
      </trkpt>
      <trkpt lat="48.65865" lon="-2.35582">
        <ele>22</ele>
        <time>2020-06-24T08:03:09.114Z</time>
      </trkpt>
      <trkpt lat="48.65865" lon="-2.35582">
        <ele>22</ele>
        <time>2020-06-24T08:03:10.114Z</time>
      </trkpt>
      <trkpt lat="48.65865" lon="-2.35582">
        <ele>21</ele>
        <time>2020-06-24T08:03:11.114Z</time>
      </trkpt>
      <trkpt lat="48.65865" lon="-2.35581">
        <ele>21</ele>
        <time>2020-06-24T08:03:12.114Z</time>
      </trkpt>
      <trkpt lat="48.65865" lon="-2.3558">
        <ele>20</ele>
        <time>2020-06-24T08:03:13.114Z</time>
      </trkpt>
      <trkpt lat="48.65866" lon="-2.35579">
        <ele>20</ele>
        <time>2020-06-24T08:03:14.114Z</time>
      </trkpt>
      <trkpt lat="48.65866" lon="-2.35578">
        <ele>20</ele>
        <time>2020-06-24T08:03:15.114Z</time>
      </trkpt>
      <trkpt lat="48.65867" lon="-2.35577">
        <ele>20</ele>
        <time>2020-06-24T08:03:16.114Z</time>
      </trkpt>
      <trkpt lat="48.65869" lon="-2.35576">
        <ele>20</ele>
        <time>2020-06-24T08:03:17.114Z</time>
      </trkpt>
      <trkpt lat="48.6587" lon="-2.35575">
        <ele>20</ele>
        <time>2020-06-24T08:03:18.114Z</time>
      </trkpt>
      <trkpt lat="48.65871" lon="-2.35574">
        <ele>20</ele>
        <time>2020-06-24T08:03:19.114Z</time>
      </trkpt>
      <trkpt lat="48.65872" lon="-2.35573">
        <ele>20</ele>
        <time>2020-06-24T08:03:20.114Z</time>
      </trkpt>
      <trkpt lat="48.65873" lon="-2.35571">
        <ele>20</ele>
        <time>2020-06-24T08:03:21.114Z</time>
      </trkpt>
      <trkpt lat="48.65873" lon="-2.3557">
        <ele>20</ele>
        <time>2020-06-24T08:03:22.114Z</time>
      </trkpt>
      <trkpt lat="48.65874" lon="-2.35569">
        <ele>20</ele>
        <time>2020-06-24T08:03:23.114Z</time>
      </trkpt>
      <trkpt lat="48.65875" lon="-2.35567">
        <ele>20</ele>
        <time>2020-06-24T08:03:24.114Z</time>
      </trkpt>
      <trkpt lat="48.65876" lon="-2.35566">
        <ele>19</ele>
        <time>2020-06-24T08:03:25.114Z</time>
      </trkpt>
      <trkpt lat="48.65877" lon="-2.35565">
        <ele>19</ele>
        <time>2020-06-24T08:03:26.114Z</time>
      </trkpt>
      <trkpt lat="48.65878" lon="-2.35563">
        <ele>19</ele>
        <time>2020-06-24T08:03:27.114Z</time>
      </trkpt>
      <trkpt lat="48.65878" lon="-2.35562">
        <ele>19</ele>
        <time>2020-06-24T08:03:28.114Z</time>
      </trkpt>
      <trkpt lat="48.65879" lon="-2.3556">
        <ele>19</ele>
        <time>2020-06-24T08:03:29.114Z</time>
      </trkpt>
      <trkpt lat="48.65879" lon="-2.35558">
        <ele>18</ele>
        <time>2020-06-24T08:03:30.114Z</time>
      </trkpt>
      <trkpt lat="48.6588" lon="-2.35557">
        <ele>19</ele>
        <time>2020-06-24T08:03:31.114Z</time>
      </trkpt>
      <trkpt lat="48.6588" lon="-2.35555">
        <ele>19</ele>
        <time>2020-06-24T08:03:32.114Z</time>
      </trkpt>
      <trkpt lat="48.65881" lon="-2.35554">
        <ele>19</ele>
        <time>2020-06-24T08:03:33.114Z</time>
      </trkpt>
      <trkpt lat="48.65882" lon="-2.35552">
        <ele>19</ele>
        <time>2020-06-24T08:03:34.114Z</time>
      </trkpt>
      <trkpt lat="48.65882" lon="-2.35551">
        <ele>19</ele>
        <time>2020-06-24T08:03:35.114Z</time>
      </trkpt>
      <trkpt lat="48.65883" lon="-2.35549">
        <ele>18</ele>
        <time>2020-06-24T08:03:36.114Z</time>
      </trkpt>
      <trkpt lat="48.65884" lon="-2.35548">
        <ele>18</ele>
        <time>2020-06-24T08:03:37.114Z</time>
      </trkpt>
      <trkpt lat="48.65884" lon="-2.35547">
        <ele>18</ele>
        <time>2020-06-24T08:03:38.114Z</time>
      </trkpt>
      <trkpt lat="48.65885" lon="-2.35545">
        <ele>18</ele>
        <time>2020-06-24T08:03:39.114Z</time>
      </trkpt>
      <trkpt lat="48.65886" lon="-2.35544">
        <ele>18</ele>
        <time>2020-06-24T08:03:40.114Z</time>
      </trkpt>
      <trkpt lat="48.65886" lon="-2.35543">
        <ele>18</ele>
        <time>2020-06-24T08:03:41.114Z</time>
      </trkpt>
      <trkpt lat="48.65887" lon="-2.35541">
        <ele>18</ele>
        <time>2020-06-24T08:03:42.114Z</time>
      </trkpt>
      <trkpt lat="48.65888" lon="-2.3554">
        <ele>18</ele>
        <time>2020-06-24T08:03:43.114Z</time>
      </trkpt>
      <trkpt lat="48.65888" lon="-2.35539">
        <ele>18</ele>
        <time>2020-06-24T08:03:44.114Z</time>
      </trkpt>
      <trkpt lat="48.65889" lon="-2.35538">
        <ele>18</ele>
        <time>2020-06-24T08:03:45.114Z</time>
      </trkpt>
      <trkpt lat="48.6589" lon="-2.35537">
        <ele>18</ele>
        <time>2020-06-24T08:03:46.114Z</time>
      </trkpt>
      <trkpt lat="48.65891" lon="-2.35536">
        <ele>18</ele>
        <time>2020-06-24T08:03:47.114Z</time>
      </trkpt>
      <trkpt lat="48.65892" lon="-2.35535">
        <ele>18</ele>
        <time>2020-06-24T08:03:48.114Z</time>
      </trkpt>
      <trkpt lat="48.65893" lon="-2.35534">
        <ele>18</ele>
        <time>2020-06-24T08:03:49.114Z</time>
      </trkpt>
      <trkpt lat="48.65894" lon="-2.35533">
        <ele>18</ele>
        <time>2020-06-24T08:03:50.114Z</time>
      </trkpt>
      <trkpt lat="48.65895" lon="-2.35532">
        <ele>17</ele>
        <time>2020-06-24T08:03:51.114Z</time>
      </trkpt>
      <trkpt lat="48.65896" lon="-2.35531">
        <ele>17</ele>
        <time>2020-06-24T08:03:52.114Z</time>
      </trkpt>
      <trkpt lat="48.65897" lon="-2.35529">
        <ele>18</ele>
        <time>2020-06-24T08:03:53.114Z</time>
      </trkpt>
      <trkpt lat="48.65898" lon="-2.35528">
        <ele>18</ele>
        <time>2020-06-24T08:03:54.114Z</time>
      </trkpt>
      <trkpt lat="48.65899" lon="-2.35527">
        <ele>18</ele>
        <time>2020-06-24T08:03:55.114Z</time>
      </trkpt>
      <trkpt lat="48.659" lon="-2.35526">
        <ele>18</ele>
        <time>2020-06-24T08:03:56.114Z</time>
      </trkpt>
      <trkpt lat="48.65901" lon="-2.35524">
        <ele>18</ele>
        <time>2020-06-24T08:03:57.114Z</time>
      </trkpt>
      <trkpt lat="48.65902" lon="-2.35523">
        <ele>18</ele>
        <time>2020-06-24T08:03:58.114Z</time>
      </trkpt>
      <trkpt lat="48.65903" lon="-2.35522">
        <ele>18</ele>
        <time>2020-06-24T08:03:59.114Z</time>
      </trkpt>
      <trkpt lat="48.65904" lon="-2.35521">
        <ele>18</ele>
        <time>2020-06-24T08:04:00.114Z</time>
      </trkpt>
      <trkpt lat="48.65905" lon="-2.35519">
        <ele>17</ele>
        <time>2020-06-24T08:04:01.114Z</time>
      </trkpt>
      <trkpt lat="48.65906" lon="-2.35518">
        <ele>18</ele>
        <time>2020-06-24T08:04:02.114Z</time>
      </trkpt>
      <trkpt lat="48.65907" lon="-2.35517">
        <ele>18</ele>
        <time>2020-06-24T08:04:03.114Z</time>
      </trkpt>
      <trkpt lat="48.65908" lon="-2.35516">
        <ele>18</ele>
        <time>2020-06-24T08:04:04.114Z</time>
      </trkpt>
      <trkpt lat="48.65908" lon="-2.35515">
        <ele>18</ele>
        <time>2020-06-24T08:04:05.114Z</time>
      </trkpt>
      <trkpt lat="48.65909" lon="-2.35514">
        <ele>18</ele>
        <time>2020-06-24T08:04:06.114Z</time>
      </trkpt>
      <trkpt lat="48.6591" lon="-2.35512">
        <ele>18</ele>
        <time>2020-06-24T08:04:07.114Z</time>
      </trkpt>
      <trkpt lat="48.65911" lon="-2.35511">
        <ele>18</ele>
        <time>2020-06-24T08:04:08.114Z</time>
      </trkpt>
      <trkpt lat="48.65912" lon="-2.35509">
        <ele>18</ele>
        <time>2020-06-24T08:04:09.114Z</time>
      </trkpt>
      <trkpt lat="48.65913" lon="-2.35508">
        <ele>18</ele>
        <time>2020-06-24T08:04:10.114Z</time>
      </trkpt>
      <trkpt lat="48.65914" lon="-2.35507">
        <ele>18</ele>
        <time>2020-06-24T08:04:11.114Z</time>
      </trkpt>
      <trkpt lat="48.65915" lon="-2.35506">
        <ele>18</ele>
        <time>2020-06-24T08:04:12.114Z</time>
      </trkpt>
      <trkpt lat="48.65916" lon="-2.35505">
        <ele>18</ele>
        <time>2020-06-24T08:04:13.114Z</time>
      </trkpt>
      <trkpt lat="48.65916" lon="-2.35503">
        <ele>18</ele>
        <time>2020-06-24T08:04:14.114Z</time>
      </trkpt>
      <trkpt lat="48.65917" lon="-2.35502">
        <ele>17</ele>
        <time>2020-06-24T08:04:15.114Z</time>
      </trkpt>
      <trkpt lat="48.65918" lon="-2.35501">
        <ele>17</ele>
        <time>2020-06-24T08:04:16.114Z</time>
      </trkpt>
      <trkpt lat="48.65919" lon="-2.355">
        <ele>17</ele>
        <time>2020-06-24T08:04:17.114Z</time>
      </trkpt>
      <trkpt lat="48.6592" lon="-2.35498">
        <ele>17</ele>
        <time>2020-06-24T08:04:18.114Z</time>
      </trkpt>
      <trkpt lat="48.65921" lon="-2.35497">
        <ele>17</ele>
        <time>2020-06-24T08:04:19.114Z</time>
      </trkpt>
      <trkpt lat="48.65922" lon="-2.35496">
        <ele>17</ele>
        <time>2020-06-24T08:04:20.114Z</time>
      </trkpt>
      <trkpt lat="48.65923" lon="-2.35495">
        <ele>17</ele>
        <time>2020-06-24T08:04:21.114Z</time>
      </trkpt>
      <trkpt lat="48.65924" lon="-2.35494">
        <ele>17</ele>
        <time>2020-06-24T08:04:22.114Z</time>
      </trkpt>
      <trkpt lat="48.65925" lon="-2.35493">
        <ele>17</ele>
        <time>2020-06-24T08:04:23.114Z</time>
      </trkpt>
      <trkpt lat="48.65926" lon="-2.35492">
        <ele>17</ele>
        <time>2020-06-24T08:04:24.114Z</time>
      </trkpt>
      <trkpt lat="48.65928" lon="-2.35491">
        <ele>16</ele>
        <time>2020-06-24T08:04:25.114Z</time>
      </trkpt>
      <trkpt lat="48.65929" lon="-2.35491">
        <ele>16</ele>
        <time>2020-06-24T08:04:26.114Z</time>
      </trkpt>
      <trkpt lat="48.6593" lon="-2.3549">
        <ele>16</ele>
        <time>2020-06-24T08:04:27.114Z</time>
      </trkpt>
      <trkpt lat="48.65931" lon="-2.35489">
        <ele>16</ele>
        <time>2020-06-24T08:04:28.114Z</time>
      </trkpt>
      <trkpt lat="48.65932" lon="-2.35488">
        <ele>16</ele>
        <time>2020-06-24T08:04:29.114Z</time>
      </trkpt>
      <trkpt lat="48.65933" lon="-2.35487">
        <ele>16</ele>
        <time>2020-06-24T08:04:30.114Z</time>
      </trkpt>
      <trkpt lat="48.65935" lon="-2.35486">
        <ele>15</ele>
        <time>2020-06-24T08:04:31.114Z</time>
      </trkpt>
      <trkpt lat="48.65936" lon="-2.35486">
        <ele>15</ele>
        <time>2020-06-24T08:04:32.114Z</time>
      </trkpt>
      <trkpt lat="48.65937" lon="-2.35485">
        <ele>15</ele>
        <time>2020-06-24T08:04:33.114Z</time>
      </trkpt>
      <trkpt lat="48.65938" lon="-2.35484">
        <ele>15</ele>
        <time>2020-06-24T08:04:34.114Z</time>
      </trkpt>
      <trkpt lat="48.65939" lon="-2.35483">
        <ele>15</ele>
        <time>2020-06-24T08:04:35.114Z</time>
      </trkpt>
      <trkpt lat="48.6594" lon="-2.35482">
        <ele>15</ele>
        <time>2020-06-24T08:04:36.114Z</time>
      </trkpt>
      <trkpt lat="48.65941" lon="-2.35482">
        <ele>15</ele>
        <time>2020-06-24T08:04:37.114Z</time>
      </trkpt>
      <trkpt lat="48.65943" lon="-2.35481">
        <ele>15</ele>
        <time>2020-06-24T08:04:38.114Z</time>
      </trkpt>
      <trkpt lat="48.65943" lon="-2.3548">
        <ele>15</ele>
        <time>2020-06-24T08:04:39.114Z</time>
      </trkpt>
      <trkpt lat="48.65944" lon="-2.35479">
        <ele>16</ele>
        <time>2020-06-24T08:04:40.114Z</time>
      </trkpt>
      <trkpt lat="48.65944" lon="-2.35479">
        <ele>16</ele>
        <time>2020-06-24T08:04:41.114Z</time>
      </trkpt>
      <trkpt lat="48.65944" lon="-2.35479">
        <ele>15</ele>
        <time>2020-06-24T08:04:42.114Z</time>
      </trkpt>
      <trkpt lat="48.65944" lon="-2.35479">
        <ele>15</ele>
        <time>2020-06-24T08:04:43.114Z</time>
      </trkpt>
      <trkpt lat="48.65944" lon="-2.35475">
        <ele>15</ele>
        <time>2020-06-24T08:04:44.110Z</time>
      </trkpt>
      <trkpt lat="48.65943" lon="-2.35473">
        <ele>16</ele>
        <time>2020-06-24T08:04:45.110Z</time>
      </trkpt>
      <trkpt lat="48.65943" lon="-2.35471">
        <ele>15</ele>
        <time>2020-06-24T08:04:46.110Z</time>
      </trkpt>
      <trkpt lat="48.65943" lon="-2.3547">
        <ele>15</ele>
        <time>2020-06-24T08:04:47.110Z</time>
      </trkpt>
      <trkpt lat="48.65943" lon="-2.35468">
        <ele>15</ele>
        <time>2020-06-24T08:04:48.110Z</time>
      </trkpt>
      <trkpt lat="48.65943" lon="-2.35466">
        <ele>15</ele>
        <time>2020-06-24T08:04:49.110Z</time>
      </trkpt>
      <trkpt lat="48.65943" lon="-2.35464">
        <ele>15</ele>
        <time>2020-06-24T08:04:50.110Z</time>
      </trkpt>
      <trkpt lat="48.65943" lon="-2.35462">
        <ele>15</ele>
        <time>2020-06-24T08:04:51.110Z</time>
      </trkpt>
      <trkpt lat="48.65943" lon="-2.35461">
        <ele>15</ele>
        <time>2020-06-24T08:04:52.110Z</time>
      </trkpt>
      <trkpt lat="48.65943" lon="-2.35459">
        <ele>15</ele>
        <time>2020-06-24T08:04:53.110Z</time>
      </trkpt>
      <trkpt lat="48.65943" lon="-2.35457">
        <ele>15</ele>
        <time>2020-06-24T08:04:54.110Z</time>
      </trkpt>
      <trkpt lat="48.65943" lon="-2.35455">
        <ele>15</ele>
        <time>2020-06-24T08:04:55.110Z</time>
      </trkpt>
      <trkpt lat="48.65943" lon="-2.35454">
        <ele>15</ele>
        <time>2020-06-24T08:04:56.110Z</time>
      </trkpt>
      <trkpt lat="48.65943" lon="-2.35452">
        <ele>16</ele>
        <time>2020-06-24T08:04:57.110Z</time>
      </trkpt>
      <trkpt lat="48.65943" lon="-2.3545">
        <ele>16</ele>
        <time>2020-06-24T08:04:58.110Z</time>
      </trkpt>
      <trkpt lat="48.65943" lon="-2.35448">
        <ele>16</ele>
        <time>2020-06-24T08:04:59.110Z</time>
      </trkpt>
      <trkpt lat="48.65943" lon="-2.35446">
        <ele>16</ele>
        <time>2020-06-24T08:05:00.110Z</time>
      </trkpt>
      <trkpt lat="48.65944" lon="-2.35444">
        <ele>16</ele>
        <time>2020-06-24T08:05:01.110Z</time>
      </trkpt>
      <trkpt lat="48.65944" lon="-2.35443">
        <ele>16</ele>
        <time>2020-06-24T08:05:02.110Z</time>
      </trkpt>
      <trkpt lat="48.65944" lon="-2.35441">
        <ele>16</ele>
        <time>2020-06-24T08:05:03.110Z</time>
      </trkpt>
      <trkpt lat="48.65944" lon="-2.35439">
        <ele>16</ele>
        <time>2020-06-24T08:05:04.110Z</time>
      </trkpt>
      <trkpt lat="48.65944" lon="-2.35438">
        <ele>16</ele>
        <time>2020-06-24T08:05:05.110Z</time>
      </trkpt>
      <trkpt lat="48.65944" lon="-2.35436">
        <ele>16</ele>
        <time>2020-06-24T08:05:06.110Z</time>
      </trkpt>
      <trkpt lat="48.65943" lon="-2.35434">
        <ele>16</ele>
        <time>2020-06-24T08:05:07.110Z</time>
      </trkpt>
      <trkpt lat="48.65943" lon="-2.35432">
        <ele>16</ele>
        <time>2020-06-24T08:05:08.110Z</time>
      </trkpt>
      <trkpt lat="48.65943" lon="-2.3543">
        <ele>16</ele>
        <time>2020-06-24T08:05:09.110Z</time>
      </trkpt>
      <trkpt lat="48.65943" lon="-2.35428">
        <ele>16</ele>
        <time>2020-06-24T08:05:10.110Z</time>
      </trkpt>
      <trkpt lat="48.65943" lon="-2.35427">
        <ele>16</ele>
        <time>2020-06-24T08:05:11.110Z</time>
      </trkpt>
      <trkpt lat="48.65942" lon="-2.35425">
        <ele>16</ele>
        <time>2020-06-24T08:05:12.110Z</time>
      </trkpt>
      <trkpt lat="48.65942" lon="-2.35423">
        <ele>16</ele>
        <time>2020-06-24T08:05:13.110Z</time>
      </trkpt>
      <trkpt lat="48.65942" lon="-2.35421">
        <ele>17</ele>
        <time>2020-06-24T08:05:14.110Z</time>
      </trkpt>
      <trkpt lat="48.65942" lon="-2.35419">
        <ele>17</ele>
        <time>2020-06-24T08:05:15.110Z</time>
      </trkpt>
      <trkpt lat="48.65941" lon="-2.35417">
        <ele>17</ele>
        <time>2020-06-24T08:05:16.110Z</time>
      </trkpt>
      <trkpt lat="48.65941" lon="-2.35415">
        <ele>17</ele>
        <time>2020-06-24T08:05:17.110Z</time>
      </trkpt>
      <trkpt lat="48.6594" lon="-2.35413">
        <ele>17</ele>
        <time>2020-06-24T08:05:18.110Z</time>
      </trkpt>
      <trkpt lat="48.6594" lon="-2.35411">
        <ele>17</ele>
        <time>2020-06-24T08:05:19.110Z</time>
      </trkpt>
      <trkpt lat="48.65939" lon="-2.3541">
        <ele>17</ele>
        <time>2020-06-24T08:05:20.110Z</time>
      </trkpt>
      <trkpt lat="48.65938" lon="-2.35408">
        <ele>17</ele>
        <time>2020-06-24T08:05:21.110Z</time>
      </trkpt>
      <trkpt lat="48.65938" lon="-2.35406">
        <ele>17</ele>
        <time>2020-06-24T08:05:22.110Z</time>
      </trkpt>
      <trkpt lat="48.65937" lon="-2.35405">
        <ele>17</ele>
        <time>2020-06-24T08:05:23.110Z</time>
      </trkpt>
      <trkpt lat="48.65937" lon="-2.35404">
        <ele>17</ele>
        <time>2020-06-24T08:05:24.110Z</time>
      </trkpt>
      <trkpt lat="48.65936" lon="-2.35403">
        <ele>17</ele>
        <time>2020-06-24T08:05:25.110Z</time>
      </trkpt>
      <trkpt lat="48.65936" lon="-2.35403">
        <ele>17</ele>
        <time>2020-06-24T08:05:26.110Z</time>
      </trkpt>
      <trkpt lat="48.65936" lon="-2.35403">
        <ele>16</ele>
        <time>2020-06-24T08:05:27.110Z</time>
      </trkpt>
      <trkpt lat="48.65935" lon="-2.35402">
        <ele>16</ele>
        <time>2020-06-24T08:05:28.110Z</time>
      </trkpt>
      <trkpt lat="48.65935" lon="-2.35402">
        <ele>17</ele>
        <time>2020-06-24T08:05:29.110Z</time>
      </trkpt>
      <trkpt lat="48.65935" lon="-2.35402">
        <ele>17</ele>
        <time>2020-06-24T08:05:30.110Z</time>
      </trkpt>
      <trkpt lat="48.65934" lon="-2.35401">
        <ele>17</ele>
        <time>2020-06-24T08:05:31.110Z</time>
      </trkpt>
      <trkpt lat="48.65933" lon="-2.354">
        <ele>17</ele>
        <time>2020-06-24T08:05:32.110Z</time>
      </trkpt>
      <trkpt lat="48.65932" lon="-2.35398">
        <ele>18</ele>
        <time>2020-06-24T08:05:33.110Z</time>
      </trkpt>
      <trkpt lat="48.65931" lon="-2.35397">
        <ele>18</ele>
        <time>2020-06-24T08:05:34.110Z</time>
      </trkpt>
      <trkpt lat="48.6593" lon="-2.35395">
        <ele>18</ele>
        <time>2020-06-24T08:05:35.110Z</time>
      </trkpt>
      <trkpt lat="48.6593" lon="-2.35393">
        <ele>18</ele>
        <time>2020-06-24T08:05:36.110Z</time>
      </trkpt>
      <trkpt lat="48.65929" lon="-2.35391">
        <ele>18</ele>
        <time>2020-06-24T08:05:37.110Z</time>
      </trkpt>
      <trkpt lat="48.65928" lon="-2.3539">
        <ele>18</ele>
        <time>2020-06-24T08:05:38.110Z</time>
      </trkpt>
      <trkpt lat="48.65927" lon="-2.35388">
        <ele>18</ele>
        <time>2020-06-24T08:05:39.110Z</time>
      </trkpt>
      <trkpt lat="48.65927" lon="-2.35387">
        <ele>18</ele>
        <time>2020-06-24T08:05:40.110Z</time>
      </trkpt>
      <trkpt lat="48.65925" lon="-2.35386">
        <ele>19</ele>
        <time>2020-06-24T08:05:41.110Z</time>
      </trkpt>
      <trkpt lat="48.65925" lon="-2.35385">
        <ele>18</ele>
        <time>2020-06-24T08:05:42.110Z</time>
      </trkpt>
      <trkpt lat="48.65924" lon="-2.35383">
        <ele>19</ele>
        <time>2020-06-24T08:05:43.110Z</time>
      </trkpt>
      <trkpt lat="48.65924" lon="-2.35381">
        <ele>19</ele>
        <time>2020-06-24T08:05:44.110Z</time>
      </trkpt>
      <trkpt lat="48.65923" lon="-2.35379">
        <ele>18</ele>
        <time>2020-06-24T08:05:45.110Z</time>
      </trkpt>
      <trkpt lat="48.65924" lon="-2.35378">
        <ele>18</ele>
        <time>2020-06-24T08:05:46.110Z</time>
      </trkpt>
      <trkpt lat="48.65924" lon="-2.35376">
        <ele>18</ele>
        <time>2020-06-24T08:05:47.110Z</time>
      </trkpt>
      <trkpt lat="48.65925" lon="-2.35374">
        <ele>18</ele>
        <time>2020-06-24T08:05:48.110Z</time>
      </trkpt>
      <trkpt lat="48.65926" lon="-2.35373">
        <ele>18</ele>
        <time>2020-06-24T08:05:49.110Z</time>
      </trkpt>
      <trkpt lat="48.65926" lon="-2.35371">
        <ele>18</ele>
        <time>2020-06-24T08:05:50.110Z</time>
      </trkpt>
      <trkpt lat="48.65927" lon="-2.3537">
        <ele>18</ele>
        <time>2020-06-24T08:05:51.110Z</time>
      </trkpt>
      <trkpt lat="48.65928" lon="-2.35368">
        <ele>18</ele>
        <time>2020-06-24T08:05:52.110Z</time>
      </trkpt>
      <trkpt lat="48.65929" lon="-2.35366">
        <ele>18</ele>
        <time>2020-06-24T08:05:53.110Z</time>
      </trkpt>
      <trkpt lat="48.6593" lon="-2.35365">
        <ele>18</ele>
        <time>2020-06-24T08:05:54.110Z</time>
      </trkpt>
      <trkpt lat="48.65931" lon="-2.35363">
        <ele>18</ele>
        <time>2020-06-24T08:05:55.110Z</time>
      </trkpt>
      <trkpt lat="48.65931" lon="-2.35361">
        <ele>18</ele>
        <time>2020-06-24T08:05:56.110Z</time>
      </trkpt>
      <trkpt lat="48.65932" lon="-2.3536">
        <ele>19</ele>
        <time>2020-06-24T08:05:57.110Z</time>
      </trkpt>
      <trkpt lat="48.65933" lon="-2.35358">
        <ele>19</ele>
        <time>2020-06-24T08:05:58.110Z</time>
      </trkpt>
      <trkpt lat="48.65934" lon="-2.35357">
        <ele>19</ele>
        <time>2020-06-24T08:05:59.110Z</time>
      </trkpt>
      <trkpt lat="48.65935" lon="-2.35355">
        <ele>19</ele>
        <time>2020-06-24T08:06:00.110Z</time>
      </trkpt>
      <trkpt lat="48.65936" lon="-2.35354">
        <ele>19</ele>
        <time>2020-06-24T08:06:01.110Z</time>
      </trkpt>
      <trkpt lat="48.65937" lon="-2.35353">
        <ele>19</ele>
        <time>2020-06-24T08:06:02.110Z</time>
      </trkpt>
      <trkpt lat="48.65937" lon="-2.35351">
        <ele>19</ele>
        <time>2020-06-24T08:06:03.110Z</time>
      </trkpt>
      <trkpt lat="48.65938" lon="-2.3535">
        <ele>19</ele>
        <time>2020-06-24T08:06:04.110Z</time>
      </trkpt>
      <trkpt lat="48.65939" lon="-2.35348">
        <ele>19</ele>
        <time>2020-06-24T08:06:05.110Z</time>
      </trkpt>
      <trkpt lat="48.6594" lon="-2.35347">
        <ele>19</ele>
        <time>2020-06-24T08:06:06.110Z</time>
      </trkpt>
      <trkpt lat="48.65941" lon="-2.35345">
        <ele>19</ele>
        <time>2020-06-24T08:06:07.110Z</time>
      </trkpt>
      <trkpt lat="48.65942" lon="-2.35344">
        <ele>19</ele>
        <time>2020-06-24T08:06:08.110Z</time>
      </trkpt>
      <trkpt lat="48.65943" lon="-2.35342">
        <ele>19</ele>
        <time>2020-06-24T08:06:09.110Z</time>
      </trkpt>
      <trkpt lat="48.65944" lon="-2.35341">
        <ele>19</ele>
        <time>2020-06-24T08:06:10.110Z</time>
      </trkpt>
      <trkpt lat="48.65945" lon="-2.3534">
        <ele>19</ele>
        <time>2020-06-24T08:06:11.110Z</time>
      </trkpt>
      <trkpt lat="48.65946" lon="-2.35339">
        <ele>18</ele>
        <time>2020-06-24T08:06:12.110Z</time>
      </trkpt>
      <trkpt lat="48.65947" lon="-2.35338">
        <ele>18</ele>
        <time>2020-06-24T08:06:13.110Z</time>
      </trkpt>
      <trkpt lat="48.65948" lon="-2.35336">
        <ele>18</ele>
        <time>2020-06-24T08:06:14.110Z</time>
      </trkpt>
      <trkpt lat="48.65949" lon="-2.35335">
        <ele>18</ele>
        <time>2020-06-24T08:06:15.110Z</time>
      </trkpt>
      <trkpt lat="48.6595" lon="-2.35334">
        <ele>18</ele>
        <time>2020-06-24T08:06:16.110Z</time>
      </trkpt>
      <trkpt lat="48.65951" lon="-2.35333">
        <ele>18</ele>
        <time>2020-06-24T08:06:17.110Z</time>
      </trkpt>
      <trkpt lat="48.65952" lon="-2.35333">
        <ele>18</ele>
        <time>2020-06-24T08:06:18.110Z</time>
      </trkpt>
      <trkpt lat="48.65953" lon="-2.35332">
        <ele>19</ele>
        <time>2020-06-24T08:06:19.110Z</time>
      </trkpt>
      <trkpt lat="48.65954" lon="-2.35331">
        <ele>19</ele>
        <time>2020-06-24T08:06:20.110Z</time>
      </trkpt>
      <trkpt lat="48.65955" lon="-2.3533">
        <ele>19</ele>
        <time>2020-06-24T08:06:21.110Z</time>
      </trkpt>
      <trkpt lat="48.65956" lon="-2.35329">
        <ele>19</ele>
        <time>2020-06-24T08:06:22.110Z</time>
      </trkpt>
      <trkpt lat="48.65958" lon="-2.35328">
        <ele>19</ele>
        <time>2020-06-24T08:06:23.110Z</time>
      </trkpt>
      <trkpt lat="48.65959" lon="-2.35328">
        <ele>19</ele>
        <time>2020-06-24T08:06:24.110Z</time>
      </trkpt>
      <trkpt lat="48.6596" lon="-2.35327">
        <ele>19</ele>
        <time>2020-06-24T08:06:25.110Z</time>
      </trkpt>
      <trkpt lat="48.65961" lon="-2.35326">
        <ele>19</ele>
        <time>2020-06-24T08:06:26.110Z</time>
      </trkpt>
      <trkpt lat="48.65962" lon="-2.35326">
        <ele>19</ele>
        <time>2020-06-24T08:06:27.110Z</time>
      </trkpt>
      <trkpt lat="48.65963" lon="-2.35326">
        <ele>19</ele>
        <time>2020-06-24T08:06:28.110Z</time>
      </trkpt>
      <trkpt lat="48.65964" lon="-2.35325">
        <ele>19</ele>
        <time>2020-06-24T08:06:29.110Z</time>
      </trkpt>
      <trkpt lat="48.65965" lon="-2.35325">
        <ele>19</ele>
        <time>2020-06-24T08:06:30.110Z</time>
      </trkpt>
      <trkpt lat="48.65966" lon="-2.35324">
        <ele>19</ele>
        <time>2020-06-24T08:06:31.110Z</time>
      </trkpt>
      <trkpt lat="48.65968" lon="-2.35324">
        <ele>19</ele>
        <time>2020-06-24T08:06:32.110Z</time>
      </trkpt>
      <trkpt lat="48.65969" lon="-2.35324">
        <ele>19</ele>
        <time>2020-06-24T08:06:33.110Z</time>
      </trkpt>
      <trkpt lat="48.6597" lon="-2.35323">
        <ele>19</ele>
        <time>2020-06-24T08:06:34.110Z</time>
      </trkpt>
      <trkpt lat="48.65971" lon="-2.35323">
        <ele>19</ele>
        <time>2020-06-24T08:06:35.110Z</time>
      </trkpt>
      <trkpt lat="48.65972" lon="-2.35322">
        <ele>18</ele>
        <time>2020-06-24T08:06:36.110Z</time>
      </trkpt>
      <trkpt lat="48.65973" lon="-2.35321">
        <ele>18</ele>
        <time>2020-06-24T08:06:37.110Z</time>
      </trkpt>
      <trkpt lat="48.65975" lon="-2.35321">
        <ele>18</ele>
        <time>2020-06-24T08:06:38.110Z</time>
      </trkpt>
      <trkpt lat="48.65976" lon="-2.3532">
        <ele>18</ele>
        <time>2020-06-24T08:06:39.110Z</time>
      </trkpt>
      <trkpt lat="48.65977" lon="-2.3532">
        <ele>19</ele>
        <time>2020-06-24T08:06:40.110Z</time>
      </trkpt>
      <trkpt lat="48.65978" lon="-2.35319">
        <ele>19</ele>
        <time>2020-06-24T08:06:41.110Z</time>
      </trkpt>
      <trkpt lat="48.65979" lon="-2.35318">
        <ele>19</ele>
        <time>2020-06-24T08:06:42.110Z</time>
      </trkpt>
      <trkpt lat="48.6598" lon="-2.35317">
        <ele>18</ele>
        <time>2020-06-24T08:06:43.110Z</time>
      </trkpt>
      <trkpt lat="48.65981" lon="-2.35316">
        <ele>18</ele>
        <time>2020-06-24T08:06:44.110Z</time>
      </trkpt>
      <trkpt lat="48.65982" lon="-2.35314">
        <ele>18</ele>
        <time>2020-06-24T08:06:45.110Z</time>
      </trkpt>
      <trkpt lat="48.65983" lon="-2.35313">
        <ele>18</ele>
        <time>2020-06-24T08:06:46.110Z</time>
      </trkpt>
      <trkpt lat="48.65984" lon="-2.35312">
        <ele>18</ele>
        <time>2020-06-24T08:06:47.110Z</time>
      </trkpt>
      <trkpt lat="48.65984" lon="-2.3531">
        <ele>17</ele>
        <time>2020-06-24T08:06:48.110Z</time>
      </trkpt>
      <trkpt lat="48.65985" lon="-2.35308">
        <ele>17</ele>
        <time>2020-06-24T08:06:49.110Z</time>
      </trkpt>
      <trkpt lat="48.65985" lon="-2.35307">
        <ele>17</ele>
        <time>2020-06-24T08:06:50.110Z</time>
      </trkpt>
      <trkpt lat="48.65985" lon="-2.35305">
        <ele>18</ele>
        <time>2020-06-24T08:06:51.110Z</time>
      </trkpt>
      <trkpt lat="48.65985" lon="-2.35303">
        <ele>18</ele>
        <time>2020-06-24T08:06:52.110Z</time>
      </trkpt>
      <trkpt lat="48.65986" lon="-2.35301">
        <ele>18</ele>
        <time>2020-06-24T08:06:53.110Z</time>
      </trkpt>
      <trkpt lat="48.65986" lon="-2.35299">
        <ele>18</ele>
        <time>2020-06-24T08:06:54.110Z</time>
      </trkpt>
      <trkpt lat="48.65986" lon="-2.35298">
        <ele>18</ele>
        <time>2020-06-24T08:06:55.110Z</time>
      </trkpt>
      <trkpt lat="48.65986" lon="-2.35296">
        <ele>18</ele>
        <time>2020-06-24T08:06:56.110Z</time>
      </trkpt>
      <trkpt lat="48.65986" lon="-2.35294">
        <ele>18</ele>
        <time>2020-06-24T08:06:57.110Z</time>
      </trkpt>
      <trkpt lat="48.65985" lon="-2.35292">
        <ele>17</ele>
        <time>2020-06-24T08:06:58.110Z</time>
      </trkpt>
      <trkpt lat="48.65985" lon="-2.3529">
        <ele>17</ele>
        <time>2020-06-24T08:06:59.110Z</time>
      </trkpt>
      <trkpt lat="48.65985" lon="-2.35288">
        <ele>17</ele>
        <time>2020-06-24T08:07:00.110Z</time>
      </trkpt>
      <trkpt lat="48.65985" lon="-2.35286">
        <ele>17</ele>
        <time>2020-06-24T08:07:01.110Z</time>
      </trkpt>
      <trkpt lat="48.65986" lon="-2.35284">
        <ele>17</ele>
        <time>2020-06-24T08:07:02.110Z</time>
      </trkpt>
      <trkpt lat="48.65986" lon="-2.35282">
        <ele>17</ele>
        <time>2020-06-24T08:07:03.110Z</time>
      </trkpt>
      <trkpt lat="48.65986" lon="-2.3528">
        <ele>17</ele>
        <time>2020-06-24T08:07:04.110Z</time>
      </trkpt>
      <trkpt lat="48.65986" lon="-2.35279">
        <ele>17</ele>
        <time>2020-06-24T08:07:05.110Z</time>
      </trkpt>
      <trkpt lat="48.65987" lon="-2.35277">
        <ele>17</ele>
        <time>2020-06-24T08:07:06.110Z</time>
      </trkpt>
      <trkpt lat="48.65987" lon="-2.35275">
        <ele>17</ele>
        <time>2020-06-24T08:07:07.110Z</time>
      </trkpt>
      <trkpt lat="48.65988" lon="-2.35273">
        <ele>17</ele>
        <time>2020-06-24T08:07:08.110Z</time>
      </trkpt>
      <trkpt lat="48.65988" lon="-2.35272">
        <ele>17</ele>
        <time>2020-06-24T08:07:09.110Z</time>
      </trkpt>
      <trkpt lat="48.65989" lon="-2.3527">
        <ele>17</ele>
        <time>2020-06-24T08:07:10.110Z</time>
      </trkpt>
      <trkpt lat="48.65989" lon="-2.35269">
        <ele>17</ele>
        <time>2020-06-24T08:07:11.110Z</time>
      </trkpt>
      <trkpt lat="48.6599" lon="-2.35268">
        <ele>16</ele>
        <time>2020-06-24T08:07:12.110Z</time>
      </trkpt>
      <trkpt lat="48.65991" lon="-2.35266">
        <ele>16</ele>
        <time>2020-06-24T08:07:13.110Z</time>
      </trkpt>
      <trkpt lat="48.65991" lon="-2.35265">
        <ele>16</ele>
        <time>2020-06-24T08:07:14.110Z</time>
      </trkpt>
      <trkpt lat="48.65992" lon="-2.35263">
        <ele>16</ele>
        <time>2020-06-24T08:07:15.110Z</time>
      </trkpt>
      <trkpt lat="48.65993" lon="-2.35261">
        <ele>16</ele>
        <time>2020-06-24T08:07:16.110Z</time>
      </trkpt>
      <trkpt lat="48.65994" lon="-2.3526">
        <ele>16</ele>
        <time>2020-06-24T08:07:17.110Z</time>
      </trkpt>
      <trkpt lat="48.65995" lon="-2.35259">
        <ele>15</ele>
        <time>2020-06-24T08:07:18.110Z</time>
      </trkpt>
      <trkpt lat="48.65996" lon="-2.35258">
        <ele>15</ele>
        <time>2020-06-24T08:07:19.110Z</time>
      </trkpt>
      <trkpt lat="48.65997" lon="-2.35257">
        <ele>14</ele>
        <time>2020-06-24T08:07:20.110Z</time>
      </trkpt>
      <trkpt lat="48.65998" lon="-2.35256">
        <ele>14</ele>
        <time>2020-06-24T08:07:21.110Z</time>
      </trkpt>
      <trkpt lat="48.65999" lon="-2.35255">
        <ele>14</ele>
        <time>2020-06-24T08:07:22.110Z</time>
      </trkpt>
      <trkpt lat="48.66" lon="-2.35254">
        <ele>14</ele>
        <time>2020-06-24T08:07:23.110Z</time>
      </trkpt>
      <trkpt lat="48.66001" lon="-2.35254">
        <ele>14</ele>
        <time>2020-06-24T08:07:24.110Z</time>
      </trkpt>
      <trkpt lat="48.66002" lon="-2.35253">
        <ele>13</ele>
        <time>2020-06-24T08:07:25.110Z</time>
      </trkpt>
      <trkpt lat="48.66003" lon="-2.35253">
        <ele>13</ele>
        <time>2020-06-24T08:07:26.110Z</time>
      </trkpt>
      <trkpt lat="48.66004" lon="-2.35253">
        <ele>13</ele>
        <time>2020-06-24T08:07:27.110Z</time>
      </trkpt>
      <trkpt lat="48.66005" lon="-2.35253">
        <ele>13</ele>
        <time>2020-06-24T08:07:28.110Z</time>
      </trkpt>
      <trkpt lat="48.66006" lon="-2.35254">
        <ele>13</ele>
        <time>2020-06-24T08:07:29.110Z</time>
      </trkpt>
      <trkpt lat="48.66007" lon="-2.35254">
        <ele>13</ele>
        <time>2020-06-24T08:07:30.110Z</time>
      </trkpt>
      <trkpt lat="48.66008" lon="-2.35255">
        <ele>12</ele>
        <time>2020-06-24T08:07:31.110Z</time>
      </trkpt>
      <trkpt lat="48.66009" lon="-2.35255">
        <ele>12</ele>
        <time>2020-06-24T08:07:32.110Z</time>
      </trkpt>
      <trkpt lat="48.6601" lon="-2.35256">
        <ele>12</ele>
        <time>2020-06-24T08:07:33.110Z</time>
      </trkpt>
      <trkpt lat="48.66012" lon="-2.35256">
        <ele>12</ele>
        <time>2020-06-24T08:07:34.110Z</time>
      </trkpt>
      <trkpt lat="48.66013" lon="-2.35256">
        <ele>12</ele>
        <time>2020-06-24T08:07:35.110Z</time>
      </trkpt>
      <trkpt lat="48.66014" lon="-2.35256">
        <ele>12</ele>
        <time>2020-06-24T08:07:36.110Z</time>
      </trkpt>
      <trkpt lat="48.66015" lon="-2.35256">
        <ele>12</ele>
        <time>2020-06-24T08:07:37.110Z</time>
      </trkpt>
      <trkpt lat="48.66016" lon="-2.35256">
        <ele>12</ele>
        <time>2020-06-24T08:07:38.110Z</time>
      </trkpt>
      <trkpt lat="48.66017" lon="-2.35255">
        <ele>12</ele>
        <time>2020-06-24T08:07:39.110Z</time>
      </trkpt>
      <trkpt lat="48.66018" lon="-2.35255">
        <ele>11</ele>
        <time>2020-06-24T08:07:40.110Z</time>
      </trkpt>
      <trkpt lat="48.66019" lon="-2.35254">
        <ele>11</ele>
        <time>2020-06-24T08:07:41.110Z</time>
      </trkpt>
      <trkpt lat="48.6602" lon="-2.35253">
        <ele>11</ele>
        <time>2020-06-24T08:07:42.110Z</time>
      </trkpt>
      <trkpt lat="48.66021" lon="-2.35252">
        <ele>11</ele>
        <time>2020-06-24T08:07:43.110Z</time>
      </trkpt>
      <trkpt lat="48.66022" lon="-2.35251">
        <ele>11</ele>
        <time>2020-06-24T08:07:44.110Z</time>
      </trkpt>
      <trkpt lat="48.66022" lon="-2.3525">
        <ele>11</ele>
        <time>2020-06-24T08:07:45.110Z</time>
      </trkpt>
      <trkpt lat="48.66023" lon="-2.35249">
        <ele>11</ele>
        <time>2020-06-24T08:07:46.110Z</time>
      </trkpt>
      <trkpt lat="48.66024" lon="-2.35248">
        <ele>11</ele>
        <time>2020-06-24T08:07:47.110Z</time>
      </trkpt>
      <trkpt lat="48.66025" lon="-2.35247">
        <ele>11</ele>
        <time>2020-06-24T08:07:48.110Z</time>
      </trkpt>
      <trkpt lat="48.66026" lon="-2.35246">
        <ele>11</ele>
        <time>2020-06-24T08:07:49.110Z</time>
      </trkpt>
      <trkpt lat="48.66027" lon="-2.35245">
        <ele>11</ele>
        <time>2020-06-24T08:07:50.110Z</time>
      </trkpt>
      <trkpt lat="48.66027" lon="-2.35245">
        <ele>11</ele>
        <time>2020-06-24T08:07:51.110Z</time>
      </trkpt>
      <trkpt lat="48.66028" lon="-2.35245">
        <ele>11</ele>
        <time>2020-06-24T08:07:52.110Z</time>
      </trkpt>
      <trkpt lat="48.66029" lon="-2.35245">
        <ele>11</ele>
        <time>2020-06-24T08:07:53.110Z</time>
      </trkpt>
      <trkpt lat="48.6603" lon="-2.35245">
        <ele>11</ele>
        <time>2020-06-24T08:07:54.110Z</time>
      </trkpt>
      <trkpt lat="48.66031" lon="-2.35245">
        <ele>11</ele>
        <time>2020-06-24T08:07:55.110Z</time>
      </trkpt>
      <trkpt lat="48.66032" lon="-2.35245">
        <ele>11</ele>
        <time>2020-06-24T08:07:56.110Z</time>
      </trkpt>
      <trkpt lat="48.66032" lon="-2.35245">
        <ele>11</ele>
        <time>2020-06-24T08:07:57.110Z</time>
      </trkpt>
      <trkpt lat="48.66032" lon="-2.35245">
        <ele>11</ele>
        <time>2020-06-24T08:07:58.110Z</time>
      </trkpt>
      <trkpt lat="48.66032" lon="-2.35245">
        <ele>10</ele>
        <time>2020-06-24T08:07:59.110Z</time>
      </trkpt>
      <trkpt lat="48.66032" lon="-2.35245">
        <ele>10</ele>
        <time>2020-06-24T08:08:00.110Z</time>
      </trkpt>
      <trkpt lat="48.66033" lon="-2.35245">
        <ele>10</ele>
        <time>2020-06-24T08:08:01.110Z</time>
      </trkpt>
      <trkpt lat="48.66033" lon="-2.35246">
        <ele>10</ele>
        <time>2020-06-24T08:08:02.110Z</time>
      </trkpt>
      <trkpt lat="48.66034" lon="-2.35246">
        <ele>9</ele>
        <time>2020-06-24T08:08:03.110Z</time>
      </trkpt>
      <trkpt lat="48.66035" lon="-2.35246">
        <ele>9</ele>
        <time>2020-06-24T08:08:04.110Z</time>
      </trkpt>
      <trkpt lat="48.66036" lon="-2.35246">
        <ele>9</ele>
        <time>2020-06-24T08:08:05.110Z</time>
      </trkpt>
      <trkpt lat="48.66037" lon="-2.35247">
        <ele>9</ele>
        <time>2020-06-24T08:08:06.110Z</time>
      </trkpt>
      <trkpt lat="48.66039" lon="-2.35247">
        <ele>8</ele>
        <time>2020-06-24T08:08:07.110Z</time>
      </trkpt>
      <trkpt lat="48.6604" lon="-2.35247">
        <ele>8</ele>
        <time>2020-06-24T08:08:08.110Z</time>
      </trkpt>
      <trkpt lat="48.66041" lon="-2.35246">
        <ele>8</ele>
        <time>2020-06-24T08:08:09.110Z</time>
      </trkpt>
      <trkpt lat="48.66042" lon="-2.35246">
        <ele>8</ele>
        <time>2020-06-24T08:08:10.110Z</time>
      </trkpt>
      <trkpt lat="48.66042" lon="-2.35245">
        <ele>8</ele>
        <time>2020-06-24T08:08:11.110Z</time>
      </trkpt>
      <trkpt lat="48.66043" lon="-2.35244">
        <ele>8</ele>
        <time>2020-06-24T08:08:12.110Z</time>
      </trkpt>
      <trkpt lat="48.66043" lon="-2.35243">
        <ele>8</ele>
        <time>2020-06-24T08:08:13.110Z</time>
      </trkpt>
      <trkpt lat="48.66044" lon="-2.35243">
        <ele>8</ele>
        <time>2020-06-24T08:08:14.110Z</time>
      </trkpt>
      <trkpt lat="48.66045" lon="-2.35242">
        <ele>8</ele>
        <time>2020-06-24T08:08:15.110Z</time>
      </trkpt>
      <trkpt lat="48.66045" lon="-2.35241">
        <ele>7</ele>
        <time>2020-06-24T08:08:16.110Z</time>
      </trkpt>
      <trkpt lat="48.66046" lon="-2.3524">
        <ele>7</ele>
        <time>2020-06-24T08:08:17.110Z</time>
      </trkpt>
      <trkpt lat="48.66047" lon="-2.35239">
        <ele>7</ele>
        <time>2020-06-24T08:08:18.110Z</time>
      </trkpt>
      <trkpt lat="48.66048" lon="-2.35238">
        <ele>7</ele>
        <time>2020-06-24T08:08:19.110Z</time>
      </trkpt>
      <trkpt lat="48.66048" lon="-2.35238">
        <ele>7</ele>
        <time>2020-06-24T08:08:20.110Z</time>
      </trkpt>
      <trkpt lat="48.66049" lon="-2.35237">
        <ele>7</ele>
        <time>2020-06-24T08:08:21.110Z</time>
      </trkpt>
      <trkpt lat="48.6605" lon="-2.35236">
        <ele>7</ele>
        <time>2020-06-24T08:08:22.110Z</time>
      </trkpt>
      <trkpt lat="48.66051" lon="-2.35235">
        <ele>7</ele>
        <time>2020-06-24T08:08:23.110Z</time>
      </trkpt>
      <trkpt lat="48.66051" lon="-2.35234">
        <ele>7</ele>
        <time>2020-06-24T08:08:24.110Z</time>
      </trkpt>
      <trkpt lat="48.66051" lon="-2.35234">
        <ele>8</ele>
        <time>2020-06-24T08:08:25.110Z</time>
      </trkpt>
      <trkpt lat="48.66051" lon="-2.35234">
        <ele>8</ele>
        <time>2020-06-24T08:08:26.110Z</time>
      </trkpt>
      <trkpt lat="48.66051" lon="-2.35234">
        <ele>8</ele>
        <time>2020-06-24T08:08:27.110Z</time>
      </trkpt>
      <trkpt lat="48.66051" lon="-2.35234">
        <ele>8</ele>
        <time>2020-06-24T08:08:28.110Z</time>
      </trkpt>
      <trkpt lat="48.66051" lon="-2.35234">
        <ele>8</ele>
        <time>2020-06-24T08:08:29.110Z</time>
      </trkpt>
      <trkpt lat="48.66051" lon="-2.35233">
        <ele>8</ele>
        <time>2020-06-24T08:08:30.110Z</time>
      </trkpt>
      <trkpt lat="48.66051" lon="-2.35233">
        <ele>7</ele>
        <time>2020-06-24T08:08:31.110Z</time>
      </trkpt>
      <trkpt lat="48.66051" lon="-2.35232">
        <ele>7</ele>
        <time>2020-06-24T08:08:32.110Z</time>
      </trkpt>
      <trkpt lat="48.66051" lon="-2.35231">
        <ele>7</ele>
        <time>2020-06-24T08:08:33.110Z</time>
      </trkpt>
      <trkpt lat="48.66052" lon="-2.3523">
        <ele>8</ele>
        <time>2020-06-24T08:08:34.110Z</time>
      </trkpt>
      <trkpt lat="48.66052" lon="-2.3523">
        <ele>8</ele>
        <time>2020-06-24T08:08:35.110Z</time>
      </trkpt>
      <trkpt lat="48.66052" lon="-2.35229">
        <ele>8</ele>
        <time>2020-06-24T08:08:36.110Z</time>
      </trkpt>
      <trkpt lat="48.66052" lon="-2.35229">
        <ele>8</ele>
        <time>2020-06-24T08:08:37.110Z</time>
      </trkpt>
      <trkpt lat="48.66052" lon="-2.35229">
        <ele>8</ele>
        <time>2020-06-24T08:08:38.110Z</time>
      </trkpt>
      <trkpt lat="48.66053" lon="-2.35228">
        <ele>8</ele>
        <time>2020-06-24T08:08:39.102Z</time>
      </trkpt>
      <trkpt lat="48.66054" lon="-2.35227">
        <ele>7</ele>
        <time>2020-06-24T08:08:40.102Z</time>
      </trkpt>
      <trkpt lat="48.66054" lon="-2.35226">
        <ele>8</ele>
        <time>2020-06-24T08:08:41.102Z</time>
      </trkpt>
      <trkpt lat="48.66054" lon="-2.35225">
        <ele>8</ele>
        <time>2020-06-24T08:08:42.102Z</time>
      </trkpt>
      <trkpt lat="48.66055" lon="-2.35223">
        <ele>7</ele>
        <time>2020-06-24T08:08:43.102Z</time>
      </trkpt>
      <trkpt lat="48.66055" lon="-2.35222">
        <ele>7</ele>
        <time>2020-06-24T08:08:44.102Z</time>
      </trkpt>
      <trkpt lat="48.66056" lon="-2.35221">
        <ele>7</ele>
        <time>2020-06-24T08:08:45.102Z</time>
      </trkpt>
      <trkpt lat="48.66056" lon="-2.35221">
        <ele>7</ele>
        <time>2020-06-24T08:08:46.102Z</time>
      </trkpt>
      <trkpt lat="48.66057" lon="-2.3522">
        <ele>8</ele>
        <time>2020-06-24T08:08:47.102Z</time>
      </trkpt>
      <trkpt lat="48.66057" lon="-2.35219">
        <ele>8</ele>
        <time>2020-06-24T08:08:48.102Z</time>
      </trkpt>
      <trkpt lat="48.66057" lon="-2.35217">
        <ele>8</ele>
        <time>2020-06-24T08:08:49.102Z</time>
      </trkpt>
      <trkpt lat="48.66058" lon="-2.35216">
        <ele>8</ele>
        <time>2020-06-24T08:08:50.102Z</time>
      </trkpt>
      <trkpt lat="48.66058" lon="-2.35215">
        <ele>8</ele>
        <time>2020-06-24T08:08:51.102Z</time>
      </trkpt>
      <trkpt lat="48.66058" lon="-2.35214">
        <ele>8</ele>
        <time>2020-06-24T08:08:52.102Z</time>
      </trkpt>
      <trkpt lat="48.66058" lon="-2.35214">
        <ele>8</ele>
        <time>2020-06-24T08:08:53.102Z</time>
      </trkpt>
      <trkpt lat="48.66058" lon="-2.35212">
        <ele>8</ele>
        <time>2020-06-24T08:08:54.102Z</time>
      </trkpt>
      <trkpt lat="48.66058" lon="-2.35211">
        <ele>8</ele>
        <time>2020-06-24T08:08:55.102Z</time>
      </trkpt>
      <trkpt lat="48.66058" lon="-2.3521">
        <ele>8</ele>
        <time>2020-06-24T08:08:56.102Z</time>
      </trkpt>
      <trkpt lat="48.66058" lon="-2.35208">
        <ele>8</ele>
        <time>2020-06-24T08:08:57.102Z</time>
      </trkpt>
      <trkpt lat="48.66058" lon="-2.35207">
        <ele>8</ele>
        <time>2020-06-24T08:08:58.102Z</time>
      </trkpt>
      <trkpt lat="48.66058" lon="-2.35205">
        <ele>8</ele>
        <time>2020-06-24T08:08:59.102Z</time>
      </trkpt>
      <trkpt lat="48.66057" lon="-2.35205">
        <ele>8</ele>
        <time>2020-06-24T08:09:00.102Z</time>
      </trkpt>
      <trkpt lat="48.66057" lon="-2.35204">
        <ele>8</ele>
        <time>2020-06-24T08:09:01.102Z</time>
      </trkpt>
      <trkpt lat="48.66056" lon="-2.35203">
        <ele>9</ele>
        <time>2020-06-24T08:09:02.102Z</time>
      </trkpt>
      <trkpt lat="48.66056" lon="-2.35203">
        <ele>9</ele>
        <time>2020-06-24T08:09:03.102Z</time>
      </trkpt>
      <trkpt lat="48.66056" lon="-2.35202">
        <ele>9</ele>
        <time>2020-06-24T08:09:04.102Z</time>
      </trkpt>
      <trkpt lat="48.66057" lon="-2.35201">
        <ele>9</ele>
        <time>2020-06-24T08:09:05.102Z</time>
      </trkpt>
      <trkpt lat="48.66057" lon="-2.352">
        <ele>10</ele>
        <time>2020-06-24T08:09:06.102Z</time>
      </trkpt>
      <trkpt lat="48.66057" lon="-2.35199">
        <ele>10</ele>
        <time>2020-06-24T08:09:07.102Z</time>
      </trkpt>
      <trkpt lat="48.66057" lon="-2.35198">
        <ele>10</ele>
        <time>2020-06-24T08:09:08.102Z</time>
      </trkpt>
      <trkpt lat="48.66058" lon="-2.35197">
        <ele>11</ele>
        <time>2020-06-24T08:09:09.102Z</time>
      </trkpt>
      <trkpt lat="48.66058" lon="-2.35196">
        <ele>11</ele>
        <time>2020-06-24T08:09:10.102Z</time>
      </trkpt>
      <trkpt lat="48.66058" lon="-2.35195">
        <ele>11</ele>
        <time>2020-06-24T08:09:11.102Z</time>
      </trkpt>
      <trkpt lat="48.66058" lon="-2.35194">
        <ele>12</ele>
        <time>2020-06-24T08:09:12.102Z</time>
      </trkpt>
      <trkpt lat="48.66058" lon="-2.35193">
        <ele>12</ele>
        <time>2020-06-24T08:09:13.102Z</time>
      </trkpt>
      <trkpt lat="48.66059" lon="-2.35192">
        <ele>12</ele>
        <time>2020-06-24T08:09:14.102Z</time>
      </trkpt>
      <trkpt lat="48.66059" lon="-2.3519">
        <ele>12</ele>
        <time>2020-06-24T08:09:15.102Z</time>
      </trkpt>
      <trkpt lat="48.66059" lon="-2.35189">
        <ele>13</ele>
        <time>2020-06-24T08:09:16.102Z</time>
      </trkpt>
      <trkpt lat="48.66059" lon="-2.35188">
        <ele>13</ele>
        <time>2020-06-24T08:09:17.102Z</time>
      </trkpt>
      <trkpt lat="48.66059" lon="-2.35187">
        <ele>13</ele>
        <time>2020-06-24T08:09:18.102Z</time>
      </trkpt>
      <trkpt lat="48.6606" lon="-2.35185">
        <ele>14</ele>
        <time>2020-06-24T08:09:19.102Z</time>
      </trkpt>
      <trkpt lat="48.6606" lon="-2.35184">
        <ele>14</ele>
        <time>2020-06-24T08:09:20.102Z</time>
      </trkpt>
      <trkpt lat="48.6606" lon="-2.35183">
        <ele>14</ele>
        <time>2020-06-24T08:09:21.102Z</time>
      </trkpt>
      <trkpt lat="48.6606" lon="-2.35182">
        <ele>14</ele>
        <time>2020-06-24T08:09:22.102Z</time>
      </trkpt>
      <trkpt lat="48.6606" lon="-2.35181">
        <ele>14</ele>
        <time>2020-06-24T08:09:23.102Z</time>
      </trkpt>
      <trkpt lat="48.6606" lon="-2.35179">
        <ele>14</ele>
        <time>2020-06-24T08:09:24.102Z</time>
      </trkpt>
      <trkpt lat="48.6606" lon="-2.35178">
        <ele>14</ele>
        <time>2020-06-24T08:09:25.102Z</time>
      </trkpt>
      <trkpt lat="48.6606" lon="-2.35177">
        <ele>15</ele>
        <time>2020-06-24T08:09:26.102Z</time>
      </trkpt>
      <trkpt lat="48.6606" lon="-2.35176">
        <ele>15</ele>
        <time>2020-06-24T08:09:27.102Z</time>
      </trkpt>
      <trkpt lat="48.6606" lon="-2.35175">
        <ele>15</ele>
        <time>2020-06-24T08:09:28.102Z</time>
      </trkpt>
      <trkpt lat="48.6606" lon="-2.35174">
        <ele>16</ele>
        <time>2020-06-24T08:09:29.102Z</time>
      </trkpt>
      <trkpt lat="48.6606" lon="-2.35172">
        <ele>16</ele>
        <time>2020-06-24T08:09:30.102Z</time>
      </trkpt>
      <trkpt lat="48.6606" lon="-2.35171">
        <ele>16</ele>
        <time>2020-06-24T08:09:31.102Z</time>
      </trkpt>
      <trkpt lat="48.6606" lon="-2.3517">
        <ele>16</ele>
        <time>2020-06-24T08:09:32.102Z</time>
      </trkpt>
      <trkpt lat="48.66059" lon="-2.35169">
        <ele>16</ele>
        <time>2020-06-24T08:09:33.102Z</time>
      </trkpt>
      <trkpt lat="48.66059" lon="-2.35168">
        <ele>16</ele>
        <time>2020-06-24T08:09:34.102Z</time>
      </trkpt>
      <trkpt lat="48.66058" lon="-2.35167">
        <ele>16</ele>
        <time>2020-06-24T08:09:35.102Z</time>
      </trkpt>
      <trkpt lat="48.66058" lon="-2.35166">
        <ele>16</ele>
        <time>2020-06-24T08:09:36.102Z</time>
      </trkpt>
      <trkpt lat="48.66057" lon="-2.35165">
        <ele>16</ele>
        <time>2020-06-24T08:09:37.102Z</time>
      </trkpt>
      <trkpt lat="48.66057" lon="-2.35164">
        <ele>16</ele>
        <time>2020-06-24T08:09:38.102Z</time>
      </trkpt>
      <trkpt lat="48.66056" lon="-2.35162">
        <ele>16</ele>
        <time>2020-06-24T08:09:39.102Z</time>
      </trkpt>
      <trkpt lat="48.66055" lon="-2.35161">
        <ele>17</ele>
        <time>2020-06-24T08:09:40.102Z</time>
      </trkpt>
      <trkpt lat="48.66055" lon="-2.3516">
        <ele>17</ele>
        <time>2020-06-24T08:09:41.102Z</time>
      </trkpt>
      <trkpt lat="48.66054" lon="-2.35158">
        <ele>17</ele>
        <time>2020-06-24T08:09:42.102Z</time>
      </trkpt>
      <trkpt lat="48.66054" lon="-2.35157">
        <ele>17</ele>
        <time>2020-06-24T08:09:43.102Z</time>
      </trkpt>
      <trkpt lat="48.66054" lon="-2.35155">
        <ele>17</ele>
        <time>2020-06-24T08:09:44.102Z</time>
      </trkpt>
      <trkpt lat="48.66054" lon="-2.35154">
        <ele>18</ele>
        <time>2020-06-24T08:09:45.102Z</time>
      </trkpt>
      <trkpt lat="48.66054" lon="-2.35152">
        <ele>18</ele>
        <time>2020-06-24T08:09:46.102Z</time>
      </trkpt>
      <trkpt lat="48.66053" lon="-2.3515">
        <ele>18</ele>
        <time>2020-06-24T08:09:47.102Z</time>
      </trkpt>
      <trkpt lat="48.66053" lon="-2.35149">
        <ele>18</ele>
        <time>2020-06-24T08:09:48.102Z</time>
      </trkpt>
      <trkpt lat="48.66053" lon="-2.35147">
        <ele>18</ele>
        <time>2020-06-24T08:09:49.102Z</time>
      </trkpt>
      <trkpt lat="48.66053" lon="-2.35146">
        <ele>18</ele>
        <time>2020-06-24T08:09:50.102Z</time>
      </trkpt>
      <trkpt lat="48.66052" lon="-2.35144">
        <ele>18</ele>
        <time>2020-06-24T08:09:51.102Z</time>
      </trkpt>
      <trkpt lat="48.66052" lon="-2.35142">
        <ele>18</ele>
        <time>2020-06-24T08:09:52.102Z</time>
      </trkpt>
      <trkpt lat="48.66052" lon="-2.35141">
        <ele>18</ele>
        <time>2020-06-24T08:09:53.102Z</time>
      </trkpt>
      <trkpt lat="48.66052" lon="-2.3514">
        <ele>19</ele>
        <time>2020-06-24T08:09:54.102Z</time>
      </trkpt>
      <trkpt lat="48.66052" lon="-2.35138">
        <ele>19</ele>
        <time>2020-06-24T08:09:55.102Z</time>
      </trkpt>
      <trkpt lat="48.66052" lon="-2.35137">
        <ele>20</ele>
        <time>2020-06-24T08:09:56.102Z</time>
      </trkpt>
      <trkpt lat="48.66052" lon="-2.35136">
        <ele>20</ele>
        <time>2020-06-24T08:09:57.102Z</time>
      </trkpt>
      <trkpt lat="48.66052" lon="-2.35135">
        <ele>20</ele>
        <time>2020-06-24T08:09:58.102Z</time>
      </trkpt>
      <trkpt lat="48.66052" lon="-2.35134">
        <ele>21</ele>
        <time>2020-06-24T08:09:59.102Z</time>
      </trkpt>
      <trkpt lat="48.66053" lon="-2.35133">
        <ele>21</ele>
        <time>2020-06-24T08:10:00.102Z</time>
      </trkpt>
      <trkpt lat="48.66053" lon="-2.35132">
        <ele>21</ele>
        <time>2020-06-24T08:10:01.102Z</time>
      </trkpt>
      <trkpt lat="48.66053" lon="-2.35131">
        <ele>21</ele>
        <time>2020-06-24T08:10:02.102Z</time>
      </trkpt>
      <trkpt lat="48.66053" lon="-2.35129">
        <ele>21</ele>
        <time>2020-06-24T08:10:03.102Z</time>
      </trkpt>
      <trkpt lat="48.66053" lon="-2.35128">
        <ele>22</ele>
        <time>2020-06-24T08:10:04.102Z</time>
      </trkpt>
      <trkpt lat="48.66052" lon="-2.35126">
        <ele>21</ele>
        <time>2020-06-24T08:10:05.102Z</time>
      </trkpt>
      <trkpt lat="48.66052" lon="-2.35125">
        <ele>21</ele>
        <time>2020-06-24T08:10:06.102Z</time>
      </trkpt>
      <trkpt lat="48.66052" lon="-2.35123">
        <ele>21</ele>
        <time>2020-06-24T08:10:07.102Z</time>
      </trkpt>
      <trkpt lat="48.66052" lon="-2.35121">
        <ele>21</ele>
        <time>2020-06-24T08:10:08.102Z</time>
      </trkpt>
      <trkpt lat="48.66052" lon="-2.3512">
        <ele>21</ele>
        <time>2020-06-24T08:10:09.102Z</time>
      </trkpt>
      <trkpt lat="48.66052" lon="-2.35118">
        <ele>21</ele>
        <time>2020-06-24T08:10:10.102Z</time>
      </trkpt>
      <trkpt lat="48.66052" lon="-2.35116">
        <ele>21</ele>
        <time>2020-06-24T08:10:11.102Z</time>
      </trkpt>
      <trkpt lat="48.66052" lon="-2.35115">
        <ele>21</ele>
        <time>2020-06-24T08:10:12.102Z</time>
      </trkpt>
      <trkpt lat="48.66053" lon="-2.35113">
        <ele>21</ele>
        <time>2020-06-24T08:10:13.102Z</time>
      </trkpt>
      <trkpt lat="48.66053" lon="-2.35112">
        <ele>21</ele>
        <time>2020-06-24T08:10:14.102Z</time>
      </trkpt>
      <trkpt lat="48.66053" lon="-2.3511">
        <ele>20</ele>
        <time>2020-06-24T08:10:15.102Z</time>
      </trkpt>
      <trkpt lat="48.66053" lon="-2.35109">
        <ele>21</ele>
        <time>2020-06-24T08:10:16.102Z</time>
      </trkpt>
      <trkpt lat="48.66054" lon="-2.35108">
        <ele>21</ele>
        <time>2020-06-24T08:10:17.102Z</time>
      </trkpt>
      <trkpt lat="48.66054" lon="-2.35106">
        <ele>21</ele>
        <time>2020-06-24T08:10:18.102Z</time>
      </trkpt>
      <trkpt lat="48.66055" lon="-2.35106">
        <ele>21</ele>
        <time>2020-06-24T08:10:19.102Z</time>
      </trkpt>
      <trkpt lat="48.66055" lon="-2.35105">
        <ele>21</ele>
        <time>2020-06-24T08:10:20.102Z</time>
      </trkpt>
      <trkpt lat="48.66056" lon="-2.35104">
        <ele>21</ele>
        <time>2020-06-24T08:10:21.102Z</time>
      </trkpt>
      <trkpt lat="48.66057" lon="-2.35103">
        <ele>21</ele>
        <time>2020-06-24T08:10:22.102Z</time>
      </trkpt>
      <trkpt lat="48.66057" lon="-2.35102">
        <ele>21</ele>
        <time>2020-06-24T08:10:23.102Z</time>
      </trkpt>
      <trkpt lat="48.66059" lon="-2.35101">
        <ele>21</ele>
        <time>2020-06-24T08:10:24.102Z</time>
      </trkpt>
      <trkpt lat="48.66059" lon="-2.351">
        <ele>21</ele>
        <time>2020-06-24T08:10:25.102Z</time>
      </trkpt>
      <trkpt lat="48.6606" lon="-2.35099">
        <ele>21</ele>
        <time>2020-06-24T08:10:26.102Z</time>
      </trkpt>
      <trkpt lat="48.66061" lon="-2.35098">
        <ele>21</ele>
        <time>2020-06-24T08:10:27.102Z</time>
      </trkpt>
      <trkpt lat="48.66062" lon="-2.35097">
        <ele>20</ele>
        <time>2020-06-24T08:10:28.102Z</time>
      </trkpt>
      <trkpt lat="48.66063" lon="-2.35097">
        <ele>20</ele>
        <time>2020-06-24T08:10:29.102Z</time>
      </trkpt>
      <trkpt lat="48.66065" lon="-2.35097">
        <ele>20</ele>
        <time>2020-06-24T08:10:30.102Z</time>
      </trkpt>
      <trkpt lat="48.66066" lon="-2.35097">
        <ele>20</ele>
        <time>2020-06-24T08:10:31.102Z</time>
      </trkpt>
      <trkpt lat="48.66067" lon="-2.35096">
        <ele>20</ele>
        <time>2020-06-24T08:10:32.102Z</time>
      </trkpt>
      <trkpt lat="48.66068" lon="-2.35096">
        <ele>19</ele>
        <time>2020-06-24T08:10:33.102Z</time>
      </trkpt>
      <trkpt lat="48.66069" lon="-2.35095">
        <ele>19</ele>
        <time>2020-06-24T08:10:34.102Z</time>
      </trkpt>
      <trkpt lat="48.6607" lon="-2.35094">
        <ele>19</ele>
        <time>2020-06-24T08:10:35.102Z</time>
      </trkpt>
      <trkpt lat="48.6607" lon="-2.35093">
        <ele>19</ele>
        <time>2020-06-24T08:10:36.102Z</time>
      </trkpt>
      <trkpt lat="48.66071" lon="-2.35093">
        <ele>18</ele>
        <time>2020-06-24T08:10:37.102Z</time>
      </trkpt>
      <trkpt lat="48.66072" lon="-2.35092">
        <ele>18</ele>
        <time>2020-06-24T08:10:38.102Z</time>
      </trkpt>
      <trkpt lat="48.66073" lon="-2.35093">
        <ele>18</ele>
        <time>2020-06-24T08:10:39.102Z</time>
      </trkpt>
      <trkpt lat="48.66074" lon="-2.35093">
        <ele>17</ele>
        <time>2020-06-24T08:10:40.102Z</time>
      </trkpt>
      <trkpt lat="48.66075" lon="-2.35094">
        <ele>17</ele>
        <time>2020-06-24T08:10:41.102Z</time>
      </trkpt>
      <trkpt lat="48.66076" lon="-2.35095">
        <ele>17</ele>
        <time>2020-06-24T08:10:42.102Z</time>
      </trkpt>
      <trkpt lat="48.66077" lon="-2.35095">
        <ele>17</ele>
        <time>2020-06-24T08:10:43.102Z</time>
      </trkpt>
      <trkpt lat="48.66078" lon="-2.35096">
        <ele>17</ele>
        <time>2020-06-24T08:10:44.102Z</time>
      </trkpt>
      <trkpt lat="48.66079" lon="-2.35096">
        <ele>17</ele>
        <time>2020-06-24T08:10:45.102Z</time>
      </trkpt>
      <trkpt lat="48.6608" lon="-2.35096">
        <ele>17</ele>
        <time>2020-06-24T08:10:46.102Z</time>
      </trkpt>
      <trkpt lat="48.66081" lon="-2.35097">
        <ele>17</ele>
        <time>2020-06-24T08:10:47.102Z</time>
      </trkpt>
      <trkpt lat="48.66083" lon="-2.35097">
        <ele>17</ele>
        <time>2020-06-24T08:10:48.102Z</time>
      </trkpt>
      <trkpt lat="48.66084" lon="-2.35097">
        <ele>17</ele>
        <time>2020-06-24T08:10:49.102Z</time>
      </trkpt>
      <trkpt lat="48.66085" lon="-2.35097">
        <ele>17</ele>
        <time>2020-06-24T08:10:50.102Z</time>
      </trkpt>
      <trkpt lat="48.66086" lon="-2.35097">
        <ele>16</ele>
        <time>2020-06-24T08:10:51.102Z</time>
      </trkpt>
      <trkpt lat="48.66087" lon="-2.35097">
        <ele>16</ele>
        <time>2020-06-24T08:10:52.102Z</time>
      </trkpt>
      <trkpt lat="48.66088" lon="-2.35098">
        <ele>16</ele>
        <time>2020-06-24T08:10:53.102Z</time>
      </trkpt>
      <trkpt lat="48.66089" lon="-2.35098">
        <ele>16</ele>
        <time>2020-06-24T08:10:54.102Z</time>
      </trkpt>
      <trkpt lat="48.6609" lon="-2.35099">
        <ele>16</ele>
        <time>2020-06-24T08:10:55.102Z</time>
      </trkpt>
      <trkpt lat="48.66091" lon="-2.351">
        <ele>16</ele>
        <time>2020-06-24T08:10:56.102Z</time>
      </trkpt>
      <trkpt lat="48.66092" lon="-2.35101">
        <ele>16</ele>
        <time>2020-06-24T08:10:57.102Z</time>
      </trkpt>
      <trkpt lat="48.66093" lon="-2.35102">
        <ele>16</ele>
        <time>2020-06-24T08:10:58.102Z</time>
      </trkpt>
      <trkpt lat="48.66094" lon="-2.35103">
        <ele>16</ele>
        <time>2020-06-24T08:10:59.102Z</time>
      </trkpt>
      <trkpt lat="48.66095" lon="-2.35105">
        <ele>16</ele>
        <time>2020-06-24T08:11:00.102Z</time>
      </trkpt>
      <trkpt lat="48.66096" lon="-2.35106">
        <ele>16</ele>
        <time>2020-06-24T08:11:01.102Z</time>
      </trkpt>
      <trkpt lat="48.66097" lon="-2.35106">
        <ele>16</ele>
        <time>2020-06-24T08:11:02.102Z</time>
      </trkpt>
      <trkpt lat="48.66097" lon="-2.35107">
        <ele>16</ele>
        <time>2020-06-24T08:11:03.102Z</time>
      </trkpt>
      <trkpt lat="48.66098" lon="-2.35107">
        <ele>16</ele>
        <time>2020-06-24T08:11:04.102Z</time>
      </trkpt>
      <trkpt lat="48.66098" lon="-2.35107">
        <ele>16</ele>
        <time>2020-06-24T08:11:05.102Z</time>
      </trkpt>
      <trkpt lat="48.66098" lon="-2.35107">
        <ele>16</ele>
        <time>2020-06-24T08:11:06.102Z</time>
      </trkpt>
      <trkpt lat="48.66098" lon="-2.35107">
        <ele>17</ele>
        <time>2020-06-24T08:11:07.102Z</time>
      </trkpt>
      <trkpt lat="48.66098" lon="-2.35107">
        <ele>17</ele>
        <time>2020-06-24T08:11:08.102Z</time>
      </trkpt>
      <trkpt lat="48.66098" lon="-2.35107">
        <ele>17</ele>
        <time>2020-06-24T08:11:09.102Z</time>
      </trkpt>
      <trkpt lat="48.66098" lon="-2.35107">
        <ele>17</ele>
        <time>2020-06-24T08:11:10.102Z</time>
      </trkpt>
      <trkpt lat="48.661" lon="-2.35107">
        <ele>18</ele>
        <time>2020-06-24T08:11:11.110Z</time>
      </trkpt>
      <trkpt lat="48.66101" lon="-2.35106">
        <ele>18</ele>
        <time>2020-06-24T08:11:12.110Z</time>
      </trkpt>
      <trkpt lat="48.66102" lon="-2.35105">
        <ele>17</ele>
        <time>2020-06-24T08:11:13.110Z</time>
      </trkpt>
      <trkpt lat="48.66102" lon="-2.35104">
        <ele>17</ele>
        <time>2020-06-24T08:11:14.110Z</time>
      </trkpt>
      <trkpt lat="48.66103" lon="-2.35102">
        <ele>17</ele>
        <time>2020-06-24T08:11:15.110Z</time>
      </trkpt>
      <trkpt lat="48.66103" lon="-2.35101">
        <ele>17</ele>
        <time>2020-06-24T08:11:16.110Z</time>
      </trkpt>
      <trkpt lat="48.66104" lon="-2.35099">
        <ele>17</ele>
        <time>2020-06-24T08:11:17.110Z</time>
      </trkpt>
      <trkpt lat="48.66104" lon="-2.35099">
        <ele>17</ele>
        <time>2020-06-24T08:11:18.110Z</time>
      </trkpt>
      <trkpt lat="48.66104" lon="-2.35098">
        <ele>17</ele>
        <time>2020-06-24T08:11:19.110Z</time>
      </trkpt>
      <trkpt lat="48.66104" lon="-2.35098">
        <ele>17</ele>
        <time>2020-06-24T08:11:20.110Z</time>
      </trkpt>
      <trkpt lat="48.66104" lon="-2.35098">
        <ele>17</ele>
        <time>2020-06-24T08:11:21.110Z</time>
      </trkpt>
      <trkpt lat="48.66104" lon="-2.35098">
        <ele>17</ele>
        <time>2020-06-24T08:11:22.110Z</time>
      </trkpt>
      <trkpt lat="48.66104" lon="-2.35098">
        <ele>17</ele>
        <time>2020-06-24T08:11:23.110Z</time>
      </trkpt>
      <trkpt lat="48.66104" lon="-2.35097">
        <ele>17</ele>
        <time>2020-06-24T08:11:24.110Z</time>
      </trkpt>
      <trkpt lat="48.66103" lon="-2.35096">
        <ele>17</ele>
        <time>2020-06-24T08:11:25.110Z</time>
      </trkpt>
      <trkpt lat="48.66103" lon="-2.35095">
        <ele>17</ele>
        <time>2020-06-24T08:11:26.110Z</time>
      </trkpt>
      <trkpt lat="48.66104" lon="-2.35094">
        <ele>16</ele>
        <time>2020-06-24T08:11:27.110Z</time>
      </trkpt>
      <trkpt lat="48.66104" lon="-2.35092">
        <ele>16</ele>
        <time>2020-06-24T08:11:28.110Z</time>
      </trkpt>
      <trkpt lat="48.66104" lon="-2.35091">
        <ele>15</ele>
        <time>2020-06-24T08:11:29.110Z</time>
      </trkpt>
      <trkpt lat="48.66104" lon="-2.3509">
        <ele>15</ele>
        <time>2020-06-24T08:11:30.110Z</time>
      </trkpt>
      <trkpt lat="48.66104" lon="-2.35088">
        <ele>15</ele>
        <time>2020-06-24T08:11:31.110Z</time>
      </trkpt>
      <trkpt lat="48.66104" lon="-2.35087">
        <ele>15</ele>
        <time>2020-06-24T08:11:32.110Z</time>
      </trkpt>
      <trkpt lat="48.66104" lon="-2.35086">
        <ele>15</ele>
        <time>2020-06-24T08:11:33.110Z</time>
      </trkpt>
      <trkpt lat="48.66104" lon="-2.35086">
        <ele>15</ele>
        <time>2020-06-24T08:11:34.110Z</time>
      </trkpt>
      <trkpt lat="48.66104" lon="-2.35085">
        <ele>15</ele>
        <time>2020-06-24T08:11:35.110Z</time>
      </trkpt>
      <trkpt lat="48.66104" lon="-2.35086">
        <ele>15</ele>
        <time>2020-06-24T08:11:36.110Z</time>
      </trkpt>
      <trkpt lat="48.66104" lon="-2.35086">
        <ele>15</ele>
        <time>2020-06-24T08:11:37.110Z</time>
      </trkpt>
      <trkpt lat="48.66104" lon="-2.35079">
        <ele>14</ele>
        <time>2020-06-24T08:11:38.114Z</time>
      </trkpt>
      <trkpt lat="48.66104" lon="-2.35077">
        <ele>14</ele>
        <time>2020-06-24T08:11:39.114Z</time>
      </trkpt>
      <trkpt lat="48.66103" lon="-2.35075">
        <ele>14</ele>
        <time>2020-06-24T08:11:40.114Z</time>
      </trkpt>
      <trkpt lat="48.66103" lon="-2.35074">
        <ele>13</ele>
        <time>2020-06-24T08:11:41.114Z</time>
      </trkpt>
      <trkpt lat="48.66103" lon="-2.35072">
        <ele>13</ele>
        <time>2020-06-24T08:11:42.114Z</time>
      </trkpt>
      <trkpt lat="48.66102" lon="-2.3507">
        <ele>13</ele>
        <time>2020-06-24T08:11:43.114Z</time>
      </trkpt>
      <trkpt lat="48.66102" lon="-2.35069">
        <ele>12</ele>
        <time>2020-06-24T08:11:44.114Z</time>
      </trkpt>
      <trkpt lat="48.66102" lon="-2.35068">
        <ele>12</ele>
        <time>2020-06-24T08:11:45.114Z</time>
      </trkpt>
      <trkpt lat="48.66102" lon="-2.35066">
        <ele>12</ele>
        <time>2020-06-24T08:11:46.114Z</time>
      </trkpt>
      <trkpt lat="48.66101" lon="-2.35065">
        <ele>11</ele>
        <time>2020-06-24T08:11:47.114Z</time>
      </trkpt>
      <trkpt lat="48.66101" lon="-2.35063">
        <ele>11</ele>
        <time>2020-06-24T08:11:48.114Z</time>
      </trkpt>
      <trkpt lat="48.66101" lon="-2.35061">
        <ele>10</ele>
        <time>2020-06-24T08:11:49.114Z</time>
      </trkpt>
      <trkpt lat="48.661" lon="-2.35059">
        <ele>10</ele>
        <time>2020-06-24T08:11:50.114Z</time>
      </trkpt>
      <trkpt lat="48.661" lon="-2.35057">
        <ele>10</ele>
        <time>2020-06-24T08:11:51.114Z</time>
      </trkpt>
      <trkpt lat="48.661" lon="-2.35055">
        <ele>10</ele>
        <time>2020-06-24T08:11:52.114Z</time>
      </trkpt>
      <trkpt lat="48.661" lon="-2.35053">
        <ele>10</ele>
        <time>2020-06-24T08:11:53.114Z</time>
      </trkpt>
      <trkpt lat="48.661" lon="-2.35051">
        <ele>10</ele>
        <time>2020-06-24T08:11:54.114Z</time>
      </trkpt>
      <trkpt lat="48.66099" lon="-2.35049">
        <ele>10</ele>
        <time>2020-06-24T08:11:55.114Z</time>
      </trkpt>
      <trkpt lat="48.66099" lon="-2.35046">
        <ele>10</ele>
        <time>2020-06-24T08:11:56.114Z</time>
      </trkpt>
      <trkpt lat="48.66099" lon="-2.35044">
        <ele>11</ele>
        <time>2020-06-24T08:11:57.114Z</time>
      </trkpt>
      <trkpt lat="48.66099" lon="-2.35042">
        <ele>11</ele>
        <time>2020-06-24T08:11:58.114Z</time>
      </trkpt>
      <trkpt lat="48.66098" lon="-2.3504">
        <ele>11</ele>
        <time>2020-06-24T08:11:59.114Z</time>
      </trkpt>
      <trkpt lat="48.66098" lon="-2.35038">
        <ele>11</ele>
        <time>2020-06-24T08:12:00.114Z</time>
      </trkpt>
      <trkpt lat="48.66098" lon="-2.35037">
        <ele>11</ele>
        <time>2020-06-24T08:12:01.114Z</time>
      </trkpt>
      <trkpt lat="48.66098" lon="-2.35035">
        <ele>11</ele>
        <time>2020-06-24T08:12:02.114Z</time>
      </trkpt>
      <trkpt lat="48.66098" lon="-2.35033">
        <ele>10</ele>
        <time>2020-06-24T08:12:03.114Z</time>
      </trkpt>
      <trkpt lat="48.66098" lon="-2.35031">
        <ele>10</ele>
        <time>2020-06-24T08:12:04.114Z</time>
      </trkpt>
      <trkpt lat="48.66098" lon="-2.35029">
        <ele>10</ele>
        <time>2020-06-24T08:12:05.114Z</time>
      </trkpt>
      <trkpt lat="48.66098" lon="-2.35027">
        <ele>10</ele>
        <time>2020-06-24T08:12:06.114Z</time>
      </trkpt>
      <trkpt lat="48.66098" lon="-2.35025">
        <ele>10</ele>
        <time>2020-06-24T08:12:07.114Z</time>
      </trkpt>
      <trkpt lat="48.66098" lon="-2.35023">
        <ele>10</ele>
        <time>2020-06-24T08:12:08.114Z</time>
      </trkpt>
      <trkpt lat="48.66097" lon="-2.35021">
        <ele>10</ele>
        <time>2020-06-24T08:12:09.114Z</time>
      </trkpt>
      <trkpt lat="48.66097" lon="-2.35019">
        <ele>9</ele>
        <time>2020-06-24T08:12:10.114Z</time>
      </trkpt>
      <trkpt lat="48.66097" lon="-2.35017">
        <ele>9</ele>
        <time>2020-06-24T08:12:11.114Z</time>
      </trkpt>
      <trkpt lat="48.66096" lon="-2.35016">
        <ele>9</ele>
        <time>2020-06-24T08:12:12.114Z</time>
      </trkpt>
      <trkpt lat="48.66096" lon="-2.35014">
        <ele>8</ele>
        <time>2020-06-24T08:12:13.114Z</time>
      </trkpt>
      <trkpt lat="48.66096" lon="-2.35012">
        <ele>8</ele>
        <time>2020-06-24T08:12:14.114Z</time>
      </trkpt>
      <trkpt lat="48.66096" lon="-2.3501">
        <ele>8</ele>
        <time>2020-06-24T08:12:15.114Z</time>
      </trkpt>
      <trkpt lat="48.66096" lon="-2.35008">
        <ele>8</ele>
        <time>2020-06-24T08:12:16.114Z</time>
      </trkpt>
      <trkpt lat="48.66095" lon="-2.35006">
        <ele>8</ele>
        <time>2020-06-24T08:12:17.114Z</time>
      </trkpt>
      <trkpt lat="48.66096" lon="-2.35004">
        <ele>8</ele>
        <time>2020-06-24T08:12:18.114Z</time>
      </trkpt>
      <trkpt lat="48.66096" lon="-2.35002">
        <ele>8</ele>
        <time>2020-06-24T08:12:19.114Z</time>
      </trkpt>
      <trkpt lat="48.66096" lon="-2.35001">
        <ele>8</ele>
        <time>2020-06-24T08:12:20.114Z</time>
      </trkpt>
      <trkpt lat="48.66097" lon="-2.35">
        <ele>8</ele>
        <time>2020-06-24T08:12:21.114Z</time>
      </trkpt>
      <trkpt lat="48.66097" lon="-2.35">
        <ele>8</ele>
        <time>2020-06-24T08:12:22.114Z</time>
      </trkpt>
      <trkpt lat="48.66097" lon="-2.34999">
        <ele>8</ele>
        <time>2020-06-24T08:12:23.114Z</time>
      </trkpt>
      <trkpt lat="48.66097" lon="-2.34999">
        <ele>8</ele>
        <time>2020-06-24T08:12:24.114Z</time>
      </trkpt>
      <trkpt lat="48.66097" lon="-2.34999">
        <ele>8</ele>
        <time>2020-06-24T08:12:25.114Z</time>
      </trkpt>
      <trkpt lat="48.66097" lon="-2.34998">
        <ele>8</ele>
        <time>2020-06-24T08:12:26.114Z</time>
      </trkpt>
      <trkpt lat="48.66096" lon="-2.34997">
        <ele>8</ele>
        <time>2020-06-24T08:12:27.114Z</time>
      </trkpt>
      <trkpt lat="48.66096" lon="-2.34996">
        <ele>8</ele>
        <time>2020-06-24T08:12:28.114Z</time>
      </trkpt>
      <trkpt lat="48.66096" lon="-2.34996">
        <ele>8</ele>
        <time>2020-06-24T08:12:29.114Z</time>
      </trkpt>
      <trkpt lat="48.66096" lon="-2.34996">
        <ele>8</ele>
        <time>2020-06-24T08:12:30.114Z</time>
      </trkpt>
      <trkpt lat="48.66096" lon="-2.34996">
        <ele>8</ele>
        <time>2020-06-24T08:12:31.114Z</time>
      </trkpt>
      <trkpt lat="48.66096" lon="-2.34996">
        <ele>8</ele>
        <time>2020-06-24T08:12:32.114Z</time>
      </trkpt>
      <trkpt lat="48.66094" lon="-2.34992">
        <ele>8</ele>
        <time>2020-06-24T08:12:33.118Z</time>
      </trkpt>
      <trkpt lat="48.66093" lon="-2.34991">
        <ele>8</ele>
        <time>2020-06-24T08:12:34.118Z</time>
      </trkpt>
      <trkpt lat="48.66093" lon="-2.34989">
        <ele>8</ele>
        <time>2020-06-24T08:12:35.118Z</time>
      </trkpt>
      <trkpt lat="48.66092" lon="-2.34988">
        <ele>8</ele>
        <time>2020-06-24T08:12:36.118Z</time>
      </trkpt>
      <trkpt lat="48.66092" lon="-2.34987">
        <ele>8</ele>
        <time>2020-06-24T08:12:37.118Z</time>
      </trkpt>
      <trkpt lat="48.66091" lon="-2.34985">
        <ele>8</ele>
        <time>2020-06-24T08:12:38.118Z</time>
      </trkpt>
      <trkpt lat="48.66091" lon="-2.34984">
        <ele>8</ele>
        <time>2020-06-24T08:12:39.118Z</time>
      </trkpt>
      <trkpt lat="48.6609" lon="-2.34982">
        <ele>8</ele>
        <time>2020-06-24T08:12:40.118Z</time>
      </trkpt>
      <trkpt lat="48.6609" lon="-2.3498">
        <ele>8</ele>
        <time>2020-06-24T08:12:41.118Z</time>
      </trkpt>
      <trkpt lat="48.66089" lon="-2.34979">
        <ele>8</ele>
        <time>2020-06-24T08:12:42.118Z</time>
      </trkpt>
      <trkpt lat="48.66088" lon="-2.34977">
        <ele>8</ele>
        <time>2020-06-24T08:12:43.118Z</time>
      </trkpt>
      <trkpt lat="48.66088" lon="-2.34975">
        <ele>8</ele>
        <time>2020-06-24T08:12:44.118Z</time>
      </trkpt>
      <trkpt lat="48.66087" lon="-2.34973">
        <ele>8</ele>
        <time>2020-06-24T08:12:45.118Z</time>
      </trkpt>
      <trkpt lat="48.66087" lon="-2.34972">
        <ele>8</ele>
        <time>2020-06-24T08:12:46.118Z</time>
      </trkpt>
      <trkpt lat="48.66087" lon="-2.3497">
        <ele>9</ele>
        <time>2020-06-24T08:12:47.118Z</time>
      </trkpt>
      <trkpt lat="48.66086" lon="-2.34968">
        <ele>9</ele>
        <time>2020-06-24T08:12:48.118Z</time>
      </trkpt>
      <trkpt lat="48.66085" lon="-2.34966">
        <ele>9</ele>
        <time>2020-06-24T08:12:49.118Z</time>
      </trkpt>
      <trkpt lat="48.66085" lon="-2.34964">
        <ele>9</ele>
        <time>2020-06-24T08:12:50.118Z</time>
      </trkpt>
      <trkpt lat="48.66084" lon="-2.34963">
        <ele>9</ele>
        <time>2020-06-24T08:12:51.118Z</time>
      </trkpt>
      <trkpt lat="48.66084" lon="-2.34961">
        <ele>9</ele>
        <time>2020-06-24T08:12:52.118Z</time>
      </trkpt>
      <trkpt lat="48.66083" lon="-2.34959">
        <ele>10</ele>
        <time>2020-06-24T08:12:53.118Z</time>
      </trkpt>
      <trkpt lat="48.66083" lon="-2.34957">
        <ele>10</ele>
        <time>2020-06-24T08:12:54.118Z</time>
      </trkpt>
      <trkpt lat="48.66082" lon="-2.34955">
        <ele>10</ele>
        <time>2020-06-24T08:12:55.118Z</time>
      </trkpt>
      <trkpt lat="48.66081" lon="-2.34953">
        <ele>10</ele>
        <time>2020-06-24T08:12:56.118Z</time>
      </trkpt>
      <trkpt lat="48.6608" lon="-2.34952">
        <ele>10</ele>
        <time>2020-06-24T08:12:57.118Z</time>
      </trkpt>
      <trkpt lat="48.6608" lon="-2.3495">
        <ele>10</ele>
        <time>2020-06-24T08:12:58.118Z</time>
      </trkpt>
      <trkpt lat="48.66079" lon="-2.34949">
        <ele>10</ele>
        <time>2020-06-24T08:12:59.118Z</time>
      </trkpt>
      <trkpt lat="48.66078" lon="-2.34948">
        <ele>10</ele>
        <time>2020-06-24T08:13:00.118Z</time>
      </trkpt>
      <trkpt lat="48.66077" lon="-2.34946">
        <ele>10</ele>
        <time>2020-06-24T08:13:01.118Z</time>
      </trkpt>
      <trkpt lat="48.66077" lon="-2.34945">
        <ele>10</ele>
        <time>2020-06-24T08:13:02.118Z</time>
      </trkpt>
      <trkpt lat="48.66076" lon="-2.34944">
        <ele>10</ele>
        <time>2020-06-24T08:13:03.118Z</time>
      </trkpt>
      <trkpt lat="48.66075" lon="-2.34942">
        <ele>11</ele>
        <time>2020-06-24T08:13:04.118Z</time>
      </trkpt>
      <trkpt lat="48.66074" lon="-2.3494">
        <ele>11</ele>
        <time>2020-06-24T08:13:05.118Z</time>
      </trkpt>
      <trkpt lat="48.66074" lon="-2.34939">
        <ele>11</ele>
        <time>2020-06-24T08:13:06.118Z</time>
      </trkpt>
      <trkpt lat="48.66073" lon="-2.34937">
        <ele>11</ele>
        <time>2020-06-24T08:13:07.118Z</time>
      </trkpt>
      <trkpt lat="48.66072" lon="-2.34936">
        <ele>11</ele>
        <time>2020-06-24T08:13:08.118Z</time>
      </trkpt>
      <trkpt lat="48.66071" lon="-2.34934">
        <ele>11</ele>
        <time>2020-06-24T08:13:09.118Z</time>
      </trkpt>
      <trkpt lat="48.66071" lon="-2.34933">
        <ele>11</ele>
        <time>2020-06-24T08:13:10.118Z</time>
      </trkpt>
      <trkpt lat="48.6607" lon="-2.34932">
        <ele>11</ele>
        <time>2020-06-24T08:13:11.118Z</time>
      </trkpt>
      <trkpt lat="48.66069" lon="-2.3493">
        <ele>11</ele>
        <time>2020-06-24T08:13:12.118Z</time>
      </trkpt>
      <trkpt lat="48.66068" lon="-2.34929">
        <ele>11</ele>
        <time>2020-06-24T08:13:13.118Z</time>
      </trkpt>
      <trkpt lat="48.66067" lon="-2.34928">
        <ele>11</ele>
        <time>2020-06-24T08:13:14.118Z</time>
      </trkpt>
      <trkpt lat="48.66066" lon="-2.34927">
        <ele>11</ele>
        <time>2020-06-24T08:13:15.118Z</time>
      </trkpt>
      <trkpt lat="48.66066" lon="-2.34926">
        <ele>11</ele>
        <time>2020-06-24T08:13:16.118Z</time>
      </trkpt>
      <trkpt lat="48.66065" lon="-2.34925">
        <ele>12</ele>
        <time>2020-06-24T08:13:17.118Z</time>
      </trkpt>
      <trkpt lat="48.66064" lon="-2.34924">
        <ele>12</ele>
        <time>2020-06-24T08:13:18.118Z</time>
      </trkpt>
      <trkpt lat="48.66063" lon="-2.34923">
        <ele>11</ele>
        <time>2020-06-24T08:13:19.118Z</time>
      </trkpt>
      <trkpt lat="48.66062" lon="-2.34921">
        <ele>11</ele>
        <time>2020-06-24T08:13:20.118Z</time>
      </trkpt>
      <trkpt lat="48.66061" lon="-2.34919">
        <ele>11</ele>
        <time>2020-06-24T08:13:21.118Z</time>
      </trkpt>
      <trkpt lat="48.6606" lon="-2.34918">
        <ele>11</ele>
        <time>2020-06-24T08:13:22.118Z</time>
      </trkpt>
      <trkpt lat="48.6606" lon="-2.34916">
        <ele>11</ele>
        <time>2020-06-24T08:13:23.118Z</time>
      </trkpt>
      <trkpt lat="48.66059" lon="-2.34915">
        <ele>11</ele>
        <time>2020-06-24T08:13:24.118Z</time>
      </trkpt>
      <trkpt lat="48.66058" lon="-2.34913">
        <ele>11</ele>
        <time>2020-06-24T08:13:25.118Z</time>
      </trkpt>
      <trkpt lat="48.66058" lon="-2.34912">
        <ele>11</ele>
        <time>2020-06-24T08:13:26.118Z</time>
      </trkpt>
      <trkpt lat="48.66057" lon="-2.3491">
        <ele>11</ele>
        <time>2020-06-24T08:13:27.118Z</time>
      </trkpt>
      <trkpt lat="48.66056" lon="-2.34909">
        <ele>12</ele>
        <time>2020-06-24T08:13:28.118Z</time>
      </trkpt>
      <trkpt lat="48.66055" lon="-2.34907">
        <ele>12</ele>
        <time>2020-06-24T08:13:29.118Z</time>
      </trkpt>
      <trkpt lat="48.66054" lon="-2.34906">
        <ele>12</ele>
        <time>2020-06-24T08:13:30.118Z</time>
      </trkpt>
      <trkpt lat="48.66054" lon="-2.34904">
        <ele>12</ele>
        <time>2020-06-24T08:13:31.118Z</time>
      </trkpt>
      <trkpt lat="48.66054" lon="-2.34903">
        <ele>13</ele>
        <time>2020-06-24T08:13:32.118Z</time>
      </trkpt>
      <trkpt lat="48.66053" lon="-2.34902">
        <ele>13</ele>
        <time>2020-06-24T08:13:33.118Z</time>
      </trkpt>
      <trkpt lat="48.66052" lon="-2.349">
        <ele>13</ele>
        <time>2020-06-24T08:13:34.118Z</time>
      </trkpt>
      <trkpt lat="48.66052" lon="-2.34899">
        <ele>14</ele>
        <time>2020-06-24T08:13:35.118Z</time>
      </trkpt>
      <trkpt lat="48.66051" lon="-2.34897">
        <ele>15</ele>
        <time>2020-06-24T08:13:36.118Z</time>
      </trkpt>
      <trkpt lat="48.66051" lon="-2.34895">
        <ele>16</ele>
        <time>2020-06-24T08:13:37.118Z</time>
      </trkpt>
      <trkpt lat="48.6605" lon="-2.34894">
        <ele>16</ele>
        <time>2020-06-24T08:13:38.118Z</time>
      </trkpt>
      <trkpt lat="48.6605" lon="-2.34893">
        <ele>17</ele>
        <time>2020-06-24T08:13:39.118Z</time>
      </trkpt>
      <trkpt lat="48.66049" lon="-2.34891">
        <ele>17</ele>
        <time>2020-06-24T08:13:40.118Z</time>
      </trkpt>
      <trkpt lat="48.66049" lon="-2.3489">
        <ele>18</ele>
        <time>2020-06-24T08:13:41.118Z</time>
      </trkpt>
      <trkpt lat="48.66049" lon="-2.34889">
        <ele>18</ele>
        <time>2020-06-24T08:13:42.118Z</time>
      </trkpt>
      <trkpt lat="48.66048" lon="-2.34887">
        <ele>18</ele>
        <time>2020-06-24T08:13:43.118Z</time>
      </trkpt>
      <trkpt lat="48.66048" lon="-2.34886">
        <ele>19</ele>
        <time>2020-06-24T08:13:44.118Z</time>
      </trkpt>
      <trkpt lat="48.66047" lon="-2.34884">
        <ele>20</ele>
        <time>2020-06-24T08:13:45.118Z</time>
      </trkpt>
      <trkpt lat="48.66047" lon="-2.34881">
        <ele>20</ele>
        <time>2020-06-24T08:13:46.118Z</time>
      </trkpt>
      <trkpt lat="48.66046" lon="-2.34879">
        <ele>20</ele>
        <time>2020-06-24T08:13:47.118Z</time>
      </trkpt>
      <trkpt lat="48.66046" lon="-2.34878">
        <ele>20</ele>
        <time>2020-06-24T08:13:48.118Z</time>
      </trkpt>
      <trkpt lat="48.66046" lon="-2.34876">
        <ele>20</ele>
        <time>2020-06-24T08:13:49.118Z</time>
      </trkpt>
      <trkpt lat="48.66047" lon="-2.34875">
        <ele>19</ele>
        <time>2020-06-24T08:13:50.118Z</time>
      </trkpt>
      <trkpt lat="48.66049" lon="-2.34873">
        <ele>20</ele>
        <time>2020-06-24T08:13:51.118Z</time>
      </trkpt>
      <trkpt lat="48.66051" lon="-2.34871">
        <ele>20</ele>
        <time>2020-06-24T08:13:52.118Z</time>
      </trkpt>
      <trkpt lat="48.66052" lon="-2.34869">
        <ele>20</ele>
        <time>2020-06-24T08:13:53.118Z</time>
      </trkpt>
      <trkpt lat="48.66053" lon="-2.34868">
        <ele>20</ele>
        <time>2020-06-24T08:13:54.118Z</time>
      </trkpt>
      <trkpt lat="48.66053" lon="-2.34867">
        <ele>20</ele>
        <time>2020-06-24T08:13:55.118Z</time>
      </trkpt>
      <trkpt lat="48.66054" lon="-2.34866">
        <ele>20</ele>
        <time>2020-06-24T08:13:56.118Z</time>
      </trkpt>
      <trkpt lat="48.66056" lon="-2.34865">
        <ele>20</ele>
        <time>2020-06-24T08:13:57.118Z</time>
      </trkpt>
      <trkpt lat="48.66057" lon="-2.34864">
        <ele>19</ele>
        <time>2020-06-24T08:13:58.118Z</time>
      </trkpt>
      <trkpt lat="48.66058" lon="-2.34863">
        <ele>19</ele>
        <time>2020-06-24T08:13:59.118Z</time>
      </trkpt>
      <trkpt lat="48.66059" lon="-2.34863">
        <ele>20</ele>
        <time>2020-06-24T08:14:00.118Z</time>
      </trkpt>
      <trkpt lat="48.66061" lon="-2.34862">
        <ele>19</ele>
        <time>2020-06-24T08:14:01.118Z</time>
      </trkpt>
      <trkpt lat="48.66062" lon="-2.34861">
        <ele>20</ele>
        <time>2020-06-24T08:14:02.118Z</time>
      </trkpt>
      <trkpt lat="48.66063" lon="-2.3486">
        <ele>20</ele>
        <time>2020-06-24T08:14:03.118Z</time>
      </trkpt>
      <trkpt lat="48.66064" lon="-2.3486">
        <ele>20</ele>
        <time>2020-06-24T08:14:04.118Z</time>
      </trkpt>
      <trkpt lat="48.66065" lon="-2.34859">
        <ele>20</ele>
        <time>2020-06-24T08:14:05.118Z</time>
      </trkpt>
      <trkpt lat="48.66066" lon="-2.34858">
        <ele>20</ele>
        <time>2020-06-24T08:14:06.118Z</time>
      </trkpt>
      <trkpt lat="48.66067" lon="-2.34857">
        <ele>20</ele>
        <time>2020-06-24T08:14:07.118Z</time>
      </trkpt>
      <trkpt lat="48.66068" lon="-2.34857">
        <ele>20</ele>
        <time>2020-06-24T08:14:08.118Z</time>
      </trkpt>
      <trkpt lat="48.6607" lon="-2.34856">
        <ele>20</ele>
        <time>2020-06-24T08:14:09.118Z</time>
      </trkpt>
      <trkpt lat="48.66071" lon="-2.34855">
        <ele>20</ele>
        <time>2020-06-24T08:14:10.118Z</time>
      </trkpt>
      <trkpt lat="48.66072" lon="-2.34854">
        <ele>20</ele>
        <time>2020-06-24T08:14:11.118Z</time>
      </trkpt>
      <trkpt lat="48.66073" lon="-2.34853">
        <ele>19</ele>
        <time>2020-06-24T08:14:12.118Z</time>
      </trkpt>
      <trkpt lat="48.66074" lon="-2.34852">
        <ele>19</ele>
        <time>2020-06-24T08:14:13.118Z</time>
      </trkpt>
      <trkpt lat="48.66075" lon="-2.34851">
        <ele>19</ele>
        <time>2020-06-24T08:14:14.118Z</time>
      </trkpt>
      <trkpt lat="48.66077" lon="-2.3485">
        <ele>19</ele>
        <time>2020-06-24T08:14:15.118Z</time>
      </trkpt>
      <trkpt lat="48.66078" lon="-2.34849">
        <ele>19</ele>
        <time>2020-06-24T08:14:16.118Z</time>
      </trkpt>
      <trkpt lat="48.66079" lon="-2.34848">
        <ele>18</ele>
        <time>2020-06-24T08:14:17.118Z</time>
      </trkpt>
      <trkpt lat="48.6608" lon="-2.34847">
        <ele>18</ele>
        <time>2020-06-24T08:14:18.118Z</time>
      </trkpt>
      <trkpt lat="48.66082" lon="-2.34846">
        <ele>18</ele>
        <time>2020-06-24T08:14:19.118Z</time>
      </trkpt>
      <trkpt lat="48.66083" lon="-2.34845">
        <ele>18</ele>
        <time>2020-06-24T08:14:20.118Z</time>
      </trkpt>
      <trkpt lat="48.66084" lon="-2.34844">
        <ele>18</ele>
        <time>2020-06-24T08:14:21.118Z</time>
      </trkpt>
      <trkpt lat="48.66086" lon="-2.34843">
        <ele>17</ele>
        <time>2020-06-24T08:14:22.118Z</time>
      </trkpt>
      <trkpt lat="48.66087" lon="-2.34842">
        <ele>17</ele>
        <time>2020-06-24T08:14:23.118Z</time>
      </trkpt>
      <trkpt lat="48.66088" lon="-2.34841">
        <ele>17</ele>
        <time>2020-06-24T08:14:24.118Z</time>
      </trkpt>
      <trkpt lat="48.66089" lon="-2.3484">
        <ele>16</ele>
        <time>2020-06-24T08:14:25.118Z</time>
      </trkpt>
      <trkpt lat="48.66091" lon="-2.34839">
        <ele>16</ele>
        <time>2020-06-24T08:14:26.118Z</time>
      </trkpt>
      <trkpt lat="48.66092" lon="-2.34838">
        <ele>16</ele>
        <time>2020-06-24T08:14:27.118Z</time>
      </trkpt>
      <trkpt lat="48.66093" lon="-2.34837">
        <ele>15</ele>
        <time>2020-06-24T08:14:28.118Z</time>
      </trkpt>
      <trkpt lat="48.66094" lon="-2.34836">
        <ele>15</ele>
        <time>2020-06-24T08:14:29.118Z</time>
      </trkpt>
      <trkpt lat="48.66095" lon="-2.34834">
        <ele>15</ele>
        <time>2020-06-24T08:14:30.118Z</time>
      </trkpt>
      <trkpt lat="48.66096" lon="-2.34833">
        <ele>15</ele>
        <time>2020-06-24T08:14:31.118Z</time>
      </trkpt>
      <trkpt lat="48.66098" lon="-2.34832">
        <ele>15</ele>
        <time>2020-06-24T08:14:32.118Z</time>
      </trkpt>
      <trkpt lat="48.66099" lon="-2.34831">
        <ele>15</ele>
        <time>2020-06-24T08:14:33.118Z</time>
      </trkpt>
      <trkpt lat="48.661" lon="-2.34829">
        <ele>16</ele>
        <time>2020-06-24T08:14:34.118Z</time>
      </trkpt>
      <trkpt lat="48.66101" lon="-2.34828">
        <ele>16</ele>
        <time>2020-06-24T08:14:35.118Z</time>
      </trkpt>
      <trkpt lat="48.66102" lon="-2.34827">
        <ele>16</ele>
        <time>2020-06-24T08:14:36.118Z</time>
      </trkpt>
      <trkpt lat="48.66103" lon="-2.34826">
        <ele>16</ele>
        <time>2020-06-24T08:14:37.118Z</time>
      </trkpt>
      <trkpt lat="48.66104" lon="-2.34824">
        <ele>16</ele>
        <time>2020-06-24T08:14:38.118Z</time>
      </trkpt>
      <trkpt lat="48.66105" lon="-2.34823">
        <ele>16</ele>
        <time>2020-06-24T08:14:39.118Z</time>
      </trkpt>
      <trkpt lat="48.66106" lon="-2.34821">
        <ele>15</ele>
        <time>2020-06-24T08:14:40.118Z</time>
      </trkpt>
      <trkpt lat="48.66106" lon="-2.34819">
        <ele>15</ele>
        <time>2020-06-24T08:14:41.118Z</time>
      </trkpt>
      <trkpt lat="48.66107" lon="-2.34817">
        <ele>15</ele>
        <time>2020-06-24T08:14:42.118Z</time>
      </trkpt>
      <trkpt lat="48.66107" lon="-2.34815">
        <ele>15</ele>
        <time>2020-06-24T08:14:43.118Z</time>
      </trkpt>
      <trkpt lat="48.66107" lon="-2.34813">
        <ele>15</ele>
        <time>2020-06-24T08:14:44.118Z</time>
      </trkpt>
      <trkpt lat="48.66108" lon="-2.34811">
        <ele>15</ele>
        <time>2020-06-24T08:14:45.118Z</time>
      </trkpt>
      <trkpt lat="48.66108" lon="-2.34809">
        <ele>15</ele>
        <time>2020-06-24T08:14:46.118Z</time>
      </trkpt>
      <trkpt lat="48.66108" lon="-2.34807">
        <ele>14</ele>
        <time>2020-06-24T08:14:47.118Z</time>
      </trkpt>
      <trkpt lat="48.66108" lon="-2.34805">
        <ele>15</ele>
        <time>2020-06-24T08:14:48.118Z</time>
      </trkpt>
      <trkpt lat="48.66108" lon="-2.34803">
        <ele>15</ele>
        <time>2020-06-24T08:14:49.118Z</time>
      </trkpt>
      <trkpt lat="48.66108" lon="-2.34801">
        <ele>15</ele>
        <time>2020-06-24T08:14:50.118Z</time>
      </trkpt>
      <trkpt lat="48.66109" lon="-2.34799">
        <ele>15</ele>
        <time>2020-06-24T08:14:51.118Z</time>
      </trkpt>
      <trkpt lat="48.66109" lon="-2.34797">
        <ele>15</ele>
        <time>2020-06-24T08:14:52.118Z</time>
      </trkpt>
      <trkpt lat="48.6611" lon="-2.34795">
        <ele>14</ele>
        <time>2020-06-24T08:14:53.118Z</time>
      </trkpt>
      <trkpt lat="48.66111" lon="-2.34794">
        <ele>15</ele>
        <time>2020-06-24T08:14:54.118Z</time>
      </trkpt>
      <trkpt lat="48.66111" lon="-2.34793">
        <ele>15</ele>
        <time>2020-06-24T08:14:55.118Z</time>
      </trkpt>
      <trkpt lat="48.66112" lon="-2.34791">
        <ele>15</ele>
        <time>2020-06-24T08:14:56.118Z</time>
      </trkpt>
      <trkpt lat="48.66113" lon="-2.34791">
        <ele>15</ele>
        <time>2020-06-24T08:14:57.118Z</time>
      </trkpt>
      <trkpt lat="48.66114" lon="-2.3479">
        <ele>15</ele>
        <time>2020-06-24T08:14:58.118Z</time>
      </trkpt>
      <trkpt lat="48.66116" lon="-2.3479">
        <ele>15</ele>
        <time>2020-06-24T08:14:59.118Z</time>
      </trkpt>
      <trkpt lat="48.66117" lon="-2.3479">
        <ele>15</ele>
        <time>2020-06-24T08:15:00.118Z</time>
      </trkpt>
      <trkpt lat="48.66119" lon="-2.34791">
        <ele>15</ele>
        <time>2020-06-24T08:15:01.118Z</time>
      </trkpt>
      <trkpt lat="48.6612" lon="-2.34792">
        <ele>15</ele>
        <time>2020-06-24T08:15:02.118Z</time>
      </trkpt>
      <trkpt lat="48.66121" lon="-2.34792">
        <ele>15</ele>
        <time>2020-06-24T08:15:03.118Z</time>
      </trkpt>
      <trkpt lat="48.66122" lon="-2.34793">
        <ele>15</ele>
        <time>2020-06-24T08:15:04.118Z</time>
      </trkpt>
      <trkpt lat="48.66123" lon="-2.34793">
        <ele>15</ele>
        <time>2020-06-24T08:15:05.118Z</time>
      </trkpt>
      <trkpt lat="48.66125" lon="-2.34794">
        <ele>15</ele>
        <time>2020-06-24T08:15:06.118Z</time>
      </trkpt>
      <trkpt lat="48.66126" lon="-2.34795">
        <ele>15</ele>
        <time>2020-06-24T08:15:07.118Z</time>
      </trkpt>
      <trkpt lat="48.66127" lon="-2.34796">
        <ele>15</ele>
        <time>2020-06-24T08:15:08.118Z</time>
      </trkpt>
      <trkpt lat="48.66128" lon="-2.34797">
        <ele>16</ele>
        <time>2020-06-24T08:15:09.118Z</time>
      </trkpt>
      <trkpt lat="48.66129" lon="-2.34797">
        <ele>16</ele>
        <time>2020-06-24T08:15:10.118Z</time>
      </trkpt>
      <trkpt lat="48.66131" lon="-2.34798">
        <ele>15</ele>
        <time>2020-06-24T08:15:11.118Z</time>
      </trkpt>
      <trkpt lat="48.66132" lon="-2.34799">
        <ele>15</ele>
        <time>2020-06-24T08:15:12.118Z</time>
      </trkpt>
      <trkpt lat="48.66133" lon="-2.348">
        <ele>15</ele>
        <time>2020-06-24T08:15:13.118Z</time>
      </trkpt>
      <trkpt lat="48.66134" lon="-2.34801">
        <ele>15</ele>
        <time>2020-06-24T08:15:14.118Z</time>
      </trkpt>
      <trkpt lat="48.66136" lon="-2.34801">
        <ele>15</ele>
        <time>2020-06-24T08:15:15.118Z</time>
      </trkpt>
      <trkpt lat="48.66137" lon="-2.34802">
        <ele>15</ele>
        <time>2020-06-24T08:15:16.118Z</time>
      </trkpt>
      <trkpt lat="48.66138" lon="-2.34803">
        <ele>15</ele>
        <time>2020-06-24T08:15:17.118Z</time>
      </trkpt>
      <trkpt lat="48.66139" lon="-2.34803">
        <ele>15</ele>
        <time>2020-06-24T08:15:18.118Z</time>
      </trkpt>
      <trkpt lat="48.6614" lon="-2.34804">
        <ele>15</ele>
        <time>2020-06-24T08:15:19.118Z</time>
      </trkpt>
      <trkpt lat="48.66142" lon="-2.34804">
        <ele>15</ele>
        <time>2020-06-24T08:15:20.118Z</time>
      </trkpt>
      <trkpt lat="48.66143" lon="-2.34805">
        <ele>15</ele>
        <time>2020-06-24T08:15:21.118Z</time>
      </trkpt>
      <trkpt lat="48.66144" lon="-2.34806">
        <ele>15</ele>
        <time>2020-06-24T08:15:22.118Z</time>
      </trkpt>
      <trkpt lat="48.66145" lon="-2.34806">
        <ele>15</ele>
        <time>2020-06-24T08:15:23.118Z</time>
      </trkpt>
      <trkpt lat="48.66147" lon="-2.34807">
        <ele>15</ele>
        <time>2020-06-24T08:15:24.118Z</time>
      </trkpt>
      <trkpt lat="48.66148" lon="-2.34808">
        <ele>15</ele>
        <time>2020-06-24T08:15:25.118Z</time>
      </trkpt>
      <trkpt lat="48.66149" lon="-2.34808">
        <ele>15</ele>
        <time>2020-06-24T08:15:26.118Z</time>
      </trkpt>
      <trkpt lat="48.6615" lon="-2.34809">
        <ele>15</ele>
        <time>2020-06-24T08:15:27.118Z</time>
      </trkpt>
      <trkpt lat="48.66152" lon="-2.34809">
        <ele>15</ele>
        <time>2020-06-24T08:15:28.118Z</time>
      </trkpt>
      <trkpt lat="48.66153" lon="-2.34809">
        <ele>15</ele>
        <time>2020-06-24T08:15:29.118Z</time>
      </trkpt>
      <trkpt lat="48.66154" lon="-2.3481">
        <ele>15</ele>
        <time>2020-06-24T08:15:30.118Z</time>
      </trkpt>
      <trkpt lat="48.66155" lon="-2.34811">
        <ele>15</ele>
        <time>2020-06-24T08:15:31.118Z</time>
      </trkpt>
      <trkpt lat="48.66156" lon="-2.34812">
        <ele>15</ele>
        <time>2020-06-24T08:15:32.118Z</time>
      </trkpt>
      <trkpt lat="48.66158" lon="-2.34812">
        <ele>15</ele>
        <time>2020-06-24T08:15:33.118Z</time>
      </trkpt>
      <trkpt lat="48.66159" lon="-2.34813">
        <ele>15</ele>
        <time>2020-06-24T08:15:34.118Z</time>
      </trkpt>
      <trkpt lat="48.6616" lon="-2.34813">
        <ele>15</ele>
        <time>2020-06-24T08:15:35.118Z</time>
      </trkpt>
      <trkpt lat="48.66161" lon="-2.34814">
        <ele>15</ele>
        <time>2020-06-24T08:15:36.118Z</time>
      </trkpt>
      <trkpt lat="48.66162" lon="-2.34815">
        <ele>15</ele>
        <time>2020-06-24T08:15:37.118Z</time>
      </trkpt>
      <trkpt lat="48.66163" lon="-2.34815">
        <ele>15</ele>
        <time>2020-06-24T08:15:38.118Z</time>
      </trkpt>
      <trkpt lat="48.66164" lon="-2.34816">
        <ele>15</ele>
        <time>2020-06-24T08:15:39.118Z</time>
      </trkpt>
      <trkpt lat="48.66166" lon="-2.34817">
        <ele>15</ele>
        <time>2020-06-24T08:15:40.118Z</time>
      </trkpt>
      <trkpt lat="48.66167" lon="-2.34817">
        <ele>15</ele>
        <time>2020-06-24T08:15:41.118Z</time>
      </trkpt>
      <trkpt lat="48.66168" lon="-2.34818">
        <ele>15</ele>
        <time>2020-06-24T08:15:42.118Z</time>
      </trkpt>
      <trkpt lat="48.66169" lon="-2.34818">
        <ele>15</ele>
        <time>2020-06-24T08:15:43.118Z</time>
      </trkpt>
      <trkpt lat="48.6617" lon="-2.34819">
        <ele>15</ele>
        <time>2020-06-24T08:15:44.118Z</time>
      </trkpt>
      <trkpt lat="48.66172" lon="-2.34819">
        <ele>16</ele>
        <time>2020-06-24T08:15:45.118Z</time>
      </trkpt>
      <trkpt lat="48.66173" lon="-2.3482">
        <ele>16</ele>
        <time>2020-06-24T08:15:46.118Z</time>
      </trkpt>
      <trkpt lat="48.66174" lon="-2.34821">
        <ele>16</ele>
        <time>2020-06-24T08:15:47.118Z</time>
      </trkpt>
      <trkpt lat="48.66175" lon="-2.34821">
        <ele>16</ele>
        <time>2020-06-24T08:15:48.118Z</time>
      </trkpt>
      <trkpt lat="48.66176" lon="-2.34822">
        <ele>16</ele>
        <time>2020-06-24T08:15:49.118Z</time>
      </trkpt>
      <trkpt lat="48.66177" lon="-2.34823">
        <ele>16</ele>
        <time>2020-06-24T08:15:50.118Z</time>
      </trkpt>
      <trkpt lat="48.66178" lon="-2.34823">
        <ele>16</ele>
        <time>2020-06-24T08:15:51.118Z</time>
      </trkpt>
      <trkpt lat="48.6618" lon="-2.34824">
        <ele>17</ele>
        <time>2020-06-24T08:15:52.118Z</time>
      </trkpt>
      <trkpt lat="48.66181" lon="-2.34824">
        <ele>16</ele>
        <time>2020-06-24T08:15:53.118Z</time>
      </trkpt>
      <trkpt lat="48.66182" lon="-2.34825">
        <ele>16</ele>
        <time>2020-06-24T08:15:54.118Z</time>
      </trkpt>
      <trkpt lat="48.66183" lon="-2.34826">
        <ele>16</ele>
        <time>2020-06-24T08:15:55.118Z</time>
      </trkpt>
      <trkpt lat="48.66184" lon="-2.34826">
        <ele>16</ele>
        <time>2020-06-24T08:15:56.118Z</time>
      </trkpt>
      <trkpt lat="48.66186" lon="-2.34827">
        <ele>16</ele>
        <time>2020-06-24T08:15:57.118Z</time>
      </trkpt>
      <trkpt lat="48.66187" lon="-2.34827">
        <ele>16</ele>
        <time>2020-06-24T08:15:58.118Z</time>
      </trkpt>
      <trkpt lat="48.66188" lon="-2.34827">
        <ele>16</ele>
        <time>2020-06-24T08:15:59.118Z</time>
      </trkpt>
      <trkpt lat="48.6619" lon="-2.34828">
        <ele>16</ele>
        <time>2020-06-24T08:16:00.118Z</time>
      </trkpt>
      <trkpt lat="48.66191" lon="-2.34828">
        <ele>16</ele>
        <time>2020-06-24T08:16:01.118Z</time>
      </trkpt>
      <trkpt lat="48.66192" lon="-2.34829">
        <ele>16</ele>
        <time>2020-06-24T08:16:02.118Z</time>
      </trkpt>
      <trkpt lat="48.66193" lon="-2.3483">
        <ele>16</ele>
        <time>2020-06-24T08:16:03.118Z</time>
      </trkpt>
      <trkpt lat="48.66194" lon="-2.3483">
        <ele>16</ele>
        <time>2020-06-24T08:16:04.118Z</time>
      </trkpt>
      <trkpt lat="48.66196" lon="-2.34831">
        <ele>17</ele>
        <time>2020-06-24T08:16:05.118Z</time>
      </trkpt>
      <trkpt lat="48.66197" lon="-2.34831">
        <ele>17</ele>
        <time>2020-06-24T08:16:06.118Z</time>
      </trkpt>
      <trkpt lat="48.66198" lon="-2.34831">
        <ele>17</ele>
        <time>2020-06-24T08:16:07.118Z</time>
      </trkpt>
      <trkpt lat="48.66199" lon="-2.34832">
        <ele>17</ele>
        <time>2020-06-24T08:16:08.118Z</time>
      </trkpt>
      <trkpt lat="48.662" lon="-2.34833">
        <ele>17</ele>
        <time>2020-06-24T08:16:09.118Z</time>
      </trkpt>
      <trkpt lat="48.66202" lon="-2.34833">
        <ele>16</ele>
        <time>2020-06-24T08:16:10.118Z</time>
      </trkpt>
      <trkpt lat="48.66203" lon="-2.34834">
        <ele>17</ele>
        <time>2020-06-24T08:16:11.118Z</time>
      </trkpt>
      <trkpt lat="48.66204" lon="-2.34835">
        <ele>17</ele>
        <time>2020-06-24T08:16:12.118Z</time>
      </trkpt>
      <trkpt lat="48.66205" lon="-2.34836">
        <ele>17</ele>
        <time>2020-06-24T08:16:13.118Z</time>
      </trkpt>
      <trkpt lat="48.66206" lon="-2.34836">
        <ele>17</ele>
        <time>2020-06-24T08:16:14.118Z</time>
      </trkpt>
      <trkpt lat="48.66208" lon="-2.34836">
        <ele>17</ele>
        <time>2020-06-24T08:16:15.118Z</time>
      </trkpt>
      <trkpt lat="48.66209" lon="-2.34837">
        <ele>17</ele>
        <time>2020-06-24T08:16:16.118Z</time>
      </trkpt>
      <trkpt lat="48.6621" lon="-2.34837">
        <ele>17</ele>
        <time>2020-06-24T08:16:17.118Z</time>
      </trkpt>
      <trkpt lat="48.66211" lon="-2.34838">
        <ele>17</ele>
        <time>2020-06-24T08:16:18.118Z</time>
      </trkpt>
      <trkpt lat="48.66213" lon="-2.34838">
        <ele>17</ele>
        <time>2020-06-24T08:16:19.118Z</time>
      </trkpt>
      <trkpt lat="48.66214" lon="-2.34838">
        <ele>17</ele>
        <time>2020-06-24T08:16:20.118Z</time>
      </trkpt>
      <trkpt lat="48.66215" lon="-2.34838">
        <ele>17</ele>
        <time>2020-06-24T08:16:21.118Z</time>
      </trkpt>
      <trkpt lat="48.66217" lon="-2.34839">
        <ele>17</ele>
        <time>2020-06-24T08:16:22.118Z</time>
      </trkpt>
      <trkpt lat="48.66218" lon="-2.34839">
        <ele>18</ele>
        <time>2020-06-24T08:16:23.118Z</time>
      </trkpt>
      <trkpt lat="48.66219" lon="-2.34839">
        <ele>18</ele>
        <time>2020-06-24T08:16:24.118Z</time>
      </trkpt>
      <trkpt lat="48.66221" lon="-2.34839">
        <ele>18</ele>
        <time>2020-06-24T08:16:25.118Z</time>
      </trkpt>
      <trkpt lat="48.66222" lon="-2.34839">
        <ele>18</ele>
        <time>2020-06-24T08:16:26.118Z</time>
      </trkpt>
      <trkpt lat="48.66223" lon="-2.34839">
        <ele>18</ele>
        <time>2020-06-24T08:16:27.118Z</time>
      </trkpt>
      <trkpt lat="48.66225" lon="-2.34839">
        <ele>18</ele>
        <time>2020-06-24T08:16:28.118Z</time>
      </trkpt>
      <trkpt lat="48.66226" lon="-2.34839">
        <ele>18</ele>
        <time>2020-06-24T08:16:29.118Z</time>
      </trkpt>
      <trkpt lat="48.66227" lon="-2.34839">
        <ele>18</ele>
        <time>2020-06-24T08:16:30.118Z</time>
      </trkpt>
      <trkpt lat="48.66228" lon="-2.34839">
        <ele>18</ele>
        <time>2020-06-24T08:16:31.118Z</time>
      </trkpt>
      <trkpt lat="48.66229" lon="-2.3484">
        <ele>18</ele>
        <time>2020-06-24T08:16:32.118Z</time>
      </trkpt>
      <trkpt lat="48.66231" lon="-2.34839">
        <ele>18</ele>
        <time>2020-06-24T08:16:33.118Z</time>
      </trkpt>
      <trkpt lat="48.66232" lon="-2.34839">
        <ele>18</ele>
        <time>2020-06-24T08:16:34.118Z</time>
      </trkpt>
      <trkpt lat="48.66233" lon="-2.34839">
        <ele>18</ele>
        <time>2020-06-24T08:16:35.118Z</time>
      </trkpt>
      <trkpt lat="48.66235" lon="-2.34839">
        <ele>18</ele>
        <time>2020-06-24T08:16:36.118Z</time>
      </trkpt>
      <trkpt lat="48.66236" lon="-2.34839">
        <ele>18</ele>
        <time>2020-06-24T08:16:37.118Z</time>
      </trkpt>
      <trkpt lat="48.66237" lon="-2.34839">
        <ele>18</ele>
        <time>2020-06-24T08:16:38.118Z</time>
      </trkpt>
      <trkpt lat="48.66239" lon="-2.34838">
        <ele>18</ele>
        <time>2020-06-24T08:16:39.118Z</time>
      </trkpt>
      <trkpt lat="48.6624" lon="-2.34838">
        <ele>18</ele>
        <time>2020-06-24T08:16:40.118Z</time>
      </trkpt>
      <trkpt lat="48.66241" lon="-2.34838">
        <ele>18</ele>
        <time>2020-06-24T08:16:41.118Z</time>
      </trkpt>
      <trkpt lat="48.66243" lon="-2.34837">
        <ele>18</ele>
        <time>2020-06-24T08:16:42.118Z</time>
      </trkpt>
      <trkpt lat="48.66244" lon="-2.34837">
        <ele>18</ele>
        <time>2020-06-24T08:16:43.118Z</time>
      </trkpt>
      <trkpt lat="48.66245" lon="-2.34836">
        <ele>19</ele>
        <time>2020-06-24T08:16:44.118Z</time>
      </trkpt>
      <trkpt lat="48.66246" lon="-2.34836">
        <ele>19</ele>
        <time>2020-06-24T08:16:45.118Z</time>
      </trkpt>
      <trkpt lat="48.66248" lon="-2.34836">
        <ele>19</ele>
        <time>2020-06-24T08:16:46.118Z</time>
      </trkpt>
      <trkpt lat="48.66249" lon="-2.34835">
        <ele>19</ele>
        <time>2020-06-24T08:16:47.118Z</time>
      </trkpt>
      <trkpt lat="48.6625" lon="-2.34835">
        <ele>19</ele>
        <time>2020-06-24T08:16:48.118Z</time>
      </trkpt>
      <trkpt lat="48.66252" lon="-2.34834">
        <ele>19</ele>
        <time>2020-06-24T08:16:49.118Z</time>
      </trkpt>
      <trkpt lat="48.66253" lon="-2.34834">
        <ele>19</ele>
        <time>2020-06-24T08:16:50.118Z</time>
      </trkpt>
      <trkpt lat="48.66254" lon="-2.34833">
        <ele>19</ele>
        <time>2020-06-24T08:16:51.118Z</time>
      </trkpt>
      <trkpt lat="48.66255" lon="-2.34833">
        <ele>19</ele>
        <time>2020-06-24T08:16:52.118Z</time>
      </trkpt>
      <trkpt lat="48.66256" lon="-2.34832">
        <ele>19</ele>
        <time>2020-06-24T08:16:53.118Z</time>
      </trkpt>
      <trkpt lat="48.66257" lon="-2.34832">
        <ele>19</ele>
        <time>2020-06-24T08:16:54.118Z</time>
      </trkpt>
      <trkpt lat="48.66259" lon="-2.34831">
        <ele>19</ele>
        <time>2020-06-24T08:16:55.118Z</time>
      </trkpt>
      <trkpt lat="48.6626" lon="-2.3483">
        <ele>19</ele>
        <time>2020-06-24T08:16:56.118Z</time>
      </trkpt>
      <trkpt lat="48.66261" lon="-2.3483">
        <ele>19</ele>
        <time>2020-06-24T08:16:57.118Z</time>
      </trkpt>
      <trkpt lat="48.66262" lon="-2.34829">
        <ele>20</ele>
        <time>2020-06-24T08:16:58.118Z</time>
      </trkpt>
      <trkpt lat="48.66263" lon="-2.34829">
        <ele>20</ele>
        <time>2020-06-24T08:16:59.118Z</time>
      </trkpt>
      <trkpt lat="48.66265" lon="-2.34828">
        <ele>20</ele>
        <time>2020-06-24T08:17:00.118Z</time>
      </trkpt>
      <trkpt lat="48.66266" lon="-2.34827">
        <ele>20</ele>
        <time>2020-06-24T08:17:01.118Z</time>
      </trkpt>
      <trkpt lat="48.66267" lon="-2.34826">
        <ele>20</ele>
        <time>2020-06-24T08:17:02.118Z</time>
      </trkpt>
      <trkpt lat="48.66268" lon="-2.34826">
        <ele>20</ele>
        <time>2020-06-24T08:17:03.118Z</time>
      </trkpt>
      <trkpt lat="48.66269" lon="-2.34825">
        <ele>20</ele>
        <time>2020-06-24T08:17:04.118Z</time>
      </trkpt>
      <trkpt lat="48.6627" lon="-2.34824">
        <ele>20</ele>
        <time>2020-06-24T08:17:05.118Z</time>
      </trkpt>
      <trkpt lat="48.66272" lon="-2.34823">
        <ele>20</ele>
        <time>2020-06-24T08:17:06.118Z</time>
      </trkpt>
      <trkpt lat="48.66273" lon="-2.34822">
        <ele>20</ele>
        <time>2020-06-24T08:17:07.118Z</time>
      </trkpt>
      <trkpt lat="48.66274" lon="-2.34822">
        <ele>21</ele>
        <time>2020-06-24T08:17:08.118Z</time>
      </trkpt>
      <trkpt lat="48.66275" lon="-2.34821">
        <ele>21</ele>
        <time>2020-06-24T08:17:09.118Z</time>
      </trkpt>
      <trkpt lat="48.66276" lon="-2.3482">
        <ele>21</ele>
        <time>2020-06-24T08:17:10.118Z</time>
      </trkpt>
      <trkpt lat="48.66277" lon="-2.34819">
        <ele>21</ele>
        <time>2020-06-24T08:17:11.118Z</time>
      </trkpt>
      <trkpt lat="48.66278" lon="-2.34818">
        <ele>21</ele>
        <time>2020-06-24T08:17:12.118Z</time>
      </trkpt>
      <trkpt lat="48.66279" lon="-2.34817">
        <ele>21</ele>
        <time>2020-06-24T08:17:13.118Z</time>
      </trkpt>
      <trkpt lat="48.6628" lon="-2.34816">
        <ele>21</ele>
        <time>2020-06-24T08:17:14.118Z</time>
      </trkpt>
      <trkpt lat="48.66281" lon="-2.34815">
        <ele>21</ele>
        <time>2020-06-24T08:17:15.118Z</time>
      </trkpt>
      <trkpt lat="48.66282" lon="-2.34814">
        <ele>21</ele>
        <time>2020-06-24T08:17:16.118Z</time>
      </trkpt>
      <trkpt lat="48.66283" lon="-2.34813">
        <ele>21</ele>
        <time>2020-06-24T08:17:17.118Z</time>
      </trkpt>
      <trkpt lat="48.66284" lon="-2.34813">
        <ele>21</ele>
        <time>2020-06-24T08:17:18.118Z</time>
      </trkpt>
      <trkpt lat="48.66285" lon="-2.34812">
        <ele>21</ele>
        <time>2020-06-24T08:17:19.118Z</time>
      </trkpt>
      <trkpt lat="48.66286" lon="-2.34811">
        <ele>21</ele>
        <time>2020-06-24T08:17:20.118Z</time>
      </trkpt>
      <trkpt lat="48.66287" lon="-2.3481">
        <ele>22</ele>
        <time>2020-06-24T08:17:21.118Z</time>
      </trkpt>
      <trkpt lat="48.66288" lon="-2.34809">
        <ele>22</ele>
        <time>2020-06-24T08:17:22.118Z</time>
      </trkpt>
      <trkpt lat="48.66289" lon="-2.34808">
        <ele>22</ele>
        <time>2020-06-24T08:17:23.118Z</time>
      </trkpt>
      <trkpt lat="48.6629" lon="-2.34807">
        <ele>22</ele>
        <time>2020-06-24T08:17:24.118Z</time>
      </trkpt>
      <trkpt lat="48.66291" lon="-2.34806">
        <ele>22</ele>
        <time>2020-06-24T08:17:25.118Z</time>
      </trkpt>
      <trkpt lat="48.66292" lon="-2.34805">
        <ele>22</ele>
        <time>2020-06-24T08:17:26.118Z</time>
      </trkpt>
      <trkpt lat="48.66293" lon="-2.34804">
        <ele>22</ele>
        <time>2020-06-24T08:17:27.118Z</time>
      </trkpt>
      <trkpt lat="48.66294" lon="-2.34802">
        <ele>22</ele>
        <time>2020-06-24T08:17:28.118Z</time>
      </trkpt>
      <trkpt lat="48.66295" lon="-2.34801">
        <ele>22</ele>
        <time>2020-06-24T08:17:29.118Z</time>
      </trkpt>
      <trkpt lat="48.66296" lon="-2.348">
        <ele>22</ele>
        <time>2020-06-24T08:17:30.118Z</time>
      </trkpt>
      <trkpt lat="48.66297" lon="-2.34798">
        <ele>22</ele>
        <time>2020-06-24T08:17:31.118Z</time>
      </trkpt>
      <trkpt lat="48.66298" lon="-2.34797">
        <ele>23</ele>
        <time>2020-06-24T08:17:32.118Z</time>
      </trkpt>
      <trkpt lat="48.66299" lon="-2.34796">
        <ele>23</ele>
        <time>2020-06-24T08:17:33.118Z</time>
      </trkpt>
      <trkpt lat="48.663" lon="-2.34795">
        <ele>23</ele>
        <time>2020-06-24T08:17:34.118Z</time>
      </trkpt>
      <trkpt lat="48.66301" lon="-2.34793">
        <ele>23</ele>
        <time>2020-06-24T08:17:35.118Z</time>
      </trkpt>
      <trkpt lat="48.66302" lon="-2.34792">
        <ele>23</ele>
        <time>2020-06-24T08:17:36.118Z</time>
      </trkpt>
      <trkpt lat="48.66303" lon="-2.34791">
        <ele>23</ele>
        <time>2020-06-24T08:17:37.118Z</time>
      </trkpt>
      <trkpt lat="48.66304" lon="-2.34789">
        <ele>23</ele>
        <time>2020-06-24T08:17:38.118Z</time>
      </trkpt>
      <trkpt lat="48.66305" lon="-2.34788">
        <ele>23</ele>
        <time>2020-06-24T08:17:39.118Z</time>
      </trkpt>
      <trkpt lat="48.66306" lon="-2.34787">
        <ele>24</ele>
        <time>2020-06-24T08:17:40.118Z</time>
      </trkpt>
      <trkpt lat="48.66307" lon="-2.34786">
        <ele>23</ele>
        <time>2020-06-24T08:17:41.118Z</time>
      </trkpt>
      <trkpt lat="48.66308" lon="-2.34784">
        <ele>24</ele>
        <time>2020-06-24T08:17:42.118Z</time>
      </trkpt>
      <trkpt lat="48.66309" lon="-2.34783">
        <ele>24</ele>
        <time>2020-06-24T08:17:43.118Z</time>
      </trkpt>
      <trkpt lat="48.6631" lon="-2.34782">
        <ele>24</ele>
        <time>2020-06-24T08:17:44.118Z</time>
      </trkpt>
      <trkpt lat="48.66311" lon="-2.34781">
        <ele>24</ele>
        <time>2020-06-24T08:17:45.118Z</time>
      </trkpt>
      <trkpt lat="48.66312" lon="-2.34779">
        <ele>24</ele>
        <time>2020-06-24T08:17:46.118Z</time>
      </trkpt>
      <trkpt lat="48.66313" lon="-2.34778">
        <ele>24</ele>
        <time>2020-06-24T08:17:47.118Z</time>
      </trkpt>
      <trkpt lat="48.66313" lon="-2.34776">
        <ele>24</ele>
        <time>2020-06-24T08:17:48.118Z</time>
      </trkpt>
      <trkpt lat="48.66314" lon="-2.34774">
        <ele>24</ele>
        <time>2020-06-24T08:17:49.118Z</time>
      </trkpt>
      <trkpt lat="48.66315" lon="-2.34773">
        <ele>24</ele>
        <time>2020-06-24T08:17:50.118Z</time>
      </trkpt>
      <trkpt lat="48.66316" lon="-2.34771">
        <ele>24</ele>
        <time>2020-06-24T08:17:51.118Z</time>
      </trkpt>
      <trkpt lat="48.66316" lon="-2.3477">
        <ele>24</ele>
        <time>2020-06-24T08:17:52.118Z</time>
      </trkpt>
      <trkpt lat="48.66317" lon="-2.34769">
        <ele>24</ele>
        <time>2020-06-24T08:17:53.118Z</time>
      </trkpt>
      <trkpt lat="48.66318" lon="-2.34767">
        <ele>24</ele>
        <time>2020-06-24T08:17:54.118Z</time>
      </trkpt>
      <trkpt lat="48.66318" lon="-2.34766">
        <ele>24</ele>
        <time>2020-06-24T08:17:55.118Z</time>
      </trkpt>
      <trkpt lat="48.66319" lon="-2.34764">
        <ele>24</ele>
        <time>2020-06-24T08:17:56.118Z</time>
      </trkpt>
      <trkpt lat="48.6632" lon="-2.34763">
        <ele>24</ele>
        <time>2020-06-24T08:17:57.118Z</time>
      </trkpt>
      <trkpt lat="48.6632" lon="-2.34761">
        <ele>25</ele>
        <time>2020-06-24T08:17:58.118Z</time>
      </trkpt>
      <trkpt lat="48.66321" lon="-2.3476">
        <ele>25</ele>
        <time>2020-06-24T08:17:59.118Z</time>
      </trkpt>
      <trkpt lat="48.66322" lon="-2.34758">
        <ele>25</ele>
        <time>2020-06-24T08:18:00.118Z</time>
      </trkpt>
      <trkpt lat="48.66322" lon="-2.34756">
        <ele>25</ele>
        <time>2020-06-24T08:18:01.118Z</time>
      </trkpt>
      <trkpt lat="48.66323" lon="-2.34754">
        <ele>24</ele>
        <time>2020-06-24T08:18:02.118Z</time>
      </trkpt>
      <trkpt lat="48.66323" lon="-2.34752">
        <ele>24</ele>
        <time>2020-06-24T08:18:03.118Z</time>
      </trkpt>
      <trkpt lat="48.66324" lon="-2.34751">
        <ele>24</ele>
        <time>2020-06-24T08:18:04.118Z</time>
      </trkpt>
      <trkpt lat="48.66325" lon="-2.34749">
        <ele>25</ele>
        <time>2020-06-24T08:18:05.118Z</time>
      </trkpt>
      <trkpt lat="48.66325" lon="-2.34747">
        <ele>25</ele>
        <time>2020-06-24T08:18:06.118Z</time>
      </trkpt>
      <trkpt lat="48.66326" lon="-2.34746">
        <ele>25</ele>
        <time>2020-06-24T08:18:07.118Z</time>
      </trkpt>
      <trkpt lat="48.66326" lon="-2.34744">
        <ele>25</ele>
        <time>2020-06-24T08:18:08.118Z</time>
      </trkpt>
      <trkpt lat="48.66327" lon="-2.34742">
        <ele>25</ele>
        <time>2020-06-24T08:18:09.118Z</time>
      </trkpt>
      <trkpt lat="48.66327" lon="-2.34741">
        <ele>25</ele>
        <time>2020-06-24T08:18:10.118Z</time>
      </trkpt>
      <trkpt lat="48.66328" lon="-2.34739">
        <ele>25</ele>
        <time>2020-06-24T08:18:11.118Z</time>
      </trkpt>
      <trkpt lat="48.66328" lon="-2.34737">
        <ele>25</ele>
        <time>2020-06-24T08:18:12.118Z</time>
      </trkpt>
      <trkpt lat="48.66329" lon="-2.34735">
        <ele>25</ele>
        <time>2020-06-24T08:18:13.118Z</time>
      </trkpt>
      <trkpt lat="48.66329" lon="-2.34733">
        <ele>25</ele>
        <time>2020-06-24T08:18:14.118Z</time>
      </trkpt>
      <trkpt lat="48.6633" lon="-2.34731">
        <ele>26</ele>
        <time>2020-06-24T08:18:15.118Z</time>
      </trkpt>
      <trkpt lat="48.6633" lon="-2.3473">
        <ele>26</ele>
        <time>2020-06-24T08:18:16.118Z</time>
      </trkpt>
      <trkpt lat="48.66331" lon="-2.34728">
        <ele>26</ele>
        <time>2020-06-24T08:18:17.118Z</time>
      </trkpt>
      <trkpt lat="48.66331" lon="-2.34726">
        <ele>26</ele>
        <time>2020-06-24T08:18:18.118Z</time>
      </trkpt>
      <trkpt lat="48.66331" lon="-2.34724">
        <ele>26</ele>
        <time>2020-06-24T08:18:19.118Z</time>
      </trkpt>
      <trkpt lat="48.66332" lon="-2.34722">
        <ele>26</ele>
        <time>2020-06-24T08:18:20.118Z</time>
      </trkpt>
      <trkpt lat="48.66332" lon="-2.3472">
        <ele>26</ele>
        <time>2020-06-24T08:18:21.118Z</time>
      </trkpt>
      <trkpt lat="48.66333" lon="-2.34719">
        <ele>27</ele>
        <time>2020-06-24T08:18:22.118Z</time>
      </trkpt>
      <trkpt lat="48.66333" lon="-2.34717">
        <ele>27</ele>
        <time>2020-06-24T08:18:23.118Z</time>
      </trkpt>
      <trkpt lat="48.66333" lon="-2.34715">
        <ele>27</ele>
        <time>2020-06-24T08:18:24.118Z</time>
      </trkpt>
      <trkpt lat="48.66334" lon="-2.34713">
        <ele>27</ele>
        <time>2020-06-24T08:18:25.118Z</time>
      </trkpt>
      <trkpt lat="48.66334" lon="-2.34711">
        <ele>27</ele>
        <time>2020-06-24T08:18:26.118Z</time>
      </trkpt>
      <trkpt lat="48.66335" lon="-2.34709">
        <ele>27</ele>
        <time>2020-06-24T08:18:27.118Z</time>
      </trkpt>
      <trkpt lat="48.66335" lon="-2.34708">
        <ele>27</ele>
        <time>2020-06-24T08:18:28.118Z</time>
      </trkpt>
      <trkpt lat="48.66335" lon="-2.34706">
        <ele>27</ele>
        <time>2020-06-24T08:18:29.118Z</time>
      </trkpt>
      <trkpt lat="48.66336" lon="-2.34705">
        <ele>27</ele>
        <time>2020-06-24T08:18:30.118Z</time>
      </trkpt>
      <trkpt lat="48.66336" lon="-2.34703">
        <ele>27</ele>
        <time>2020-06-24T08:18:31.118Z</time>
      </trkpt>
      <trkpt lat="48.66337" lon="-2.34701">
        <ele>28</ele>
        <time>2020-06-24T08:18:32.118Z</time>
      </trkpt>
      <trkpt lat="48.66337" lon="-2.34699">
        <ele>27</ele>
        <time>2020-06-24T08:18:33.118Z</time>
      </trkpt>
      <trkpt lat="48.66338" lon="-2.34697">
        <ele>28</ele>
        <time>2020-06-24T08:18:34.118Z</time>
      </trkpt>
      <trkpt lat="48.66338" lon="-2.34695">
        <ele>28</ele>
        <time>2020-06-24T08:18:35.118Z</time>
      </trkpt>
      <trkpt lat="48.66338" lon="-2.34693">
        <ele>28</ele>
        <time>2020-06-24T08:18:36.118Z</time>
      </trkpt>
      <trkpt lat="48.66338" lon="-2.34691">
        <ele>28</ele>
        <time>2020-06-24T08:18:37.118Z</time>
      </trkpt>
      <trkpt lat="48.66338" lon="-2.34688">
        <ele>28</ele>
        <time>2020-06-24T08:18:38.118Z</time>
      </trkpt>
      <trkpt lat="48.66339" lon="-2.34686">
        <ele>28</ele>
        <time>2020-06-24T08:18:39.118Z</time>
      </trkpt>
      <trkpt lat="48.66339" lon="-2.34684">
        <ele>28</ele>
        <time>2020-06-24T08:18:40.118Z</time>
      </trkpt>
      <trkpt lat="48.66339" lon="-2.34682">
        <ele>28</ele>
        <time>2020-06-24T08:18:41.118Z</time>
      </trkpt>
      <trkpt lat="48.66339" lon="-2.3468">
        <ele>28</ele>
        <time>2020-06-24T08:18:42.118Z</time>
      </trkpt>
      <trkpt lat="48.6634" lon="-2.34678">
        <ele>28</ele>
        <time>2020-06-24T08:18:43.118Z</time>
      </trkpt>
      <trkpt lat="48.6634" lon="-2.34676">
        <ele>28</ele>
        <time>2020-06-24T08:18:44.118Z</time>
      </trkpt>
      <trkpt lat="48.6634" lon="-2.34675">
        <ele>28</ele>
        <time>2020-06-24T08:18:45.118Z</time>
      </trkpt>
      <trkpt lat="48.6634" lon="-2.34673">
        <ele>28</ele>
        <time>2020-06-24T08:18:46.118Z</time>
      </trkpt>
      <trkpt lat="48.6634" lon="-2.34671">
        <ele>28</ele>
        <time>2020-06-24T08:18:47.118Z</time>
      </trkpt>
      <trkpt lat="48.6634" lon="-2.34669">
        <ele>29</ele>
        <time>2020-06-24T08:18:48.118Z</time>
      </trkpt>
      <trkpt lat="48.66341" lon="-2.34668">
        <ele>29</ele>
        <time>2020-06-24T08:18:49.118Z</time>
      </trkpt>
      <trkpt lat="48.66341" lon="-2.34666">
        <ele>29</ele>
        <time>2020-06-24T08:18:50.118Z</time>
      </trkpt>
      <trkpt lat="48.66341" lon="-2.34664">
        <ele>29</ele>
        <time>2020-06-24T08:18:51.118Z</time>
      </trkpt>
      <trkpt lat="48.66341" lon="-2.34662">
        <ele>29</ele>
        <time>2020-06-24T08:18:52.118Z</time>
      </trkpt>
      <trkpt lat="48.66341" lon="-2.3466">
        <ele>29</ele>
        <time>2020-06-24T08:18:53.118Z</time>
      </trkpt>
      <trkpt lat="48.66341" lon="-2.34658">
        <ele>29</ele>
        <time>2020-06-24T08:18:54.118Z</time>
      </trkpt>
      <trkpt lat="48.66341" lon="-2.34656">
        <ele>29</ele>
        <time>2020-06-24T08:18:55.118Z</time>
      </trkpt>
      <trkpt lat="48.66341" lon="-2.34654">
        <ele>30</ele>
        <time>2020-06-24T08:18:56.118Z</time>
      </trkpt>
      <trkpt lat="48.66341" lon="-2.34652">
        <ele>30</ele>
        <time>2020-06-24T08:18:57.118Z</time>
      </trkpt>
      <trkpt lat="48.66341" lon="-2.34651">
        <ele>30</ele>
        <time>2020-06-24T08:18:58.118Z</time>
      </trkpt>
      <trkpt lat="48.66341" lon="-2.34649">
        <ele>30</ele>
        <time>2020-06-24T08:18:59.118Z</time>
      </trkpt>
      <trkpt lat="48.6634" lon="-2.34647">
        <ele>30</ele>
        <time>2020-06-24T08:19:00.118Z</time>
      </trkpt>
      <trkpt lat="48.6634" lon="-2.34645">
        <ele>30</ele>
        <time>2020-06-24T08:19:01.118Z</time>
      </trkpt>
      <trkpt lat="48.6634" lon="-2.34643">
        <ele>30</ele>
        <time>2020-06-24T08:19:02.118Z</time>
      </trkpt>
      <trkpt lat="48.6634" lon="-2.34641">
        <ele>30</ele>
        <time>2020-06-24T08:19:03.118Z</time>
      </trkpt>
      <trkpt lat="48.6634" lon="-2.34639">
        <ele>30</ele>
        <time>2020-06-24T08:19:04.118Z</time>
      </trkpt>
      <trkpt lat="48.6634" lon="-2.34637">
        <ele>30</ele>
        <time>2020-06-24T08:19:05.118Z</time>
      </trkpt>
      <trkpt lat="48.66339" lon="-2.34635">
        <ele>30</ele>
        <time>2020-06-24T08:19:06.118Z</time>
      </trkpt>
      <trkpt lat="48.66339" lon="-2.34633">
        <ele>30</ele>
        <time>2020-06-24T08:19:07.118Z</time>
      </trkpt>
      <trkpt lat="48.66339" lon="-2.34631">
        <ele>31</ele>
        <time>2020-06-24T08:19:08.118Z</time>
      </trkpt>
      <trkpt lat="48.66339" lon="-2.3463">
        <ele>30</ele>
        <time>2020-06-24T08:19:09.118Z</time>
      </trkpt>
      <trkpt lat="48.66338" lon="-2.34628">
        <ele>30</ele>
        <time>2020-06-24T08:19:10.118Z</time>
      </trkpt>
      <trkpt lat="48.66338" lon="-2.34626">
        <ele>31</ele>
        <time>2020-06-24T08:19:11.118Z</time>
      </trkpt>
      <trkpt lat="48.66338" lon="-2.34624">
        <ele>30</ele>
        <time>2020-06-24T08:19:12.118Z</time>
      </trkpt>
      <trkpt lat="48.66337" lon="-2.34622">
        <ele>30</ele>
        <time>2020-06-24T08:19:13.118Z</time>
      </trkpt>
      <trkpt lat="48.66337" lon="-2.3462">
        <ele>30</ele>
        <time>2020-06-24T08:19:14.118Z</time>
      </trkpt>
      <trkpt lat="48.66336" lon="-2.34618">
        <ele>30</ele>
        <time>2020-06-24T08:19:15.118Z</time>
      </trkpt>
      <trkpt lat="48.66336" lon="-2.34617">
        <ele>30</ele>
        <time>2020-06-24T08:19:16.118Z</time>
      </trkpt>
      <trkpt lat="48.66336" lon="-2.34615">
        <ele>31</ele>
        <time>2020-06-24T08:19:17.118Z</time>
      </trkpt>
      <trkpt lat="48.66335" lon="-2.34615">
        <ele>31</ele>
        <time>2020-06-24T08:19:18.118Z</time>
      </trkpt>
      <trkpt lat="48.66335" lon="-2.34614">
        <ele>31</ele>
        <time>2020-06-24T08:19:19.118Z</time>
      </trkpt>
      <trkpt lat="48.66335" lon="-2.34614">
        <ele>31</ele>
        <time>2020-06-24T08:19:20.118Z</time>
      </trkpt>
      <trkpt lat="48.66335" lon="-2.34614">
        <ele>31</ele>
        <time>2020-06-24T08:19:21.118Z</time>
      </trkpt>
      <trkpt lat="48.66336" lon="-2.34614">
        <ele>31</ele>
        <time>2020-06-24T08:19:22.118Z</time>
      </trkpt>
      <trkpt lat="48.66336" lon="-2.34614">
        <ele>31</ele>
        <time>2020-06-24T08:19:23.118Z</time>
      </trkpt>
      <trkpt lat="48.66336" lon="-2.34614">
        <ele>31</ele>
        <time>2020-06-24T08:19:24.118Z</time>
      </trkpt>
      <trkpt lat="48.66335" lon="-2.34611">
        <ele>32</ele>
        <time>2020-06-24T08:19:25.122Z</time>
      </trkpt>
      <trkpt lat="48.66335" lon="-2.34611">
        <ele>32</ele>
        <time>2020-06-24T08:19:26.122Z</time>
      </trkpt>
      <trkpt lat="48.66335" lon="-2.34611">
        <ele>32</ele>
        <time>2020-06-24T08:19:27.122Z</time>
      </trkpt>
      <trkpt lat="48.66335" lon="-2.34611">
        <ele>31</ele>
        <time>2020-06-24T08:19:28.122Z</time>
      </trkpt>
      <trkpt lat="48.66335" lon="-2.34611">
        <ele>31</ele>
        <time>2020-06-24T08:19:29.122Z</time>
      </trkpt>
      <trkpt lat="48.66334" lon="-2.3461">
        <ele>31</ele>
        <time>2020-06-24T08:19:30.122Z</time>
      </trkpt>
      <trkpt lat="48.66334" lon="-2.34608">
        <ele>31</ele>
        <time>2020-06-24T08:19:31.122Z</time>
      </trkpt>
      <trkpt lat="48.66334" lon="-2.34607">
        <ele>31</ele>
        <time>2020-06-24T08:19:32.122Z</time>
      </trkpt>
      <trkpt lat="48.66333" lon="-2.34605">
        <ele>31</ele>
        <time>2020-06-24T08:19:33.122Z</time>
      </trkpt>
      <trkpt lat="48.66333" lon="-2.34603">
        <ele>31</ele>
        <time>2020-06-24T08:19:34.122Z</time>
      </trkpt>
      <trkpt lat="48.66333" lon="-2.34602">
        <ele>31</ele>
        <time>2020-06-24T08:19:35.122Z</time>
      </trkpt>
      <trkpt lat="48.66332" lon="-2.346">
        <ele>31</ele>
        <time>2020-06-24T08:19:36.122Z</time>
      </trkpt>
      <trkpt lat="48.66332" lon="-2.34598">
        <ele>31</ele>
        <time>2020-06-24T08:19:37.122Z</time>
      </trkpt>
      <trkpt lat="48.66332" lon="-2.34597">
        <ele>31</ele>
        <time>2020-06-24T08:19:38.122Z</time>
      </trkpt>
      <trkpt lat="48.66331" lon="-2.34595">
        <ele>32</ele>
        <time>2020-06-24T08:19:39.122Z</time>
      </trkpt>
      <trkpt lat="48.66331" lon="-2.34593">
        <ele>31</ele>
        <time>2020-06-24T08:19:40.122Z</time>
      </trkpt>
      <trkpt lat="48.66331" lon="-2.34592">
        <ele>31</ele>
        <time>2020-06-24T08:19:41.122Z</time>
      </trkpt>
      <trkpt lat="48.6633" lon="-2.3459">
        <ele>32</ele>
        <time>2020-06-24T08:19:42.122Z</time>
      </trkpt>
      <trkpt lat="48.6633" lon="-2.34589">
        <ele>32</ele>
        <time>2020-06-24T08:19:43.122Z</time>
      </trkpt>
      <trkpt lat="48.66329" lon="-2.34587">
        <ele>32</ele>
        <time>2020-06-24T08:19:44.122Z</time>
      </trkpt>
      <trkpt lat="48.66329" lon="-2.34585">
        <ele>32</ele>
        <time>2020-06-24T08:19:45.122Z</time>
      </trkpt>
      <trkpt lat="48.66329" lon="-2.34583">
        <ele>32</ele>
        <time>2020-06-24T08:19:46.122Z</time>
      </trkpt>
      <trkpt lat="48.66329" lon="-2.34582">
        <ele>32</ele>
        <time>2020-06-24T08:19:47.122Z</time>
      </trkpt>
      <trkpt lat="48.66328" lon="-2.3458">
        <ele>32</ele>
        <time>2020-06-24T08:19:48.122Z</time>
      </trkpt>
      <trkpt lat="48.66328" lon="-2.34578">
        <ele>32</ele>
        <time>2020-06-24T08:19:49.122Z</time>
      </trkpt>
      <trkpt lat="48.66327" lon="-2.34577">
        <ele>32</ele>
        <time>2020-06-24T08:19:50.122Z</time>
      </trkpt>
      <trkpt lat="48.66327" lon="-2.34575">
        <ele>32</ele>
        <time>2020-06-24T08:19:51.122Z</time>
      </trkpt>
      <trkpt lat="48.66327" lon="-2.34573">
        <ele>32</ele>
        <time>2020-06-24T08:19:52.122Z</time>
      </trkpt>
      <trkpt lat="48.66327" lon="-2.34571">
        <ele>33</ele>
        <time>2020-06-24T08:19:53.122Z</time>
      </trkpt>
      <trkpt lat="48.66326" lon="-2.34569">
        <ele>33</ele>
        <time>2020-06-24T08:19:54.122Z</time>
      </trkpt>
      <trkpt lat="48.66326" lon="-2.34567">
        <ele>33</ele>
        <time>2020-06-24T08:19:55.122Z</time>
      </trkpt>
      <trkpt lat="48.66326" lon="-2.34565">
        <ele>33</ele>
        <time>2020-06-24T08:19:56.122Z</time>
      </trkpt>
      <trkpt lat="48.66325" lon="-2.34563">
        <ele>33</ele>
        <time>2020-06-24T08:19:57.122Z</time>
      </trkpt>
      <trkpt lat="48.66325" lon="-2.34561">
        <ele>33</ele>
        <time>2020-06-24T08:19:58.122Z</time>
      </trkpt>
      <trkpt lat="48.66324" lon="-2.34559">
        <ele>33</ele>
        <time>2020-06-24T08:19:59.122Z</time>
      </trkpt>
      <trkpt lat="48.66324" lon="-2.34557">
        <ele>33</ele>
        <time>2020-06-24T08:20:00.122Z</time>
      </trkpt>
      <trkpt lat="48.66324" lon="-2.34555">
        <ele>33</ele>
        <time>2020-06-24T08:20:01.122Z</time>
      </trkpt>
      <trkpt lat="48.66323" lon="-2.34553">
        <ele>34</ele>
        <time>2020-06-24T08:20:02.122Z</time>
      </trkpt>
      <trkpt lat="48.66323" lon="-2.34551">
        <ele>34</ele>
        <time>2020-06-24T08:20:03.122Z</time>
      </trkpt>
      <trkpt lat="48.66323" lon="-2.34549">
        <ele>34</ele>
        <time>2020-06-24T08:20:04.122Z</time>
      </trkpt>
      <trkpt lat="48.66322" lon="-2.34547">
        <ele>34</ele>
        <time>2020-06-24T08:20:05.122Z</time>
      </trkpt>
      <trkpt lat="48.66322" lon="-2.34545">
        <ele>34</ele>
        <time>2020-06-24T08:20:06.122Z</time>
      </trkpt>
      <trkpt lat="48.66322" lon="-2.34543">
        <ele>34</ele>
        <time>2020-06-24T08:20:07.122Z</time>
      </trkpt>
      <trkpt lat="48.66321" lon="-2.34542">
        <ele>34</ele>
        <time>2020-06-24T08:20:08.122Z</time>
      </trkpt>
      <trkpt lat="48.66321" lon="-2.3454">
        <ele>34</ele>
        <time>2020-06-24T08:20:09.122Z</time>
      </trkpt>
      <trkpt lat="48.66321" lon="-2.34538">
        <ele>34</ele>
        <time>2020-06-24T08:20:10.122Z</time>
      </trkpt>
      <trkpt lat="48.6632" lon="-2.34536">
        <ele>35</ele>
        <time>2020-06-24T08:20:11.122Z</time>
      </trkpt>
      <trkpt lat="48.6632" lon="-2.34534">
        <ele>35</ele>
        <time>2020-06-24T08:20:12.122Z</time>
      </trkpt>
      <trkpt lat="48.66319" lon="-2.34532">
        <ele>35</ele>
        <time>2020-06-24T08:20:13.122Z</time>
      </trkpt>
      <trkpt lat="48.66319" lon="-2.3453">
        <ele>35</ele>
        <time>2020-06-24T08:20:14.122Z</time>
      </trkpt>
      <trkpt lat="48.66319" lon="-2.34528">
        <ele>35</ele>
        <time>2020-06-24T08:20:15.122Z</time>
      </trkpt>
      <trkpt lat="48.66318" lon="-2.34526">
        <ele>35</ele>
        <time>2020-06-24T08:20:16.122Z</time>
      </trkpt>
      <trkpt lat="48.66318" lon="-2.34525">
        <ele>36</ele>
        <time>2020-06-24T08:20:17.122Z</time>
      </trkpt>
      <trkpt lat="48.66318" lon="-2.34523">
        <ele>36</ele>
        <time>2020-06-24T08:20:18.122Z</time>
      </trkpt>
      <trkpt lat="48.66317" lon="-2.34521">
        <ele>36</ele>
        <time>2020-06-24T08:20:19.122Z</time>
      </trkpt>
      <trkpt lat="48.66317" lon="-2.34519">
        <ele>36</ele>
        <time>2020-06-24T08:20:20.122Z</time>
      </trkpt>
      <trkpt lat="48.66317" lon="-2.34517">
        <ele>36</ele>
        <time>2020-06-24T08:20:21.122Z</time>
      </trkpt>
      <trkpt lat="48.66316" lon="-2.34515">
        <ele>37</ele>
        <time>2020-06-24T08:20:22.122Z</time>
      </trkpt>
      <trkpt lat="48.66316" lon="-2.34513">
        <ele>37</ele>
        <time>2020-06-24T08:20:23.122Z</time>
      </trkpt>
      <trkpt lat="48.66316" lon="-2.34511">
        <ele>37</ele>
        <time>2020-06-24T08:20:24.122Z</time>
      </trkpt>
      <trkpt lat="48.66315" lon="-2.3451">
        <ele>37</ele>
        <time>2020-06-24T08:20:25.122Z</time>
      </trkpt>
      <trkpt lat="48.66315" lon="-2.34508">
        <ele>37</ele>
        <time>2020-06-24T08:20:26.122Z</time>
      </trkpt>
      <trkpt lat="48.66315" lon="-2.34506">
        <ele>37</ele>
        <time>2020-06-24T08:20:27.122Z</time>
      </trkpt>
      <trkpt lat="48.66314" lon="-2.34504">
        <ele>37</ele>
        <time>2020-06-24T08:20:28.122Z</time>
      </trkpt>
      <trkpt lat="48.66314" lon="-2.34502">
        <ele>37</ele>
        <time>2020-06-24T08:20:29.122Z</time>
      </trkpt>
      <trkpt lat="48.66314" lon="-2.345">
        <ele>37</ele>
        <time>2020-06-24T08:20:30.122Z</time>
      </trkpt>
      <trkpt lat="48.66313" lon="-2.34498">
        <ele>38</ele>
        <time>2020-06-24T08:20:31.122Z</time>
      </trkpt>
      <trkpt lat="48.66313" lon="-2.34497">
        <ele>38</ele>
        <time>2020-06-24T08:20:32.122Z</time>
      </trkpt>
      <trkpt lat="48.66313" lon="-2.34495">
        <ele>38</ele>
        <time>2020-06-24T08:20:33.122Z</time>
      </trkpt>
      <trkpt lat="48.66312" lon="-2.34493">
        <ele>38</ele>
        <time>2020-06-24T08:20:34.122Z</time>
      </trkpt>
      <trkpt lat="48.66312" lon="-2.34491">
        <ele>38</ele>
        <time>2020-06-24T08:20:35.122Z</time>
      </trkpt>
      <trkpt lat="48.66312" lon="-2.34489">
        <ele>38</ele>
        <time>2020-06-24T08:20:36.122Z</time>
      </trkpt>
      <trkpt lat="48.66312" lon="-2.34487">
        <ele>38</ele>
        <time>2020-06-24T08:20:37.122Z</time>
      </trkpt>
      <trkpt lat="48.66311" lon="-2.34485">
        <ele>38</ele>
        <time>2020-06-24T08:20:38.122Z</time>
      </trkpt>
      <trkpt lat="48.66311" lon="-2.34483">
        <ele>39</ele>
        <time>2020-06-24T08:20:39.122Z</time>
      </trkpt>
      <trkpt lat="48.6631" lon="-2.34481">
        <ele>39</ele>
        <time>2020-06-24T08:20:40.122Z</time>
      </trkpt>
      <trkpt lat="48.6631" lon="-2.34479">
        <ele>39</ele>
        <time>2020-06-24T08:20:41.122Z</time>
      </trkpt>
      <trkpt lat="48.6631" lon="-2.34477">
        <ele>39</ele>
        <time>2020-06-24T08:20:42.122Z</time>
      </trkpt>
      <trkpt lat="48.66309" lon="-2.34475">
        <ele>39</ele>
        <time>2020-06-24T08:20:43.122Z</time>
      </trkpt>
      <trkpt lat="48.66309" lon="-2.34474">
        <ele>39</ele>
        <time>2020-06-24T08:20:44.122Z</time>
      </trkpt>
      <trkpt lat="48.66309" lon="-2.34472">
        <ele>39</ele>
        <time>2020-06-24T08:20:45.122Z</time>
      </trkpt>
      <trkpt lat="48.66308" lon="-2.3447">
        <ele>39</ele>
        <time>2020-06-24T08:20:46.122Z</time>
      </trkpt>
      <trkpt lat="48.66308" lon="-2.34468">
        <ele>39</ele>
        <time>2020-06-24T08:20:47.122Z</time>
      </trkpt>
      <trkpt lat="48.66307" lon="-2.34467">
        <ele>39</ele>
        <time>2020-06-24T08:20:48.122Z</time>
      </trkpt>
      <trkpt lat="48.66307" lon="-2.34465">
        <ele>39</ele>
        <time>2020-06-24T08:20:49.122Z</time>
      </trkpt>
      <trkpt lat="48.66307" lon="-2.34463">
        <ele>39</ele>
        <time>2020-06-24T08:20:50.122Z</time>
      </trkpt>
      <trkpt lat="48.66307" lon="-2.34461">
        <ele>39</ele>
        <time>2020-06-24T08:20:51.122Z</time>
      </trkpt>
      <trkpt lat="48.66306" lon="-2.34459">
        <ele>39</ele>
        <time>2020-06-24T08:20:52.122Z</time>
      </trkpt>
      <trkpt lat="48.66306" lon="-2.34457">
        <ele>39</ele>
        <time>2020-06-24T08:20:53.122Z</time>
      </trkpt>
      <trkpt lat="48.66306" lon="-2.34455">
        <ele>39</ele>
        <time>2020-06-24T08:20:54.122Z</time>
      </trkpt>
      <trkpt lat="48.66305" lon="-2.34453">
        <ele>39</ele>
        <time>2020-06-24T08:20:55.122Z</time>
      </trkpt>
      <trkpt lat="48.66305" lon="-2.34451">
        <ele>39</ele>
        <time>2020-06-24T08:20:56.122Z</time>
      </trkpt>
      <trkpt lat="48.66305" lon="-2.34449">
        <ele>39</ele>
        <time>2020-06-24T08:20:57.122Z</time>
      </trkpt>
      <trkpt lat="48.66305" lon="-2.34447">
        <ele>39</ele>
        <time>2020-06-24T08:20:58.122Z</time>
      </trkpt>
      <trkpt lat="48.66304" lon="-2.34445">
        <ele>39</ele>
        <time>2020-06-24T08:20:59.122Z</time>
      </trkpt>
      <trkpt lat="48.66304" lon="-2.34443">
        <ele>39</ele>
        <time>2020-06-24T08:21:00.122Z</time>
      </trkpt>
      <trkpt lat="48.66304" lon="-2.34441">
        <ele>40</ele>
        <time>2020-06-24T08:21:01.122Z</time>
      </trkpt>
      <trkpt lat="48.66304" lon="-2.34439">
        <ele>40</ele>
        <time>2020-06-24T08:21:02.122Z</time>
      </trkpt>
      <trkpt lat="48.66304" lon="-2.34437">
        <ele>40</ele>
        <time>2020-06-24T08:21:03.122Z</time>
      </trkpt>
      <trkpt lat="48.66304" lon="-2.34435">
        <ele>41</ele>
        <time>2020-06-24T08:21:04.122Z</time>
      </trkpt>
      <trkpt lat="48.66304" lon="-2.34433">
        <ele>41</ele>
        <time>2020-06-24T08:21:05.122Z</time>
      </trkpt>
      <trkpt lat="48.66303" lon="-2.34431">
        <ele>41</ele>
        <time>2020-06-24T08:21:06.122Z</time>
      </trkpt>
      <trkpt lat="48.66303" lon="-2.34429">
        <ele>41</ele>
        <time>2020-06-24T08:21:07.122Z</time>
      </trkpt>
      <trkpt lat="48.66303" lon="-2.34427">
        <ele>41</ele>
        <time>2020-06-24T08:21:08.122Z</time>
      </trkpt>
      <trkpt lat="48.66303" lon="-2.34425">
        <ele>41</ele>
        <time>2020-06-24T08:21:09.122Z</time>
      </trkpt>
      <trkpt lat="48.66303" lon="-2.34423">
        <ele>41</ele>
        <time>2020-06-24T08:21:10.122Z</time>
      </trkpt>
      <trkpt lat="48.66303" lon="-2.34421">
        <ele>41</ele>
        <time>2020-06-24T08:21:11.122Z</time>
      </trkpt>
      <trkpt lat="48.66302" lon="-2.34419">
        <ele>40</ele>
        <time>2020-06-24T08:21:12.122Z</time>
      </trkpt>
      <trkpt lat="48.66302" lon="-2.34417">
        <ele>41</ele>
        <time>2020-06-24T08:21:13.122Z</time>
      </trkpt>
      <trkpt lat="48.66302" lon="-2.34415">
        <ele>41</ele>
        <time>2020-06-24T08:21:14.122Z</time>
      </trkpt>
      <trkpt lat="48.66302" lon="-2.34413">
        <ele>41</ele>
        <time>2020-06-24T08:21:15.122Z</time>
      </trkpt>
      <trkpt lat="48.66303" lon="-2.34411">
        <ele>41</ele>
        <time>2020-06-24T08:21:16.122Z</time>
      </trkpt>
      <trkpt lat="48.66303" lon="-2.34409">
        <ele>41</ele>
        <time>2020-06-24T08:21:17.122Z</time>
      </trkpt>
      <trkpt lat="48.66303" lon="-2.34407">
        <ele>41</ele>
        <time>2020-06-24T08:21:18.122Z</time>
      </trkpt>
      <trkpt lat="48.66303" lon="-2.34405">
        <ele>41</ele>
        <time>2020-06-24T08:21:19.122Z</time>
      </trkpt>
      <trkpt lat="48.66304" lon="-2.34403">
        <ele>41</ele>
        <time>2020-06-24T08:21:20.122Z</time>
      </trkpt>
      <trkpt lat="48.66304" lon="-2.34401">
        <ele>42</ele>
        <time>2020-06-24T08:21:21.122Z</time>
      </trkpt>
      <trkpt lat="48.66304" lon="-2.34399">
        <ele>42</ele>
        <time>2020-06-24T08:21:22.122Z</time>
      </trkpt>
      <trkpt lat="48.66305" lon="-2.34397">
        <ele>42</ele>
        <time>2020-06-24T08:21:23.122Z</time>
      </trkpt>
      <trkpt lat="48.66305" lon="-2.34395">
        <ele>42</ele>
        <time>2020-06-24T08:21:24.122Z</time>
      </trkpt>
      <trkpt lat="48.66305" lon="-2.34393">
        <ele>41</ele>
        <time>2020-06-24T08:21:25.122Z</time>
      </trkpt>
      <trkpt lat="48.66306" lon="-2.34391">
        <ele>41</ele>
        <time>2020-06-24T08:21:26.122Z</time>
      </trkpt>
      <trkpt lat="48.66306" lon="-2.34389">
        <ele>41</ele>
        <time>2020-06-24T08:21:27.122Z</time>
      </trkpt>
      <trkpt lat="48.66306" lon="-2.34387">
        <ele>41</ele>
        <time>2020-06-24T08:21:28.122Z</time>
      </trkpt>
      <trkpt lat="48.66307" lon="-2.34386">
        <ele>41</ele>
        <time>2020-06-24T08:21:29.122Z</time>
      </trkpt>
      <trkpt lat="48.66307" lon="-2.34384">
        <ele>41</ele>
        <time>2020-06-24T08:21:30.122Z</time>
      </trkpt>
      <trkpt lat="48.66307" lon="-2.34382">
        <ele>41</ele>
        <time>2020-06-24T08:21:31.122Z</time>
      </trkpt>
      <trkpt lat="48.66308" lon="-2.3438">
        <ele>41</ele>
        <time>2020-06-24T08:21:32.122Z</time>
      </trkpt>
      <trkpt lat="48.66308" lon="-2.34378">
        <ele>41</ele>
        <time>2020-06-24T08:21:33.122Z</time>
      </trkpt>
      <trkpt lat="48.66308" lon="-2.34376">
        <ele>40</ele>
        <time>2020-06-24T08:21:34.122Z</time>
      </trkpt>
      <trkpt lat="48.66309" lon="-2.34375">
        <ele>41</ele>
        <time>2020-06-24T08:21:35.122Z</time>
      </trkpt>
      <trkpt lat="48.66309" lon="-2.34373">
        <ele>40</ele>
        <time>2020-06-24T08:21:36.122Z</time>
      </trkpt>
      <trkpt lat="48.66309" lon="-2.34371">
        <ele>40</ele>
        <time>2020-06-24T08:21:37.122Z</time>
      </trkpt>
      <trkpt lat="48.66309" lon="-2.3437">
        <ele>40</ele>
        <time>2020-06-24T08:21:38.122Z</time>
      </trkpt>
      <trkpt lat="48.6631" lon="-2.34368">
        <ele>40</ele>
        <time>2020-06-24T08:21:39.122Z</time>
      </trkpt>
      <trkpt lat="48.6631" lon="-2.34366">
        <ele>40</ele>
        <time>2020-06-24T08:21:40.122Z</time>
      </trkpt>
      <trkpt lat="48.66311" lon="-2.34365">
        <ele>40</ele>
        <time>2020-06-24T08:21:41.122Z</time>
      </trkpt>
      <trkpt lat="48.66311" lon="-2.34363">
        <ele>40</ele>
        <time>2020-06-24T08:21:42.122Z</time>
      </trkpt>
      <trkpt lat="48.66312" lon="-2.34362">
        <ele>41</ele>
        <time>2020-06-24T08:21:43.122Z</time>
      </trkpt>
      <trkpt lat="48.66313" lon="-2.3436">
        <ele>41</ele>
        <time>2020-06-24T08:21:44.122Z</time>
      </trkpt>
      <trkpt lat="48.66313" lon="-2.34358">
        <ele>41</ele>
        <time>2020-06-24T08:21:45.122Z</time>
      </trkpt>
      <trkpt lat="48.66314" lon="-2.34357">
        <ele>41</ele>
        <time>2020-06-24T08:21:46.122Z</time>
      </trkpt>
      <trkpt lat="48.66315" lon="-2.34355">
        <ele>41</ele>
        <time>2020-06-24T08:21:47.122Z</time>
      </trkpt>
      <trkpt lat="48.66316" lon="-2.34354">
        <ele>41</ele>
        <time>2020-06-24T08:21:48.122Z</time>
      </trkpt>
      <trkpt lat="48.66316" lon="-2.34352">
        <ele>41</ele>
        <time>2020-06-24T08:21:49.122Z</time>
      </trkpt>
      <trkpt lat="48.66317" lon="-2.34351">
        <ele>41</ele>
        <time>2020-06-24T08:21:50.122Z</time>
      </trkpt>
      <trkpt lat="48.66318" lon="-2.34349">
        <ele>41</ele>
        <time>2020-06-24T08:21:51.122Z</time>
      </trkpt>
      <trkpt lat="48.66318" lon="-2.34347">
        <ele>41</ele>
        <time>2020-06-24T08:21:52.122Z</time>
      </trkpt>
      <trkpt lat="48.66319" lon="-2.34346">
        <ele>40</ele>
        <time>2020-06-24T08:21:53.122Z</time>
      </trkpt>
      <trkpt lat="48.6632" lon="-2.34344">
        <ele>41</ele>
        <time>2020-06-24T08:21:54.122Z</time>
      </trkpt>
      <trkpt lat="48.6632" lon="-2.34343">
        <ele>41</ele>
        <time>2020-06-24T08:21:55.122Z</time>
      </trkpt>
      <trkpt lat="48.66321" lon="-2.34341">
        <ele>41</ele>
        <time>2020-06-24T08:21:56.122Z</time>
      </trkpt>
      <trkpt lat="48.66322" lon="-2.3434">
        <ele>41</ele>
        <time>2020-06-24T08:21:57.122Z</time>
      </trkpt>
      <trkpt lat="48.66323" lon="-2.34338">
        <ele>41</ele>
        <time>2020-06-24T08:21:58.122Z</time>
      </trkpt>
      <trkpt lat="48.66323" lon="-2.34337">
        <ele>41</ele>
        <time>2020-06-24T08:21:59.122Z</time>
      </trkpt>
      <trkpt lat="48.66324" lon="-2.34335">
        <ele>41</ele>
        <time>2020-06-24T08:22:00.122Z</time>
      </trkpt>
      <trkpt lat="48.66325" lon="-2.34334">
        <ele>41</ele>
        <time>2020-06-24T08:22:01.122Z</time>
      </trkpt>
      <trkpt lat="48.66326" lon="-2.34332">
        <ele>41</ele>
        <time>2020-06-24T08:22:02.122Z</time>
      </trkpt>
      <trkpt lat="48.66327" lon="-2.34331">
        <ele>41</ele>
        <time>2020-06-24T08:22:03.122Z</time>
      </trkpt>
      <trkpt lat="48.66328" lon="-2.3433">
        <ele>41</ele>
        <time>2020-06-24T08:22:04.122Z</time>
      </trkpt>
      <trkpt lat="48.66329" lon="-2.34328">
        <ele>41</ele>
        <time>2020-06-24T08:22:05.122Z</time>
      </trkpt>
      <trkpt lat="48.66329" lon="-2.34327">
        <ele>41</ele>
        <time>2020-06-24T08:22:06.122Z</time>
      </trkpt>
      <trkpt lat="48.6633" lon="-2.34326">
        <ele>41</ele>
        <time>2020-06-24T08:22:07.122Z</time>
      </trkpt>
      <trkpt lat="48.66331" lon="-2.34324">
        <ele>41</ele>
        <time>2020-06-24T08:22:08.122Z</time>
      </trkpt>
      <trkpt lat="48.66332" lon="-2.34323">
        <ele>41</ele>
        <time>2020-06-24T08:22:09.122Z</time>
      </trkpt>
      <trkpt lat="48.66333" lon="-2.34322">
        <ele>41</ele>
        <time>2020-06-24T08:22:10.122Z</time>
      </trkpt>
      <trkpt lat="48.66334" lon="-2.34321">
        <ele>41</ele>
        <time>2020-06-24T08:22:11.122Z</time>
      </trkpt>
      <trkpt lat="48.66335" lon="-2.3432">
        <ele>41</ele>
        <time>2020-06-24T08:22:12.122Z</time>
      </trkpt>
      <trkpt lat="48.66336" lon="-2.34318">
        <ele>41</ele>
        <time>2020-06-24T08:22:13.122Z</time>
      </trkpt>
      <trkpt lat="48.66337" lon="-2.34317">
        <ele>41</ele>
        <time>2020-06-24T08:22:14.122Z</time>
      </trkpt>
      <trkpt lat="48.66338" lon="-2.34316">
        <ele>42</ele>
        <time>2020-06-24T08:22:15.122Z</time>
      </trkpt>
      <trkpt lat="48.66339" lon="-2.34315">
        <ele>42</ele>
        <time>2020-06-24T08:22:16.122Z</time>
      </trkpt>
      <trkpt lat="48.6634" lon="-2.34314">
        <ele>41</ele>
        <time>2020-06-24T08:22:17.122Z</time>
      </trkpt>
      <trkpt lat="48.66341" lon="-2.34313">
        <ele>41</ele>
        <time>2020-06-24T08:22:18.122Z</time>
      </trkpt>
      <trkpt lat="48.66342" lon="-2.34312">
        <ele>41</ele>
        <time>2020-06-24T08:22:19.122Z</time>
      </trkpt>
      <trkpt lat="48.66343" lon="-2.34311">
        <ele>41</ele>
        <time>2020-06-24T08:22:20.122Z</time>
      </trkpt>
      <trkpt lat="48.66344" lon="-2.34311">
        <ele>41</ele>
        <time>2020-06-24T08:22:21.122Z</time>
      </trkpt>
      <trkpt lat="48.66345" lon="-2.3431">
        <ele>41</ele>
        <time>2020-06-24T08:22:22.122Z</time>
      </trkpt>
      <trkpt lat="48.66346" lon="-2.34309">
        <ele>41</ele>
        <time>2020-06-24T08:22:23.122Z</time>
      </trkpt>
      <trkpt lat="48.66347" lon="-2.34308">
        <ele>41</ele>
        <time>2020-06-24T08:22:24.122Z</time>
      </trkpt>
      <trkpt lat="48.66348" lon="-2.34308">
        <ele>41</ele>
        <time>2020-06-24T08:22:25.122Z</time>
      </trkpt>
      <trkpt lat="48.6635" lon="-2.34307">
        <ele>41</ele>
        <time>2020-06-24T08:22:26.122Z</time>
      </trkpt>
      <trkpt lat="48.66351" lon="-2.34306">
        <ele>41</ele>
        <time>2020-06-24T08:22:27.122Z</time>
      </trkpt>
      <trkpt lat="48.66352" lon="-2.34305">
        <ele>41</ele>
        <time>2020-06-24T08:22:28.122Z</time>
      </trkpt>
      <trkpt lat="48.66353" lon="-2.34305">
        <ele>40</ele>
        <time>2020-06-24T08:22:29.122Z</time>
      </trkpt>
      <trkpt lat="48.66354" lon="-2.34304">
        <ele>40</ele>
        <time>2020-06-24T08:22:30.122Z</time>
      </trkpt>
      <trkpt lat="48.66355" lon="-2.34303">
        <ele>40</ele>
        <time>2020-06-24T08:22:31.122Z</time>
      </trkpt>
      <trkpt lat="48.66357" lon="-2.34302">
        <ele>40</ele>
        <time>2020-06-24T08:22:32.122Z</time>
      </trkpt>
      <trkpt lat="48.66358" lon="-2.34301">
        <ele>40</ele>
        <time>2020-06-24T08:22:33.122Z</time>
      </trkpt>
      <trkpt lat="48.66359" lon="-2.34301">
        <ele>40</ele>
        <time>2020-06-24T08:22:34.122Z</time>
      </trkpt>
      <trkpt lat="48.6636" lon="-2.343">
        <ele>40</ele>
        <time>2020-06-24T08:22:35.122Z</time>
      </trkpt>
      <trkpt lat="48.66361" lon="-2.343">
        <ele>40</ele>
        <time>2020-06-24T08:22:36.122Z</time>
      </trkpt>
      <trkpt lat="48.66363" lon="-2.34299">
        <ele>40</ele>
        <time>2020-06-24T08:22:37.122Z</time>
      </trkpt>
      <trkpt lat="48.66364" lon="-2.34299">
        <ele>40</ele>
        <time>2020-06-24T08:22:38.122Z</time>
      </trkpt>
      <trkpt lat="48.66365" lon="-2.34298">
        <ele>40</ele>
        <time>2020-06-24T08:22:39.122Z</time>
      </trkpt>
      <trkpt lat="48.66366" lon="-2.34297">
        <ele>40</ele>
        <time>2020-06-24T08:22:40.122Z</time>
      </trkpt>
      <trkpt lat="48.66367" lon="-2.34297">
        <ele>40</ele>
        <time>2020-06-24T08:22:41.122Z</time>
      </trkpt>
      <trkpt lat="48.66368" lon="-2.34296">
        <ele>40</ele>
        <time>2020-06-24T08:22:42.122Z</time>
      </trkpt>
      <trkpt lat="48.6637" lon="-2.34296">
        <ele>40</ele>
        <time>2020-06-24T08:22:43.122Z</time>
      </trkpt>
      <trkpt lat="48.66371" lon="-2.34296">
        <ele>40</ele>
        <time>2020-06-24T08:22:44.122Z</time>
      </trkpt>
      <trkpt lat="48.66372" lon="-2.34295">
        <ele>40</ele>
        <time>2020-06-24T08:22:45.122Z</time>
      </trkpt>
      <trkpt lat="48.66373" lon="-2.34295">
        <ele>40</ele>
        <time>2020-06-24T08:22:46.122Z</time>
      </trkpt>
      <trkpt lat="48.66374" lon="-2.34295">
        <ele>40</ele>
        <time>2020-06-24T08:22:47.122Z</time>
      </trkpt>
      <trkpt lat="48.66375" lon="-2.34294">
        <ele>40</ele>
        <time>2020-06-24T08:22:48.122Z</time>
      </trkpt>
      <trkpt lat="48.66377" lon="-2.34294">
        <ele>40</ele>
        <time>2020-06-24T08:22:49.122Z</time>
      </trkpt>
      <trkpt lat="48.66378" lon="-2.34294">
        <ele>39</ele>
        <time>2020-06-24T08:22:50.122Z</time>
      </trkpt>
      <trkpt lat="48.66379" lon="-2.34293">
        <ele>40</ele>
        <time>2020-06-24T08:22:51.122Z</time>
      </trkpt>
      <trkpt lat="48.66381" lon="-2.34293">
        <ele>40</ele>
        <time>2020-06-24T08:22:52.122Z</time>
      </trkpt>
      <trkpt lat="48.66382" lon="-2.34293">
        <ele>40</ele>
        <time>2020-06-24T08:22:53.122Z</time>
      </trkpt>
      <trkpt lat="48.66383" lon="-2.34292">
        <ele>40</ele>
        <time>2020-06-24T08:22:54.122Z</time>
      </trkpt>
      <trkpt lat="48.66385" lon="-2.34292">
        <ele>40</ele>
        <time>2020-06-24T08:22:55.122Z</time>
      </trkpt>
      <trkpt lat="48.66386" lon="-2.34292">
        <ele>40</ele>
        <time>2020-06-24T08:22:56.122Z</time>
      </trkpt>
      <trkpt lat="48.66387" lon="-2.34292">
        <ele>40</ele>
        <time>2020-06-24T08:22:57.122Z</time>
      </trkpt>
      <trkpt lat="48.66389" lon="-2.34291">
        <ele>40</ele>
        <time>2020-06-24T08:22:58.122Z</time>
      </trkpt>
      <trkpt lat="48.6639" lon="-2.34291">
        <ele>40</ele>
        <time>2020-06-24T08:22:59.122Z</time>
      </trkpt>
      <trkpt lat="48.66391" lon="-2.3429">
        <ele>40</ele>
        <time>2020-06-24T08:23:00.122Z</time>
      </trkpt>
      <trkpt lat="48.66392" lon="-2.3429">
        <ele>40</ele>
        <time>2020-06-24T08:23:01.122Z</time>
      </trkpt>
      <trkpt lat="48.66393" lon="-2.3429">
        <ele>40</ele>
        <time>2020-06-24T08:23:02.122Z</time>
      </trkpt>
      <trkpt lat="48.66395" lon="-2.3429">
        <ele>40</ele>
        <time>2020-06-24T08:23:03.122Z</time>
      </trkpt>
      <trkpt lat="48.66396" lon="-2.3429">
        <ele>40</ele>
        <time>2020-06-24T08:23:04.122Z</time>
      </trkpt>
      <trkpt lat="48.66397" lon="-2.3429">
        <ele>41</ele>
        <time>2020-06-24T08:23:05.122Z</time>
      </trkpt>
      <trkpt lat="48.66398" lon="-2.3429">
        <ele>40</ele>
        <time>2020-06-24T08:23:06.122Z</time>
      </trkpt>
      <trkpt lat="48.664" lon="-2.3429">
        <ele>40</ele>
        <time>2020-06-24T08:23:07.122Z</time>
      </trkpt>
      <trkpt lat="48.66401" lon="-2.34289">
        <ele>40</ele>
        <time>2020-06-24T08:23:08.122Z</time>
      </trkpt>
      <trkpt lat="48.66402" lon="-2.34289">
        <ele>41</ele>
        <time>2020-06-24T08:23:09.122Z</time>
      </trkpt>
      <trkpt lat="48.66403" lon="-2.34289">
        <ele>40</ele>
        <time>2020-06-24T08:23:10.122Z</time>
      </trkpt>
      <trkpt lat="48.66405" lon="-2.34289">
        <ele>41</ele>
        <time>2020-06-24T08:23:11.122Z</time>
      </trkpt>
      <trkpt lat="48.66406" lon="-2.34289">
        <ele>40</ele>
        <time>2020-06-24T08:23:12.122Z</time>
      </trkpt>
      <trkpt lat="48.66407" lon="-2.34288">
        <ele>40</ele>
        <time>2020-06-24T08:23:13.122Z</time>
      </trkpt>
      <trkpt lat="48.66408" lon="-2.34288">
        <ele>40</ele>
        <time>2020-06-24T08:23:14.122Z</time>
      </trkpt>
      <trkpt lat="48.66409" lon="-2.34288">
        <ele>40</ele>
        <time>2020-06-24T08:23:15.122Z</time>
      </trkpt>
      <trkpt lat="48.66411" lon="-2.34288">
        <ele>40</ele>
        <time>2020-06-24T08:23:16.122Z</time>
      </trkpt>
      <trkpt lat="48.66412" lon="-2.34288">
        <ele>40</ele>
        <time>2020-06-24T08:23:17.122Z</time>
      </trkpt>
      <trkpt lat="48.66413" lon="-2.34288">
        <ele>40</ele>
        <time>2020-06-24T08:23:18.122Z</time>
      </trkpt>
      <trkpt lat="48.66414" lon="-2.34288">
        <ele>40</ele>
        <time>2020-06-24T08:23:19.122Z</time>
      </trkpt>
      <trkpt lat="48.66415" lon="-2.34288">
        <ele>40</ele>
        <time>2020-06-24T08:23:20.122Z</time>
      </trkpt>
      <trkpt lat="48.66417" lon="-2.34288">
        <ele>41</ele>
        <time>2020-06-24T08:23:21.122Z</time>
      </trkpt>
      <trkpt lat="48.66418" lon="-2.34287">
        <ele>41</ele>
        <time>2020-06-24T08:23:22.122Z</time>
      </trkpt>
      <trkpt lat="48.66419" lon="-2.34287">
        <ele>41</ele>
        <time>2020-06-24T08:23:23.122Z</time>
      </trkpt>
      <trkpt lat="48.6642" lon="-2.34287">
        <ele>41</ele>
        <time>2020-06-24T08:23:24.122Z</time>
      </trkpt>
      <trkpt lat="48.66421" lon="-2.34287">
        <ele>41</ele>
        <time>2020-06-24T08:23:25.122Z</time>
      </trkpt>
      <trkpt lat="48.66421" lon="-2.34287">
        <ele>41</ele>
        <time>2020-06-24T08:23:26.122Z</time>
      </trkpt>
      <trkpt lat="48.66421" lon="-2.34288">
        <ele>41</ele>
        <time>2020-06-24T08:23:27.122Z</time>
      </trkpt>
      <trkpt lat="48.66421" lon="-2.34288">
        <ele>41</ele>
        <time>2020-06-24T08:23:28.122Z</time>
      </trkpt>
      <trkpt lat="48.66421" lon="-2.34287">
        <ele>41</ele>
        <time>2020-06-24T08:23:29.122Z</time>
      </trkpt>
      <trkpt lat="48.66424" lon="-2.34287">
        <ele>41</ele>
        <time>2020-06-24T08:23:30.001Z</time>
      </trkpt>
      <trkpt lat="48.66424" lon="-2.34287">
        <ele>41</ele>
        <time>2020-06-24T08:23:31.001Z</time>
      </trkpt>
      <trkpt lat="48.66424" lon="-2.34287">
        <ele>41</ele>
        <time>2020-06-24T08:23:32.001Z</time>
      </trkpt>
      <trkpt lat="48.66424" lon="-2.34287">
        <ele>41</ele>
        <time>2020-06-24T08:23:33.001Z</time>
      </trkpt>
      <trkpt lat="48.66424" lon="-2.34287">
        <ele>41</ele>
        <time>2020-06-24T08:23:34.001Z</time>
      </trkpt>
      <trkpt lat="48.66424" lon="-2.34287">
        <ele>41</ele>
        <time>2020-06-24T08:23:35.001Z</time>
      </trkpt>
      <trkpt lat="48.66424" lon="-2.34287">
        <ele>41</ele>
        <time>2020-06-24T08:23:36.001Z</time>
      </trkpt>
      <trkpt lat="48.66428" lon="-2.34286">
        <ele>40</ele>
        <time>2020-06-24T08:23:37.005Z</time>
      </trkpt>
      <trkpt lat="48.66429" lon="-2.34286">
        <ele>40</ele>
        <time>2020-06-24T08:23:38.005Z</time>
      </trkpt>
      <trkpt lat="48.6643" lon="-2.34286">
        <ele>40</ele>
        <time>2020-06-24T08:23:39.005Z</time>
      </trkpt>
      <trkpt lat="48.66432" lon="-2.34286">
        <ele>40</ele>
        <time>2020-06-24T08:23:40.005Z</time>
      </trkpt>
      <trkpt lat="48.66433" lon="-2.34286">
        <ele>40</ele>
        <time>2020-06-24T08:23:41.005Z</time>
      </trkpt>
      <trkpt lat="48.66434" lon="-2.34285">
        <ele>40</ele>
        <time>2020-06-24T08:23:42.005Z</time>
      </trkpt>
      <trkpt lat="48.66435" lon="-2.34285">
        <ele>40</ele>
        <time>2020-06-24T08:23:43.005Z</time>
      </trkpt>
      <trkpt lat="48.66437" lon="-2.34285">
        <ele>40</ele>
        <time>2020-06-24T08:23:44.005Z</time>
      </trkpt>
      <trkpt lat="48.66438" lon="-2.34284">
        <ele>40</ele>
        <time>2020-06-24T08:23:45.005Z</time>
      </trkpt>
      <trkpt lat="48.66439" lon="-2.34284">
        <ele>40</ele>
        <time>2020-06-24T08:23:46.005Z</time>
      </trkpt>
      <trkpt lat="48.6644" lon="-2.34284">
        <ele>40</ele>
        <time>2020-06-24T08:23:47.005Z</time>
      </trkpt>
      <trkpt lat="48.66442" lon="-2.34284">
        <ele>40</ele>
        <time>2020-06-24T08:23:48.005Z</time>
      </trkpt>
      <trkpt lat="48.66443" lon="-2.34284">
        <ele>40</ele>
        <time>2020-06-24T08:23:49.005Z</time>
      </trkpt>
      <trkpt lat="48.66444" lon="-2.34284">
        <ele>40</ele>
        <time>2020-06-24T08:23:50.005Z</time>
      </trkpt>
      <trkpt lat="48.66445" lon="-2.34284">
        <ele>40</ele>
        <time>2020-06-24T08:23:51.005Z</time>
      </trkpt>
      <trkpt lat="48.66446" lon="-2.34284">
        <ele>40</ele>
        <time>2020-06-24T08:23:52.005Z</time>
      </trkpt>
      <trkpt lat="48.66448" lon="-2.34284">
        <ele>40</ele>
        <time>2020-06-24T08:23:53.005Z</time>
      </trkpt>
      <trkpt lat="48.66449" lon="-2.34284">
        <ele>40</ele>
        <time>2020-06-24T08:23:54.005Z</time>
      </trkpt>
      <trkpt lat="48.6645" lon="-2.34283">
        <ele>41</ele>
        <time>2020-06-24T08:23:55.005Z</time>
      </trkpt>
      <trkpt lat="48.66452" lon="-2.34283">
        <ele>41</ele>
        <time>2020-06-24T08:23:56.005Z</time>
      </trkpt>
      <trkpt lat="48.66453" lon="-2.34283">
        <ele>41</ele>
        <time>2020-06-24T08:23:57.005Z</time>
      </trkpt>
      <trkpt lat="48.66454" lon="-2.34283">
        <ele>40</ele>
        <time>2020-06-24T08:23:58.005Z</time>
      </trkpt>
      <trkpt lat="48.66455" lon="-2.34283">
        <ele>40</ele>
        <time>2020-06-24T08:23:59.005Z</time>
      </trkpt>
      <trkpt lat="48.66456" lon="-2.34283">
        <ele>40</ele>
        <time>2020-06-24T08:24:00.005Z</time>
      </trkpt>
      <trkpt lat="48.66458" lon="-2.34283">
        <ele>40</ele>
        <time>2020-06-24T08:24:01.005Z</time>
      </trkpt>
      <trkpt lat="48.66459" lon="-2.34283">
        <ele>40</ele>
        <time>2020-06-24T08:24:02.005Z</time>
      </trkpt>
      <trkpt lat="48.6646" lon="-2.34283">
        <ele>40</ele>
        <time>2020-06-24T08:24:03.005Z</time>
      </trkpt>
      <trkpt lat="48.66461" lon="-2.34283">
        <ele>40</ele>
        <time>2020-06-24T08:24:04.005Z</time>
      </trkpt>
      <trkpt lat="48.66462" lon="-2.34282">
        <ele>40</ele>
        <time>2020-06-24T08:24:05.005Z</time>
      </trkpt>
      <trkpt lat="48.66464" lon="-2.34282">
        <ele>40</ele>
        <time>2020-06-24T08:24:06.005Z</time>
      </trkpt>
      <trkpt lat="48.66465" lon="-2.34282">
        <ele>40</ele>
        <time>2020-06-24T08:24:07.005Z</time>
      </trkpt>
      <trkpt lat="48.66466" lon="-2.34282">
        <ele>40</ele>
        <time>2020-06-24T08:24:08.005Z</time>
      </trkpt>
      <trkpt lat="48.66468" lon="-2.34281">
        <ele>40</ele>
        <time>2020-06-24T08:24:09.005Z</time>
      </trkpt>
      <trkpt lat="48.66469" lon="-2.34281">
        <ele>40</ele>
        <time>2020-06-24T08:24:10.005Z</time>
      </trkpt>
      <trkpt lat="48.66471" lon="-2.34281">
        <ele>40</ele>
        <time>2020-06-24T08:24:11.005Z</time>
      </trkpt>
      <trkpt lat="48.66472" lon="-2.3428">
        <ele>40</ele>
        <time>2020-06-24T08:24:12.005Z</time>
      </trkpt>
      <trkpt lat="48.66473" lon="-2.3428">
        <ele>40</ele>
        <time>2020-06-24T08:24:13.005Z</time>
      </trkpt>
      <trkpt lat="48.66475" lon="-2.3428">
        <ele>40</ele>
        <time>2020-06-24T08:24:14.005Z</time>
      </trkpt>
      <trkpt lat="48.66476" lon="-2.3428">
        <ele>40</ele>
        <time>2020-06-24T08:24:15.005Z</time>
      </trkpt>
      <trkpt lat="48.66477" lon="-2.34279">
        <ele>40</ele>
        <time>2020-06-24T08:24:16.005Z</time>
      </trkpt>
      <trkpt lat="48.66479" lon="-2.34279">
        <ele>40</ele>
        <time>2020-06-24T08:24:17.005Z</time>
      </trkpt>
      <trkpt lat="48.6648" lon="-2.34278">
        <ele>40</ele>
        <time>2020-06-24T08:24:18.005Z</time>
      </trkpt>
      <trkpt lat="48.66481" lon="-2.34278">
        <ele>40</ele>
        <time>2020-06-24T08:24:19.005Z</time>
      </trkpt>
      <trkpt lat="48.66482" lon="-2.34278">
        <ele>40</ele>
        <time>2020-06-24T08:24:20.005Z</time>
      </trkpt>
      <trkpt lat="48.66484" lon="-2.34278">
        <ele>40</ele>
        <time>2020-06-24T08:24:21.005Z</time>
      </trkpt>
      <trkpt lat="48.66485" lon="-2.34278">
        <ele>40</ele>
        <time>2020-06-24T08:24:22.005Z</time>
      </trkpt>
      <trkpt lat="48.66486" lon="-2.34277">
        <ele>40</ele>
        <time>2020-06-24T08:24:23.005Z</time>
      </trkpt>
      <trkpt lat="48.66488" lon="-2.34277">
        <ele>40</ele>
        <time>2020-06-24T08:24:24.005Z</time>
      </trkpt>
      <trkpt lat="48.66489" lon="-2.34276">
        <ele>40</ele>
        <time>2020-06-24T08:24:25.005Z</time>
      </trkpt>
      <trkpt lat="48.66491" lon="-2.34275">
        <ele>40</ele>
        <time>2020-06-24T08:24:26.005Z</time>
      </trkpt>
      <trkpt lat="48.66492" lon="-2.34275">
        <ele>40</ele>
        <time>2020-06-24T08:24:27.005Z</time>
      </trkpt>
      <trkpt lat="48.66493" lon="-2.34274">
        <ele>40</ele>
        <time>2020-06-24T08:24:28.005Z</time>
      </trkpt>
      <trkpt lat="48.66494" lon="-2.34274">
        <ele>40</ele>
        <time>2020-06-24T08:24:29.005Z</time>
      </trkpt>
      <trkpt lat="48.66496" lon="-2.34273">
        <ele>40</ele>
        <time>2020-06-24T08:24:30.005Z</time>
      </trkpt>
      <trkpt lat="48.66497" lon="-2.34273">
        <ele>40</ele>
        <time>2020-06-24T08:24:31.005Z</time>
      </trkpt>
      <trkpt lat="48.66498" lon="-2.34272">
        <ele>40</ele>
        <time>2020-06-24T08:24:32.005Z</time>
      </trkpt>
      <trkpt lat="48.66499" lon="-2.34272">
        <ele>40</ele>
        <time>2020-06-24T08:24:33.005Z</time>
      </trkpt>
      <trkpt lat="48.66501" lon="-2.34271">
        <ele>40</ele>
        <time>2020-06-24T08:24:34.005Z</time>
      </trkpt>
      <trkpt lat="48.66502" lon="-2.34271">
        <ele>40</ele>
        <time>2020-06-24T08:24:35.005Z</time>
      </trkpt>
      <trkpt lat="48.66503" lon="-2.3427">
        <ele>40</ele>
        <time>2020-06-24T08:24:36.005Z</time>
      </trkpt>
      <trkpt lat="48.66504" lon="-2.34269">
        <ele>40</ele>
        <time>2020-06-24T08:24:37.005Z</time>
      </trkpt>
      <trkpt lat="48.66505" lon="-2.34268">
        <ele>40</ele>
        <time>2020-06-24T08:24:38.005Z</time>
      </trkpt>
      <trkpt lat="48.66506" lon="-2.34268">
        <ele>40</ele>
        <time>2020-06-24T08:24:39.005Z</time>
      </trkpt>
      <trkpt lat="48.66507" lon="-2.34267">
        <ele>40</ele>
        <time>2020-06-24T08:24:40.005Z</time>
      </trkpt>
      <trkpt lat="48.66509" lon="-2.34266">
        <ele>40</ele>
        <time>2020-06-24T08:24:41.005Z</time>
      </trkpt>
      <trkpt lat="48.6651" lon="-2.34266">
        <ele>40</ele>
        <time>2020-06-24T08:24:42.005Z</time>
      </trkpt>
      <trkpt lat="48.66511" lon="-2.34265">
        <ele>40</ele>
        <time>2020-06-24T08:24:43.005Z</time>
      </trkpt>
      <trkpt lat="48.66512" lon="-2.34264">
        <ele>40</ele>
        <time>2020-06-24T08:24:44.005Z</time>
      </trkpt>
      <trkpt lat="48.66513" lon="-2.34264">
        <ele>40</ele>
        <time>2020-06-24T08:24:45.005Z</time>
      </trkpt>
      <trkpt lat="48.66515" lon="-2.34263">
        <ele>40</ele>
        <time>2020-06-24T08:24:46.005Z</time>
      </trkpt>
      <trkpt lat="48.66516" lon="-2.34262">
        <ele>40</ele>
        <time>2020-06-24T08:24:47.005Z</time>
      </trkpt>
      <trkpt lat="48.66517" lon="-2.34261">
        <ele>40</ele>
        <time>2020-06-24T08:24:48.005Z</time>
      </trkpt>
      <trkpt lat="48.66518" lon="-2.3426">
        <ele>40</ele>
        <time>2020-06-24T08:24:49.005Z</time>
      </trkpt>
      <trkpt lat="48.66519" lon="-2.3426">
        <ele>40</ele>
        <time>2020-06-24T08:24:50.005Z</time>
      </trkpt>
      <trkpt lat="48.6652" lon="-2.34259">
        <ele>40</ele>
        <time>2020-06-24T08:24:51.005Z</time>
      </trkpt>
      <trkpt lat="48.66521" lon="-2.34258">
        <ele>40</ele>
        <time>2020-06-24T08:24:52.005Z</time>
      </trkpt>
      <trkpt lat="48.66522" lon="-2.34257">
        <ele>40</ele>
        <time>2020-06-24T08:24:53.005Z</time>
      </trkpt>
      <trkpt lat="48.66524" lon="-2.34256">
        <ele>40</ele>
        <time>2020-06-24T08:24:54.005Z</time>
      </trkpt>
      <trkpt lat="48.66525" lon="-2.34256">
        <ele>40</ele>
        <time>2020-06-24T08:24:55.005Z</time>
      </trkpt>
      <trkpt lat="48.66526" lon="-2.34255">
        <ele>40</ele>
        <time>2020-06-24T08:24:56.005Z</time>
      </trkpt>
      <trkpt lat="48.66528" lon="-2.34255">
        <ele>40</ele>
        <time>2020-06-24T08:24:57.005Z</time>
      </trkpt>
      <trkpt lat="48.66529" lon="-2.34254">
        <ele>40</ele>
        <time>2020-06-24T08:24:58.005Z</time>
      </trkpt>
      <trkpt lat="48.6653" lon="-2.34254">
        <ele>40</ele>
        <time>2020-06-24T08:24:59.005Z</time>
      </trkpt>
      <trkpt lat="48.66531" lon="-2.34253">
        <ele>40</ele>
        <time>2020-06-24T08:25:00.005Z</time>
      </trkpt>
      <trkpt lat="48.66533" lon="-2.34252">
        <ele>40</ele>
        <time>2020-06-24T08:25:01.005Z</time>
      </trkpt>
      <trkpt lat="48.66534" lon="-2.34251">
        <ele>40</ele>
        <time>2020-06-24T08:25:02.005Z</time>
      </trkpt>
      <trkpt lat="48.66535" lon="-2.3425">
        <ele>40</ele>
        <time>2020-06-24T08:25:03.005Z</time>
      </trkpt>
      <trkpt lat="48.66536" lon="-2.34249">
        <ele>40</ele>
        <time>2020-06-24T08:25:04.005Z</time>
      </trkpt>
      <trkpt lat="48.66537" lon="-2.34249">
        <ele>41</ele>
        <time>2020-06-24T08:25:05.005Z</time>
      </trkpt>
      <trkpt lat="48.66538" lon="-2.34248">
        <ele>40</ele>
        <time>2020-06-24T08:25:06.005Z</time>
      </trkpt>
      <trkpt lat="48.66538" lon="-2.34248">
        <ele>41</ele>
        <time>2020-06-24T08:25:07.005Z</time>
      </trkpt>
      <trkpt lat="48.66538" lon="-2.34248">
        <ele>41</ele>
        <time>2020-06-24T08:25:08.005Z</time>
      </trkpt>
      <trkpt lat="48.66538" lon="-2.34248">
        <ele>41</ele>
        <time>2020-06-24T08:25:09.005Z</time>
      </trkpt>
      <trkpt lat="48.66538" lon="-2.34248">
        <ele>41</ele>
        <time>2020-06-24T08:25:10.005Z</time>
      </trkpt>
      <trkpt lat="48.66538" lon="-2.34247">
        <ele>41</ele>
        <time>2020-06-24T08:25:11.005Z</time>
      </trkpt>
      <trkpt lat="48.66538" lon="-2.34247">
        <ele>41</ele>
        <time>2020-06-24T08:25:12.005Z</time>
      </trkpt>
      <trkpt lat="48.66538" lon="-2.34247">
        <ele>40</ele>
        <time>2020-06-24T08:25:13.005Z</time>
      </trkpt>
      <trkpt lat="48.66539" lon="-2.34247">
        <ele>40</ele>
        <time>2020-06-24T08:25:14.005Z</time>
      </trkpt>
      <trkpt lat="48.6654" lon="-2.34247">
        <ele>40</ele>
        <time>2020-06-24T08:25:15.005Z</time>
      </trkpt>
      <trkpt lat="48.66541" lon="-2.34246">
        <ele>40</ele>
        <time>2020-06-24T08:25:16.005Z</time>
      </trkpt>
      <trkpt lat="48.66542" lon="-2.34245">
        <ele>40</ele>
        <time>2020-06-24T08:25:17.005Z</time>
      </trkpt>
      <trkpt lat="48.66543" lon="-2.34244">
        <ele>40</ele>
        <time>2020-06-24T08:25:18.005Z</time>
      </trkpt>
      <trkpt lat="48.66544" lon="-2.34244">
        <ele>40</ele>
        <time>2020-06-24T08:25:19.005Z</time>
      </trkpt>
      <trkpt lat="48.66545" lon="-2.34243">
        <ele>40</ele>
        <time>2020-06-24T08:25:20.005Z</time>
      </trkpt>
      <trkpt lat="48.66546" lon="-2.34243">
        <ele>40</ele>
        <time>2020-06-24T08:25:21.005Z</time>
      </trkpt>
      <trkpt lat="48.66548" lon="-2.34243">
        <ele>39</ele>
        <time>2020-06-24T08:25:22.005Z</time>
      </trkpt>
      <trkpt lat="48.66549" lon="-2.34243">
        <ele>39</ele>
        <time>2020-06-24T08:25:23.005Z</time>
      </trkpt>
      <trkpt lat="48.6655" lon="-2.34243">
        <ele>39</ele>
        <time>2020-06-24T08:25:24.005Z</time>
      </trkpt>
      <trkpt lat="48.66551" lon="-2.34243">
        <ele>39</ele>
        <time>2020-06-24T08:25:25.005Z</time>
      </trkpt>
      <trkpt lat="48.66552" lon="-2.34244">
        <ele>38</ele>
        <time>2020-06-24T08:25:26.005Z</time>
      </trkpt>
      <trkpt lat="48.66553" lon="-2.34244">
        <ele>38</ele>
        <time>2020-06-24T08:25:27.005Z</time>
      </trkpt>
      <trkpt lat="48.66554" lon="-2.34245">
        <ele>38</ele>
        <time>2020-06-24T08:25:28.005Z</time>
      </trkpt>
      <trkpt lat="48.66555" lon="-2.34246">
        <ele>38</ele>
        <time>2020-06-24T08:25:29.005Z</time>
      </trkpt>
      <trkpt lat="48.66556" lon="-2.34247">
        <ele>38</ele>
        <time>2020-06-24T08:25:30.005Z</time>
      </trkpt>
      <trkpt lat="48.66557" lon="-2.34248">
        <ele>38</ele>
        <time>2020-06-24T08:25:31.005Z</time>
      </trkpt>
      <trkpt lat="48.66558" lon="-2.34249">
        <ele>38</ele>
        <time>2020-06-24T08:25:32.005Z</time>
      </trkpt>
      <trkpt lat="48.66559" lon="-2.3425">
        <ele>38</ele>
        <time>2020-06-24T08:25:33.005Z</time>
      </trkpt>
      <trkpt lat="48.66559" lon="-2.34252">
        <ele>38</ele>
        <time>2020-06-24T08:25:34.005Z</time>
      </trkpt>
      <trkpt lat="48.6656" lon="-2.34253">
        <ele>38</ele>
        <time>2020-06-24T08:25:35.005Z</time>
      </trkpt>
      <trkpt lat="48.66561" lon="-2.34255">
        <ele>38</ele>
        <time>2020-06-24T08:25:36.005Z</time>
      </trkpt>
      <trkpt lat="48.66562" lon="-2.34256">
        <ele>38</ele>
        <time>2020-06-24T08:25:37.005Z</time>
      </trkpt>
      <trkpt lat="48.66563" lon="-2.34256">
        <ele>38</ele>
        <time>2020-06-24T08:25:38.005Z</time>
      </trkpt>
      <trkpt lat="48.66564" lon="-2.34257">
        <ele>38</ele>
        <time>2020-06-24T08:25:39.005Z</time>
      </trkpt>
      <trkpt lat="48.66565" lon="-2.34256">
        <ele>38</ele>
        <time>2020-06-24T08:25:40.005Z</time>
      </trkpt>
      <trkpt lat="48.66566" lon="-2.34255">
        <ele>38</ele>
        <time>2020-06-24T08:25:41.005Z</time>
      </trkpt>
      <trkpt lat="48.66567" lon="-2.34255">
        <ele>38</ele>
        <time>2020-06-24T08:25:42.005Z</time>
      </trkpt>
      <trkpt lat="48.66568" lon="-2.34254">
        <ele>38</ele>
        <time>2020-06-24T08:25:43.005Z</time>
      </trkpt>
      <trkpt lat="48.66569" lon="-2.34253">
        <ele>38</ele>
        <time>2020-06-24T08:25:44.005Z</time>
      </trkpt>
      <trkpt lat="48.6657" lon="-2.34252">
        <ele>38</ele>
        <time>2020-06-24T08:25:45.005Z</time>
      </trkpt>
      <trkpt lat="48.66571" lon="-2.34251">
        <ele>38</ele>
        <time>2020-06-24T08:25:46.005Z</time>
      </trkpt>
      <trkpt lat="48.66572" lon="-2.34251">
        <ele>38</ele>
        <time>2020-06-24T08:25:47.005Z</time>
      </trkpt>
      <trkpt lat="48.66573" lon="-2.34251">
        <ele>38</ele>
        <time>2020-06-24T08:25:48.005Z</time>
      </trkpt>
      <trkpt lat="48.66574" lon="-2.3425">
        <ele>38</ele>
        <time>2020-06-24T08:25:49.005Z</time>
      </trkpt>
      <trkpt lat="48.66575" lon="-2.34249">
        <ele>38</ele>
        <time>2020-06-24T08:25:50.005Z</time>
      </trkpt>
      <trkpt lat="48.66577" lon="-2.34248">
        <ele>38</ele>
        <time>2020-06-24T08:25:51.005Z</time>
      </trkpt>
      <trkpt lat="48.66578" lon="-2.34248">
        <ele>39</ele>
        <time>2020-06-24T08:25:52.005Z</time>
      </trkpt>
      <trkpt lat="48.66579" lon="-2.34248">
        <ele>39</ele>
        <time>2020-06-24T08:25:53.005Z</time>
      </trkpt>
      <trkpt lat="48.6658" lon="-2.34247">
        <ele>39</ele>
        <time>2020-06-24T08:25:54.005Z</time>
      </trkpt>
      <trkpt lat="48.66581" lon="-2.34247">
        <ele>39</ele>
        <time>2020-06-24T08:25:55.005Z</time>
      </trkpt>
      <trkpt lat="48.66582" lon="-2.34247">
        <ele>39</ele>
        <time>2020-06-24T08:25:56.005Z</time>
      </trkpt>
      <trkpt lat="48.66584" lon="-2.34247">
        <ele>39</ele>
        <time>2020-06-24T08:25:57.005Z</time>
      </trkpt>
      <trkpt lat="48.66585" lon="-2.34246">
        <ele>39</ele>
        <time>2020-06-24T08:25:58.005Z</time>
      </trkpt>
      <trkpt lat="48.66586" lon="-2.34245">
        <ele>39</ele>
        <time>2020-06-24T08:25:59.005Z</time>
      </trkpt>
      <trkpt lat="48.66587" lon="-2.34245">
        <ele>39</ele>
        <time>2020-06-24T08:26:00.005Z</time>
      </trkpt>
      <trkpt lat="48.66588" lon="-2.34244">
        <ele>39</ele>
        <time>2020-06-24T08:26:01.005Z</time>
      </trkpt>
      <trkpt lat="48.66589" lon="-2.34244">
        <ele>39</ele>
        <time>2020-06-24T08:26:02.005Z</time>
      </trkpt>
      <trkpt lat="48.66589" lon="-2.34244">
        <ele>39</ele>
        <time>2020-06-24T08:26:03.005Z</time>
      </trkpt>
      <trkpt lat="48.6659" lon="-2.34244">
        <ele>39</ele>
        <time>2020-06-24T08:26:04.005Z</time>
      </trkpt>
      <trkpt lat="48.6659" lon="-2.34244">
        <ele>39</ele>
        <time>2020-06-24T08:26:05.005Z</time>
      </trkpt>
      <trkpt lat="48.6659" lon="-2.34244">
        <ele>39</ele>
        <time>2020-06-24T08:26:06.005Z</time>
      </trkpt>
      <trkpt lat="48.66589" lon="-2.34244">
        <ele>39</ele>
        <time>2020-06-24T08:26:07.005Z</time>
      </trkpt>
      <trkpt lat="48.6659" lon="-2.34245">
        <ele>39</ele>
        <time>2020-06-24T08:26:08.009Z</time>
      </trkpt>
      <trkpt lat="48.6659" lon="-2.34245">
        <ele>39</ele>
        <time>2020-06-24T08:26:09.009Z</time>
      </trkpt>
      <trkpt lat="48.6659" lon="-2.34245">
        <ele>39</ele>
        <time>2020-06-24T08:26:10.009Z</time>
      </trkpt>
      <trkpt lat="48.6659" lon="-2.34245">
        <ele>39</ele>
        <time>2020-06-24T08:26:11.009Z</time>
      </trkpt>
      <trkpt lat="48.66591" lon="-2.34245">
        <ele>39</ele>
        <time>2020-06-24T08:26:12.009Z</time>
      </trkpt>
      <trkpt lat="48.66591" lon="-2.34245">
        <ele>39</ele>
        <time>2020-06-24T08:26:13.009Z</time>
      </trkpt>
      <trkpt lat="48.66592" lon="-2.34246">
        <ele>38</ele>
        <time>2020-06-24T08:26:14.009Z</time>
      </trkpt>
      <trkpt lat="48.66593" lon="-2.34246">
        <ele>38</ele>
        <time>2020-06-24T08:26:15.009Z</time>
      </trkpt>
      <trkpt lat="48.66594" lon="-2.34247">
        <ele>38</ele>
        <time>2020-06-24T08:26:16.009Z</time>
      </trkpt>
      <trkpt lat="48.66595" lon="-2.34248">
        <ele>37</ele>
        <time>2020-06-24T08:26:17.009Z</time>
      </trkpt>
      <trkpt lat="48.66597" lon="-2.34249">
        <ele>38</ele>
        <time>2020-06-24T08:26:18.009Z</time>
      </trkpt>
      <trkpt lat="48.66598" lon="-2.34249">
        <ele>38</ele>
        <time>2020-06-24T08:26:19.009Z</time>
      </trkpt>
      <trkpt lat="48.666" lon="-2.34249">
        <ele>38</ele>
        <time>2020-06-24T08:26:20.009Z</time>
      </trkpt>
      <trkpt lat="48.66601" lon="-2.34249">
        <ele>38</ele>
        <time>2020-06-24T08:26:21.009Z</time>
      </trkpt>
      <trkpt lat="48.66602" lon="-2.34248">
        <ele>38</ele>
        <time>2020-06-24T08:26:22.009Z</time>
      </trkpt>
      <trkpt lat="48.66604" lon="-2.34247">
        <ele>38</ele>
        <time>2020-06-24T08:26:23.009Z</time>
      </trkpt>
      <trkpt lat="48.66605" lon="-2.34246">
        <ele>38</ele>
        <time>2020-06-24T08:26:24.009Z</time>
      </trkpt>
      <trkpt lat="48.66606" lon="-2.34245">
        <ele>38</ele>
        <time>2020-06-24T08:26:25.009Z</time>
      </trkpt>
      <trkpt lat="48.66607" lon="-2.34244">
        <ele>38</ele>
        <time>2020-06-24T08:26:26.009Z</time>
      </trkpt>
      <trkpt lat="48.66608" lon="-2.34243">
        <ele>38</ele>
        <time>2020-06-24T08:26:27.009Z</time>
      </trkpt>
      <trkpt lat="48.66609" lon="-2.34242">
        <ele>38</ele>
        <time>2020-06-24T08:26:28.009Z</time>
      </trkpt>
      <trkpt lat="48.6661" lon="-2.3424">
        <ele>38</ele>
        <time>2020-06-24T08:26:29.009Z</time>
      </trkpt>
      <trkpt lat="48.66611" lon="-2.34239">
        <ele>38</ele>
        <time>2020-06-24T08:26:30.009Z</time>
      </trkpt>
      <trkpt lat="48.66612" lon="-2.34239">
        <ele>38</ele>
        <time>2020-06-24T08:26:31.009Z</time>
      </trkpt>
      <trkpt lat="48.66613" lon="-2.34238">
        <ele>39</ele>
        <time>2020-06-24T08:26:32.009Z</time>
      </trkpt>
      <trkpt lat="48.66614" lon="-2.34237">
        <ele>39</ele>
        <time>2020-06-24T08:26:33.009Z</time>
      </trkpt>
      <trkpt lat="48.66615" lon="-2.34237">
        <ele>39</ele>
        <time>2020-06-24T08:26:34.009Z</time>
      </trkpt>
      <trkpt lat="48.66617" lon="-2.34236">
        <ele>39</ele>
        <time>2020-06-24T08:26:35.009Z</time>
      </trkpt>
      <trkpt lat="48.66618" lon="-2.34236">
        <ele>39</ele>
        <time>2020-06-24T08:26:36.009Z</time>
      </trkpt>
      <trkpt lat="48.66619" lon="-2.34235">
        <ele>39</ele>
        <time>2020-06-24T08:26:37.009Z</time>
      </trkpt>
      <trkpt lat="48.6662" lon="-2.34235">
        <ele>39</ele>
        <time>2020-06-24T08:26:38.009Z</time>
      </trkpt>
      <trkpt lat="48.66622" lon="-2.34235">
        <ele>39</ele>
        <time>2020-06-24T08:26:39.009Z</time>
      </trkpt>
      <trkpt lat="48.66623" lon="-2.34234">
        <ele>39</ele>
        <time>2020-06-24T08:26:40.009Z</time>
      </trkpt>
      <trkpt lat="48.66624" lon="-2.34234">
        <ele>39</ele>
        <time>2020-06-24T08:26:41.009Z</time>
      </trkpt>
      <trkpt lat="48.66626" lon="-2.34234">
        <ele>39</ele>
        <time>2020-06-24T08:26:42.009Z</time>
      </trkpt>
      <trkpt lat="48.66627" lon="-2.34233">
        <ele>40</ele>
        <time>2020-06-24T08:26:43.009Z</time>
      </trkpt>
      <trkpt lat="48.66628" lon="-2.34232">
        <ele>40</ele>
        <time>2020-06-24T08:26:44.009Z</time>
      </trkpt>
      <trkpt lat="48.6663" lon="-2.34232">
        <ele>40</ele>
        <time>2020-06-24T08:26:45.009Z</time>
      </trkpt>
      <trkpt lat="48.66631" lon="-2.34231">
        <ele>40</ele>
        <time>2020-06-24T08:26:46.009Z</time>
      </trkpt>
      <trkpt lat="48.66632" lon="-2.3423">
        <ele>40</ele>
        <time>2020-06-24T08:26:47.009Z</time>
      </trkpt>
      <trkpt lat="48.66633" lon="-2.34229">
        <ele>40</ele>
        <time>2020-06-24T08:26:48.009Z</time>
      </trkpt>
      <trkpt lat="48.66635" lon="-2.34228">
        <ele>40</ele>
        <time>2020-06-24T08:26:49.009Z</time>
      </trkpt>
      <trkpt lat="48.66636" lon="-2.34228">
        <ele>40</ele>
        <time>2020-06-24T08:26:50.009Z</time>
      </trkpt>
      <trkpt lat="48.66637" lon="-2.34227">
        <ele>40</ele>
        <time>2020-06-24T08:26:51.009Z</time>
      </trkpt>
      <trkpt lat="48.66639" lon="-2.34227">
        <ele>40</ele>
        <time>2020-06-24T08:26:52.009Z</time>
      </trkpt>
      <trkpt lat="48.6664" lon="-2.34227">
        <ele>40</ele>
        <time>2020-06-24T08:26:53.009Z</time>
      </trkpt>
      <trkpt lat="48.66641" lon="-2.34227">
        <ele>40</ele>
        <time>2020-06-24T08:26:54.009Z</time>
      </trkpt>
      <trkpt lat="48.66643" lon="-2.34227">
        <ele>40</ele>
        <time>2020-06-24T08:26:55.009Z</time>
      </trkpt>
      <trkpt lat="48.66644" lon="-2.34227">
        <ele>40</ele>
        <time>2020-06-24T08:26:56.009Z</time>
      </trkpt>
      <trkpt lat="48.66645" lon="-2.34228">
        <ele>40</ele>
        <time>2020-06-24T08:26:57.009Z</time>
      </trkpt>
      <trkpt lat="48.66647" lon="-2.34228">
        <ele>39</ele>
        <time>2020-06-24T08:26:58.009Z</time>
      </trkpt>
      <trkpt lat="48.66648" lon="-2.34228">
        <ele>39</ele>
        <time>2020-06-24T08:26:59.009Z</time>
      </trkpt>
      <trkpt lat="48.6665" lon="-2.34228">
        <ele>39</ele>
        <time>2020-06-24T08:27:00.009Z</time>
      </trkpt>
      <trkpt lat="48.66651" lon="-2.34227">
        <ele>40</ele>
        <time>2020-06-24T08:27:01.009Z</time>
      </trkpt>
      <trkpt lat="48.66653" lon="-2.34227">
        <ele>40</ele>
        <time>2020-06-24T08:27:02.009Z</time>
      </trkpt>
      <trkpt lat="48.66654" lon="-2.34227">
        <ele>40</ele>
        <time>2020-06-24T08:27:03.009Z</time>
      </trkpt>
      <trkpt lat="48.66655" lon="-2.34227">
        <ele>40</ele>
        <time>2020-06-24T08:27:04.009Z</time>
      </trkpt>
      <trkpt lat="48.66657" lon="-2.34226">
        <ele>40</ele>
        <time>2020-06-24T08:27:05.009Z</time>
      </trkpt>
      <trkpt lat="48.66658" lon="-2.34226">
        <ele>40</ele>
        <time>2020-06-24T08:27:06.009Z</time>
      </trkpt>
      <trkpt lat="48.66659" lon="-2.34226">
        <ele>40</ele>
        <time>2020-06-24T08:27:07.009Z</time>
      </trkpt>
      <trkpt lat="48.6666" lon="-2.34226">
        <ele>40</ele>
        <time>2020-06-24T08:27:08.009Z</time>
      </trkpt>
      <trkpt lat="48.66661" lon="-2.34226">
        <ele>40</ele>
        <time>2020-06-24T08:27:09.009Z</time>
      </trkpt>
      <trkpt lat="48.66662" lon="-2.34226">
        <ele>40</ele>
        <time>2020-06-24T08:27:10.009Z</time>
      </trkpt>
      <trkpt lat="48.66663" lon="-2.34226">
        <ele>40</ele>
        <time>2020-06-24T08:27:11.009Z</time>
      </trkpt>
      <trkpt lat="48.66664" lon="-2.34226">
        <ele>40</ele>
        <time>2020-06-24T08:27:12.009Z</time>
      </trkpt>
      <trkpt lat="48.66665" lon="-2.34226">
        <ele>40</ele>
        <time>2020-06-24T08:27:13.009Z</time>
      </trkpt>
      <trkpt lat="48.66666" lon="-2.34227">
        <ele>40</ele>
        <time>2020-06-24T08:27:14.009Z</time>
      </trkpt>
      <trkpt lat="48.66667" lon="-2.34227">
        <ele>40</ele>
        <time>2020-06-24T08:27:15.009Z</time>
      </trkpt>
      <trkpt lat="48.66669" lon="-2.34228">
        <ele>40</ele>
        <time>2020-06-24T08:27:16.009Z</time>
      </trkpt>
      <trkpt lat="48.6667" lon="-2.34229">
        <ele>40</ele>
        <time>2020-06-24T08:27:17.009Z</time>
      </trkpt>
      <trkpt lat="48.66671" lon="-2.34229">
        <ele>40</ele>
        <time>2020-06-24T08:27:18.009Z</time>
      </trkpt>
      <trkpt lat="48.66672" lon="-2.3423">
        <ele>40</ele>
        <time>2020-06-24T08:27:19.009Z</time>
      </trkpt>
      <trkpt lat="48.66673" lon="-2.3423">
        <ele>40</ele>
        <time>2020-06-24T08:27:20.009Z</time>
      </trkpt>
      <trkpt lat="48.66673" lon="-2.34231">
        <ele>40</ele>
        <time>2020-06-24T08:27:21.009Z</time>
      </trkpt>
      <trkpt lat="48.66674" lon="-2.34231">
        <ele>40</ele>
        <time>2020-06-24T08:27:22.009Z</time>
      </trkpt>
      <trkpt lat="48.66675" lon="-2.34232">
        <ele>41</ele>
        <time>2020-06-24T08:27:23.009Z</time>
      </trkpt>
      <trkpt lat="48.66676" lon="-2.34232">
        <ele>41</ele>
        <time>2020-06-24T08:27:24.009Z</time>
      </trkpt>
      <trkpt lat="48.66677" lon="-2.34232">
        <ele>41</ele>
        <time>2020-06-24T08:27:25.009Z</time>
      </trkpt>
      <trkpt lat="48.66678" lon="-2.34232">
        <ele>41</ele>
        <time>2020-06-24T08:27:26.009Z</time>
      </trkpt>
      <trkpt lat="48.66678" lon="-2.34232">
        <ele>41</ele>
        <time>2020-06-24T08:27:27.009Z</time>
      </trkpt>
      <trkpt lat="48.66679" lon="-2.34231">
        <ele>41</ele>
        <time>2020-06-24T08:27:28.009Z</time>
      </trkpt>
      <trkpt lat="48.6668" lon="-2.34231">
        <ele>41</ele>
        <time>2020-06-24T08:27:29.009Z</time>
      </trkpt>
      <trkpt lat="48.66681" lon="-2.34231">
        <ele>41</ele>
        <time>2020-06-24T08:27:30.009Z</time>
      </trkpt>
      <trkpt lat="48.66682" lon="-2.3423">
        <ele>41</ele>
        <time>2020-06-24T08:27:31.009Z</time>
      </trkpt>
      <trkpt lat="48.66682" lon="-2.34229">
        <ele>42</ele>
        <time>2020-06-24T08:27:32.009Z</time>
      </trkpt>
      <trkpt lat="48.66683" lon="-2.34229">
        <ele>42</ele>
        <time>2020-06-24T08:27:33.009Z</time>
      </trkpt>
      <trkpt lat="48.66684" lon="-2.34228">
        <ele>42</ele>
        <time>2020-06-24T08:27:34.009Z</time>
      </trkpt>
      <trkpt lat="48.66684" lon="-2.34228">
        <ele>42</ele>
        <time>2020-06-24T08:27:35.009Z</time>
      </trkpt>
      <trkpt lat="48.66685" lon="-2.34228">
        <ele>42</ele>
        <time>2020-06-24T08:27:36.009Z</time>
      </trkpt>
      <trkpt lat="48.66685" lon="-2.34228">
        <ele>42</ele>
        <time>2020-06-24T08:27:37.009Z</time>
      </trkpt>
      <trkpt lat="48.66685" lon="-2.34228">
        <ele>42</ele>
        <time>2020-06-24T08:27:38.009Z</time>
      </trkpt>
      <trkpt lat="48.66685" lon="-2.34228">
        <ele>42</ele>
        <time>2020-06-24T08:27:39.009Z</time>
      </trkpt>
      <trkpt lat="48.66685" lon="-2.34228">
        <ele>42</ele>
        <time>2020-06-24T08:27:40.009Z</time>
      </trkpt>
      <trkpt lat="48.66685" lon="-2.34228">
        <ele>43</ele>
        <time>2020-06-24T08:27:41.009Z</time>
      </trkpt>
      <trkpt lat="48.66687" lon="-2.34226">
        <ele>43</ele>
        <time>2020-06-24T08:27:42.013Z</time>
      </trkpt>
      <trkpt lat="48.66687" lon="-2.34226">
        <ele>43</ele>
        <time>2020-06-24T08:27:43.013Z</time>
      </trkpt>
      <trkpt lat="48.66688" lon="-2.34225">
        <ele>43</ele>
        <time>2020-06-24T08:27:44.013Z</time>
      </trkpt>
      <trkpt lat="48.66688" lon="-2.34225">
        <ele>43</ele>
        <time>2020-06-24T08:27:45.013Z</time>
      </trkpt>
      <trkpt lat="48.66688" lon="-2.34225">
        <ele>43</ele>
        <time>2020-06-24T08:27:46.013Z</time>
      </trkpt>
      <trkpt lat="48.66687" lon="-2.34225">
        <ele>43</ele>
        <time>2020-06-24T08:27:47.013Z</time>
      </trkpt>
      <trkpt lat="48.66687" lon="-2.34225">
        <ele>43</ele>
        <time>2020-06-24T08:27:48.013Z</time>
      </trkpt>
      <trkpt lat="48.66687" lon="-2.34226">
        <ele>43</ele>
        <time>2020-06-24T08:27:49.013Z</time>
      </trkpt>
      <trkpt lat="48.66687" lon="-2.34226">
        <ele>43</ele>
        <time>2020-06-24T08:27:50.013Z</time>
      </trkpt>
      <trkpt lat="48.6669" lon="-2.34221">
        <ele>43</ele>
        <time>2020-06-24T08:27:51.017Z</time>
      </trkpt>
      <trkpt lat="48.6669" lon="-2.3422">
        <ele>43</ele>
        <time>2020-06-24T08:27:52.017Z</time>
      </trkpt>
      <trkpt lat="48.66691" lon="-2.34218">
        <ele>43</ele>
        <time>2020-06-24T08:27:53.017Z</time>
      </trkpt>
      <trkpt lat="48.66692" lon="-2.34217">
        <ele>42</ele>
        <time>2020-06-24T08:27:54.017Z</time>
      </trkpt>
      <trkpt lat="48.66692" lon="-2.34215">
        <ele>43</ele>
        <time>2020-06-24T08:27:55.017Z</time>
      </trkpt>
      <trkpt lat="48.66693" lon="-2.34214">
        <ele>42</ele>
        <time>2020-06-24T08:27:56.017Z</time>
      </trkpt>
      <trkpt lat="48.66694" lon="-2.34212">
        <ele>42</ele>
        <time>2020-06-24T08:27:57.017Z</time>
      </trkpt>
      <trkpt lat="48.66695" lon="-2.34211">
        <ele>42</ele>
        <time>2020-06-24T08:27:58.017Z</time>
      </trkpt>
      <trkpt lat="48.66696" lon="-2.34209">
        <ele>42</ele>
        <time>2020-06-24T08:27:59.017Z</time>
      </trkpt>
      <trkpt lat="48.66697" lon="-2.34208">
        <ele>42</ele>
        <time>2020-06-24T08:28:00.017Z</time>
      </trkpt>
      <trkpt lat="48.66698" lon="-2.34206">
        <ele>42</ele>
        <time>2020-06-24T08:28:01.017Z</time>
      </trkpt>
      <trkpt lat="48.66699" lon="-2.34205">
        <ele>42</ele>
        <time>2020-06-24T08:28:02.017Z</time>
      </trkpt>
      <trkpt lat="48.667" lon="-2.34203">
        <ele>42</ele>
        <time>2020-06-24T08:28:03.017Z</time>
      </trkpt>
      <trkpt lat="48.66701" lon="-2.34202">
        <ele>42</ele>
        <time>2020-06-24T08:28:04.017Z</time>
      </trkpt>
      <trkpt lat="48.66701" lon="-2.342">
        <ele>42</ele>
        <time>2020-06-24T08:28:05.017Z</time>
      </trkpt>
      <trkpt lat="48.66702" lon="-2.34199">
        <ele>42</ele>
        <time>2020-06-24T08:28:06.017Z</time>
      </trkpt>
      <trkpt lat="48.66703" lon="-2.34198">
        <ele>42</ele>
        <time>2020-06-24T08:28:07.017Z</time>
      </trkpt>
      <trkpt lat="48.66704" lon="-2.34197">
        <ele>42</ele>
        <time>2020-06-24T08:28:08.017Z</time>
      </trkpt>
      <trkpt lat="48.66704" lon="-2.34195">
        <ele>42</ele>
        <time>2020-06-24T08:28:09.017Z</time>
      </trkpt>
      <trkpt lat="48.66705" lon="-2.34194">
        <ele>42</ele>
        <time>2020-06-24T08:28:10.017Z</time>
      </trkpt>
      <trkpt lat="48.66706" lon="-2.34192">
        <ele>42</ele>
        <time>2020-06-24T08:28:11.017Z</time>
      </trkpt>
      <trkpt lat="48.66706" lon="-2.34191">
        <ele>42</ele>
        <time>2020-06-24T08:28:12.017Z</time>
      </trkpt>
      <trkpt lat="48.66707" lon="-2.34189">
        <ele>42</ele>
        <time>2020-06-24T08:28:13.017Z</time>
      </trkpt>
      <trkpt lat="48.66708" lon="-2.34188">
        <ele>42</ele>
        <time>2020-06-24T08:28:14.017Z</time>
      </trkpt>
      <trkpt lat="48.66708" lon="-2.34186">
        <ele>42</ele>
        <time>2020-06-24T08:28:15.017Z</time>
      </trkpt>
      <trkpt lat="48.66709" lon="-2.34184">
        <ele>42</ele>
        <time>2020-06-24T08:28:16.017Z</time>
      </trkpt>
      <trkpt lat="48.66709" lon="-2.34183">
        <ele>42</ele>
        <time>2020-06-24T08:28:17.017Z</time>
      </trkpt>
      <trkpt lat="48.66709" lon="-2.34181">
        <ele>42</ele>
        <time>2020-06-24T08:28:18.017Z</time>
      </trkpt>
      <trkpt lat="48.66709" lon="-2.34179">
        <ele>42</ele>
        <time>2020-06-24T08:28:19.017Z</time>
      </trkpt>
      <trkpt lat="48.66709" lon="-2.34177">
        <ele>42</ele>
        <time>2020-06-24T08:28:20.017Z</time>
      </trkpt>
      <trkpt lat="48.66709" lon="-2.34176">
        <ele>42</ele>
        <time>2020-06-24T08:28:21.017Z</time>
      </trkpt>
      <trkpt lat="48.66709" lon="-2.34176">
        <ele>42</ele>
        <time>2020-06-24T08:28:22.017Z</time>
      </trkpt>
      <trkpt lat="48.66709" lon="-2.34176">
        <ele>42</ele>
        <time>2020-06-24T08:28:23.017Z</time>
      </trkpt>
      <trkpt lat="48.66709" lon="-2.34176">
        <ele>42</ele>
        <time>2020-06-24T08:28:24.017Z</time>
      </trkpt>
      <trkpt lat="48.66709" lon="-2.34176">
        <ele>41</ele>
        <time>2020-06-24T08:28:25.017Z</time>
      </trkpt>
      <trkpt lat="48.66709" lon="-2.34176">
        <ele>41</ele>
        <time>2020-06-24T08:28:26.017Z</time>
      </trkpt>
      <trkpt lat="48.66709" lon="-2.34176">
        <ele>41</ele>
        <time>2020-06-24T08:28:27.017Z</time>
      </trkpt>
      <trkpt lat="48.66709" lon="-2.34171">
        <ele>42</ele>
        <time>2020-06-24T08:28:28.025Z</time>
      </trkpt>
      <trkpt lat="48.66709" lon="-2.34169">
        <ele>41</ele>
        <time>2020-06-24T08:28:29.025Z</time>
      </trkpt>
      <trkpt lat="48.66709" lon="-2.34167">
        <ele>41</ele>
        <time>2020-06-24T08:28:30.025Z</time>
      </trkpt>
      <trkpt lat="48.66709" lon="-2.34165">
        <ele>41</ele>
        <time>2020-06-24T08:28:31.025Z</time>
      </trkpt>
      <trkpt lat="48.66709" lon="-2.34164">
        <ele>41</ele>
        <time>2020-06-24T08:28:32.025Z</time>
      </trkpt>
      <trkpt lat="48.6671" lon="-2.34162">
        <ele>41</ele>
        <time>2020-06-24T08:28:33.025Z</time>
      </trkpt>
      <trkpt lat="48.6671" lon="-2.3416">
        <ele>41</ele>
        <time>2020-06-24T08:28:34.025Z</time>
      </trkpt>
      <trkpt lat="48.6671" lon="-2.34158">
        <ele>41</ele>
        <time>2020-06-24T08:28:35.025Z</time>
      </trkpt>
      <trkpt lat="48.66711" lon="-2.34156">
        <ele>42</ele>
        <time>2020-06-24T08:28:36.025Z</time>
      </trkpt>
      <trkpt lat="48.66711" lon="-2.34154">
        <ele>42</ele>
        <time>2020-06-24T08:28:37.025Z</time>
      </trkpt>
      <trkpt lat="48.66711" lon="-2.34152">
        <ele>42</ele>
        <time>2020-06-24T08:28:38.025Z</time>
      </trkpt>
      <trkpt lat="48.66711" lon="-2.34149">
        <ele>42</ele>
        <time>2020-06-24T08:28:39.025Z</time>
      </trkpt>
      <trkpt lat="48.66711" lon="-2.34147">
        <ele>42</ele>
        <time>2020-06-24T08:28:40.025Z</time>
      </trkpt>
      <trkpt lat="48.66711" lon="-2.34145">
        <ele>42</ele>
        <time>2020-06-24T08:28:41.025Z</time>
      </trkpt>
      <trkpt lat="48.6671" lon="-2.34143">
        <ele>42</ele>
        <time>2020-06-24T08:28:42.025Z</time>
      </trkpt>
      <trkpt lat="48.6671" lon="-2.34141">
        <ele>42</ele>
        <time>2020-06-24T08:28:43.025Z</time>
      </trkpt>
      <trkpt lat="48.6671" lon="-2.34139">
        <ele>42</ele>
        <time>2020-06-24T08:28:44.025Z</time>
      </trkpt>
      <trkpt lat="48.66709" lon="-2.34137">
        <ele>42</ele>
        <time>2020-06-24T08:28:45.025Z</time>
      </trkpt>
      <trkpt lat="48.66709" lon="-2.34136">
        <ele>42</ele>
        <time>2020-06-24T08:28:46.025Z</time>
      </trkpt>
      <trkpt lat="48.66709" lon="-2.34134">
        <ele>42</ele>
        <time>2020-06-24T08:28:47.025Z</time>
      </trkpt>
      <trkpt lat="48.66708" lon="-2.34132">
        <ele>42</ele>
        <time>2020-06-24T08:28:48.025Z</time>
      </trkpt>
      <trkpt lat="48.66708" lon="-2.3413">
        <ele>42</ele>
        <time>2020-06-24T08:28:49.025Z</time>
      </trkpt>
      <trkpt lat="48.66708" lon="-2.34128">
        <ele>43</ele>
        <time>2020-06-24T08:28:50.025Z</time>
      </trkpt>
      <trkpt lat="48.66708" lon="-2.34126">
        <ele>43</ele>
        <time>2020-06-24T08:28:51.025Z</time>
      </trkpt>
      <trkpt lat="48.66708" lon="-2.34124">
        <ele>43</ele>
        <time>2020-06-24T08:28:52.025Z</time>
      </trkpt>
      <trkpt lat="48.66708" lon="-2.34122">
        <ele>43</ele>
        <time>2020-06-24T08:28:53.025Z</time>
      </trkpt>
      <trkpt lat="48.66707" lon="-2.3412">
        <ele>43</ele>
        <time>2020-06-24T08:28:54.025Z</time>
      </trkpt>
      <trkpt lat="48.66706" lon="-2.34119">
        <ele>42</ele>
        <time>2020-06-24T08:28:55.025Z</time>
      </trkpt>
      <trkpt lat="48.66705" lon="-2.34118">
        <ele>43</ele>
        <time>2020-06-24T08:28:56.025Z</time>
      </trkpt>
      <trkpt lat="48.66704" lon="-2.34116">
        <ele>42</ele>
        <time>2020-06-24T08:28:57.025Z</time>
      </trkpt>
      <trkpt lat="48.66703" lon="-2.34115">
        <ele>42</ele>
        <time>2020-06-24T08:28:58.025Z</time>
      </trkpt>
      <trkpt lat="48.66703" lon="-2.34114">
        <ele>42</ele>
        <time>2020-06-24T08:28:59.025Z</time>
      </trkpt>
      <trkpt lat="48.66702" lon="-2.34112">
        <ele>42</ele>
        <time>2020-06-24T08:29:00.025Z</time>
      </trkpt>
      <trkpt lat="48.66702" lon="-2.3411">
        <ele>42</ele>
        <time>2020-06-24T08:29:01.025Z</time>
      </trkpt>
      <trkpt lat="48.66701" lon="-2.34108">
        <ele>42</ele>
        <time>2020-06-24T08:29:02.025Z</time>
      </trkpt>
      <trkpt lat="48.667" lon="-2.34106">
        <ele>42</ele>
        <time>2020-06-24T08:29:03.025Z</time>
      </trkpt>
      <trkpt lat="48.667" lon="-2.34104">
        <ele>42</ele>
        <time>2020-06-24T08:29:04.025Z</time>
      </trkpt>
      <trkpt lat="48.66699" lon="-2.34102">
        <ele>42</ele>
        <time>2020-06-24T08:29:05.025Z</time>
      </trkpt>
      <trkpt lat="48.66699" lon="-2.34101">
        <ele>42</ele>
        <time>2020-06-24T08:29:06.025Z</time>
      </trkpt>
      <trkpt lat="48.66698" lon="-2.34099">
        <ele>42</ele>
        <time>2020-06-24T08:29:07.025Z</time>
      </trkpt>
      <trkpt lat="48.66698" lon="-2.34097">
        <ele>42</ele>
        <time>2020-06-24T08:29:08.025Z</time>
      </trkpt>
      <trkpt lat="48.66698" lon="-2.34095">
        <ele>42</ele>
        <time>2020-06-24T08:29:09.025Z</time>
      </trkpt>
      <trkpt lat="48.66698" lon="-2.34093">
        <ele>42</ele>
        <time>2020-06-24T08:29:10.025Z</time>
      </trkpt>
      <trkpt lat="48.66698" lon="-2.34091">
        <ele>42</ele>
        <time>2020-06-24T08:29:11.025Z</time>
      </trkpt>
      <trkpt lat="48.66698" lon="-2.3409">
        <ele>42</ele>
        <time>2020-06-24T08:29:12.025Z</time>
      </trkpt>
      <trkpt lat="48.66699" lon="-2.34088">
        <ele>42</ele>
        <time>2020-06-24T08:29:13.025Z</time>
      </trkpt>
      <trkpt lat="48.667" lon="-2.34087">
        <ele>42</ele>
        <time>2020-06-24T08:29:14.025Z</time>
      </trkpt>
      <trkpt lat="48.667" lon="-2.34085">
        <ele>42</ele>
        <time>2020-06-24T08:29:15.025Z</time>
      </trkpt>
      <trkpt lat="48.66701" lon="-2.34084">
        <ele>42</ele>
        <time>2020-06-24T08:29:16.025Z</time>
      </trkpt>
      <trkpt lat="48.66702" lon="-2.34082">
        <ele>42</ele>
        <time>2020-06-24T08:29:17.025Z</time>
      </trkpt>
      <trkpt lat="48.66702" lon="-2.34081">
        <ele>42</ele>
        <time>2020-06-24T08:29:18.025Z</time>
      </trkpt>
      <trkpt lat="48.66703" lon="-2.3408">
        <ele>42</ele>
        <time>2020-06-24T08:29:19.025Z</time>
      </trkpt>
      <trkpt lat="48.66704" lon="-2.34079">
        <ele>42</ele>
        <time>2020-06-24T08:29:20.025Z</time>
      </trkpt>
      <trkpt lat="48.66705" lon="-2.34078">
        <ele>42</ele>
        <time>2020-06-24T08:29:21.025Z</time>
      </trkpt>
      <trkpt lat="48.66706" lon="-2.34077">
        <ele>43</ele>
        <time>2020-06-24T08:29:22.025Z</time>
      </trkpt>
      <trkpt lat="48.66707" lon="-2.34076">
        <ele>43</ele>
        <time>2020-06-24T08:29:23.025Z</time>
      </trkpt>
      <trkpt lat="48.66709" lon="-2.34075">
        <ele>43</ele>
        <time>2020-06-24T08:29:24.025Z</time>
      </trkpt>
      <trkpt lat="48.6671" lon="-2.34075">
        <ele>43</ele>
        <time>2020-06-24T08:29:25.025Z</time>
      </trkpt>
      <trkpt lat="48.66711" lon="-2.34074">
        <ele>43</ele>
        <time>2020-06-24T08:29:26.025Z</time>
      </trkpt>
      <trkpt lat="48.66712" lon="-2.34073">
        <ele>43</ele>
        <time>2020-06-24T08:29:27.025Z</time>
      </trkpt>
      <trkpt lat="48.66714" lon="-2.34072">
        <ele>43</ele>
        <time>2020-06-24T08:29:28.025Z</time>
      </trkpt>
      <trkpt lat="48.66715" lon="-2.34071">
        <ele>43</ele>
        <time>2020-06-24T08:29:29.025Z</time>
      </trkpt>
      <trkpt lat="48.66716" lon="-2.34071">
        <ele>43</ele>
        <time>2020-06-24T08:29:30.025Z</time>
      </trkpt>
      <trkpt lat="48.66717" lon="-2.3407">
        <ele>43</ele>
        <time>2020-06-24T08:29:31.025Z</time>
      </trkpt>
      <trkpt lat="48.66719" lon="-2.34069">
        <ele>43</ele>
        <time>2020-06-24T08:29:32.025Z</time>
      </trkpt>
      <trkpt lat="48.6672" lon="-2.34068">
        <ele>43</ele>
        <time>2020-06-24T08:29:33.025Z</time>
      </trkpt>
      <trkpt lat="48.66721" lon="-2.34068">
        <ele>43</ele>
        <time>2020-06-24T08:29:34.025Z</time>
      </trkpt>
      <trkpt lat="48.66722" lon="-2.34067">
        <ele>43</ele>
        <time>2020-06-24T08:29:35.025Z</time>
      </trkpt>
      <trkpt lat="48.66723" lon="-2.34066">
        <ele>43</ele>
        <time>2020-06-24T08:29:36.025Z</time>
      </trkpt>
      <trkpt lat="48.66725" lon="-2.34066">
        <ele>43</ele>
        <time>2020-06-24T08:29:37.025Z</time>
      </trkpt>
      <trkpt lat="48.66726" lon="-2.34065">
        <ele>43</ele>
        <time>2020-06-24T08:29:38.025Z</time>
      </trkpt>
      <trkpt lat="48.66727" lon="-2.34064">
        <ele>42</ele>
        <time>2020-06-24T08:29:39.025Z</time>
      </trkpt>
      <trkpt lat="48.66728" lon="-2.34063">
        <ele>42</ele>
        <time>2020-06-24T08:29:40.025Z</time>
      </trkpt>
      <trkpt lat="48.66729" lon="-2.34063">
        <ele>42</ele>
        <time>2020-06-24T08:29:41.025Z</time>
      </trkpt>
      <trkpt lat="48.66731" lon="-2.34062">
        <ele>42</ele>
        <time>2020-06-24T08:29:42.025Z</time>
      </trkpt>
      <trkpt lat="48.66732" lon="-2.34061">
        <ele>42</ele>
        <time>2020-06-24T08:29:43.025Z</time>
      </trkpt>
      <trkpt lat="48.66733" lon="-2.3406">
        <ele>42</ele>
        <time>2020-06-24T08:29:44.025Z</time>
      </trkpt>
      <trkpt lat="48.66735" lon="-2.3406">
        <ele>42</ele>
        <time>2020-06-24T08:29:45.025Z</time>
      </trkpt>
      <trkpt lat="48.66736" lon="-2.34059">
        <ele>41</ele>
        <time>2020-06-24T08:29:46.025Z</time>
      </trkpt>
      <trkpt lat="48.66737" lon="-2.34059">
        <ele>41</ele>
        <time>2020-06-24T08:29:47.025Z</time>
      </trkpt>
      <trkpt lat="48.66739" lon="-2.34058">
        <ele>41</ele>
        <time>2020-06-24T08:29:48.025Z</time>
      </trkpt>
      <trkpt lat="48.6674" lon="-2.34058">
        <ele>41</ele>
        <time>2020-06-24T08:29:49.025Z</time>
      </trkpt>
      <trkpt lat="48.66742" lon="-2.34057">
        <ele>41</ele>
        <time>2020-06-24T08:29:50.025Z</time>
      </trkpt>
      <trkpt lat="48.66743" lon="-2.34057">
        <ele>41</ele>
        <time>2020-06-24T08:29:51.025Z</time>
      </trkpt>
      <trkpt lat="48.66744" lon="-2.34056">
        <ele>41</ele>
        <time>2020-06-24T08:29:52.025Z</time>
      </trkpt>
      <trkpt lat="48.66746" lon="-2.34056">
        <ele>41</ele>
        <time>2020-06-24T08:29:53.025Z</time>
      </trkpt>
      <trkpt lat="48.66747" lon="-2.34056">
        <ele>42</ele>
        <time>2020-06-24T08:29:54.025Z</time>
      </trkpt>
      <trkpt lat="48.66749" lon="-2.34055">
        <ele>42</ele>
        <time>2020-06-24T08:29:55.025Z</time>
      </trkpt>
      <trkpt lat="48.6675" lon="-2.34055">
        <ele>42</ele>
        <time>2020-06-24T08:29:56.025Z</time>
      </trkpt>
      <trkpt lat="48.66752" lon="-2.34054">
        <ele>42</ele>
        <time>2020-06-24T08:29:57.025Z</time>
      </trkpt>
      <trkpt lat="48.66753" lon="-2.34054">
        <ele>41</ele>
        <time>2020-06-24T08:29:58.025Z</time>
      </trkpt>
      <trkpt lat="48.66754" lon="-2.34054">
        <ele>41</ele>
        <time>2020-06-24T08:29:59.025Z</time>
      </trkpt>
      <trkpt lat="48.66756" lon="-2.34054">
        <ele>41</ele>
        <time>2020-06-24T08:30:00.025Z</time>
      </trkpt>
      <trkpt lat="48.66757" lon="-2.34054">
        <ele>41</ele>
        <time>2020-06-24T08:30:01.025Z</time>
      </trkpt>
      <trkpt lat="48.66758" lon="-2.34053">
        <ele>41</ele>
        <time>2020-06-24T08:30:02.025Z</time>
      </trkpt>
      <trkpt lat="48.66759" lon="-2.34053">
        <ele>41</ele>
        <time>2020-06-24T08:30:03.025Z</time>
      </trkpt>
      <trkpt lat="48.6676" lon="-2.34052">
        <ele>41</ele>
        <time>2020-06-24T08:30:04.025Z</time>
      </trkpt>
      <trkpt lat="48.66761" lon="-2.34051">
        <ele>42</ele>
        <time>2020-06-24T08:30:05.025Z</time>
      </trkpt>
      <trkpt lat="48.66762" lon="-2.3405">
        <ele>42</ele>
        <time>2020-06-24T08:30:06.025Z</time>
      </trkpt>
      <trkpt lat="48.66763" lon="-2.3405">
        <ele>42</ele>
        <time>2020-06-24T08:30:07.025Z</time>
      </trkpt>
      <trkpt lat="48.66763" lon="-2.3405">
        <ele>41</ele>
        <time>2020-06-24T08:30:08.025Z</time>
      </trkpt>
      <trkpt lat="48.66764" lon="-2.34049">
        <ele>42</ele>
        <time>2020-06-24T08:30:09.025Z</time>
      </trkpt>
      <trkpt lat="48.66765" lon="-2.34049">
        <ele>42</ele>
        <time>2020-06-24T08:30:10.025Z</time>
      </trkpt>
      <trkpt lat="48.66766" lon="-2.34048">
        <ele>42</ele>
        <time>2020-06-24T08:30:11.025Z</time>
      </trkpt>
      <trkpt lat="48.66768" lon="-2.34048">
        <ele>42</ele>
        <time>2020-06-24T08:30:12.025Z</time>
      </trkpt>
      <trkpt lat="48.66769" lon="-2.34047">
        <ele>42</ele>
        <time>2020-06-24T08:30:13.025Z</time>
      </trkpt>
      <trkpt lat="48.6677" lon="-2.34047">
        <ele>42</ele>
        <time>2020-06-24T08:30:14.025Z</time>
      </trkpt>
      <trkpt lat="48.66771" lon="-2.34047">
        <ele>42</ele>
        <time>2020-06-24T08:30:15.025Z</time>
      </trkpt>
      <trkpt lat="48.66773" lon="-2.34047">
        <ele>42</ele>
        <time>2020-06-24T08:30:16.025Z</time>
      </trkpt>
      <trkpt lat="48.66774" lon="-2.34047">
        <ele>43</ele>
        <time>2020-06-24T08:30:17.025Z</time>
      </trkpt>
      <trkpt lat="48.66775" lon="-2.34047">
        <ele>43</ele>
        <time>2020-06-24T08:30:18.025Z</time>
      </trkpt>
      <trkpt lat="48.66776" lon="-2.34047">
        <ele>43</ele>
        <time>2020-06-24T08:30:19.025Z</time>
      </trkpt>
      <trkpt lat="48.66778" lon="-2.34047">
        <ele>43</ele>
        <time>2020-06-24T08:30:20.025Z</time>
      </trkpt>
      <trkpt lat="48.66779" lon="-2.34046">
        <ele>43</ele>
        <time>2020-06-24T08:30:21.025Z</time>
      </trkpt>
      <trkpt lat="48.6678" lon="-2.34046">
        <ele>43</ele>
        <time>2020-06-24T08:30:22.025Z</time>
      </trkpt>
      <trkpt lat="48.66782" lon="-2.34046">
        <ele>43</ele>
        <time>2020-06-24T08:30:23.025Z</time>
      </trkpt>
      <trkpt lat="48.66783" lon="-2.34046">
        <ele>43</ele>
        <time>2020-06-24T08:30:24.025Z</time>
      </trkpt>
      <trkpt lat="48.66784" lon="-2.34046">
        <ele>43</ele>
        <time>2020-06-24T08:30:25.025Z</time>
      </trkpt>
      <trkpt lat="48.66786" lon="-2.34046">
        <ele>43</ele>
        <time>2020-06-24T08:30:26.025Z</time>
      </trkpt>
      <trkpt lat="48.66787" lon="-2.34045">
        <ele>43</ele>
        <time>2020-06-24T08:30:27.025Z</time>
      </trkpt>
      <trkpt lat="48.66789" lon="-2.34045">
        <ele>43</ele>
        <time>2020-06-24T08:30:28.025Z</time>
      </trkpt>
      <trkpt lat="48.6679" lon="-2.34045">
        <ele>43</ele>
        <time>2020-06-24T08:30:29.025Z</time>
      </trkpt>
      <trkpt lat="48.66791" lon="-2.34044">
        <ele>43</ele>
        <time>2020-06-24T08:30:30.025Z</time>
      </trkpt>
      <trkpt lat="48.66792" lon="-2.34044">
        <ele>43</ele>
        <time>2020-06-24T08:30:31.025Z</time>
      </trkpt>
      <trkpt lat="48.66793" lon="-2.34043">
        <ele>43</ele>
        <time>2020-06-24T08:30:32.025Z</time>
      </trkpt>
      <trkpt lat="48.66795" lon="-2.34042">
        <ele>43</ele>
        <time>2020-06-24T08:30:33.025Z</time>
      </trkpt>
      <trkpt lat="48.66795" lon="-2.34041">
        <ele>43</ele>
        <time>2020-06-24T08:30:34.025Z</time>
      </trkpt>
      <trkpt lat="48.66796" lon="-2.3404">
        <ele>43</ele>
        <time>2020-06-24T08:30:35.025Z</time>
      </trkpt>
      <trkpt lat="48.66797" lon="-2.34038">
        <ele>43</ele>
        <time>2020-06-24T08:30:36.025Z</time>
      </trkpt>
      <trkpt lat="48.66799" lon="-2.34037">
        <ele>43</ele>
        <time>2020-06-24T08:30:37.025Z</time>
      </trkpt>
      <trkpt lat="48.668" lon="-2.34036">
        <ele>43</ele>
        <time>2020-06-24T08:30:38.025Z</time>
      </trkpt>
      <trkpt lat="48.66801" lon="-2.34034">
        <ele>43</ele>
        <time>2020-06-24T08:30:39.025Z</time>
      </trkpt>
      <trkpt lat="48.66801" lon="-2.34033">
        <ele>43</ele>
        <time>2020-06-24T08:30:40.025Z</time>
      </trkpt>
      <trkpt lat="48.66802" lon="-2.34031">
        <ele>43</ele>
        <time>2020-06-24T08:30:41.025Z</time>
      </trkpt>
      <trkpt lat="48.66803" lon="-2.34029">
        <ele>43</ele>
        <time>2020-06-24T08:30:42.025Z</time>
      </trkpt>
      <trkpt lat="48.66804" lon="-2.34028">
        <ele>43</ele>
        <time>2020-06-24T08:30:43.025Z</time>
      </trkpt>
      <trkpt lat="48.66804" lon="-2.34026">
        <ele>44</ele>
        <time>2020-06-24T08:30:44.025Z</time>
      </trkpt>
      <trkpt lat="48.66805" lon="-2.34024">
        <ele>43</ele>
        <time>2020-06-24T08:30:45.025Z</time>
      </trkpt>
      <trkpt lat="48.66806" lon="-2.34022">
        <ele>43</ele>
        <time>2020-06-24T08:30:46.025Z</time>
      </trkpt>
      <trkpt lat="48.66806" lon="-2.34021">
        <ele>43</ele>
        <time>2020-06-24T08:30:47.025Z</time>
      </trkpt>
      <trkpt lat="48.66807" lon="-2.34019">
        <ele>43</ele>
        <time>2020-06-24T08:30:48.025Z</time>
      </trkpt>
      <trkpt lat="48.66807" lon="-2.34018">
        <ele>43</ele>
        <time>2020-06-24T08:30:49.025Z</time>
      </trkpt>
      <trkpt lat="48.66808" lon="-2.34016">
        <ele>43</ele>
        <time>2020-06-24T08:30:50.025Z</time>
      </trkpt>
      <trkpt lat="48.66808" lon="-2.34014">
        <ele>43</ele>
        <time>2020-06-24T08:30:51.025Z</time>
      </trkpt>
      <trkpt lat="48.66809" lon="-2.34012">
        <ele>43</ele>
        <time>2020-06-24T08:30:52.025Z</time>
      </trkpt>
      <trkpt lat="48.66809" lon="-2.3401">
        <ele>43</ele>
        <time>2020-06-24T08:30:53.025Z</time>
      </trkpt>
      <trkpt lat="48.6681" lon="-2.34009">
        <ele>43</ele>
        <time>2020-06-24T08:30:54.025Z</time>
      </trkpt>
      <trkpt lat="48.6681" lon="-2.34008">
        <ele>43</ele>
        <time>2020-06-24T08:30:55.025Z</time>
      </trkpt>
      <trkpt lat="48.66811" lon="-2.34006">
        <ele>43</ele>
        <time>2020-06-24T08:30:56.025Z</time>
      </trkpt>
      <trkpt lat="48.66811" lon="-2.34005">
        <ele>43</ele>
        <time>2020-06-24T08:30:57.025Z</time>
      </trkpt>
      <trkpt lat="48.66812" lon="-2.34003">
        <ele>43</ele>
        <time>2020-06-24T08:30:58.025Z</time>
      </trkpt>
      <trkpt lat="48.66812" lon="-2.34002">
        <ele>43</ele>
        <time>2020-06-24T08:30:59.025Z</time>
      </trkpt>
      <trkpt lat="48.66812" lon="-2.34001">
        <ele>43</ele>
        <time>2020-06-24T08:31:00.025Z</time>
      </trkpt>
      <trkpt lat="48.66813" lon="-2.33999">
        <ele>43</ele>
        <time>2020-06-24T08:31:01.025Z</time>
      </trkpt>
      <trkpt lat="48.66813" lon="-2.33998">
        <ele>43</ele>
        <time>2020-06-24T08:31:02.025Z</time>
      </trkpt>
      <trkpt lat="48.66813" lon="-2.33996">
        <ele>43</ele>
        <time>2020-06-24T08:31:03.025Z</time>
      </trkpt>
      <trkpt lat="48.66813" lon="-2.33994">
        <ele>43</ele>
        <time>2020-06-24T08:31:04.025Z</time>
      </trkpt>
      <trkpt lat="48.66813" lon="-2.33992">
        <ele>43</ele>
        <time>2020-06-24T08:31:05.025Z</time>
      </trkpt>
      <trkpt lat="48.66813" lon="-2.33991">
        <ele>43</ele>
        <time>2020-06-24T08:31:06.025Z</time>
      </trkpt>
      <trkpt lat="48.66813" lon="-2.33989">
        <ele>43</ele>
        <time>2020-06-24T08:31:07.025Z</time>
      </trkpt>
      <trkpt lat="48.66813" lon="-2.33987">
        <ele>43</ele>
        <time>2020-06-24T08:31:08.025Z</time>
      </trkpt>
      <trkpt lat="48.66813" lon="-2.33984">
        <ele>43</ele>
        <time>2020-06-24T08:31:09.025Z</time>
      </trkpt>
      <trkpt lat="48.66813" lon="-2.33982">
        <ele>43</ele>
        <time>2020-06-24T08:31:10.025Z</time>
      </trkpt>
      <trkpt lat="48.66813" lon="-2.3398">
        <ele>43</ele>
        <time>2020-06-24T08:31:11.025Z</time>
      </trkpt>
      <trkpt lat="48.66814" lon="-2.33978">
        <ele>43</ele>
        <time>2020-06-24T08:31:12.025Z</time>
      </trkpt>
      <trkpt lat="48.66814" lon="-2.33976">
        <ele>43</ele>
        <time>2020-06-24T08:31:13.025Z</time>
      </trkpt>
      <trkpt lat="48.66814" lon="-2.33974">
        <ele>43</ele>
        <time>2020-06-24T08:31:14.025Z</time>
      </trkpt>
      <trkpt lat="48.66814" lon="-2.33972">
        <ele>43</ele>
        <time>2020-06-24T08:31:15.025Z</time>
      </trkpt>
      <trkpt lat="48.66813" lon="-2.3397">
        <ele>43</ele>
        <time>2020-06-24T08:31:16.025Z</time>
      </trkpt>
      <trkpt lat="48.66813" lon="-2.33968">
        <ele>43</ele>
        <time>2020-06-24T08:31:17.025Z</time>
      </trkpt>
      <trkpt lat="48.66813" lon="-2.33966">
        <ele>42</ele>
        <time>2020-06-24T08:31:18.025Z</time>
      </trkpt>
      <trkpt lat="48.66813" lon="-2.33964">
        <ele>42</ele>
        <time>2020-06-24T08:31:19.025Z</time>
      </trkpt>
      <trkpt lat="48.66813" lon="-2.33961">
        <ele>42</ele>
        <time>2020-06-24T08:31:20.025Z</time>
      </trkpt>
      <trkpt lat="48.66813" lon="-2.33959">
        <ele>42</ele>
        <time>2020-06-24T08:31:21.025Z</time>
      </trkpt>
      <trkpt lat="48.66813" lon="-2.33957">
        <ele>42</ele>
        <time>2020-06-24T08:31:22.025Z</time>
      </trkpt>
      <trkpt lat="48.66813" lon="-2.33954">
        <ele>42</ele>
        <time>2020-06-24T08:31:23.025Z</time>
      </trkpt>
      <trkpt lat="48.66813" lon="-2.33952">
        <ele>42</ele>
        <time>2020-06-24T08:31:24.025Z</time>
      </trkpt>
      <trkpt lat="48.66813" lon="-2.3395">
        <ele>42</ele>
        <time>2020-06-24T08:31:25.025Z</time>
      </trkpt>
      <trkpt lat="48.66813" lon="-2.33948">
        <ele>42</ele>
        <time>2020-06-24T08:31:26.025Z</time>
      </trkpt>
      <trkpt lat="48.66814" lon="-2.33946">
        <ele>42</ele>
        <time>2020-06-24T08:31:27.025Z</time>
      </trkpt>
      <trkpt lat="48.66815" lon="-2.33945">
        <ele>42</ele>
        <time>2020-06-24T08:31:28.025Z</time>
      </trkpt>
      <trkpt lat="48.66815" lon="-2.33944">
        <ele>41</ele>
        <time>2020-06-24T08:31:29.025Z</time>
      </trkpt>
      <trkpt lat="48.66816" lon="-2.33943">
        <ele>41</ele>
        <time>2020-06-24T08:31:30.025Z</time>
      </trkpt>
      <trkpt lat="48.66817" lon="-2.33941">
        <ele>41</ele>
        <time>2020-06-24T08:31:31.025Z</time>
      </trkpt>
      <trkpt lat="48.66817" lon="-2.3394">
        <ele>41</ele>
        <time>2020-06-24T08:31:32.025Z</time>
      </trkpt>
      <trkpt lat="48.66819" lon="-2.33939">
        <ele>41</ele>
        <time>2020-06-24T08:31:33.025Z</time>
      </trkpt>
      <trkpt lat="48.6682" lon="-2.33937">
        <ele>41</ele>
        <time>2020-06-24T08:31:34.025Z</time>
      </trkpt>
      <trkpt lat="48.66821" lon="-2.33936">
        <ele>41</ele>
        <time>2020-06-24T08:31:35.025Z</time>
      </trkpt>
      <trkpt lat="48.66822" lon="-2.33935">
        <ele>41</ele>
        <time>2020-06-24T08:31:36.025Z</time>
      </trkpt>
      <trkpt lat="48.66823" lon="-2.33934">
        <ele>41</ele>
        <time>2020-06-24T08:31:37.025Z</time>
      </trkpt>
      <trkpt lat="48.66824" lon="-2.33932">
        <ele>41</ele>
        <time>2020-06-24T08:31:38.025Z</time>
      </trkpt>
      <trkpt lat="48.66825" lon="-2.33931">
        <ele>41</ele>
        <time>2020-06-24T08:31:39.025Z</time>
      </trkpt>
      <trkpt lat="48.66826" lon="-2.33929">
        <ele>41</ele>
        <time>2020-06-24T08:31:40.025Z</time>
      </trkpt>
      <trkpt lat="48.66827" lon="-2.33928">
        <ele>41</ele>
        <time>2020-06-24T08:31:41.025Z</time>
      </trkpt>
      <trkpt lat="48.66828" lon="-2.33926">
        <ele>41</ele>
        <time>2020-06-24T08:31:42.025Z</time>
      </trkpt>
      <trkpt lat="48.66829" lon="-2.33925">
        <ele>41</ele>
        <time>2020-06-24T08:31:43.025Z</time>
      </trkpt>
      <trkpt lat="48.66829" lon="-2.33923">
        <ele>41</ele>
        <time>2020-06-24T08:31:44.025Z</time>
      </trkpt>
      <trkpt lat="48.6683" lon="-2.33921">
        <ele>41</ele>
        <time>2020-06-24T08:31:45.025Z</time>
      </trkpt>
      <trkpt lat="48.66831" lon="-2.33919">
        <ele>41</ele>
        <time>2020-06-24T08:31:46.025Z</time>
      </trkpt>
      <trkpt lat="48.66831" lon="-2.33917">
        <ele>41</ele>
        <time>2020-06-24T08:31:47.025Z</time>
      </trkpt>
      <trkpt lat="48.66832" lon="-2.33915">
        <ele>41</ele>
        <time>2020-06-24T08:31:48.025Z</time>
      </trkpt>
      <trkpt lat="48.66832" lon="-2.33914">
        <ele>41</ele>
        <time>2020-06-24T08:31:49.025Z</time>
      </trkpt>
      <trkpt lat="48.66832" lon="-2.33912">
        <ele>42</ele>
        <time>2020-06-24T08:31:50.025Z</time>
      </trkpt>
      <trkpt lat="48.66833" lon="-2.33909">
        <ele>42</ele>
        <time>2020-06-24T08:31:51.025Z</time>
      </trkpt>
      <trkpt lat="48.66833" lon="-2.33907">
        <ele>42</ele>
        <time>2020-06-24T08:31:52.025Z</time>
      </trkpt>
      <trkpt lat="48.66833" lon="-2.33905">
        <ele>42</ele>
        <time>2020-06-24T08:31:53.025Z</time>
      </trkpt>
      <trkpt lat="48.66833" lon="-2.33903">
        <ele>42</ele>
        <time>2020-06-24T08:31:54.025Z</time>
      </trkpt>
      <trkpt lat="48.66832" lon="-2.33901">
        <ele>42</ele>
        <time>2020-06-24T08:31:55.025Z</time>
      </trkpt>
      <trkpt lat="48.66832" lon="-2.33899">
        <ele>42</ele>
        <time>2020-06-24T08:31:56.025Z</time>
      </trkpt>
      <trkpt lat="48.66832" lon="-2.33897">
        <ele>42</ele>
        <time>2020-06-24T08:31:57.025Z</time>
      </trkpt>
      <trkpt lat="48.66832" lon="-2.33896">
        <ele>41</ele>
        <time>2020-06-24T08:31:58.025Z</time>
      </trkpt>
      <trkpt lat="48.66831" lon="-2.33894">
        <ele>41</ele>
        <time>2020-06-24T08:31:59.025Z</time>
      </trkpt>
      <trkpt lat="48.6683" lon="-2.33893">
        <ele>41</ele>
        <time>2020-06-24T08:32:00.025Z</time>
      </trkpt>
      <trkpt lat="48.66829" lon="-2.33892">
        <ele>41</ele>
        <time>2020-06-24T08:32:01.025Z</time>
      </trkpt>
      <trkpt lat="48.66828" lon="-2.33891">
        <ele>41</ele>
        <time>2020-06-24T08:32:02.025Z</time>
      </trkpt>
      <trkpt lat="48.66828" lon="-2.3389">
        <ele>40</ele>
        <time>2020-06-24T08:32:03.025Z</time>
      </trkpt>
      <trkpt lat="48.66828" lon="-2.3389">
        <ele>40</ele>
        <time>2020-06-24T08:32:04.025Z</time>
      </trkpt>
      <trkpt lat="48.66827" lon="-2.33891">
        <ele>40</ele>
        <time>2020-06-24T08:32:05.025Z</time>
      </trkpt>
      <trkpt lat="48.66827" lon="-2.33891">
        <ele>40</ele>
        <time>2020-06-24T08:32:06.025Z</time>
      </trkpt>
      <trkpt lat="48.66826" lon="-2.33891">
        <ele>40</ele>
        <time>2020-06-24T08:32:07.025Z</time>
      </trkpt>
      <trkpt lat="48.66825" lon="-2.33891">
        <ele>40</ele>
        <time>2020-06-24T08:32:08.025Z</time>
      </trkpt>
      <trkpt lat="48.66823" lon="-2.33891">
        <ele>40</ele>
        <time>2020-06-24T08:32:09.025Z</time>
      </trkpt>
      <trkpt lat="48.66822" lon="-2.33891">
        <ele>40</ele>
        <time>2020-06-24T08:32:10.025Z</time>
      </trkpt>
      <trkpt lat="48.6682" lon="-2.33891">
        <ele>40</ele>
        <time>2020-06-24T08:32:11.025Z</time>
      </trkpt>
      <trkpt lat="48.66819" lon="-2.33891">
        <ele>40</ele>
        <time>2020-06-24T08:32:12.025Z</time>
      </trkpt>
      <trkpt lat="48.66818" lon="-2.33891">
        <ele>40</ele>
        <time>2020-06-24T08:32:13.025Z</time>
      </trkpt>
      <trkpt lat="48.66816" lon="-2.33891">
        <ele>40</ele>
        <time>2020-06-24T08:32:14.025Z</time>
      </trkpt>
      <trkpt lat="48.66815" lon="-2.33891">
        <ele>40</ele>
        <time>2020-06-24T08:32:15.025Z</time>
      </trkpt>
      <trkpt lat="48.66813" lon="-2.33891">
        <ele>40</ele>
        <time>2020-06-24T08:32:16.025Z</time>
      </trkpt>
      <trkpt lat="48.66812" lon="-2.33891">
        <ele>41</ele>
        <time>2020-06-24T08:32:17.025Z</time>
      </trkpt>
      <trkpt lat="48.66811" lon="-2.33891">
        <ele>41</ele>
        <time>2020-06-24T08:32:18.025Z</time>
      </trkpt>
      <trkpt lat="48.66809" lon="-2.33891">
        <ele>41</ele>
        <time>2020-06-24T08:32:19.025Z</time>
      </trkpt>
      <trkpt lat="48.66808" lon="-2.33891">
        <ele>41</ele>
        <time>2020-06-24T08:32:20.025Z</time>
      </trkpt>
      <trkpt lat="48.66807" lon="-2.33892">
        <ele>41</ele>
        <time>2020-06-24T08:32:21.025Z</time>
      </trkpt>
      <trkpt lat="48.66805" lon="-2.33892">
        <ele>41</ele>
        <time>2020-06-24T08:32:22.025Z</time>
      </trkpt>
      <trkpt lat="48.66804" lon="-2.33892">
        <ele>41</ele>
        <time>2020-06-24T08:32:23.025Z</time>
      </trkpt>
      <trkpt lat="48.66803" lon="-2.33892">
        <ele>41</ele>
        <time>2020-06-24T08:32:24.025Z</time>
      </trkpt>
      <trkpt lat="48.66802" lon="-2.33892">
        <ele>41</ele>
        <time>2020-06-24T08:32:25.025Z</time>
      </trkpt>
      <trkpt lat="48.668" lon="-2.33892">
        <ele>41</ele>
        <time>2020-06-24T08:32:26.025Z</time>
      </trkpt>
      <trkpt lat="48.66799" lon="-2.33892">
        <ele>41</ele>
        <time>2020-06-24T08:32:27.025Z</time>
      </trkpt>
      <trkpt lat="48.66798" lon="-2.33892">
        <ele>41</ele>
        <time>2020-06-24T08:32:28.025Z</time>
      </trkpt>
      <trkpt lat="48.66796" lon="-2.33892">
        <ele>41</ele>
        <time>2020-06-24T08:32:29.025Z</time>
      </trkpt>
      <trkpt lat="48.66795" lon="-2.33892">
        <ele>41</ele>
        <time>2020-06-24T08:32:30.025Z</time>
      </trkpt>
      <trkpt lat="48.66793" lon="-2.33892">
        <ele>41</ele>
        <time>2020-06-24T08:32:31.025Z</time>
      </trkpt>
      <trkpt lat="48.66792" lon="-2.33892">
        <ele>40</ele>
        <time>2020-06-24T08:32:32.025Z</time>
      </trkpt>
      <trkpt lat="48.6679" lon="-2.33892">
        <ele>40</ele>
        <time>2020-06-24T08:32:33.025Z</time>
      </trkpt>
      <trkpt lat="48.66789" lon="-2.33892">
        <ele>40</ele>
        <time>2020-06-24T08:32:34.025Z</time>
      </trkpt>
      <trkpt lat="48.66787" lon="-2.33892">
        <ele>40</ele>
        <time>2020-06-24T08:32:35.025Z</time>
      </trkpt>
      <trkpt lat="48.66786" lon="-2.33892">
        <ele>40</ele>
        <time>2020-06-24T08:32:36.025Z</time>
      </trkpt>
      <trkpt lat="48.66785" lon="-2.33892">
        <ele>40</ele>
        <time>2020-06-24T08:32:37.025Z</time>
      </trkpt>
      <trkpt lat="48.66784" lon="-2.33892">
        <ele>40</ele>
        <time>2020-06-24T08:32:38.025Z</time>
      </trkpt>
      <trkpt lat="48.66782" lon="-2.33892">
        <ele>40</ele>
        <time>2020-06-24T08:32:39.025Z</time>
      </trkpt>
      <trkpt lat="48.66781" lon="-2.33892">
        <ele>40</ele>
        <time>2020-06-24T08:32:40.025Z</time>
      </trkpt>
      <trkpt lat="48.66779" lon="-2.33892">
        <ele>40</ele>
        <time>2020-06-24T08:32:41.025Z</time>
      </trkpt>
      <trkpt lat="48.66778" lon="-2.33892">
        <ele>39</ele>
        <time>2020-06-24T08:32:42.025Z</time>
      </trkpt>
      <trkpt lat="48.66777" lon="-2.33891">
        <ele>39</ele>
        <time>2020-06-24T08:32:43.025Z</time>
      </trkpt>
      <trkpt lat="48.66775" lon="-2.33891">
        <ele>39</ele>
        <time>2020-06-24T08:32:44.025Z</time>
      </trkpt>
      <trkpt lat="48.66774" lon="-2.33891">
        <ele>39</ele>
        <time>2020-06-24T08:32:45.025Z</time>
      </trkpt>
      <trkpt lat="48.66772" lon="-2.33891">
        <ele>39</ele>
        <time>2020-06-24T08:32:46.025Z</time>
      </trkpt>
      <trkpt lat="48.66771" lon="-2.3389">
        <ele>39</ele>
        <time>2020-06-24T08:32:47.025Z</time>
      </trkpt>
      <trkpt lat="48.6677" lon="-2.3389">
        <ele>39</ele>
        <time>2020-06-24T08:32:48.025Z</time>
      </trkpt>
      <trkpt lat="48.66768" lon="-2.3389">
        <ele>38</ele>
        <time>2020-06-24T08:32:49.025Z</time>
      </trkpt>
      <trkpt lat="48.66767" lon="-2.33889">
        <ele>38</ele>
        <time>2020-06-24T08:32:50.025Z</time>
      </trkpt>
      <trkpt lat="48.66765" lon="-2.33889">
        <ele>38</ele>
        <time>2020-06-24T08:32:51.025Z</time>
      </trkpt>
      <trkpt lat="48.66764" lon="-2.33889">
        <ele>38</ele>
        <time>2020-06-24T08:32:52.025Z</time>
      </trkpt>
      <trkpt lat="48.66762" lon="-2.33889">
        <ele>38</ele>
        <time>2020-06-24T08:32:53.025Z</time>
      </trkpt>
      <trkpt lat="48.66761" lon="-2.33889">
        <ele>38</ele>
        <time>2020-06-24T08:32:54.025Z</time>
      </trkpt>
      <trkpt lat="48.6676" lon="-2.33888">
        <ele>38</ele>
        <time>2020-06-24T08:32:55.025Z</time>
      </trkpt>
      <trkpt lat="48.66759" lon="-2.33888">
        <ele>38</ele>
        <time>2020-06-24T08:32:56.025Z</time>
      </trkpt>
      <trkpt lat="48.66757" lon="-2.33888">
        <ele>38</ele>
        <time>2020-06-24T08:32:57.025Z</time>
      </trkpt>
      <trkpt lat="48.66756" lon="-2.33887">
        <ele>38</ele>
        <time>2020-06-24T08:32:58.025Z</time>
      </trkpt>
      <trkpt lat="48.66754" lon="-2.33887">
        <ele>38</ele>
        <time>2020-06-24T08:32:59.025Z</time>
      </trkpt>
      <trkpt lat="48.66753" lon="-2.33887">
        <ele>38</ele>
        <time>2020-06-24T08:33:00.025Z</time>
      </trkpt>
      <trkpt lat="48.66752" lon="-2.33887">
        <ele>38</ele>
        <time>2020-06-24T08:33:01.025Z</time>
      </trkpt>
      <trkpt lat="48.6675" lon="-2.33887">
        <ele>38</ele>
        <time>2020-06-24T08:33:02.025Z</time>
      </trkpt>
      <trkpt lat="48.66749" lon="-2.33888">
        <ele>38</ele>
        <time>2020-06-24T08:33:03.025Z</time>
      </trkpt>
      <trkpt lat="48.66747" lon="-2.33888">
        <ele>38</ele>
        <time>2020-06-24T08:33:04.025Z</time>
      </trkpt>
      <trkpt lat="48.66746" lon="-2.33888">
        <ele>38</ele>
        <time>2020-06-24T08:33:05.025Z</time>
      </trkpt>
      <trkpt lat="48.66745" lon="-2.33887">
        <ele>38</ele>
        <time>2020-06-24T08:33:06.025Z</time>
      </trkpt>
      <trkpt lat="48.66743" lon="-2.33887">
        <ele>38</ele>
        <time>2020-06-24T08:33:07.025Z</time>
      </trkpt>
      <trkpt lat="48.66742" lon="-2.33887">
        <ele>38</ele>
        <time>2020-06-24T08:33:08.025Z</time>
      </trkpt>
      <trkpt lat="48.66741" lon="-2.33887">
        <ele>38</ele>
        <time>2020-06-24T08:33:09.025Z</time>
      </trkpt>
      <trkpt lat="48.66739" lon="-2.33886">
        <ele>37</ele>
        <time>2020-06-24T08:33:10.025Z</time>
      </trkpt>
      <trkpt lat="48.66738" lon="-2.33886">
        <ele>37</ele>
        <time>2020-06-24T08:33:11.025Z</time>
      </trkpt>
      <trkpt lat="48.66737" lon="-2.33885">
        <ele>37</ele>
        <time>2020-06-24T08:33:12.025Z</time>
      </trkpt>
      <trkpt lat="48.66735" lon="-2.33885">
        <ele>37</ele>
        <time>2020-06-24T08:33:13.025Z</time>
      </trkpt>
      <trkpt lat="48.66734" lon="-2.33885">
        <ele>37</ele>
        <time>2020-06-24T08:33:14.025Z</time>
      </trkpt>
      <trkpt lat="48.66733" lon="-2.33885">
        <ele>37</ele>
        <time>2020-06-24T08:33:15.025Z</time>
      </trkpt>
      <trkpt lat="48.66731" lon="-2.33885">
        <ele>37</ele>
        <time>2020-06-24T08:33:16.025Z</time>
      </trkpt>
      <trkpt lat="48.6673" lon="-2.33885">
        <ele>37</ele>
        <time>2020-06-24T08:33:17.025Z</time>
      </trkpt>
      <trkpt lat="48.66729" lon="-2.33885">
        <ele>37</ele>
        <time>2020-06-24T08:33:18.025Z</time>
      </trkpt>
      <trkpt lat="48.66727" lon="-2.33885">
        <ele>37</ele>
        <time>2020-06-24T08:33:19.025Z</time>
      </trkpt>
      <trkpt lat="48.66726" lon="-2.33884">
        <ele>37</ele>
        <time>2020-06-24T08:33:20.025Z</time>
      </trkpt>
      <trkpt lat="48.66725" lon="-2.33883">
        <ele>37</ele>
        <time>2020-06-24T08:33:21.025Z</time>
      </trkpt>
      <trkpt lat="48.66725" lon="-2.33882">
        <ele>37</ele>
        <time>2020-06-24T08:33:22.025Z</time>
      </trkpt>
      <trkpt lat="48.66724" lon="-2.3388">
        <ele>37</ele>
        <time>2020-06-24T08:33:23.025Z</time>
      </trkpt>
      <trkpt lat="48.66724" lon="-2.33878">
        <ele>37</ele>
        <time>2020-06-24T08:33:24.025Z</time>
      </trkpt>
      <trkpt lat="48.66724" lon="-2.33877">
        <ele>37</ele>
        <time>2020-06-24T08:33:25.025Z</time>
      </trkpt>
      <trkpt lat="48.66723" lon="-2.33875">
        <ele>37</ele>
        <time>2020-06-24T08:33:26.025Z</time>
      </trkpt>
      <trkpt lat="48.66722" lon="-2.33874">
        <ele>37</ele>
        <time>2020-06-24T08:33:27.025Z</time>
      </trkpt>
      <trkpt lat="48.66721" lon="-2.33872">
        <ele>37</ele>
        <time>2020-06-24T08:33:28.025Z</time>
      </trkpt>
      <trkpt lat="48.6672" lon="-2.33871">
        <ele>37</ele>
        <time>2020-06-24T08:33:29.025Z</time>
      </trkpt>
      <trkpt lat="48.66719" lon="-2.3387">
        <ele>37</ele>
        <time>2020-06-24T08:33:30.025Z</time>
      </trkpt>
      <trkpt lat="48.66719" lon="-2.33868">
        <ele>37</ele>
        <time>2020-06-24T08:33:31.025Z</time>
      </trkpt>
      <trkpt lat="48.66718" lon="-2.33867">
        <ele>37</ele>
        <time>2020-06-24T08:33:32.025Z</time>
      </trkpt>
      <trkpt lat="48.66717" lon="-2.33865">
        <ele>37</ele>
        <time>2020-06-24T08:33:33.025Z</time>
      </trkpt>
      <trkpt lat="48.66716" lon="-2.33864">
        <ele>37</ele>
        <time>2020-06-24T08:33:34.025Z</time>
      </trkpt>
      <trkpt lat="48.66715" lon="-2.33862">
        <ele>37</ele>
        <time>2020-06-24T08:33:35.025Z</time>
      </trkpt>
      <trkpt lat="48.66714" lon="-2.3386">
        <ele>37</ele>
        <time>2020-06-24T08:33:36.025Z</time>
      </trkpt>
      <trkpt lat="48.66714" lon="-2.33859">
        <ele>37</ele>
        <time>2020-06-24T08:33:37.025Z</time>
      </trkpt>
      <trkpt lat="48.66713" lon="-2.33857">
        <ele>37</ele>
        <time>2020-06-24T08:33:38.025Z</time>
      </trkpt>
      <trkpt lat="48.66713" lon="-2.33855">
        <ele>37</ele>
        <time>2020-06-24T08:33:39.025Z</time>
      </trkpt>
      <trkpt lat="48.66712" lon="-2.33853">
        <ele>37</ele>
        <time>2020-06-24T08:33:40.025Z</time>
      </trkpt>
      <trkpt lat="48.66711" lon="-2.33851">
        <ele>37</ele>
        <time>2020-06-24T08:33:41.025Z</time>
      </trkpt>
      <trkpt lat="48.66711" lon="-2.3385">
        <ele>37</ele>
        <time>2020-06-24T08:33:42.025Z</time>
      </trkpt>
      <trkpt lat="48.6671" lon="-2.33849">
        <ele>37</ele>
        <time>2020-06-24T08:33:43.025Z</time>
      </trkpt>
      <trkpt lat="48.66709" lon="-2.33848">
        <ele>37</ele>
        <time>2020-06-24T08:33:44.025Z</time>
      </trkpt>
      <trkpt lat="48.66708" lon="-2.33847">
        <ele>38</ele>
        <time>2020-06-24T08:33:45.025Z</time>
      </trkpt>
      <trkpt lat="48.66708" lon="-2.33846">
        <ele>38</ele>
        <time>2020-06-24T08:33:46.025Z</time>
      </trkpt>
      <trkpt lat="48.66707" lon="-2.33845">
        <ele>38</ele>
        <time>2020-06-24T08:33:47.025Z</time>
      </trkpt>
      <trkpt lat="48.66707" lon="-2.33845">
        <ele>38</ele>
        <time>2020-06-24T08:33:48.025Z</time>
      </trkpt>
      <trkpt lat="48.66706" lon="-2.33843">
        <ele>38</ele>
        <time>2020-06-24T08:33:49.025Z</time>
      </trkpt>
      <trkpt lat="48.66706" lon="-2.33842">
        <ele>38</ele>
        <time>2020-06-24T08:33:50.025Z</time>
      </trkpt>
      <trkpt lat="48.66706" lon="-2.3384">
        <ele>38</ele>
        <time>2020-06-24T08:33:51.025Z</time>
      </trkpt>
      <trkpt lat="48.66706" lon="-2.33838">
        <ele>38</ele>
        <time>2020-06-24T08:33:52.025Z</time>
      </trkpt>
      <trkpt lat="48.66707" lon="-2.33836">
        <ele>38</ele>
        <time>2020-06-24T08:33:53.025Z</time>
      </trkpt>
      <trkpt lat="48.66707" lon="-2.33834">
        <ele>38</ele>
        <time>2020-06-24T08:33:54.025Z</time>
      </trkpt>
      <trkpt lat="48.66708" lon="-2.33833">
        <ele>38</ele>
        <time>2020-06-24T08:33:55.025Z</time>
      </trkpt>
      <trkpt lat="48.66708" lon="-2.33831">
        <ele>38</ele>
        <time>2020-06-24T08:33:56.025Z</time>
      </trkpt>
      <trkpt lat="48.66709" lon="-2.33829">
        <ele>38</ele>
        <time>2020-06-24T08:33:57.025Z</time>
      </trkpt>
      <trkpt lat="48.66709" lon="-2.33827">
        <ele>38</ele>
        <time>2020-06-24T08:33:58.025Z</time>
      </trkpt>
      <trkpt lat="48.6671" lon="-2.33825">
        <ele>38</ele>
        <time>2020-06-24T08:33:59.025Z</time>
      </trkpt>
      <trkpt lat="48.6671" lon="-2.33823">
        <ele>38</ele>
        <time>2020-06-24T08:34:00.025Z</time>
      </trkpt>
      <trkpt lat="48.6671" lon="-2.33821">
        <ele>38</ele>
        <time>2020-06-24T08:34:01.025Z</time>
      </trkpt>
      <trkpt lat="48.66711" lon="-2.33819">
        <ele>38</ele>
        <time>2020-06-24T08:34:02.025Z</time>
      </trkpt>
      <trkpt lat="48.66711" lon="-2.33818">
        <ele>38</ele>
        <time>2020-06-24T08:34:03.025Z</time>
      </trkpt>
      <trkpt lat="48.66712" lon="-2.33816">
        <ele>38</ele>
        <time>2020-06-24T08:34:04.025Z</time>
      </trkpt>
      <trkpt lat="48.66712" lon="-2.33814">
        <ele>38</ele>
        <time>2020-06-24T08:34:05.025Z</time>
      </trkpt>
      <trkpt lat="48.66713" lon="-2.33812">
        <ele>38</ele>
        <time>2020-06-24T08:34:06.025Z</time>
      </trkpt>
      <trkpt lat="48.66713" lon="-2.3381">
        <ele>38</ele>
        <time>2020-06-24T08:34:07.025Z</time>
      </trkpt>
      <trkpt lat="48.66714" lon="-2.33808">
        <ele>38</ele>
        <time>2020-06-24T08:34:08.025Z</time>
      </trkpt>
      <trkpt lat="48.66714" lon="-2.33806">
        <ele>38</ele>
        <time>2020-06-24T08:34:09.025Z</time>
      </trkpt>
      <trkpt lat="48.66715" lon="-2.33804">
        <ele>38</ele>
        <time>2020-06-24T08:34:10.025Z</time>
      </trkpt>
      <trkpt lat="48.66715" lon="-2.33802">
        <ele>38</ele>
        <time>2020-06-24T08:34:11.025Z</time>
      </trkpt>
      <trkpt lat="48.66715" lon="-2.338">
        <ele>38</ele>
        <time>2020-06-24T08:34:12.025Z</time>
      </trkpt>
      <trkpt lat="48.66716" lon="-2.33798">
        <ele>38</ele>
        <time>2020-06-24T08:34:13.025Z</time>
      </trkpt>
      <trkpt lat="48.66716" lon="-2.33797">
        <ele>38</ele>
        <time>2020-06-24T08:34:14.025Z</time>
      </trkpt>
      <trkpt lat="48.66717" lon="-2.33795">
        <ele>38</ele>
        <time>2020-06-24T08:34:15.025Z</time>
      </trkpt>
      <trkpt lat="48.66717" lon="-2.33793">
        <ele>38</ele>
        <time>2020-06-24T08:34:16.025Z</time>
      </trkpt>
      <trkpt lat="48.66718" lon="-2.33791">
        <ele>38</ele>
        <time>2020-06-24T08:34:17.025Z</time>
      </trkpt>
      <trkpt lat="48.66718" lon="-2.3379">
        <ele>38</ele>
        <time>2020-06-24T08:34:18.025Z</time>
      </trkpt>
      <trkpt lat="48.66719" lon="-2.33788">
        <ele>38</ele>
        <time>2020-06-24T08:34:19.025Z</time>
      </trkpt>
      <trkpt lat="48.6672" lon="-2.33786">
        <ele>38</ele>
        <time>2020-06-24T08:34:20.025Z</time>
      </trkpt>
      <trkpt lat="48.6672" lon="-2.33784">
        <ele>38</ele>
        <time>2020-06-24T08:34:21.025Z</time>
      </trkpt>
      <trkpt lat="48.66721" lon="-2.33782">
        <ele>38</ele>
        <time>2020-06-24T08:34:22.025Z</time>
      </trkpt>
      <trkpt lat="48.66721" lon="-2.3378">
        <ele>38</ele>
        <time>2020-06-24T08:34:23.025Z</time>
      </trkpt>
      <trkpt lat="48.66722" lon="-2.33778">
        <ele>38</ele>
        <time>2020-06-24T08:34:24.025Z</time>
      </trkpt>
      <trkpt lat="48.66722" lon="-2.33777">
        <ele>38</ele>
        <time>2020-06-24T08:34:25.025Z</time>
      </trkpt>
      <trkpt lat="48.66723" lon="-2.33775">
        <ele>39</ele>
        <time>2020-06-24T08:34:26.025Z</time>
      </trkpt>
      <trkpt lat="48.66723" lon="-2.33773">
        <ele>39</ele>
        <time>2020-06-24T08:34:27.025Z</time>
      </trkpt>
      <trkpt lat="48.66724" lon="-2.33772">
        <ele>39</ele>
        <time>2020-06-24T08:34:28.025Z</time>
      </trkpt>
      <trkpt lat="48.66725" lon="-2.3377">
        <ele>39</ele>
        <time>2020-06-24T08:34:29.025Z</time>
      </trkpt>
      <trkpt lat="48.66725" lon="-2.33768">
        <ele>39</ele>
        <time>2020-06-24T08:34:30.025Z</time>
      </trkpt>
      <trkpt lat="48.66726" lon="-2.33766">
        <ele>39</ele>
        <time>2020-06-24T08:34:31.025Z</time>
      </trkpt>
      <trkpt lat="48.66727" lon="-2.33765">
        <ele>39</ele>
        <time>2020-06-24T08:34:32.025Z</time>
      </trkpt>
      <trkpt lat="48.66727" lon="-2.33763">
        <ele>39</ele>
        <time>2020-06-24T08:34:33.025Z</time>
      </trkpt>
      <trkpt lat="48.66728" lon="-2.33761">
        <ele>39</ele>
        <time>2020-06-24T08:34:34.025Z</time>
      </trkpt>
      <trkpt lat="48.66729" lon="-2.33759">
        <ele>39</ele>
        <time>2020-06-24T08:34:35.025Z</time>
      </trkpt>
      <trkpt lat="48.66729" lon="-2.33757">
        <ele>39</ele>
        <time>2020-06-24T08:34:36.025Z</time>
      </trkpt>
      <trkpt lat="48.6673" lon="-2.33756">
        <ele>39</ele>
        <time>2020-06-24T08:34:37.025Z</time>
      </trkpt>
      <trkpt lat="48.66731" lon="-2.33754">
        <ele>39</ele>
        <time>2020-06-24T08:34:38.025Z</time>
      </trkpt>
      <trkpt lat="48.66732" lon="-2.33753">
        <ele>39</ele>
        <time>2020-06-24T08:34:39.025Z</time>
      </trkpt>
      <trkpt lat="48.66733" lon="-2.33751">
        <ele>39</ele>
        <time>2020-06-24T08:34:40.025Z</time>
      </trkpt>
      <trkpt lat="48.66734" lon="-2.3375">
        <ele>39</ele>
        <time>2020-06-24T08:34:41.025Z</time>
      </trkpt>
      <trkpt lat="48.66735" lon="-2.3375">
        <ele>39</ele>
        <time>2020-06-24T08:34:42.025Z</time>
      </trkpt>
      <trkpt lat="48.66737" lon="-2.33749">
        <ele>40</ele>
        <time>2020-06-24T08:34:43.025Z</time>
      </trkpt>
      <trkpt lat="48.66738" lon="-2.33749">
        <ele>40</ele>
        <time>2020-06-24T08:34:44.025Z</time>
      </trkpt>
      <trkpt lat="48.66739" lon="-2.33749">
        <ele>40</ele>
        <time>2020-06-24T08:34:45.025Z</time>
      </trkpt>
      <trkpt lat="48.6674" lon="-2.33749">
        <ele>40</ele>
        <time>2020-06-24T08:34:46.025Z</time>
      </trkpt>
      <trkpt lat="48.66741" lon="-2.33748">
        <ele>40</ele>
        <time>2020-06-24T08:34:47.025Z</time>
      </trkpt>
      <trkpt lat="48.66743" lon="-2.33747">
        <ele>40</ele>
        <time>2020-06-24T08:34:48.025Z</time>
      </trkpt>
      <trkpt lat="48.66744" lon="-2.33747">
        <ele>40</ele>
        <time>2020-06-24T08:34:49.025Z</time>
      </trkpt>
      <trkpt lat="48.66745" lon="-2.33746">
        <ele>40</ele>
        <time>2020-06-24T08:34:50.025Z</time>
      </trkpt>
      <trkpt lat="48.66747" lon="-2.33745">
        <ele>40</ele>
        <time>2020-06-24T08:34:51.025Z</time>
      </trkpt>
      <trkpt lat="48.66748" lon="-2.33745">
        <ele>40</ele>
        <time>2020-06-24T08:34:52.025Z</time>
      </trkpt>
      <trkpt lat="48.66749" lon="-2.33744">
        <ele>40</ele>
        <time>2020-06-24T08:34:53.025Z</time>
      </trkpt>
      <trkpt lat="48.6675" lon="-2.33743">
        <ele>40</ele>
        <time>2020-06-24T08:34:54.025Z</time>
      </trkpt>
      <trkpt lat="48.66751" lon="-2.33743">
        <ele>40</ele>
        <time>2020-06-24T08:34:55.025Z</time>
      </trkpt>
      <trkpt lat="48.66752" lon="-2.33742">
        <ele>40</ele>
        <time>2020-06-24T08:34:56.025Z</time>
      </trkpt>
      <trkpt lat="48.66753" lon="-2.33742">
        <ele>40</ele>
        <time>2020-06-24T08:34:57.025Z</time>
      </trkpt>
      <trkpt lat="48.66755" lon="-2.33741">
        <ele>41</ele>
        <time>2020-06-24T08:34:58.025Z</time>
      </trkpt>
      <trkpt lat="48.66756" lon="-2.33741">
        <ele>41</ele>
        <time>2020-06-24T08:34:59.025Z</time>
      </trkpt>
      <trkpt lat="48.66757" lon="-2.33741">
        <ele>41</ele>
        <time>2020-06-24T08:35:00.025Z</time>
      </trkpt>
      <trkpt lat="48.66758" lon="-2.33741">
        <ele>41</ele>
        <time>2020-06-24T08:35:01.025Z</time>
      </trkpt>
      <trkpt lat="48.66759" lon="-2.33741">
        <ele>41</ele>
        <time>2020-06-24T08:35:02.025Z</time>
      </trkpt>
      <trkpt lat="48.6676" lon="-2.33741">
        <ele>41</ele>
        <time>2020-06-24T08:35:03.025Z</time>
      </trkpt>
      <trkpt lat="48.66762" lon="-2.33741">
        <ele>41</ele>
        <time>2020-06-24T08:35:04.025Z</time>
      </trkpt>
      <trkpt lat="48.66763" lon="-2.33741">
        <ele>41</ele>
        <time>2020-06-24T08:35:05.025Z</time>
      </trkpt>
      <trkpt lat="48.66764" lon="-2.33742">
        <ele>41</ele>
        <time>2020-06-24T08:35:06.025Z</time>
      </trkpt>
      <trkpt lat="48.66765" lon="-2.33742">
        <ele>41</ele>
        <time>2020-06-24T08:35:07.025Z</time>
      </trkpt>
      <trkpt lat="48.66767" lon="-2.33742">
        <ele>41</ele>
        <time>2020-06-24T08:35:08.025Z</time>
      </trkpt>
      <trkpt lat="48.66768" lon="-2.33743">
        <ele>41</ele>
        <time>2020-06-24T08:35:09.025Z</time>
      </trkpt>
      <trkpt lat="48.66769" lon="-2.33743">
        <ele>41</ele>
        <time>2020-06-24T08:35:10.025Z</time>
      </trkpt>
      <trkpt lat="48.66771" lon="-2.33744">
        <ele>41</ele>
        <time>2020-06-24T08:35:11.025Z</time>
      </trkpt>
      <trkpt lat="48.66772" lon="-2.33744">
        <ele>41</ele>
        <time>2020-06-24T08:35:12.025Z</time>
      </trkpt>
      <trkpt lat="48.66773" lon="-2.33744">
        <ele>41</ele>
        <time>2020-06-24T08:35:13.025Z</time>
      </trkpt>
      <trkpt lat="48.66774" lon="-2.33745">
        <ele>41</ele>
        <time>2020-06-24T08:35:14.025Z</time>
      </trkpt>
      <trkpt lat="48.66776" lon="-2.33745">
        <ele>41</ele>
        <time>2020-06-24T08:35:15.025Z</time>
      </trkpt>
      <trkpt lat="48.66777" lon="-2.33746">
        <ele>41</ele>
        <time>2020-06-24T08:35:16.025Z</time>
      </trkpt>
      <trkpt lat="48.66778" lon="-2.33746">
        <ele>41</ele>
        <time>2020-06-24T08:35:17.025Z</time>
      </trkpt>
      <trkpt lat="48.66779" lon="-2.33746">
        <ele>41</ele>
        <time>2020-06-24T08:35:18.025Z</time>
      </trkpt>
      <trkpt lat="48.6678" lon="-2.33746">
        <ele>41</ele>
        <time>2020-06-24T08:35:19.025Z</time>
      </trkpt>
      <trkpt lat="48.66781" lon="-2.33746">
        <ele>41</ele>
        <time>2020-06-24T08:35:20.025Z</time>
      </trkpt>
      <trkpt lat="48.66782" lon="-2.33746">
        <ele>41</ele>
        <time>2020-06-24T08:35:21.025Z</time>
      </trkpt>
      <trkpt lat="48.66784" lon="-2.33745">
        <ele>41</ele>
        <time>2020-06-24T08:35:22.025Z</time>
      </trkpt>
      <trkpt lat="48.66785" lon="-2.33744">
        <ele>41</ele>
        <time>2020-06-24T08:35:23.025Z</time>
      </trkpt>
      <trkpt lat="48.66786" lon="-2.33743">
        <ele>41</ele>
        <time>2020-06-24T08:35:24.025Z</time>
      </trkpt>
      <trkpt lat="48.66787" lon="-2.33741">
        <ele>41</ele>
        <time>2020-06-24T08:35:25.025Z</time>
      </trkpt>
      <trkpt lat="48.66788" lon="-2.3374">
        <ele>41</ele>
        <time>2020-06-24T08:35:26.025Z</time>
      </trkpt>
      <trkpt lat="48.66788" lon="-2.33738">
        <ele>41</ele>
        <time>2020-06-24T08:35:27.025Z</time>
      </trkpt>
      <trkpt lat="48.66789" lon="-2.33736">
        <ele>41</ele>
        <time>2020-06-24T08:35:28.025Z</time>
      </trkpt>
      <trkpt lat="48.6679" lon="-2.33734">
        <ele>41</ele>
        <time>2020-06-24T08:35:29.025Z</time>
      </trkpt>
      <trkpt lat="48.6679" lon="-2.33732">
        <ele>41</ele>
        <time>2020-06-24T08:35:30.025Z</time>
      </trkpt>
      <trkpt lat="48.6679" lon="-2.33731">
        <ele>41</ele>
        <time>2020-06-24T08:35:31.025Z</time>
      </trkpt>
      <trkpt lat="48.66791" lon="-2.33729">
        <ele>41</ele>
        <time>2020-06-24T08:35:32.025Z</time>
      </trkpt>
      <trkpt lat="48.66791" lon="-2.33727">
        <ele>41</ele>
        <time>2020-06-24T08:35:33.025Z</time>
      </trkpt>
      <trkpt lat="48.66792" lon="-2.33726">
        <ele>41</ele>
        <time>2020-06-24T08:35:34.025Z</time>
      </trkpt>
      <trkpt lat="48.66793" lon="-2.33724">
        <ele>41</ele>
        <time>2020-06-24T08:35:35.025Z</time>
      </trkpt>
      <trkpt lat="48.66793" lon="-2.33723">
        <ele>41</ele>
        <time>2020-06-24T08:35:36.025Z</time>
      </trkpt>
      <trkpt lat="48.66794" lon="-2.33721">
        <ele>41</ele>
        <time>2020-06-24T08:35:37.025Z</time>
      </trkpt>
      <trkpt lat="48.66795" lon="-2.3372">
        <ele>41</ele>
        <time>2020-06-24T08:35:38.025Z</time>
      </trkpt>
      <trkpt lat="48.66795" lon="-2.33718">
        <ele>41</ele>
        <time>2020-06-24T08:35:39.025Z</time>
      </trkpt>
      <trkpt lat="48.66796" lon="-2.33716">
        <ele>41</ele>
        <time>2020-06-24T08:35:40.025Z</time>
      </trkpt>
      <trkpt lat="48.66796" lon="-2.33714">
        <ele>41</ele>
        <time>2020-06-24T08:35:41.025Z</time>
      </trkpt>
      <trkpt lat="48.66797" lon="-2.33713">
        <ele>41</ele>
        <time>2020-06-24T08:35:42.025Z</time>
      </trkpt>
      <trkpt lat="48.66798" lon="-2.33711">
        <ele>41</ele>
        <time>2020-06-24T08:35:43.025Z</time>
      </trkpt>
      <trkpt lat="48.66798" lon="-2.3371">
        <ele>41</ele>
        <time>2020-06-24T08:35:44.025Z</time>
      </trkpt>
      <trkpt lat="48.66799" lon="-2.33708">
        <ele>41</ele>
        <time>2020-06-24T08:35:45.025Z</time>
      </trkpt>
      <trkpt lat="48.668" lon="-2.33707">
        <ele>41</ele>
        <time>2020-06-24T08:35:46.025Z</time>
      </trkpt>
      <trkpt lat="48.66801" lon="-2.33705">
        <ele>41</ele>
        <time>2020-06-24T08:35:47.025Z</time>
      </trkpt>
      <trkpt lat="48.66802" lon="-2.33704">
        <ele>41</ele>
        <time>2020-06-24T08:35:48.025Z</time>
      </trkpt>
      <trkpt lat="48.66803" lon="-2.33703">
        <ele>41</ele>
        <time>2020-06-24T08:35:49.025Z</time>
      </trkpt>
      <trkpt lat="48.66804" lon="-2.33702">
        <ele>40</ele>
        <time>2020-06-24T08:35:50.025Z</time>
      </trkpt>
      <trkpt lat="48.66805" lon="-2.33701">
        <ele>40</ele>
        <time>2020-06-24T08:35:51.025Z</time>
      </trkpt>
      <trkpt lat="48.66805" lon="-2.33699">
        <ele>41</ele>
        <time>2020-06-24T08:35:52.025Z</time>
      </trkpt>
      <trkpt lat="48.66806" lon="-2.33698">
        <ele>41</ele>
        <time>2020-06-24T08:35:53.025Z</time>
      </trkpt>
      <trkpt lat="48.66807" lon="-2.33696">
        <ele>41</ele>
        <time>2020-06-24T08:35:54.025Z</time>
      </trkpt>
      <trkpt lat="48.66808" lon="-2.33694">
        <ele>41</ele>
        <time>2020-06-24T08:35:55.025Z</time>
      </trkpt>
      <trkpt lat="48.66809" lon="-2.33693">
        <ele>41</ele>
        <time>2020-06-24T08:35:56.025Z</time>
      </trkpt>
      <trkpt lat="48.6681" lon="-2.33691">
        <ele>41</ele>
        <time>2020-06-24T08:35:57.025Z</time>
      </trkpt>
      <trkpt lat="48.6681" lon="-2.3369">
        <ele>41</ele>
        <time>2020-06-24T08:35:58.025Z</time>
      </trkpt>
      <trkpt lat="48.66811" lon="-2.33688">
        <ele>41</ele>
        <time>2020-06-24T08:35:59.025Z</time>
      </trkpt>
      <trkpt lat="48.66812" lon="-2.33686">
        <ele>41</ele>
        <time>2020-06-24T08:36:00.025Z</time>
      </trkpt>
      <trkpt lat="48.66812" lon="-2.33685">
        <ele>41</ele>
        <time>2020-06-24T08:36:01.025Z</time>
      </trkpt>
      <trkpt lat="48.66813" lon="-2.33683">
        <ele>41</ele>
        <time>2020-06-24T08:36:02.025Z</time>
      </trkpt>
      <trkpt lat="48.66814" lon="-2.33681">
        <ele>41</ele>
        <time>2020-06-24T08:36:03.025Z</time>
      </trkpt>
      <trkpt lat="48.66815" lon="-2.33679">
        <ele>41</ele>
        <time>2020-06-24T08:36:04.025Z</time>
      </trkpt>
      <trkpt lat="48.66815" lon="-2.33678">
        <ele>41</ele>
        <time>2020-06-24T08:36:05.025Z</time>
      </trkpt>
      <trkpt lat="48.66816" lon="-2.33676">
        <ele>41</ele>
        <time>2020-06-24T08:36:06.025Z</time>
      </trkpt>
      <trkpt lat="48.66817" lon="-2.33675">
        <ele>42</ele>
        <time>2020-06-24T08:36:07.025Z</time>
      </trkpt>
      <trkpt lat="48.66818" lon="-2.33673">
        <ele>42</ele>
        <time>2020-06-24T08:36:08.025Z</time>
      </trkpt>
      <trkpt lat="48.66819" lon="-2.33671">
        <ele>42</ele>
        <time>2020-06-24T08:36:09.025Z</time>
      </trkpt>
      <trkpt lat="48.6682" lon="-2.3367">
        <ele>42</ele>
        <time>2020-06-24T08:36:10.025Z</time>
      </trkpt>
      <trkpt lat="48.6682" lon="-2.33668">
        <ele>42</ele>
        <time>2020-06-24T08:36:11.025Z</time>
      </trkpt>
      <trkpt lat="48.66821" lon="-2.33667">
        <ele>42</ele>
        <time>2020-06-24T08:36:12.025Z</time>
      </trkpt>
      <trkpt lat="48.66822" lon="-2.33665">
        <ele>42</ele>
        <time>2020-06-24T08:36:13.025Z</time>
      </trkpt>
      <trkpt lat="48.66823" lon="-2.33664">
        <ele>42</ele>
        <time>2020-06-24T08:36:14.025Z</time>
      </trkpt>
      <trkpt lat="48.66824" lon="-2.33662">
        <ele>42</ele>
        <time>2020-06-24T08:36:15.025Z</time>
      </trkpt>
      <trkpt lat="48.66824" lon="-2.33661">
        <ele>42</ele>
        <time>2020-06-24T08:36:16.025Z</time>
      </trkpt>
      <trkpt lat="48.66825" lon="-2.33659">
        <ele>42</ele>
        <time>2020-06-24T08:36:17.025Z</time>
      </trkpt>
      <trkpt lat="48.66825" lon="-2.33657">
        <ele>42</ele>
        <time>2020-06-24T08:36:18.025Z</time>
      </trkpt>
      <trkpt lat="48.66826" lon="-2.33656">
        <ele>43</ele>
        <time>2020-06-24T08:36:19.025Z</time>
      </trkpt>
      <trkpt lat="48.66826" lon="-2.33654">
        <ele>43</ele>
        <time>2020-06-24T08:36:20.025Z</time>
      </trkpt>
      <trkpt lat="48.66826" lon="-2.33652">
        <ele>43</ele>
        <time>2020-06-24T08:36:21.025Z</time>
      </trkpt>
      <trkpt lat="48.66826" lon="-2.3365">
        <ele>43</ele>
        <time>2020-06-24T08:36:22.025Z</time>
      </trkpt>
      <trkpt lat="48.66826" lon="-2.33648">
        <ele>43</ele>
        <time>2020-06-24T08:36:23.025Z</time>
      </trkpt>
      <trkpt lat="48.66826" lon="-2.33646">
        <ele>43</ele>
        <time>2020-06-24T08:36:24.025Z</time>
      </trkpt>
      <trkpt lat="48.66826" lon="-2.33644">
        <ele>43</ele>
        <time>2020-06-24T08:36:25.025Z</time>
      </trkpt>
      <trkpt lat="48.66827" lon="-2.33643">
        <ele>43</ele>
        <time>2020-06-24T08:36:26.025Z</time>
      </trkpt>
      <trkpt lat="48.66828" lon="-2.33641">
        <ele>43</ele>
        <time>2020-06-24T08:36:27.025Z</time>
      </trkpt>
      <trkpt lat="48.66829" lon="-2.3364">
        <ele>43</ele>
        <time>2020-06-24T08:36:28.025Z</time>
      </trkpt>
      <trkpt lat="48.6683" lon="-2.33639">
        <ele>43</ele>
        <time>2020-06-24T08:36:29.025Z</time>
      </trkpt>
      <trkpt lat="48.66831" lon="-2.33638">
        <ele>43</ele>
        <time>2020-06-24T08:36:30.025Z</time>
      </trkpt>
      <trkpt lat="48.66832" lon="-2.33638">
        <ele>43</ele>
        <time>2020-06-24T08:36:31.025Z</time>
      </trkpt>
      <trkpt lat="48.66833" lon="-2.33637">
        <ele>43</ele>
        <time>2020-06-24T08:36:32.025Z</time>
      </trkpt>
      <trkpt lat="48.66835" lon="-2.33637">
        <ele>43</ele>
        <time>2020-06-24T08:36:33.025Z</time>
      </trkpt>
      <trkpt lat="48.66836" lon="-2.33636">
        <ele>43</ele>
        <time>2020-06-24T08:36:34.025Z</time>
      </trkpt>
      <trkpt lat="48.66837" lon="-2.33635">
        <ele>43</ele>
        <time>2020-06-24T08:36:35.025Z</time>
      </trkpt>
      <trkpt lat="48.66838" lon="-2.33633">
        <ele>43</ele>
        <time>2020-06-24T08:36:36.025Z</time>
      </trkpt>
      <trkpt lat="48.66839" lon="-2.33631">
        <ele>43</ele>
        <time>2020-06-24T08:36:37.025Z</time>
      </trkpt>
      <trkpt lat="48.66839" lon="-2.3363">
        <ele>44</ele>
        <time>2020-06-24T08:36:38.025Z</time>
      </trkpt>
      <trkpt lat="48.6684" lon="-2.33628">
        <ele>44</ele>
        <time>2020-06-24T08:36:39.025Z</time>
      </trkpt>
      <trkpt lat="48.66841" lon="-2.33626">
        <ele>43</ele>
        <time>2020-06-24T08:36:40.025Z</time>
      </trkpt>
      <trkpt lat="48.66842" lon="-2.33625">
        <ele>44</ele>
        <time>2020-06-24T08:36:41.025Z</time>
      </trkpt>
      <trkpt lat="48.66842" lon="-2.33623">
        <ele>44</ele>
        <time>2020-06-24T08:36:42.025Z</time>
      </trkpt>
      <trkpt lat="48.66843" lon="-2.33622">
        <ele>44</ele>
        <time>2020-06-24T08:36:43.025Z</time>
      </trkpt>
      <trkpt lat="48.66844" lon="-2.3362">
        <ele>44</ele>
        <time>2020-06-24T08:36:44.025Z</time>
      </trkpt>
      <trkpt lat="48.66845" lon="-2.33619">
        <ele>44</ele>
        <time>2020-06-24T08:36:45.025Z</time>
      </trkpt>
      <trkpt lat="48.66846" lon="-2.33618">
        <ele>44</ele>
        <time>2020-06-24T08:36:46.025Z</time>
      </trkpt>
      <trkpt lat="48.66848" lon="-2.33616">
        <ele>43</ele>
        <time>2020-06-24T08:36:47.025Z</time>
      </trkpt>
      <trkpt lat="48.66849" lon="-2.33615">
        <ele>44</ele>
        <time>2020-06-24T08:36:48.025Z</time>
      </trkpt>
      <trkpt lat="48.6685" lon="-2.33614">
        <ele>43</ele>
        <time>2020-06-24T08:36:49.025Z</time>
      </trkpt>
      <trkpt lat="48.66851" lon="-2.33613">
        <ele>43</ele>
        <time>2020-06-24T08:36:50.025Z</time>
      </trkpt>
      <trkpt lat="48.66852" lon="-2.33612">
        <ele>43</ele>
        <time>2020-06-24T08:36:51.025Z</time>
      </trkpt>
      <trkpt lat="48.66853" lon="-2.3361">
        <ele>43</ele>
        <time>2020-06-24T08:36:52.025Z</time>
      </trkpt>
      <trkpt lat="48.66854" lon="-2.33609">
        <ele>43</ele>
        <time>2020-06-24T08:36:53.025Z</time>
      </trkpt>
      <trkpt lat="48.66855" lon="-2.33607">
        <ele>43</ele>
        <time>2020-06-24T08:36:54.025Z</time>
      </trkpt>
      <trkpt lat="48.66855" lon="-2.33606">
        <ele>43</ele>
        <time>2020-06-24T08:36:55.025Z</time>
      </trkpt>
      <trkpt lat="48.66856" lon="-2.33604">
        <ele>43</ele>
        <time>2020-06-24T08:36:56.025Z</time>
      </trkpt>
      <trkpt lat="48.66857" lon="-2.33603">
        <ele>43</ele>
        <time>2020-06-24T08:36:57.025Z</time>
      </trkpt>
      <trkpt lat="48.66858" lon="-2.33601">
        <ele>43</ele>
        <time>2020-06-24T08:36:58.025Z</time>
      </trkpt>
      <trkpt lat="48.66859" lon="-2.33599">
        <ele>43</ele>
        <time>2020-06-24T08:36:59.025Z</time>
      </trkpt>
      <trkpt lat="48.6686" lon="-2.33598">
        <ele>43</ele>
        <time>2020-06-24T08:37:00.025Z</time>
      </trkpt>
      <trkpt lat="48.66861" lon="-2.33596">
        <ele>43</ele>
        <time>2020-06-24T08:37:01.025Z</time>
      </trkpt>
      <trkpt lat="48.66862" lon="-2.33594">
        <ele>43</ele>
        <time>2020-06-24T08:37:02.025Z</time>
      </trkpt>
      <trkpt lat="48.66862" lon="-2.33593">
        <ele>43</ele>
        <time>2020-06-24T08:37:03.025Z</time>
      </trkpt>
      <trkpt lat="48.66863" lon="-2.33591">
        <ele>43</ele>
        <time>2020-06-24T08:37:04.025Z</time>
      </trkpt>
      <trkpt lat="48.66864" lon="-2.3359">
        <ele>43</ele>
        <time>2020-06-24T08:37:05.025Z</time>
      </trkpt>
      <trkpt lat="48.66865" lon="-2.33588">
        <ele>43</ele>
        <time>2020-06-24T08:37:06.025Z</time>
      </trkpt>
      <trkpt lat="48.66865" lon="-2.33586">
        <ele>43</ele>
        <time>2020-06-24T08:37:07.025Z</time>
      </trkpt>
      <trkpt lat="48.66866" lon="-2.33584">
        <ele>43</ele>
        <time>2020-06-24T08:37:08.025Z</time>
      </trkpt>
      <trkpt lat="48.66867" lon="-2.33583">
        <ele>43</ele>
        <time>2020-06-24T08:37:09.025Z</time>
      </trkpt>
      <trkpt lat="48.66868" lon="-2.33581">
        <ele>42</ele>
        <time>2020-06-24T08:37:10.025Z</time>
      </trkpt>
      <trkpt lat="48.66869" lon="-2.3358">
        <ele>42</ele>
        <time>2020-06-24T08:37:11.025Z</time>
      </trkpt>
      <trkpt lat="48.6687" lon="-2.33578">
        <ele>42</ele>
        <time>2020-06-24T08:37:12.025Z</time>
      </trkpt>
      <trkpt lat="48.6687" lon="-2.33577">
        <ele>42</ele>
        <time>2020-06-24T08:37:13.025Z</time>
      </trkpt>
      <trkpt lat="48.66871" lon="-2.33575">
        <ele>42</ele>
        <time>2020-06-24T08:37:14.025Z</time>
      </trkpt>
      <trkpt lat="48.66872" lon="-2.33574">
        <ele>42</ele>
        <time>2020-06-24T08:37:15.025Z</time>
      </trkpt>
      <trkpt lat="48.66873" lon="-2.33572">
        <ele>42</ele>
        <time>2020-06-24T08:37:16.025Z</time>
      </trkpt>
      <trkpt lat="48.66873" lon="-2.3357">
        <ele>42</ele>
        <time>2020-06-24T08:37:17.025Z</time>
      </trkpt>
      <trkpt lat="48.66874" lon="-2.33568">
        <ele>42</ele>
        <time>2020-06-24T08:37:18.025Z</time>
      </trkpt>
      <trkpt lat="48.66875" lon="-2.33566">
        <ele>42</ele>
        <time>2020-06-24T08:37:19.025Z</time>
      </trkpt>
      <trkpt lat="48.66876" lon="-2.33565">
        <ele>42</ele>
        <time>2020-06-24T08:37:20.025Z</time>
      </trkpt>
      <trkpt lat="48.66876" lon="-2.33563">
        <ele>42</ele>
        <time>2020-06-24T08:37:21.025Z</time>
      </trkpt>
      <trkpt lat="48.66877" lon="-2.33561">
        <ele>42</ele>
        <time>2020-06-24T08:37:22.025Z</time>
      </trkpt>
      <trkpt lat="48.66878" lon="-2.3356">
        <ele>42</ele>
        <time>2020-06-24T08:37:23.025Z</time>
      </trkpt>
      <trkpt lat="48.66878" lon="-2.33558">
        <ele>42</ele>
        <time>2020-06-24T08:37:24.025Z</time>
      </trkpt>
      <trkpt lat="48.66879" lon="-2.33557">
        <ele>42</ele>
        <time>2020-06-24T08:37:25.025Z</time>
      </trkpt>
      <trkpt lat="48.6688" lon="-2.33555">
        <ele>42</ele>
        <time>2020-06-24T08:37:26.025Z</time>
      </trkpt>
      <trkpt lat="48.6688" lon="-2.33554">
        <ele>42</ele>
        <time>2020-06-24T08:37:27.025Z</time>
      </trkpt>
      <trkpt lat="48.66881" lon="-2.33552">
        <ele>42</ele>
        <time>2020-06-24T08:37:28.025Z</time>
      </trkpt>
      <trkpt lat="48.66882" lon="-2.33551">
        <ele>42</ele>
        <time>2020-06-24T08:37:29.025Z</time>
      </trkpt>
      <trkpt lat="48.66883" lon="-2.3355">
        <ele>42</ele>
        <time>2020-06-24T08:37:30.025Z</time>
      </trkpt>
      <trkpt lat="48.66884" lon="-2.3355">
        <ele>42</ele>
        <time>2020-06-24T08:37:31.025Z</time>
      </trkpt>
      <trkpt lat="48.66886" lon="-2.33549">
        <ele>42</ele>
        <time>2020-06-24T08:37:32.025Z</time>
      </trkpt>
      <trkpt lat="48.66887" lon="-2.33549">
        <ele>42</ele>
        <time>2020-06-24T08:37:33.025Z</time>
      </trkpt>
      <trkpt lat="48.66888" lon="-2.33549">
        <ele>42</ele>
        <time>2020-06-24T08:37:34.025Z</time>
      </trkpt>
      <trkpt lat="48.6689" lon="-2.33549">
        <ele>42</ele>
        <time>2020-06-24T08:37:35.025Z</time>
      </trkpt>
      <trkpt lat="48.66891" lon="-2.33549">
        <ele>42</ele>
        <time>2020-06-24T08:37:36.025Z</time>
      </trkpt>
      <trkpt lat="48.66892" lon="-2.33549">
        <ele>42</ele>
        <time>2020-06-24T08:37:37.025Z</time>
      </trkpt>
      <trkpt lat="48.66893" lon="-2.33549">
        <ele>42</ele>
        <time>2020-06-24T08:37:38.025Z</time>
      </trkpt>
      <trkpt lat="48.66895" lon="-2.3355">
        <ele>42</ele>
        <time>2020-06-24T08:37:39.025Z</time>
      </trkpt>
      <trkpt lat="48.66896" lon="-2.3355">
        <ele>42</ele>
        <time>2020-06-24T08:37:40.025Z</time>
      </trkpt>
      <trkpt lat="48.66897" lon="-2.33551">
        <ele>42</ele>
        <time>2020-06-24T08:37:41.025Z</time>
      </trkpt>
      <trkpt lat="48.66898" lon="-2.33551">
        <ele>42</ele>
        <time>2020-06-24T08:37:42.025Z</time>
      </trkpt>
      <trkpt lat="48.669" lon="-2.33552">
        <ele>42</ele>
        <time>2020-06-24T08:37:43.025Z</time>
      </trkpt>
      <trkpt lat="48.66901" lon="-2.33552">
        <ele>42</ele>
        <time>2020-06-24T08:37:44.025Z</time>
      </trkpt>
      <trkpt lat="48.66902" lon="-2.33553">
        <ele>42</ele>
        <time>2020-06-24T08:37:45.025Z</time>
      </trkpt>
      <trkpt lat="48.66904" lon="-2.33553">
        <ele>42</ele>
        <time>2020-06-24T08:37:46.025Z</time>
      </trkpt>
      <trkpt lat="48.66905" lon="-2.33554">
        <ele>42</ele>
        <time>2020-06-24T08:37:47.025Z</time>
      </trkpt>
      <trkpt lat="48.66906" lon="-2.33554">
        <ele>43</ele>
        <time>2020-06-24T08:37:48.025Z</time>
      </trkpt>
      <trkpt lat="48.66908" lon="-2.33554">
        <ele>43</ele>
        <time>2020-06-24T08:37:49.025Z</time>
      </trkpt>
      <trkpt lat="48.66909" lon="-2.33554">
        <ele>43</ele>
        <time>2020-06-24T08:37:50.025Z</time>
      </trkpt>
      <trkpt lat="48.6691" lon="-2.33555">
        <ele>43</ele>
        <time>2020-06-24T08:37:51.025Z</time>
      </trkpt>
      <trkpt lat="48.66912" lon="-2.33555">
        <ele>43</ele>
        <time>2020-06-24T08:37:52.025Z</time>
      </trkpt>
      <trkpt lat="48.66913" lon="-2.33555">
        <ele>43</ele>
        <time>2020-06-24T08:37:53.025Z</time>
      </trkpt>
      <trkpt lat="48.66914" lon="-2.33555">
        <ele>43</ele>
        <time>2020-06-24T08:37:54.025Z</time>
      </trkpt>
      <trkpt lat="48.66915" lon="-2.33554">
        <ele>43</ele>
        <time>2020-06-24T08:37:55.025Z</time>
      </trkpt>
      <trkpt lat="48.66916" lon="-2.33554">
        <ele>43</ele>
        <time>2020-06-24T08:37:56.025Z</time>
      </trkpt>
      <trkpt lat="48.66918" lon="-2.33553">
        <ele>43</ele>
        <time>2020-06-24T08:37:57.025Z</time>
      </trkpt>
      <trkpt lat="48.66919" lon="-2.33553">
        <ele>43</ele>
        <time>2020-06-24T08:37:58.025Z</time>
      </trkpt>
      <trkpt lat="48.6692" lon="-2.33552">
        <ele>43</ele>
        <time>2020-06-24T08:37:59.025Z</time>
      </trkpt>
      <trkpt lat="48.66921" lon="-2.33551">
        <ele>43</ele>
        <time>2020-06-24T08:38:00.025Z</time>
      </trkpt>
      <trkpt lat="48.66922" lon="-2.3355">
        <ele>42</ele>
        <time>2020-06-24T08:38:01.025Z</time>
      </trkpt>
      <trkpt lat="48.66923" lon="-2.33548">
        <ele>42</ele>
        <time>2020-06-24T08:38:02.025Z</time>
      </trkpt>
      <trkpt lat="48.66925" lon="-2.33547">
        <ele>43</ele>
        <time>2020-06-24T08:38:03.025Z</time>
      </trkpt>
      <trkpt lat="48.66926" lon="-2.33546">
        <ele>43</ele>
        <time>2020-06-24T08:38:04.025Z</time>
      </trkpt>
      <trkpt lat="48.66927" lon="-2.33545">
        <ele>43</ele>
        <time>2020-06-24T08:38:05.025Z</time>
      </trkpt>
      <trkpt lat="48.66928" lon="-2.33544">
        <ele>42</ele>
        <time>2020-06-24T08:38:06.025Z</time>
      </trkpt>
      <trkpt lat="48.66929" lon="-2.33543">
        <ele>42</ele>
        <time>2020-06-24T08:38:07.025Z</time>
      </trkpt>
      <trkpt lat="48.6693" lon="-2.33542">
        <ele>42</ele>
        <time>2020-06-24T08:38:08.025Z</time>
      </trkpt>
      <trkpt lat="48.66931" lon="-2.3354">
        <ele>42</ele>
        <time>2020-06-24T08:38:09.025Z</time>
      </trkpt>
      <trkpt lat="48.66932" lon="-2.33539">
        <ele>42</ele>
        <time>2020-06-24T08:38:10.025Z</time>
      </trkpt>
      <trkpt lat="48.66933" lon="-2.33539">
        <ele>42</ele>
        <time>2020-06-24T08:38:11.025Z</time>
      </trkpt>
      <trkpt lat="48.66933" lon="-2.33538">
        <ele>41</ele>
        <time>2020-06-24T08:38:12.025Z</time>
      </trkpt>
      <trkpt lat="48.66933" lon="-2.33538">
        <ele>41</ele>
        <time>2020-06-24T08:38:13.025Z</time>
      </trkpt>
      <trkpt lat="48.66933" lon="-2.33538">
        <ele>42</ele>
        <time>2020-06-24T08:38:14.025Z</time>
      </trkpt>
      <trkpt lat="48.66933" lon="-2.33538">
        <ele>42</ele>
        <time>2020-06-24T08:38:15.025Z</time>
      </trkpt>
      <trkpt lat="48.66933" lon="-2.33538">
        <ele>42</ele>
        <time>2020-06-24T08:38:16.025Z</time>
      </trkpt>
      <trkpt lat="48.66933" lon="-2.33538">
        <ele>42</ele>
        <time>2020-06-24T08:38:17.025Z</time>
      </trkpt>
      <trkpt lat="48.66933" lon="-2.33538">
        <ele>43</ele>
        <time>2020-06-24T08:38:18.025Z</time>
      </trkpt>
      <trkpt lat="48.66935" lon="-2.33535">
        <ele>42</ele>
        <time>2020-06-24T08:38:19.029Z</time>
      </trkpt>
      <trkpt lat="48.66936" lon="-2.33534">
        <ele>42</ele>
        <time>2020-06-24T08:38:20.029Z</time>
      </trkpt>
      <trkpt lat="48.66937" lon="-2.33533">
        <ele>42</ele>
        <time>2020-06-24T08:38:21.029Z</time>
      </trkpt>
      <trkpt lat="48.66938" lon="-2.33532">
        <ele>42</ele>
        <time>2020-06-24T08:38:22.029Z</time>
      </trkpt>
      <trkpt lat="48.6694" lon="-2.33531">
        <ele>42</ele>
        <time>2020-06-24T08:38:23.029Z</time>
      </trkpt>
      <trkpt lat="48.66941" lon="-2.3353">
        <ele>43</ele>
        <time>2020-06-24T08:38:24.029Z</time>
      </trkpt>
      <trkpt lat="48.66942" lon="-2.33529">
        <ele>43</ele>
        <time>2020-06-24T08:38:25.029Z</time>
      </trkpt>
      <trkpt lat="48.66943" lon="-2.33528">
        <ele>43</ele>
        <time>2020-06-24T08:38:26.029Z</time>
      </trkpt>
      <trkpt lat="48.66944" lon="-2.33527">
        <ele>43</ele>
        <time>2020-06-24T08:38:27.029Z</time>
      </trkpt>
      <trkpt lat="48.66945" lon="-2.33526">
        <ele>43</ele>
        <time>2020-06-24T08:38:28.029Z</time>
      </trkpt>
      <trkpt lat="48.66946" lon="-2.33525">
        <ele>43</ele>
        <time>2020-06-24T08:38:29.029Z</time>
      </trkpt>
      <trkpt lat="48.66947" lon="-2.33524">
        <ele>43</ele>
        <time>2020-06-24T08:38:30.029Z</time>
      </trkpt>
      <trkpt lat="48.66948" lon="-2.33523">
        <ele>43</ele>
        <time>2020-06-24T08:38:31.029Z</time>
      </trkpt>
      <trkpt lat="48.66949" lon="-2.33522">
        <ele>43</ele>
        <time>2020-06-24T08:38:32.029Z</time>
      </trkpt>
      <trkpt lat="48.6695" lon="-2.33521">
        <ele>43</ele>
        <time>2020-06-24T08:38:33.029Z</time>
      </trkpt>
      <trkpt lat="48.66951" lon="-2.3352">
        <ele>43</ele>
        <time>2020-06-24T08:38:34.029Z</time>
      </trkpt>
      <trkpt lat="48.66952" lon="-2.33519">
        <ele>43</ele>
        <time>2020-06-24T08:38:35.029Z</time>
      </trkpt>
      <trkpt lat="48.66953" lon="-2.33518">
        <ele>43</ele>
        <time>2020-06-24T08:38:36.029Z</time>
      </trkpt>
      <trkpt lat="48.66954" lon="-2.33517">
        <ele>43</ele>
        <time>2020-06-24T08:38:37.029Z</time>
      </trkpt>
      <trkpt lat="48.66956" lon="-2.33516">
        <ele>44</ele>
        <time>2020-06-24T08:38:38.029Z</time>
      </trkpt>
      <trkpt lat="48.66957" lon="-2.33515">
        <ele>44</ele>
        <time>2020-06-24T08:38:39.029Z</time>
      </trkpt>
      <trkpt lat="48.66958" lon="-2.33514">
        <ele>44</ele>
        <time>2020-06-24T08:38:40.029Z</time>
      </trkpt>
      <trkpt lat="48.66959" lon="-2.33513">
        <ele>43</ele>
        <time>2020-06-24T08:38:41.029Z</time>
      </trkpt>
      <trkpt lat="48.6696" lon="-2.33512">
        <ele>43</ele>
        <time>2020-06-24T08:38:42.029Z</time>
      </trkpt>
      <trkpt lat="48.66961" lon="-2.33511">
        <ele>43</ele>
        <time>2020-06-24T08:38:43.029Z</time>
      </trkpt>
      <trkpt lat="48.66962" lon="-2.3351">
        <ele>43</ele>
        <time>2020-06-24T08:38:44.029Z</time>
      </trkpt>
      <trkpt lat="48.66963" lon="-2.33509">
        <ele>44</ele>
        <time>2020-06-24T08:38:45.029Z</time>
      </trkpt>
      <trkpt lat="48.66964" lon="-2.33507">
        <ele>44</ele>
        <time>2020-06-24T08:38:46.029Z</time>
      </trkpt>
      <trkpt lat="48.66965" lon="-2.33506">
        <ele>44</ele>
        <time>2020-06-24T08:38:47.029Z</time>
      </trkpt>
      <trkpt lat="48.66966" lon="-2.33505">
        <ele>44</ele>
        <time>2020-06-24T08:38:48.029Z</time>
      </trkpt>
      <trkpt lat="48.66968" lon="-2.33504">
        <ele>44</ele>
        <time>2020-06-24T08:38:49.029Z</time>
      </trkpt>
      <trkpt lat="48.66969" lon="-2.33503">
        <ele>44</ele>
        <time>2020-06-24T08:38:50.029Z</time>
      </trkpt>
      <trkpt lat="48.6697" lon="-2.33503">
        <ele>44</ele>
        <time>2020-06-24T08:38:51.029Z</time>
      </trkpt>
      <trkpt lat="48.66971" lon="-2.33502">
        <ele>44</ele>
        <time>2020-06-24T08:38:52.029Z</time>
      </trkpt>
      <trkpt lat="48.66972" lon="-2.33501">
        <ele>44</ele>
        <time>2020-06-24T08:38:53.029Z</time>
      </trkpt>
      <trkpt lat="48.66973" lon="-2.335">
        <ele>44</ele>
        <time>2020-06-24T08:38:54.029Z</time>
      </trkpt>
      <trkpt lat="48.66974" lon="-2.33499">
        <ele>44</ele>
        <time>2020-06-24T08:38:55.029Z</time>
      </trkpt>
      <trkpt lat="48.66975" lon="-2.33499">
        <ele>44</ele>
        <time>2020-06-24T08:38:56.029Z</time>
      </trkpt>
      <trkpt lat="48.66975" lon="-2.33498">
        <ele>44</ele>
        <time>2020-06-24T08:38:57.029Z</time>
      </trkpt>
      <trkpt lat="48.66976" lon="-2.33498">
        <ele>44</ele>
        <time>2020-06-24T08:38:58.029Z</time>
      </trkpt>
      <trkpt lat="48.66976" lon="-2.33498">
        <ele>45</ele>
        <time>2020-06-24T08:38:59.029Z</time>
      </trkpt>
      <trkpt lat="48.66976" lon="-2.33498">
        <ele>45</ele>
        <time>2020-06-24T08:39:00.029Z</time>
      </trkpt>
      <trkpt lat="48.66976" lon="-2.33498">
        <ele>45</ele>
        <time>2020-06-24T08:39:01.029Z</time>
      </trkpt>
      <trkpt lat="48.66975" lon="-2.33498">
        <ele>45</ele>
        <time>2020-06-24T08:39:02.029Z</time>
      </trkpt>
      <trkpt lat="48.66975" lon="-2.33498">
        <ele>45</ele>
        <time>2020-06-24T08:39:03.029Z</time>
      </trkpt>
      <trkpt lat="48.66975" lon="-2.33498">
        <ele>45</ele>
        <time>2020-06-24T08:39:04.029Z</time>
      </trkpt>
      <trkpt lat="48.66974" lon="-2.33498">
        <ele>45</ele>
        <time>2020-06-24T08:39:05.033Z</time>
      </trkpt>
      <trkpt lat="48.66975" lon="-2.33497">
        <ele>44</ele>
        <time>2020-06-24T08:39:06.033Z</time>
      </trkpt>
      <trkpt lat="48.66975" lon="-2.33496">
        <ele>44</ele>
        <time>2020-06-24T08:39:07.033Z</time>
      </trkpt>
      <trkpt lat="48.66976" lon="-2.33494">
        <ele>44</ele>
        <time>2020-06-24T08:39:08.033Z</time>
      </trkpt>
      <trkpt lat="48.66977" lon="-2.33493">
        <ele>44</ele>
        <time>2020-06-24T08:39:09.033Z</time>
      </trkpt>
      <trkpt lat="48.66977" lon="-2.33491">
        <ele>44</ele>
        <time>2020-06-24T08:39:10.033Z</time>
      </trkpt>
      <trkpt lat="48.66978" lon="-2.3349">
        <ele>44</ele>
        <time>2020-06-24T08:39:11.033Z</time>
      </trkpt>
      <trkpt lat="48.66978" lon="-2.33488">
        <ele>44</ele>
        <time>2020-06-24T08:39:12.033Z</time>
      </trkpt>
      <trkpt lat="48.66979" lon="-2.33486">
        <ele>44</ele>
        <time>2020-06-24T08:39:13.033Z</time>
      </trkpt>
      <trkpt lat="48.66979" lon="-2.33484">
        <ele>44</ele>
        <time>2020-06-24T08:39:14.033Z</time>
      </trkpt>
      <trkpt lat="48.66979" lon="-2.33482">
        <ele>44</ele>
        <time>2020-06-24T08:39:15.033Z</time>
      </trkpt>
      <trkpt lat="48.66979" lon="-2.3348">
        <ele>44</ele>
        <time>2020-06-24T08:39:16.033Z</time>
      </trkpt>
      <trkpt lat="48.66979" lon="-2.33478">
        <ele>44</ele>
        <time>2020-06-24T08:39:17.033Z</time>
      </trkpt>
      <trkpt lat="48.6698" lon="-2.33476">
        <ele>44</ele>
        <time>2020-06-24T08:39:18.033Z</time>
      </trkpt>
      <trkpt lat="48.6698" lon="-2.33474">
        <ele>44</ele>
        <time>2020-06-24T08:39:19.033Z</time>
      </trkpt>
      <trkpt lat="48.6698" lon="-2.33473">
        <ele>44</ele>
        <time>2020-06-24T08:39:20.033Z</time>
      </trkpt>
      <trkpt lat="48.6698" lon="-2.33471">
        <ele>44</ele>
        <time>2020-06-24T08:39:21.033Z</time>
      </trkpt>
      <trkpt lat="48.6698" lon="-2.33469">
        <ele>44</ele>
        <time>2020-06-24T08:39:22.033Z</time>
      </trkpt>
      <trkpt lat="48.6698" lon="-2.33467">
        <ele>44</ele>
        <time>2020-06-24T08:39:23.033Z</time>
      </trkpt>
      <trkpt lat="48.66981" lon="-2.33466">
        <ele>44</ele>
        <time>2020-06-24T08:39:24.033Z</time>
      </trkpt>
      <trkpt lat="48.66981" lon="-2.33464">
        <ele>44</ele>
        <time>2020-06-24T08:39:25.033Z</time>
      </trkpt>
      <trkpt lat="48.66981" lon="-2.33462">
        <ele>45</ele>
        <time>2020-06-24T08:39:26.033Z</time>
      </trkpt>
      <trkpt lat="48.66981" lon="-2.3346">
        <ele>45</ele>
        <time>2020-06-24T08:39:27.033Z</time>
      </trkpt>
      <trkpt lat="48.66981" lon="-2.33458">
        <ele>45</ele>
        <time>2020-06-24T08:39:28.033Z</time>
      </trkpt>
      <trkpt lat="48.66981" lon="-2.33456">
        <ele>45</ele>
        <time>2020-06-24T08:39:29.033Z</time>
      </trkpt>
      <trkpt lat="48.66982" lon="-2.33454">
        <ele>45</ele>
        <time>2020-06-24T08:39:30.033Z</time>
      </trkpt>
      <trkpt lat="48.66982" lon="-2.33452">
        <ele>45</ele>
        <time>2020-06-24T08:39:31.033Z</time>
      </trkpt>
      <trkpt lat="48.66982" lon="-2.3345">
        <ele>45</ele>
        <time>2020-06-24T08:39:32.033Z</time>
      </trkpt>
      <trkpt lat="48.66982" lon="-2.33448">
        <ele>45</ele>
        <time>2020-06-24T08:39:33.033Z</time>
      </trkpt>
      <trkpt lat="48.66982" lon="-2.33446">
        <ele>46</ele>
        <time>2020-06-24T08:39:34.033Z</time>
      </trkpt>
      <trkpt lat="48.66982" lon="-2.33445">
        <ele>46</ele>
        <time>2020-06-24T08:39:35.033Z</time>
      </trkpt>
      <trkpt lat="48.66982" lon="-2.33443">
        <ele>46</ele>
        <time>2020-06-24T08:39:36.033Z</time>
      </trkpt>
      <trkpt lat="48.66982" lon="-2.33441">
        <ele>46</ele>
        <time>2020-06-24T08:39:37.033Z</time>
      </trkpt>
      <trkpt lat="48.66983" lon="-2.33439">
        <ele>46</ele>
        <time>2020-06-24T08:39:38.033Z</time>
      </trkpt>
      <trkpt lat="48.66983" lon="-2.33437">
        <ele>46</ele>
        <time>2020-06-24T08:39:39.033Z</time>
      </trkpt>
      <trkpt lat="48.66984" lon="-2.33435">
        <ele>46</ele>
        <time>2020-06-24T08:39:40.033Z</time>
      </trkpt>
      <trkpt lat="48.66984" lon="-2.33433">
        <ele>46</ele>
        <time>2020-06-24T08:39:41.033Z</time>
      </trkpt>
      <trkpt lat="48.66984" lon="-2.33431">
        <ele>46</ele>
        <time>2020-06-24T08:39:42.033Z</time>
      </trkpt>
      <trkpt lat="48.66984" lon="-2.33429">
        <ele>46</ele>
        <time>2020-06-24T08:39:43.033Z</time>
      </trkpt>
      <trkpt lat="48.66984" lon="-2.33427">
        <ele>46</ele>
        <time>2020-06-24T08:39:44.033Z</time>
      </trkpt>
      <trkpt lat="48.66984" lon="-2.33425">
        <ele>46</ele>
        <time>2020-06-24T08:39:45.033Z</time>
      </trkpt>
      <trkpt lat="48.66984" lon="-2.33423">
        <ele>46</ele>
        <time>2020-06-24T08:39:46.033Z</time>
      </trkpt>
      <trkpt lat="48.66984" lon="-2.33421">
        <ele>46</ele>
        <time>2020-06-24T08:39:47.033Z</time>
      </trkpt>
      <trkpt lat="48.66984" lon="-2.33419">
        <ele>46</ele>
        <time>2020-06-24T08:39:48.033Z</time>
      </trkpt>
      <trkpt lat="48.66983" lon="-2.33417">
        <ele>46</ele>
        <time>2020-06-24T08:39:49.033Z</time>
      </trkpt>
      <trkpt lat="48.66984" lon="-2.33415">
        <ele>46</ele>
        <time>2020-06-24T08:39:50.033Z</time>
      </trkpt>
      <trkpt lat="48.66984" lon="-2.33414">
        <ele>46</ele>
        <time>2020-06-24T08:39:51.033Z</time>
      </trkpt>
      <trkpt lat="48.66985" lon="-2.33412">
        <ele>46</ele>
        <time>2020-06-24T08:39:52.033Z</time>
      </trkpt>
      <trkpt lat="48.66986" lon="-2.33412">
        <ele>46</ele>
        <time>2020-06-24T08:39:53.033Z</time>
      </trkpt>
      <trkpt lat="48.66987" lon="-2.33411">
        <ele>46</ele>
        <time>2020-06-24T08:39:54.033Z</time>
      </trkpt>
      <trkpt lat="48.66988" lon="-2.33411">
        <ele>46</ele>
        <time>2020-06-24T08:39:55.033Z</time>
      </trkpt>
      <trkpt lat="48.6699" lon="-2.3341">
        <ele>46</ele>
        <time>2020-06-24T08:39:56.033Z</time>
      </trkpt>
      <trkpt lat="48.66991" lon="-2.3341">
        <ele>46</ele>
        <time>2020-06-24T08:39:57.033Z</time>
      </trkpt>
      <trkpt lat="48.66992" lon="-2.3341">
        <ele>46</ele>
        <time>2020-06-24T08:39:58.033Z</time>
      </trkpt>
      <trkpt lat="48.66994" lon="-2.3341">
        <ele>46</ele>
        <time>2020-06-24T08:39:59.033Z</time>
      </trkpt>
      <trkpt lat="48.66995" lon="-2.3341">
        <ele>46</ele>
        <time>2020-06-24T08:40:00.033Z</time>
      </trkpt>
      <trkpt lat="48.66996" lon="-2.3341">
        <ele>46</ele>
        <time>2020-06-24T08:40:01.033Z</time>
      </trkpt>
      <trkpt lat="48.66997" lon="-2.3341">
        <ele>46</ele>
        <time>2020-06-24T08:40:02.033Z</time>
      </trkpt>
      <trkpt lat="48.66998" lon="-2.33409">
        <ele>46</ele>
        <time>2020-06-24T08:40:03.033Z</time>
      </trkpt>
      <trkpt lat="48.66999" lon="-2.33409">
        <ele>46</ele>
        <time>2020-06-24T08:40:04.033Z</time>
      </trkpt>
      <trkpt lat="48.67001" lon="-2.33408">
        <ele>46</ele>
        <time>2020-06-24T08:40:05.033Z</time>
      </trkpt>
      <trkpt lat="48.67002" lon="-2.33408">
        <ele>46</ele>
        <time>2020-06-24T08:40:06.033Z</time>
      </trkpt>
      <trkpt lat="48.67003" lon="-2.33407">
        <ele>46</ele>
        <time>2020-06-24T08:40:07.033Z</time>
      </trkpt>
      <trkpt lat="48.67004" lon="-2.33406">
        <ele>46</ele>
        <time>2020-06-24T08:40:08.033Z</time>
      </trkpt>
      <trkpt lat="48.67006" lon="-2.33406">
        <ele>46</ele>
        <time>2020-06-24T08:40:09.033Z</time>
      </trkpt>
      <trkpt lat="48.67007" lon="-2.33406">
        <ele>47</ele>
        <time>2020-06-24T08:40:10.033Z</time>
      </trkpt>
      <trkpt lat="48.67008" lon="-2.33406">
        <ele>47</ele>
        <time>2020-06-24T08:40:11.033Z</time>
      </trkpt>
      <trkpt lat="48.67009" lon="-2.33406">
        <ele>47</ele>
        <time>2020-06-24T08:40:12.033Z</time>
      </trkpt>
      <trkpt lat="48.67011" lon="-2.33406">
        <ele>47</ele>
        <time>2020-06-24T08:40:13.033Z</time>
      </trkpt>
      <trkpt lat="48.67012" lon="-2.33406">
        <ele>47</ele>
        <time>2020-06-24T08:40:14.033Z</time>
      </trkpt>
      <trkpt lat="48.67013" lon="-2.33405">
        <ele>47</ele>
        <time>2020-06-24T08:40:15.033Z</time>
      </trkpt>
      <trkpt lat="48.67014" lon="-2.33405">
        <ele>47</ele>
        <time>2020-06-24T08:40:16.033Z</time>
      </trkpt>
      <trkpt lat="48.67016" lon="-2.33406">
        <ele>47</ele>
        <time>2020-06-24T08:40:17.033Z</time>
      </trkpt>
      <trkpt lat="48.67017" lon="-2.33406">
        <ele>47</ele>
        <time>2020-06-24T08:40:18.033Z</time>
      </trkpt>
      <trkpt lat="48.67018" lon="-2.33406">
        <ele>46</ele>
        <time>2020-06-24T08:40:19.033Z</time>
      </trkpt>
      <trkpt lat="48.67019" lon="-2.33406">
        <ele>46</ele>
        <time>2020-06-24T08:40:20.033Z</time>
      </trkpt>
      <trkpt lat="48.6702" lon="-2.33407">
        <ele>46</ele>
        <time>2020-06-24T08:40:21.033Z</time>
      </trkpt>
      <trkpt lat="48.67021" lon="-2.33407">
        <ele>46</ele>
        <time>2020-06-24T08:40:22.033Z</time>
      </trkpt>
      <trkpt lat="48.67022" lon="-2.33407">
        <ele>46</ele>
        <time>2020-06-24T08:40:23.033Z</time>
      </trkpt>
      <trkpt lat="48.67023" lon="-2.33407">
        <ele>46</ele>
        <time>2020-06-24T08:40:24.033Z</time>
      </trkpt>
      <trkpt lat="48.67024" lon="-2.33407">
        <ele>46</ele>
        <time>2020-06-24T08:40:25.033Z</time>
      </trkpt>
      <trkpt lat="48.67024" lon="-2.33408">
        <ele>46</ele>
        <time>2020-06-24T08:40:26.033Z</time>
      </trkpt>
      <trkpt lat="48.67025" lon="-2.33408">
        <ele>45</ele>
        <time>2020-06-24T08:40:27.033Z</time>
      </trkpt>
      <trkpt lat="48.67024" lon="-2.33409">
        <ele>45</ele>
        <time>2020-06-24T08:40:28.033Z</time>
      </trkpt>
      <trkpt lat="48.67024" lon="-2.33411">
        <ele>45</ele>
        <time>2020-06-24T08:40:29.033Z</time>
      </trkpt>
      <trkpt lat="48.67024" lon="-2.33412">
        <ele>45</ele>
        <time>2020-06-24T08:40:30.033Z</time>
      </trkpt>
      <trkpt lat="48.67024" lon="-2.33414">
        <ele>45</ele>
        <time>2020-06-24T08:40:31.033Z</time>
      </trkpt>
      <trkpt lat="48.67024" lon="-2.33416">
        <ele>44</ele>
        <time>2020-06-24T08:40:32.033Z</time>
      </trkpt>
      <trkpt lat="48.67024" lon="-2.33418">
        <ele>44</ele>
        <time>2020-06-24T08:40:33.033Z</time>
      </trkpt>
      <trkpt lat="48.67025" lon="-2.33419">
        <ele>44</ele>
        <time>2020-06-24T08:40:34.033Z</time>
      </trkpt>
      <trkpt lat="48.67026" lon="-2.3342">
        <ele>43</ele>
        <time>2020-06-24T08:40:35.033Z</time>
      </trkpt>
      <trkpt lat="48.67027" lon="-2.33421">
        <ele>43</ele>
        <time>2020-06-24T08:40:36.033Z</time>
      </trkpt>
      <trkpt lat="48.67028" lon="-2.33422">
        <ele>43</ele>
        <time>2020-06-24T08:40:37.033Z</time>
      </trkpt>
      <trkpt lat="48.67029" lon="-2.33423">
        <ele>43</ele>
        <time>2020-06-24T08:40:38.033Z</time>
      </trkpt>
      <trkpt lat="48.67029" lon="-2.33424">
        <ele>43</ele>
        <time>2020-06-24T08:40:39.033Z</time>
      </trkpt>
      <trkpt lat="48.6703" lon="-2.33425">
        <ele>43</ele>
        <time>2020-06-24T08:40:40.033Z</time>
      </trkpt>
      <trkpt lat="48.6703" lon="-2.33427">
        <ele>43</ele>
        <time>2020-06-24T08:40:41.033Z</time>
      </trkpt>
      <trkpt lat="48.67031" lon="-2.33427">
        <ele>43</ele>
        <time>2020-06-24T08:40:42.033Z</time>
      </trkpt>
      <trkpt lat="48.6703" lon="-2.33427">
        <ele>43</ele>
        <time>2020-06-24T08:40:43.033Z</time>
      </trkpt>
      <trkpt lat="48.6703" lon="-2.33427">
        <ele>43</ele>
        <time>2020-06-24T08:40:44.033Z</time>
      </trkpt>
      <trkpt lat="48.6703" lon="-2.33428">
        <ele>43</ele>
        <time>2020-06-24T08:40:45.033Z</time>
      </trkpt>
      <trkpt lat="48.6703" lon="-2.33427">
        <ele>43</ele>
        <time>2020-06-24T08:40:46.033Z</time>
      </trkpt>
      <trkpt lat="48.6703" lon="-2.33427">
        <ele>43</ele>
        <time>2020-06-24T08:40:47.033Z</time>
      </trkpt>
      <trkpt lat="48.6703" lon="-2.33427">
        <ele>43</ele>
        <time>2020-06-24T08:40:48.033Z</time>
      </trkpt>
      <trkpt lat="48.6703" lon="-2.33427">
        <ele>43</ele>
        <time>2020-06-24T08:40:49.033Z</time>
      </trkpt>
      <trkpt lat="48.6703" lon="-2.33427">
        <ele>44</ele>
        <time>2020-06-24T08:40:50.033Z</time>
      </trkpt>
      <trkpt lat="48.6703" lon="-2.33427">
        <ele>44</ele>
        <time>2020-06-24T08:40:51.033Z</time>
      </trkpt>
      <trkpt lat="48.67033" lon="-2.3343">
        <ele>43</ele>
        <time>2020-06-24T08:40:52.037Z</time>
      </trkpt>
      <trkpt lat="48.67034" lon="-2.33431">
        <ele>42</ele>
        <time>2020-06-24T08:40:53.037Z</time>
      </trkpt>
      <trkpt lat="48.67035" lon="-2.33432">
        <ele>42</ele>
        <time>2020-06-24T08:40:54.037Z</time>
      </trkpt>
      <trkpt lat="48.67036" lon="-2.33433">
        <ele>42</ele>
        <time>2020-06-24T08:40:55.037Z</time>
      </trkpt>
      <trkpt lat="48.67037" lon="-2.33433">
        <ele>42</ele>
        <time>2020-06-24T08:40:56.037Z</time>
      </trkpt>
      <trkpt lat="48.67038" lon="-2.33433">
        <ele>42</ele>
        <time>2020-06-24T08:40:57.037Z</time>
      </trkpt>
      <trkpt lat="48.67039" lon="-2.33434">
        <ele>42</ele>
        <time>2020-06-24T08:40:58.037Z</time>
      </trkpt>
      <trkpt lat="48.6704" lon="-2.33434">
        <ele>41</ele>
        <time>2020-06-24T08:40:59.037Z</time>
      </trkpt>
      <trkpt lat="48.67041" lon="-2.33435">
        <ele>41</ele>
        <time>2020-06-24T08:41:00.037Z</time>
      </trkpt>
      <trkpt lat="48.67042" lon="-2.33436">
        <ele>41</ele>
        <time>2020-06-24T08:41:01.037Z</time>
      </trkpt>
      <trkpt lat="48.67043" lon="-2.33436">
        <ele>41</ele>
        <time>2020-06-24T08:41:02.037Z</time>
      </trkpt>
      <trkpt lat="48.67044" lon="-2.33436">
        <ele>41</ele>
        <time>2020-06-24T08:41:03.037Z</time>
      </trkpt>
      <trkpt lat="48.67044" lon="-2.33437">
        <ele>41</ele>
        <time>2020-06-24T08:41:04.037Z</time>
      </trkpt>
      <trkpt lat="48.67044" lon="-2.33437">
        <ele>41</ele>
        <time>2020-06-24T08:41:05.037Z</time>
      </trkpt>
      <trkpt lat="48.67044" lon="-2.33437">
        <ele>41</ele>
        <time>2020-06-24T08:41:06.037Z</time>
      </trkpt>
      <trkpt lat="48.67044" lon="-2.33437">
        <ele>41</ele>
        <time>2020-06-24T08:41:07.037Z</time>
      </trkpt>
      <trkpt lat="48.67044" lon="-2.33438">
        <ele>41</ele>
        <time>2020-06-24T08:41:08.037Z</time>
      </trkpt>
      <trkpt lat="48.67044" lon="-2.33438">
        <ele>41</ele>
        <time>2020-06-24T08:41:09.037Z</time>
      </trkpt>
      <trkpt lat="48.67044" lon="-2.33438">
        <ele>41</ele>
        <time>2020-06-24T08:41:10.037Z</time>
      </trkpt>
      <trkpt lat="48.67043" lon="-2.33436">
        <ele>42</ele>
        <time>2020-06-24T08:41:11.041Z</time>
      </trkpt>
      <trkpt lat="48.67044" lon="-2.33435">
        <ele>42</ele>
        <time>2020-06-24T08:41:12.041Z</time>
      </trkpt>
      <trkpt lat="48.67044" lon="-2.33434">
        <ele>42</ele>
        <time>2020-06-24T08:41:13.041Z</time>
      </trkpt>
      <trkpt lat="48.67045" lon="-2.33432">
        <ele>42</ele>
        <time>2020-06-24T08:41:14.041Z</time>
      </trkpt>
      <trkpt lat="48.67045" lon="-2.33431">
        <ele>42</ele>
        <time>2020-06-24T08:41:15.041Z</time>
      </trkpt>
      <trkpt lat="48.67045" lon="-2.3343">
        <ele>43</ele>
        <time>2020-06-24T08:41:16.041Z</time>
      </trkpt>
      <trkpt lat="48.67045" lon="-2.33429">
        <ele>43</ele>
        <time>2020-06-24T08:41:17.041Z</time>
      </trkpt>
      <trkpt lat="48.67045" lon="-2.33429">
        <ele>43</ele>
        <time>2020-06-24T08:41:18.041Z</time>
      </trkpt>
      <trkpt lat="48.67045" lon="-2.33429">
        <ele>43</ele>
        <time>2020-06-24T08:41:19.041Z</time>
      </trkpt>
      <trkpt lat="48.67045" lon="-2.33429">
        <ele>43</ele>
        <time>2020-06-24T08:41:20.041Z</time>
      </trkpt>
      <trkpt lat="48.67045" lon="-2.33429">
        <ele>43</ele>
        <time>2020-06-24T08:41:21.041Z</time>
      </trkpt>
      <trkpt lat="48.67045" lon="-2.33429">
        <ele>43</ele>
        <time>2020-06-24T08:41:22.041Z</time>
      </trkpt>
      <trkpt lat="48.67045" lon="-2.33429">
        <ele>43</ele>
        <time>2020-06-24T08:41:23.041Z</time>
      </trkpt>
      <trkpt lat="48.67045" lon="-2.3343">
        <ele>43</ele>
        <time>2020-06-24T08:41:24.041Z</time>
      </trkpt>
      <trkpt lat="48.67045" lon="-2.3343">
        <ele>43</ele>
        <time>2020-06-24T08:41:25.041Z</time>
      </trkpt>
      <trkpt lat="48.67044" lon="-2.33431">
        <ele>43</ele>
        <time>2020-06-24T08:41:26.041Z</time>
      </trkpt>
      <trkpt lat="48.67044" lon="-2.33432">
        <ele>43</ele>
        <time>2020-06-24T08:41:27.041Z</time>
      </trkpt>
      <trkpt lat="48.67044" lon="-2.33433">
        <ele>42</ele>
        <time>2020-06-24T08:41:28.041Z</time>
      </trkpt>
      <trkpt lat="48.67043" lon="-2.33435">
        <ele>43</ele>
        <time>2020-06-24T08:41:29.041Z</time>
      </trkpt>
      <trkpt lat="48.67042" lon="-2.33436">
        <ele>43</ele>
        <time>2020-06-24T08:41:30.041Z</time>
      </trkpt>
      <trkpt lat="48.67041" lon="-2.33436">
        <ele>43</ele>
        <time>2020-06-24T08:41:31.041Z</time>
      </trkpt>
      <trkpt lat="48.6704" lon="-2.33436">
        <ele>43</ele>
        <time>2020-06-24T08:41:32.041Z</time>
      </trkpt>
      <trkpt lat="48.67039" lon="-2.33435">
        <ele>43</ele>
        <time>2020-06-24T08:41:33.041Z</time>
      </trkpt>
      <trkpt lat="48.67038" lon="-2.33435">
        <ele>43</ele>
        <time>2020-06-24T08:41:34.041Z</time>
      </trkpt>
      <trkpt lat="48.67037" lon="-2.33434">
        <ele>43</ele>
        <time>2020-06-24T08:41:35.041Z</time>
      </trkpt>
      <trkpt lat="48.67036" lon="-2.33434">
        <ele>43</ele>
        <time>2020-06-24T08:41:36.041Z</time>
      </trkpt>
      <trkpt lat="48.67035" lon="-2.33433">
        <ele>43</ele>
        <time>2020-06-24T08:41:37.041Z</time>
      </trkpt>
      <trkpt lat="48.67034" lon="-2.33433">
        <ele>44</ele>
        <time>2020-06-24T08:41:38.041Z</time>
      </trkpt>
      <trkpt lat="48.67033" lon="-2.33432">
        <ele>44</ele>
        <time>2020-06-24T08:41:39.041Z</time>
      </trkpt>
      <trkpt lat="48.67032" lon="-2.33431">
        <ele>44</ele>
        <time>2020-06-24T08:41:40.041Z</time>
      </trkpt>
      <trkpt lat="48.67031" lon="-2.3343">
        <ele>44</ele>
        <time>2020-06-24T08:41:41.041Z</time>
      </trkpt>
      <trkpt lat="48.67031" lon="-2.33429">
        <ele>44</ele>
        <time>2020-06-24T08:41:42.041Z</time>
      </trkpt>
      <trkpt lat="48.6703" lon="-2.33427">
        <ele>45</ele>
        <time>2020-06-24T08:41:43.041Z</time>
      </trkpt>
      <trkpt lat="48.67029" lon="-2.33426">
        <ele>45</ele>
        <time>2020-06-24T08:41:44.041Z</time>
      </trkpt>
      <trkpt lat="48.67028" lon="-2.33425">
        <ele>45</ele>
        <time>2020-06-24T08:41:45.041Z</time>
      </trkpt>
      <trkpt lat="48.67028" lon="-2.33424">
        <ele>45</ele>
        <time>2020-06-24T08:41:46.041Z</time>
      </trkpt>
      <trkpt lat="48.67027" lon="-2.33423">
        <ele>45</ele>
        <time>2020-06-24T08:41:47.041Z</time>
      </trkpt>
      <trkpt lat="48.67027" lon="-2.33423">
        <ele>45</ele>
        <time>2020-06-24T08:41:48.041Z</time>
      </trkpt>
      <trkpt lat="48.67027" lon="-2.33423">
        <ele>45</ele>
        <time>2020-06-24T08:41:49.041Z</time>
      </trkpt>
      <trkpt lat="48.67027" lon="-2.33422">
        <ele>45</ele>
        <time>2020-06-24T08:41:50.041Z</time>
      </trkpt>
      <trkpt lat="48.67023" lon="-2.3342">
        <ele>46</ele>
        <time>2020-06-24T08:41:51.045Z</time>
      </trkpt>
      <trkpt lat="48.67023" lon="-2.33418">
        <ele>46</ele>
        <time>2020-06-24T08:41:52.045Z</time>
      </trkpt>
      <trkpt lat="48.67022" lon="-2.33417">
        <ele>46</ele>
        <time>2020-06-24T08:41:53.045Z</time>
      </trkpt>
      <trkpt lat="48.67022" lon="-2.33415">
        <ele>46</ele>
        <time>2020-06-24T08:41:54.045Z</time>
      </trkpt>
      <trkpt lat="48.67022" lon="-2.33413">
        <ele>46</ele>
        <time>2020-06-24T08:41:55.045Z</time>
      </trkpt>
      <trkpt lat="48.67022" lon="-2.33411">
        <ele>46</ele>
        <time>2020-06-24T08:41:56.045Z</time>
      </trkpt>
      <trkpt lat="48.67022" lon="-2.33409">
        <ele>47</ele>
        <time>2020-06-24T08:41:57.045Z</time>
      </trkpt>
      <trkpt lat="48.67021" lon="-2.33408">
        <ele>47</ele>
        <time>2020-06-24T08:41:58.045Z</time>
      </trkpt>
      <trkpt lat="48.6702" lon="-2.33406">
        <ele>47</ele>
        <time>2020-06-24T08:41:59.045Z</time>
      </trkpt>
      <trkpt lat="48.67019" lon="-2.33406">
        <ele>47</ele>
        <time>2020-06-24T08:42:00.045Z</time>
      </trkpt>
      <trkpt lat="48.67018" lon="-2.33405">
        <ele>47</ele>
        <time>2020-06-24T08:42:01.045Z</time>
      </trkpt>
      <trkpt lat="48.67016" lon="-2.33405">
        <ele>47</ele>
        <time>2020-06-24T08:42:02.045Z</time>
      </trkpt>
      <trkpt lat="48.67015" lon="-2.33405">
        <ele>47</ele>
        <time>2020-06-24T08:42:03.045Z</time>
      </trkpt>
      <trkpt lat="48.67013" lon="-2.33405">
        <ele>47</ele>
        <time>2020-06-24T08:42:04.045Z</time>
      </trkpt>
      <trkpt lat="48.67012" lon="-2.33405">
        <ele>47</ele>
        <time>2020-06-24T08:42:05.045Z</time>
      </trkpt>
      <trkpt lat="48.6701" lon="-2.33405">
        <ele>47</ele>
        <time>2020-06-24T08:42:06.045Z</time>
      </trkpt>
      <trkpt lat="48.67009" lon="-2.33405">
        <ele>47</ele>
        <time>2020-06-24T08:42:07.045Z</time>
      </trkpt>
      <trkpt lat="48.67008" lon="-2.33405">
        <ele>47</ele>
        <time>2020-06-24T08:42:08.045Z</time>
      </trkpt>
      <trkpt lat="48.67006" lon="-2.33405">
        <ele>47</ele>
        <time>2020-06-24T08:42:09.045Z</time>
      </trkpt>
      <trkpt lat="48.67005" lon="-2.33405">
        <ele>48</ele>
        <time>2020-06-24T08:42:10.045Z</time>
      </trkpt>
      <trkpt lat="48.67003" lon="-2.33405">
        <ele>47</ele>
        <time>2020-06-24T08:42:11.045Z</time>
      </trkpt>
      <trkpt lat="48.67002" lon="-2.33405">
        <ele>48</ele>
        <time>2020-06-24T08:42:12.045Z</time>
      </trkpt>
      <trkpt lat="48.67001" lon="-2.33406">
        <ele>48</ele>
        <time>2020-06-24T08:42:13.045Z</time>
      </trkpt>
      <trkpt lat="48.66999" lon="-2.33406">
        <ele>48</ele>
        <time>2020-06-24T08:42:14.045Z</time>
      </trkpt>
      <trkpt lat="48.66998" lon="-2.33406">
        <ele>48</ele>
        <time>2020-06-24T08:42:15.045Z</time>
      </trkpt>
      <trkpt lat="48.66997" lon="-2.33405">
        <ele>47</ele>
        <time>2020-06-24T08:42:16.045Z</time>
      </trkpt>
      <trkpt lat="48.66996" lon="-2.33404">
        <ele>47</ele>
        <time>2020-06-24T08:42:17.045Z</time>
      </trkpt>
      <trkpt lat="48.66995" lon="-2.33403">
        <ele>47</ele>
        <time>2020-06-24T08:42:18.045Z</time>
      </trkpt>
      <trkpt lat="48.66995" lon="-2.33401">
        <ele>47</ele>
        <time>2020-06-24T08:42:19.045Z</time>
      </trkpt>
      <trkpt lat="48.66994" lon="-2.33399">
        <ele>47</ele>
        <time>2020-06-24T08:42:20.045Z</time>
      </trkpt>
      <trkpt lat="48.66993" lon="-2.33398">
        <ele>47</ele>
        <time>2020-06-24T08:42:21.045Z</time>
      </trkpt>
      <trkpt lat="48.66993" lon="-2.33396">
        <ele>47</ele>
        <time>2020-06-24T08:42:22.045Z</time>
      </trkpt>
      <trkpt lat="48.66992" lon="-2.33394">
        <ele>46</ele>
        <time>2020-06-24T08:42:23.045Z</time>
      </trkpt>
      <trkpt lat="48.66991" lon="-2.33392">
        <ele>47</ele>
        <time>2020-06-24T08:42:24.045Z</time>
      </trkpt>
      <trkpt lat="48.66991" lon="-2.3339">
        <ele>46</ele>
        <time>2020-06-24T08:42:25.045Z</time>
      </trkpt>
      <trkpt lat="48.6699" lon="-2.33388">
        <ele>46</ele>
        <time>2020-06-24T08:42:26.045Z</time>
      </trkpt>
      <trkpt lat="48.66989" lon="-2.33386">
        <ele>47</ele>
        <time>2020-06-24T08:42:27.045Z</time>
      </trkpt>
      <trkpt lat="48.66989" lon="-2.33384">
        <ele>47</ele>
        <time>2020-06-24T08:42:28.045Z</time>
      </trkpt>
      <trkpt lat="48.66988" lon="-2.33382">
        <ele>47</ele>
        <time>2020-06-24T08:42:29.045Z</time>
      </trkpt>
      <trkpt lat="48.66988" lon="-2.3338">
        <ele>47</ele>
        <time>2020-06-24T08:42:30.045Z</time>
      </trkpt>
      <trkpt lat="48.66987" lon="-2.33378">
        <ele>47</ele>
        <time>2020-06-24T08:42:31.045Z</time>
      </trkpt>
      <trkpt lat="48.66987" lon="-2.33376">
        <ele>47</ele>
        <time>2020-06-24T08:42:32.045Z</time>
      </trkpt>
      <trkpt lat="48.66987" lon="-2.33375">
        <ele>47</ele>
        <time>2020-06-24T08:42:33.045Z</time>
      </trkpt>
      <trkpt lat="48.66986" lon="-2.33375">
        <ele>47</ele>
        <time>2020-06-24T08:42:34.045Z</time>
      </trkpt>
      <trkpt lat="48.66987" lon="-2.33375">
        <ele>47</ele>
        <time>2020-06-24T08:42:35.045Z</time>
      </trkpt>
      <trkpt lat="48.66987" lon="-2.33375">
        <ele>47</ele>
        <time>2020-06-24T08:42:36.045Z</time>
      </trkpt>
      <trkpt lat="48.66987" lon="-2.33374">
        <ele>47</ele>
        <time>2020-06-24T08:42:37.045Z</time>
      </trkpt>
      <trkpt lat="48.66987" lon="-2.33374">
        <ele>47</ele>
        <time>2020-06-24T08:42:38.045Z</time>
      </trkpt>
      <trkpt lat="48.66987" lon="-2.33374">
        <ele>47</ele>
        <time>2020-06-24T08:42:39.045Z</time>
      </trkpt>
      <trkpt lat="48.66986" lon="-2.33369">
        <ele>46</ele>
        <time>2020-06-24T08:42:40.049Z</time>
      </trkpt>
      <trkpt lat="48.66985" lon="-2.33367">
        <ele>46</ele>
        <time>2020-06-24T08:42:41.049Z</time>
      </trkpt>
      <trkpt lat="48.66985" lon="-2.33365">
        <ele>46</ele>
        <time>2020-06-24T08:42:42.049Z</time>
      </trkpt>
      <trkpt lat="48.66985" lon="-2.33363">
        <ele>46</ele>
        <time>2020-06-24T08:42:43.049Z</time>
      </trkpt>
      <trkpt lat="48.66985" lon="-2.33361">
        <ele>46</ele>
        <time>2020-06-24T08:42:44.049Z</time>
      </trkpt>
      <trkpt lat="48.66985" lon="-2.33359">
        <ele>46</ele>
        <time>2020-06-24T08:42:45.049Z</time>
      </trkpt>
      <trkpt lat="48.66985" lon="-2.33357">
        <ele>46</ele>
        <time>2020-06-24T08:42:46.049Z</time>
      </trkpt>
      <trkpt lat="48.66984" lon="-2.33355">
        <ele>46</ele>
        <time>2020-06-24T08:42:47.049Z</time>
      </trkpt>
      <trkpt lat="48.66984" lon="-2.33353">
        <ele>47</ele>
        <time>2020-06-24T08:42:48.049Z</time>
      </trkpt>
      <trkpt lat="48.66983" lon="-2.33351">
        <ele>47</ele>
        <time>2020-06-24T08:42:49.049Z</time>
      </trkpt>
      <trkpt lat="48.66983" lon="-2.33349">
        <ele>47</ele>
        <time>2020-06-24T08:42:50.049Z</time>
      </trkpt>
      <trkpt lat="48.66982" lon="-2.33348">
        <ele>47</ele>
        <time>2020-06-24T08:42:51.049Z</time>
      </trkpt>
      <trkpt lat="48.66981" lon="-2.33346">
        <ele>47</ele>
        <time>2020-06-24T08:42:52.049Z</time>
      </trkpt>
      <trkpt lat="48.66981" lon="-2.33344">
        <ele>47</ele>
        <time>2020-06-24T08:42:53.049Z</time>
      </trkpt>
      <trkpt lat="48.6698" lon="-2.33342">
        <ele>47</ele>
        <time>2020-06-24T08:42:54.049Z</time>
      </trkpt>
      <trkpt lat="48.6698" lon="-2.33341">
        <ele>47</ele>
        <time>2020-06-24T08:42:55.049Z</time>
      </trkpt>
      <trkpt lat="48.6698" lon="-2.33339">
        <ele>46</ele>
        <time>2020-06-24T08:42:56.049Z</time>
      </trkpt>
      <trkpt lat="48.66981" lon="-2.33337">
        <ele>47</ele>
        <time>2020-06-24T08:42:57.049Z</time>
      </trkpt>
      <trkpt lat="48.66982" lon="-2.33335">
        <ele>47</ele>
        <time>2020-06-24T08:42:58.049Z</time>
      </trkpt>
      <trkpt lat="48.66982" lon="-2.33333">
        <ele>47</ele>
        <time>2020-06-24T08:42:59.049Z</time>
      </trkpt>
      <trkpt lat="48.66983" lon="-2.33331">
        <ele>47</ele>
        <time>2020-06-24T08:43:00.049Z</time>
      </trkpt>
      <trkpt lat="48.66984" lon="-2.33329">
        <ele>47</ele>
        <time>2020-06-24T08:43:01.049Z</time>
      </trkpt>
      <trkpt lat="48.66984" lon="-2.33327">
        <ele>47</ele>
        <time>2020-06-24T08:43:02.049Z</time>
      </trkpt>
      <trkpt lat="48.66985" lon="-2.33325">
        <ele>47</ele>
        <time>2020-06-24T08:43:03.049Z</time>
      </trkpt>
      <trkpt lat="48.66985" lon="-2.33323">
        <ele>47</ele>
        <time>2020-06-24T08:43:04.049Z</time>
      </trkpt>
      <trkpt lat="48.66985" lon="-2.33321">
        <ele>47</ele>
        <time>2020-06-24T08:43:05.049Z</time>
      </trkpt>
      <trkpt lat="48.66985" lon="-2.33319">
        <ele>47</ele>
        <time>2020-06-24T08:43:06.049Z</time>
      </trkpt>
      <trkpt lat="48.66985" lon="-2.33316">
        <ele>47</ele>
        <time>2020-06-24T08:43:07.049Z</time>
      </trkpt>
      <trkpt lat="48.66984" lon="-2.33314">
        <ele>47</ele>
        <time>2020-06-24T08:43:08.049Z</time>
      </trkpt>
      <trkpt lat="48.66984" lon="-2.33312">
        <ele>47</ele>
        <time>2020-06-24T08:43:09.049Z</time>
      </trkpt>
      <trkpt lat="48.66984" lon="-2.3331">
        <ele>48</ele>
        <time>2020-06-24T08:43:10.049Z</time>
      </trkpt>
      <trkpt lat="48.66984" lon="-2.33308">
        <ele>48</ele>
        <time>2020-06-24T08:43:11.049Z</time>
      </trkpt>
      <trkpt lat="48.66984" lon="-2.33306">
        <ele>48</ele>
        <time>2020-06-24T08:43:12.049Z</time>
      </trkpt>
      <trkpt lat="48.66984" lon="-2.33304">
        <ele>48</ele>
        <time>2020-06-24T08:43:13.049Z</time>
      </trkpt>
      <trkpt lat="48.66984" lon="-2.33302">
        <ele>48</ele>
        <time>2020-06-24T08:43:14.049Z</time>
      </trkpt>
      <trkpt lat="48.66984" lon="-2.333">
        <ele>48</ele>
        <time>2020-06-24T08:43:15.049Z</time>
      </trkpt>
      <trkpt lat="48.66984" lon="-2.33298">
        <ele>48</ele>
        <time>2020-06-24T08:43:16.049Z</time>
      </trkpt>
      <trkpt lat="48.66984" lon="-2.33296">
        <ele>48</ele>
        <time>2020-06-24T08:43:17.049Z</time>
      </trkpt>
      <trkpt lat="48.66983" lon="-2.33294">
        <ele>48</ele>
        <time>2020-06-24T08:43:18.049Z</time>
      </trkpt>
      <trkpt lat="48.66983" lon="-2.33293">
        <ele>48</ele>
        <time>2020-06-24T08:43:19.049Z</time>
      </trkpt>
      <trkpt lat="48.66983" lon="-2.33291">
        <ele>48</ele>
        <time>2020-06-24T08:43:20.049Z</time>
      </trkpt>
      <trkpt lat="48.66982" lon="-2.33289">
        <ele>48</ele>
        <time>2020-06-24T08:43:21.049Z</time>
      </trkpt>
      <trkpt lat="48.66981" lon="-2.33287">
        <ele>48</ele>
        <time>2020-06-24T08:43:22.049Z</time>
      </trkpt>
      <trkpt lat="48.66981" lon="-2.33285">
        <ele>48</ele>
        <time>2020-06-24T08:43:23.049Z</time>
      </trkpt>
      <trkpt lat="48.6698" lon="-2.33284">
        <ele>48</ele>
        <time>2020-06-24T08:43:24.049Z</time>
      </trkpt>
      <trkpt lat="48.6698" lon="-2.33282">
        <ele>48</ele>
        <time>2020-06-24T08:43:25.049Z</time>
      </trkpt>
      <trkpt lat="48.6698" lon="-2.3328">
        <ele>48</ele>
        <time>2020-06-24T08:43:26.049Z</time>
      </trkpt>
      <trkpt lat="48.6698" lon="-2.33278">
        <ele>48</ele>
        <time>2020-06-24T08:43:27.049Z</time>
      </trkpt>
      <trkpt lat="48.6698" lon="-2.33276">
        <ele>48</ele>
        <time>2020-06-24T08:43:28.049Z</time>
      </trkpt>
      <trkpt lat="48.6698" lon="-2.33274">
        <ele>49</ele>
        <time>2020-06-24T08:43:29.049Z</time>
      </trkpt>
      <trkpt lat="48.6698" lon="-2.33272">
        <ele>49</ele>
        <time>2020-06-24T08:43:30.049Z</time>
      </trkpt>
      <trkpt lat="48.6698" lon="-2.3327">
        <ele>49</ele>
        <time>2020-06-24T08:43:31.049Z</time>
      </trkpt>
      <trkpt lat="48.6698" lon="-2.33268">
        <ele>49</ele>
        <time>2020-06-24T08:43:32.049Z</time>
      </trkpt>
      <trkpt lat="48.6698" lon="-2.33266">
        <ele>49</ele>
        <time>2020-06-24T08:43:33.049Z</time>
      </trkpt>
      <trkpt lat="48.6698" lon="-2.33264">
        <ele>49</ele>
        <time>2020-06-24T08:43:34.049Z</time>
      </trkpt>
      <trkpt lat="48.6698" lon="-2.33262">
        <ele>49</ele>
        <time>2020-06-24T08:43:35.049Z</time>
      </trkpt>
      <trkpt lat="48.6698" lon="-2.3326">
        <ele>49</ele>
        <time>2020-06-24T08:43:36.049Z</time>
      </trkpt>
      <trkpt lat="48.66979" lon="-2.33258">
        <ele>49</ele>
        <time>2020-06-24T08:43:37.049Z</time>
      </trkpt>
      <trkpt lat="48.66979" lon="-2.33256">
        <ele>49</ele>
        <time>2020-06-24T08:43:38.049Z</time>
      </trkpt>
      <trkpt lat="48.66979" lon="-2.33254">
        <ele>49</ele>
        <time>2020-06-24T08:43:39.049Z</time>
      </trkpt>
      <trkpt lat="48.66979" lon="-2.33252">
        <ele>50</ele>
        <time>2020-06-24T08:43:40.049Z</time>
      </trkpt>
      <trkpt lat="48.66979" lon="-2.3325">
        <ele>50</ele>
        <time>2020-06-24T08:43:41.049Z</time>
      </trkpt>
      <trkpt lat="48.66979" lon="-2.33248">
        <ele>50</ele>
        <time>2020-06-24T08:43:42.049Z</time>
      </trkpt>
      <trkpt lat="48.66979" lon="-2.33246">
        <ele>50</ele>
        <time>2020-06-24T08:43:43.049Z</time>
      </trkpt>
      <trkpt lat="48.6698" lon="-2.33244">
        <ele>50</ele>
        <time>2020-06-24T08:43:44.049Z</time>
      </trkpt>
      <trkpt lat="48.6698" lon="-2.33242">
        <ele>50</ele>
        <time>2020-06-24T08:43:45.049Z</time>
      </trkpt>
      <trkpt lat="48.6698" lon="-2.3324">
        <ele>50</ele>
        <time>2020-06-24T08:43:46.049Z</time>
      </trkpt>
      <trkpt lat="48.6698" lon="-2.33238">
        <ele>50</ele>
        <time>2020-06-24T08:43:47.049Z</time>
      </trkpt>
      <trkpt lat="48.66981" lon="-2.33236">
        <ele>50</ele>
        <time>2020-06-24T08:43:48.049Z</time>
      </trkpt>
      <trkpt lat="48.66981" lon="-2.33234">
        <ele>50</ele>
        <time>2020-06-24T08:43:49.049Z</time>
      </trkpt>
      <trkpt lat="48.66981" lon="-2.33232">
        <ele>50</ele>
        <time>2020-06-24T08:43:50.049Z</time>
      </trkpt>
      <trkpt lat="48.66982" lon="-2.33231">
        <ele>50</ele>
        <time>2020-06-24T08:43:51.049Z</time>
      </trkpt>
      <trkpt lat="48.66982" lon="-2.33229">
        <ele>51</ele>
        <time>2020-06-24T08:43:52.049Z</time>
      </trkpt>
      <trkpt lat="48.66982" lon="-2.33227">
        <ele>51</ele>
        <time>2020-06-24T08:43:53.049Z</time>
      </trkpt>
      <trkpt lat="48.66982" lon="-2.33225">
        <ele>51</ele>
        <time>2020-06-24T08:43:54.049Z</time>
      </trkpt>
      <trkpt lat="48.66983" lon="-2.33223">
        <ele>51</ele>
        <time>2020-06-24T08:43:55.049Z</time>
      </trkpt>
      <trkpt lat="48.66983" lon="-2.33221">
        <ele>51</ele>
        <time>2020-06-24T08:43:56.049Z</time>
      </trkpt>
      <trkpt lat="48.66983" lon="-2.33219">
        <ele>51</ele>
        <time>2020-06-24T08:43:57.049Z</time>
      </trkpt>
      <trkpt lat="48.66983" lon="-2.33217">
        <ele>51</ele>
        <time>2020-06-24T08:43:58.049Z</time>
      </trkpt>
      <trkpt lat="48.66983" lon="-2.33216">
        <ele>51</ele>
        <time>2020-06-24T08:43:59.049Z</time>
      </trkpt>
      <trkpt lat="48.66983" lon="-2.33214">
        <ele>51</ele>
        <time>2020-06-24T08:44:00.049Z</time>
      </trkpt>
      <trkpt lat="48.66983" lon="-2.33212">
        <ele>52</ele>
        <time>2020-06-24T08:44:01.049Z</time>
      </trkpt>
      <trkpt lat="48.66984" lon="-2.33211">
        <ele>52</ele>
        <time>2020-06-24T08:44:02.049Z</time>
      </trkpt>
      <trkpt lat="48.66984" lon="-2.33209">
        <ele>52</ele>
        <time>2020-06-24T08:44:03.049Z</time>
      </trkpt>
      <trkpt lat="48.66985" lon="-2.33207">
        <ele>52</ele>
        <time>2020-06-24T08:44:04.049Z</time>
      </trkpt>
      <trkpt lat="48.66985" lon="-2.33205">
        <ele>52</ele>
        <time>2020-06-24T08:44:05.049Z</time>
      </trkpt>
      <trkpt lat="48.66986" lon="-2.33203">
        <ele>52</ele>
        <time>2020-06-24T08:44:06.049Z</time>
      </trkpt>
      <trkpt lat="48.66986" lon="-2.33201">
        <ele>52</ele>
        <time>2020-06-24T08:44:07.049Z</time>
      </trkpt>
      <trkpt lat="48.66987" lon="-2.332">
        <ele>51</ele>
        <time>2020-06-24T08:44:08.049Z</time>
      </trkpt>
      <trkpt lat="48.66987" lon="-2.33198">
        <ele>51</ele>
        <time>2020-06-24T08:44:09.049Z</time>
      </trkpt>
      <trkpt lat="48.66988" lon="-2.33196">
        <ele>52</ele>
        <time>2020-06-24T08:44:10.049Z</time>
      </trkpt>
      <trkpt lat="48.66989" lon="-2.33195">
        <ele>51</ele>
        <time>2020-06-24T08:44:11.049Z</time>
      </trkpt>
      <trkpt lat="48.66989" lon="-2.33193">
        <ele>52</ele>
        <time>2020-06-24T08:44:12.049Z</time>
      </trkpt>
      <trkpt lat="48.6699" lon="-2.33191">
        <ele>52</ele>
        <time>2020-06-24T08:44:13.049Z</time>
      </trkpt>
      <trkpt lat="48.66991" lon="-2.33189">
        <ele>52</ele>
        <time>2020-06-24T08:44:14.049Z</time>
      </trkpt>
      <trkpt lat="48.66991" lon="-2.33188">
        <ele>52</ele>
        <time>2020-06-24T08:44:15.049Z</time>
      </trkpt>
      <trkpt lat="48.66992" lon="-2.33186">
        <ele>52</ele>
        <time>2020-06-24T08:44:16.049Z</time>
      </trkpt>
      <trkpt lat="48.66992" lon="-2.33184">
        <ele>52</ele>
        <time>2020-06-24T08:44:17.049Z</time>
      </trkpt>
      <trkpt lat="48.66993" lon="-2.33182">
        <ele>53</ele>
        <time>2020-06-24T08:44:18.049Z</time>
      </trkpt>
      <trkpt lat="48.66993" lon="-2.3318">
        <ele>53</ele>
        <time>2020-06-24T08:44:19.049Z</time>
      </trkpt>
      <trkpt lat="48.66994" lon="-2.33178">
        <ele>53</ele>
        <time>2020-06-24T08:44:20.049Z</time>
      </trkpt>
      <trkpt lat="48.66994" lon="-2.33177">
        <ele>53</ele>
        <time>2020-06-24T08:44:21.049Z</time>
      </trkpt>
      <trkpt lat="48.66995" lon="-2.33175">
        <ele>53</ele>
        <time>2020-06-24T08:44:22.049Z</time>
      </trkpt>
      <trkpt lat="48.66995" lon="-2.33173">
        <ele>53</ele>
        <time>2020-06-24T08:44:23.049Z</time>
      </trkpt>
      <trkpt lat="48.66996" lon="-2.33171">
        <ele>53</ele>
        <time>2020-06-24T08:44:24.049Z</time>
      </trkpt>
      <trkpt lat="48.66997" lon="-2.33169">
        <ele>53</ele>
        <time>2020-06-24T08:44:25.049Z</time>
      </trkpt>
      <trkpt lat="48.66997" lon="-2.33168">
        <ele>53</ele>
        <time>2020-06-24T08:44:26.049Z</time>
      </trkpt>
      <trkpt lat="48.66998" lon="-2.33166">
        <ele>53</ele>
        <time>2020-06-24T08:44:27.049Z</time>
      </trkpt>
      <trkpt lat="48.66999" lon="-2.33165">
        <ele>53</ele>
        <time>2020-06-24T08:44:28.049Z</time>
      </trkpt>
      <trkpt lat="48.67" lon="-2.33164">
        <ele>52</ele>
        <time>2020-06-24T08:44:29.049Z</time>
      </trkpt>
      <trkpt lat="48.67001" lon="-2.33162">
        <ele>52</ele>
        <time>2020-06-24T08:44:30.049Z</time>
      </trkpt>
      <trkpt lat="48.67002" lon="-2.33161">
        <ele>52</ele>
        <time>2020-06-24T08:44:31.049Z</time>
      </trkpt>
      <trkpt lat="48.67003" lon="-2.3316">
        <ele>52</ele>
        <time>2020-06-24T08:44:32.049Z</time>
      </trkpt>
      <trkpt lat="48.67004" lon="-2.33159">
        <ele>52</ele>
        <time>2020-06-24T08:44:33.049Z</time>
      </trkpt>
      <trkpt lat="48.67005" lon="-2.33158">
        <ele>52</ele>
        <time>2020-06-24T08:44:34.049Z</time>
      </trkpt>
      <trkpt lat="48.67007" lon="-2.33157">
        <ele>52</ele>
        <time>2020-06-24T08:44:35.049Z</time>
      </trkpt>
      <trkpt lat="48.67008" lon="-2.33156">
        <ele>52</ele>
        <time>2020-06-24T08:44:36.049Z</time>
      </trkpt>
      <trkpt lat="48.67009" lon="-2.33155">
        <ele>52</ele>
        <time>2020-06-24T08:44:37.049Z</time>
      </trkpt>
      <trkpt lat="48.67011" lon="-2.33154">
        <ele>52</ele>
        <time>2020-06-24T08:44:38.049Z</time>
      </trkpt>
      <trkpt lat="48.67012" lon="-2.33152">
        <ele>52</ele>
        <time>2020-06-24T08:44:39.049Z</time>
      </trkpt>
      <trkpt lat="48.67013" lon="-2.33151">
        <ele>52</ele>
        <time>2020-06-24T08:44:40.049Z</time>
      </trkpt>
      <trkpt lat="48.67014" lon="-2.3315">
        <ele>52</ele>
        <time>2020-06-24T08:44:41.049Z</time>
      </trkpt>
      <trkpt lat="48.67015" lon="-2.33149">
        <ele>52</ele>
        <time>2020-06-24T08:44:42.049Z</time>
      </trkpt>
      <trkpt lat="48.67016" lon="-2.33148">
        <ele>52</ele>
        <time>2020-06-24T08:44:43.049Z</time>
      </trkpt>
      <trkpt lat="48.67017" lon="-2.33147">
        <ele>53</ele>
        <time>2020-06-24T08:44:44.049Z</time>
      </trkpt>
      <trkpt lat="48.67019" lon="-2.33146">
        <ele>53</ele>
        <time>2020-06-24T08:44:45.049Z</time>
      </trkpt>
      <trkpt lat="48.6702" lon="-2.33145">
        <ele>53</ele>
        <time>2020-06-24T08:44:46.049Z</time>
      </trkpt>
      <trkpt lat="48.67021" lon="-2.33145">
        <ele>53</ele>
        <time>2020-06-24T08:44:47.049Z</time>
      </trkpt>
      <trkpt lat="48.67022" lon="-2.33144">
        <ele>53</ele>
        <time>2020-06-24T08:44:48.049Z</time>
      </trkpt>
      <trkpt lat="48.67023" lon="-2.33143">
        <ele>53</ele>
        <time>2020-06-24T08:44:49.049Z</time>
      </trkpt>
      <trkpt lat="48.67024" lon="-2.33141">
        <ele>53</ele>
        <time>2020-06-24T08:44:50.049Z</time>
      </trkpt>
      <trkpt lat="48.67025" lon="-2.3314">
        <ele>53</ele>
        <time>2020-06-24T08:44:51.049Z</time>
      </trkpt>
      <trkpt lat="48.67026" lon="-2.33138">
        <ele>54</ele>
        <time>2020-06-24T08:44:52.049Z</time>
      </trkpt>
      <trkpt lat="48.67026" lon="-2.33137">
        <ele>54</ele>
        <time>2020-06-24T08:44:53.049Z</time>
      </trkpt>
      <trkpt lat="48.67027" lon="-2.33135">
        <ele>54</ele>
        <time>2020-06-24T08:44:54.049Z</time>
      </trkpt>
      <trkpt lat="48.67028" lon="-2.33134">
        <ele>54</ele>
        <time>2020-06-24T08:44:55.049Z</time>
      </trkpt>
      <trkpt lat="48.67029" lon="-2.33132">
        <ele>54</ele>
        <time>2020-06-24T08:44:56.049Z</time>
      </trkpt>
      <trkpt lat="48.6703" lon="-2.33131">
        <ele>54</ele>
        <time>2020-06-24T08:44:57.049Z</time>
      </trkpt>
      <trkpt lat="48.6703" lon="-2.33129">
        <ele>54</ele>
        <time>2020-06-24T08:44:58.049Z</time>
      </trkpt>
      <trkpt lat="48.67031" lon="-2.33127">
        <ele>54</ele>
        <time>2020-06-24T08:44:59.049Z</time>
      </trkpt>
      <trkpt lat="48.67032" lon="-2.33125">
        <ele>54</ele>
        <time>2020-06-24T08:45:00.049Z</time>
      </trkpt>
      <trkpt lat="48.67032" lon="-2.33124">
        <ele>54</ele>
        <time>2020-06-24T08:45:01.049Z</time>
      </trkpt>
      <trkpt lat="48.67033" lon="-2.33122">
        <ele>54</ele>
        <time>2020-06-24T08:45:02.049Z</time>
      </trkpt>
      <trkpt lat="48.67034" lon="-2.3312">
        <ele>54</ele>
        <time>2020-06-24T08:45:03.049Z</time>
      </trkpt>
      <trkpt lat="48.67034" lon="-2.33118">
        <ele>54</ele>
        <time>2020-06-24T08:45:04.049Z</time>
      </trkpt>
      <trkpt lat="48.67035" lon="-2.33116">
        <ele>54</ele>
        <time>2020-06-24T08:45:05.049Z</time>
      </trkpt>
      <trkpt lat="48.67036" lon="-2.33114">
        <ele>55</ele>
        <time>2020-06-24T08:45:06.049Z</time>
      </trkpt>
      <trkpt lat="48.67036" lon="-2.33113">
        <ele>55</ele>
        <time>2020-06-24T08:45:07.049Z</time>
      </trkpt>
      <trkpt lat="48.67037" lon="-2.33111">
        <ele>54</ele>
        <time>2020-06-24T08:45:08.049Z</time>
      </trkpt>
      <trkpt lat="48.67038" lon="-2.33109">
        <ele>54</ele>
        <time>2020-06-24T08:45:09.049Z</time>
      </trkpt>
      <trkpt lat="48.67039" lon="-2.33108">
        <ele>54</ele>
        <time>2020-06-24T08:45:10.049Z</time>
      </trkpt>
      <trkpt lat="48.67039" lon="-2.33106">
        <ele>54</ele>
        <time>2020-06-24T08:45:11.049Z</time>
      </trkpt>
      <trkpt lat="48.6704" lon="-2.33104">
        <ele>54</ele>
        <time>2020-06-24T08:45:12.049Z</time>
      </trkpt>
      <trkpt lat="48.67041" lon="-2.33102">
        <ele>54</ele>
        <time>2020-06-24T08:45:13.049Z</time>
      </trkpt>
      <trkpt lat="48.67041" lon="-2.331">
        <ele>54</ele>
        <time>2020-06-24T08:45:14.049Z</time>
      </trkpt>
      <trkpt lat="48.67042" lon="-2.33099">
        <ele>54</ele>
        <time>2020-06-24T08:45:15.049Z</time>
      </trkpt>
      <trkpt lat="48.67043" lon="-2.33098">
        <ele>54</ele>
        <time>2020-06-24T08:45:16.049Z</time>
      </trkpt>
      <trkpt lat="48.67044" lon="-2.33097">
        <ele>54</ele>
        <time>2020-06-24T08:45:17.049Z</time>
      </trkpt>
      <trkpt lat="48.67045" lon="-2.33096">
        <ele>54</ele>
        <time>2020-06-24T08:45:18.049Z</time>
      </trkpt>
      <trkpt lat="48.67046" lon="-2.33095">
        <ele>54</ele>
        <time>2020-06-24T08:45:19.049Z</time>
      </trkpt>
      <trkpt lat="48.67047" lon="-2.33094">
        <ele>53</ele>
        <time>2020-06-24T08:45:20.049Z</time>
      </trkpt>
      <trkpt lat="48.67049" lon="-2.33093">
        <ele>53</ele>
        <time>2020-06-24T08:45:21.049Z</time>
      </trkpt>
      <trkpt lat="48.6705" lon="-2.33092">
        <ele>53</ele>
        <time>2020-06-24T08:45:22.049Z</time>
      </trkpt>
      <trkpt lat="48.67051" lon="-2.33091">
        <ele>53</ele>
        <time>2020-06-24T08:45:23.049Z</time>
      </trkpt>
      <trkpt lat="48.67052" lon="-2.3309">
        <ele>53</ele>
        <time>2020-06-24T08:45:24.049Z</time>
      </trkpt>
      <trkpt lat="48.67053" lon="-2.33089">
        <ele>53</ele>
        <time>2020-06-24T08:45:25.049Z</time>
      </trkpt>
      <trkpt lat="48.67054" lon="-2.33088">
        <ele>53</ele>
        <time>2020-06-24T08:45:26.049Z</time>
      </trkpt>
      <trkpt lat="48.67056" lon="-2.33087">
        <ele>53</ele>
        <time>2020-06-24T08:45:27.049Z</time>
      </trkpt>
      <trkpt lat="48.67057" lon="-2.33086">
        <ele>53</ele>
        <time>2020-06-24T08:45:28.049Z</time>
      </trkpt>
      <trkpt lat="48.67058" lon="-2.33085">
        <ele>53</ele>
        <time>2020-06-24T08:45:29.049Z</time>
      </trkpt>
      <trkpt lat="48.67059" lon="-2.33085">
        <ele>53</ele>
        <time>2020-06-24T08:45:30.049Z</time>
      </trkpt>
      <trkpt lat="48.67061" lon="-2.33084">
        <ele>53</ele>
        <time>2020-06-24T08:45:31.049Z</time>
      </trkpt>
      <trkpt lat="48.67062" lon="-2.33084">
        <ele>53</ele>
        <time>2020-06-24T08:45:32.049Z</time>
      </trkpt>
      <trkpt lat="48.67063" lon="-2.33083">
        <ele>52</ele>
        <time>2020-06-24T08:45:33.049Z</time>
      </trkpt>
      <trkpt lat="48.67065" lon="-2.33082">
        <ele>52</ele>
        <time>2020-06-24T08:45:34.049Z</time>
      </trkpt>
      <trkpt lat="48.67066" lon="-2.33081">
        <ele>52</ele>
        <time>2020-06-24T08:45:35.049Z</time>
      </trkpt>
      <trkpt lat="48.67067" lon="-2.3308">
        <ele>52</ele>
        <time>2020-06-24T08:45:36.049Z</time>
      </trkpt>
      <trkpt lat="48.67068" lon="-2.33079">
        <ele>52</ele>
        <time>2020-06-24T08:45:37.049Z</time>
      </trkpt>
      <trkpt lat="48.67069" lon="-2.33078">
        <ele>52</ele>
        <time>2020-06-24T08:45:38.049Z</time>
      </trkpt>
      <trkpt lat="48.67071" lon="-2.33078">
        <ele>52</ele>
        <time>2020-06-24T08:45:39.049Z</time>
      </trkpt>
      <trkpt lat="48.67072" lon="-2.33077">
        <ele>52</ele>
        <time>2020-06-24T08:45:40.049Z</time>
      </trkpt>
      <trkpt lat="48.67074" lon="-2.33077">
        <ele>52</ele>
        <time>2020-06-24T08:45:41.049Z</time>
      </trkpt>
      <trkpt lat="48.67075" lon="-2.33076">
        <ele>52</ele>
        <time>2020-06-24T08:45:42.049Z</time>
      </trkpt>
      <trkpt lat="48.67076" lon="-2.33076">
        <ele>52</ele>
        <time>2020-06-24T08:45:43.049Z</time>
      </trkpt>
      <trkpt lat="48.67078" lon="-2.33076">
        <ele>52</ele>
        <time>2020-06-24T08:45:44.049Z</time>
      </trkpt>
      <trkpt lat="48.67079" lon="-2.33077">
        <ele>52</ele>
        <time>2020-06-24T08:45:45.049Z</time>
      </trkpt>
      <trkpt lat="48.67081" lon="-2.33077">
        <ele>52</ele>
        <time>2020-06-24T08:45:46.049Z</time>
      </trkpt>
      <trkpt lat="48.67082" lon="-2.33077">
        <ele>52</ele>
        <time>2020-06-24T08:45:47.049Z</time>
      </trkpt>
      <trkpt lat="48.67083" lon="-2.33077">
        <ele>52</ele>
        <time>2020-06-24T08:45:48.049Z</time>
      </trkpt>
      <trkpt lat="48.67084" lon="-2.33077">
        <ele>52</ele>
        <time>2020-06-24T08:45:49.049Z</time>
      </trkpt>
      <trkpt lat="48.67086" lon="-2.33078">
        <ele>51</ele>
        <time>2020-06-24T08:45:50.049Z</time>
      </trkpt>
      <trkpt lat="48.67087" lon="-2.33078">
        <ele>51</ele>
        <time>2020-06-24T08:45:51.049Z</time>
      </trkpt>
      <trkpt lat="48.67088" lon="-2.33078">
        <ele>51</ele>
        <time>2020-06-24T08:45:52.049Z</time>
      </trkpt>
      <trkpt lat="48.67089" lon="-2.33078">
        <ele>51</ele>
        <time>2020-06-24T08:45:53.049Z</time>
      </trkpt>
      <trkpt lat="48.67091" lon="-2.33078">
        <ele>50</ele>
        <time>2020-06-24T08:45:54.049Z</time>
      </trkpt>
      <trkpt lat="48.67092" lon="-2.33079">
        <ele>50</ele>
        <time>2020-06-24T08:45:55.049Z</time>
      </trkpt>
      <trkpt lat="48.67093" lon="-2.33079">
        <ele>50</ele>
        <time>2020-06-24T08:45:56.049Z</time>
      </trkpt>
      <trkpt lat="48.67094" lon="-2.33079">
        <ele>50</ele>
        <time>2020-06-24T08:45:57.049Z</time>
      </trkpt>
      <trkpt lat="48.67096" lon="-2.33078">
        <ele>50</ele>
        <time>2020-06-24T08:45:58.049Z</time>
      </trkpt>
      <trkpt lat="48.67097" lon="-2.33078">
        <ele>50</ele>
        <time>2020-06-24T08:45:59.049Z</time>
      </trkpt>
      <trkpt lat="48.67098" lon="-2.33077">
        <ele>50</ele>
        <time>2020-06-24T08:46:00.049Z</time>
      </trkpt>
      <trkpt lat="48.67099" lon="-2.33077">
        <ele>50</ele>
        <time>2020-06-24T08:46:01.049Z</time>
      </trkpt>
      <trkpt lat="48.671" lon="-2.33076">
        <ele>50</ele>
        <time>2020-06-24T08:46:02.049Z</time>
      </trkpt>
      <trkpt lat="48.67101" lon="-2.33075">
        <ele>50</ele>
        <time>2020-06-24T08:46:03.049Z</time>
      </trkpt>
      <trkpt lat="48.67102" lon="-2.33074">
        <ele>49</ele>
        <time>2020-06-24T08:46:04.049Z</time>
      </trkpt>
      <trkpt lat="48.67104" lon="-2.33073">
        <ele>49</ele>
        <time>2020-06-24T08:46:05.049Z</time>
      </trkpt>
      <trkpt lat="48.67105" lon="-2.33072">
        <ele>49</ele>
        <time>2020-06-24T08:46:06.049Z</time>
      </trkpt>
      <trkpt lat="48.67106" lon="-2.33071">
        <ele>49</ele>
        <time>2020-06-24T08:46:07.049Z</time>
      </trkpt>
      <trkpt lat="48.67107" lon="-2.33071">
        <ele>49</ele>
        <time>2020-06-24T08:46:08.049Z</time>
      </trkpt>
      <trkpt lat="48.67109" lon="-2.3307">
        <ele>49</ele>
        <time>2020-06-24T08:46:09.049Z</time>
      </trkpt>
      <trkpt lat="48.6711" lon="-2.33069">
        <ele>49</ele>
        <time>2020-06-24T08:46:10.049Z</time>
      </trkpt>
      <trkpt lat="48.67111" lon="-2.33068">
        <ele>49</ele>
        <time>2020-06-24T08:46:11.049Z</time>
      </trkpt>
      <trkpt lat="48.67112" lon="-2.33066">
        <ele>49</ele>
        <time>2020-06-24T08:46:12.049Z</time>
      </trkpt>
      <trkpt lat="48.67113" lon="-2.33065">
        <ele>49</ele>
        <time>2020-06-24T08:46:13.049Z</time>
      </trkpt>
      <trkpt lat="48.67114" lon="-2.33063">
        <ele>49</ele>
        <time>2020-06-24T08:46:14.049Z</time>
      </trkpt>
      <trkpt lat="48.67115" lon="-2.33062">
        <ele>49</ele>
        <time>2020-06-24T08:46:15.049Z</time>
      </trkpt>
      <trkpt lat="48.67116" lon="-2.3306">
        <ele>49</ele>
        <time>2020-06-24T08:46:16.049Z</time>
      </trkpt>
      <trkpt lat="48.67116" lon="-2.33058">
        <ele>49</ele>
        <time>2020-06-24T08:46:17.049Z</time>
      </trkpt>
      <trkpt lat="48.67117" lon="-2.33056">
        <ele>49</ele>
        <time>2020-06-24T08:46:18.049Z</time>
      </trkpt>
      <trkpt lat="48.67117" lon="-2.33055">
        <ele>49</ele>
        <time>2020-06-24T08:46:19.049Z</time>
      </trkpt>
      <trkpt lat="48.67117" lon="-2.33053">
        <ele>50</ele>
        <time>2020-06-24T08:46:20.049Z</time>
      </trkpt>
      <trkpt lat="48.67117" lon="-2.33051">
        <ele>50</ele>
        <time>2020-06-24T08:46:21.049Z</time>
      </trkpt>
      <trkpt lat="48.67117" lon="-2.33049">
        <ele>50</ele>
        <time>2020-06-24T08:46:22.049Z</time>
      </trkpt>
      <trkpt lat="48.67117" lon="-2.33047">
        <ele>50</ele>
        <time>2020-06-24T08:46:23.049Z</time>
      </trkpt>
      <trkpt lat="48.67117" lon="-2.33045">
        <ele>50</ele>
        <time>2020-06-24T08:46:24.049Z</time>
      </trkpt>
      <trkpt lat="48.67117" lon="-2.33043">
        <ele>50</ele>
        <time>2020-06-24T08:46:25.049Z</time>
      </trkpt>
      <trkpt lat="48.67118" lon="-2.33042">
        <ele>50</ele>
        <time>2020-06-24T08:46:26.049Z</time>
      </trkpt>
      <trkpt lat="48.67118" lon="-2.3304">
        <ele>50</ele>
        <time>2020-06-24T08:46:27.049Z</time>
      </trkpt>
      <trkpt lat="48.67119" lon="-2.33039">
        <ele>50</ele>
        <time>2020-06-24T08:46:28.049Z</time>
      </trkpt>
      <trkpt lat="48.67119" lon="-2.33037">
        <ele>51</ele>
        <time>2020-06-24T08:46:29.049Z</time>
      </trkpt>
      <trkpt lat="48.6712" lon="-2.33036">
        <ele>51</ele>
        <time>2020-06-24T08:46:30.049Z</time>
      </trkpt>
      <trkpt lat="48.67121" lon="-2.33034">
        <ele>51</ele>
        <time>2020-06-24T08:46:31.049Z</time>
      </trkpt>
      <trkpt lat="48.67122" lon="-2.33034">
        <ele>51</ele>
        <time>2020-06-24T08:46:32.049Z</time>
      </trkpt>
      <trkpt lat="48.67123" lon="-2.33033">
        <ele>51</ele>
        <time>2020-06-24T08:46:33.049Z</time>
      </trkpt>
      <trkpt lat="48.67124" lon="-2.33033">
        <ele>51</ele>
        <time>2020-06-24T08:46:34.049Z</time>
      </trkpt>
      <trkpt lat="48.67125" lon="-2.33031">
        <ele>51</ele>
        <time>2020-06-24T08:46:35.049Z</time>
      </trkpt>
      <trkpt lat="48.67125" lon="-2.3303">
        <ele>51</ele>
        <time>2020-06-24T08:46:36.049Z</time>
      </trkpt>
      <trkpt lat="48.67126" lon="-2.33028">
        <ele>51</ele>
        <time>2020-06-24T08:46:37.049Z</time>
      </trkpt>
      <trkpt lat="48.67126" lon="-2.33027">
        <ele>51</ele>
        <time>2020-06-24T08:46:38.049Z</time>
      </trkpt>
      <trkpt lat="48.67126" lon="-2.33025">
        <ele>51</ele>
        <time>2020-06-24T08:46:39.049Z</time>
      </trkpt>
      <trkpt lat="48.67127" lon="-2.33024">
        <ele>51</ele>
        <time>2020-06-24T08:46:40.049Z</time>
      </trkpt>
      <trkpt lat="48.67127" lon="-2.33022">
        <ele>51</ele>
        <time>2020-06-24T08:46:41.049Z</time>
      </trkpt>
      <trkpt lat="48.67128" lon="-2.3302">
        <ele>51</ele>
        <time>2020-06-24T08:46:42.049Z</time>
      </trkpt>
      <trkpt lat="48.67128" lon="-2.33018">
        <ele>51</ele>
        <time>2020-06-24T08:46:43.049Z</time>
      </trkpt>
      <trkpt lat="48.67129" lon="-2.33016">
        <ele>51</ele>
        <time>2020-06-24T08:46:44.049Z</time>
      </trkpt>
      <trkpt lat="48.6713" lon="-2.33014">
        <ele>51</ele>
        <time>2020-06-24T08:46:45.049Z</time>
      </trkpt>
      <trkpt lat="48.6713" lon="-2.33012">
        <ele>51</ele>
        <time>2020-06-24T08:46:46.049Z</time>
      </trkpt>
      <trkpt lat="48.67131" lon="-2.33011">
        <ele>51</ele>
        <time>2020-06-24T08:46:47.049Z</time>
      </trkpt>
      <trkpt lat="48.67131" lon="-2.33009">
        <ele>51</ele>
        <time>2020-06-24T08:46:48.049Z</time>
      </trkpt>
      <trkpt lat="48.67132" lon="-2.33007">
        <ele>51</ele>
        <time>2020-06-24T08:46:49.049Z</time>
      </trkpt>
      <trkpt lat="48.67132" lon="-2.33005">
        <ele>51</ele>
        <time>2020-06-24T08:46:50.049Z</time>
      </trkpt>
      <trkpt lat="48.67133" lon="-2.33003">
        <ele>52</ele>
        <time>2020-06-24T08:46:51.049Z</time>
      </trkpt>
      <trkpt lat="48.67134" lon="-2.33002">
        <ele>51</ele>
        <time>2020-06-24T08:46:52.049Z</time>
      </trkpt>
      <trkpt lat="48.67134" lon="-2.33">
        <ele>51</ele>
        <time>2020-06-24T08:46:53.049Z</time>
      </trkpt>
      <trkpt lat="48.67135" lon="-2.32998">
        <ele>51</ele>
        <time>2020-06-24T08:46:54.049Z</time>
      </trkpt>
      <trkpt lat="48.67136" lon="-2.32997">
        <ele>51</ele>
        <time>2020-06-24T08:46:55.049Z</time>
      </trkpt>
      <trkpt lat="48.67137" lon="-2.32995">
        <ele>51</ele>
        <time>2020-06-24T08:46:56.049Z</time>
      </trkpt>
      <trkpt lat="48.67138" lon="-2.32994">
        <ele>51</ele>
        <time>2020-06-24T08:46:57.049Z</time>
      </trkpt>
      <trkpt lat="48.67138" lon="-2.32992">
        <ele>51</ele>
        <time>2020-06-24T08:46:58.049Z</time>
      </trkpt>
      <trkpt lat="48.67139" lon="-2.3299">
        <ele>52</ele>
        <time>2020-06-24T08:46:59.049Z</time>
      </trkpt>
      <trkpt lat="48.67139" lon="-2.32988">
        <ele>52</ele>
        <time>2020-06-24T08:47:00.049Z</time>
      </trkpt>
      <trkpt lat="48.6714" lon="-2.32987">
        <ele>52</ele>
        <time>2020-06-24T08:47:01.049Z</time>
      </trkpt>
      <trkpt lat="48.6714" lon="-2.32985">
        <ele>52</ele>
        <time>2020-06-24T08:47:02.049Z</time>
      </trkpt>
      <trkpt lat="48.67141" lon="-2.32983">
        <ele>52</ele>
        <time>2020-06-24T08:47:03.049Z</time>
      </trkpt>
      <trkpt lat="48.67142" lon="-2.32982">
        <ele>52</ele>
        <time>2020-06-24T08:47:04.049Z</time>
      </trkpt>
      <trkpt lat="48.67142" lon="-2.3298">
        <ele>52</ele>
        <time>2020-06-24T08:47:05.049Z</time>
      </trkpt>
      <trkpt lat="48.67143" lon="-2.32978">
        <ele>52</ele>
        <time>2020-06-24T08:47:06.049Z</time>
      </trkpt>
      <trkpt lat="48.67144" lon="-2.32977">
        <ele>52</ele>
        <time>2020-06-24T08:47:07.049Z</time>
      </trkpt>
      <trkpt lat="48.67144" lon="-2.32975">
        <ele>52</ele>
        <time>2020-06-24T08:47:08.049Z</time>
      </trkpt>
      <trkpt lat="48.67145" lon="-2.32974">
        <ele>52</ele>
        <time>2020-06-24T08:47:09.049Z</time>
      </trkpt>
      <trkpt lat="48.67146" lon="-2.32972">
        <ele>52</ele>
        <time>2020-06-24T08:47:10.049Z</time>
      </trkpt>
      <trkpt lat="48.67147" lon="-2.32971">
        <ele>52</ele>
        <time>2020-06-24T08:47:11.049Z</time>
      </trkpt>
      <trkpt lat="48.67147" lon="-2.32969">
        <ele>52</ele>
        <time>2020-06-24T08:47:12.049Z</time>
      </trkpt>
      <trkpt lat="48.67148" lon="-2.32968">
        <ele>52</ele>
        <time>2020-06-24T08:47:13.049Z</time>
      </trkpt>
      <trkpt lat="48.67149" lon="-2.32967">
        <ele>53</ele>
        <time>2020-06-24T08:47:14.049Z</time>
      </trkpt>
      <trkpt lat="48.6715" lon="-2.32965">
        <ele>52</ele>
        <time>2020-06-24T08:47:15.049Z</time>
      </trkpt>
      <trkpt lat="48.67151" lon="-2.32964">
        <ele>53</ele>
        <time>2020-06-24T08:47:16.049Z</time>
      </trkpt>
      <trkpt lat="48.67152" lon="-2.32963">
        <ele>53</ele>
        <time>2020-06-24T08:47:17.049Z</time>
      </trkpt>
      <trkpt lat="48.67153" lon="-2.32961">
        <ele>53</ele>
        <time>2020-06-24T08:47:18.049Z</time>
      </trkpt>
      <trkpt lat="48.67153" lon="-2.32959">
        <ele>53</ele>
        <time>2020-06-24T08:47:19.049Z</time>
      </trkpt>
      <trkpt lat="48.67154" lon="-2.32958">
        <ele>53</ele>
        <time>2020-06-24T08:47:20.049Z</time>
      </trkpt>
      <trkpt lat="48.67155" lon="-2.32956">
        <ele>53</ele>
        <time>2020-06-24T08:47:21.049Z</time>
      </trkpt>
      <trkpt lat="48.67155" lon="-2.32954">
        <ele>53</ele>
        <time>2020-06-24T08:47:22.049Z</time>
      </trkpt>
      <trkpt lat="48.67156" lon="-2.32952">
        <ele>53</ele>
        <time>2020-06-24T08:47:23.049Z</time>
      </trkpt>
      <trkpt lat="48.67157" lon="-2.32951">
        <ele>53</ele>
        <time>2020-06-24T08:47:24.049Z</time>
      </trkpt>
      <trkpt lat="48.67157" lon="-2.32949">
        <ele>54</ele>
        <time>2020-06-24T08:47:25.049Z</time>
      </trkpt>
      <trkpt lat="48.67158" lon="-2.32948">
        <ele>54</ele>
        <time>2020-06-24T08:47:26.049Z</time>
      </trkpt>
      <trkpt lat="48.67158" lon="-2.32946">
        <ele>54</ele>
        <time>2020-06-24T08:47:27.049Z</time>
      </trkpt>
      <trkpt lat="48.67159" lon="-2.32945">
        <ele>54</ele>
        <time>2020-06-24T08:47:28.049Z</time>
      </trkpt>
      <trkpt lat="48.6716" lon="-2.32943">
        <ele>54</ele>
        <time>2020-06-24T08:47:29.049Z</time>
      </trkpt>
      <trkpt lat="48.6716" lon="-2.32942">
        <ele>54</ele>
        <time>2020-06-24T08:47:30.049Z</time>
      </trkpt>
      <trkpt lat="48.67161" lon="-2.3294">
        <ele>54</ele>
        <time>2020-06-24T08:47:31.049Z</time>
      </trkpt>
      <trkpt lat="48.67162" lon="-2.32939">
        <ele>54</ele>
        <time>2020-06-24T08:47:32.049Z</time>
      </trkpt>
      <trkpt lat="48.67163" lon="-2.32937">
        <ele>54</ele>
        <time>2020-06-24T08:47:33.049Z</time>
      </trkpt>
      <trkpt lat="48.67164" lon="-2.32936">
        <ele>54</ele>
        <time>2020-06-24T08:47:34.049Z</time>
      </trkpt>
      <trkpt lat="48.67165" lon="-2.32934">
        <ele>55</ele>
        <time>2020-06-24T08:47:35.049Z</time>
      </trkpt>
      <trkpt lat="48.67166" lon="-2.32933">
        <ele>55</ele>
        <time>2020-06-24T08:47:36.049Z</time>
      </trkpt>
      <trkpt lat="48.67167" lon="-2.32931">
        <ele>55</ele>
        <time>2020-06-24T08:47:37.049Z</time>
      </trkpt>
      <trkpt lat="48.67168" lon="-2.32929">
        <ele>55</ele>
        <time>2020-06-24T08:47:38.049Z</time>
      </trkpt>
      <trkpt lat="48.67168" lon="-2.32928">
        <ele>55</ele>
        <time>2020-06-24T08:47:39.049Z</time>
      </trkpt>
      <trkpt lat="48.67169" lon="-2.32926">
        <ele>55</ele>
        <time>2020-06-24T08:47:40.049Z</time>
      </trkpt>
      <trkpt lat="48.6717" lon="-2.32925">
        <ele>55</ele>
        <time>2020-06-24T08:47:41.049Z</time>
      </trkpt>
      <trkpt lat="48.67171" lon="-2.32923">
        <ele>55</ele>
        <time>2020-06-24T08:47:42.049Z</time>
      </trkpt>
      <trkpt lat="48.67172" lon="-2.32922">
        <ele>55</ele>
        <time>2020-06-24T08:47:43.049Z</time>
      </trkpt>
      <trkpt lat="48.67173" lon="-2.3292">
        <ele>55</ele>
        <time>2020-06-24T08:47:44.049Z</time>
      </trkpt>
      <trkpt lat="48.67174" lon="-2.32919">
        <ele>55</ele>
        <time>2020-06-24T08:47:45.049Z</time>
      </trkpt>
      <trkpt lat="48.67175" lon="-2.32918">
        <ele>55</ele>
        <time>2020-06-24T08:47:46.049Z</time>
      </trkpt>
      <trkpt lat="48.67176" lon="-2.32916">
        <ele>55</ele>
        <time>2020-06-24T08:47:47.049Z</time>
      </trkpt>
      <trkpt lat="48.67177" lon="-2.32915">
        <ele>55</ele>
        <time>2020-06-24T08:47:48.049Z</time>
      </trkpt>
      <trkpt lat="48.67178" lon="-2.32914">
        <ele>55</ele>
        <time>2020-06-24T08:47:49.049Z</time>
      </trkpt>
      <trkpt lat="48.67179" lon="-2.32912">
        <ele>55</ele>
        <time>2020-06-24T08:47:50.049Z</time>
      </trkpt>
      <trkpt lat="48.67179" lon="-2.32911">
        <ele>54</ele>
        <time>2020-06-24T08:47:51.049Z</time>
      </trkpt>
      <trkpt lat="48.6718" lon="-2.3291">
        <ele>54</ele>
        <time>2020-06-24T08:47:52.049Z</time>
      </trkpt>
      <trkpt lat="48.67182" lon="-2.32908">
        <ele>55</ele>
        <time>2020-06-24T08:47:53.049Z</time>
      </trkpt>
      <trkpt lat="48.67183" lon="-2.32907">
        <ele>55</ele>
        <time>2020-06-24T08:47:54.049Z</time>
      </trkpt>
      <trkpt lat="48.67184" lon="-2.32905">
        <ele>55</ele>
        <time>2020-06-24T08:47:55.049Z</time>
      </trkpt>
      <trkpt lat="48.67185" lon="-2.32904">
        <ele>55</ele>
        <time>2020-06-24T08:47:56.049Z</time>
      </trkpt>
      <trkpt lat="48.67186" lon="-2.32903">
        <ele>55</ele>
        <time>2020-06-24T08:47:57.049Z</time>
      </trkpt>
      <trkpt lat="48.67187" lon="-2.32901">
        <ele>55</ele>
        <time>2020-06-24T08:47:58.049Z</time>
      </trkpt>
      <trkpt lat="48.67188" lon="-2.329">
        <ele>55</ele>
        <time>2020-06-24T08:47:59.049Z</time>
      </trkpt>
      <trkpt lat="48.67189" lon="-2.32899">
        <ele>54</ele>
        <time>2020-06-24T08:48:00.049Z</time>
      </trkpt>
      <trkpt lat="48.6719" lon="-2.32897">
        <ele>54</ele>
        <time>2020-06-24T08:48:01.049Z</time>
      </trkpt>
      <trkpt lat="48.67191" lon="-2.32896">
        <ele>54</ele>
        <time>2020-06-24T08:48:02.049Z</time>
      </trkpt>
      <trkpt lat="48.67192" lon="-2.32895">
        <ele>54</ele>
        <time>2020-06-24T08:48:03.049Z</time>
      </trkpt>
      <trkpt lat="48.67193" lon="-2.32893">
        <ele>54</ele>
        <time>2020-06-24T08:48:04.049Z</time>
      </trkpt>
      <trkpt lat="48.67194" lon="-2.32892">
        <ele>54</ele>
        <time>2020-06-24T08:48:05.049Z</time>
      </trkpt>
      <trkpt lat="48.67195" lon="-2.3289">
        <ele>54</ele>
        <time>2020-06-24T08:48:06.049Z</time>
      </trkpt>
      <trkpt lat="48.67196" lon="-2.32889">
        <ele>54</ele>
        <time>2020-06-24T08:48:07.049Z</time>
      </trkpt>
      <trkpt lat="48.67197" lon="-2.32888">
        <ele>54</ele>
        <time>2020-06-24T08:48:08.049Z</time>
      </trkpt>
      <trkpt lat="48.67197" lon="-2.32887">
        <ele>53</ele>
        <time>2020-06-24T08:48:09.049Z</time>
      </trkpt>
      <trkpt lat="48.67197" lon="-2.32886">
        <ele>53</ele>
        <time>2020-06-24T08:48:10.049Z</time>
      </trkpt>
      <trkpt lat="48.67197" lon="-2.32886">
        <ele>53</ele>
        <time>2020-06-24T08:48:11.049Z</time>
      </trkpt>
      <trkpt lat="48.67197" lon="-2.32887">
        <ele>53</ele>
        <time>2020-06-24T08:48:12.049Z</time>
      </trkpt>
      <trkpt lat="48.67196" lon="-2.32887">
        <ele>53</ele>
        <time>2020-06-24T08:48:13.049Z</time>
      </trkpt>
      <trkpt lat="48.67196" lon="-2.32888">
        <ele>54</ele>
        <time>2020-06-24T08:48:14.049Z</time>
      </trkpt>
      <trkpt lat="48.67196" lon="-2.32888">
        <ele>54</ele>
        <time>2020-06-24T08:48:15.049Z</time>
      </trkpt>
      <trkpt lat="48.67196" lon="-2.32888">
        <ele>54</ele>
        <time>2020-06-24T08:48:16.049Z</time>
      </trkpt>
      <trkpt lat="48.67196" lon="-2.32888">
        <ele>54</ele>
        <time>2020-06-24T08:48:17.049Z</time>
      </trkpt>
      <trkpt lat="48.67196" lon="-2.32888">
        <ele>54</ele>
        <time>2020-06-24T08:48:18.049Z</time>
      </trkpt>
      <trkpt lat="48.67196" lon="-2.32888">
        <ele>54</ele>
        <time>2020-06-24T08:48:19.049Z</time>
      </trkpt>
      <trkpt lat="48.67196" lon="-2.32888">
        <ele>54</ele>
        <time>2020-06-24T08:48:20.049Z</time>
      </trkpt>
      <trkpt lat="48.67196" lon="-2.32888">
        <ele>54</ele>
        <time>2020-06-24T08:48:21.049Z</time>
      </trkpt>
      <trkpt lat="48.67196" lon="-2.32888">
        <ele>54</ele>
        <time>2020-06-24T08:48:22.049Z</time>
      </trkpt>
      <trkpt lat="48.67196" lon="-2.32888">
        <ele>54</ele>
        <time>2020-06-24T08:48:23.049Z</time>
      </trkpt>
      <trkpt lat="48.67196" lon="-2.32888">
        <ele>54</ele>
        <time>2020-06-24T08:48:24.049Z</time>
      </trkpt>
      <trkpt lat="48.67196" lon="-2.32889">
        <ele>54</ele>
        <time>2020-06-24T08:48:25.049Z</time>
      </trkpt>
      <trkpt lat="48.67196" lon="-2.32889">
        <ele>54</ele>
        <time>2020-06-24T08:48:26.049Z</time>
      </trkpt>
      <trkpt lat="48.67195" lon="-2.3289">
        <ele>54</ele>
        <time>2020-06-24T08:48:27.049Z</time>
      </trkpt>
      <trkpt lat="48.67195" lon="-2.3289">
        <ele>54</ele>
        <time>2020-06-24T08:48:28.049Z</time>
      </trkpt>
      <trkpt lat="48.67198" lon="-2.32885">
        <ele>53</ele>
        <time>2020-06-24T08:48:29.053Z</time>
      </trkpt>
      <trkpt lat="48.67199" lon="-2.32884">
        <ele>53</ele>
        <time>2020-06-24T08:48:30.053Z</time>
      </trkpt>
      <trkpt lat="48.67199" lon="-2.32882">
        <ele>53</ele>
        <time>2020-06-24T08:48:31.053Z</time>
      </trkpt>
      <trkpt lat="48.672" lon="-2.32881">
        <ele>53</ele>
        <time>2020-06-24T08:48:32.053Z</time>
      </trkpt>
      <trkpt lat="48.67201" lon="-2.32879">
        <ele>53</ele>
        <time>2020-06-24T08:48:33.053Z</time>
      </trkpt>
      <trkpt lat="48.67202" lon="-2.32878">
        <ele>53</ele>
        <time>2020-06-24T08:48:34.053Z</time>
      </trkpt>
      <trkpt lat="48.67203" lon="-2.32876">
        <ele>53</ele>
        <time>2020-06-24T08:48:35.053Z</time>
      </trkpt>
      <trkpt lat="48.67204" lon="-2.32875">
        <ele>53</ele>
        <time>2020-06-24T08:48:36.053Z</time>
      </trkpt>
      <trkpt lat="48.67205" lon="-2.32873">
        <ele>53</ele>
        <time>2020-06-24T08:48:37.053Z</time>
      </trkpt>
      <trkpt lat="48.67206" lon="-2.32872">
        <ele>53</ele>
        <time>2020-06-24T08:48:38.053Z</time>
      </trkpt>
      <trkpt lat="48.67207" lon="-2.32871">
        <ele>52</ele>
        <time>2020-06-24T08:48:39.053Z</time>
      </trkpt>
      <trkpt lat="48.67208" lon="-2.32869">
        <ele>52</ele>
        <time>2020-06-24T08:48:40.053Z</time>
      </trkpt>
      <trkpt lat="48.67209" lon="-2.32867">
        <ele>52</ele>
        <time>2020-06-24T08:48:41.053Z</time>
      </trkpt>
      <trkpt lat="48.6721" lon="-2.32866">
        <ele>52</ele>
        <time>2020-06-24T08:48:42.053Z</time>
      </trkpt>
      <trkpt lat="48.67211" lon="-2.32864">
        <ele>52</ele>
        <time>2020-06-24T08:48:43.053Z</time>
      </trkpt>
      <trkpt lat="48.67212" lon="-2.32863">
        <ele>52</ele>
        <time>2020-06-24T08:48:44.053Z</time>
      </trkpt>
      <trkpt lat="48.67213" lon="-2.32861">
        <ele>52</ele>
        <time>2020-06-24T08:48:45.053Z</time>
      </trkpt>
      <trkpt lat="48.67214" lon="-2.3286">
        <ele>52</ele>
        <time>2020-06-24T08:48:46.053Z</time>
      </trkpt>
      <trkpt lat="48.67215" lon="-2.32859">
        <ele>52</ele>
        <time>2020-06-24T08:48:47.053Z</time>
      </trkpt>
      <trkpt lat="48.67216" lon="-2.32857">
        <ele>52</ele>
        <time>2020-06-24T08:48:48.053Z</time>
      </trkpt>
      <trkpt lat="48.67217" lon="-2.32856">
        <ele>52</ele>
        <time>2020-06-24T08:48:49.053Z</time>
      </trkpt>
      <trkpt lat="48.67218" lon="-2.32854">
        <ele>52</ele>
        <time>2020-06-24T08:48:50.053Z</time>
      </trkpt>
      <trkpt lat="48.67219" lon="-2.32852">
        <ele>52</ele>
        <time>2020-06-24T08:48:51.053Z</time>
      </trkpt>
      <trkpt lat="48.67219" lon="-2.32851">
        <ele>52</ele>
        <time>2020-06-24T08:48:52.053Z</time>
      </trkpt>
      <trkpt lat="48.6722" lon="-2.32849">
        <ele>52</ele>
        <time>2020-06-24T08:48:53.053Z</time>
      </trkpt>
      <trkpt lat="48.67221" lon="-2.32847">
        <ele>52</ele>
        <time>2020-06-24T08:48:54.053Z</time>
      </trkpt>
      <trkpt lat="48.67222" lon="-2.32846">
        <ele>52</ele>
        <time>2020-06-24T08:48:55.053Z</time>
      </trkpt>
      <trkpt lat="48.67223" lon="-2.32844">
        <ele>52</ele>
        <time>2020-06-24T08:48:56.053Z</time>
      </trkpt>
      <trkpt lat="48.67223" lon="-2.32842">
        <ele>52</ele>
        <time>2020-06-24T08:48:57.053Z</time>
      </trkpt>
      <trkpt lat="48.67224" lon="-2.3284">
        <ele>53</ele>
        <time>2020-06-24T08:48:58.053Z</time>
      </trkpt>
      <trkpt lat="48.67225" lon="-2.32839">
        <ele>53</ele>
        <time>2020-06-24T08:48:59.053Z</time>
      </trkpt>
      <trkpt lat="48.67226" lon="-2.32837">
        <ele>53</ele>
        <time>2020-06-24T08:49:00.053Z</time>
      </trkpt>
      <trkpt lat="48.67227" lon="-2.32835">
        <ele>53</ele>
        <time>2020-06-24T08:49:01.053Z</time>
      </trkpt>
      <trkpt lat="48.67227" lon="-2.32833">
        <ele>54</ele>
        <time>2020-06-24T08:49:02.053Z</time>
      </trkpt>
      <trkpt lat="48.67228" lon="-2.32832">
        <ele>54</ele>
        <time>2020-06-24T08:49:03.053Z</time>
      </trkpt>
      <trkpt lat="48.67229" lon="-2.3283">
        <ele>54</ele>
        <time>2020-06-24T08:49:04.053Z</time>
      </trkpt>
      <trkpt lat="48.6723" lon="-2.32828">
        <ele>54</ele>
        <time>2020-06-24T08:49:05.053Z</time>
      </trkpt>
      <trkpt lat="48.67231" lon="-2.32827">
        <ele>53</ele>
        <time>2020-06-24T08:49:06.053Z</time>
      </trkpt>
      <trkpt lat="48.67231" lon="-2.32825">
        <ele>53</ele>
        <time>2020-06-24T08:49:07.053Z</time>
      </trkpt>
      <trkpt lat="48.67232" lon="-2.32824">
        <ele>53</ele>
        <time>2020-06-24T08:49:08.053Z</time>
      </trkpt>
      <trkpt lat="48.67233" lon="-2.32822">
        <ele>53</ele>
        <time>2020-06-24T08:49:09.053Z</time>
      </trkpt>
      <trkpt lat="48.67234" lon="-2.32821">
        <ele>53</ele>
        <time>2020-06-24T08:49:10.053Z</time>
      </trkpt>
      <trkpt lat="48.67235" lon="-2.32819">
        <ele>53</ele>
        <time>2020-06-24T08:49:11.053Z</time>
      </trkpt>
      <trkpt lat="48.67236" lon="-2.32817">
        <ele>53</ele>
        <time>2020-06-24T08:49:12.053Z</time>
      </trkpt>
      <trkpt lat="48.67236" lon="-2.32815">
        <ele>53</ele>
        <time>2020-06-24T08:49:13.053Z</time>
      </trkpt>
      <trkpt lat="48.67237" lon="-2.32813">
        <ele>53</ele>
        <time>2020-06-24T08:49:14.053Z</time>
      </trkpt>
      <trkpt lat="48.67237" lon="-2.32811">
        <ele>53</ele>
        <time>2020-06-24T08:49:15.053Z</time>
      </trkpt>
      <trkpt lat="48.67237" lon="-2.32809">
        <ele>53</ele>
        <time>2020-06-24T08:49:16.053Z</time>
      </trkpt>
      <trkpt lat="48.67238" lon="-2.32808">
        <ele>53</ele>
        <time>2020-06-24T08:49:17.053Z</time>
      </trkpt>
      <trkpt lat="48.67238" lon="-2.32806">
        <ele>53</ele>
        <time>2020-06-24T08:49:18.053Z</time>
      </trkpt>
      <trkpt lat="48.67239" lon="-2.32804">
        <ele>53</ele>
        <time>2020-06-24T08:49:19.053Z</time>
      </trkpt>
      <trkpt lat="48.6724" lon="-2.32802">
        <ele>54</ele>
        <time>2020-06-24T08:49:20.053Z</time>
      </trkpt>
      <trkpt lat="48.6724" lon="-2.32801">
        <ele>54</ele>
        <time>2020-06-24T08:49:21.053Z</time>
      </trkpt>
      <trkpt lat="48.67241" lon="-2.32799">
        <ele>54</ele>
        <time>2020-06-24T08:49:22.053Z</time>
      </trkpt>
      <trkpt lat="48.67242" lon="-2.32798">
        <ele>54</ele>
        <time>2020-06-24T08:49:23.053Z</time>
      </trkpt>
      <trkpt lat="48.67243" lon="-2.32796">
        <ele>54</ele>
        <time>2020-06-24T08:49:24.053Z</time>
      </trkpt>
      <trkpt lat="48.67244" lon="-2.32794">
        <ele>54</ele>
        <time>2020-06-24T08:49:25.053Z</time>
      </trkpt>
      <trkpt lat="48.67245" lon="-2.32793">
        <ele>54</ele>
        <time>2020-06-24T08:49:26.053Z</time>
      </trkpt>
      <trkpt lat="48.67245" lon="-2.32791">
        <ele>54</ele>
        <time>2020-06-24T08:49:27.053Z</time>
      </trkpt>
      <trkpt lat="48.67246" lon="-2.3279">
        <ele>54</ele>
        <time>2020-06-24T08:49:28.053Z</time>
      </trkpt>
      <trkpt lat="48.67247" lon="-2.32788">
        <ele>53</ele>
        <time>2020-06-24T08:49:29.053Z</time>
      </trkpt>
      <trkpt lat="48.67248" lon="-2.32787">
        <ele>53</ele>
        <time>2020-06-24T08:49:30.053Z</time>
      </trkpt>
      <trkpt lat="48.67248" lon="-2.32785">
        <ele>54</ele>
        <time>2020-06-24T08:49:31.053Z</time>
      </trkpt>
      <trkpt lat="48.67249" lon="-2.32784">
        <ele>54</ele>
        <time>2020-06-24T08:49:32.053Z</time>
      </trkpt>
      <trkpt lat="48.6725" lon="-2.32783">
        <ele>54</ele>
        <time>2020-06-24T08:49:33.053Z</time>
      </trkpt>
      <trkpt lat="48.67251" lon="-2.32781">
        <ele>54</ele>
        <time>2020-06-24T08:49:34.053Z</time>
      </trkpt>
      <trkpt lat="48.67251" lon="-2.3278">
        <ele>54</ele>
        <time>2020-06-24T08:49:35.053Z</time>
      </trkpt>
      <trkpt lat="48.67252" lon="-2.32778">
        <ele>54</ele>
        <time>2020-06-24T08:49:36.053Z</time>
      </trkpt>
      <trkpt lat="48.67253" lon="-2.32776">
        <ele>54</ele>
        <time>2020-06-24T08:49:37.053Z</time>
      </trkpt>
      <trkpt lat="48.67253" lon="-2.32774">
        <ele>54</ele>
        <time>2020-06-24T08:49:38.053Z</time>
      </trkpt>
      <trkpt lat="48.67254" lon="-2.32772">
        <ele>54</ele>
        <time>2020-06-24T08:49:39.053Z</time>
      </trkpt>
      <trkpt lat="48.67255" lon="-2.32771">
        <ele>54</ele>
        <time>2020-06-24T08:49:40.053Z</time>
      </trkpt>
      <trkpt lat="48.67255" lon="-2.32769">
        <ele>54</ele>
        <time>2020-06-24T08:49:41.053Z</time>
      </trkpt>
      <trkpt lat="48.67256" lon="-2.32768">
        <ele>54</ele>
        <time>2020-06-24T08:49:42.053Z</time>
      </trkpt>
      <trkpt lat="48.67257" lon="-2.32766">
        <ele>54</ele>
        <time>2020-06-24T08:49:43.053Z</time>
      </trkpt>
      <trkpt lat="48.67258" lon="-2.32764">
        <ele>54</ele>
        <time>2020-06-24T08:49:44.053Z</time>
      </trkpt>
      <trkpt lat="48.67259" lon="-2.32763">
        <ele>54</ele>
        <time>2020-06-24T08:49:45.053Z</time>
      </trkpt>
      <trkpt lat="48.6726" lon="-2.32761">
        <ele>54</ele>
        <time>2020-06-24T08:49:46.053Z</time>
      </trkpt>
      <trkpt lat="48.67261" lon="-2.3276">
        <ele>55</ele>
        <time>2020-06-24T08:49:47.053Z</time>
      </trkpt>
      <trkpt lat="48.67261" lon="-2.32758">
        <ele>54</ele>
        <time>2020-06-24T08:49:48.053Z</time>
      </trkpt>
      <trkpt lat="48.67262" lon="-2.32757">
        <ele>55</ele>
        <time>2020-06-24T08:49:49.053Z</time>
      </trkpt>
      <trkpt lat="48.67263" lon="-2.32755">
        <ele>55</ele>
        <time>2020-06-24T08:49:50.053Z</time>
      </trkpt>
      <trkpt lat="48.67264" lon="-2.32754">
        <ele>55</ele>
        <time>2020-06-24T08:49:51.053Z</time>
      </trkpt>
      <trkpt lat="48.67265" lon="-2.32753">
        <ele>55</ele>
        <time>2020-06-24T08:49:52.053Z</time>
      </trkpt>
      <trkpt lat="48.67265" lon="-2.32751">
        <ele>55</ele>
        <time>2020-06-24T08:49:53.053Z</time>
      </trkpt>
      <trkpt lat="48.67266" lon="-2.3275">
        <ele>55</ele>
        <time>2020-06-24T08:49:54.053Z</time>
      </trkpt>
      <trkpt lat="48.67267" lon="-2.32748">
        <ele>55</ele>
        <time>2020-06-24T08:49:55.053Z</time>
      </trkpt>
      <trkpt lat="48.67268" lon="-2.32747">
        <ele>56</ele>
        <time>2020-06-24T08:49:56.053Z</time>
      </trkpt>
      <trkpt lat="48.67269" lon="-2.32745">
        <ele>56</ele>
        <time>2020-06-24T08:49:57.053Z</time>
      </trkpt>
      <trkpt lat="48.6727" lon="-2.32743">
        <ele>56</ele>
        <time>2020-06-24T08:49:58.053Z</time>
      </trkpt>
      <trkpt lat="48.6727" lon="-2.32742">
        <ele>56</ele>
        <time>2020-06-24T08:49:59.053Z</time>
      </trkpt>
      <trkpt lat="48.67271" lon="-2.3274">
        <ele>56</ele>
        <time>2020-06-24T08:50:00.053Z</time>
      </trkpt>
      <trkpt lat="48.67272" lon="-2.32739">
        <ele>56</ele>
        <time>2020-06-24T08:50:01.053Z</time>
      </trkpt>
      <trkpt lat="48.67273" lon="-2.32737">
        <ele>56</ele>
        <time>2020-06-24T08:50:02.053Z</time>
      </trkpt>
      <trkpt lat="48.67274" lon="-2.32736">
        <ele>56</ele>
        <time>2020-06-24T08:50:03.053Z</time>
      </trkpt>
      <trkpt lat="48.67275" lon="-2.32735">
        <ele>56</ele>
        <time>2020-06-24T08:50:04.053Z</time>
      </trkpt>
      <trkpt lat="48.67276" lon="-2.32733">
        <ele>56</ele>
        <time>2020-06-24T08:50:05.053Z</time>
      </trkpt>
      <trkpt lat="48.67277" lon="-2.32732">
        <ele>56</ele>
        <time>2020-06-24T08:50:06.053Z</time>
      </trkpt>
      <trkpt lat="48.67278" lon="-2.32731">
        <ele>56</ele>
        <time>2020-06-24T08:50:07.053Z</time>
      </trkpt>
      <trkpt lat="48.67279" lon="-2.3273">
        <ele>56</ele>
        <time>2020-06-24T08:50:08.053Z</time>
      </trkpt>
      <trkpt lat="48.6728" lon="-2.32729">
        <ele>56</ele>
        <time>2020-06-24T08:50:09.053Z</time>
      </trkpt>
      <trkpt lat="48.67281" lon="-2.32728">
        <ele>56</ele>
        <time>2020-06-24T08:50:10.053Z</time>
      </trkpt>
      <trkpt lat="48.67282" lon="-2.32727">
        <ele>56</ele>
        <time>2020-06-24T08:50:11.053Z</time>
      </trkpt>
      <trkpt lat="48.67283" lon="-2.32726">
        <ele>57</ele>
        <time>2020-06-24T08:50:12.053Z</time>
      </trkpt>
      <trkpt lat="48.67284" lon="-2.32725">
        <ele>57</ele>
        <time>2020-06-24T08:50:13.053Z</time>
      </trkpt>
      <trkpt lat="48.67285" lon="-2.32724">
        <ele>57</ele>
        <time>2020-06-24T08:50:14.053Z</time>
      </trkpt>
      <trkpt lat="48.67287" lon="-2.32722">
        <ele>57</ele>
        <time>2020-06-24T08:50:15.053Z</time>
      </trkpt>
      <trkpt lat="48.67288" lon="-2.32721">
        <ele>56</ele>
        <time>2020-06-24T08:50:16.053Z</time>
      </trkpt>
      <trkpt lat="48.67289" lon="-2.3272">
        <ele>56</ele>
        <time>2020-06-24T08:50:17.053Z</time>
      </trkpt>
      <trkpt lat="48.6729" lon="-2.32719">
        <ele>56</ele>
        <time>2020-06-24T08:50:18.053Z</time>
      </trkpt>
      <trkpt lat="48.67291" lon="-2.32718">
        <ele>56</ele>
        <time>2020-06-24T08:50:19.053Z</time>
      </trkpt>
      <trkpt lat="48.67292" lon="-2.32717">
        <ele>57</ele>
        <time>2020-06-24T08:50:20.053Z</time>
      </trkpt>
      <trkpt lat="48.67293" lon="-2.32717">
        <ele>57</ele>
        <time>2020-06-24T08:50:21.053Z</time>
      </trkpt>
      <trkpt lat="48.67294" lon="-2.32716">
        <ele>57</ele>
        <time>2020-06-24T08:50:22.053Z</time>
      </trkpt>
      <trkpt lat="48.67295" lon="-2.32715">
        <ele>57</ele>
        <time>2020-06-24T08:50:23.053Z</time>
      </trkpt>
      <trkpt lat="48.67297" lon="-2.32714">
        <ele>57</ele>
        <time>2020-06-24T08:50:24.053Z</time>
      </trkpt>
      <trkpt lat="48.67298" lon="-2.32713">
        <ele>57</ele>
        <time>2020-06-24T08:50:25.053Z</time>
      </trkpt>
      <trkpt lat="48.67299" lon="-2.32712">
        <ele>57</ele>
        <time>2020-06-24T08:50:26.053Z</time>
      </trkpt>
      <trkpt lat="48.673" lon="-2.3271">
        <ele>57</ele>
        <time>2020-06-24T08:50:27.053Z</time>
      </trkpt>
      <trkpt lat="48.67301" lon="-2.32709">
        <ele>57</ele>
        <time>2020-06-24T08:50:28.053Z</time>
      </trkpt>
      <trkpt lat="48.67302" lon="-2.32708">
        <ele>57</ele>
        <time>2020-06-24T08:50:29.053Z</time>
      </trkpt>
      <trkpt lat="48.67303" lon="-2.32706">
        <ele>57</ele>
        <time>2020-06-24T08:50:30.053Z</time>
      </trkpt>
      <trkpt lat="48.67304" lon="-2.32705">
        <ele>57</ele>
        <time>2020-06-24T08:50:31.053Z</time>
      </trkpt>
      <trkpt lat="48.67305" lon="-2.32703">
        <ele>57</ele>
        <time>2020-06-24T08:50:32.053Z</time>
      </trkpt>
      <trkpt lat="48.67306" lon="-2.32702">
        <ele>57</ele>
        <time>2020-06-24T08:50:33.053Z</time>
      </trkpt>
      <trkpt lat="48.67307" lon="-2.327">
        <ele>57</ele>
        <time>2020-06-24T08:50:34.053Z</time>
      </trkpt>
      <trkpt lat="48.67307" lon="-2.32698">
        <ele>57</ele>
        <time>2020-06-24T08:50:35.053Z</time>
      </trkpt>
      <trkpt lat="48.67308" lon="-2.32697">
        <ele>57</ele>
        <time>2020-06-24T08:50:36.053Z</time>
      </trkpt>
      <trkpt lat="48.67309" lon="-2.32696">
        <ele>57</ele>
        <time>2020-06-24T08:50:37.053Z</time>
      </trkpt>
      <trkpt lat="48.6731" lon="-2.32694">
        <ele>57</ele>
        <time>2020-06-24T08:50:38.053Z</time>
      </trkpt>
      <trkpt lat="48.67311" lon="-2.32693">
        <ele>57</ele>
        <time>2020-06-24T08:50:39.053Z</time>
      </trkpt>
      <trkpt lat="48.67312" lon="-2.32692">
        <ele>57</ele>
        <time>2020-06-24T08:50:40.053Z</time>
      </trkpt>
      <trkpt lat="48.67313" lon="-2.32691">
        <ele>57</ele>
        <time>2020-06-24T08:50:41.053Z</time>
      </trkpt>
      <trkpt lat="48.67314" lon="-2.32691">
        <ele>57</ele>
        <time>2020-06-24T08:50:42.053Z</time>
      </trkpt>
      <trkpt lat="48.67315" lon="-2.3269">
        <ele>57</ele>
        <time>2020-06-24T08:50:43.053Z</time>
      </trkpt>
      <trkpt lat="48.67316" lon="-2.32689">
        <ele>57</ele>
        <time>2020-06-24T08:50:44.053Z</time>
      </trkpt>
      <trkpt lat="48.67318" lon="-2.32689">
        <ele>57</ele>
        <time>2020-06-24T08:50:45.053Z</time>
      </trkpt>
      <trkpt lat="48.67319" lon="-2.32689">
        <ele>57</ele>
        <time>2020-06-24T08:50:46.053Z</time>
      </trkpt>
      <trkpt lat="48.6732" lon="-2.32688">
        <ele>57</ele>
        <time>2020-06-24T08:50:47.053Z</time>
      </trkpt>
      <trkpt lat="48.67321" lon="-2.32687">
        <ele>57</ele>
        <time>2020-06-24T08:50:48.053Z</time>
      </trkpt>
      <trkpt lat="48.67323" lon="-2.32686">
        <ele>57</ele>
        <time>2020-06-24T08:50:49.053Z</time>
      </trkpt>
      <trkpt lat="48.67324" lon="-2.32686">
        <ele>57</ele>
        <time>2020-06-24T08:50:50.053Z</time>
      </trkpt>
      <trkpt lat="48.67325" lon="-2.32684">
        <ele>58</ele>
        <time>2020-06-24T08:50:51.053Z</time>
      </trkpt>
      <trkpt lat="48.67326" lon="-2.32683">
        <ele>58</ele>
        <time>2020-06-24T08:50:52.053Z</time>
      </trkpt>
      <trkpt lat="48.67327" lon="-2.32682">
        <ele>58</ele>
        <time>2020-06-24T08:50:53.053Z</time>
      </trkpt>
      <trkpt lat="48.67328" lon="-2.32681">
        <ele>58</ele>
        <time>2020-06-24T08:50:54.053Z</time>
      </trkpt>
      <trkpt lat="48.67329" lon="-2.3268">
        <ele>58</ele>
        <time>2020-06-24T08:50:55.053Z</time>
      </trkpt>
      <trkpt lat="48.6733" lon="-2.32679">
        <ele>58</ele>
        <time>2020-06-24T08:50:56.053Z</time>
      </trkpt>
      <trkpt lat="48.67331" lon="-2.32678">
        <ele>58</ele>
        <time>2020-06-24T08:50:57.053Z</time>
      </trkpt>
      <trkpt lat="48.67332" lon="-2.32677">
        <ele>59</ele>
        <time>2020-06-24T08:50:58.053Z</time>
      </trkpt>
      <trkpt lat="48.67333" lon="-2.32676">
        <ele>59</ele>
        <time>2020-06-24T08:50:59.053Z</time>
      </trkpt>
      <trkpt lat="48.67334" lon="-2.32675">
        <ele>59</ele>
        <time>2020-06-24T08:51:00.053Z</time>
      </trkpt>
      <trkpt lat="48.67335" lon="-2.32675">
        <ele>59</ele>
        <time>2020-06-24T08:51:01.053Z</time>
      </trkpt>
      <trkpt lat="48.67336" lon="-2.32674">
        <ele>59</ele>
        <time>2020-06-24T08:51:02.053Z</time>
      </trkpt>
      <trkpt lat="48.67338" lon="-2.32674">
        <ele>59</ele>
        <time>2020-06-24T08:51:03.053Z</time>
      </trkpt>
      <trkpt lat="48.67339" lon="-2.32674">
        <ele>59</ele>
        <time>2020-06-24T08:51:04.053Z</time>
      </trkpt>
      <trkpt lat="48.6734" lon="-2.32674">
        <ele>59</ele>
        <time>2020-06-24T08:51:05.053Z</time>
      </trkpt>
      <trkpt lat="48.67341" lon="-2.32675">
        <ele>60</ele>
        <time>2020-06-24T08:51:06.053Z</time>
      </trkpt>
      <trkpt lat="48.67342" lon="-2.32675">
        <ele>60</ele>
        <time>2020-06-24T08:51:07.053Z</time>
      </trkpt>
      <trkpt lat="48.67342" lon="-2.32675">
        <ele>60</ele>
        <time>2020-06-24T08:51:08.053Z</time>
      </trkpt>
      <trkpt lat="48.67342" lon="-2.32675">
        <ele>60</ele>
        <time>2020-06-24T08:51:09.053Z</time>
      </trkpt>
      <trkpt lat="48.67342" lon="-2.32675">
        <ele>60</ele>
        <time>2020-06-24T08:51:10.053Z</time>
      </trkpt>
      <trkpt lat="48.67342" lon="-2.32675">
        <ele>59</ele>
        <time>2020-06-24T08:51:11.053Z</time>
      </trkpt>
      <trkpt lat="48.67342" lon="-2.32675">
        <ele>59</ele>
        <time>2020-06-24T08:51:12.053Z</time>
      </trkpt>
      <trkpt lat="48.67342" lon="-2.32675">
        <ele>59</ele>
        <time>2020-06-24T08:51:13.053Z</time>
      </trkpt>
      <trkpt lat="48.67346" lon="-2.32678">
        <ele>59</ele>
        <time>2020-06-24T08:51:14.068Z</time>
      </trkpt>
      <trkpt lat="48.67347" lon="-2.32679">
        <ele>59</ele>
        <time>2020-06-24T08:51:15.068Z</time>
      </trkpt>
      <trkpt lat="48.67348" lon="-2.3268">
        <ele>59</ele>
        <time>2020-06-24T08:51:16.068Z</time>
      </trkpt>
      <trkpt lat="48.67349" lon="-2.3268">
        <ele>59</ele>
        <time>2020-06-24T08:51:17.068Z</time>
      </trkpt>
      <trkpt lat="48.6735" lon="-2.32681">
        <ele>59</ele>
        <time>2020-06-24T08:51:18.068Z</time>
      </trkpt>
      <trkpt lat="48.67352" lon="-2.32682">
        <ele>59</ele>
        <time>2020-06-24T08:51:19.068Z</time>
      </trkpt>
      <trkpt lat="48.67353" lon="-2.32683">
        <ele>59</ele>
        <time>2020-06-24T08:51:20.068Z</time>
      </trkpt>
      <trkpt lat="48.67354" lon="-2.32684">
        <ele>60</ele>
        <time>2020-06-24T08:51:21.068Z</time>
      </trkpt>
      <trkpt lat="48.67355" lon="-2.32684">
        <ele>60</ele>
        <time>2020-06-24T08:51:22.068Z</time>
      </trkpt>
      <trkpt lat="48.67356" lon="-2.32685">
        <ele>60</ele>
        <time>2020-06-24T08:51:23.068Z</time>
      </trkpt>
      <trkpt lat="48.67357" lon="-2.32686">
        <ele>60</ele>
        <time>2020-06-24T08:51:24.068Z</time>
      </trkpt>
      <trkpt lat="48.67358" lon="-2.32687">
        <ele>60</ele>
        <time>2020-06-24T08:51:25.068Z</time>
      </trkpt>
      <trkpt lat="48.6736" lon="-2.32688">
        <ele>60</ele>
        <time>2020-06-24T08:51:26.068Z</time>
      </trkpt>
      <trkpt lat="48.67361" lon="-2.32688">
        <ele>60</ele>
        <time>2020-06-24T08:51:27.068Z</time>
      </trkpt>
      <trkpt lat="48.67362" lon="-2.32689">
        <ele>60</ele>
        <time>2020-06-24T08:51:28.068Z</time>
      </trkpt>
      <trkpt lat="48.67363" lon="-2.3269">
        <ele>60</ele>
        <time>2020-06-24T08:51:29.068Z</time>
      </trkpt>
      <trkpt lat="48.67364" lon="-2.3269">
        <ele>60</ele>
        <time>2020-06-24T08:51:30.068Z</time>
      </trkpt>
      <trkpt lat="48.67365" lon="-2.32691">
        <ele>60</ele>
        <time>2020-06-24T08:51:31.068Z</time>
      </trkpt>
      <trkpt lat="48.67366" lon="-2.32691">
        <ele>60</ele>
        <time>2020-06-24T08:51:32.068Z</time>
      </trkpt>
      <trkpt lat="48.67368" lon="-2.32691">
        <ele>60</ele>
        <time>2020-06-24T08:51:33.068Z</time>
      </trkpt>
      <trkpt lat="48.67369" lon="-2.32692">
        <ele>60</ele>
        <time>2020-06-24T08:51:34.068Z</time>
      </trkpt>
      <trkpt lat="48.6737" lon="-2.32692">
        <ele>60</ele>
        <time>2020-06-24T08:51:35.068Z</time>
      </trkpt>
      <trkpt lat="48.67371" lon="-2.32693">
        <ele>60</ele>
        <time>2020-06-24T08:51:36.068Z</time>
      </trkpt>
      <trkpt lat="48.67373" lon="-2.32693">
        <ele>60</ele>
        <time>2020-06-24T08:51:37.068Z</time>
      </trkpt>
      <trkpt lat="48.67374" lon="-2.32694">
        <ele>60</ele>
        <time>2020-06-24T08:51:38.068Z</time>
      </trkpt>
      <trkpt lat="48.67375" lon="-2.32694">
        <ele>60</ele>
        <time>2020-06-24T08:51:39.068Z</time>
      </trkpt>
      <trkpt lat="48.67376" lon="-2.32695">
        <ele>60</ele>
        <time>2020-06-24T08:51:40.068Z</time>
      </trkpt>
      <trkpt lat="48.67378" lon="-2.32695">
        <ele>60</ele>
        <time>2020-06-24T08:51:41.068Z</time>
      </trkpt>
      <trkpt lat="48.67379" lon="-2.32696">
        <ele>60</ele>
        <time>2020-06-24T08:51:42.068Z</time>
      </trkpt>
      <trkpt lat="48.6738" lon="-2.32696">
        <ele>60</ele>
        <time>2020-06-24T08:51:43.068Z</time>
      </trkpt>
      <trkpt lat="48.67382" lon="-2.32697">
        <ele>60</ele>
        <time>2020-06-24T08:51:44.068Z</time>
      </trkpt>
      <trkpt lat="48.67383" lon="-2.32697">
        <ele>60</ele>
        <time>2020-06-24T08:51:45.068Z</time>
      </trkpt>
      <trkpt lat="48.67384" lon="-2.32697">
        <ele>60</ele>
        <time>2020-06-24T08:51:46.068Z</time>
      </trkpt>
      <trkpt lat="48.67386" lon="-2.32697">
        <ele>60</ele>
        <time>2020-06-24T08:51:47.068Z</time>
      </trkpt>
      <trkpt lat="48.67387" lon="-2.32698">
        <ele>60</ele>
        <time>2020-06-24T08:51:48.068Z</time>
      </trkpt>
      <trkpt lat="48.67388" lon="-2.32698">
        <ele>60</ele>
        <time>2020-06-24T08:51:49.068Z</time>
      </trkpt>
      <trkpt lat="48.67389" lon="-2.32699">
        <ele>60</ele>
        <time>2020-06-24T08:51:50.068Z</time>
      </trkpt>
      <trkpt lat="48.67389" lon="-2.32699">
        <ele>60</ele>
        <time>2020-06-24T08:51:51.068Z</time>
      </trkpt>
      <trkpt lat="48.67389" lon="-2.32699">
        <ele>61</ele>
        <time>2020-06-24T08:51:52.068Z</time>
      </trkpt>
      <trkpt lat="48.67389" lon="-2.32699">
        <ele>61</ele>
        <time>2020-06-24T08:51:53.068Z</time>
      </trkpt>
      <trkpt lat="48.67389" lon="-2.32699">
        <ele>61</ele>
        <time>2020-06-24T08:51:54.068Z</time>
      </trkpt>
      <trkpt lat="48.67389" lon="-2.32698">
        <ele>61</ele>
        <time>2020-06-24T08:51:55.068Z</time>
      </trkpt>
      <trkpt lat="48.67389" lon="-2.32698">
        <ele>61</ele>
        <time>2020-06-24T08:51:56.068Z</time>
      </trkpt>
      <trkpt lat="48.6739" lon="-2.32699">
        <ele>61</ele>
        <time>2020-06-24T08:51:57.083Z</time>
      </trkpt>
      <trkpt lat="48.6739" lon="-2.32699">
        <ele>61</ele>
        <time>2020-06-24T08:51:58.083Z</time>
      </trkpt>
      <trkpt lat="48.6739" lon="-2.32699">
        <ele>61</ele>
        <time>2020-06-24T08:51:59.083Z</time>
      </trkpt>
      <trkpt lat="48.6739" lon="-2.32699">
        <ele>61</ele>
        <time>2020-06-24T08:52:00.083Z</time>
      </trkpt>
      <trkpt lat="48.6739" lon="-2.32699">
        <ele>61</ele>
        <time>2020-06-24T08:52:01.083Z</time>
      </trkpt>
      <trkpt lat="48.67394" lon="-2.32701">
        <ele>60</ele>
        <time>2020-06-24T08:52:02.098Z</time>
      </trkpt>
      <trkpt lat="48.67396" lon="-2.32702">
        <ele>60</ele>
        <time>2020-06-24T08:52:03.098Z</time>
      </trkpt>
      <trkpt lat="48.67397" lon="-2.32703">
        <ele>60</ele>
        <time>2020-06-24T08:52:04.098Z</time>
      </trkpt>
      <trkpt lat="48.67398" lon="-2.32703">
        <ele>60</ele>
        <time>2020-06-24T08:52:05.098Z</time>
      </trkpt>
      <trkpt lat="48.67399" lon="-2.32704">
        <ele>60</ele>
        <time>2020-06-24T08:52:06.098Z</time>
      </trkpt>
      <trkpt lat="48.67401" lon="-2.32704">
        <ele>60</ele>
        <time>2020-06-24T08:52:07.098Z</time>
      </trkpt>
      <trkpt lat="48.67402" lon="-2.32705">
        <ele>60</ele>
        <time>2020-06-24T08:52:08.098Z</time>
      </trkpt>
      <trkpt lat="48.67403" lon="-2.32705">
        <ele>60</ele>
        <time>2020-06-24T08:52:09.098Z</time>
      </trkpt>
      <trkpt lat="48.67405" lon="-2.32706">
        <ele>60</ele>
        <time>2020-06-24T08:52:10.098Z</time>
      </trkpt>
      <trkpt lat="48.67406" lon="-2.32706">
        <ele>60</ele>
        <time>2020-06-24T08:52:11.098Z</time>
      </trkpt>
      <trkpt lat="48.67407" lon="-2.32707">
        <ele>60</ele>
        <time>2020-06-24T08:52:12.098Z</time>
      </trkpt>
      <trkpt lat="48.67409" lon="-2.32707">
        <ele>60</ele>
        <time>2020-06-24T08:52:13.098Z</time>
      </trkpt>
      <trkpt lat="48.6741" lon="-2.32708">
        <ele>60</ele>
        <time>2020-06-24T08:52:14.098Z</time>
      </trkpt>
      <trkpt lat="48.67411" lon="-2.32709">
        <ele>60</ele>
        <time>2020-06-24T08:52:15.098Z</time>
      </trkpt>
      <trkpt lat="48.67412" lon="-2.32709">
        <ele>60</ele>
        <time>2020-06-24T08:52:16.098Z</time>
      </trkpt>
      <trkpt lat="48.67414" lon="-2.3271">
        <ele>60</ele>
        <time>2020-06-24T08:52:17.098Z</time>
      </trkpt>
      <trkpt lat="48.67415" lon="-2.3271">
        <ele>60</ele>
        <time>2020-06-24T08:52:18.098Z</time>
      </trkpt>
      <trkpt lat="48.67416" lon="-2.32711">
        <ele>60</ele>
        <time>2020-06-24T08:52:19.098Z</time>
      </trkpt>
      <trkpt lat="48.67418" lon="-2.32711">
        <ele>60</ele>
        <time>2020-06-24T08:52:20.098Z</time>
      </trkpt>
      <trkpt lat="48.67419" lon="-2.32712">
        <ele>60</ele>
        <time>2020-06-24T08:52:21.098Z</time>
      </trkpt>
      <trkpt lat="48.6742" lon="-2.32713">
        <ele>59</ele>
        <time>2020-06-24T08:52:22.098Z</time>
      </trkpt>
      <trkpt lat="48.67421" lon="-2.32714">
        <ele>59</ele>
        <time>2020-06-24T08:52:23.098Z</time>
      </trkpt>
      <trkpt lat="48.67423" lon="-2.32714">
        <ele>59</ele>
        <time>2020-06-24T08:52:24.098Z</time>
      </trkpt>
      <trkpt lat="48.67424" lon="-2.32715">
        <ele>59</ele>
        <time>2020-06-24T08:52:25.098Z</time>
      </trkpt>
      <trkpt lat="48.67425" lon="-2.32716">
        <ele>59</ele>
        <time>2020-06-24T08:52:26.098Z</time>
      </trkpt>
      <trkpt lat="48.67427" lon="-2.32716">
        <ele>59</ele>
        <time>2020-06-24T08:52:27.098Z</time>
      </trkpt>
      <trkpt lat="48.67428" lon="-2.32717">
        <ele>59</ele>
        <time>2020-06-24T08:52:28.098Z</time>
      </trkpt>
      <trkpt lat="48.67429" lon="-2.32718">
        <ele>59</ele>
        <time>2020-06-24T08:52:29.098Z</time>
      </trkpt>
      <trkpt lat="48.6743" lon="-2.32719">
        <ele>59</ele>
        <time>2020-06-24T08:52:30.098Z</time>
      </trkpt>
      <trkpt lat="48.67432" lon="-2.32719">
        <ele>59</ele>
        <time>2020-06-24T08:52:31.098Z</time>
      </trkpt>
      <trkpt lat="48.67433" lon="-2.3272">
        <ele>59</ele>
        <time>2020-06-24T08:52:32.098Z</time>
      </trkpt>
      <trkpt lat="48.67434" lon="-2.32721">
        <ele>59</ele>
        <time>2020-06-24T08:52:33.098Z</time>
      </trkpt>
      <trkpt lat="48.67436" lon="-2.32721">
        <ele>59</ele>
        <time>2020-06-24T08:52:34.098Z</time>
      </trkpt>
      <trkpt lat="48.67437" lon="-2.32722">
        <ele>59</ele>
        <time>2020-06-24T08:52:35.098Z</time>
      </trkpt>
      <trkpt lat="48.67438" lon="-2.32722">
        <ele>59</ele>
        <time>2020-06-24T08:52:36.098Z</time>
      </trkpt>
      <trkpt lat="48.6744" lon="-2.32723">
        <ele>59</ele>
        <time>2020-06-24T08:52:37.098Z</time>
      </trkpt>
      <trkpt lat="48.67441" lon="-2.32723">
        <ele>59</ele>
        <time>2020-06-24T08:52:38.098Z</time>
      </trkpt>
      <trkpt lat="48.67443" lon="-2.32723">
        <ele>59</ele>
        <time>2020-06-24T08:52:39.098Z</time>
      </trkpt>
      <trkpt lat="48.67444" lon="-2.32724">
        <ele>59</ele>
        <time>2020-06-24T08:52:40.098Z</time>
      </trkpt>
      <trkpt lat="48.67445" lon="-2.32724">
        <ele>59</ele>
        <time>2020-06-24T08:52:41.098Z</time>
      </trkpt>
      <trkpt lat="48.67447" lon="-2.32724">
        <ele>59</ele>
        <time>2020-06-24T08:52:42.098Z</time>
      </trkpt>
      <trkpt lat="48.67448" lon="-2.32725">
        <ele>59</ele>
        <time>2020-06-24T08:52:43.098Z</time>
      </trkpt>
      <trkpt lat="48.67449" lon="-2.32725">
        <ele>59</ele>
        <time>2020-06-24T08:52:44.098Z</time>
      </trkpt>
      <trkpt lat="48.67451" lon="-2.32725">
        <ele>58</ele>
        <time>2020-06-24T08:52:45.098Z</time>
      </trkpt>
      <trkpt lat="48.67452" lon="-2.32725">
        <ele>58</ele>
        <time>2020-06-24T08:52:46.098Z</time>
      </trkpt>
      <trkpt lat="48.67454" lon="-2.32726">
        <ele>59</ele>
        <time>2020-06-24T08:52:47.098Z</time>
      </trkpt>
      <trkpt lat="48.67455" lon="-2.32726">
        <ele>59</ele>
        <time>2020-06-24T08:52:48.098Z</time>
      </trkpt>
      <trkpt lat="48.67456" lon="-2.32726">
        <ele>59</ele>
        <time>2020-06-24T08:52:49.098Z</time>
      </trkpt>
      <trkpt lat="48.67458" lon="-2.32727">
        <ele>59</ele>
        <time>2020-06-24T08:52:50.098Z</time>
      </trkpt>
      <trkpt lat="48.67459" lon="-2.32727">
        <ele>59</ele>
        <time>2020-06-24T08:52:51.098Z</time>
      </trkpt>
      <trkpt lat="48.67461" lon="-2.32727">
        <ele>59</ele>
        <time>2020-06-24T08:52:52.098Z</time>
      </trkpt>
      <trkpt lat="48.67462" lon="-2.32727">
        <ele>59</ele>
        <time>2020-06-24T08:52:53.098Z</time>
      </trkpt>
      <trkpt lat="48.67463" lon="-2.32727">
        <ele>59</ele>
        <time>2020-06-24T08:52:54.098Z</time>
      </trkpt>
      <trkpt lat="48.67465" lon="-2.32728">
        <ele>59</ele>
        <time>2020-06-24T08:52:55.098Z</time>
      </trkpt>
      <trkpt lat="48.67466" lon="-2.32728">
        <ele>59</ele>
        <time>2020-06-24T08:52:56.098Z</time>
      </trkpt>
      <trkpt lat="48.67468" lon="-2.32728">
        <ele>59</ele>
        <time>2020-06-24T08:52:57.098Z</time>
      </trkpt>
      <trkpt lat="48.67469" lon="-2.32729">
        <ele>60</ele>
        <time>2020-06-24T08:52:58.098Z</time>
      </trkpt>
      <trkpt lat="48.6747" lon="-2.32729">
        <ele>60</ele>
        <time>2020-06-24T08:52:59.098Z</time>
      </trkpt>
      <trkpt lat="48.67472" lon="-2.3273">
        <ele>60</ele>
        <time>2020-06-24T08:53:00.098Z</time>
      </trkpt>
      <trkpt lat="48.67473" lon="-2.32731">
        <ele>60</ele>
        <time>2020-06-24T08:53:01.098Z</time>
      </trkpt>
      <trkpt lat="48.67474" lon="-2.32731">
        <ele>60</ele>
        <time>2020-06-24T08:53:02.098Z</time>
      </trkpt>
      <trkpt lat="48.67475" lon="-2.32732">
        <ele>60</ele>
        <time>2020-06-24T08:53:03.098Z</time>
      </trkpt>
      <trkpt lat="48.67477" lon="-2.32733">
        <ele>60</ele>
        <time>2020-06-24T08:53:04.098Z</time>
      </trkpt>
      <trkpt lat="48.67478" lon="-2.32734">
        <ele>60</ele>
        <time>2020-06-24T08:53:05.098Z</time>
      </trkpt>
      <trkpt lat="48.67479" lon="-2.32734">
        <ele>60</ele>
        <time>2020-06-24T08:53:06.098Z</time>
      </trkpt>
      <trkpt lat="48.67481" lon="-2.32735">
        <ele>59</ele>
        <time>2020-06-24T08:53:07.098Z</time>
      </trkpt>
      <trkpt lat="48.67482" lon="-2.32735">
        <ele>59</ele>
        <time>2020-06-24T08:53:08.098Z</time>
      </trkpt>
      <trkpt lat="48.67483" lon="-2.32735">
        <ele>59</ele>
        <time>2020-06-24T08:53:09.098Z</time>
      </trkpt>
      <trkpt lat="48.67484" lon="-2.32735">
        <ele>59</ele>
        <time>2020-06-24T08:53:10.098Z</time>
      </trkpt>
      <trkpt lat="48.67485" lon="-2.32734">
        <ele>59</ele>
        <time>2020-06-24T08:53:11.098Z</time>
      </trkpt>
      <trkpt lat="48.67486" lon="-2.32734">
        <ele>60</ele>
        <time>2020-06-24T08:53:12.098Z</time>
      </trkpt>
      <trkpt lat="48.67488" lon="-2.32733">
        <ele>59</ele>
        <time>2020-06-24T08:53:13.098Z</time>
      </trkpt>
      <trkpt lat="48.67489" lon="-2.32733">
        <ele>59</ele>
        <time>2020-06-24T08:53:14.098Z</time>
      </trkpt>
      <trkpt lat="48.6749" lon="-2.32732">
        <ele>59</ele>
        <time>2020-06-24T08:53:15.098Z</time>
      </trkpt>
      <trkpt lat="48.67491" lon="-2.32731">
        <ele>59</ele>
        <time>2020-06-24T08:53:16.098Z</time>
      </trkpt>
      <trkpt lat="48.67492" lon="-2.3273">
        <ele>59</ele>
        <time>2020-06-24T08:53:17.098Z</time>
      </trkpt>
      <trkpt lat="48.67493" lon="-2.32729">
        <ele>59</ele>
        <time>2020-06-24T08:53:18.098Z</time>
      </trkpt>
      <trkpt lat="48.67494" lon="-2.32729">
        <ele>59</ele>
        <time>2020-06-24T08:53:19.098Z</time>
      </trkpt>
      <trkpt lat="48.67495" lon="-2.32728">
        <ele>59</ele>
        <time>2020-06-24T08:53:20.098Z</time>
      </trkpt>
      <trkpt lat="48.67497" lon="-2.32727">
        <ele>58</ele>
        <time>2020-06-24T08:53:21.098Z</time>
      </trkpt>
      <trkpt lat="48.67498" lon="-2.32725">
        <ele>58</ele>
        <time>2020-06-24T08:53:22.098Z</time>
      </trkpt>
      <trkpt lat="48.67499" lon="-2.32724">
        <ele>58</ele>
        <time>2020-06-24T08:53:23.098Z</time>
      </trkpt>
      <trkpt lat="48.675" lon="-2.32722">
        <ele>58</ele>
        <time>2020-06-24T08:53:24.098Z</time>
      </trkpt>
      <trkpt lat="48.675" lon="-2.32721">
        <ele>58</ele>
        <time>2020-06-24T08:53:25.098Z</time>
      </trkpt>
      <trkpt lat="48.67501" lon="-2.3272">
        <ele>58</ele>
        <time>2020-06-24T08:53:26.098Z</time>
      </trkpt>
      <trkpt lat="48.67503" lon="-2.32719">
        <ele>58</ele>
        <time>2020-06-24T08:53:27.098Z</time>
      </trkpt>
      <trkpt lat="48.67504" lon="-2.32718">
        <ele>58</ele>
        <time>2020-06-24T08:53:28.098Z</time>
      </trkpt>
      <trkpt lat="48.67505" lon="-2.32718">
        <ele>58</ele>
        <time>2020-06-24T08:53:29.098Z</time>
      </trkpt>
      <trkpt lat="48.67506" lon="-2.32717">
        <ele>57</ele>
        <time>2020-06-24T08:53:30.098Z</time>
      </trkpt>
      <trkpt lat="48.67507" lon="-2.32715">
        <ele>57</ele>
        <time>2020-06-24T08:53:31.098Z</time>
      </trkpt>
      <trkpt lat="48.67508" lon="-2.32714">
        <ele>57</ele>
        <time>2020-06-24T08:53:32.098Z</time>
      </trkpt>
      <trkpt lat="48.67509" lon="-2.32712">
        <ele>57</ele>
        <time>2020-06-24T08:53:33.098Z</time>
      </trkpt>
      <trkpt lat="48.6751" lon="-2.32711">
        <ele>57</ele>
        <time>2020-06-24T08:53:34.098Z</time>
      </trkpt>
      <trkpt lat="48.67511" lon="-2.32709">
        <ele>57</ele>
        <time>2020-06-24T08:53:35.098Z</time>
      </trkpt>
      <trkpt lat="48.67512" lon="-2.32708">
        <ele>57</ele>
        <time>2020-06-24T08:53:36.098Z</time>
      </trkpt>
      <trkpt lat="48.67513" lon="-2.32706">
        <ele>57</ele>
        <time>2020-06-24T08:53:37.098Z</time>
      </trkpt>
      <trkpt lat="48.67514" lon="-2.32704">
        <ele>57</ele>
        <time>2020-06-24T08:53:38.098Z</time>
      </trkpt>
      <trkpt lat="48.67515" lon="-2.32703">
        <ele>56</ele>
        <time>2020-06-24T08:53:39.098Z</time>
      </trkpt>
      <trkpt lat="48.67516" lon="-2.32701">
        <ele>56</ele>
        <time>2020-06-24T08:53:40.098Z</time>
      </trkpt>
      <trkpt lat="48.67517" lon="-2.327">
        <ele>56</ele>
        <time>2020-06-24T08:53:41.098Z</time>
      </trkpt>
      <trkpt lat="48.67517" lon="-2.32699">
        <ele>56</ele>
        <time>2020-06-24T08:53:42.098Z</time>
      </trkpt>
      <trkpt lat="48.67518" lon="-2.32697">
        <ele>55</ele>
        <time>2020-06-24T08:53:43.098Z</time>
      </trkpt>
      <trkpt lat="48.67519" lon="-2.32696">
        <ele>55</ele>
        <time>2020-06-24T08:53:44.098Z</time>
      </trkpt>
      <trkpt lat="48.6752" lon="-2.32694">
        <ele>55</ele>
        <time>2020-06-24T08:53:45.098Z</time>
      </trkpt>
      <trkpt lat="48.67521" lon="-2.32693">
        <ele>55</ele>
        <time>2020-06-24T08:53:46.098Z</time>
      </trkpt>
      <trkpt lat="48.67522" lon="-2.32691">
        <ele>55</ele>
        <time>2020-06-24T08:53:47.098Z</time>
      </trkpt>
      <trkpt lat="48.67523" lon="-2.32689">
        <ele>55</ele>
        <time>2020-06-24T08:53:48.098Z</time>
      </trkpt>
      <trkpt lat="48.67523" lon="-2.32688">
        <ele>55</ele>
        <time>2020-06-24T08:53:49.098Z</time>
      </trkpt>
      <trkpt lat="48.67524" lon="-2.32686">
        <ele>55</ele>
        <time>2020-06-24T08:53:50.098Z</time>
      </trkpt>
      <trkpt lat="48.67524" lon="-2.32684">
        <ele>55</ele>
        <time>2020-06-24T08:53:51.098Z</time>
      </trkpt>
      <trkpt lat="48.67525" lon="-2.32682">
        <ele>55</ele>
        <time>2020-06-24T08:53:52.098Z</time>
      </trkpt>
      <trkpt lat="48.67526" lon="-2.3268">
        <ele>56</ele>
        <time>2020-06-24T08:53:53.098Z</time>
      </trkpt>
      <trkpt lat="48.67527" lon="-2.32679">
        <ele>56</ele>
        <time>2020-06-24T08:53:54.098Z</time>
      </trkpt>
      <trkpt lat="48.67528" lon="-2.32678">
        <ele>55</ele>
        <time>2020-06-24T08:53:55.098Z</time>
      </trkpt>
      <trkpt lat="48.67529" lon="-2.32677">
        <ele>55</ele>
        <time>2020-06-24T08:53:56.098Z</time>
      </trkpt>
      <trkpt lat="48.6753" lon="-2.32678">
        <ele>55</ele>
        <time>2020-06-24T08:53:57.098Z</time>
      </trkpt>
      <trkpt lat="48.67531" lon="-2.32678">
        <ele>55</ele>
        <time>2020-06-24T08:53:58.098Z</time>
      </trkpt>
      <trkpt lat="48.67532" lon="-2.32679">
        <ele>54</ele>
        <time>2020-06-24T08:53:59.098Z</time>
      </trkpt>
      <trkpt lat="48.67533" lon="-2.32679">
        <ele>54</ele>
        <time>2020-06-24T08:54:00.098Z</time>
      </trkpt>
      <trkpt lat="48.67534" lon="-2.3268">
        <ele>54</ele>
        <time>2020-06-24T08:54:01.098Z</time>
      </trkpt>
      <trkpt lat="48.67535" lon="-2.3268">
        <ele>54</ele>
        <time>2020-06-24T08:54:02.098Z</time>
      </trkpt>
      <trkpt lat="48.67536" lon="-2.32681">
        <ele>53</ele>
        <time>2020-06-24T08:54:03.098Z</time>
      </trkpt>
      <trkpt lat="48.67537" lon="-2.32681">
        <ele>53</ele>
        <time>2020-06-24T08:54:04.098Z</time>
      </trkpt>
      <trkpt lat="48.67538" lon="-2.32682">
        <ele>53</ele>
        <time>2020-06-24T08:54:05.098Z</time>
      </trkpt>
      <trkpt lat="48.67539" lon="-2.32683">
        <ele>53</ele>
        <time>2020-06-24T08:54:06.098Z</time>
      </trkpt>
      <trkpt lat="48.6754" lon="-2.32684">
        <ele>53</ele>
        <time>2020-06-24T08:54:07.098Z</time>
      </trkpt>
      <trkpt lat="48.67541" lon="-2.32684">
        <ele>52</ele>
        <time>2020-06-24T08:54:08.098Z</time>
      </trkpt>
      <trkpt lat="48.67542" lon="-2.32685">
        <ele>52</ele>
        <time>2020-06-24T08:54:09.098Z</time>
      </trkpt>
      <trkpt lat="48.67543" lon="-2.32685">
        <ele>52</ele>
        <time>2020-06-24T08:54:10.098Z</time>
      </trkpt>
      <trkpt lat="48.67544" lon="-2.32685">
        <ele>51</ele>
        <time>2020-06-24T08:54:11.098Z</time>
      </trkpt>
      <trkpt lat="48.67546" lon="-2.32685">
        <ele>52</ele>
        <time>2020-06-24T08:54:12.098Z</time>
      </trkpt>
      <trkpt lat="48.67547" lon="-2.32685">
        <ele>52</ele>
        <time>2020-06-24T08:54:13.098Z</time>
      </trkpt>
      <trkpt lat="48.67548" lon="-2.32684">
        <ele>52</ele>
        <time>2020-06-24T08:54:14.098Z</time>
      </trkpt>
      <trkpt lat="48.67549" lon="-2.32683">
        <ele>52</ele>
        <time>2020-06-24T08:54:15.098Z</time>
      </trkpt>
      <trkpt lat="48.6755" lon="-2.32682">
        <ele>52</ele>
        <time>2020-06-24T08:54:16.098Z</time>
      </trkpt>
      <trkpt lat="48.67551" lon="-2.32681">
        <ele>51</ele>
        <time>2020-06-24T08:54:17.098Z</time>
      </trkpt>
      <trkpt lat="48.67553" lon="-2.3268">
        <ele>51</ele>
        <time>2020-06-24T08:54:18.098Z</time>
      </trkpt>
      <trkpt lat="48.67554" lon="-2.32679">
        <ele>51</ele>
        <time>2020-06-24T08:54:19.098Z</time>
      </trkpt>
      <trkpt lat="48.67555" lon="-2.32678">
        <ele>51</ele>
        <time>2020-06-24T08:54:20.098Z</time>
      </trkpt>
      <trkpt lat="48.67557" lon="-2.32677">
        <ele>51</ele>
        <time>2020-06-24T08:54:21.098Z</time>
      </trkpt>
      <trkpt lat="48.67558" lon="-2.32676">
        <ele>51</ele>
        <time>2020-06-24T08:54:22.098Z</time>
      </trkpt>
      <trkpt lat="48.67559" lon="-2.32675">
        <ele>52</ele>
        <time>2020-06-24T08:54:23.098Z</time>
      </trkpt>
      <trkpt lat="48.6756" lon="-2.32674">
        <ele>51</ele>
        <time>2020-06-24T08:54:24.098Z</time>
      </trkpt>
      <trkpt lat="48.67562" lon="-2.32673">
        <ele>52</ele>
        <time>2020-06-24T08:54:25.098Z</time>
      </trkpt>
      <trkpt lat="48.67563" lon="-2.32672">
        <ele>51</ele>
        <time>2020-06-24T08:54:26.098Z</time>
      </trkpt>
      <trkpt lat="48.67565" lon="-2.32671">
        <ele>51</ele>
        <time>2020-06-24T08:54:27.098Z</time>
      </trkpt>
      <trkpt lat="48.67566" lon="-2.3267">
        <ele>51</ele>
        <time>2020-06-24T08:54:28.098Z</time>
      </trkpt>
      <trkpt lat="48.67567" lon="-2.32668">
        <ele>51</ele>
        <time>2020-06-24T08:54:29.098Z</time>
      </trkpt>
      <trkpt lat="48.67569" lon="-2.32667">
        <ele>51</ele>
        <time>2020-06-24T08:54:30.098Z</time>
      </trkpt>
      <trkpt lat="48.6757" lon="-2.32666">
        <ele>51</ele>
        <time>2020-06-24T08:54:31.098Z</time>
      </trkpt>
      <trkpt lat="48.67571" lon="-2.32665">
        <ele>51</ele>
        <time>2020-06-24T08:54:32.098Z</time>
      </trkpt>
      <trkpt lat="48.67572" lon="-2.32664">
        <ele>51</ele>
        <time>2020-06-24T08:54:33.098Z</time>
      </trkpt>
      <trkpt lat="48.67573" lon="-2.32663">
        <ele>51</ele>
        <time>2020-06-24T08:54:34.098Z</time>
      </trkpt>
      <trkpt lat="48.67574" lon="-2.32662">
        <ele>51</ele>
        <time>2020-06-24T08:54:35.098Z</time>
      </trkpt>
      <trkpt lat="48.67576" lon="-2.3266">
        <ele>51</ele>
        <time>2020-06-24T08:54:36.098Z</time>
      </trkpt>
      <trkpt lat="48.67577" lon="-2.32659">
        <ele>50</ele>
        <time>2020-06-24T08:54:37.098Z</time>
      </trkpt>
      <trkpt lat="48.67578" lon="-2.32658">
        <ele>51</ele>
        <time>2020-06-24T08:54:38.098Z</time>
      </trkpt>
      <trkpt lat="48.67579" lon="-2.32657">
        <ele>51</ele>
        <time>2020-06-24T08:54:39.098Z</time>
      </trkpt>
      <trkpt lat="48.6758" lon="-2.32655">
        <ele>51</ele>
        <time>2020-06-24T08:54:40.098Z</time>
      </trkpt>
      <trkpt lat="48.67581" lon="-2.32654">
        <ele>51</ele>
        <time>2020-06-24T08:54:41.098Z</time>
      </trkpt>
      <trkpt lat="48.67582" lon="-2.32653">
        <ele>51</ele>
        <time>2020-06-24T08:54:42.098Z</time>
      </trkpt>
      <trkpt lat="48.67583" lon="-2.32652">
        <ele>51</ele>
        <time>2020-06-24T08:54:43.098Z</time>
      </trkpt>
      <trkpt lat="48.67584" lon="-2.32651">
        <ele>51</ele>
        <time>2020-06-24T08:54:44.098Z</time>
      </trkpt>
      <trkpt lat="48.67585" lon="-2.32649">
        <ele>51</ele>
        <time>2020-06-24T08:54:45.098Z</time>
      </trkpt>
      <trkpt lat="48.67586" lon="-2.32648">
        <ele>51</ele>
        <time>2020-06-24T08:54:46.098Z</time>
      </trkpt>
      <trkpt lat="48.67588" lon="-2.32647">
        <ele>50</ele>
        <time>2020-06-24T08:54:47.098Z</time>
      </trkpt>
      <trkpt lat="48.67589" lon="-2.32646">
        <ele>50</ele>
        <time>2020-06-24T08:54:48.098Z</time>
      </trkpt>
      <trkpt lat="48.6759" lon="-2.32645">
        <ele>50</ele>
        <time>2020-06-24T08:54:49.098Z</time>
      </trkpt>
      <trkpt lat="48.67591" lon="-2.32644">
        <ele>50</ele>
        <time>2020-06-24T08:54:50.098Z</time>
      </trkpt>
      <trkpt lat="48.67592" lon="-2.32643">
        <ele>50</ele>
        <time>2020-06-24T08:54:51.098Z</time>
      </trkpt>
      <trkpt lat="48.67593" lon="-2.32642">
        <ele>50</ele>
        <time>2020-06-24T08:54:52.098Z</time>
      </trkpt>
      <trkpt lat="48.67594" lon="-2.3264">
        <ele>50</ele>
        <time>2020-06-24T08:54:53.098Z</time>
      </trkpt>
      <trkpt lat="48.67595" lon="-2.32638">
        <ele>50</ele>
        <time>2020-06-24T08:54:54.098Z</time>
      </trkpt>
      <trkpt lat="48.67595" lon="-2.32637">
        <ele>50</ele>
        <time>2020-06-24T08:54:55.098Z</time>
      </trkpt>
      <trkpt lat="48.67596" lon="-2.32635">
        <ele>50</ele>
        <time>2020-06-24T08:54:56.098Z</time>
      </trkpt>
      <trkpt lat="48.67597" lon="-2.32633">
        <ele>50</ele>
        <time>2020-06-24T08:54:57.098Z</time>
      </trkpt>
      <trkpt lat="48.67597" lon="-2.32631">
        <ele>50</ele>
        <time>2020-06-24T08:54:58.098Z</time>
      </trkpt>
      <trkpt lat="48.67597" lon="-2.32629">
        <ele>50</ele>
        <time>2020-06-24T08:54:59.098Z</time>
      </trkpt>
      <trkpt lat="48.67598" lon="-2.32627">
        <ele>50</ele>
        <time>2020-06-24T08:55:00.098Z</time>
      </trkpt>
      <trkpt lat="48.67598" lon="-2.32626">
        <ele>50</ele>
        <time>2020-06-24T08:55:01.098Z</time>
      </trkpt>
      <trkpt lat="48.67598" lon="-2.32624">
        <ele>50</ele>
        <time>2020-06-24T08:55:02.098Z</time>
      </trkpt>
      <trkpt lat="48.67599" lon="-2.32622">
        <ele>50</ele>
        <time>2020-06-24T08:55:03.098Z</time>
      </trkpt>
      <trkpt lat="48.67599" lon="-2.3262">
        <ele>50</ele>
        <time>2020-06-24T08:55:04.098Z</time>
      </trkpt>
      <trkpt lat="48.676" lon="-2.32618">
        <ele>50</ele>
        <time>2020-06-24T08:55:05.098Z</time>
      </trkpt>
      <trkpt lat="48.676" lon="-2.32617">
        <ele>49</ele>
        <time>2020-06-24T08:55:06.098Z</time>
      </trkpt>
      <trkpt lat="48.67601" lon="-2.32616">
        <ele>50</ele>
        <time>2020-06-24T08:55:07.098Z</time>
      </trkpt>
      <trkpt lat="48.67602" lon="-2.32615">
        <ele>49</ele>
        <time>2020-06-24T08:55:08.098Z</time>
      </trkpt>
      <trkpt lat="48.67603" lon="-2.32614">
        <ele>49</ele>
        <time>2020-06-24T08:55:09.098Z</time>
      </trkpt>
      <trkpt lat="48.67604" lon="-2.32613">
        <ele>49</ele>
        <time>2020-06-24T08:55:10.098Z</time>
      </trkpt>
      <trkpt lat="48.67606" lon="-2.32613">
        <ele>49</ele>
        <time>2020-06-24T08:55:11.098Z</time>
      </trkpt>
      <trkpt lat="48.67607" lon="-2.32612">
        <ele>49</ele>
        <time>2020-06-24T08:55:12.098Z</time>
      </trkpt>
      <trkpt lat="48.67608" lon="-2.32613">
        <ele>49</ele>
        <time>2020-06-24T08:55:13.098Z</time>
      </trkpt>
      <trkpt lat="48.67609" lon="-2.32613">
        <ele>49</ele>
        <time>2020-06-24T08:55:14.098Z</time>
      </trkpt>
      <trkpt lat="48.6761" lon="-2.32614">
        <ele>49</ele>
        <time>2020-06-24T08:55:15.098Z</time>
      </trkpt>
      <trkpt lat="48.67611" lon="-2.32615">
        <ele>49</ele>
        <time>2020-06-24T08:55:16.098Z</time>
      </trkpt>
      <trkpt lat="48.67612" lon="-2.32616">
        <ele>49</ele>
        <time>2020-06-24T08:55:17.098Z</time>
      </trkpt>
      <trkpt lat="48.67613" lon="-2.32617">
        <ele>49</ele>
        <time>2020-06-24T08:55:18.098Z</time>
      </trkpt>
      <trkpt lat="48.67614" lon="-2.32617">
        <ele>49</ele>
        <time>2020-06-24T08:55:19.098Z</time>
      </trkpt>
      <trkpt lat="48.67614" lon="-2.32617">
        <ele>49</ele>
        <time>2020-06-24T08:55:20.098Z</time>
      </trkpt>
      <trkpt lat="48.67614" lon="-2.32617">
        <ele>49</ele>
        <time>2020-06-24T08:55:21.098Z</time>
      </trkpt>
      <trkpt lat="48.67614" lon="-2.32617">
        <ele>49</ele>
        <time>2020-06-24T08:55:22.098Z</time>
      </trkpt>
      <trkpt lat="48.67614" lon="-2.32617">
        <ele>49</ele>
        <time>2020-06-24T08:55:23.098Z</time>
      </trkpt>
      <trkpt lat="48.67615" lon="-2.32617">
        <ele>49</ele>
        <time>2020-06-24T08:55:24.098Z</time>
      </trkpt>
      <trkpt lat="48.67615" lon="-2.32617">
        <ele>49</ele>
        <time>2020-06-24T08:55:25.098Z</time>
      </trkpt>
      <trkpt lat="48.67615" lon="-2.32617">
        <ele>48</ele>
        <time>2020-06-24T08:55:26.098Z</time>
      </trkpt>
      <trkpt lat="48.67615" lon="-2.32617">
        <ele>48</ele>
        <time>2020-06-24T08:55:27.098Z</time>
      </trkpt>
      <trkpt lat="48.67615" lon="-2.32617">
        <ele>48</ele>
        <time>2020-06-24T08:55:28.098Z</time>
      </trkpt>
      <trkpt lat="48.67615" lon="-2.32618">
        <ele>49</ele>
        <time>2020-06-24T08:55:29.098Z</time>
      </trkpt>
      <trkpt lat="48.67615" lon="-2.32618">
        <ele>49</ele>
        <time>2020-06-24T08:55:30.098Z</time>
      </trkpt>
      <trkpt lat="48.67615" lon="-2.32618">
        <ele>49</ele>
        <time>2020-06-24T08:55:31.098Z</time>
      </trkpt>
      <trkpt lat="48.67615" lon="-2.32618">
        <ele>49</ele>
        <time>2020-06-24T08:55:32.098Z</time>
      </trkpt>
      <trkpt lat="48.67617" lon="-2.32618">
        <ele>50</ele>
        <time>2020-06-24T08:55:33.102Z</time>
      </trkpt>
      <trkpt lat="48.67618" lon="-2.32617">
        <ele>50</ele>
        <time>2020-06-24T08:55:34.102Z</time>
      </trkpt>
      <trkpt lat="48.67619" lon="-2.32617">
        <ele>50</ele>
        <time>2020-06-24T08:55:35.102Z</time>
      </trkpt>
      <trkpt lat="48.67619" lon="-2.32616">
        <ele>50</ele>
        <time>2020-06-24T08:55:36.102Z</time>
      </trkpt>
      <trkpt lat="48.6762" lon="-2.32615">
        <ele>50</ele>
        <time>2020-06-24T08:55:37.102Z</time>
      </trkpt>
      <trkpt lat="48.6762" lon="-2.32614">
        <ele>50</ele>
        <time>2020-06-24T08:55:38.102Z</time>
      </trkpt>
      <trkpt lat="48.67621" lon="-2.32613">
        <ele>50</ele>
        <time>2020-06-24T08:55:39.102Z</time>
      </trkpt>
      <trkpt lat="48.67622" lon="-2.32612">
        <ele>51</ele>
        <time>2020-06-24T08:55:40.102Z</time>
      </trkpt>
      <trkpt lat="48.67622" lon="-2.32612">
        <ele>51</ele>
        <time>2020-06-24T08:55:41.102Z</time>
      </trkpt>
      <trkpt lat="48.67623" lon="-2.32612">
        <ele>51</ele>
        <time>2020-06-24T08:55:42.102Z</time>
      </trkpt>
      <trkpt lat="48.67624" lon="-2.32613">
        <ele>51</ele>
        <time>2020-06-24T08:55:43.102Z</time>
      </trkpt>
      <trkpt lat="48.67624" lon="-2.32614">
        <ele>52</ele>
        <time>2020-06-24T08:55:44.102Z</time>
      </trkpt>
      <trkpt lat="48.67624" lon="-2.32616">
        <ele>52</ele>
        <time>2020-06-24T08:55:45.102Z</time>
      </trkpt>
      <trkpt lat="48.67624" lon="-2.32618">
        <ele>52</ele>
        <time>2020-06-24T08:55:46.102Z</time>
      </trkpt>
      <trkpt lat="48.67624" lon="-2.32619">
        <ele>52</ele>
        <time>2020-06-24T08:55:47.102Z</time>
      </trkpt>
      <trkpt lat="48.67624" lon="-2.32621">
        <ele>52</ele>
        <time>2020-06-24T08:55:48.102Z</time>
      </trkpt>
      <trkpt lat="48.67624" lon="-2.32623">
        <ele>52</ele>
        <time>2020-06-24T08:55:49.102Z</time>
      </trkpt>
      <trkpt lat="48.67624" lon="-2.32625">
        <ele>52</ele>
        <time>2020-06-24T08:55:50.102Z</time>
      </trkpt>
      <trkpt lat="48.67624" lon="-2.32627">
        <ele>52</ele>
        <time>2020-06-24T08:55:51.102Z</time>
      </trkpt>
      <trkpt lat="48.67624" lon="-2.32628">
        <ele>52</ele>
        <time>2020-06-24T08:55:52.102Z</time>
      </trkpt>
      <trkpt lat="48.67624" lon="-2.32631">
        <ele>52</ele>
        <time>2020-06-24T08:55:53.102Z</time>
      </trkpt>
      <trkpt lat="48.67624" lon="-2.32633">
        <ele>53</ele>
        <time>2020-06-24T08:55:54.102Z</time>
      </trkpt>
      <trkpt lat="48.67624" lon="-2.32635">
        <ele>53</ele>
        <time>2020-06-24T08:55:55.102Z</time>
      </trkpt>
      <trkpt lat="48.67623" lon="-2.32637">
        <ele>53</ele>
        <time>2020-06-24T08:55:56.102Z</time>
      </trkpt>
      <trkpt lat="48.67623" lon="-2.32638">
        <ele>53</ele>
        <time>2020-06-24T08:55:57.102Z</time>
      </trkpt>
      <trkpt lat="48.67623" lon="-2.32638">
        <ele>53</ele>
        <time>2020-06-24T08:55:58.102Z</time>
      </trkpt>
      <trkpt lat="48.67624" lon="-2.32638">
        <ele>53</ele>
        <time>2020-06-24T08:55:59.102Z</time>
      </trkpt>
      <trkpt lat="48.67624" lon="-2.32638">
        <ele>53</ele>
        <time>2020-06-24T08:56:00.102Z</time>
      </trkpt>
      <trkpt lat="48.67624" lon="-2.32638">
        <ele>53</ele>
        <time>2020-06-24T08:56:01.102Z</time>
      </trkpt>
      <trkpt lat="48.67624" lon="-2.32638">
        <ele>53</ele>
        <time>2020-06-24T08:56:02.102Z</time>
      </trkpt>
      <trkpt lat="48.67624" lon="-2.32638">
        <ele>53</ele>
        <time>2020-06-24T08:56:03.102Z</time>
      </trkpt>
      <trkpt lat="48.67624" lon="-2.32644">
        <ele>52</ele>
        <time>2020-06-24T08:56:04.106Z</time>
      </trkpt>
      <trkpt lat="48.67623" lon="-2.32646">
        <ele>52</ele>
        <time>2020-06-24T08:56:05.106Z</time>
      </trkpt>
      <trkpt lat="48.67623" lon="-2.32648">
        <ele>52</ele>
        <time>2020-06-24T08:56:06.106Z</time>
      </trkpt>
      <trkpt lat="48.67623" lon="-2.3265">
        <ele>52</ele>
        <time>2020-06-24T08:56:07.106Z</time>
      </trkpt>
      <trkpt lat="48.67623" lon="-2.32652">
        <ele>52</ele>
        <time>2020-06-24T08:56:08.106Z</time>
      </trkpt>
      <trkpt lat="48.67622" lon="-2.32654">
        <ele>52</ele>
        <time>2020-06-24T08:56:09.106Z</time>
      </trkpt>
      <trkpt lat="48.67622" lon="-2.32655">
        <ele>52</ele>
        <time>2020-06-24T08:56:10.106Z</time>
      </trkpt>
      <trkpt lat="48.67622" lon="-2.32657">
        <ele>52</ele>
        <time>2020-06-24T08:56:11.106Z</time>
      </trkpt>
      <trkpt lat="48.67621" lon="-2.32659">
        <ele>52</ele>
        <time>2020-06-24T08:56:12.106Z</time>
      </trkpt>
      <trkpt lat="48.67621" lon="-2.32661">
        <ele>52</ele>
        <time>2020-06-24T08:56:13.106Z</time>
      </trkpt>
      <trkpt lat="48.6762" lon="-2.32663">
        <ele>52</ele>
        <time>2020-06-24T08:56:14.106Z</time>
      </trkpt>
      <trkpt lat="48.6762" lon="-2.32665">
        <ele>52</ele>
        <time>2020-06-24T08:56:15.106Z</time>
      </trkpt>
      <trkpt lat="48.6762" lon="-2.32667">
        <ele>53</ele>
        <time>2020-06-24T08:56:16.106Z</time>
      </trkpt>
      <trkpt lat="48.67619" lon="-2.32669">
        <ele>52</ele>
        <time>2020-06-24T08:56:17.106Z</time>
      </trkpt>
      <trkpt lat="48.67618" lon="-2.32671">
        <ele>52</ele>
        <time>2020-06-24T08:56:18.106Z</time>
      </trkpt>
      <trkpt lat="48.67617" lon="-2.32673">
        <ele>52</ele>
        <time>2020-06-24T08:56:19.106Z</time>
      </trkpt>
      <trkpt lat="48.67617" lon="-2.32674">
        <ele>52</ele>
        <time>2020-06-24T08:56:20.106Z</time>
      </trkpt>
      <trkpt lat="48.67616" lon="-2.32676">
        <ele>52</ele>
        <time>2020-06-24T08:56:21.106Z</time>
      </trkpt>
      <trkpt lat="48.67615" lon="-2.32678">
        <ele>52</ele>
        <time>2020-06-24T08:56:22.106Z</time>
      </trkpt>
      <trkpt lat="48.67614" lon="-2.3268">
        <ele>52</ele>
        <time>2020-06-24T08:56:23.106Z</time>
      </trkpt>
      <trkpt lat="48.67613" lon="-2.32681">
        <ele>52</ele>
        <time>2020-06-24T08:56:24.106Z</time>
      </trkpt>
      <trkpt lat="48.67612" lon="-2.32683">
        <ele>52</ele>
        <time>2020-06-24T08:56:25.106Z</time>
      </trkpt>
      <trkpt lat="48.67611" lon="-2.32685">
        <ele>52</ele>
        <time>2020-06-24T08:56:26.106Z</time>
      </trkpt>
      <trkpt lat="48.6761" lon="-2.32687">
        <ele>52</ele>
        <time>2020-06-24T08:56:27.106Z</time>
      </trkpt>
      <trkpt lat="48.6761" lon="-2.32688">
        <ele>52</ele>
        <time>2020-06-24T08:56:28.106Z</time>
      </trkpt>
      <trkpt lat="48.67609" lon="-2.3269">
        <ele>52</ele>
        <time>2020-06-24T08:56:29.106Z</time>
      </trkpt>
      <trkpt lat="48.67608" lon="-2.32692">
        <ele>52</ele>
        <time>2020-06-24T08:56:30.106Z</time>
      </trkpt>
      <trkpt lat="48.67607" lon="-2.32693">
        <ele>52</ele>
        <time>2020-06-24T08:56:31.106Z</time>
      </trkpt>
      <trkpt lat="48.67606" lon="-2.32695">
        <ele>52</ele>
        <time>2020-06-24T08:56:32.106Z</time>
      </trkpt>
      <trkpt lat="48.67606" lon="-2.32697">
        <ele>52</ele>
        <time>2020-06-24T08:56:33.106Z</time>
      </trkpt>
      <trkpt lat="48.67605" lon="-2.32699">
        <ele>52</ele>
        <time>2020-06-24T08:56:34.106Z</time>
      </trkpt>
      <trkpt lat="48.67605" lon="-2.32701">
        <ele>52</ele>
        <time>2020-06-24T08:56:35.106Z</time>
      </trkpt>
      <trkpt lat="48.67604" lon="-2.32702">
        <ele>51</ele>
        <time>2020-06-24T08:56:36.106Z</time>
      </trkpt>
      <trkpt lat="48.67604" lon="-2.32704">
        <ele>51</ele>
        <time>2020-06-24T08:56:37.106Z</time>
      </trkpt>
      <trkpt lat="48.67603" lon="-2.32706">
        <ele>52</ele>
        <time>2020-06-24T08:56:38.106Z</time>
      </trkpt>
      <trkpt lat="48.67603" lon="-2.32708">
        <ele>52</ele>
        <time>2020-06-24T08:56:39.106Z</time>
      </trkpt>
      <trkpt lat="48.67603" lon="-2.3271">
        <ele>52</ele>
        <time>2020-06-24T08:56:40.106Z</time>
      </trkpt>
      <trkpt lat="48.67604" lon="-2.32712">
        <ele>51</ele>
        <time>2020-06-24T08:56:41.106Z</time>
      </trkpt>
      <trkpt lat="48.67605" lon="-2.32712">
        <ele>51</ele>
        <time>2020-06-24T08:56:42.106Z</time>
      </trkpt>
      <trkpt lat="48.67606" lon="-2.32712">
        <ele>51</ele>
        <time>2020-06-24T08:56:43.106Z</time>
      </trkpt>
      <trkpt lat="48.67607" lon="-2.32711">
        <ele>52</ele>
        <time>2020-06-24T08:56:44.106Z</time>
      </trkpt>
      <trkpt lat="48.67608" lon="-2.3271">
        <ele>52</ele>
        <time>2020-06-24T08:56:45.106Z</time>
      </trkpt>
      <trkpt lat="48.67609" lon="-2.32709">
        <ele>52</ele>
        <time>2020-06-24T08:56:46.106Z</time>
      </trkpt>
      <trkpt lat="48.6761" lon="-2.32708">
        <ele>52</ele>
        <time>2020-06-24T08:56:47.106Z</time>
      </trkpt>
      <trkpt lat="48.67611" lon="-2.32707">
        <ele>53</ele>
        <time>2020-06-24T08:56:48.106Z</time>
      </trkpt>
      <trkpt lat="48.67612" lon="-2.32706">
        <ele>53</ele>
        <time>2020-06-24T08:56:49.106Z</time>
      </trkpt>
      <trkpt lat="48.67612" lon="-2.32705">
        <ele>53</ele>
        <time>2020-06-24T08:56:50.106Z</time>
      </trkpt>
      <trkpt lat="48.67613" lon="-2.32704">
        <ele>53</ele>
        <time>2020-06-24T08:56:51.106Z</time>
      </trkpt>
      <trkpt lat="48.67614" lon="-2.32703">
        <ele>54</ele>
        <time>2020-06-24T08:56:52.106Z</time>
      </trkpt>
      <trkpt lat="48.67615" lon="-2.32702">
        <ele>54</ele>
        <time>2020-06-24T08:56:53.106Z</time>
      </trkpt>
      <trkpt lat="48.67616" lon="-2.32702">
        <ele>54</ele>
        <time>2020-06-24T08:56:54.106Z</time>
      </trkpt>
      <trkpt lat="48.67617" lon="-2.32701">
        <ele>54</ele>
        <time>2020-06-24T08:56:55.106Z</time>
      </trkpt>
      <trkpt lat="48.67618" lon="-2.32699">
        <ele>55</ele>
        <time>2020-06-24T08:56:56.106Z</time>
      </trkpt>
      <trkpt lat="48.67619" lon="-2.32698">
        <ele>55</ele>
        <time>2020-06-24T08:56:57.106Z</time>
      </trkpt>
      <trkpt lat="48.6762" lon="-2.32697">
        <ele>55</ele>
        <time>2020-06-24T08:56:58.106Z</time>
      </trkpt>
      <trkpt lat="48.6762" lon="-2.32695">
        <ele>55</ele>
        <time>2020-06-24T08:56:59.106Z</time>
      </trkpt>
      <trkpt lat="48.67621" lon="-2.32693">
        <ele>55</ele>
        <time>2020-06-24T08:57:00.106Z</time>
      </trkpt>
      <trkpt lat="48.67621" lon="-2.32692">
        <ele>55</ele>
        <time>2020-06-24T08:57:01.106Z</time>
      </trkpt>
      <trkpt lat="48.67622" lon="-2.3269">
        <ele>55</ele>
        <time>2020-06-24T08:57:02.106Z</time>
      </trkpt>
      <trkpt lat="48.67622" lon="-2.32688">
        <ele>55</ele>
        <time>2020-06-24T08:57:03.106Z</time>
      </trkpt>
      <trkpt lat="48.67623" lon="-2.32686">
        <ele>55</ele>
        <time>2020-06-24T08:57:04.106Z</time>
      </trkpt>
      <trkpt lat="48.67623" lon="-2.32684">
        <ele>55</ele>
        <time>2020-06-24T08:57:05.106Z</time>
      </trkpt>
      <trkpt lat="48.67624" lon="-2.32682">
        <ele>55</ele>
        <time>2020-06-24T08:57:06.106Z</time>
      </trkpt>
      <trkpt lat="48.67624" lon="-2.3268">
        <ele>55</ele>
        <time>2020-06-24T08:57:07.106Z</time>
      </trkpt>
      <trkpt lat="48.67625" lon="-2.32678">
        <ele>55</ele>
        <time>2020-06-24T08:57:08.106Z</time>
      </trkpt>
      <trkpt lat="48.67625" lon="-2.32676">
        <ele>55</ele>
        <time>2020-06-24T08:57:09.106Z</time>
      </trkpt>
      <trkpt lat="48.67625" lon="-2.32674">
        <ele>55</ele>
        <time>2020-06-24T08:57:10.106Z</time>
      </trkpt>
      <trkpt lat="48.67626" lon="-2.32672">
        <ele>55</ele>
        <time>2020-06-24T08:57:11.106Z</time>
      </trkpt>
      <trkpt lat="48.67627" lon="-2.32671">
        <ele>55</ele>
        <time>2020-06-24T08:57:12.106Z</time>
      </trkpt>
      <trkpt lat="48.67627" lon="-2.32669">
        <ele>55</ele>
        <time>2020-06-24T08:57:13.106Z</time>
      </trkpt>
      <trkpt lat="48.67628" lon="-2.32668">
        <ele>55</ele>
        <time>2020-06-24T08:57:14.106Z</time>
      </trkpt>
      <trkpt lat="48.67629" lon="-2.32666">
        <ele>55</ele>
        <time>2020-06-24T08:57:15.106Z</time>
      </trkpt>
      <trkpt lat="48.67629" lon="-2.32664">
        <ele>55</ele>
        <time>2020-06-24T08:57:16.106Z</time>
      </trkpt>
      <trkpt lat="48.6763" lon="-2.32663">
        <ele>55</ele>
        <time>2020-06-24T08:57:17.106Z</time>
      </trkpt>
      <trkpt lat="48.67631" lon="-2.32661">
        <ele>55</ele>
        <time>2020-06-24T08:57:18.106Z</time>
      </trkpt>
      <trkpt lat="48.67632" lon="-2.3266">
        <ele>55</ele>
        <time>2020-06-24T08:57:19.106Z</time>
      </trkpt>
      <trkpt lat="48.67632" lon="-2.32659">
        <ele>55</ele>
        <time>2020-06-24T08:57:20.106Z</time>
      </trkpt>
      <trkpt lat="48.67633" lon="-2.32657">
        <ele>55</ele>
        <time>2020-06-24T08:57:21.106Z</time>
      </trkpt>
      <trkpt lat="48.67634" lon="-2.32656">
        <ele>55</ele>
        <time>2020-06-24T08:57:22.106Z</time>
      </trkpt>
      <trkpt lat="48.67634" lon="-2.32654">
        <ele>55</ele>
        <time>2020-06-24T08:57:23.106Z</time>
      </trkpt>
      <trkpt lat="48.67635" lon="-2.32653">
        <ele>55</ele>
        <time>2020-06-24T08:57:24.106Z</time>
      </trkpt>
      <trkpt lat="48.67636" lon="-2.32651">
        <ele>55</ele>
        <time>2020-06-24T08:57:25.106Z</time>
      </trkpt>
      <trkpt lat="48.67636" lon="-2.32649">
        <ele>55</ele>
        <time>2020-06-24T08:57:26.106Z</time>
      </trkpt>
      <trkpt lat="48.67637" lon="-2.32647">
        <ele>55</ele>
        <time>2020-06-24T08:57:27.106Z</time>
      </trkpt>
      <trkpt lat="48.67638" lon="-2.32645">
        <ele>55</ele>
        <time>2020-06-24T08:57:28.106Z</time>
      </trkpt>
      <trkpt lat="48.67638" lon="-2.32644">
        <ele>56</ele>
        <time>2020-06-24T08:57:29.106Z</time>
      </trkpt>
      <trkpt lat="48.67639" lon="-2.32642">
        <ele>56</ele>
        <time>2020-06-24T08:57:30.106Z</time>
      </trkpt>
      <trkpt lat="48.67639" lon="-2.3264">
        <ele>56</ele>
        <time>2020-06-24T08:57:31.106Z</time>
      </trkpt>
      <trkpt lat="48.6764" lon="-2.32638">
        <ele>56</ele>
        <time>2020-06-24T08:57:32.106Z</time>
      </trkpt>
      <trkpt lat="48.6764" lon="-2.32635">
        <ele>56</ele>
        <time>2020-06-24T08:57:33.106Z</time>
      </trkpt>
      <trkpt lat="48.6764" lon="-2.32633">
        <ele>56</ele>
        <time>2020-06-24T08:57:34.106Z</time>
      </trkpt>
      <trkpt lat="48.6764" lon="-2.32631">
        <ele>56</ele>
        <time>2020-06-24T08:57:35.106Z</time>
      </trkpt>
      <trkpt lat="48.67641" lon="-2.32629">
        <ele>56</ele>
        <time>2020-06-24T08:57:36.106Z</time>
      </trkpt>
      <trkpt lat="48.67642" lon="-2.32628">
        <ele>56</ele>
        <time>2020-06-24T08:57:37.106Z</time>
      </trkpt>
      <trkpt lat="48.67643" lon="-2.32626">
        <ele>57</ele>
        <time>2020-06-24T08:57:38.106Z</time>
      </trkpt>
      <trkpt lat="48.67644" lon="-2.32625">
        <ele>57</ele>
        <time>2020-06-24T08:57:39.106Z</time>
      </trkpt>
      <trkpt lat="48.67645" lon="-2.32624">
        <ele>57</ele>
        <time>2020-06-24T08:57:40.106Z</time>
      </trkpt>
      <trkpt lat="48.67646" lon="-2.32623">
        <ele>57</ele>
        <time>2020-06-24T08:57:41.106Z</time>
      </trkpt>
      <trkpt lat="48.67647" lon="-2.32621">
        <ele>57</ele>
        <time>2020-06-24T08:57:42.106Z</time>
      </trkpt>
      <trkpt lat="48.67648" lon="-2.3262">
        <ele>57</ele>
        <time>2020-06-24T08:57:43.106Z</time>
      </trkpt>
      <trkpt lat="48.67648" lon="-2.32618">
        <ele>57</ele>
        <time>2020-06-24T08:57:44.106Z</time>
      </trkpt>
      <trkpt lat="48.67649" lon="-2.32617">
        <ele>57</ele>
        <time>2020-06-24T08:57:45.106Z</time>
      </trkpt>
      <trkpt lat="48.6765" lon="-2.32616">
        <ele>57</ele>
        <time>2020-06-24T08:57:46.106Z</time>
      </trkpt>
      <trkpt lat="48.67651" lon="-2.32615">
        <ele>57</ele>
        <time>2020-06-24T08:57:47.106Z</time>
      </trkpt>
      <trkpt lat="48.67653" lon="-2.32615">
        <ele>57</ele>
        <time>2020-06-24T08:57:48.106Z</time>
      </trkpt>
      <trkpt lat="48.67654" lon="-2.32614">
        <ele>57</ele>
        <time>2020-06-24T08:57:49.106Z</time>
      </trkpt>
      <trkpt lat="48.67655" lon="-2.32613">
        <ele>57</ele>
        <time>2020-06-24T08:57:50.106Z</time>
      </trkpt>
      <trkpt lat="48.67656" lon="-2.32612">
        <ele>58</ele>
        <time>2020-06-24T08:57:51.106Z</time>
      </trkpt>
      <trkpt lat="48.67658" lon="-2.32611">
        <ele>57</ele>
        <time>2020-06-24T08:57:52.106Z</time>
      </trkpt>
      <trkpt lat="48.67659" lon="-2.3261">
        <ele>58</ele>
        <time>2020-06-24T08:57:53.106Z</time>
      </trkpt>
      <trkpt lat="48.6766" lon="-2.32609">
        <ele>58</ele>
        <time>2020-06-24T08:57:54.106Z</time>
      </trkpt>
      <trkpt lat="48.67661" lon="-2.32609">
        <ele>58</ele>
        <time>2020-06-24T08:57:55.106Z</time>
      </trkpt>
      <trkpt lat="48.67662" lon="-2.32608">
        <ele>58</ele>
        <time>2020-06-24T08:57:56.106Z</time>
      </trkpt>
      <trkpt lat="48.67664" lon="-2.32607">
        <ele>58</ele>
        <time>2020-06-24T08:57:57.106Z</time>
      </trkpt>
      <trkpt lat="48.67665" lon="-2.32606">
        <ele>58</ele>
        <time>2020-06-24T08:57:58.106Z</time>
      </trkpt>
      <trkpt lat="48.67666" lon="-2.32606">
        <ele>58</ele>
        <time>2020-06-24T08:57:59.106Z</time>
      </trkpt>
      <trkpt lat="48.67668" lon="-2.32605">
        <ele>58</ele>
        <time>2020-06-24T08:58:00.106Z</time>
      </trkpt>
      <trkpt lat="48.67669" lon="-2.32604">
        <ele>58</ele>
        <time>2020-06-24T08:58:01.106Z</time>
      </trkpt>
      <trkpt lat="48.6767" lon="-2.32603">
        <ele>58</ele>
        <time>2020-06-24T08:58:02.106Z</time>
      </trkpt>
      <trkpt lat="48.67671" lon="-2.32602">
        <ele>58</ele>
        <time>2020-06-24T08:58:03.106Z</time>
      </trkpt>
      <trkpt lat="48.67672" lon="-2.32602">
        <ele>58</ele>
        <time>2020-06-24T08:58:04.106Z</time>
      </trkpt>
      <trkpt lat="48.67674" lon="-2.32601">
        <ele>58</ele>
        <time>2020-06-24T08:58:05.106Z</time>
      </trkpt>
      <trkpt lat="48.67675" lon="-2.326">
        <ele>58</ele>
        <time>2020-06-24T08:58:06.106Z</time>
      </trkpt>
      <trkpt lat="48.67676" lon="-2.32599">
        <ele>58</ele>
        <time>2020-06-24T08:58:07.106Z</time>
      </trkpt>
      <trkpt lat="48.67677" lon="-2.32598">
        <ele>58</ele>
        <time>2020-06-24T08:58:08.106Z</time>
      </trkpt>
      <trkpt lat="48.67678" lon="-2.32597">
        <ele>58</ele>
        <time>2020-06-24T08:58:09.106Z</time>
      </trkpt>
      <trkpt lat="48.67679" lon="-2.32596">
        <ele>58</ele>
        <time>2020-06-24T08:58:10.106Z</time>
      </trkpt>
      <trkpt lat="48.6768" lon="-2.32594">
        <ele>58</ele>
        <time>2020-06-24T08:58:11.106Z</time>
      </trkpt>
      <trkpt lat="48.67681" lon="-2.32593">
        <ele>58</ele>
        <time>2020-06-24T08:58:12.106Z</time>
      </trkpt>
      <trkpt lat="48.67682" lon="-2.32592">
        <ele>58</ele>
        <time>2020-06-24T08:58:13.106Z</time>
      </trkpt>
      <trkpt lat="48.67683" lon="-2.3259">
        <ele>58</ele>
        <time>2020-06-24T08:58:14.106Z</time>
      </trkpt>
      <trkpt lat="48.67684" lon="-2.32589">
        <ele>58</ele>
        <time>2020-06-24T08:58:15.106Z</time>
      </trkpt>
      <trkpt lat="48.67684" lon="-2.32588">
        <ele>58</ele>
        <time>2020-06-24T08:58:16.106Z</time>
      </trkpt>
      <trkpt lat="48.67684" lon="-2.32587">
        <ele>58</ele>
        <time>2020-06-24T08:58:17.106Z</time>
      </trkpt>
      <trkpt lat="48.67684" lon="-2.32585">
        <ele>58</ele>
        <time>2020-06-24T08:58:18.106Z</time>
      </trkpt>
      <trkpt lat="48.67684" lon="-2.32584">
        <ele>58</ele>
        <time>2020-06-24T08:58:19.106Z</time>
      </trkpt>
      <trkpt lat="48.67684" lon="-2.32583">
        <ele>58</ele>
        <time>2020-06-24T08:58:20.106Z</time>
      </trkpt>
      <trkpt lat="48.67684" lon="-2.32582">
        <ele>58</ele>
        <time>2020-06-24T08:58:21.106Z</time>
      </trkpt>
      <trkpt lat="48.67684" lon="-2.32582">
        <ele>58</ele>
        <time>2020-06-24T08:58:22.106Z</time>
      </trkpt>
      <trkpt lat="48.67684" lon="-2.32582">
        <ele>58</ele>
        <time>2020-06-24T08:58:23.106Z</time>
      </trkpt>
      <trkpt lat="48.67684" lon="-2.32582">
        <ele>58</ele>
        <time>2020-06-24T08:58:24.106Z</time>
      </trkpt>
      <trkpt lat="48.67684" lon="-2.32582">
        <ele>58</ele>
        <time>2020-06-24T08:58:25.106Z</time>
      </trkpt>
      <trkpt lat="48.67683" lon="-2.32582">
        <ele>58</ele>
        <time>2020-06-24T08:58:26.106Z</time>
      </trkpt>
      <trkpt lat="48.67682" lon="-2.32576">
        <ele>58</ele>
        <time>2020-06-24T08:58:27.110Z</time>
      </trkpt>
      <trkpt lat="48.67682" lon="-2.32574">
        <ele>58</ele>
        <time>2020-06-24T08:58:28.110Z</time>
      </trkpt>
      <trkpt lat="48.67681" lon="-2.32572">
        <ele>58</ele>
        <time>2020-06-24T08:58:29.110Z</time>
      </trkpt>
      <trkpt lat="48.6768" lon="-2.3257">
        <ele>58</ele>
        <time>2020-06-24T08:58:30.110Z</time>
      </trkpt>
      <trkpt lat="48.6768" lon="-2.32568">
        <ele>58</ele>
        <time>2020-06-24T08:58:31.110Z</time>
      </trkpt>
      <trkpt lat="48.6768" lon="-2.32566">
        <ele>58</ele>
        <time>2020-06-24T08:58:32.110Z</time>
      </trkpt>
      <trkpt lat="48.67679" lon="-2.32564">
        <ele>58</ele>
        <time>2020-06-24T08:58:33.110Z</time>
      </trkpt>
      <trkpt lat="48.67679" lon="-2.32562">
        <ele>58</ele>
        <time>2020-06-24T08:58:34.110Z</time>
      </trkpt>
      <trkpt lat="48.67679" lon="-2.3256">
        <ele>58</ele>
        <time>2020-06-24T08:58:35.110Z</time>
      </trkpt>
      <trkpt lat="48.67679" lon="-2.32558">
        <ele>58</ele>
        <time>2020-06-24T08:58:36.110Z</time>
      </trkpt>
      <trkpt lat="48.67679" lon="-2.32556">
        <ele>58</ele>
        <time>2020-06-24T08:58:37.110Z</time>
      </trkpt>
      <trkpt lat="48.67679" lon="-2.32554">
        <ele>58</ele>
        <time>2020-06-24T08:58:38.110Z</time>
      </trkpt>
      <trkpt lat="48.6768" lon="-2.32552">
        <ele>58</ele>
        <time>2020-06-24T08:58:39.110Z</time>
      </trkpt>
      <trkpt lat="48.6768" lon="-2.3255">
        <ele>58</ele>
        <time>2020-06-24T08:58:40.110Z</time>
      </trkpt>
      <trkpt lat="48.6768" lon="-2.32548">
        <ele>57</ele>
        <time>2020-06-24T08:58:41.110Z</time>
      </trkpt>
      <trkpt lat="48.67681" lon="-2.32546">
        <ele>57</ele>
        <time>2020-06-24T08:58:42.110Z</time>
      </trkpt>
      <trkpt lat="48.67681" lon="-2.32544">
        <ele>57</ele>
        <time>2020-06-24T08:58:43.110Z</time>
      </trkpt>
      <trkpt lat="48.67682" lon="-2.32542">
        <ele>57</ele>
        <time>2020-06-24T08:58:44.110Z</time>
      </trkpt>
      <trkpt lat="48.67682" lon="-2.3254">
        <ele>57</ele>
        <time>2020-06-24T08:58:45.110Z</time>
      </trkpt>
      <trkpt lat="48.67683" lon="-2.32538">
        <ele>57</ele>
        <time>2020-06-24T08:58:46.110Z</time>
      </trkpt>
      <trkpt lat="48.67684" lon="-2.32537">
        <ele>57</ele>
        <time>2020-06-24T08:58:47.110Z</time>
      </trkpt>
      <trkpt lat="48.67685" lon="-2.32536">
        <ele>57</ele>
        <time>2020-06-24T08:58:48.110Z</time>
      </trkpt>
      <trkpt lat="48.67686" lon="-2.32534">
        <ele>57</ele>
        <time>2020-06-24T08:58:49.110Z</time>
      </trkpt>
      <trkpt lat="48.67687" lon="-2.32533">
        <ele>57</ele>
        <time>2020-06-24T08:58:50.110Z</time>
      </trkpt>
      <trkpt lat="48.67688" lon="-2.32532">
        <ele>57</ele>
        <time>2020-06-24T08:58:51.110Z</time>
      </trkpt>
      <trkpt lat="48.67689" lon="-2.32531">
        <ele>57</ele>
        <time>2020-06-24T08:58:52.110Z</time>
      </trkpt>
      <trkpt lat="48.67691" lon="-2.3253">
        <ele>57</ele>
        <time>2020-06-24T08:58:53.110Z</time>
      </trkpt>
      <trkpt lat="48.67692" lon="-2.32529">
        <ele>57</ele>
        <time>2020-06-24T08:58:54.110Z</time>
      </trkpt>
      <trkpt lat="48.67693" lon="-2.32528">
        <ele>58</ele>
        <time>2020-06-24T08:58:55.110Z</time>
      </trkpt>
      <trkpt lat="48.67695" lon="-2.32527">
        <ele>58</ele>
        <time>2020-06-24T08:58:56.110Z</time>
      </trkpt>
      <trkpt lat="48.67696" lon="-2.32527">
        <ele>57</ele>
        <time>2020-06-24T08:58:57.110Z</time>
      </trkpt>
      <trkpt lat="48.67697" lon="-2.32526">
        <ele>57</ele>
        <time>2020-06-24T08:58:58.110Z</time>
      </trkpt>
      <trkpt lat="48.67698" lon="-2.32525">
        <ele>57</ele>
        <time>2020-06-24T08:58:59.110Z</time>
      </trkpt>
      <trkpt lat="48.677" lon="-2.32524">
        <ele>58</ele>
        <time>2020-06-24T08:59:00.110Z</time>
      </trkpt>
      <trkpt lat="48.67701" lon="-2.32524">
        <ele>58</ele>
        <time>2020-06-24T08:59:01.110Z</time>
      </trkpt>
      <trkpt lat="48.67702" lon="-2.32523">
        <ele>57</ele>
        <time>2020-06-24T08:59:02.110Z</time>
      </trkpt>
      <trkpt lat="48.67704" lon="-2.32522">
        <ele>57</ele>
        <time>2020-06-24T08:59:03.110Z</time>
      </trkpt>
      <trkpt lat="48.67705" lon="-2.32522">
        <ele>58</ele>
        <time>2020-06-24T08:59:04.110Z</time>
      </trkpt>
      <trkpt lat="48.67706" lon="-2.32521">
        <ele>58</ele>
        <time>2020-06-24T08:59:05.110Z</time>
      </trkpt>
      <trkpt lat="48.67707" lon="-2.3252">
        <ele>58</ele>
        <time>2020-06-24T08:59:06.110Z</time>
      </trkpt>
      <trkpt lat="48.67709" lon="-2.32519">
        <ele>58</ele>
        <time>2020-06-24T08:59:07.110Z</time>
      </trkpt>
      <trkpt lat="48.6771" lon="-2.32518">
        <ele>58</ele>
        <time>2020-06-24T08:59:08.110Z</time>
      </trkpt>
      <trkpt lat="48.67711" lon="-2.32517">
        <ele>58</ele>
        <time>2020-06-24T08:59:09.110Z</time>
      </trkpt>
      <trkpt lat="48.67712" lon="-2.32515">
        <ele>58</ele>
        <time>2020-06-24T08:59:10.110Z</time>
      </trkpt>
      <trkpt lat="48.67713" lon="-2.32514">
        <ele>58</ele>
        <time>2020-06-24T08:59:11.110Z</time>
      </trkpt>
      <trkpt lat="48.67714" lon="-2.32513">
        <ele>58</ele>
        <time>2020-06-24T08:59:12.110Z</time>
      </trkpt>
      <trkpt lat="48.67716" lon="-2.32512">
        <ele>58</ele>
        <time>2020-06-24T08:59:13.110Z</time>
      </trkpt>
      <trkpt lat="48.67717" lon="-2.32511">
        <ele>58</ele>
        <time>2020-06-24T08:59:14.110Z</time>
      </trkpt>
      <trkpt lat="48.67718" lon="-2.3251">
        <ele>58</ele>
        <time>2020-06-24T08:59:15.110Z</time>
      </trkpt>
      <trkpt lat="48.67719" lon="-2.32509">
        <ele>58</ele>
        <time>2020-06-24T08:59:16.110Z</time>
      </trkpt>
      <trkpt lat="48.6772" lon="-2.32507">
        <ele>58</ele>
        <time>2020-06-24T08:59:17.110Z</time>
      </trkpt>
      <trkpt lat="48.67721" lon="-2.32506">
        <ele>58</ele>
        <time>2020-06-24T08:59:18.110Z</time>
      </trkpt>
      <trkpt lat="48.67722" lon="-2.32504">
        <ele>58</ele>
        <time>2020-06-24T08:59:19.110Z</time>
      </trkpt>
      <trkpt lat="48.67722" lon="-2.32503">
        <ele>58</ele>
        <time>2020-06-24T08:59:20.110Z</time>
      </trkpt>
      <trkpt lat="48.67723" lon="-2.32501">
        <ele>58</ele>
        <time>2020-06-24T08:59:21.110Z</time>
      </trkpt>
      <trkpt lat="48.67724" lon="-2.325">
        <ele>58</ele>
        <time>2020-06-24T08:59:22.110Z</time>
      </trkpt>
      <trkpt lat="48.67725" lon="-2.32498">
        <ele>58</ele>
        <time>2020-06-24T08:59:23.110Z</time>
      </trkpt>
      <trkpt lat="48.67726" lon="-2.32497">
        <ele>58</ele>
        <time>2020-06-24T08:59:24.110Z</time>
      </trkpt>
      <trkpt lat="48.67727" lon="-2.32496">
        <ele>58</ele>
        <time>2020-06-24T08:59:25.110Z</time>
      </trkpt>
      <trkpt lat="48.67729" lon="-2.32495">
        <ele>58</ele>
        <time>2020-06-24T08:59:26.110Z</time>
      </trkpt>
      <trkpt lat="48.6773" lon="-2.32494">
        <ele>58</ele>
        <time>2020-06-24T08:59:27.110Z</time>
      </trkpt>
      <trkpt lat="48.67731" lon="-2.32494">
        <ele>58</ele>
        <time>2020-06-24T08:59:28.110Z</time>
      </trkpt>
      <trkpt lat="48.67733" lon="-2.32493">
        <ele>58</ele>
        <time>2020-06-24T08:59:29.110Z</time>
      </trkpt>
      <trkpt lat="48.67734" lon="-2.32493">
        <ele>58</ele>
        <time>2020-06-24T08:59:30.110Z</time>
      </trkpt>
      <trkpt lat="48.67735" lon="-2.32493">
        <ele>58</ele>
        <time>2020-06-24T08:59:31.110Z</time>
      </trkpt>
      <trkpt lat="48.67737" lon="-2.32493">
        <ele>58</ele>
        <time>2020-06-24T08:59:32.110Z</time>
      </trkpt>
      <trkpt lat="48.67738" lon="-2.32492">
        <ele>59</ele>
        <time>2020-06-24T08:59:33.110Z</time>
      </trkpt>
      <trkpt lat="48.6774" lon="-2.32491">
        <ele>59</ele>
        <time>2020-06-24T08:59:34.110Z</time>
      </trkpt>
      <trkpt lat="48.67741" lon="-2.3249">
        <ele>59</ele>
        <time>2020-06-24T08:59:35.110Z</time>
      </trkpt>
      <trkpt lat="48.67742" lon="-2.3249">
        <ele>59</ele>
        <time>2020-06-24T08:59:36.110Z</time>
      </trkpt>
      <trkpt lat="48.67743" lon="-2.32489">
        <ele>59</ele>
        <time>2020-06-24T08:59:37.110Z</time>
      </trkpt>
      <trkpt lat="48.67745" lon="-2.32488">
        <ele>60</ele>
        <time>2020-06-24T08:59:38.110Z</time>
      </trkpt>
      <trkpt lat="48.67746" lon="-2.32488">
        <ele>60</ele>
        <time>2020-06-24T08:59:39.110Z</time>
      </trkpt>
      <trkpt lat="48.67747" lon="-2.32487">
        <ele>60</ele>
        <time>2020-06-24T08:59:40.110Z</time>
      </trkpt>
      <trkpt lat="48.67749" lon="-2.32487">
        <ele>60</ele>
        <time>2020-06-24T08:59:41.110Z</time>
      </trkpt>
      <trkpt lat="48.6775" lon="-2.32487">
        <ele>60</ele>
        <time>2020-06-24T08:59:42.110Z</time>
      </trkpt>
      <trkpt lat="48.67751" lon="-2.32487">
        <ele>60</ele>
        <time>2020-06-24T08:59:43.110Z</time>
      </trkpt>
      <trkpt lat="48.67752" lon="-2.32488">
        <ele>60</ele>
        <time>2020-06-24T08:59:44.110Z</time>
      </trkpt>
      <trkpt lat="48.67753" lon="-2.32488">
        <ele>60</ele>
        <time>2020-06-24T08:59:45.110Z</time>
      </trkpt>
      <trkpt lat="48.67754" lon="-2.32488">
        <ele>60</ele>
        <time>2020-06-24T08:59:46.110Z</time>
      </trkpt>
      <trkpt lat="48.67756" lon="-2.32489">
        <ele>60</ele>
        <time>2020-06-24T08:59:47.110Z</time>
      </trkpt>
      <trkpt lat="48.67757" lon="-2.32489">
        <ele>60</ele>
        <time>2020-06-24T08:59:48.110Z</time>
      </trkpt>
      <trkpt lat="48.67758" lon="-2.32489">
        <ele>59</ele>
        <time>2020-06-24T08:59:49.110Z</time>
      </trkpt>
      <trkpt lat="48.6776" lon="-2.32489">
        <ele>59</ele>
        <time>2020-06-24T08:59:50.110Z</time>
      </trkpt>
      <trkpt lat="48.67761" lon="-2.3249">
        <ele>59</ele>
        <time>2020-06-24T08:59:51.110Z</time>
      </trkpt>
      <trkpt lat="48.67762" lon="-2.3249">
        <ele>59</ele>
        <time>2020-06-24T08:59:52.110Z</time>
      </trkpt>
      <trkpt lat="48.67763" lon="-2.3249">
        <ele>59</ele>
        <time>2020-06-24T08:59:53.110Z</time>
      </trkpt>
      <trkpt lat="48.67763" lon="-2.3249">
        <ele>59</ele>
        <time>2020-06-24T08:59:54.110Z</time>
      </trkpt>
      <trkpt lat="48.67763" lon="-2.3249">
        <ele>59</ele>
        <time>2020-06-24T08:59:55.110Z</time>
      </trkpt>
      <trkpt lat="48.67764" lon="-2.3249">
        <ele>60</ele>
        <time>2020-06-24T08:59:56.110Z</time>
      </trkpt>
      <trkpt lat="48.67764" lon="-2.3249">
        <ele>60</ele>
        <time>2020-06-24T08:59:57.110Z</time>
      </trkpt>
      <trkpt lat="48.67764" lon="-2.32489">
        <ele>60</ele>
        <time>2020-06-24T08:59:58.110Z</time>
      </trkpt>
      <trkpt lat="48.67764" lon="-2.32489">
        <ele>60</ele>
        <time>2020-06-24T08:59:59.110Z</time>
      </trkpt>
      <trkpt lat="48.67764" lon="-2.32489">
        <ele>60</ele>
        <time>2020-06-24T09:00:00.110Z</time>
      </trkpt>
      <trkpt lat="48.67764" lon="-2.32489">
        <ele>60</ele>
        <time>2020-06-24T09:00:01.110Z</time>
      </trkpt>
      <trkpt lat="48.67764" lon="-2.32489">
        <ele>60</ele>
        <time>2020-06-24T09:00:02.110Z</time>
      </trkpt>
      <trkpt lat="48.67767" lon="-2.32488">
        <ele>61</ele>
        <time>2020-06-24T09:00:03.110Z</time>
      </trkpt>
      <trkpt lat="48.67768" lon="-2.32487">
        <ele>62</ele>
        <time>2020-06-24T09:00:04.110Z</time>
      </trkpt>
      <trkpt lat="48.67769" lon="-2.32487">
        <ele>62</ele>
        <time>2020-06-24T09:00:05.110Z</time>
      </trkpt>
      <trkpt lat="48.67771" lon="-2.32486">
        <ele>62</ele>
        <time>2020-06-24T09:00:06.110Z</time>
      </trkpt>
      <trkpt lat="48.67772" lon="-2.32486">
        <ele>62</ele>
        <time>2020-06-24T09:00:07.110Z</time>
      </trkpt>
      <trkpt lat="48.67773" lon="-2.32485">
        <ele>62</ele>
        <time>2020-06-24T09:00:08.110Z</time>
      </trkpt>
      <trkpt lat="48.67774" lon="-2.32485">
        <ele>62</ele>
        <time>2020-06-24T09:00:09.110Z</time>
      </trkpt>
      <trkpt lat="48.67775" lon="-2.32484">
        <ele>62</ele>
        <time>2020-06-24T09:00:10.110Z</time>
      </trkpt>
      <trkpt lat="48.67777" lon="-2.32484">
        <ele>62</ele>
        <time>2020-06-24T09:00:11.110Z</time>
      </trkpt>
      <trkpt lat="48.67778" lon="-2.32484">
        <ele>62</ele>
        <time>2020-06-24T09:00:12.110Z</time>
      </trkpt>
      <trkpt lat="48.6778" lon="-2.32483">
        <ele>62</ele>
        <time>2020-06-24T09:00:13.110Z</time>
      </trkpt>
      <trkpt lat="48.67781" lon="-2.32483">
        <ele>62</ele>
        <time>2020-06-24T09:00:14.110Z</time>
      </trkpt>
      <trkpt lat="48.67783" lon="-2.32482">
        <ele>62</ele>
        <time>2020-06-24T09:00:15.110Z</time>
      </trkpt>
      <trkpt lat="48.67784" lon="-2.32482">
        <ele>62</ele>
        <time>2020-06-24T09:00:16.110Z</time>
      </trkpt>
      <trkpt lat="48.67786" lon="-2.32481">
        <ele>62</ele>
        <time>2020-06-24T09:00:17.110Z</time>
      </trkpt>
      <trkpt lat="48.67787" lon="-2.32481">
        <ele>62</ele>
        <time>2020-06-24T09:00:18.110Z</time>
      </trkpt>
      <trkpt lat="48.67787" lon="-2.32481">
        <ele>62</ele>
        <time>2020-06-24T09:00:19.110Z</time>
      </trkpt>
      <trkpt lat="48.67787" lon="-2.32481">
        <ele>62</ele>
        <time>2020-06-24T09:00:20.110Z</time>
      </trkpt>
      <trkpt lat="48.67788" lon="-2.32481">
        <ele>62</ele>
        <time>2020-06-24T09:00:21.110Z</time>
      </trkpt>
      <trkpt lat="48.67788" lon="-2.32481">
        <ele>62</ele>
        <time>2020-06-24T09:00:22.110Z</time>
      </trkpt>
      <trkpt lat="48.67788" lon="-2.32481">
        <ele>62</ele>
        <time>2020-06-24T09:00:23.110Z</time>
      </trkpt>
      <trkpt lat="48.67788" lon="-2.32481">
        <ele>62</ele>
        <time>2020-06-24T09:00:24.110Z</time>
      </trkpt>
      <trkpt lat="48.67788" lon="-2.3248">
        <ele>62</ele>
        <time>2020-06-24T09:00:25.110Z</time>
      </trkpt>
      <trkpt lat="48.67791" lon="-2.3248">
        <ele>62</ele>
        <time>2020-06-24T09:00:26.114Z</time>
      </trkpt>
      <trkpt lat="48.67791" lon="-2.3248">
        <ele>62</ele>
        <time>2020-06-24T09:00:27.114Z</time>
      </trkpt>
      <trkpt lat="48.67791" lon="-2.3248">
        <ele>62</ele>
        <time>2020-06-24T09:00:28.114Z</time>
      </trkpt>
      <trkpt lat="48.67791" lon="-2.3248">
        <ele>62</ele>
        <time>2020-06-24T09:00:29.114Z</time>
      </trkpt>
      <trkpt lat="48.67791" lon="-2.3248">
        <ele>62</ele>
        <time>2020-06-24T09:00:30.114Z</time>
      </trkpt>
      <trkpt lat="48.67791" lon="-2.3248">
        <ele>62</ele>
        <time>2020-06-24T09:00:31.114Z</time>
      </trkpt>
      <trkpt lat="48.67791" lon="-2.3248">
        <ele>62</ele>
        <time>2020-06-24T09:00:32.114Z</time>
      </trkpt>
      <trkpt lat="48.67795" lon="-2.32482">
        <ele>61</ele>
        <time>2020-06-24T09:00:33.114Z</time>
      </trkpt>
      <trkpt lat="48.67796" lon="-2.32483">
        <ele>61</ele>
        <time>2020-06-24T09:00:34.114Z</time>
      </trkpt>
      <trkpt lat="48.67797" lon="-2.32484">
        <ele>61</ele>
        <time>2020-06-24T09:00:35.114Z</time>
      </trkpt>
      <trkpt lat="48.67798" lon="-2.32485">
        <ele>60</ele>
        <time>2020-06-24T09:00:36.114Z</time>
      </trkpt>
      <trkpt lat="48.678" lon="-2.32485">
        <ele>60</ele>
        <time>2020-06-24T09:00:37.114Z</time>
      </trkpt>
      <trkpt lat="48.67801" lon="-2.32486">
        <ele>60</ele>
        <time>2020-06-24T09:00:38.114Z</time>
      </trkpt>
      <trkpt lat="48.67803" lon="-2.32486">
        <ele>60</ele>
        <time>2020-06-24T09:00:39.114Z</time>
      </trkpt>
      <trkpt lat="48.67804" lon="-2.32486">
        <ele>60</ele>
        <time>2020-06-24T09:00:40.114Z</time>
      </trkpt>
      <trkpt lat="48.67806" lon="-2.32487">
        <ele>61</ele>
        <time>2020-06-24T09:00:41.114Z</time>
      </trkpt>
      <trkpt lat="48.67807" lon="-2.32486">
        <ele>61</ele>
        <time>2020-06-24T09:00:42.114Z</time>
      </trkpt>
      <trkpt lat="48.67808" lon="-2.32486">
        <ele>61</ele>
        <time>2020-06-24T09:00:43.114Z</time>
      </trkpt>
      <trkpt lat="48.6781" lon="-2.32486">
        <ele>61</ele>
        <time>2020-06-24T09:00:44.114Z</time>
      </trkpt>
      <trkpt lat="48.67811" lon="-2.32486">
        <ele>61</ele>
        <time>2020-06-24T09:00:45.114Z</time>
      </trkpt>
      <trkpt lat="48.67812" lon="-2.32485">
        <ele>61</ele>
        <time>2020-06-24T09:00:46.114Z</time>
      </trkpt>
      <trkpt lat="48.67814" lon="-2.32485">
        <ele>61</ele>
        <time>2020-06-24T09:00:47.114Z</time>
      </trkpt>
      <trkpt lat="48.67815" lon="-2.32485">
        <ele>61</ele>
        <time>2020-06-24T09:00:48.114Z</time>
      </trkpt>
      <trkpt lat="48.67816" lon="-2.32485">
        <ele>61</ele>
        <time>2020-06-24T09:00:49.114Z</time>
      </trkpt>
      <trkpt lat="48.67818" lon="-2.32485">
        <ele>61</ele>
        <time>2020-06-24T09:00:50.114Z</time>
      </trkpt>
      <trkpt lat="48.67819" lon="-2.32485">
        <ele>61</ele>
        <time>2020-06-24T09:00:51.114Z</time>
      </trkpt>
      <trkpt lat="48.6782" lon="-2.32484">
        <ele>61</ele>
        <time>2020-06-24T09:00:52.114Z</time>
      </trkpt>
      <trkpt lat="48.67822" lon="-2.32485">
        <ele>61</ele>
        <time>2020-06-24T09:00:53.114Z</time>
      </trkpt>
      <trkpt lat="48.67823" lon="-2.32485">
        <ele>61</ele>
        <time>2020-06-24T09:00:54.114Z</time>
      </trkpt>
      <trkpt lat="48.67825" lon="-2.32485">
        <ele>61</ele>
        <time>2020-06-24T09:00:55.114Z</time>
      </trkpt>
      <trkpt lat="48.67826" lon="-2.32485">
        <ele>61</ele>
        <time>2020-06-24T09:00:56.114Z</time>
      </trkpt>
      <trkpt lat="48.67828" lon="-2.32485">
        <ele>61</ele>
        <time>2020-06-24T09:00:57.114Z</time>
      </trkpt>
      <trkpt lat="48.67829" lon="-2.32484">
        <ele>61</ele>
        <time>2020-06-24T09:00:58.114Z</time>
      </trkpt>
      <trkpt lat="48.67831" lon="-2.32484">
        <ele>60</ele>
        <time>2020-06-24T09:00:59.114Z</time>
      </trkpt>
      <trkpt lat="48.67832" lon="-2.32483">
        <ele>61</ele>
        <time>2020-06-24T09:01:00.114Z</time>
      </trkpt>
      <trkpt lat="48.67833" lon="-2.32481">
        <ele>61</ele>
        <time>2020-06-24T09:01:01.114Z</time>
      </trkpt>
      <trkpt lat="48.67834" lon="-2.3248">
        <ele>60</ele>
        <time>2020-06-24T09:01:02.114Z</time>
      </trkpt>
      <trkpt lat="48.67835" lon="-2.32479">
        <ele>60</ele>
        <time>2020-06-24T09:01:03.114Z</time>
      </trkpt>
      <trkpt lat="48.67837" lon="-2.32478">
        <ele>60</ele>
        <time>2020-06-24T09:01:04.114Z</time>
      </trkpt>
      <trkpt lat="48.67838" lon="-2.32476">
        <ele>60</ele>
        <time>2020-06-24T09:01:05.114Z</time>
      </trkpt>
      <trkpt lat="48.67839" lon="-2.32475">
        <ele>60</ele>
        <time>2020-06-24T09:01:06.114Z</time>
      </trkpt>
      <trkpt lat="48.6784" lon="-2.32474">
        <ele>60</ele>
        <time>2020-06-24T09:01:07.114Z</time>
      </trkpt>
      <trkpt lat="48.67841" lon="-2.32472">
        <ele>60</ele>
        <time>2020-06-24T09:01:08.114Z</time>
      </trkpt>
      <trkpt lat="48.67842" lon="-2.3247">
        <ele>60</ele>
        <time>2020-06-24T09:01:09.114Z</time>
      </trkpt>
      <trkpt lat="48.67843" lon="-2.32469">
        <ele>60</ele>
        <time>2020-06-24T09:01:10.114Z</time>
      </trkpt>
      <trkpt lat="48.67844" lon="-2.32468">
        <ele>60</ele>
        <time>2020-06-24T09:01:11.114Z</time>
      </trkpt>
      <trkpt lat="48.67845" lon="-2.32466">
        <ele>60</ele>
        <time>2020-06-24T09:01:12.114Z</time>
      </trkpt>
      <trkpt lat="48.67846" lon="-2.32465">
        <ele>60</ele>
        <time>2020-06-24T09:01:13.114Z</time>
      </trkpt>
      <trkpt lat="48.67847" lon="-2.32465">
        <ele>60</ele>
        <time>2020-06-24T09:01:14.114Z</time>
      </trkpt>
      <trkpt lat="48.67849" lon="-2.32464">
        <ele>60</ele>
        <time>2020-06-24T09:01:15.114Z</time>
      </trkpt>
      <trkpt lat="48.6785" lon="-2.32464">
        <ele>60</ele>
        <time>2020-06-24T09:01:16.114Z</time>
      </trkpt>
      <trkpt lat="48.67852" lon="-2.32465">
        <ele>60</ele>
        <time>2020-06-24T09:01:17.114Z</time>
      </trkpt>
      <trkpt lat="48.67853" lon="-2.32465">
        <ele>60</ele>
        <time>2020-06-24T09:01:18.114Z</time>
      </trkpt>
      <trkpt lat="48.67854" lon="-2.32465">
        <ele>60</ele>
        <time>2020-06-24T09:01:19.114Z</time>
      </trkpt>
      <trkpt lat="48.67856" lon="-2.32465">
        <ele>60</ele>
        <time>2020-06-24T09:01:20.114Z</time>
      </trkpt>
      <trkpt lat="48.67857" lon="-2.32465">
        <ele>60</ele>
        <time>2020-06-24T09:01:21.114Z</time>
      </trkpt>
      <trkpt lat="48.67858" lon="-2.32464">
        <ele>60</ele>
        <time>2020-06-24T09:01:22.114Z</time>
      </trkpt>
      <trkpt lat="48.6786" lon="-2.32464">
        <ele>60</ele>
        <time>2020-06-24T09:01:23.114Z</time>
      </trkpt>
      <trkpt lat="48.67861" lon="-2.32464">
        <ele>60</ele>
        <time>2020-06-24T09:01:24.114Z</time>
      </trkpt>
      <trkpt lat="48.67862" lon="-2.32465">
        <ele>60</ele>
        <time>2020-06-24T09:01:25.114Z</time>
      </trkpt>
      <trkpt lat="48.67863" lon="-2.32465">
        <ele>60</ele>
        <time>2020-06-24T09:01:26.114Z</time>
      </trkpt>
      <trkpt lat="48.67865" lon="-2.32466">
        <ele>60</ele>
        <time>2020-06-24T09:01:27.114Z</time>
      </trkpt>
      <trkpt lat="48.67866" lon="-2.32468">
        <ele>60</ele>
        <time>2020-06-24T09:01:28.114Z</time>
      </trkpt>
      <trkpt lat="48.67867" lon="-2.32469">
        <ele>60</ele>
        <time>2020-06-24T09:01:29.114Z</time>
      </trkpt>
      <trkpt lat="48.67868" lon="-2.3247">
        <ele>60</ele>
        <time>2020-06-24T09:01:30.114Z</time>
      </trkpt>
      <trkpt lat="48.67869" lon="-2.32472">
        <ele>60</ele>
        <time>2020-06-24T09:01:31.114Z</time>
      </trkpt>
      <trkpt lat="48.6787" lon="-2.32473">
        <ele>60</ele>
        <time>2020-06-24T09:01:32.114Z</time>
      </trkpt>
      <trkpt lat="48.67871" lon="-2.32475">
        <ele>60</ele>
        <time>2020-06-24T09:01:33.114Z</time>
      </trkpt>
      <trkpt lat="48.67871" lon="-2.32476">
        <ele>60</ele>
        <time>2020-06-24T09:01:34.114Z</time>
      </trkpt>
      <trkpt lat="48.67872" lon="-2.32478">
        <ele>60</ele>
        <time>2020-06-24T09:01:35.114Z</time>
      </trkpt>
      <trkpt lat="48.67873" lon="-2.32479">
        <ele>60</ele>
        <time>2020-06-24T09:01:36.114Z</time>
      </trkpt>
      <trkpt lat="48.67874" lon="-2.32481">
        <ele>60</ele>
        <time>2020-06-24T09:01:37.114Z</time>
      </trkpt>
      <trkpt lat="48.67875" lon="-2.32483">
        <ele>60</ele>
        <time>2020-06-24T09:01:38.114Z</time>
      </trkpt>
      <trkpt lat="48.67876" lon="-2.32484">
        <ele>60</ele>
        <time>2020-06-24T09:01:39.114Z</time>
      </trkpt>
      <trkpt lat="48.67877" lon="-2.32486">
        <ele>61</ele>
        <time>2020-06-24T09:01:40.114Z</time>
      </trkpt>
      <trkpt lat="48.67878" lon="-2.32487">
        <ele>61</ele>
        <time>2020-06-24T09:01:41.114Z</time>
      </trkpt>
      <trkpt lat="48.67879" lon="-2.32489">
        <ele>61</ele>
        <time>2020-06-24T09:01:42.114Z</time>
      </trkpt>
      <trkpt lat="48.6788" lon="-2.3249">
        <ele>61</ele>
        <time>2020-06-24T09:01:43.114Z</time>
      </trkpt>
      <trkpt lat="48.67881" lon="-2.32491">
        <ele>61</ele>
        <time>2020-06-24T09:01:44.114Z</time>
      </trkpt>
      <trkpt lat="48.67882" lon="-2.32492">
        <ele>60</ele>
        <time>2020-06-24T09:01:45.114Z</time>
      </trkpt>
      <trkpt lat="48.67884" lon="-2.32493">
        <ele>60</ele>
        <time>2020-06-24T09:01:46.114Z</time>
      </trkpt>
      <trkpt lat="48.67885" lon="-2.32493">
        <ele>60</ele>
        <time>2020-06-24T09:01:47.114Z</time>
      </trkpt>
      <trkpt lat="48.67886" lon="-2.32493">
        <ele>60</ele>
        <time>2020-06-24T09:01:48.114Z</time>
      </trkpt>
      <trkpt lat="48.67888" lon="-2.32493">
        <ele>60</ele>
        <time>2020-06-24T09:01:49.114Z</time>
      </trkpt>
      <trkpt lat="48.67889" lon="-2.32493">
        <ele>60</ele>
        <time>2020-06-24T09:01:50.114Z</time>
      </trkpt>
      <trkpt lat="48.67891" lon="-2.32493">
        <ele>60</ele>
        <time>2020-06-24T09:01:51.114Z</time>
      </trkpt>
      <trkpt lat="48.67892" lon="-2.32493">
        <ele>60</ele>
        <time>2020-06-24T09:01:52.114Z</time>
      </trkpt>
      <trkpt lat="48.67893" lon="-2.32492">
        <ele>60</ele>
        <time>2020-06-24T09:01:53.114Z</time>
      </trkpt>
      <trkpt lat="48.67895" lon="-2.32492">
        <ele>60</ele>
        <time>2020-06-24T09:01:54.114Z</time>
      </trkpt>
      <trkpt lat="48.67896" lon="-2.32492">
        <ele>60</ele>
        <time>2020-06-24T09:01:55.114Z</time>
      </trkpt>
      <trkpt lat="48.67897" lon="-2.32492">
        <ele>60</ele>
        <time>2020-06-24T09:01:56.114Z</time>
      </trkpt>
      <trkpt lat="48.67899" lon="-2.32491">
        <ele>60</ele>
        <time>2020-06-24T09:01:57.114Z</time>
      </trkpt>
      <trkpt lat="48.679" lon="-2.32491">
        <ele>60</ele>
        <time>2020-06-24T09:01:58.114Z</time>
      </trkpt>
      <trkpt lat="48.67901" lon="-2.3249">
        <ele>60</ele>
        <time>2020-06-24T09:01:59.114Z</time>
      </trkpt>
      <trkpt lat="48.67902" lon="-2.32489">
        <ele>60</ele>
        <time>2020-06-24T09:02:00.114Z</time>
      </trkpt>
      <trkpt lat="48.67903" lon="-2.32489">
        <ele>60</ele>
        <time>2020-06-24T09:02:01.114Z</time>
      </trkpt>
      <trkpt lat="48.67903" lon="-2.32489">
        <ele>60</ele>
        <time>2020-06-24T09:02:02.114Z</time>
      </trkpt>
      <trkpt lat="48.67903" lon="-2.32489">
        <ele>60</ele>
        <time>2020-06-24T09:02:03.114Z</time>
      </trkpt>
      <trkpt lat="48.67903" lon="-2.32489">
        <ele>60</ele>
        <time>2020-06-24T09:02:04.114Z</time>
      </trkpt>
      <trkpt lat="48.67903" lon="-2.32489">
        <ele>60</ele>
        <time>2020-06-24T09:02:05.114Z</time>
      </trkpt>
      <trkpt lat="48.67903" lon="-2.32489">
        <ele>60</ele>
        <time>2020-06-24T09:02:06.114Z</time>
      </trkpt>
      <trkpt lat="48.67903" lon="-2.32489">
        <ele>60</ele>
        <time>2020-06-24T09:02:07.114Z</time>
      </trkpt>
      <trkpt lat="48.67906" lon="-2.32486">
        <ele>59</ele>
        <time>2020-06-24T09:02:08.118Z</time>
      </trkpt>
      <trkpt lat="48.67907" lon="-2.32485">
        <ele>59</ele>
        <time>2020-06-24T09:02:09.118Z</time>
      </trkpt>
      <trkpt lat="48.67909" lon="-2.32485">
        <ele>59</ele>
        <time>2020-06-24T09:02:10.118Z</time>
      </trkpt>
      <trkpt lat="48.6791" lon="-2.32484">
        <ele>59</ele>
        <time>2020-06-24T09:02:11.118Z</time>
      </trkpt>
      <trkpt lat="48.67911" lon="-2.32483">
        <ele>59</ele>
        <time>2020-06-24T09:02:12.118Z</time>
      </trkpt>
      <trkpt lat="48.67912" lon="-2.32483">
        <ele>59</ele>
        <time>2020-06-24T09:02:13.118Z</time>
      </trkpt>
      <trkpt lat="48.67913" lon="-2.32482">
        <ele>59</ele>
        <time>2020-06-24T09:02:14.118Z</time>
      </trkpt>
      <trkpt lat="48.67914" lon="-2.32482">
        <ele>59</ele>
        <time>2020-06-24T09:02:15.118Z</time>
      </trkpt>
      <trkpt lat="48.67914" lon="-2.32482">
        <ele>59</ele>
        <time>2020-06-24T09:02:16.118Z</time>
      </trkpt>
      <trkpt lat="48.67914" lon="-2.32482">
        <ele>59</ele>
        <time>2020-06-24T09:02:17.118Z</time>
      </trkpt>
      <trkpt lat="48.67915" lon="-2.32481">
        <ele>59</ele>
        <time>2020-06-24T09:02:18.118Z</time>
      </trkpt>
      <trkpt lat="48.67916" lon="-2.3248">
        <ele>59</ele>
        <time>2020-06-24T09:02:19.118Z</time>
      </trkpt>
      <trkpt lat="48.67917" lon="-2.32479">
        <ele>59</ele>
        <time>2020-06-24T09:02:20.118Z</time>
      </trkpt>
      <trkpt lat="48.67918" lon="-2.32478">
        <ele>59</ele>
        <time>2020-06-24T09:02:21.118Z</time>
      </trkpt>
      <trkpt lat="48.67919" lon="-2.32477">
        <ele>59</ele>
        <time>2020-06-24T09:02:22.118Z</time>
      </trkpt>
      <trkpt lat="48.67921" lon="-2.32477">
        <ele>59</ele>
        <time>2020-06-24T09:02:23.118Z</time>
      </trkpt>
      <trkpt lat="48.67922" lon="-2.32476">
        <ele>59</ele>
        <time>2020-06-24T09:02:24.118Z</time>
      </trkpt>
      <trkpt lat="48.67923" lon="-2.32475">
        <ele>59</ele>
        <time>2020-06-24T09:02:25.118Z</time>
      </trkpt>
      <trkpt lat="48.67925" lon="-2.32474">
        <ele>59</ele>
        <time>2020-06-24T09:02:26.118Z</time>
      </trkpt>
      <trkpt lat="48.67926" lon="-2.32473">
        <ele>59</ele>
        <time>2020-06-24T09:02:27.118Z</time>
      </trkpt>
      <trkpt lat="48.67927" lon="-2.32473">
        <ele>59</ele>
        <time>2020-06-24T09:02:28.118Z</time>
      </trkpt>
      <trkpt lat="48.67929" lon="-2.32472">
        <ele>60</ele>
        <time>2020-06-24T09:02:29.118Z</time>
      </trkpt>
      <trkpt lat="48.6793" lon="-2.32471">
        <ele>60</ele>
        <time>2020-06-24T09:02:30.118Z</time>
      </trkpt>
      <trkpt lat="48.67931" lon="-2.3247">
        <ele>59</ele>
        <time>2020-06-24T09:02:31.118Z</time>
      </trkpt>
      <trkpt lat="48.67932" lon="-2.32469">
        <ele>60</ele>
        <time>2020-06-24T09:02:32.118Z</time>
      </trkpt>
      <trkpt lat="48.67934" lon="-2.32468">
        <ele>60</ele>
        <time>2020-06-24T09:02:33.118Z</time>
      </trkpt>
      <trkpt lat="48.67935" lon="-2.32467">
        <ele>60</ele>
        <time>2020-06-24T09:02:34.118Z</time>
      </trkpt>
      <trkpt lat="48.67936" lon="-2.32466">
        <ele>60</ele>
        <time>2020-06-24T09:02:35.118Z</time>
      </trkpt>
      <trkpt lat="48.67938" lon="-2.32465">
        <ele>60</ele>
        <time>2020-06-24T09:02:36.118Z</time>
      </trkpt>
      <trkpt lat="48.67939" lon="-2.32464">
        <ele>61</ele>
        <time>2020-06-24T09:02:37.118Z</time>
      </trkpt>
      <trkpt lat="48.6794" lon="-2.32463">
        <ele>61</ele>
        <time>2020-06-24T09:02:38.118Z</time>
      </trkpt>
      <trkpt lat="48.67942" lon="-2.32462">
        <ele>61</ele>
        <time>2020-06-24T09:02:39.118Z</time>
      </trkpt>
      <trkpt lat="48.67943" lon="-2.32461">
        <ele>61</ele>
        <time>2020-06-24T09:02:40.118Z</time>
      </trkpt>
      <trkpt lat="48.67944" lon="-2.3246">
        <ele>61</ele>
        <time>2020-06-24T09:02:41.118Z</time>
      </trkpt>
      <trkpt lat="48.67946" lon="-2.3246">
        <ele>61</ele>
        <time>2020-06-24T09:02:42.118Z</time>
      </trkpt>
      <trkpt lat="48.67947" lon="-2.32459">
        <ele>61</ele>
        <time>2020-06-24T09:02:43.118Z</time>
      </trkpt>
      <trkpt lat="48.67948" lon="-2.32458">
        <ele>61</ele>
        <time>2020-06-24T09:02:44.118Z</time>
      </trkpt>
      <trkpt lat="48.67949" lon="-2.32458">
        <ele>61</ele>
        <time>2020-06-24T09:02:45.118Z</time>
      </trkpt>
      <trkpt lat="48.67951" lon="-2.32457">
        <ele>61</ele>
        <time>2020-06-24T09:02:46.118Z</time>
      </trkpt>
      <trkpt lat="48.67952" lon="-2.32456">
        <ele>61</ele>
        <time>2020-06-24T09:02:47.118Z</time>
      </trkpt>
      <trkpt lat="48.67953" lon="-2.32455">
        <ele>61</ele>
        <time>2020-06-24T09:02:48.118Z</time>
      </trkpt>
      <trkpt lat="48.67954" lon="-2.32455">
        <ele>61</ele>
        <time>2020-06-24T09:02:49.118Z</time>
      </trkpt>
      <trkpt lat="48.67956" lon="-2.32454">
        <ele>61</ele>
        <time>2020-06-24T09:02:50.118Z</time>
      </trkpt>
      <trkpt lat="48.67957" lon="-2.32453">
        <ele>61</ele>
        <time>2020-06-24T09:02:51.118Z</time>
      </trkpt>
      <trkpt lat="48.67958" lon="-2.32453">
        <ele>61</ele>
        <time>2020-06-24T09:02:52.118Z</time>
      </trkpt>
      <trkpt lat="48.67959" lon="-2.32452">
        <ele>61</ele>
        <time>2020-06-24T09:02:53.118Z</time>
      </trkpt>
      <trkpt lat="48.67961" lon="-2.32451">
        <ele>61</ele>
        <time>2020-06-24T09:02:54.118Z</time>
      </trkpt>
      <trkpt lat="48.67962" lon="-2.32451">
        <ele>62</ele>
        <time>2020-06-24T09:02:55.118Z</time>
      </trkpt>
      <trkpt lat="48.67963" lon="-2.3245">
        <ele>61</ele>
        <time>2020-06-24T09:02:56.118Z</time>
      </trkpt>
      <trkpt lat="48.67965" lon="-2.32449">
        <ele>62</ele>
        <time>2020-06-24T09:02:57.118Z</time>
      </trkpt>
      <trkpt lat="48.67966" lon="-2.32448">
        <ele>62</ele>
        <time>2020-06-24T09:02:58.118Z</time>
      </trkpt>
      <trkpt lat="48.67967" lon="-2.32447">
        <ele>62</ele>
        <time>2020-06-24T09:02:59.118Z</time>
      </trkpt>
      <trkpt lat="48.67968" lon="-2.32447">
        <ele>62</ele>
        <time>2020-06-24T09:03:00.118Z</time>
      </trkpt>
      <trkpt lat="48.6797" lon="-2.32446">
        <ele>62</ele>
        <time>2020-06-24T09:03:01.118Z</time>
      </trkpt>
      <trkpt lat="48.67971" lon="-2.32446">
        <ele>62</ele>
        <time>2020-06-24T09:03:02.118Z</time>
      </trkpt>
      <trkpt lat="48.67972" lon="-2.32445">
        <ele>62</ele>
        <time>2020-06-24T09:03:03.118Z</time>
      </trkpt>
      <trkpt lat="48.67974" lon="-2.32444">
        <ele>62</ele>
        <time>2020-06-24T09:03:04.118Z</time>
      </trkpt>
      <trkpt lat="48.67975" lon="-2.32444">
        <ele>62</ele>
        <time>2020-06-24T09:03:05.118Z</time>
      </trkpt>
      <trkpt lat="48.67976" lon="-2.32444">
        <ele>62</ele>
        <time>2020-06-24T09:03:06.118Z</time>
      </trkpt>
      <trkpt lat="48.67977" lon="-2.32443">
        <ele>62</ele>
        <time>2020-06-24T09:03:07.118Z</time>
      </trkpt>
      <trkpt lat="48.67979" lon="-2.32442">
        <ele>62</ele>
        <time>2020-06-24T09:03:08.118Z</time>
      </trkpt>
      <trkpt lat="48.6798" lon="-2.32442">
        <ele>62</ele>
        <time>2020-06-24T09:03:09.118Z</time>
      </trkpt>
      <trkpt lat="48.67981" lon="-2.32441">
        <ele>62</ele>
        <time>2020-06-24T09:03:10.118Z</time>
      </trkpt>
      <trkpt lat="48.67983" lon="-2.32441">
        <ele>62</ele>
        <time>2020-06-24T09:03:11.118Z</time>
      </trkpt>
      <trkpt lat="48.67984" lon="-2.3244">
        <ele>62</ele>
        <time>2020-06-24T09:03:12.118Z</time>
      </trkpt>
      <trkpt lat="48.67986" lon="-2.3244">
        <ele>62</ele>
        <time>2020-06-24T09:03:13.118Z</time>
      </trkpt>
      <trkpt lat="48.67987" lon="-2.32439">
        <ele>62</ele>
        <time>2020-06-24T09:03:14.118Z</time>
      </trkpt>
      <trkpt lat="48.67988" lon="-2.32439">
        <ele>62</ele>
        <time>2020-06-24T09:03:15.118Z</time>
      </trkpt>
      <trkpt lat="48.6799" lon="-2.32438">
        <ele>62</ele>
        <time>2020-06-24T09:03:16.118Z</time>
      </trkpt>
      <trkpt lat="48.67991" lon="-2.32438">
        <ele>62</ele>
        <time>2020-06-24T09:03:17.118Z</time>
      </trkpt>
      <trkpt lat="48.67993" lon="-2.32437">
        <ele>62</ele>
        <time>2020-06-24T09:03:18.118Z</time>
      </trkpt>
      <trkpt lat="48.67994" lon="-2.32437">
        <ele>62</ele>
        <time>2020-06-24T09:03:19.118Z</time>
      </trkpt>
      <trkpt lat="48.67995" lon="-2.32436">
        <ele>62</ele>
        <time>2020-06-24T09:03:20.118Z</time>
      </trkpt>
      <trkpt lat="48.67997" lon="-2.32436">
        <ele>62</ele>
        <time>2020-06-24T09:03:21.118Z</time>
      </trkpt>
      <trkpt lat="48.67998" lon="-2.32435">
        <ele>62</ele>
        <time>2020-06-24T09:03:22.118Z</time>
      </trkpt>
      <trkpt lat="48.67999" lon="-2.32434">
        <ele>62</ele>
        <time>2020-06-24T09:03:23.118Z</time>
      </trkpt>
      <trkpt lat="48.68" lon="-2.32433">
        <ele>62</ele>
        <time>2020-06-24T09:03:24.118Z</time>
      </trkpt>
      <trkpt lat="48.68001" lon="-2.32432">
        <ele>62</ele>
        <time>2020-06-24T09:03:25.118Z</time>
      </trkpt>
      <trkpt lat="48.68002" lon="-2.32431">
        <ele>62</ele>
        <time>2020-06-24T09:03:26.118Z</time>
      </trkpt>
      <trkpt lat="48.68003" lon="-2.32431">
        <ele>62</ele>
        <time>2020-06-24T09:03:27.118Z</time>
      </trkpt>
      <trkpt lat="48.68003" lon="-2.3243">
        <ele>62</ele>
        <time>2020-06-24T09:03:28.118Z</time>
      </trkpt>
      <trkpt lat="48.68004" lon="-2.3243">
        <ele>62</ele>
        <time>2020-06-24T09:03:29.118Z</time>
      </trkpt>
      <trkpt lat="48.68004" lon="-2.32431">
        <ele>62</ele>
        <time>2020-06-24T09:03:30.118Z</time>
      </trkpt>
      <trkpt lat="48.68005" lon="-2.3243">
        <ele>63</ele>
        <time>2020-06-24T09:03:31.118Z</time>
      </trkpt>
      <trkpt lat="48.68005" lon="-2.3243">
        <ele>62</ele>
        <time>2020-06-24T09:03:32.118Z</time>
      </trkpt>
      <trkpt lat="48.68005" lon="-2.3243">
        <ele>62</ele>
        <time>2020-06-24T09:03:33.118Z</time>
      </trkpt>
      <trkpt lat="48.68005" lon="-2.32431">
        <ele>62</ele>
        <time>2020-06-24T09:03:34.118Z</time>
      </trkpt>
      <trkpt lat="48.68004" lon="-2.32431">
        <ele>62</ele>
        <time>2020-06-24T09:03:35.118Z</time>
      </trkpt>
      <trkpt lat="48.68004" lon="-2.32431">
        <ele>62</ele>
        <time>2020-06-24T09:03:36.118Z</time>
      </trkpt>
      <trkpt lat="48.68004" lon="-2.32431">
        <ele>62</ele>
        <time>2020-06-24T09:03:37.118Z</time>
      </trkpt>
      <trkpt lat="48.68004" lon="-2.32431">
        <ele>62</ele>
        <time>2020-06-24T09:03:38.118Z</time>
      </trkpt>
      <trkpt lat="48.68005" lon="-2.3243">
        <ele>62</ele>
        <time>2020-06-24T09:03:39.118Z</time>
      </trkpt>
      <trkpt lat="48.68005" lon="-2.32429">
        <ele>62</ele>
        <time>2020-06-24T09:03:40.118Z</time>
      </trkpt>
      <trkpt lat="48.68006" lon="-2.32427">
        <ele>61</ele>
        <time>2020-06-24T09:03:41.118Z</time>
      </trkpt>
      <trkpt lat="48.68007" lon="-2.32426">
        <ele>62</ele>
        <time>2020-06-24T09:03:42.118Z</time>
      </trkpt>
      <trkpt lat="48.68008" lon="-2.32424">
        <ele>61</ele>
        <time>2020-06-24T09:03:43.118Z</time>
      </trkpt>
      <trkpt lat="48.68009" lon="-2.32423">
        <ele>61</ele>
        <time>2020-06-24T09:03:44.118Z</time>
      </trkpt>
      <trkpt lat="48.6801" lon="-2.32421">
        <ele>61</ele>
        <time>2020-06-24T09:03:45.118Z</time>
      </trkpt>
      <trkpt lat="48.6801" lon="-2.32419">
        <ele>61</ele>
        <time>2020-06-24T09:03:46.118Z</time>
      </trkpt>
      <trkpt lat="48.68011" lon="-2.32417">
        <ele>62</ele>
        <time>2020-06-24T09:03:47.118Z</time>
      </trkpt>
      <trkpt lat="48.68011" lon="-2.32415">
        <ele>62</ele>
        <time>2020-06-24T09:03:48.118Z</time>
      </trkpt>
      <trkpt lat="48.68011" lon="-2.32414">
        <ele>62</ele>
        <time>2020-06-24T09:03:49.118Z</time>
      </trkpt>
      <trkpt lat="48.68012" lon="-2.32412">
        <ele>62</ele>
        <time>2020-06-24T09:03:50.118Z</time>
      </trkpt>
      <trkpt lat="48.68012" lon="-2.3241">
        <ele>62</ele>
        <time>2020-06-24T09:03:51.118Z</time>
      </trkpt>
      <trkpt lat="48.68013" lon="-2.32409">
        <ele>62</ele>
        <time>2020-06-24T09:03:52.118Z</time>
      </trkpt>
      <trkpt lat="48.68014" lon="-2.32408">
        <ele>62</ele>
        <time>2020-06-24T09:03:53.118Z</time>
      </trkpt>
      <trkpt lat="48.68015" lon="-2.32407">
        <ele>62</ele>
        <time>2020-06-24T09:03:54.118Z</time>
      </trkpt>
      <trkpt lat="48.68017" lon="-2.32407">
        <ele>62</ele>
        <time>2020-06-24T09:03:55.118Z</time>
      </trkpt>
      <trkpt lat="48.68018" lon="-2.32406">
        <ele>62</ele>
        <time>2020-06-24T09:03:56.118Z</time>
      </trkpt>
      <trkpt lat="48.6802" lon="-2.32407">
        <ele>63</ele>
        <time>2020-06-24T09:03:57.118Z</time>
      </trkpt>
      <trkpt lat="48.68021" lon="-2.32407">
        <ele>63</ele>
        <time>2020-06-24T09:03:58.118Z</time>
      </trkpt>
      <trkpt lat="48.68022" lon="-2.32407">
        <ele>63</ele>
        <time>2020-06-24T09:03:59.118Z</time>
      </trkpt>
      <trkpt lat="48.68024" lon="-2.32407">
        <ele>63</ele>
        <time>2020-06-24T09:04:00.118Z</time>
      </trkpt>
      <trkpt lat="48.68025" lon="-2.32407">
        <ele>63</ele>
        <time>2020-06-24T09:04:01.118Z</time>
      </trkpt>
      <trkpt lat="48.68026" lon="-2.32407">
        <ele>62</ele>
        <time>2020-06-24T09:04:02.118Z</time>
      </trkpt>
      <trkpt lat="48.68028" lon="-2.32408">
        <ele>62</ele>
        <time>2020-06-24T09:04:03.118Z</time>
      </trkpt>
      <trkpt lat="48.68029" lon="-2.32408">
        <ele>62</ele>
        <time>2020-06-24T09:04:04.118Z</time>
      </trkpt>
      <trkpt lat="48.6803" lon="-2.32408">
        <ele>62</ele>
        <time>2020-06-24T09:04:05.118Z</time>
      </trkpt>
      <trkpt lat="48.68032" lon="-2.32407">
        <ele>62</ele>
        <time>2020-06-24T09:04:06.118Z</time>
      </trkpt>
      <trkpt lat="48.68033" lon="-2.32407">
        <ele>62</ele>
        <time>2020-06-24T09:04:07.118Z</time>
      </trkpt>
      <trkpt lat="48.68034" lon="-2.32406">
        <ele>62</ele>
        <time>2020-06-24T09:04:08.118Z</time>
      </trkpt>
      <trkpt lat="48.68035" lon="-2.32406">
        <ele>62</ele>
        <time>2020-06-24T09:04:09.118Z</time>
      </trkpt>
      <trkpt lat="48.68037" lon="-2.32405">
        <ele>62</ele>
        <time>2020-06-24T09:04:10.118Z</time>
      </trkpt>
      <trkpt lat="48.68038" lon="-2.32405">
        <ele>63</ele>
        <time>2020-06-24T09:04:11.118Z</time>
      </trkpt>
      <trkpt lat="48.68039" lon="-2.32405">
        <ele>63</ele>
        <time>2020-06-24T09:04:12.118Z</time>
      </trkpt>
      <trkpt lat="48.6804" lon="-2.32404">
        <ele>63</ele>
        <time>2020-06-24T09:04:13.118Z</time>
      </trkpt>
      <trkpt lat="48.68042" lon="-2.32404">
        <ele>63</ele>
        <time>2020-06-24T09:04:14.118Z</time>
      </trkpt>
      <trkpt lat="48.68043" lon="-2.32404">
        <ele>63</ele>
        <time>2020-06-24T09:04:15.118Z</time>
      </trkpt>
      <trkpt lat="48.68044" lon="-2.32404">
        <ele>63</ele>
        <time>2020-06-24T09:04:16.118Z</time>
      </trkpt>
      <trkpt lat="48.68045" lon="-2.32404">
        <ele>63</ele>
        <time>2020-06-24T09:04:17.118Z</time>
      </trkpt>
      <trkpt lat="48.68046" lon="-2.32403">
        <ele>63</ele>
        <time>2020-06-24T09:04:18.118Z</time>
      </trkpt>
      <trkpt lat="48.68047" lon="-2.32403">
        <ele>63</ele>
        <time>2020-06-24T09:04:19.118Z</time>
      </trkpt>
      <trkpt lat="48.68048" lon="-2.32402">
        <ele>63</ele>
        <time>2020-06-24T09:04:20.118Z</time>
      </trkpt>
      <trkpt lat="48.68049" lon="-2.32401">
        <ele>63</ele>
        <time>2020-06-24T09:04:21.118Z</time>
      </trkpt>
      <trkpt lat="48.6805" lon="-2.32401">
        <ele>63</ele>
        <time>2020-06-24T09:04:22.118Z</time>
      </trkpt>
      <trkpt lat="48.68051" lon="-2.32401">
        <ele>63</ele>
        <time>2020-06-24T09:04:23.118Z</time>
      </trkpt>
      <trkpt lat="48.68052" lon="-2.32401">
        <ele>63</ele>
        <time>2020-06-24T09:04:24.118Z</time>
      </trkpt>
      <trkpt lat="48.68054" lon="-2.32401">
        <ele>63</ele>
        <time>2020-06-24T09:04:25.118Z</time>
      </trkpt>
      <trkpt lat="48.68055" lon="-2.32401">
        <ele>63</ele>
        <time>2020-06-24T09:04:26.118Z</time>
      </trkpt>
      <trkpt lat="48.68056" lon="-2.32401">
        <ele>63</ele>
        <time>2020-06-24T09:04:27.118Z</time>
      </trkpt>
      <trkpt lat="48.68058" lon="-2.32401">
        <ele>63</ele>
        <time>2020-06-24T09:04:28.118Z</time>
      </trkpt>
      <trkpt lat="48.68059" lon="-2.32402">
        <ele>63</ele>
        <time>2020-06-24T09:04:29.118Z</time>
      </trkpt>
      <trkpt lat="48.6806" lon="-2.32402">
        <ele>63</ele>
        <time>2020-06-24T09:04:30.118Z</time>
      </trkpt>
      <trkpt lat="48.68062" lon="-2.32402">
        <ele>63</ele>
        <time>2020-06-24T09:04:31.118Z</time>
      </trkpt>
      <trkpt lat="48.68063" lon="-2.32402">
        <ele>63</ele>
        <time>2020-06-24T09:04:32.118Z</time>
      </trkpt>
      <trkpt lat="48.68064" lon="-2.32401">
        <ele>63</ele>
        <time>2020-06-24T09:04:33.118Z</time>
      </trkpt>
      <trkpt lat="48.68065" lon="-2.32401">
        <ele>63</ele>
        <time>2020-06-24T09:04:34.118Z</time>
      </trkpt>
      <trkpt lat="48.68066" lon="-2.32401">
        <ele>62</ele>
        <time>2020-06-24T09:04:35.118Z</time>
      </trkpt>
      <trkpt lat="48.68067" lon="-2.32401">
        <ele>62</ele>
        <time>2020-06-24T09:04:36.118Z</time>
      </trkpt>
      <trkpt lat="48.68068" lon="-2.324">
        <ele>62</ele>
        <time>2020-06-24T09:04:37.118Z</time>
      </trkpt>
      <trkpt lat="48.68069" lon="-2.324">
        <ele>62</ele>
        <time>2020-06-24T09:04:38.118Z</time>
      </trkpt>
      <trkpt lat="48.68071" lon="-2.32401">
        <ele>62</ele>
        <time>2020-06-24T09:04:39.118Z</time>
      </trkpt>
      <trkpt lat="48.68072" lon="-2.32401">
        <ele>62</ele>
        <time>2020-06-24T09:04:40.118Z</time>
      </trkpt>
      <trkpt lat="48.68073" lon="-2.32401">
        <ele>61</ele>
        <time>2020-06-24T09:04:41.118Z</time>
      </trkpt>
      <trkpt lat="48.68075" lon="-2.32401">
        <ele>61</ele>
        <time>2020-06-24T09:04:42.118Z</time>
      </trkpt>
      <trkpt lat="48.68076" lon="-2.32401">
        <ele>61</ele>
        <time>2020-06-24T09:04:43.118Z</time>
      </trkpt>
      <trkpt lat="48.68078" lon="-2.324">
        <ele>61</ele>
        <time>2020-06-24T09:04:44.118Z</time>
      </trkpt>
      <trkpt lat="48.68079" lon="-2.324">
        <ele>61</ele>
        <time>2020-06-24T09:04:45.118Z</time>
      </trkpt>
      <trkpt lat="48.6808" lon="-2.32399">
        <ele>61</ele>
        <time>2020-06-24T09:04:46.118Z</time>
      </trkpt>
      <trkpt lat="48.68081" lon="-2.32399">
        <ele>61</ele>
        <time>2020-06-24T09:04:47.118Z</time>
      </trkpt>
      <trkpt lat="48.68083" lon="-2.32399">
        <ele>61</ele>
        <time>2020-06-24T09:04:48.118Z</time>
      </trkpt>
      <trkpt lat="48.68084" lon="-2.32399">
        <ele>61</ele>
        <time>2020-06-24T09:04:49.118Z</time>
      </trkpt>
      <trkpt lat="48.68085" lon="-2.32399">
        <ele>61</ele>
        <time>2020-06-24T09:04:50.118Z</time>
      </trkpt>
      <trkpt lat="48.68087" lon="-2.32398">
        <ele>61</ele>
        <time>2020-06-24T09:04:51.118Z</time>
      </trkpt>
      <trkpt lat="48.68088" lon="-2.32398">
        <ele>61</ele>
        <time>2020-06-24T09:04:52.118Z</time>
      </trkpt>
      <trkpt lat="48.68089" lon="-2.32397">
        <ele>61</ele>
        <time>2020-06-24T09:04:53.118Z</time>
      </trkpt>
      <trkpt lat="48.6809" lon="-2.32397">
        <ele>60</ele>
        <time>2020-06-24T09:04:54.118Z</time>
      </trkpt>
      <trkpt lat="48.6809" lon="-2.32397">
        <ele>60</ele>
        <time>2020-06-24T09:04:55.118Z</time>
      </trkpt>
      <trkpt lat="48.68089" lon="-2.32396">
        <ele>61</ele>
        <time>2020-06-24T09:04:56.118Z</time>
      </trkpt>
      <trkpt lat="48.6809" lon="-2.32396">
        <ele>61</ele>
        <time>2020-06-24T09:04:57.118Z</time>
      </trkpt>
      <trkpt lat="48.68089" lon="-2.32396">
        <ele>61</ele>
        <time>2020-06-24T09:04:58.118Z</time>
      </trkpt>
      <trkpt lat="48.68092" lon="-2.32394">
        <ele>63</ele>
        <time>2020-06-24T09:04:59.005Z</time>
      </trkpt>
      <trkpt lat="48.68093" lon="-2.32393">
        <ele>63</ele>
        <time>2020-06-24T09:05:00.005Z</time>
      </trkpt>
      <trkpt lat="48.68094" lon="-2.32392">
        <ele>63</ele>
        <time>2020-06-24T09:05:01.005Z</time>
      </trkpt>
      <trkpt lat="48.68094" lon="-2.32391">
        <ele>64</ele>
        <time>2020-06-24T09:05:02.005Z</time>
      </trkpt>
      <trkpt lat="48.68095" lon="-2.3239">
        <ele>64</ele>
        <time>2020-06-24T09:05:03.005Z</time>
      </trkpt>
      <trkpt lat="48.68096" lon="-2.32389">
        <ele>64</ele>
        <time>2020-06-24T09:05:04.005Z</time>
      </trkpt>
      <trkpt lat="48.68097" lon="-2.32388">
        <ele>65</ele>
        <time>2020-06-24T09:05:05.005Z</time>
      </trkpt>
      <trkpt lat="48.68097" lon="-2.32387">
        <ele>65</ele>
        <time>2020-06-24T09:05:06.005Z</time>
      </trkpt>
      <trkpt lat="48.68098" lon="-2.32387">
        <ele>65</ele>
        <time>2020-06-24T09:05:07.005Z</time>
      </trkpt>
      <trkpt lat="48.68099" lon="-2.32386">
        <ele>65</ele>
        <time>2020-06-24T09:05:08.005Z</time>
      </trkpt>
      <trkpt lat="48.681" lon="-2.32386">
        <ele>65</ele>
        <time>2020-06-24T09:05:09.005Z</time>
      </trkpt>
      <trkpt lat="48.68101" lon="-2.32385">
        <ele>65</ele>
        <time>2020-06-24T09:05:10.005Z</time>
      </trkpt>
      <trkpt lat="48.68102" lon="-2.32385">
        <ele>65</ele>
        <time>2020-06-24T09:05:11.005Z</time>
      </trkpt>
      <trkpt lat="48.68103" lon="-2.32385">
        <ele>65</ele>
        <time>2020-06-24T09:05:12.005Z</time>
      </trkpt>
      <trkpt lat="48.68104" lon="-2.32385">
        <ele>65</ele>
        <time>2020-06-24T09:05:13.005Z</time>
      </trkpt>
      <trkpt lat="48.68105" lon="-2.32384">
        <ele>65</ele>
        <time>2020-06-24T09:05:14.005Z</time>
      </trkpt>
      <trkpt lat="48.68106" lon="-2.32384">
        <ele>65</ele>
        <time>2020-06-24T09:05:15.005Z</time>
      </trkpt>
      <trkpt lat="48.68108" lon="-2.32384">
        <ele>65</ele>
        <time>2020-06-24T09:05:16.005Z</time>
      </trkpt>
      <trkpt lat="48.68109" lon="-2.32384">
        <ele>65</ele>
        <time>2020-06-24T09:05:17.005Z</time>
      </trkpt>
      <trkpt lat="48.6811" lon="-2.32384">
        <ele>65</ele>
        <time>2020-06-24T09:05:18.005Z</time>
      </trkpt>
      <trkpt lat="48.68112" lon="-2.32384">
        <ele>65</ele>
        <time>2020-06-24T09:05:19.005Z</time>
      </trkpt>
      <trkpt lat="48.68113" lon="-2.32383">
        <ele>64</ele>
        <time>2020-06-24T09:05:20.005Z</time>
      </trkpt>
      <trkpt lat="48.68114" lon="-2.32383">
        <ele>64</ele>
        <time>2020-06-24T09:05:21.005Z</time>
      </trkpt>
      <trkpt lat="48.68116" lon="-2.32381">
        <ele>64</ele>
        <time>2020-06-24T09:05:22.005Z</time>
      </trkpt>
      <trkpt lat="48.68116" lon="-2.3238">
        <ele>64</ele>
        <time>2020-06-24T09:05:23.005Z</time>
      </trkpt>
      <trkpt lat="48.68117" lon="-2.32379">
        <ele>64</ele>
        <time>2020-06-24T09:05:24.005Z</time>
      </trkpt>
      <trkpt lat="48.68117" lon="-2.32379">
        <ele>64</ele>
        <time>2020-06-24T09:05:25.005Z</time>
      </trkpt>
      <trkpt lat="48.68117" lon="-2.32379">
        <ele>64</ele>
        <time>2020-06-24T09:05:26.005Z</time>
      </trkpt>
      <trkpt lat="48.68117" lon="-2.32379">
        <ele>64</ele>
        <time>2020-06-24T09:05:27.005Z</time>
      </trkpt>
      <trkpt lat="48.68117" lon="-2.32379">
        <ele>64</ele>
        <time>2020-06-24T09:05:28.005Z</time>
      </trkpt>
      <trkpt lat="48.68117" lon="-2.32379">
        <ele>64</ele>
        <time>2020-06-24T09:05:29.005Z</time>
      </trkpt>
      <trkpt lat="48.68117" lon="-2.32379">
        <ele>64</ele>
        <time>2020-06-24T09:05:30.005Z</time>
      </trkpt>
      <trkpt lat="48.68117" lon="-2.32379">
        <ele>64</ele>
        <time>2020-06-24T09:05:31.005Z</time>
      </trkpt>
      <trkpt lat="48.68118" lon="-2.32374">
        <ele>63</ele>
        <time>2020-06-24T09:05:32.017Z</time>
      </trkpt>
      <trkpt lat="48.68119" lon="-2.32373">
        <ele>64</ele>
        <time>2020-06-24T09:05:33.017Z</time>
      </trkpt>
      <trkpt lat="48.68119" lon="-2.32371">
        <ele>64</ele>
        <time>2020-06-24T09:05:34.017Z</time>
      </trkpt>
      <trkpt lat="48.6812" lon="-2.32371">
        <ele>64</ele>
        <time>2020-06-24T09:05:35.017Z</time>
      </trkpt>
      <trkpt lat="48.6812" lon="-2.32371">
        <ele>64</ele>
        <time>2020-06-24T09:05:36.017Z</time>
      </trkpt>
      <trkpt lat="48.6812" lon="-2.32371">
        <ele>64</ele>
        <time>2020-06-24T09:05:37.017Z</time>
      </trkpt>
      <trkpt lat="48.6812" lon="-2.32371">
        <ele>64</ele>
        <time>2020-06-24T09:05:38.017Z</time>
      </trkpt>
      <trkpt lat="48.6812" lon="-2.32371">
        <ele>64</ele>
        <time>2020-06-24T09:05:39.017Z</time>
      </trkpt>
      <trkpt lat="48.6812" lon="-2.32371">
        <ele>64</ele>
        <time>2020-06-24T09:05:40.017Z</time>
      </trkpt>
      <trkpt lat="48.6812" lon="-2.32371">
        <ele>64</ele>
        <time>2020-06-24T09:05:41.017Z</time>
      </trkpt>
      <trkpt lat="48.6812" lon="-2.3237">
        <ele>64</ele>
        <time>2020-06-24T09:05:42.017Z</time>
      </trkpt>
      <trkpt lat="48.68121" lon="-2.3237">
        <ele>64</ele>
        <time>2020-06-24T09:05:43.017Z</time>
      </trkpt>
      <trkpt lat="48.68121" lon="-2.32368">
        <ele>64</ele>
        <time>2020-06-24T09:05:44.017Z</time>
      </trkpt>
      <trkpt lat="48.68122" lon="-2.32367">
        <ele>64</ele>
        <time>2020-06-24T09:05:45.017Z</time>
      </trkpt>
      <trkpt lat="48.68123" lon="-2.32366">
        <ele>64</ele>
        <time>2020-06-24T09:05:46.017Z</time>
      </trkpt>
      <trkpt lat="48.68124" lon="-2.32364">
        <ele>64</ele>
        <time>2020-06-24T09:05:47.017Z</time>
      </trkpt>
      <trkpt lat="48.68125" lon="-2.32363">
        <ele>65</ele>
        <time>2020-06-24T09:05:48.017Z</time>
      </trkpt>
      <trkpt lat="48.68125" lon="-2.32361">
        <ele>65</ele>
        <time>2020-06-24T09:05:49.017Z</time>
      </trkpt>
      <trkpt lat="48.68126" lon="-2.3236">
        <ele>65</ele>
        <time>2020-06-24T09:05:50.017Z</time>
      </trkpt>
      <trkpt lat="48.68127" lon="-2.32358">
        <ele>65</ele>
        <time>2020-06-24T09:05:51.017Z</time>
      </trkpt>
      <trkpt lat="48.68127" lon="-2.32357">
        <ele>65</ele>
        <time>2020-06-24T09:05:52.017Z</time>
      </trkpt>
      <trkpt lat="48.68128" lon="-2.32356">
        <ele>65</ele>
        <time>2020-06-24T09:05:53.017Z</time>
      </trkpt>
      <trkpt lat="48.68128" lon="-2.32356">
        <ele>65</ele>
        <time>2020-06-24T09:05:54.017Z</time>
      </trkpt>
      <trkpt lat="48.68128" lon="-2.32356">
        <ele>65</ele>
        <time>2020-06-24T09:05:55.017Z</time>
      </trkpt>
      <trkpt lat="48.68128" lon="-2.32356">
        <ele>65</ele>
        <time>2020-06-24T09:05:56.017Z</time>
      </trkpt>
      <trkpt lat="48.6813" lon="-2.3235">
        <ele>65</ele>
        <time>2020-06-24T09:05:57.033Z</time>
      </trkpt>
      <trkpt lat="48.68131" lon="-2.32348">
        <ele>65</ele>
        <time>2020-06-24T09:05:58.033Z</time>
      </trkpt>
      <trkpt lat="48.68131" lon="-2.32346">
        <ele>65</ele>
        <time>2020-06-24T09:05:59.033Z</time>
      </trkpt>
      <trkpt lat="48.68132" lon="-2.32345">
        <ele>65</ele>
        <time>2020-06-24T09:06:00.033Z</time>
      </trkpt>
      <trkpt lat="48.68132" lon="-2.32343">
        <ele>65</ele>
        <time>2020-06-24T09:06:01.033Z</time>
      </trkpt>
      <trkpt lat="48.68133" lon="-2.32341">
        <ele>65</ele>
        <time>2020-06-24T09:06:02.033Z</time>
      </trkpt>
      <trkpt lat="48.68133" lon="-2.32339">
        <ele>65</ele>
        <time>2020-06-24T09:06:03.033Z</time>
      </trkpt>
      <trkpt lat="48.68134" lon="-2.32337">
        <ele>65</ele>
        <time>2020-06-24T09:06:04.033Z</time>
      </trkpt>
      <trkpt lat="48.68134" lon="-2.32335">
        <ele>64</ele>
        <time>2020-06-24T09:06:05.033Z</time>
      </trkpt>
      <trkpt lat="48.68135" lon="-2.32334">
        <ele>64</ele>
        <time>2020-06-24T09:06:06.033Z</time>
      </trkpt>
      <trkpt lat="48.68136" lon="-2.32332">
        <ele>64</ele>
        <time>2020-06-24T09:06:07.033Z</time>
      </trkpt>
      <trkpt lat="48.68136" lon="-2.3233">
        <ele>64</ele>
        <time>2020-06-24T09:06:08.033Z</time>
      </trkpt>
      <trkpt lat="48.68137" lon="-2.32329">
        <ele>63</ele>
        <time>2020-06-24T09:06:09.033Z</time>
      </trkpt>
      <trkpt lat="48.68138" lon="-2.32327">
        <ele>63</ele>
        <time>2020-06-24T09:06:10.033Z</time>
      </trkpt>
      <trkpt lat="48.68139" lon="-2.32325">
        <ele>63</ele>
        <time>2020-06-24T09:06:11.033Z</time>
      </trkpt>
      <trkpt lat="48.6814" lon="-2.32323">
        <ele>63</ele>
        <time>2020-06-24T09:06:12.033Z</time>
      </trkpt>
      <trkpt lat="48.6814" lon="-2.32322">
        <ele>63</ele>
        <time>2020-06-24T09:06:13.033Z</time>
      </trkpt>
      <trkpt lat="48.68141" lon="-2.3232">
        <ele>62</ele>
        <time>2020-06-24T09:06:14.033Z</time>
      </trkpt>
      <trkpt lat="48.68142" lon="-2.32318">
        <ele>62</ele>
        <time>2020-06-24T09:06:15.033Z</time>
      </trkpt>
      <trkpt lat="48.68142" lon="-2.32316">
        <ele>62</ele>
        <time>2020-06-24T09:06:16.033Z</time>
      </trkpt>
      <trkpt lat="48.68143" lon="-2.32314">
        <ele>62</ele>
        <time>2020-06-24T09:06:17.033Z</time>
      </trkpt>
      <trkpt lat="48.68143" lon="-2.32313">
        <ele>62</ele>
        <time>2020-06-24T09:06:18.033Z</time>
      </trkpt>
      <trkpt lat="48.68144" lon="-2.32312">
        <ele>62</ele>
        <time>2020-06-24T09:06:19.033Z</time>
      </trkpt>
      <trkpt lat="48.68145" lon="-2.3231">
        <ele>61</ele>
        <time>2020-06-24T09:06:20.033Z</time>
      </trkpt>
      <trkpt lat="48.68146" lon="-2.32309">
        <ele>61</ele>
        <time>2020-06-24T09:06:21.033Z</time>
      </trkpt>
      <trkpt lat="48.68147" lon="-2.32308">
        <ele>61</ele>
        <time>2020-06-24T09:06:22.033Z</time>
      </trkpt>
      <trkpt lat="48.68148" lon="-2.32306">
        <ele>61</ele>
        <time>2020-06-24T09:06:23.033Z</time>
      </trkpt>
      <trkpt lat="48.68149" lon="-2.32304">
        <ele>61</ele>
        <time>2020-06-24T09:06:24.033Z</time>
      </trkpt>
      <trkpt lat="48.6815" lon="-2.32302">
        <ele>61</ele>
        <time>2020-06-24T09:06:25.033Z</time>
      </trkpt>
      <trkpt lat="48.68151" lon="-2.323">
        <ele>61</ele>
        <time>2020-06-24T09:06:26.033Z</time>
      </trkpt>
      <trkpt lat="48.68152" lon="-2.32299">
        <ele>61</ele>
        <time>2020-06-24T09:06:27.033Z</time>
      </trkpt>
      <trkpt lat="48.68152" lon="-2.32297">
        <ele>60</ele>
        <time>2020-06-24T09:06:28.033Z</time>
      </trkpt>
      <trkpt lat="48.68153" lon="-2.32295">
        <ele>60</ele>
        <time>2020-06-24T09:06:29.033Z</time>
      </trkpt>
      <trkpt lat="48.68153" lon="-2.32294">
        <ele>60</ele>
        <time>2020-06-24T09:06:30.033Z</time>
      </trkpt>
      <trkpt lat="48.68154" lon="-2.32292">
        <ele>60</ele>
        <time>2020-06-24T09:06:31.033Z</time>
      </trkpt>
      <trkpt lat="48.68154" lon="-2.3229">
        <ele>60</ele>
        <time>2020-06-24T09:06:32.033Z</time>
      </trkpt>
      <trkpt lat="48.68155" lon="-2.32289">
        <ele>60</ele>
        <time>2020-06-24T09:06:33.033Z</time>
      </trkpt>
      <trkpt lat="48.68156" lon="-2.32287">
        <ele>59</ele>
        <time>2020-06-24T09:06:34.033Z</time>
      </trkpt>
      <trkpt lat="48.68156" lon="-2.32285">
        <ele>59</ele>
        <time>2020-06-24T09:06:35.033Z</time>
      </trkpt>
      <trkpt lat="48.68157" lon="-2.32283">
        <ele>59</ele>
        <time>2020-06-24T09:06:36.033Z</time>
      </trkpt>
      <trkpt lat="48.68157" lon="-2.32281">
        <ele>59</ele>
        <time>2020-06-24T09:06:37.033Z</time>
      </trkpt>
      <trkpt lat="48.68157" lon="-2.3228">
        <ele>59</ele>
        <time>2020-06-24T09:06:38.033Z</time>
      </trkpt>
      <trkpt lat="48.68157" lon="-2.32278">
        <ele>59</ele>
        <time>2020-06-24T09:06:39.033Z</time>
      </trkpt>
      <trkpt lat="48.68156" lon="-2.32276">
        <ele>59</ele>
        <time>2020-06-24T09:06:40.033Z</time>
      </trkpt>
      <trkpt lat="48.68155" lon="-2.32274">
        <ele>59</ele>
        <time>2020-06-24T09:06:41.033Z</time>
      </trkpt>
      <trkpt lat="48.68154" lon="-2.32273">
        <ele>59</ele>
        <time>2020-06-24T09:06:42.033Z</time>
      </trkpt>
      <trkpt lat="48.68153" lon="-2.32271">
        <ele>59</ele>
        <time>2020-06-24T09:06:43.033Z</time>
      </trkpt>
      <trkpt lat="48.68152" lon="-2.3227">
        <ele>59</ele>
        <time>2020-06-24T09:06:44.033Z</time>
      </trkpt>
      <trkpt lat="48.68151" lon="-2.32268">
        <ele>59</ele>
        <time>2020-06-24T09:06:45.033Z</time>
      </trkpt>
      <trkpt lat="48.6815" lon="-2.32267">
        <ele>59</ele>
        <time>2020-06-24T09:06:46.033Z</time>
      </trkpt>
      <trkpt lat="48.68148" lon="-2.32266">
        <ele>59</ele>
        <time>2020-06-24T09:06:47.033Z</time>
      </trkpt>
      <trkpt lat="48.68147" lon="-2.32264">
        <ele>59</ele>
        <time>2020-06-24T09:06:48.033Z</time>
      </trkpt>
      <trkpt lat="48.68146" lon="-2.32263">
        <ele>59</ele>
        <time>2020-06-24T09:06:49.033Z</time>
      </trkpt>
      <trkpt lat="48.68145" lon="-2.32261">
        <ele>59</ele>
        <time>2020-06-24T09:06:50.033Z</time>
      </trkpt>
      <trkpt lat="48.68144" lon="-2.3226">
        <ele>59</ele>
        <time>2020-06-24T09:06:51.033Z</time>
      </trkpt>
      <trkpt lat="48.68143" lon="-2.32259">
        <ele>59</ele>
        <time>2020-06-24T09:06:52.033Z</time>
      </trkpt>
      <trkpt lat="48.68142" lon="-2.32257">
        <ele>59</ele>
        <time>2020-06-24T09:06:53.033Z</time>
      </trkpt>
      <trkpt lat="48.68141" lon="-2.32256">
        <ele>59</ele>
        <time>2020-06-24T09:06:54.033Z</time>
      </trkpt>
      <trkpt lat="48.6814" lon="-2.32255">
        <ele>59</ele>
        <time>2020-06-24T09:06:55.033Z</time>
      </trkpt>
      <trkpt lat="48.68139" lon="-2.32254">
        <ele>59</ele>
        <time>2020-06-24T09:06:56.033Z</time>
      </trkpt>
      <trkpt lat="48.68138" lon="-2.32252">
        <ele>59</ele>
        <time>2020-06-24T09:06:57.033Z</time>
      </trkpt>
      <trkpt lat="48.68137" lon="-2.32251">
        <ele>59</ele>
        <time>2020-06-24T09:06:58.033Z</time>
      </trkpt>
      <trkpt lat="48.68136" lon="-2.3225">
        <ele>59</ele>
        <time>2020-06-24T09:06:59.033Z</time>
      </trkpt>
      <trkpt lat="48.68135" lon="-2.32249">
        <ele>59</ele>
        <time>2020-06-24T09:07:00.033Z</time>
      </trkpt>
      <trkpt lat="48.68134" lon="-2.32247">
        <ele>59</ele>
        <time>2020-06-24T09:07:01.033Z</time>
      </trkpt>
      <trkpt lat="48.68134" lon="-2.32246">
        <ele>59</ele>
        <time>2020-06-24T09:07:02.033Z</time>
      </trkpt>
      <trkpt lat="48.68133" lon="-2.32244">
        <ele>59</ele>
        <time>2020-06-24T09:07:03.033Z</time>
      </trkpt>
      <trkpt lat="48.68132" lon="-2.32242">
        <ele>59</ele>
        <time>2020-06-24T09:07:04.033Z</time>
      </trkpt>
      <trkpt lat="48.68132" lon="-2.32241">
        <ele>59</ele>
        <time>2020-06-24T09:07:05.033Z</time>
      </trkpt>
      <trkpt lat="48.68131" lon="-2.32239">
        <ele>59</ele>
        <time>2020-06-24T09:07:06.033Z</time>
      </trkpt>
      <trkpt lat="48.68131" lon="-2.32237">
        <ele>59</ele>
        <time>2020-06-24T09:07:07.033Z</time>
      </trkpt>
      <trkpt lat="48.68131" lon="-2.32235">
        <ele>59</ele>
        <time>2020-06-24T09:07:08.033Z</time>
      </trkpt>
      <trkpt lat="48.6813" lon="-2.32233">
        <ele>59</ele>
        <time>2020-06-24T09:07:09.033Z</time>
      </trkpt>
      <trkpt lat="48.6813" lon="-2.32231">
        <ele>59</ele>
        <time>2020-06-24T09:07:10.033Z</time>
      </trkpt>
      <trkpt lat="48.68131" lon="-2.3223">
        <ele>59</ele>
        <time>2020-06-24T09:07:11.033Z</time>
      </trkpt>
      <trkpt lat="48.68131" lon="-2.32228">
        <ele>59</ele>
        <time>2020-06-24T09:07:12.033Z</time>
      </trkpt>
      <trkpt lat="48.68132" lon="-2.32226">
        <ele>59</ele>
        <time>2020-06-24T09:07:13.033Z</time>
      </trkpt>
      <trkpt lat="48.68133" lon="-2.32224">
        <ele>59</ele>
        <time>2020-06-24T09:07:14.033Z</time>
      </trkpt>
      <trkpt lat="48.68133" lon="-2.32222">
        <ele>59</ele>
        <time>2020-06-24T09:07:15.033Z</time>
      </trkpt>
      <trkpt lat="48.68134" lon="-2.32221">
        <ele>59</ele>
        <time>2020-06-24T09:07:16.033Z</time>
      </trkpt>
      <trkpt lat="48.68135" lon="-2.32219">
        <ele>59</ele>
        <time>2020-06-24T09:07:17.033Z</time>
      </trkpt>
      <trkpt lat="48.68135" lon="-2.32218">
        <ele>59</ele>
        <time>2020-06-24T09:07:18.033Z</time>
      </trkpt>
      <trkpt lat="48.68136" lon="-2.32217">
        <ele>59</ele>
        <time>2020-06-24T09:07:19.033Z</time>
      </trkpt>
      <trkpt lat="48.68138" lon="-2.32216">
        <ele>59</ele>
        <time>2020-06-24T09:07:20.033Z</time>
      </trkpt>
      <trkpt lat="48.68139" lon="-2.32214">
        <ele>59</ele>
        <time>2020-06-24T09:07:21.033Z</time>
      </trkpt>
      <trkpt lat="48.68139" lon="-2.32213">
        <ele>59</ele>
        <time>2020-06-24T09:07:22.033Z</time>
      </trkpt>
      <trkpt lat="48.6814" lon="-2.32212">
        <ele>59</ele>
        <time>2020-06-24T09:07:23.033Z</time>
      </trkpt>
      <trkpt lat="48.68141" lon="-2.32211">
        <ele>59</ele>
        <time>2020-06-24T09:07:24.033Z</time>
      </trkpt>
      <trkpt lat="48.68143" lon="-2.32211">
        <ele>59</ele>
        <time>2020-06-24T09:07:25.033Z</time>
      </trkpt>
      <trkpt lat="48.68144" lon="-2.32211">
        <ele>59</ele>
        <time>2020-06-24T09:07:26.033Z</time>
      </trkpt>
      <trkpt lat="48.68145" lon="-2.32212">
        <ele>59</ele>
        <time>2020-06-24T09:07:27.033Z</time>
      </trkpt>
      <trkpt lat="48.68146" lon="-2.32213">
        <ele>59</ele>
        <time>2020-06-24T09:07:28.033Z</time>
      </trkpt>
      <trkpt lat="48.68147" lon="-2.32214">
        <ele>59</ele>
        <time>2020-06-24T09:07:29.033Z</time>
      </trkpt>
      <trkpt lat="48.68149" lon="-2.32215">
        <ele>60</ele>
        <time>2020-06-24T09:07:30.033Z</time>
      </trkpt>
      <trkpt lat="48.6815" lon="-2.32215">
        <ele>60</ele>
        <time>2020-06-24T09:07:31.033Z</time>
      </trkpt>
      <trkpt lat="48.68151" lon="-2.32214">
        <ele>60</ele>
        <time>2020-06-24T09:07:32.033Z</time>
      </trkpt>
      <trkpt lat="48.68152" lon="-2.32213">
        <ele>60</ele>
        <time>2020-06-24T09:07:33.033Z</time>
      </trkpt>
      <trkpt lat="48.68152" lon="-2.32212">
        <ele>60</ele>
        <time>2020-06-24T09:07:34.033Z</time>
      </trkpt>
      <trkpt lat="48.68152" lon="-2.3221">
        <ele>60</ele>
        <time>2020-06-24T09:07:35.033Z</time>
      </trkpt>
      <trkpt lat="48.68151" lon="-2.32208">
        <ele>60</ele>
        <time>2020-06-24T09:07:36.033Z</time>
      </trkpt>
      <trkpt lat="48.68151" lon="-2.32207">
        <ele>60</ele>
        <time>2020-06-24T09:07:37.033Z</time>
      </trkpt>
      <trkpt lat="48.6815" lon="-2.32205">
        <ele>60</ele>
        <time>2020-06-24T09:07:38.033Z</time>
      </trkpt>
      <trkpt lat="48.68149" lon="-2.32204">
        <ele>60</ele>
        <time>2020-06-24T09:07:39.033Z</time>
      </trkpt>
      <trkpt lat="48.68149" lon="-2.32202">
        <ele>60</ele>
        <time>2020-06-24T09:07:40.033Z</time>
      </trkpt>
      <trkpt lat="48.68149" lon="-2.32201">
        <ele>61</ele>
        <time>2020-06-24T09:07:41.033Z</time>
      </trkpt>
      <trkpt lat="48.68149" lon="-2.322">
        <ele>60</ele>
        <time>2020-06-24T09:07:42.033Z</time>
      </trkpt>
      <trkpt lat="48.68149" lon="-2.32199">
        <ele>60</ele>
        <time>2020-06-24T09:07:43.033Z</time>
      </trkpt>
      <trkpt lat="48.6815" lon="-2.32198">
        <ele>61</ele>
        <time>2020-06-24T09:07:44.033Z</time>
      </trkpt>
      <trkpt lat="48.68152" lon="-2.32198">
        <ele>61</ele>
        <time>2020-06-24T09:07:45.033Z</time>
      </trkpt>
      <trkpt lat="48.68153" lon="-2.32198">
        <ele>61</ele>
        <time>2020-06-24T09:07:46.033Z</time>
      </trkpt>
      <trkpt lat="48.68154" lon="-2.32198">
        <ele>61</ele>
        <time>2020-06-24T09:07:47.033Z</time>
      </trkpt>
      <trkpt lat="48.68156" lon="-2.32198">
        <ele>61</ele>
        <time>2020-06-24T09:07:48.033Z</time>
      </trkpt>
      <trkpt lat="48.68157" lon="-2.32199">
        <ele>61</ele>
        <time>2020-06-24T09:07:49.033Z</time>
      </trkpt>
      <trkpt lat="48.68158" lon="-2.32199">
        <ele>61</ele>
        <time>2020-06-24T09:07:50.033Z</time>
      </trkpt>
      <trkpt lat="48.6816" lon="-2.32199">
        <ele>61</ele>
        <time>2020-06-24T09:07:51.033Z</time>
      </trkpt>
      <trkpt lat="48.68161" lon="-2.32199">
        <ele>61</ele>
        <time>2020-06-24T09:07:52.033Z</time>
      </trkpt>
      <trkpt lat="48.68162" lon="-2.322">
        <ele>61</ele>
        <time>2020-06-24T09:07:53.033Z</time>
      </trkpt>
      <trkpt lat="48.68164" lon="-2.322">
        <ele>61</ele>
        <time>2020-06-24T09:07:54.033Z</time>
      </trkpt>
      <trkpt lat="48.68165" lon="-2.322">
        <ele>61</ele>
        <time>2020-06-24T09:07:55.033Z</time>
      </trkpt>
      <trkpt lat="48.68167" lon="-2.322">
        <ele>61</ele>
        <time>2020-06-24T09:07:56.033Z</time>
      </trkpt>
      <trkpt lat="48.68168" lon="-2.322">
        <ele>61</ele>
        <time>2020-06-24T09:07:57.033Z</time>
      </trkpt>
      <trkpt lat="48.68169" lon="-2.322">
        <ele>61</ele>
        <time>2020-06-24T09:07:58.033Z</time>
      </trkpt>
      <trkpt lat="48.68171" lon="-2.322">
        <ele>61</ele>
        <time>2020-06-24T09:07:59.033Z</time>
      </trkpt>
      <trkpt lat="48.68172" lon="-2.322">
        <ele>61</ele>
        <time>2020-06-24T09:08:00.033Z</time>
      </trkpt>
      <trkpt lat="48.68173" lon="-2.322">
        <ele>61</ele>
        <time>2020-06-24T09:08:01.033Z</time>
      </trkpt>
      <trkpt lat="48.68175" lon="-2.322">
        <ele>61</ele>
        <time>2020-06-24T09:08:02.033Z</time>
      </trkpt>
      <trkpt lat="48.68176" lon="-2.322">
        <ele>61</ele>
        <time>2020-06-24T09:08:03.033Z</time>
      </trkpt>
      <trkpt lat="48.68177" lon="-2.322">
        <ele>61</ele>
        <time>2020-06-24T09:08:04.033Z</time>
      </trkpt>
      <trkpt lat="48.68179" lon="-2.322">
        <ele>61</ele>
        <time>2020-06-24T09:08:05.033Z</time>
      </trkpt>
      <trkpt lat="48.6818" lon="-2.32201">
        <ele>61</ele>
        <time>2020-06-24T09:08:06.033Z</time>
      </trkpt>
      <trkpt lat="48.68181" lon="-2.32201">
        <ele>61</ele>
        <time>2020-06-24T09:08:07.033Z</time>
      </trkpt>
      <trkpt lat="48.68183" lon="-2.32202">
        <ele>61</ele>
        <time>2020-06-24T09:08:08.033Z</time>
      </trkpt>
      <trkpt lat="48.68184" lon="-2.32203">
        <ele>62</ele>
        <time>2020-06-24T09:08:09.033Z</time>
      </trkpt>
      <trkpt lat="48.68185" lon="-2.32204">
        <ele>62</ele>
        <time>2020-06-24T09:08:10.033Z</time>
      </trkpt>
      <trkpt lat="48.68186" lon="-2.32205">
        <ele>62</ele>
        <time>2020-06-24T09:08:11.033Z</time>
      </trkpt>
      <trkpt lat="48.68188" lon="-2.32205">
        <ele>62</ele>
        <time>2020-06-24T09:08:12.033Z</time>
      </trkpt>
      <trkpt lat="48.68189" lon="-2.32206">
        <ele>62</ele>
        <time>2020-06-24T09:08:13.033Z</time>
      </trkpt>
      <trkpt lat="48.6819" lon="-2.32207">
        <ele>62</ele>
        <time>2020-06-24T09:08:14.033Z</time>
      </trkpt>
      <trkpt lat="48.68191" lon="-2.32207">
        <ele>62</ele>
        <time>2020-06-24T09:08:15.033Z</time>
      </trkpt>
      <trkpt lat="48.68192" lon="-2.32207">
        <ele>62</ele>
        <time>2020-06-24T09:08:16.033Z</time>
      </trkpt>
      <trkpt lat="48.68192" lon="-2.32207">
        <ele>62</ele>
        <time>2020-06-24T09:08:17.033Z</time>
      </trkpt>
      <trkpt lat="48.68192" lon="-2.32206">
        <ele>62</ele>
        <time>2020-06-24T09:08:18.033Z</time>
      </trkpt>
      <trkpt lat="48.68192" lon="-2.32206">
        <ele>62</ele>
        <time>2020-06-24T09:08:19.033Z</time>
      </trkpt>
      <trkpt lat="48.68192" lon="-2.32207">
        <ele>62</ele>
        <time>2020-06-24T09:08:20.033Z</time>
      </trkpt>
      <trkpt lat="48.68192" lon="-2.32206">
        <ele>62</ele>
        <time>2020-06-24T09:08:21.033Z</time>
      </trkpt>
      <trkpt lat="48.68192" lon="-2.32206">
        <ele>62</ele>
        <time>2020-06-24T09:08:22.033Z</time>
      </trkpt>
      <trkpt lat="48.68195" lon="-2.32205">
        <ele>63</ele>
        <time>2020-06-24T09:08:23.041Z</time>
      </trkpt>
      <trkpt lat="48.68196" lon="-2.32205">
        <ele>63</ele>
        <time>2020-06-24T09:08:24.041Z</time>
      </trkpt>
      <trkpt lat="48.68197" lon="-2.32205">
        <ele>63</ele>
        <time>2020-06-24T09:08:25.041Z</time>
      </trkpt>
      <trkpt lat="48.68198" lon="-2.32204">
        <ele>63</ele>
        <time>2020-06-24T09:08:26.041Z</time>
      </trkpt>
      <trkpt lat="48.68199" lon="-2.32204">
        <ele>63</ele>
        <time>2020-06-24T09:08:27.041Z</time>
      </trkpt>
      <trkpt lat="48.682" lon="-2.32204">
        <ele>63</ele>
        <time>2020-06-24T09:08:28.041Z</time>
      </trkpt>
      <trkpt lat="48.68202" lon="-2.32204">
        <ele>63</ele>
        <time>2020-06-24T09:08:29.041Z</time>
      </trkpt>
      <trkpt lat="48.68203" lon="-2.32203">
        <ele>63</ele>
        <time>2020-06-24T09:08:30.041Z</time>
      </trkpt>
      <trkpt lat="48.68204" lon="-2.32203">
        <ele>63</ele>
        <time>2020-06-24T09:08:31.041Z</time>
      </trkpt>
      <trkpt lat="48.68205" lon="-2.32202">
        <ele>63</ele>
        <time>2020-06-24T09:08:32.041Z</time>
      </trkpt>
      <trkpt lat="48.68206" lon="-2.32201">
        <ele>63</ele>
        <time>2020-06-24T09:08:33.041Z</time>
      </trkpt>
      <trkpt lat="48.68207" lon="-2.322">
        <ele>63</ele>
        <time>2020-06-24T09:08:34.041Z</time>
      </trkpt>
      <trkpt lat="48.68208" lon="-2.32199">
        <ele>64</ele>
        <time>2020-06-24T09:08:35.041Z</time>
      </trkpt>
      <trkpt lat="48.68209" lon="-2.32198">
        <ele>64</ele>
        <time>2020-06-24T09:08:36.041Z</time>
      </trkpt>
      <trkpt lat="48.6821" lon="-2.32197">
        <ele>64</ele>
        <time>2020-06-24T09:08:37.041Z</time>
      </trkpt>
      <trkpt lat="48.68212" lon="-2.32196">
        <ele>64</ele>
        <time>2020-06-24T09:08:38.041Z</time>
      </trkpt>
      <trkpt lat="48.68213" lon="-2.32195">
        <ele>64</ele>
        <time>2020-06-24T09:08:39.041Z</time>
      </trkpt>
      <trkpt lat="48.68214" lon="-2.32195">
        <ele>64</ele>
        <time>2020-06-24T09:08:40.041Z</time>
      </trkpt>
      <trkpt lat="48.68215" lon="-2.32195">
        <ele>64</ele>
        <time>2020-06-24T09:08:41.041Z</time>
      </trkpt>
      <trkpt lat="48.68216" lon="-2.32194">
        <ele>64</ele>
        <time>2020-06-24T09:08:42.041Z</time>
      </trkpt>
      <trkpt lat="48.68218" lon="-2.32193">
        <ele>64</ele>
        <time>2020-06-24T09:08:43.041Z</time>
      </trkpt>
      <trkpt lat="48.68219" lon="-2.32193">
        <ele>64</ele>
        <time>2020-06-24T09:08:44.041Z</time>
      </trkpt>
      <trkpt lat="48.6822" lon="-2.32192">
        <ele>65</ele>
        <time>2020-06-24T09:08:45.041Z</time>
      </trkpt>
      <trkpt lat="48.68221" lon="-2.32192">
        <ele>65</ele>
        <time>2020-06-24T09:08:46.041Z</time>
      </trkpt>
      <trkpt lat="48.68222" lon="-2.32191">
        <ele>65</ele>
        <time>2020-06-24T09:08:47.041Z</time>
      </trkpt>
      <trkpt lat="48.68224" lon="-2.32191">
        <ele>65</ele>
        <time>2020-06-24T09:08:48.041Z</time>
      </trkpt>
      <trkpt lat="48.68225" lon="-2.3219">
        <ele>65</ele>
        <time>2020-06-24T09:08:49.041Z</time>
      </trkpt>
      <trkpt lat="48.68226" lon="-2.3219">
        <ele>65</ele>
        <time>2020-06-24T09:08:50.041Z</time>
      </trkpt>
      <trkpt lat="48.68227" lon="-2.3219">
        <ele>65</ele>
        <time>2020-06-24T09:08:51.041Z</time>
      </trkpt>
      <trkpt lat="48.68228" lon="-2.3219">
        <ele>65</ele>
        <time>2020-06-24T09:08:52.041Z</time>
      </trkpt>
      <trkpt lat="48.68229" lon="-2.3219">
        <ele>65</ele>
        <time>2020-06-24T09:08:53.041Z</time>
      </trkpt>
      <trkpt lat="48.68231" lon="-2.3219">
        <ele>65</ele>
        <time>2020-06-24T09:08:54.041Z</time>
      </trkpt>
      <trkpt lat="48.68232" lon="-2.3219">
        <ele>65</ele>
        <time>2020-06-24T09:08:55.041Z</time>
      </trkpt>
      <trkpt lat="48.68233" lon="-2.3219">
        <ele>65</ele>
        <time>2020-06-24T09:08:56.041Z</time>
      </trkpt>
      <trkpt lat="48.68234" lon="-2.3219">
        <ele>65</ele>
        <time>2020-06-24T09:08:57.041Z</time>
      </trkpt>
      <trkpt lat="48.68235" lon="-2.3219">
        <ele>66</ele>
        <time>2020-06-24T09:08:58.041Z</time>
      </trkpt>
      <trkpt lat="48.68237" lon="-2.3219">
        <ele>66</ele>
        <time>2020-06-24T09:08:59.041Z</time>
      </trkpt>
      <trkpt lat="48.68238" lon="-2.32189">
        <ele>66</ele>
        <time>2020-06-24T09:09:00.041Z</time>
      </trkpt>
      <trkpt lat="48.68239" lon="-2.32189">
        <ele>66</ele>
        <time>2020-06-24T09:09:01.041Z</time>
      </trkpt>
      <trkpt lat="48.6824" lon="-2.32189">
        <ele>66</ele>
        <time>2020-06-24T09:09:02.041Z</time>
      </trkpt>
      <trkpt lat="48.68242" lon="-2.32189">
        <ele>66</ele>
        <time>2020-06-24T09:09:03.041Z</time>
      </trkpt>
      <trkpt lat="48.68243" lon="-2.3219">
        <ele>66</ele>
        <time>2020-06-24T09:09:04.041Z</time>
      </trkpt>
      <trkpt lat="48.68244" lon="-2.3219">
        <ele>66</ele>
        <time>2020-06-24T09:09:05.041Z</time>
      </trkpt>
      <trkpt lat="48.68245" lon="-2.32191">
        <ele>66</ele>
        <time>2020-06-24T09:09:06.041Z</time>
      </trkpt>
      <trkpt lat="48.68247" lon="-2.32191">
        <ele>66</ele>
        <time>2020-06-24T09:09:07.041Z</time>
      </trkpt>
      <trkpt lat="48.68248" lon="-2.32191">
        <ele>66</ele>
        <time>2020-06-24T09:09:08.041Z</time>
      </trkpt>
      <trkpt lat="48.68249" lon="-2.32192">
        <ele>66</ele>
        <time>2020-06-24T09:09:09.041Z</time>
      </trkpt>
      <trkpt lat="48.6825" lon="-2.32192">
        <ele>66</ele>
        <time>2020-06-24T09:09:10.041Z</time>
      </trkpt>
      <trkpt lat="48.68252" lon="-2.32192">
        <ele>66</ele>
        <time>2020-06-24T09:09:11.041Z</time>
      </trkpt>
      <trkpt lat="48.68253" lon="-2.32192">
        <ele>66</ele>
        <time>2020-06-24T09:09:12.041Z</time>
      </trkpt>
      <trkpt lat="48.68254" lon="-2.32191">
        <ele>66</ele>
        <time>2020-06-24T09:09:13.041Z</time>
      </trkpt>
      <trkpt lat="48.68256" lon="-2.32191">
        <ele>66</ele>
        <time>2020-06-24T09:09:14.041Z</time>
      </trkpt>
      <trkpt lat="48.68257" lon="-2.32191">
        <ele>66</ele>
        <time>2020-06-24T09:09:15.041Z</time>
      </trkpt>
      <trkpt lat="48.68258" lon="-2.32191">
        <ele>66</ele>
        <time>2020-06-24T09:09:16.041Z</time>
      </trkpt>
      <trkpt lat="48.68259" lon="-2.32191">
        <ele>66</ele>
        <time>2020-06-24T09:09:17.041Z</time>
      </trkpt>
      <trkpt lat="48.6826" lon="-2.3219">
        <ele>66</ele>
        <time>2020-06-24T09:09:18.041Z</time>
      </trkpt>
      <trkpt lat="48.68262" lon="-2.32189">
        <ele>66</ele>
        <time>2020-06-24T09:09:19.041Z</time>
      </trkpt>
      <trkpt lat="48.68263" lon="-2.32188">
        <ele>66</ele>
        <time>2020-06-24T09:09:20.041Z</time>
      </trkpt>
      <trkpt lat="48.68264" lon="-2.32187">
        <ele>66</ele>
        <time>2020-06-24T09:09:21.041Z</time>
      </trkpt>
      <trkpt lat="48.68265" lon="-2.32187">
        <ele>66</ele>
        <time>2020-06-24T09:09:22.041Z</time>
      </trkpt>
      <trkpt lat="48.68266" lon="-2.32187">
        <ele>67</ele>
        <time>2020-06-24T09:09:23.041Z</time>
      </trkpt>
      <trkpt lat="48.68268" lon="-2.32186">
        <ele>67</ele>
        <time>2020-06-24T09:09:24.041Z</time>
      </trkpt>
      <trkpt lat="48.68269" lon="-2.32186">
        <ele>67</ele>
        <time>2020-06-24T09:09:25.041Z</time>
      </trkpt>
      <trkpt lat="48.6827" lon="-2.32185">
        <ele>67</ele>
        <time>2020-06-24T09:09:26.041Z</time>
      </trkpt>
      <trkpt lat="48.68271" lon="-2.32184">
        <ele>67</ele>
        <time>2020-06-24T09:09:27.041Z</time>
      </trkpt>
      <trkpt lat="48.68272" lon="-2.32183">
        <ele>68</ele>
        <time>2020-06-24T09:09:28.041Z</time>
      </trkpt>
      <trkpt lat="48.68272" lon="-2.32182">
        <ele>68</ele>
        <time>2020-06-24T09:09:29.041Z</time>
      </trkpt>
      <trkpt lat="48.68273" lon="-2.32182">
        <ele>68</ele>
        <time>2020-06-24T09:09:30.041Z</time>
      </trkpt>
      <trkpt lat="48.68273" lon="-2.32181">
        <ele>69</ele>
        <time>2020-06-24T09:09:31.041Z</time>
      </trkpt>
      <trkpt lat="48.68273" lon="-2.32181">
        <ele>69</ele>
        <time>2020-06-24T09:09:32.041Z</time>
      </trkpt>
      <trkpt lat="48.68273" lon="-2.32181">
        <ele>69</ele>
        <time>2020-06-24T09:09:33.041Z</time>
      </trkpt>
      <trkpt lat="48.68273" lon="-2.32181">
        <ele>69</ele>
        <time>2020-06-24T09:09:34.041Z</time>
      </trkpt>
      <trkpt lat="48.68273" lon="-2.32181">
        <ele>69</ele>
        <time>2020-06-24T09:09:35.041Z</time>
      </trkpt>
      <trkpt lat="48.68273" lon="-2.32181">
        <ele>70</ele>
        <time>2020-06-24T09:09:36.041Z</time>
      </trkpt>
      <trkpt lat="48.68273" lon="-2.32181">
        <ele>70</ele>
        <time>2020-06-24T09:09:37.041Z</time>
      </trkpt>
      <trkpt lat="48.68271" lon="-2.3218">
        <ele>70</ele>
        <time>2020-06-24T09:09:38.057Z</time>
      </trkpt>
      <trkpt lat="48.6827" lon="-2.3218">
        <ele>70</ele>
        <time>2020-06-24T09:09:39.057Z</time>
      </trkpt>
      <trkpt lat="48.6827" lon="-2.32179">
        <ele>71</ele>
        <time>2020-06-24T09:09:40.057Z</time>
      </trkpt>
      <trkpt lat="48.68269" lon="-2.32179">
        <ele>71</ele>
        <time>2020-06-24T09:09:41.057Z</time>
      </trkpt>
      <trkpt lat="48.68268" lon="-2.32178">
        <ele>71</ele>
        <time>2020-06-24T09:09:42.057Z</time>
      </trkpt>
      <trkpt lat="48.68267" lon="-2.32178">
        <ele>70</ele>
        <time>2020-06-24T09:09:43.057Z</time>
      </trkpt>
      <trkpt lat="48.68265" lon="-2.32177">
        <ele>70</ele>
        <time>2020-06-24T09:09:44.057Z</time>
      </trkpt>
      <trkpt lat="48.68264" lon="-2.32177">
        <ele>70</ele>
        <time>2020-06-24T09:09:45.057Z</time>
      </trkpt>
      <trkpt lat="48.68263" lon="-2.32177">
        <ele>70</ele>
        <time>2020-06-24T09:09:46.057Z</time>
      </trkpt>
      <trkpt lat="48.68261" lon="-2.32176">
        <ele>70</ele>
        <time>2020-06-24T09:09:47.057Z</time>
      </trkpt>
      <trkpt lat="48.6826" lon="-2.32175">
        <ele>70</ele>
        <time>2020-06-24T09:09:48.057Z</time>
      </trkpt>
      <trkpt lat="48.68259" lon="-2.32174">
        <ele>70</ele>
        <time>2020-06-24T09:09:49.057Z</time>
      </trkpt>
      <trkpt lat="48.68258" lon="-2.32173">
        <ele>71</ele>
        <time>2020-06-24T09:09:50.057Z</time>
      </trkpt>
      <trkpt lat="48.68257" lon="-2.32173">
        <ele>71</ele>
        <time>2020-06-24T09:09:51.057Z</time>
      </trkpt>
      <trkpt lat="48.68256" lon="-2.32172">
        <ele>71</ele>
        <time>2020-06-24T09:09:52.057Z</time>
      </trkpt>
      <trkpt lat="48.68254" lon="-2.32171">
        <ele>71</ele>
        <time>2020-06-24T09:09:53.057Z</time>
      </trkpt>
      <trkpt lat="48.68253" lon="-2.3217">
        <ele>71</ele>
        <time>2020-06-24T09:09:54.057Z</time>
      </trkpt>
      <trkpt lat="48.68252" lon="-2.3217">
        <ele>71</ele>
        <time>2020-06-24T09:09:55.057Z</time>
      </trkpt>
      <trkpt lat="48.6825" lon="-2.32169">
        <ele>71</ele>
        <time>2020-06-24T09:09:56.057Z</time>
      </trkpt>
      <trkpt lat="48.68249" lon="-2.32168">
        <ele>71</ele>
        <time>2020-06-24T09:09:57.057Z</time>
      </trkpt>
      <trkpt lat="48.68248" lon="-2.32168">
        <ele>70</ele>
        <time>2020-06-24T09:09:58.057Z</time>
      </trkpt>
      <trkpt lat="48.68247" lon="-2.32167">
        <ele>71</ele>
        <time>2020-06-24T09:09:59.057Z</time>
      </trkpt>
      <trkpt lat="48.68245" lon="-2.32166">
        <ele>71</ele>
        <time>2020-06-24T09:10:00.057Z</time>
      </trkpt>
      <trkpt lat="48.68244" lon="-2.32165">
        <ele>70</ele>
        <time>2020-06-24T09:10:01.057Z</time>
      </trkpt>
      <trkpt lat="48.68243" lon="-2.32164">
        <ele>70</ele>
        <time>2020-06-24T09:10:02.057Z</time>
      </trkpt>
      <trkpt lat="48.68243" lon="-2.32162">
        <ele>70</ele>
        <time>2020-06-24T09:10:03.057Z</time>
      </trkpt>
      <trkpt lat="48.68243" lon="-2.32161">
        <ele>70</ele>
        <time>2020-06-24T09:10:04.057Z</time>
      </trkpt>
      <trkpt lat="48.68243" lon="-2.32159">
        <ele>70</ele>
        <time>2020-06-24T09:10:05.057Z</time>
      </trkpt>
      <trkpt lat="48.68243" lon="-2.32157">
        <ele>70</ele>
        <time>2020-06-24T09:10:06.057Z</time>
      </trkpt>
      <trkpt lat="48.68243" lon="-2.32154">
        <ele>69</ele>
        <time>2020-06-24T09:10:07.057Z</time>
      </trkpt>
      <trkpt lat="48.68244" lon="-2.32152">
        <ele>69</ele>
        <time>2020-06-24T09:10:08.057Z</time>
      </trkpt>
      <trkpt lat="48.68244" lon="-2.3215">
        <ele>69</ele>
        <time>2020-06-24T09:10:09.057Z</time>
      </trkpt>
      <trkpt lat="48.68244" lon="-2.32149">
        <ele>69</ele>
        <time>2020-06-24T09:10:10.057Z</time>
      </trkpt>
      <trkpt lat="48.68244" lon="-2.32147">
        <ele>68</ele>
        <time>2020-06-24T09:10:11.057Z</time>
      </trkpt>
      <trkpt lat="48.68244" lon="-2.32145">
        <ele>68</ele>
        <time>2020-06-24T09:10:12.057Z</time>
      </trkpt>
      <trkpt lat="48.68244" lon="-2.32143">
        <ele>68</ele>
        <time>2020-06-24T09:10:13.057Z</time>
      </trkpt>
      <trkpt lat="48.68244" lon="-2.32142">
        <ele>68</ele>
        <time>2020-06-24T09:10:14.057Z</time>
      </trkpt>
      <trkpt lat="48.68244" lon="-2.3214">
        <ele>67</ele>
        <time>2020-06-24T09:10:15.057Z</time>
      </trkpt>
      <trkpt lat="48.68243" lon="-2.32138">
        <ele>67</ele>
        <time>2020-06-24T09:10:16.057Z</time>
      </trkpt>
      <trkpt lat="48.68243" lon="-2.32135">
        <ele>67</ele>
        <time>2020-06-24T09:10:17.057Z</time>
      </trkpt>
      <trkpt lat="48.68243" lon="-2.32133">
        <ele>67</ele>
        <time>2020-06-24T09:10:18.057Z</time>
      </trkpt>
      <trkpt lat="48.68243" lon="-2.32131">
        <ele>66</ele>
        <time>2020-06-24T09:10:19.057Z</time>
      </trkpt>
      <trkpt lat="48.68242" lon="-2.32129">
        <ele>67</ele>
        <time>2020-06-24T09:10:20.057Z</time>
      </trkpt>
      <trkpt lat="48.68242" lon="-2.32127">
        <ele>67</ele>
        <time>2020-06-24T09:10:21.057Z</time>
      </trkpt>
      <trkpt lat="48.68241" lon="-2.32125">
        <ele>66</ele>
        <time>2020-06-24T09:10:22.057Z</time>
      </trkpt>
      <trkpt lat="48.68241" lon="-2.32123">
        <ele>66</ele>
        <time>2020-06-24T09:10:23.057Z</time>
      </trkpt>
      <trkpt lat="48.6824" lon="-2.32121">
        <ele>66</ele>
        <time>2020-06-24T09:10:24.057Z</time>
      </trkpt>
      <trkpt lat="48.6824" lon="-2.3212">
        <ele>66</ele>
        <time>2020-06-24T09:10:25.057Z</time>
      </trkpt>
      <trkpt lat="48.68239" lon="-2.32118">
        <ele>67</ele>
        <time>2020-06-24T09:10:26.057Z</time>
      </trkpt>
      <trkpt lat="48.68238" lon="-2.32116">
        <ele>67</ele>
        <time>2020-06-24T09:10:27.057Z</time>
      </trkpt>
      <trkpt lat="48.68238" lon="-2.32115">
        <ele>66</ele>
        <time>2020-06-24T09:10:28.057Z</time>
      </trkpt>
      <trkpt lat="48.68238" lon="-2.32114">
        <ele>66</ele>
        <time>2020-06-24T09:10:29.057Z</time>
      </trkpt>
      <trkpt lat="48.68238" lon="-2.32113">
        <ele>67</ele>
        <time>2020-06-24T09:10:30.057Z</time>
      </trkpt>
      <trkpt lat="48.68238" lon="-2.32113">
        <ele>67</ele>
        <time>2020-06-24T09:10:31.057Z</time>
      </trkpt>
      <trkpt lat="48.68238" lon="-2.32113">
        <ele>67</ele>
        <time>2020-06-24T09:10:32.057Z</time>
      </trkpt>
      <trkpt lat="48.68238" lon="-2.32113">
        <ele>67</ele>
        <time>2020-06-24T09:10:33.057Z</time>
      </trkpt>
      <trkpt lat="48.68238" lon="-2.32113">
        <ele>67</ele>
        <time>2020-06-24T09:10:34.057Z</time>
      </trkpt>
      <trkpt lat="48.68238" lon="-2.32113">
        <ele>66</ele>
        <time>2020-06-24T09:10:35.057Z</time>
      </trkpt>
      <trkpt lat="48.68236" lon="-2.32108">
        <ele>66</ele>
        <time>2020-06-24T09:10:36.073Z</time>
      </trkpt>
      <trkpt lat="48.68236" lon="-2.32106">
        <ele>66</ele>
        <time>2020-06-24T09:10:37.073Z</time>
      </trkpt>
      <trkpt lat="48.68236" lon="-2.32105">
        <ele>66</ele>
        <time>2020-06-24T09:10:38.073Z</time>
      </trkpt>
      <trkpt lat="48.68235" lon="-2.32104">
        <ele>65</ele>
        <time>2020-06-24T09:10:39.073Z</time>
      </trkpt>
      <trkpt lat="48.68234" lon="-2.32103">
        <ele>65</ele>
        <time>2020-06-24T09:10:40.073Z</time>
      </trkpt>
      <trkpt lat="48.68234" lon="-2.32101">
        <ele>65</ele>
        <time>2020-06-24T09:10:41.073Z</time>
      </trkpt>
      <trkpt lat="48.68233" lon="-2.321">
        <ele>65</ele>
        <time>2020-06-24T09:10:42.073Z</time>
      </trkpt>
      <trkpt lat="48.68232" lon="-2.32099">
        <ele>65</ele>
        <time>2020-06-24T09:10:43.073Z</time>
      </trkpt>
      <trkpt lat="48.68232" lon="-2.32098">
        <ele>65</ele>
        <time>2020-06-24T09:10:44.073Z</time>
      </trkpt>
      <trkpt lat="48.68231" lon="-2.32097">
        <ele>65</ele>
        <time>2020-06-24T09:10:45.073Z</time>
      </trkpt>
      <trkpt lat="48.68231" lon="-2.32096">
        <ele>65</ele>
        <time>2020-06-24T09:10:46.073Z</time>
      </trkpt>
      <trkpt lat="48.6823" lon="-2.32095">
        <ele>65</ele>
        <time>2020-06-24T09:10:47.073Z</time>
      </trkpt>
      <trkpt lat="48.68229" lon="-2.32094">
        <ele>65</ele>
        <time>2020-06-24T09:10:48.073Z</time>
      </trkpt>
      <trkpt lat="48.68229" lon="-2.32093">
        <ele>65</ele>
        <time>2020-06-24T09:10:49.073Z</time>
      </trkpt>
      <trkpt lat="48.68228" lon="-2.32092">
        <ele>65</ele>
        <time>2020-06-24T09:10:50.073Z</time>
      </trkpt>
      <trkpt lat="48.68228" lon="-2.32092">
        <ele>65</ele>
        <time>2020-06-24T09:10:51.073Z</time>
      </trkpt>
      <trkpt lat="48.68228" lon="-2.32092">
        <ele>65</ele>
        <time>2020-06-24T09:10:52.073Z</time>
      </trkpt>
      <trkpt lat="48.68228" lon="-2.32092">
        <ele>66</ele>
        <time>2020-06-24T09:10:53.073Z</time>
      </trkpt>
      <trkpt lat="48.68228" lon="-2.32092">
        <ele>66</ele>
        <time>2020-06-24T09:10:54.073Z</time>
      </trkpt>
      <trkpt lat="48.68228" lon="-2.32092">
        <ele>66</ele>
        <time>2020-06-24T09:10:55.073Z</time>
      </trkpt>
      <trkpt lat="48.68228" lon="-2.32092">
        <ele>66</ele>
        <time>2020-06-24T09:10:56.073Z</time>
      </trkpt>
      <trkpt lat="48.68226" lon="-2.3209">
        <ele>65</ele>
        <time>2020-06-24T09:10:57.081Z</time>
      </trkpt>
      <trkpt lat="48.68226" lon="-2.3209">
        <ele>65</ele>
        <time>2020-06-24T09:10:58.081Z</time>
      </trkpt>
      <trkpt lat="48.68226" lon="-2.3209">
        <ele>65</ele>
        <time>2020-06-24T09:10:59.081Z</time>
      </trkpt>
      <trkpt lat="48.68226" lon="-2.3209">
        <ele>65</ele>
        <time>2020-06-24T09:11:00.081Z</time>
      </trkpt>
      <trkpt lat="48.68226" lon="-2.3209">
        <ele>65</ele>
        <time>2020-06-24T09:11:01.081Z</time>
      </trkpt>
      <trkpt lat="48.68225" lon="-2.3209">
        <ele>65</ele>
        <time>2020-06-24T09:11:02.081Z</time>
      </trkpt>
      <trkpt lat="48.68222" lon="-2.32085">
        <ele>65</ele>
        <time>2020-06-24T09:11:03.089Z</time>
      </trkpt>
      <trkpt lat="48.68221" lon="-2.32084">
        <ele>65</ele>
        <time>2020-06-24T09:11:04.089Z</time>
      </trkpt>
      <trkpt lat="48.6822" lon="-2.32083">
        <ele>65</ele>
        <time>2020-06-24T09:11:05.089Z</time>
      </trkpt>
      <trkpt lat="48.68219" lon="-2.32082">
        <ele>65</ele>
        <time>2020-06-24T09:11:06.089Z</time>
      </trkpt>
      <trkpt lat="48.68218" lon="-2.32081">
        <ele>65</ele>
        <time>2020-06-24T09:11:07.089Z</time>
      </trkpt>
      <trkpt lat="48.68217" lon="-2.32079">
        <ele>65</ele>
        <time>2020-06-24T09:11:08.089Z</time>
      </trkpt>
      <trkpt lat="48.68217" lon="-2.32078">
        <ele>65</ele>
        <time>2020-06-24T09:11:09.089Z</time>
      </trkpt>
      <trkpt lat="48.68217" lon="-2.32076">
        <ele>65</ele>
        <time>2020-06-24T09:11:10.089Z</time>
      </trkpt>
      <trkpt lat="48.68217" lon="-2.32075">
        <ele>65</ele>
        <time>2020-06-24T09:11:11.089Z</time>
      </trkpt>
      <trkpt lat="48.68217" lon="-2.32073">
        <ele>64</ele>
        <time>2020-06-24T09:11:12.089Z</time>
      </trkpt>
      <trkpt lat="48.68217" lon="-2.32071">
        <ele>63</ele>
        <time>2020-06-24T09:11:13.089Z</time>
      </trkpt>
      <trkpt lat="48.68218" lon="-2.32069">
        <ele>63</ele>
        <time>2020-06-24T09:11:14.089Z</time>
      </trkpt>
      <trkpt lat="48.68219" lon="-2.32067">
        <ele>63</ele>
        <time>2020-06-24T09:11:15.089Z</time>
      </trkpt>
      <trkpt lat="48.6822" lon="-2.32065">
        <ele>63</ele>
        <time>2020-06-24T09:11:16.089Z</time>
      </trkpt>
      <trkpt lat="48.68221" lon="-2.32064">
        <ele>63</ele>
        <time>2020-06-24T09:11:17.089Z</time>
      </trkpt>
      <trkpt lat="48.68222" lon="-2.32063">
        <ele>62</ele>
        <time>2020-06-24T09:11:18.089Z</time>
      </trkpt>
      <trkpt lat="48.68224" lon="-2.32062">
        <ele>63</ele>
        <time>2020-06-24T09:11:19.089Z</time>
      </trkpt>
      <trkpt lat="48.68225" lon="-2.32061">
        <ele>62</ele>
        <time>2020-06-24T09:11:20.089Z</time>
      </trkpt>
      <trkpt lat="48.68226" lon="-2.3206">
        <ele>62</ele>
        <time>2020-06-24T09:11:21.089Z</time>
      </trkpt>
      <trkpt lat="48.68227" lon="-2.32058">
        <ele>62</ele>
        <time>2020-06-24T09:11:22.089Z</time>
      </trkpt>
      <trkpt lat="48.68229" lon="-2.32057">
        <ele>62</ele>
        <time>2020-06-24T09:11:23.089Z</time>
      </trkpt>
      <trkpt lat="48.6823" lon="-2.32056">
        <ele>62</ele>
        <time>2020-06-24T09:11:24.089Z</time>
      </trkpt>
      <trkpt lat="48.68231" lon="-2.32055">
        <ele>61</ele>
        <time>2020-06-24T09:11:25.089Z</time>
      </trkpt>
      <trkpt lat="48.68232" lon="-2.32054">
        <ele>61</ele>
        <time>2020-06-24T09:11:26.089Z</time>
      </trkpt>
      <trkpt lat="48.68233" lon="-2.32054">
        <ele>61</ele>
        <time>2020-06-24T09:11:27.089Z</time>
      </trkpt>
      <trkpt lat="48.68235" lon="-2.32053">
        <ele>61</ele>
        <time>2020-06-24T09:11:28.089Z</time>
      </trkpt>
      <trkpt lat="48.68236" lon="-2.32053">
        <ele>61</ele>
        <time>2020-06-24T09:11:29.089Z</time>
      </trkpt>
      <trkpt lat="48.68237" lon="-2.32052">
        <ele>61</ele>
        <time>2020-06-24T09:11:30.089Z</time>
      </trkpt>
      <trkpt lat="48.68239" lon="-2.32052">
        <ele>61</ele>
        <time>2020-06-24T09:11:31.089Z</time>
      </trkpt>
      <trkpt lat="48.6824" lon="-2.32051">
        <ele>61</ele>
        <time>2020-06-24T09:11:32.089Z</time>
      </trkpt>
      <trkpt lat="48.68241" lon="-2.3205">
        <ele>61</ele>
        <time>2020-06-24T09:11:33.089Z</time>
      </trkpt>
      <trkpt lat="48.68242" lon="-2.32049">
        <ele>61</ele>
        <time>2020-06-24T09:11:34.089Z</time>
      </trkpt>
      <trkpt lat="48.68242" lon="-2.32048">
        <ele>61</ele>
        <time>2020-06-24T09:11:35.089Z</time>
      </trkpt>
      <trkpt lat="48.68243" lon="-2.32047">
        <ele>61</ele>
        <time>2020-06-24T09:11:36.089Z</time>
      </trkpt>
      <trkpt lat="48.68244" lon="-2.32046">
        <ele>61</ele>
        <time>2020-06-24T09:11:37.089Z</time>
      </trkpt>
      <trkpt lat="48.68245" lon="-2.32044">
        <ele>61</ele>
        <time>2020-06-24T09:11:38.089Z</time>
      </trkpt>
      <trkpt lat="48.68246" lon="-2.32042">
        <ele>61</ele>
        <time>2020-06-24T09:11:39.089Z</time>
      </trkpt>
      <trkpt lat="48.68247" lon="-2.3204">
        <ele>61</ele>
        <time>2020-06-24T09:11:40.089Z</time>
      </trkpt>
      <trkpt lat="48.68248" lon="-2.32038">
        <ele>61</ele>
        <time>2020-06-24T09:11:41.089Z</time>
      </trkpt>
      <trkpt lat="48.68249" lon="-2.32036">
        <ele>61</ele>
        <time>2020-06-24T09:11:42.089Z</time>
      </trkpt>
      <trkpt lat="48.6825" lon="-2.32034">
        <ele>61</ele>
        <time>2020-06-24T09:11:43.089Z</time>
      </trkpt>
      <trkpt lat="48.6825" lon="-2.32033">
        <ele>61</ele>
        <time>2020-06-24T09:11:44.089Z</time>
      </trkpt>
      <trkpt lat="48.68251" lon="-2.32031">
        <ele>61</ele>
        <time>2020-06-24T09:11:45.089Z</time>
      </trkpt>
      <trkpt lat="48.68252" lon="-2.32029">
        <ele>61</ele>
        <time>2020-06-24T09:11:46.089Z</time>
      </trkpt>
      <trkpt lat="48.68253" lon="-2.32028">
        <ele>61</ele>
        <time>2020-06-24T09:11:47.089Z</time>
      </trkpt>
      <trkpt lat="48.68254" lon="-2.32026">
        <ele>61</ele>
        <time>2020-06-24T09:11:48.089Z</time>
      </trkpt>
      <trkpt lat="48.68255" lon="-2.32025">
        <ele>62</ele>
        <time>2020-06-24T09:11:49.089Z</time>
      </trkpt>
      <trkpt lat="48.68256" lon="-2.32023">
        <ele>62</ele>
        <time>2020-06-24T09:11:50.089Z</time>
      </trkpt>
      <trkpt lat="48.68257" lon="-2.32021">
        <ele>61</ele>
        <time>2020-06-24T09:11:51.089Z</time>
      </trkpt>
      <trkpt lat="48.68257" lon="-2.32019">
        <ele>62</ele>
        <time>2020-06-24T09:11:52.089Z</time>
      </trkpt>
      <trkpt lat="48.68258" lon="-2.32018">
        <ele>62</ele>
        <time>2020-06-24T09:11:53.089Z</time>
      </trkpt>
      <trkpt lat="48.68259" lon="-2.32016">
        <ele>62</ele>
        <time>2020-06-24T09:11:54.089Z</time>
      </trkpt>
      <trkpt lat="48.6826" lon="-2.32014">
        <ele>62</ele>
        <time>2020-06-24T09:11:55.089Z</time>
      </trkpt>
      <trkpt lat="48.68261" lon="-2.32013">
        <ele>62</ele>
        <time>2020-06-24T09:11:56.089Z</time>
      </trkpt>
      <trkpt lat="48.68262" lon="-2.32012">
        <ele>62</ele>
        <time>2020-06-24T09:11:57.089Z</time>
      </trkpt>
      <trkpt lat="48.68263" lon="-2.32012">
        <ele>62</ele>
        <time>2020-06-24T09:11:58.089Z</time>
      </trkpt>
      <trkpt lat="48.68265" lon="-2.32011">
        <ele>62</ele>
        <time>2020-06-24T09:11:59.089Z</time>
      </trkpt>
      <trkpt lat="48.68266" lon="-2.3201">
        <ele>62</ele>
        <time>2020-06-24T09:12:00.089Z</time>
      </trkpt>
      <trkpt lat="48.68267" lon="-2.32009">
        <ele>62</ele>
        <time>2020-06-24T09:12:01.089Z</time>
      </trkpt>
      <trkpt lat="48.68269" lon="-2.32008">
        <ele>63</ele>
        <time>2020-06-24T09:12:02.089Z</time>
      </trkpt>
      <trkpt lat="48.6827" lon="-2.32007">
        <ele>63</ele>
        <time>2020-06-24T09:12:03.089Z</time>
      </trkpt>
      <trkpt lat="48.68271" lon="-2.32007">
        <ele>63</ele>
        <time>2020-06-24T09:12:04.089Z</time>
      </trkpt>
      <trkpt lat="48.68272" lon="-2.32006">
        <ele>63</ele>
        <time>2020-06-24T09:12:05.089Z</time>
      </trkpt>
      <trkpt lat="48.68273" lon="-2.32005">
        <ele>63</ele>
        <time>2020-06-24T09:12:06.089Z</time>
      </trkpt>
      <trkpt lat="48.68274" lon="-2.32004">
        <ele>64</ele>
        <time>2020-06-24T09:12:07.089Z</time>
      </trkpt>
      <trkpt lat="48.68276" lon="-2.32003">
        <ele>64</ele>
        <time>2020-06-24T09:12:08.089Z</time>
      </trkpt>
      <trkpt lat="48.68277" lon="-2.32002">
        <ele>64</ele>
        <time>2020-06-24T09:12:09.089Z</time>
      </trkpt>
      <trkpt lat="48.68278" lon="-2.32001">
        <ele>64</ele>
        <time>2020-06-24T09:12:10.089Z</time>
      </trkpt>
      <trkpt lat="48.68279" lon="-2.32">
        <ele>64</ele>
        <time>2020-06-24T09:12:11.089Z</time>
      </trkpt>
      <trkpt lat="48.6828" lon="-2.31999">
        <ele>64</ele>
        <time>2020-06-24T09:12:12.089Z</time>
      </trkpt>
      <trkpt lat="48.68281" lon="-2.31997">
        <ele>65</ele>
        <time>2020-06-24T09:12:13.089Z</time>
      </trkpt>
      <trkpt lat="48.68282" lon="-2.31996">
        <ele>65</ele>
        <time>2020-06-24T09:12:14.089Z</time>
      </trkpt>
      <trkpt lat="48.68283" lon="-2.31995">
        <ele>64</ele>
        <time>2020-06-24T09:12:15.089Z</time>
      </trkpt>
      <trkpt lat="48.68284" lon="-2.31995">
        <ele>64</ele>
        <time>2020-06-24T09:12:16.089Z</time>
      </trkpt>
      <trkpt lat="48.68285" lon="-2.31994">
        <ele>64</ele>
        <time>2020-06-24T09:12:17.089Z</time>
      </trkpt>
      <trkpt lat="48.68286" lon="-2.31994">
        <ele>64</ele>
        <time>2020-06-24T09:12:18.089Z</time>
      </trkpt>
      <trkpt lat="48.68287" lon="-2.31994">
        <ele>64</ele>
        <time>2020-06-24T09:12:19.089Z</time>
      </trkpt>
      <trkpt lat="48.68288" lon="-2.31993">
        <ele>65</ele>
        <time>2020-06-24T09:12:20.089Z</time>
      </trkpt>
      <trkpt lat="48.68289" lon="-2.31991">
        <ele>64</ele>
        <time>2020-06-24T09:12:21.089Z</time>
      </trkpt>
      <trkpt lat="48.6829" lon="-2.3199">
        <ele>64</ele>
        <time>2020-06-24T09:12:22.089Z</time>
      </trkpt>
      <trkpt lat="48.68291" lon="-2.31989">
        <ele>65</ele>
        <time>2020-06-24T09:12:23.089Z</time>
      </trkpt>
      <trkpt lat="48.68292" lon="-2.31987">
        <ele>65</ele>
        <time>2020-06-24T09:12:24.089Z</time>
      </trkpt>
      <trkpt lat="48.68293" lon="-2.31986">
        <ele>65</ele>
        <time>2020-06-24T09:12:25.089Z</time>
      </trkpt>
      <trkpt lat="48.68294" lon="-2.31985">
        <ele>65</ele>
        <time>2020-06-24T09:12:26.089Z</time>
      </trkpt>
      <trkpt lat="48.68295" lon="-2.31984">
        <ele>65</ele>
        <time>2020-06-24T09:12:27.089Z</time>
      </trkpt>
      <trkpt lat="48.68296" lon="-2.31983">
        <ele>65</ele>
        <time>2020-06-24T09:12:28.089Z</time>
      </trkpt>
      <trkpt lat="48.68297" lon="-2.31982">
        <ele>65</ele>
        <time>2020-06-24T09:12:29.089Z</time>
      </trkpt>
      <trkpt lat="48.68298" lon="-2.31981">
        <ele>65</ele>
        <time>2020-06-24T09:12:30.089Z</time>
      </trkpt>
      <trkpt lat="48.68299" lon="-2.3198">
        <ele>65</ele>
        <time>2020-06-24T09:12:31.089Z</time>
      </trkpt>
      <trkpt lat="48.683" lon="-2.31979">
        <ele>65</ele>
        <time>2020-06-24T09:12:32.089Z</time>
      </trkpt>
      <trkpt lat="48.68301" lon="-2.31978">
        <ele>65</ele>
        <time>2020-06-24T09:12:33.089Z</time>
      </trkpt>
      <trkpt lat="48.68302" lon="-2.31976">
        <ele>65</ele>
        <time>2020-06-24T09:12:34.089Z</time>
      </trkpt>
      <trkpt lat="48.68303" lon="-2.31975">
        <ele>65</ele>
        <time>2020-06-24T09:12:35.089Z</time>
      </trkpt>
      <trkpt lat="48.68304" lon="-2.31974">
        <ele>65</ele>
        <time>2020-06-24T09:12:36.089Z</time>
      </trkpt>
      <trkpt lat="48.68305" lon="-2.31973">
        <ele>65</ele>
        <time>2020-06-24T09:12:37.089Z</time>
      </trkpt>
      <trkpt lat="48.68305" lon="-2.31971">
        <ele>66</ele>
        <time>2020-06-24T09:12:38.089Z</time>
      </trkpt>
      <trkpt lat="48.68306" lon="-2.3197">
        <ele>66</ele>
        <time>2020-06-24T09:12:39.089Z</time>
      </trkpt>
      <trkpt lat="48.68307" lon="-2.3197">
        <ele>66</ele>
        <time>2020-06-24T09:12:40.089Z</time>
      </trkpt>
      <trkpt lat="48.68308" lon="-2.31969">
        <ele>66</ele>
        <time>2020-06-24T09:12:41.089Z</time>
      </trkpt>
      <trkpt lat="48.68309" lon="-2.31969">
        <ele>66</ele>
        <time>2020-06-24T09:12:42.089Z</time>
      </trkpt>
      <trkpt lat="48.68311" lon="-2.31969">
        <ele>66</ele>
        <time>2020-06-24T09:12:43.089Z</time>
      </trkpt>
      <trkpt lat="48.68312" lon="-2.31969">
        <ele>66</ele>
        <time>2020-06-24T09:12:44.089Z</time>
      </trkpt>
      <trkpt lat="48.68313" lon="-2.31969">
        <ele>66</ele>
        <time>2020-06-24T09:12:45.089Z</time>
      </trkpt>
      <trkpt lat="48.68315" lon="-2.31969">
        <ele>66</ele>
        <time>2020-06-24T09:12:46.089Z</time>
      </trkpt>
      <trkpt lat="48.68316" lon="-2.31969">
        <ele>66</ele>
        <time>2020-06-24T09:12:47.089Z</time>
      </trkpt>
      <trkpt lat="48.68317" lon="-2.3197">
        <ele>66</ele>
        <time>2020-06-24T09:12:48.089Z</time>
      </trkpt>
      <trkpt lat="48.68318" lon="-2.3197">
        <ele>66</ele>
        <time>2020-06-24T09:12:49.089Z</time>
      </trkpt>
      <trkpt lat="48.6832" lon="-2.3197">
        <ele>66</ele>
        <time>2020-06-24T09:12:50.089Z</time>
      </trkpt>
      <trkpt lat="48.68321" lon="-2.3197">
        <ele>66</ele>
        <time>2020-06-24T09:12:51.089Z</time>
      </trkpt>
      <trkpt lat="48.68322" lon="-2.3197">
        <ele>65</ele>
        <time>2020-06-24T09:12:52.089Z</time>
      </trkpt>
      <trkpt lat="48.68323" lon="-2.3197">
        <ele>65</ele>
        <time>2020-06-24T09:12:53.089Z</time>
      </trkpt>
      <trkpt lat="48.68325" lon="-2.31971">
        <ele>65</ele>
        <time>2020-06-24T09:12:54.089Z</time>
      </trkpt>
      <trkpt lat="48.68326" lon="-2.31971">
        <ele>66</ele>
        <time>2020-06-24T09:12:55.089Z</time>
      </trkpt>
      <trkpt lat="48.68327" lon="-2.31972">
        <ele>66</ele>
        <time>2020-06-24T09:12:56.089Z</time>
      </trkpt>
      <trkpt lat="48.68329" lon="-2.31973">
        <ele>66</ele>
        <time>2020-06-24T09:12:57.089Z</time>
      </trkpt>
      <trkpt lat="48.6833" lon="-2.31974">
        <ele>66</ele>
        <time>2020-06-24T09:12:58.089Z</time>
      </trkpt>
      <trkpt lat="48.68332" lon="-2.31974">
        <ele>67</ele>
        <time>2020-06-24T09:12:59.089Z</time>
      </trkpt>
      <trkpt lat="48.68333" lon="-2.31975">
        <ele>67</ele>
        <time>2020-06-24T09:13:00.089Z</time>
      </trkpt>
      <trkpt lat="48.68335" lon="-2.31975">
        <ele>67</ele>
        <time>2020-06-24T09:13:01.089Z</time>
      </trkpt>
      <trkpt lat="48.68336" lon="-2.31975">
        <ele>67</ele>
        <time>2020-06-24T09:13:02.089Z</time>
      </trkpt>
      <trkpt lat="48.68337" lon="-2.31974">
        <ele>67</ele>
        <time>2020-06-24T09:13:03.089Z</time>
      </trkpt>
      <trkpt lat="48.68339" lon="-2.31974">
        <ele>67</ele>
        <time>2020-06-24T09:13:04.089Z</time>
      </trkpt>
      <trkpt lat="48.6834" lon="-2.31973">
        <ele>67</ele>
        <time>2020-06-24T09:13:05.089Z</time>
      </trkpt>
      <trkpt lat="48.68341" lon="-2.31973">
        <ele>67</ele>
        <time>2020-06-24T09:13:06.089Z</time>
      </trkpt>
      <trkpt lat="48.68342" lon="-2.31973">
        <ele>68</ele>
        <time>2020-06-24T09:13:07.089Z</time>
      </trkpt>
      <trkpt lat="48.68343" lon="-2.31972">
        <ele>68</ele>
        <time>2020-06-24T09:13:08.089Z</time>
      </trkpt>
      <trkpt lat="48.68345" lon="-2.31972">
        <ele>68</ele>
        <time>2020-06-24T09:13:09.089Z</time>
      </trkpt>
      <trkpt lat="48.68346" lon="-2.31972">
        <ele>68</ele>
        <time>2020-06-24T09:13:10.089Z</time>
      </trkpt>
      <trkpt lat="48.68347" lon="-2.31973">
        <ele>68</ele>
        <time>2020-06-24T09:13:11.089Z</time>
      </trkpt>
      <trkpt lat="48.68349" lon="-2.31973">
        <ele>68</ele>
        <time>2020-06-24T09:13:12.089Z</time>
      </trkpt>
      <trkpt lat="48.6835" lon="-2.31974">
        <ele>68</ele>
        <time>2020-06-24T09:13:13.089Z</time>
      </trkpt>
      <trkpt lat="48.68351" lon="-2.31974">
        <ele>68</ele>
        <time>2020-06-24T09:13:14.089Z</time>
      </trkpt>
      <trkpt lat="48.68353" lon="-2.31973">
        <ele>68</ele>
        <time>2020-06-24T09:13:15.089Z</time>
      </trkpt>
      <trkpt lat="48.68354" lon="-2.31973">
        <ele>68</ele>
        <time>2020-06-24T09:13:16.089Z</time>
      </trkpt>
      <trkpt lat="48.68355" lon="-2.31972">
        <ele>68</ele>
        <time>2020-06-24T09:13:17.089Z</time>
      </trkpt>
      <trkpt lat="48.68356" lon="-2.31972">
        <ele>68</ele>
        <time>2020-06-24T09:13:18.089Z</time>
      </trkpt>
      <trkpt lat="48.68357" lon="-2.31973">
        <ele>68</ele>
        <time>2020-06-24T09:13:19.089Z</time>
      </trkpt>
      <trkpt lat="48.68358" lon="-2.31973">
        <ele>67</ele>
        <time>2020-06-24T09:13:20.089Z</time>
      </trkpt>
      <trkpt lat="48.6836" lon="-2.31973">
        <ele>68</ele>
        <time>2020-06-24T09:13:21.089Z</time>
      </trkpt>
      <trkpt lat="48.68361" lon="-2.31973">
        <ele>68</ele>
        <time>2020-06-24T09:13:22.089Z</time>
      </trkpt>
      <trkpt lat="48.68362" lon="-2.31974">
        <ele>68</ele>
        <time>2020-06-24T09:13:23.089Z</time>
      </trkpt>
      <trkpt lat="48.68363" lon="-2.31974">
        <ele>68</ele>
        <time>2020-06-24T09:13:24.089Z</time>
      </trkpt>
      <trkpt lat="48.68365" lon="-2.31974">
        <ele>68</ele>
        <time>2020-06-24T09:13:25.089Z</time>
      </trkpt>
      <trkpt lat="48.68366" lon="-2.31973">
        <ele>68</ele>
        <time>2020-06-24T09:13:26.089Z</time>
      </trkpt>
      <trkpt lat="48.68368" lon="-2.31972">
        <ele>68</ele>
        <time>2020-06-24T09:13:27.089Z</time>
      </trkpt>
      <trkpt lat="48.68369" lon="-2.31971">
        <ele>68</ele>
        <time>2020-06-24T09:13:28.089Z</time>
      </trkpt>
      <trkpt lat="48.6837" lon="-2.3197">
        <ele>68</ele>
        <time>2020-06-24T09:13:29.089Z</time>
      </trkpt>
      <trkpt lat="48.68371" lon="-2.3197">
        <ele>69</ele>
        <time>2020-06-24T09:13:30.089Z</time>
      </trkpt>
      <trkpt lat="48.68371" lon="-2.31969">
        <ele>69</ele>
        <time>2020-06-24T09:13:31.089Z</time>
      </trkpt>
      <trkpt lat="48.68371" lon="-2.31969">
        <ele>68</ele>
        <time>2020-06-24T09:13:32.089Z</time>
      </trkpt>
      <trkpt lat="48.68371" lon="-2.31969">
        <ele>69</ele>
        <time>2020-06-24T09:13:33.089Z</time>
      </trkpt>
      <trkpt lat="48.68371" lon="-2.31969">
        <ele>69</ele>
        <time>2020-06-24T09:13:34.089Z</time>
      </trkpt>
      <trkpt lat="48.68371" lon="-2.31969">
        <ele>68</ele>
        <time>2020-06-24T09:13:35.089Z</time>
      </trkpt>
      <trkpt lat="48.68371" lon="-2.31969">
        <ele>68</ele>
        <time>2020-06-24T09:13:36.089Z</time>
      </trkpt>
      <trkpt lat="48.68371" lon="-2.31969">
        <ele>69</ele>
        <time>2020-06-24T09:13:37.089Z</time>
      </trkpt>
      <trkpt lat="48.68375" lon="-2.31968">
        <ele>68</ele>
        <time>2020-06-24T09:13:38.097Z</time>
      </trkpt>
      <trkpt lat="48.68376" lon="-2.31968">
        <ele>68</ele>
        <time>2020-06-24T09:13:39.097Z</time>
      </trkpt>
      <trkpt lat="48.68378" lon="-2.31968">
        <ele>68</ele>
        <time>2020-06-24T09:13:40.097Z</time>
      </trkpt>
      <trkpt lat="48.68379" lon="-2.31967">
        <ele>68</ele>
        <time>2020-06-24T09:13:41.097Z</time>
      </trkpt>
      <trkpt lat="48.6838" lon="-2.31967">
        <ele>68</ele>
        <time>2020-06-24T09:13:42.097Z</time>
      </trkpt>
      <trkpt lat="48.68381" lon="-2.31967">
        <ele>68</ele>
        <time>2020-06-24T09:13:43.097Z</time>
      </trkpt>
      <trkpt lat="48.68383" lon="-2.31966">
        <ele>68</ele>
        <time>2020-06-24T09:13:44.097Z</time>
      </trkpt>
      <trkpt lat="48.68384" lon="-2.31966">
        <ele>68</ele>
        <time>2020-06-24T09:13:45.097Z</time>
      </trkpt>
      <trkpt lat="48.68385" lon="-2.31965">
        <ele>68</ele>
        <time>2020-06-24T09:13:46.097Z</time>
      </trkpt>
      <trkpt lat="48.68386" lon="-2.31965">
        <ele>68</ele>
        <time>2020-06-24T09:13:47.097Z</time>
      </trkpt>
      <trkpt lat="48.68387" lon="-2.31964">
        <ele>67</ele>
        <time>2020-06-24T09:13:48.097Z</time>
      </trkpt>
      <trkpt lat="48.68389" lon="-2.31963">
        <ele>68</ele>
        <time>2020-06-24T09:13:49.097Z</time>
      </trkpt>
      <trkpt lat="48.6839" lon="-2.31962">
        <ele>68</ele>
        <time>2020-06-24T09:13:50.097Z</time>
      </trkpt>
      <trkpt lat="48.68391" lon="-2.31961">
        <ele>68</ele>
        <time>2020-06-24T09:13:51.097Z</time>
      </trkpt>
      <trkpt lat="48.68392" lon="-2.3196">
        <ele>68</ele>
        <time>2020-06-24T09:13:52.097Z</time>
      </trkpt>
      <trkpt lat="48.68393" lon="-2.3196">
        <ele>68</ele>
        <time>2020-06-24T09:13:53.097Z</time>
      </trkpt>
      <trkpt lat="48.68394" lon="-2.31959">
        <ele>69</ele>
        <time>2020-06-24T09:13:54.097Z</time>
      </trkpt>
      <trkpt lat="48.68396" lon="-2.31959">
        <ele>69</ele>
        <time>2020-06-24T09:13:55.097Z</time>
      </trkpt>
      <trkpt lat="48.68397" lon="-2.31958">
        <ele>70</ele>
        <time>2020-06-24T09:13:56.097Z</time>
      </trkpt>
      <trkpt lat="48.68398" lon="-2.31957">
        <ele>70</ele>
        <time>2020-06-24T09:13:57.097Z</time>
      </trkpt>
      <trkpt lat="48.68399" lon="-2.31956">
        <ele>70</ele>
        <time>2020-06-24T09:13:58.097Z</time>
      </trkpt>
      <trkpt lat="48.684" lon="-2.31955">
        <ele>70</ele>
        <time>2020-06-24T09:13:59.097Z</time>
      </trkpt>
      <trkpt lat="48.68401" lon="-2.31953">
        <ele>70</ele>
        <time>2020-06-24T09:14:00.097Z</time>
      </trkpt>
      <trkpt lat="48.68402" lon="-2.31952">
        <ele>70</ele>
        <time>2020-06-24T09:14:01.097Z</time>
      </trkpt>
      <trkpt lat="48.68403" lon="-2.31951">
        <ele>70</ele>
        <time>2020-06-24T09:14:02.097Z</time>
      </trkpt>
      <trkpt lat="48.68404" lon="-2.3195">
        <ele>70</ele>
        <time>2020-06-24T09:14:03.097Z</time>
      </trkpt>
      <trkpt lat="48.68405" lon="-2.31949">
        <ele>70</ele>
        <time>2020-06-24T09:14:04.097Z</time>
      </trkpt>
      <trkpt lat="48.68406" lon="-2.31948">
        <ele>70</ele>
        <time>2020-06-24T09:14:05.097Z</time>
      </trkpt>
      <trkpt lat="48.68407" lon="-2.31948">
        <ele>71</ele>
        <time>2020-06-24T09:14:06.097Z</time>
      </trkpt>
      <trkpt lat="48.68408" lon="-2.31947">
        <ele>70</ele>
        <time>2020-06-24T09:14:07.097Z</time>
      </trkpt>
      <trkpt lat="48.6841" lon="-2.31946">
        <ele>70</ele>
        <time>2020-06-24T09:14:08.097Z</time>
      </trkpt>
      <trkpt lat="48.68411" lon="-2.31945">
        <ele>70</ele>
        <time>2020-06-24T09:14:09.097Z</time>
      </trkpt>
      <trkpt lat="48.68413" lon="-2.31944">
        <ele>70</ele>
        <time>2020-06-24T09:14:10.097Z</time>
      </trkpt>
      <trkpt lat="48.68414" lon="-2.31944">
        <ele>70</ele>
        <time>2020-06-24T09:14:11.097Z</time>
      </trkpt>
      <trkpt lat="48.68415" lon="-2.31943">
        <ele>70</ele>
        <time>2020-06-24T09:14:12.097Z</time>
      </trkpt>
      <trkpt lat="48.68416" lon="-2.31942">
        <ele>71</ele>
        <time>2020-06-24T09:14:13.097Z</time>
      </trkpt>
      <trkpt lat="48.68418" lon="-2.31941">
        <ele>71</ele>
        <time>2020-06-24T09:14:14.097Z</time>
      </trkpt>
      <trkpt lat="48.68419" lon="-2.3194">
        <ele>71</ele>
        <time>2020-06-24T09:14:15.097Z</time>
      </trkpt>
      <trkpt lat="48.6842" lon="-2.31939">
        <ele>72</ele>
        <time>2020-06-24T09:14:16.097Z</time>
      </trkpt>
      <trkpt lat="48.68422" lon="-2.31938">
        <ele>72</ele>
        <time>2020-06-24T09:14:17.097Z</time>
      </trkpt>
      <trkpt lat="48.68423" lon="-2.31937">
        <ele>72</ele>
        <time>2020-06-24T09:14:18.097Z</time>
      </trkpt>
      <trkpt lat="48.68424" lon="-2.31935">
        <ele>72</ele>
        <time>2020-06-24T09:14:19.097Z</time>
      </trkpt>
      <trkpt lat="48.68426" lon="-2.31934">
        <ele>72</ele>
        <time>2020-06-24T09:14:20.097Z</time>
      </trkpt>
      <trkpt lat="48.68427" lon="-2.31932">
        <ele>72</ele>
        <time>2020-06-24T09:14:21.097Z</time>
      </trkpt>
      <trkpt lat="48.68428" lon="-2.31931">
        <ele>72</ele>
        <time>2020-06-24T09:14:22.097Z</time>
      </trkpt>
      <trkpt lat="48.68429" lon="-2.3193">
        <ele>71</ele>
        <time>2020-06-24T09:14:23.097Z</time>
      </trkpt>
      <trkpt lat="48.6843" lon="-2.31928">
        <ele>71</ele>
        <time>2020-06-24T09:14:24.097Z</time>
      </trkpt>
      <trkpt lat="48.68431" lon="-2.31927">
        <ele>72</ele>
        <time>2020-06-24T09:14:25.097Z</time>
      </trkpt>
      <trkpt lat="48.68432" lon="-2.31925">
        <ele>72</ele>
        <time>2020-06-24T09:14:26.097Z</time>
      </trkpt>
      <trkpt lat="48.68433" lon="-2.31923">
        <ele>71</ele>
        <time>2020-06-24T09:14:27.097Z</time>
      </trkpt>
      <trkpt lat="48.68434" lon="-2.31921">
        <ele>72</ele>
        <time>2020-06-24T09:14:28.097Z</time>
      </trkpt>
      <trkpt lat="48.68434" lon="-2.31919">
        <ele>72</ele>
        <time>2020-06-24T09:14:29.097Z</time>
      </trkpt>
      <trkpt lat="48.68435" lon="-2.31917">
        <ele>72</ele>
        <time>2020-06-24T09:14:30.097Z</time>
      </trkpt>
      <trkpt lat="48.68436" lon="-2.31915">
        <ele>72</ele>
        <time>2020-06-24T09:14:31.097Z</time>
      </trkpt>
      <trkpt lat="48.68436" lon="-2.31913">
        <ele>72</ele>
        <time>2020-06-24T09:14:32.097Z</time>
      </trkpt>
      <trkpt lat="48.68437" lon="-2.31911">
        <ele>72</ele>
        <time>2020-06-24T09:14:33.097Z</time>
      </trkpt>
      <trkpt lat="48.68438" lon="-2.31909">
        <ele>72</ele>
        <time>2020-06-24T09:14:34.097Z</time>
      </trkpt>
      <trkpt lat="48.68438" lon="-2.31907">
        <ele>72</ele>
        <time>2020-06-24T09:14:35.097Z</time>
      </trkpt>
      <trkpt lat="48.68439" lon="-2.31905">
        <ele>71</ele>
        <time>2020-06-24T09:14:36.097Z</time>
      </trkpt>
      <trkpt lat="48.6844" lon="-2.31903">
        <ele>71</ele>
        <time>2020-06-24T09:14:37.097Z</time>
      </trkpt>
      <trkpt lat="48.68441" lon="-2.31901">
        <ele>71</ele>
        <time>2020-06-24T09:14:38.097Z</time>
      </trkpt>
      <trkpt lat="48.68442" lon="-2.31899">
        <ele>71</ele>
        <time>2020-06-24T09:14:39.097Z</time>
      </trkpt>
      <trkpt lat="48.68443" lon="-2.31898">
        <ele>71</ele>
        <time>2020-06-24T09:14:40.097Z</time>
      </trkpt>
      <trkpt lat="48.68444" lon="-2.31896">
        <ele>71</ele>
        <time>2020-06-24T09:14:41.097Z</time>
      </trkpt>
      <trkpt lat="48.68445" lon="-2.31894">
        <ele>71</ele>
        <time>2020-06-24T09:14:42.097Z</time>
      </trkpt>
      <trkpt lat="48.68446" lon="-2.31893">
        <ele>71</ele>
        <time>2020-06-24T09:14:43.097Z</time>
      </trkpt>
      <trkpt lat="48.68447" lon="-2.31891">
        <ele>70</ele>
        <time>2020-06-24T09:14:44.097Z</time>
      </trkpt>
      <trkpt lat="48.68448" lon="-2.31889">
        <ele>70</ele>
        <time>2020-06-24T09:14:45.097Z</time>
      </trkpt>
      <trkpt lat="48.68449" lon="-2.31888">
        <ele>70</ele>
        <time>2020-06-24T09:14:46.097Z</time>
      </trkpt>
      <trkpt lat="48.6845" lon="-2.31887">
        <ele>69</ele>
        <time>2020-06-24T09:14:47.097Z</time>
      </trkpt>
      <trkpt lat="48.68451" lon="-2.31885">
        <ele>68</ele>
        <time>2020-06-24T09:14:48.097Z</time>
      </trkpt>
      <trkpt lat="48.68453" lon="-2.31884">
        <ele>68</ele>
        <time>2020-06-24T09:14:49.097Z</time>
      </trkpt>
      <trkpt lat="48.68454" lon="-2.31883">
        <ele>68</ele>
        <time>2020-06-24T09:14:50.097Z</time>
      </trkpt>
      <trkpt lat="48.68455" lon="-2.31883">
        <ele>69</ele>
        <time>2020-06-24T09:14:51.097Z</time>
      </trkpt>
      <trkpt lat="48.68457" lon="-2.31882">
        <ele>69</ele>
        <time>2020-06-24T09:14:52.097Z</time>
      </trkpt>
      <trkpt lat="48.68458" lon="-2.31881">
        <ele>68</ele>
        <time>2020-06-24T09:14:53.097Z</time>
      </trkpt>
      <trkpt lat="48.68459" lon="-2.3188">
        <ele>68</ele>
        <time>2020-06-24T09:14:54.097Z</time>
      </trkpt>
      <trkpt lat="48.6846" lon="-2.31879">
        <ele>68</ele>
        <time>2020-06-24T09:14:55.097Z</time>
      </trkpt>
      <trkpt lat="48.68461" lon="-2.31878">
        <ele>68</ele>
        <time>2020-06-24T09:14:56.097Z</time>
      </trkpt>
      <trkpt lat="48.68463" lon="-2.31877">
        <ele>68</ele>
        <time>2020-06-24T09:14:57.097Z</time>
      </trkpt>
      <trkpt lat="48.68464" lon="-2.31876">
        <ele>68</ele>
        <time>2020-06-24T09:14:58.097Z</time>
      </trkpt>
      <trkpt lat="48.68465" lon="-2.31875">
        <ele>69</ele>
        <time>2020-06-24T09:14:59.097Z</time>
      </trkpt>
      <trkpt lat="48.68467" lon="-2.31874">
        <ele>68</ele>
        <time>2020-06-24T09:15:00.097Z</time>
      </trkpt>
      <trkpt lat="48.68468" lon="-2.31873">
        <ele>68</ele>
        <time>2020-06-24T09:15:01.097Z</time>
      </trkpt>
      <trkpt lat="48.68469" lon="-2.31872">
        <ele>68</ele>
        <time>2020-06-24T09:15:02.097Z</time>
      </trkpt>
      <trkpt lat="48.6847" lon="-2.31871">
        <ele>68</ele>
        <time>2020-06-24T09:15:03.097Z</time>
      </trkpt>
      <trkpt lat="48.68471" lon="-2.31871">
        <ele>68</ele>
        <time>2020-06-24T09:15:04.097Z</time>
      </trkpt>
      <trkpt lat="48.68472" lon="-2.3187">
        <ele>68</ele>
        <time>2020-06-24T09:15:05.097Z</time>
      </trkpt>
      <trkpt lat="48.68473" lon="-2.31869">
        <ele>68</ele>
        <time>2020-06-24T09:15:06.097Z</time>
      </trkpt>
      <trkpt lat="48.68475" lon="-2.31868">
        <ele>68</ele>
        <time>2020-06-24T09:15:07.097Z</time>
      </trkpt>
      <trkpt lat="48.68476" lon="-2.31867">
        <ele>68</ele>
        <time>2020-06-24T09:15:08.097Z</time>
      </trkpt>
      <trkpt lat="48.68477" lon="-2.31866">
        <ele>67</ele>
        <time>2020-06-24T09:15:09.097Z</time>
      </trkpt>
      <trkpt lat="48.68478" lon="-2.31865">
        <ele>67</ele>
        <time>2020-06-24T09:15:10.097Z</time>
      </trkpt>
      <trkpt lat="48.6848" lon="-2.31863">
        <ele>67</ele>
        <time>2020-06-24T09:15:11.097Z</time>
      </trkpt>
      <trkpt lat="48.68481" lon="-2.31862">
        <ele>67</ele>
        <time>2020-06-24T09:15:12.097Z</time>
      </trkpt>
      <trkpt lat="48.68482" lon="-2.31861">
        <ele>67</ele>
        <time>2020-06-24T09:15:13.097Z</time>
      </trkpt>
      <trkpt lat="48.68483" lon="-2.3186">
        <ele>67</ele>
        <time>2020-06-24T09:15:14.097Z</time>
      </trkpt>
      <trkpt lat="48.68485" lon="-2.31859">
        <ele>67</ele>
        <time>2020-06-24T09:15:15.097Z</time>
      </trkpt>
      <trkpt lat="48.68486" lon="-2.31858">
        <ele>67</ele>
        <time>2020-06-24T09:15:16.097Z</time>
      </trkpt>
      <trkpt lat="48.68487" lon="-2.31857">
        <ele>67</ele>
        <time>2020-06-24T09:15:17.097Z</time>
      </trkpt>
      <trkpt lat="48.68488" lon="-2.31856">
        <ele>67</ele>
        <time>2020-06-24T09:15:18.097Z</time>
      </trkpt>
      <trkpt lat="48.68489" lon="-2.31854">
        <ele>67</ele>
        <time>2020-06-24T09:15:19.097Z</time>
      </trkpt>
      <trkpt lat="48.6849" lon="-2.31853">
        <ele>66</ele>
        <time>2020-06-24T09:15:20.097Z</time>
      </trkpt>
      <trkpt lat="48.68491" lon="-2.31852">
        <ele>66</ele>
        <time>2020-06-24T09:15:21.097Z</time>
      </trkpt>
      <trkpt lat="48.68492" lon="-2.3185">
        <ele>66</ele>
        <time>2020-06-24T09:15:22.097Z</time>
      </trkpt>
      <trkpt lat="48.68493" lon="-2.31849">
        <ele>66</ele>
        <time>2020-06-24T09:15:23.097Z</time>
      </trkpt>
      <trkpt lat="48.68494" lon="-2.31848">
        <ele>66</ele>
        <time>2020-06-24T09:15:24.097Z</time>
      </trkpt>
      <trkpt lat="48.68495" lon="-2.31846">
        <ele>66</ele>
        <time>2020-06-24T09:15:25.097Z</time>
      </trkpt>
      <trkpt lat="48.68496" lon="-2.31845">
        <ele>66</ele>
        <time>2020-06-24T09:15:26.097Z</time>
      </trkpt>
      <trkpt lat="48.68498" lon="-2.31843">
        <ele>66</ele>
        <time>2020-06-24T09:15:27.097Z</time>
      </trkpt>
      <trkpt lat="48.68499" lon="-2.31842">
        <ele>66</ele>
        <time>2020-06-24T09:15:28.097Z</time>
      </trkpt>
      <trkpt lat="48.685" lon="-2.3184">
        <ele>66</ele>
        <time>2020-06-24T09:15:29.097Z</time>
      </trkpt>
      <trkpt lat="48.68502" lon="-2.31839">
        <ele>66</ele>
        <time>2020-06-24T09:15:30.097Z</time>
      </trkpt>
      <trkpt lat="48.68503" lon="-2.31837">
        <ele>66</ele>
        <time>2020-06-24T09:15:31.097Z</time>
      </trkpt>
      <trkpt lat="48.68504" lon="-2.31835">
        <ele>65</ele>
        <time>2020-06-24T09:15:32.097Z</time>
      </trkpt>
      <trkpt lat="48.68505" lon="-2.31833">
        <ele>65</ele>
        <time>2020-06-24T09:15:33.097Z</time>
      </trkpt>
      <trkpt lat="48.68506" lon="-2.31832">
        <ele>65</ele>
        <time>2020-06-24T09:15:34.097Z</time>
      </trkpt>
      <trkpt lat="48.68507" lon="-2.3183">
        <ele>65</ele>
        <time>2020-06-24T09:15:35.097Z</time>
      </trkpt>
      <trkpt lat="48.68508" lon="-2.31829">
        <ele>65</ele>
        <time>2020-06-24T09:15:36.097Z</time>
      </trkpt>
      <trkpt lat="48.6851" lon="-2.31827">
        <ele>65</ele>
        <time>2020-06-24T09:15:37.097Z</time>
      </trkpt>
      <trkpt lat="48.68511" lon="-2.31826">
        <ele>65</ele>
        <time>2020-06-24T09:15:38.097Z</time>
      </trkpt>
      <trkpt lat="48.68512" lon="-2.31825">
        <ele>65</ele>
        <time>2020-06-24T09:15:39.097Z</time>
      </trkpt>
      <trkpt lat="48.68513" lon="-2.31824">
        <ele>65</ele>
        <time>2020-06-24T09:15:40.097Z</time>
      </trkpt>
      <trkpt lat="48.68514" lon="-2.31823">
        <ele>65</ele>
        <time>2020-06-24T09:15:41.097Z</time>
      </trkpt>
      <trkpt lat="48.68516" lon="-2.31822">
        <ele>65</ele>
        <time>2020-06-24T09:15:42.097Z</time>
      </trkpt>
      <trkpt lat="48.68517" lon="-2.31822">
        <ele>64</ele>
        <time>2020-06-24T09:15:43.097Z</time>
      </trkpt>
      <trkpt lat="48.68518" lon="-2.31821">
        <ele>64</ele>
        <time>2020-06-24T09:15:44.097Z</time>
      </trkpt>
      <trkpt lat="48.68519" lon="-2.3182">
        <ele>64</ele>
        <time>2020-06-24T09:15:45.097Z</time>
      </trkpt>
      <trkpt lat="48.6852" lon="-2.31819">
        <ele>64</ele>
        <time>2020-06-24T09:15:46.097Z</time>
      </trkpt>
      <trkpt lat="48.68522" lon="-2.31818">
        <ele>64</ele>
        <time>2020-06-24T09:15:47.097Z</time>
      </trkpt>
      <trkpt lat="48.68523" lon="-2.31816">
        <ele>64</ele>
        <time>2020-06-24T09:15:48.097Z</time>
      </trkpt>
      <trkpt lat="48.68524" lon="-2.31815">
        <ele>64</ele>
        <time>2020-06-24T09:15:49.097Z</time>
      </trkpt>
      <trkpt lat="48.68525" lon="-2.31814">
        <ele>64</ele>
        <time>2020-06-24T09:15:50.097Z</time>
      </trkpt>
      <trkpt lat="48.68526" lon="-2.31813">
        <ele>63</ele>
        <time>2020-06-24T09:15:51.097Z</time>
      </trkpt>
      <trkpt lat="48.68527" lon="-2.31812">
        <ele>63</ele>
        <time>2020-06-24T09:15:52.097Z</time>
      </trkpt>
      <trkpt lat="48.68528" lon="-2.31811">
        <ele>63</ele>
        <time>2020-06-24T09:15:53.097Z</time>
      </trkpt>
      <trkpt lat="48.6853" lon="-2.31811">
        <ele>63</ele>
        <time>2020-06-24T09:15:54.097Z</time>
      </trkpt>
      <trkpt lat="48.68531" lon="-2.3181">
        <ele>62</ele>
        <time>2020-06-24T09:15:55.097Z</time>
      </trkpt>
      <trkpt lat="48.68533" lon="-2.31809">
        <ele>62</ele>
        <time>2020-06-24T09:15:56.097Z</time>
      </trkpt>
      <trkpt lat="48.68534" lon="-2.31809">
        <ele>62</ele>
        <time>2020-06-24T09:15:57.097Z</time>
      </trkpt>
      <trkpt lat="48.68535" lon="-2.31808">
        <ele>62</ele>
        <time>2020-06-24T09:15:58.097Z</time>
      </trkpt>
      <trkpt lat="48.68536" lon="-2.31807">
        <ele>62</ele>
        <time>2020-06-24T09:15:59.097Z</time>
      </trkpt>
      <trkpt lat="48.68537" lon="-2.31806">
        <ele>61</ele>
        <time>2020-06-24T09:16:00.097Z</time>
      </trkpt>
      <trkpt lat="48.68539" lon="-2.31805">
        <ele>61</ele>
        <time>2020-06-24T09:16:01.097Z</time>
      </trkpt>
      <trkpt lat="48.6854" lon="-2.31804">
        <ele>61</ele>
        <time>2020-06-24T09:16:02.097Z</time>
      </trkpt>
      <trkpt lat="48.68541" lon="-2.31804">
        <ele>62</ele>
        <time>2020-06-24T09:16:03.097Z</time>
      </trkpt>
      <trkpt lat="48.68543" lon="-2.31803">
        <ele>62</ele>
        <time>2020-06-24T09:16:04.097Z</time>
      </trkpt>
      <trkpt lat="48.68544" lon="-2.31802">
        <ele>61</ele>
        <time>2020-06-24T09:16:05.097Z</time>
      </trkpt>
      <trkpt lat="48.68545" lon="-2.31802">
        <ele>61</ele>
        <time>2020-06-24T09:16:06.097Z</time>
      </trkpt>
      <trkpt lat="48.68547" lon="-2.31801">
        <ele>61</ele>
        <time>2020-06-24T09:16:07.097Z</time>
      </trkpt>
      <trkpt lat="48.68548" lon="-2.318">
        <ele>62</ele>
        <time>2020-06-24T09:16:08.097Z</time>
      </trkpt>
      <trkpt lat="48.68549" lon="-2.318">
        <ele>62</ele>
        <time>2020-06-24T09:16:09.097Z</time>
      </trkpt>
      <trkpt lat="48.6855" lon="-2.31799">
        <ele>62</ele>
        <time>2020-06-24T09:16:10.097Z</time>
      </trkpt>
      <trkpt lat="48.68552" lon="-2.31799">
        <ele>62</ele>
        <time>2020-06-24T09:16:11.097Z</time>
      </trkpt>
      <trkpt lat="48.68553" lon="-2.31798">
        <ele>62</ele>
        <time>2020-06-24T09:16:12.097Z</time>
      </trkpt>
      <trkpt lat="48.68554" lon="-2.31798">
        <ele>62</ele>
        <time>2020-06-24T09:16:13.097Z</time>
      </trkpt>
      <trkpt lat="48.68555" lon="-2.31797">
        <ele>62</ele>
        <time>2020-06-24T09:16:14.097Z</time>
      </trkpt>
      <trkpt lat="48.68556" lon="-2.31796">
        <ele>61</ele>
        <time>2020-06-24T09:16:15.097Z</time>
      </trkpt>
      <trkpt lat="48.68557" lon="-2.31796">
        <ele>61</ele>
        <time>2020-06-24T09:16:16.097Z</time>
      </trkpt>
      <trkpt lat="48.68559" lon="-2.31796">
        <ele>61</ele>
        <time>2020-06-24T09:16:17.097Z</time>
      </trkpt>
      <trkpt lat="48.6856" lon="-2.31795">
        <ele>61</ele>
        <time>2020-06-24T09:16:18.097Z</time>
      </trkpt>
      <trkpt lat="48.68561" lon="-2.31795">
        <ele>61</ele>
        <time>2020-06-24T09:16:19.097Z</time>
      </trkpt>
      <trkpt lat="48.68562" lon="-2.31794">
        <ele>61</ele>
        <time>2020-06-24T09:16:20.097Z</time>
      </trkpt>
      <trkpt lat="48.68563" lon="-2.31793">
        <ele>61</ele>
        <time>2020-06-24T09:16:21.097Z</time>
      </trkpt>
      <trkpt lat="48.68564" lon="-2.31793">
        <ele>62</ele>
        <time>2020-06-24T09:16:22.097Z</time>
      </trkpt>
      <trkpt lat="48.68566" lon="-2.31792">
        <ele>62</ele>
        <time>2020-06-24T09:16:23.097Z</time>
      </trkpt>
      <trkpt lat="48.68567" lon="-2.31791">
        <ele>62</ele>
        <time>2020-06-24T09:16:24.097Z</time>
      </trkpt>
      <trkpt lat="48.68568" lon="-2.3179">
        <ele>62</ele>
        <time>2020-06-24T09:16:25.097Z</time>
      </trkpt>
      <trkpt lat="48.68569" lon="-2.31789">
        <ele>62</ele>
        <time>2020-06-24T09:16:26.097Z</time>
      </trkpt>
      <trkpt lat="48.6857" lon="-2.31788">
        <ele>62</ele>
        <time>2020-06-24T09:16:27.097Z</time>
      </trkpt>
      <trkpt lat="48.68571" lon="-2.31786">
        <ele>62</ele>
        <time>2020-06-24T09:16:28.097Z</time>
      </trkpt>
      <trkpt lat="48.68572" lon="-2.31784">
        <ele>62</ele>
        <time>2020-06-24T09:16:29.097Z</time>
      </trkpt>
      <trkpt lat="48.68573" lon="-2.31783">
        <ele>63</ele>
        <time>2020-06-24T09:16:30.097Z</time>
      </trkpt>
      <trkpt lat="48.68573" lon="-2.31782">
        <ele>63</ele>
        <time>2020-06-24T09:16:31.097Z</time>
      </trkpt>
      <trkpt lat="48.68574" lon="-2.3178">
        <ele>63</ele>
        <time>2020-06-24T09:16:32.097Z</time>
      </trkpt>
      <trkpt lat="48.68575" lon="-2.31778">
        <ele>63</ele>
        <time>2020-06-24T09:16:33.097Z</time>
      </trkpt>
      <trkpt lat="48.68576" lon="-2.31777">
        <ele>63</ele>
        <time>2020-06-24T09:16:34.097Z</time>
      </trkpt>
      <trkpt lat="48.68576" lon="-2.31775">
        <ele>63</ele>
        <time>2020-06-24T09:16:35.097Z</time>
      </trkpt>
      <trkpt lat="48.68577" lon="-2.31774">
        <ele>63</ele>
        <time>2020-06-24T09:16:36.097Z</time>
      </trkpt>
      <trkpt lat="48.68578" lon="-2.31772">
        <ele>63</ele>
        <time>2020-06-24T09:16:37.097Z</time>
      </trkpt>
      <trkpt lat="48.68579" lon="-2.31771">
        <ele>63</ele>
        <time>2020-06-24T09:16:38.097Z</time>
      </trkpt>
      <trkpt lat="48.6858" lon="-2.3177">
        <ele>63</ele>
        <time>2020-06-24T09:16:39.097Z</time>
      </trkpt>
      <trkpt lat="48.68581" lon="-2.31768">
        <ele>63</ele>
        <time>2020-06-24T09:16:40.097Z</time>
      </trkpt>
      <trkpt lat="48.68582" lon="-2.31767">
        <ele>62</ele>
        <time>2020-06-24T09:16:41.097Z</time>
      </trkpt>
      <trkpt lat="48.68583" lon="-2.31767">
        <ele>62</ele>
        <time>2020-06-24T09:16:42.097Z</time>
      </trkpt>
      <trkpt lat="48.68584" lon="-2.31766">
        <ele>62</ele>
        <time>2020-06-24T09:16:43.097Z</time>
      </trkpt>
      <trkpt lat="48.68586" lon="-2.31765">
        <ele>62</ele>
        <time>2020-06-24T09:16:44.097Z</time>
      </trkpt>
      <trkpt lat="48.68587" lon="-2.31764">
        <ele>62</ele>
        <time>2020-06-24T09:16:45.097Z</time>
      </trkpt>
      <trkpt lat="48.68588" lon="-2.31763">
        <ele>62</ele>
        <time>2020-06-24T09:16:46.097Z</time>
      </trkpt>
      <trkpt lat="48.6859" lon="-2.31762">
        <ele>62</ele>
        <time>2020-06-24T09:16:47.097Z</time>
      </trkpt>
      <trkpt lat="48.68591" lon="-2.31762">
        <ele>62</ele>
        <time>2020-06-24T09:16:48.097Z</time>
      </trkpt>
      <trkpt lat="48.68592" lon="-2.31761">
        <ele>62</ele>
        <time>2020-06-24T09:16:49.097Z</time>
      </trkpt>
      <trkpt lat="48.68594" lon="-2.31761">
        <ele>62</ele>
        <time>2020-06-24T09:16:50.097Z</time>
      </trkpt>
      <trkpt lat="48.68595" lon="-2.31761">
        <ele>62</ele>
        <time>2020-06-24T09:16:51.097Z</time>
      </trkpt>
      <trkpt lat="48.68597" lon="-2.31761">
        <ele>62</ele>
        <time>2020-06-24T09:16:52.097Z</time>
      </trkpt>
      <trkpt lat="48.68598" lon="-2.31761">
        <ele>62</ele>
        <time>2020-06-24T09:16:53.097Z</time>
      </trkpt>
      <trkpt lat="48.68599" lon="-2.31761">
        <ele>62</ele>
        <time>2020-06-24T09:16:54.097Z</time>
      </trkpt>
      <trkpt lat="48.68601" lon="-2.31761">
        <ele>62</ele>
        <time>2020-06-24T09:16:55.097Z</time>
      </trkpt>
      <trkpt lat="48.68602" lon="-2.31761">
        <ele>62</ele>
        <time>2020-06-24T09:16:56.097Z</time>
      </trkpt>
      <trkpt lat="48.68603" lon="-2.31761">
        <ele>62</ele>
        <time>2020-06-24T09:16:57.097Z</time>
      </trkpt>
      <trkpt lat="48.68604" lon="-2.31762">
        <ele>62</ele>
        <time>2020-06-24T09:16:58.097Z</time>
      </trkpt>
      <trkpt lat="48.68606" lon="-2.31762">
        <ele>62</ele>
        <time>2020-06-24T09:16:59.097Z</time>
      </trkpt>
      <trkpt lat="48.68607" lon="-2.31762">
        <ele>62</ele>
        <time>2020-06-24T09:17:00.097Z</time>
      </trkpt>
      <trkpt lat="48.68608" lon="-2.31762">
        <ele>62</ele>
        <time>2020-06-24T09:17:01.097Z</time>
      </trkpt>
      <trkpt lat="48.68609" lon="-2.31762">
        <ele>61</ele>
        <time>2020-06-24T09:17:02.097Z</time>
      </trkpt>
      <trkpt lat="48.6861" lon="-2.31762">
        <ele>61</ele>
        <time>2020-06-24T09:17:03.097Z</time>
      </trkpt>
      <trkpt lat="48.68612" lon="-2.31762">
        <ele>62</ele>
        <time>2020-06-24T09:17:04.097Z</time>
      </trkpt>
      <trkpt lat="48.68613" lon="-2.31762">
        <ele>62</ele>
        <time>2020-06-24T09:17:05.097Z</time>
      </trkpt>
      <trkpt lat="48.68614" lon="-2.31762">
        <ele>61</ele>
        <time>2020-06-24T09:17:06.097Z</time>
      </trkpt>
      <trkpt lat="48.68616" lon="-2.31763">
        <ele>61</ele>
        <time>2020-06-24T09:17:07.097Z</time>
      </trkpt>
      <trkpt lat="48.68617" lon="-2.31763">
        <ele>61</ele>
        <time>2020-06-24T09:17:08.097Z</time>
      </trkpt>
      <trkpt lat="48.68618" lon="-2.31764">
        <ele>61</ele>
        <time>2020-06-24T09:17:09.097Z</time>
      </trkpt>
      <trkpt lat="48.6862" lon="-2.31765">
        <ele>61</ele>
        <time>2020-06-24T09:17:10.097Z</time>
      </trkpt>
      <trkpt lat="48.68621" lon="-2.31765">
        <ele>62</ele>
        <time>2020-06-24T09:17:11.097Z</time>
      </trkpt>
      <trkpt lat="48.68622" lon="-2.31766">
        <ele>62</ele>
        <time>2020-06-24T09:17:12.097Z</time>
      </trkpt>
      <trkpt lat="48.68623" lon="-2.31766">
        <ele>62</ele>
        <time>2020-06-24T09:17:13.097Z</time>
      </trkpt>
      <trkpt lat="48.68624" lon="-2.31766">
        <ele>62</ele>
        <time>2020-06-24T09:17:14.097Z</time>
      </trkpt>
      <trkpt lat="48.68625" lon="-2.31767">
        <ele>62</ele>
        <time>2020-06-24T09:17:15.097Z</time>
      </trkpt>
      <trkpt lat="48.68626" lon="-2.31767">
        <ele>61</ele>
        <time>2020-06-24T09:17:16.097Z</time>
      </trkpt>
      <trkpt lat="48.68626" lon="-2.31767">
        <ele>61</ele>
        <time>2020-06-24T09:17:17.097Z</time>
      </trkpt>
      <trkpt lat="48.68627" lon="-2.31768">
        <ele>61</ele>
        <time>2020-06-24T09:17:18.097Z</time>
      </trkpt>
      <trkpt lat="48.68627" lon="-2.31769">
        <ele>61</ele>
        <time>2020-06-24T09:17:19.097Z</time>
      </trkpt>
      <trkpt lat="48.68628" lon="-2.31769">
        <ele>61</ele>
        <time>2020-06-24T09:17:20.097Z</time>
      </trkpt>
      <trkpt lat="48.68629" lon="-2.3177">
        <ele>61</ele>
        <time>2020-06-24T09:17:21.097Z</time>
      </trkpt>
      <trkpt lat="48.68629" lon="-2.31771">
        <ele>61</ele>
        <time>2020-06-24T09:17:22.097Z</time>
      </trkpt>
      <trkpt lat="48.68629" lon="-2.31772">
        <ele>62</ele>
        <time>2020-06-24T09:17:23.097Z</time>
      </trkpt>
      <trkpt lat="48.6863" lon="-2.31772">
        <ele>62</ele>
        <time>2020-06-24T09:17:24.097Z</time>
      </trkpt>
      <trkpt lat="48.6863" lon="-2.31773">
        <ele>62</ele>
        <time>2020-06-24T09:17:25.097Z</time>
      </trkpt>
      <trkpt lat="48.6863" lon="-2.31773">
        <ele>62</ele>
        <time>2020-06-24T09:17:26.097Z</time>
      </trkpt>
      <trkpt lat="48.6863" lon="-2.31773">
        <ele>62</ele>
        <time>2020-06-24T09:17:27.097Z</time>
      </trkpt>
      <trkpt lat="48.68629" lon="-2.31774">
        <ele>62</ele>
        <time>2020-06-24T09:17:28.097Z</time>
      </trkpt>
      <trkpt lat="48.68629" lon="-2.31774">
        <ele>62</ele>
        <time>2020-06-24T09:17:29.097Z</time>
      </trkpt>
      <trkpt lat="48.68631" lon="-2.31774">
        <ele>62</ele>
        <time>2020-06-24T09:17:30.101Z</time>
      </trkpt>
      <trkpt lat="48.68632" lon="-2.31774">
        <ele>62</ele>
        <time>2020-06-24T09:17:31.101Z</time>
      </trkpt>
      <trkpt lat="48.68633" lon="-2.31774">
        <ele>62</ele>
        <time>2020-06-24T09:17:32.101Z</time>
      </trkpt>
      <trkpt lat="48.68634" lon="-2.31774">
        <ele>62</ele>
        <time>2020-06-24T09:17:33.101Z</time>
      </trkpt>
      <trkpt lat="48.68635" lon="-2.31774">
        <ele>62</ele>
        <time>2020-06-24T09:17:34.101Z</time>
      </trkpt>
      <trkpt lat="48.68636" lon="-2.31775">
        <ele>62</ele>
        <time>2020-06-24T09:17:35.101Z</time>
      </trkpt>
      <trkpt lat="48.68638" lon="-2.31775">
        <ele>62</ele>
        <time>2020-06-24T09:17:36.101Z</time>
      </trkpt>
      <trkpt lat="48.68639" lon="-2.31775">
        <ele>61</ele>
        <time>2020-06-24T09:17:37.101Z</time>
      </trkpt>
      <trkpt lat="48.6864" lon="-2.31775">
        <ele>61</ele>
        <time>2020-06-24T09:17:38.101Z</time>
      </trkpt>
      <trkpt lat="48.68641" lon="-2.31775">
        <ele>61</ele>
        <time>2020-06-24T09:17:39.101Z</time>
      </trkpt>
      <trkpt lat="48.68642" lon="-2.31775">
        <ele>61</ele>
        <time>2020-06-24T09:17:40.101Z</time>
      </trkpt>
      <trkpt lat="48.68644" lon="-2.31775">
        <ele>60</ele>
        <time>2020-06-24T09:17:41.101Z</time>
      </trkpt>
      <trkpt lat="48.68645" lon="-2.31776">
        <ele>60</ele>
        <time>2020-06-24T09:17:42.101Z</time>
      </trkpt>
      <trkpt lat="48.68646" lon="-2.31776">
        <ele>60</ele>
        <time>2020-06-24T09:17:43.101Z</time>
      </trkpt>
      <trkpt lat="48.68647" lon="-2.31776">
        <ele>60</ele>
        <time>2020-06-24T09:17:44.101Z</time>
      </trkpt>
      <trkpt lat="48.68649" lon="-2.31776">
        <ele>60</ele>
        <time>2020-06-24T09:17:45.101Z</time>
      </trkpt>
      <trkpt lat="48.6865" lon="-2.31776">
        <ele>60</ele>
        <time>2020-06-24T09:17:46.101Z</time>
      </trkpt>
      <trkpt lat="48.68652" lon="-2.31776">
        <ele>60</ele>
        <time>2020-06-24T09:17:47.101Z</time>
      </trkpt>
      <trkpt lat="48.68653" lon="-2.31776">
        <ele>60</ele>
        <time>2020-06-24T09:17:48.101Z</time>
      </trkpt>
      <trkpt lat="48.68654" lon="-2.31776">
        <ele>60</ele>
        <time>2020-06-24T09:17:49.101Z</time>
      </trkpt>
      <trkpt lat="48.68655" lon="-2.31776">
        <ele>60</ele>
        <time>2020-06-24T09:17:50.101Z</time>
      </trkpt>
      <trkpt lat="48.68656" lon="-2.31776">
        <ele>60</ele>
        <time>2020-06-24T09:17:51.101Z</time>
      </trkpt>
      <trkpt lat="48.68657" lon="-2.31775">
        <ele>60</ele>
        <time>2020-06-24T09:17:52.101Z</time>
      </trkpt>
      <trkpt lat="48.68659" lon="-2.31774">
        <ele>60</ele>
        <time>2020-06-24T09:17:53.101Z</time>
      </trkpt>
      <trkpt lat="48.6866" lon="-2.31774">
        <ele>60</ele>
        <time>2020-06-24T09:17:54.101Z</time>
      </trkpt>
      <trkpt lat="48.68661" lon="-2.31774">
        <ele>60</ele>
        <time>2020-06-24T09:17:55.101Z</time>
      </trkpt>
      <trkpt lat="48.68662" lon="-2.31774">
        <ele>60</ele>
        <time>2020-06-24T09:17:56.101Z</time>
      </trkpt>
      <trkpt lat="48.68664" lon="-2.31774">
        <ele>60</ele>
        <time>2020-06-24T09:17:57.101Z</time>
      </trkpt>
      <trkpt lat="48.68665" lon="-2.31774">
        <ele>60</ele>
        <time>2020-06-24T09:17:58.101Z</time>
      </trkpt>
      <trkpt lat="48.68666" lon="-2.31774">
        <ele>60</ele>
        <time>2020-06-24T09:17:59.101Z</time>
      </trkpt>
      <trkpt lat="48.68667" lon="-2.31774">
        <ele>59</ele>
        <time>2020-06-24T09:18:00.101Z</time>
      </trkpt>
      <trkpt lat="48.68669" lon="-2.31775">
        <ele>59</ele>
        <time>2020-06-24T09:18:01.101Z</time>
      </trkpt>
      <trkpt lat="48.6867" lon="-2.31775">
        <ele>59</ele>
        <time>2020-06-24T09:18:02.101Z</time>
      </trkpt>
      <trkpt lat="48.68671" lon="-2.31776">
        <ele>59</ele>
        <time>2020-06-24T09:18:03.101Z</time>
      </trkpt>
      <trkpt lat="48.68672" lon="-2.31778">
        <ele>59</ele>
        <time>2020-06-24T09:18:04.101Z</time>
      </trkpt>
      <trkpt lat="48.68673" lon="-2.31779">
        <ele>59</ele>
        <time>2020-06-24T09:18:05.101Z</time>
      </trkpt>
      <trkpt lat="48.68674" lon="-2.3178">
        <ele>59</ele>
        <time>2020-06-24T09:18:06.101Z</time>
      </trkpt>
      <trkpt lat="48.68674" lon="-2.31781">
        <ele>59</ele>
        <time>2020-06-24T09:18:07.101Z</time>
      </trkpt>
      <trkpt lat="48.68675" lon="-2.31782">
        <ele>59</ele>
        <time>2020-06-24T09:18:08.101Z</time>
      </trkpt>
      <trkpt lat="48.68676" lon="-2.31784">
        <ele>59</ele>
        <time>2020-06-24T09:18:09.101Z</time>
      </trkpt>
      <trkpt lat="48.68676" lon="-2.31785">
        <ele>59</ele>
        <time>2020-06-24T09:18:10.101Z</time>
      </trkpt>
      <trkpt lat="48.68676" lon="-2.31786">
        <ele>59</ele>
        <time>2020-06-24T09:18:11.101Z</time>
      </trkpt>
      <trkpt lat="48.68676" lon="-2.31786">
        <ele>59</ele>
        <time>2020-06-24T09:18:12.101Z</time>
      </trkpt>
      <trkpt lat="48.68676" lon="-2.31786">
        <ele>59</ele>
        <time>2020-06-24T09:18:13.101Z</time>
      </trkpt>
      <trkpt lat="48.68676" lon="-2.31786">
        <ele>59</ele>
        <time>2020-06-24T09:18:14.101Z</time>
      </trkpt>
      <trkpt lat="48.68676" lon="-2.31786">
        <ele>59</ele>
        <time>2020-06-24T09:18:15.101Z</time>
      </trkpt>
      <trkpt lat="48.68676" lon="-2.31786">
        <ele>59</ele>
        <time>2020-06-24T09:18:16.101Z</time>
      </trkpt>
      <trkpt lat="48.68676" lon="-2.31786">
        <ele>59</ele>
        <time>2020-06-24T09:18:17.101Z</time>
      </trkpt>
      <trkpt lat="48.68678" lon="-2.3179">
        <ele>57</ele>
        <time>2020-06-24T09:18:18.109Z</time>
      </trkpt>
      <trkpt lat="48.68679" lon="-2.31791">
        <ele>57</ele>
        <time>2020-06-24T09:18:19.109Z</time>
      </trkpt>
      <trkpt lat="48.68679" lon="-2.31792">
        <ele>57</ele>
        <time>2020-06-24T09:18:20.109Z</time>
      </trkpt>
      <trkpt lat="48.6868" lon="-2.31793">
        <ele>57</ele>
        <time>2020-06-24T09:18:21.109Z</time>
      </trkpt>
      <trkpt lat="48.68681" lon="-2.31794">
        <ele>57</ele>
        <time>2020-06-24T09:18:22.109Z</time>
      </trkpt>
      <trkpt lat="48.68682" lon="-2.31795">
        <ele>57</ele>
        <time>2020-06-24T09:18:23.109Z</time>
      </trkpt>
      <trkpt lat="48.68682" lon="-2.31796">
        <ele>57</ele>
        <time>2020-06-24T09:18:24.109Z</time>
      </trkpt>
      <trkpt lat="48.68683" lon="-2.31797">
        <ele>57</ele>
        <time>2020-06-24T09:18:25.109Z</time>
      </trkpt>
      <trkpt lat="48.68684" lon="-2.31798">
        <ele>57</ele>
        <time>2020-06-24T09:18:26.109Z</time>
      </trkpt>
      <trkpt lat="48.68685" lon="-2.31799">
        <ele>57</ele>
        <time>2020-06-24T09:18:27.109Z</time>
      </trkpt>
      <trkpt lat="48.68685" lon="-2.31799">
        <ele>57</ele>
        <time>2020-06-24T09:18:28.109Z</time>
      </trkpt>
      <trkpt lat="48.68686" lon="-2.318">
        <ele>56</ele>
        <time>2020-06-24T09:18:29.109Z</time>
      </trkpt>
      <trkpt lat="48.68687" lon="-2.31801">
        <ele>57</ele>
        <time>2020-06-24T09:18:30.109Z</time>
      </trkpt>
      <trkpt lat="48.68687" lon="-2.31802">
        <ele>57</ele>
        <time>2020-06-24T09:18:31.109Z</time>
      </trkpt>
      <trkpt lat="48.68687" lon="-2.31802">
        <ele>56</ele>
        <time>2020-06-24T09:18:32.109Z</time>
      </trkpt>
      <trkpt lat="48.68688" lon="-2.31802">
        <ele>56</ele>
        <time>2020-06-24T09:18:33.109Z</time>
      </trkpt>
      <trkpt lat="48.68688" lon="-2.31803">
        <ele>56</ele>
        <time>2020-06-24T09:18:34.109Z</time>
      </trkpt>
      <trkpt lat="48.68689" lon="-2.31804">
        <ele>56</ele>
        <time>2020-06-24T09:18:35.109Z</time>
      </trkpt>
      <trkpt lat="48.68691" lon="-2.31804">
        <ele>57</ele>
        <time>2020-06-24T09:18:36.109Z</time>
      </trkpt>
      <trkpt lat="48.68692" lon="-2.31805">
        <ele>56</ele>
        <time>2020-06-24T09:18:37.109Z</time>
      </trkpt>
      <trkpt lat="48.68693" lon="-2.31805">
        <ele>57</ele>
        <time>2020-06-24T09:18:38.109Z</time>
      </trkpt>
      <trkpt lat="48.68694" lon="-2.31806">
        <ele>57</ele>
        <time>2020-06-24T09:18:39.109Z</time>
      </trkpt>
      <trkpt lat="48.68695" lon="-2.31806">
        <ele>57</ele>
        <time>2020-06-24T09:18:40.109Z</time>
      </trkpt>
      <trkpt lat="48.68697" lon="-2.31806">
        <ele>57</ele>
        <time>2020-06-24T09:18:41.109Z</time>
      </trkpt>
      <trkpt lat="48.68698" lon="-2.31806">
        <ele>57</ele>
        <time>2020-06-24T09:18:42.109Z</time>
      </trkpt>
      <trkpt lat="48.68699" lon="-2.31806">
        <ele>57</ele>
        <time>2020-06-24T09:18:43.109Z</time>
      </trkpt>
      <trkpt lat="48.68701" lon="-2.31806">
        <ele>57</ele>
        <time>2020-06-24T09:18:44.109Z</time>
      </trkpt>
      <trkpt lat="48.68702" lon="-2.31806">
        <ele>57</ele>
        <time>2020-06-24T09:18:45.109Z</time>
      </trkpt>
      <trkpt lat="48.68703" lon="-2.31805">
        <ele>57</ele>
        <time>2020-06-24T09:18:46.109Z</time>
      </trkpt>
      <trkpt lat="48.68705" lon="-2.31805">
        <ele>57</ele>
        <time>2020-06-24T09:18:47.109Z</time>
      </trkpt>
      <trkpt lat="48.68706" lon="-2.31804">
        <ele>56</ele>
        <time>2020-06-24T09:18:48.109Z</time>
      </trkpt>
      <trkpt lat="48.68707" lon="-2.31803">
        <ele>56</ele>
        <time>2020-06-24T09:18:49.109Z</time>
      </trkpt>
      <trkpt lat="48.68708" lon="-2.31803">
        <ele>56</ele>
        <time>2020-06-24T09:18:50.109Z</time>
      </trkpt>
      <trkpt lat="48.68709" lon="-2.31802">
        <ele>56</ele>
        <time>2020-06-24T09:18:51.109Z</time>
      </trkpt>
      <trkpt lat="48.6871" lon="-2.31801">
        <ele>56</ele>
        <time>2020-06-24T09:18:52.109Z</time>
      </trkpt>
      <trkpt lat="48.68711" lon="-2.31801">
        <ele>56</ele>
        <time>2020-06-24T09:18:53.109Z</time>
      </trkpt>
      <trkpt lat="48.68712" lon="-2.31801">
        <ele>55</ele>
        <time>2020-06-24T09:18:54.109Z</time>
      </trkpt>
      <trkpt lat="48.68714" lon="-2.31801">
        <ele>55</ele>
        <time>2020-06-24T09:18:55.109Z</time>
      </trkpt>
      <trkpt lat="48.68715" lon="-2.31801">
        <ele>55</ele>
        <time>2020-06-24T09:18:56.109Z</time>
      </trkpt>
      <trkpt lat="48.68716" lon="-2.31802">
        <ele>55</ele>
        <time>2020-06-24T09:18:57.109Z</time>
      </trkpt>
      <trkpt lat="48.68717" lon="-2.31802">
        <ele>55</ele>
        <time>2020-06-24T09:18:58.109Z</time>
      </trkpt>
      <trkpt lat="48.68718" lon="-2.31803">
        <ele>55</ele>
        <time>2020-06-24T09:18:59.109Z</time>
      </trkpt>
      <trkpt lat="48.6872" lon="-2.31804">
        <ele>55</ele>
        <time>2020-06-24T09:19:00.109Z</time>
      </trkpt>
      <trkpt lat="48.68721" lon="-2.31804">
        <ele>55</ele>
        <time>2020-06-24T09:19:01.109Z</time>
      </trkpt>
      <trkpt lat="48.68723" lon="-2.31805">
        <ele>55</ele>
        <time>2020-06-24T09:19:02.109Z</time>
      </trkpt>
      <trkpt lat="48.68724" lon="-2.31805">
        <ele>55</ele>
        <time>2020-06-24T09:19:03.109Z</time>
      </trkpt>
      <trkpt lat="48.68725" lon="-2.31806">
        <ele>55</ele>
        <time>2020-06-24T09:19:04.109Z</time>
      </trkpt>
      <trkpt lat="48.68726" lon="-2.31806">
        <ele>55</ele>
        <time>2020-06-24T09:19:05.109Z</time>
      </trkpt>
      <trkpt lat="48.68728" lon="-2.31806">
        <ele>55</ele>
        <time>2020-06-24T09:19:06.109Z</time>
      </trkpt>
      <trkpt lat="48.68729" lon="-2.31806">
        <ele>55</ele>
        <time>2020-06-24T09:19:07.109Z</time>
      </trkpt>
      <trkpt lat="48.6873" lon="-2.31806">
        <ele>55</ele>
        <time>2020-06-24T09:19:08.109Z</time>
      </trkpt>
      <trkpt lat="48.68731" lon="-2.31807">
        <ele>55</ele>
        <time>2020-06-24T09:19:09.109Z</time>
      </trkpt>
      <trkpt lat="48.68732" lon="-2.31807">
        <ele>55</ele>
        <time>2020-06-24T09:19:10.109Z</time>
      </trkpt>
      <trkpt lat="48.68734" lon="-2.31807">
        <ele>55</ele>
        <time>2020-06-24T09:19:11.109Z</time>
      </trkpt>
      <trkpt lat="48.68735" lon="-2.31808">
        <ele>55</ele>
        <time>2020-06-24T09:19:12.109Z</time>
      </trkpt>
      <trkpt lat="48.68736" lon="-2.31809">
        <ele>55</ele>
        <time>2020-06-24T09:19:13.109Z</time>
      </trkpt>
      <trkpt lat="48.68737" lon="-2.3181">
        <ele>55</ele>
        <time>2020-06-24T09:19:14.109Z</time>
      </trkpt>
      <trkpt lat="48.68738" lon="-2.3181">
        <ele>56</ele>
        <time>2020-06-24T09:19:15.109Z</time>
      </trkpt>
      <trkpt lat="48.68738" lon="-2.3181">
        <ele>56</ele>
        <time>2020-06-24T09:19:16.109Z</time>
      </trkpt>
      <trkpt lat="48.68739" lon="-2.3181">
        <ele>56</ele>
        <time>2020-06-24T09:19:17.109Z</time>
      </trkpt>
      <trkpt lat="48.68739" lon="-2.3181">
        <ele>56</ele>
        <time>2020-06-24T09:19:18.109Z</time>
      </trkpt>
      <trkpt lat="48.68739" lon="-2.3181">
        <ele>56</ele>
        <time>2020-06-24T09:19:19.109Z</time>
      </trkpt>
      <trkpt lat="48.68739" lon="-2.31809">
        <ele>56</ele>
        <time>2020-06-24T09:19:20.109Z</time>
      </trkpt>
      <trkpt lat="48.68739" lon="-2.31809">
        <ele>56</ele>
        <time>2020-06-24T09:19:21.109Z</time>
      </trkpt>
      <trkpt lat="48.68739" lon="-2.3181">
        <ele>56</ele>
        <time>2020-06-24T09:19:22.109Z</time>
      </trkpt>
      <trkpt lat="48.68739" lon="-2.3181">
        <ele>56</ele>
        <time>2020-06-24T09:19:23.109Z</time>
      </trkpt>
      <trkpt lat="48.68739" lon="-2.3181">
        <ele>56</ele>
        <time>2020-06-24T09:19:24.109Z</time>
      </trkpt>
      <trkpt lat="48.68742" lon="-2.31812">
        <ele>57</ele>
        <time>2020-06-24T09:19:25.113Z</time>
      </trkpt>
      <trkpt lat="48.68743" lon="-2.31813">
        <ele>57</ele>
        <time>2020-06-24T09:19:26.113Z</time>
      </trkpt>
      <trkpt lat="48.68744" lon="-2.31814">
        <ele>56</ele>
        <time>2020-06-24T09:19:27.113Z</time>
      </trkpt>
      <trkpt lat="48.68745" lon="-2.31815">
        <ele>56</ele>
        <time>2020-06-24T09:19:28.113Z</time>
      </trkpt>
      <trkpt lat="48.68747" lon="-2.31816">
        <ele>56</ele>
        <time>2020-06-24T09:19:29.113Z</time>
      </trkpt>
      <trkpt lat="48.68748" lon="-2.31817">
        <ele>56</ele>
        <time>2020-06-24T09:19:30.113Z</time>
      </trkpt>
      <trkpt lat="48.68749" lon="-2.31818">
        <ele>56</ele>
        <time>2020-06-24T09:19:31.113Z</time>
      </trkpt>
      <trkpt lat="48.6875" lon="-2.31818">
        <ele>56</ele>
        <time>2020-06-24T09:19:32.113Z</time>
      </trkpt>
      <trkpt lat="48.68752" lon="-2.31819">
        <ele>56</ele>
        <time>2020-06-24T09:19:33.113Z</time>
      </trkpt>
      <trkpt lat="48.68753" lon="-2.31819">
        <ele>56</ele>
        <time>2020-06-24T09:19:34.113Z</time>
      </trkpt>
      <trkpt lat="48.68755" lon="-2.31818">
        <ele>56</ele>
        <time>2020-06-24T09:19:35.113Z</time>
      </trkpt>
      <trkpt lat="48.68756" lon="-2.31817">
        <ele>56</ele>
        <time>2020-06-24T09:19:36.113Z</time>
      </trkpt>
      <trkpt lat="48.68757" lon="-2.31817">
        <ele>56</ele>
        <time>2020-06-24T09:19:37.113Z</time>
      </trkpt>
      <trkpt lat="48.68758" lon="-2.31817">
        <ele>56</ele>
        <time>2020-06-24T09:19:38.113Z</time>
      </trkpt>
      <trkpt lat="48.68759" lon="-2.31816">
        <ele>56</ele>
        <time>2020-06-24T09:19:39.113Z</time>
      </trkpt>
      <trkpt lat="48.6876" lon="-2.31816">
        <ele>56</ele>
        <time>2020-06-24T09:19:40.113Z</time>
      </trkpt>
      <trkpt lat="48.68762" lon="-2.31816">
        <ele>56</ele>
        <time>2020-06-24T09:19:41.113Z</time>
      </trkpt>
      <trkpt lat="48.68763" lon="-2.31816">
        <ele>56</ele>
        <time>2020-06-24T09:19:42.113Z</time>
      </trkpt>
      <trkpt lat="48.68764" lon="-2.31816">
        <ele>56</ele>
        <time>2020-06-24T09:19:43.113Z</time>
      </trkpt>
      <trkpt lat="48.68765" lon="-2.31816">
        <ele>56</ele>
        <time>2020-06-24T09:19:44.113Z</time>
      </trkpt>
      <trkpt lat="48.68766" lon="-2.31815">
        <ele>56</ele>
        <time>2020-06-24T09:19:45.113Z</time>
      </trkpt>
      <trkpt lat="48.68767" lon="-2.31815">
        <ele>56</ele>
        <time>2020-06-24T09:19:46.113Z</time>
      </trkpt>
      <trkpt lat="48.68768" lon="-2.31816">
        <ele>56</ele>
        <time>2020-06-24T09:19:47.113Z</time>
      </trkpt>
      <trkpt lat="48.68769" lon="-2.31816">
        <ele>56</ele>
        <time>2020-06-24T09:19:48.113Z</time>
      </trkpt>
      <trkpt lat="48.6877" lon="-2.31817">
        <ele>56</ele>
        <time>2020-06-24T09:19:49.113Z</time>
      </trkpt>
      <trkpt lat="48.68771" lon="-2.31817">
        <ele>56</ele>
        <time>2020-06-24T09:19:50.113Z</time>
      </trkpt>
      <trkpt lat="48.68771" lon="-2.31817">
        <ele>56</ele>
        <time>2020-06-24T09:19:51.113Z</time>
      </trkpt>
      <trkpt lat="48.68772" lon="-2.31817">
        <ele>56</ele>
        <time>2020-06-24T09:19:52.113Z</time>
      </trkpt>
      <trkpt lat="48.68773" lon="-2.31818">
        <ele>55</ele>
        <time>2020-06-24T09:19:53.113Z</time>
      </trkpt>
      <trkpt lat="48.68773" lon="-2.31818">
        <ele>55</ele>
        <time>2020-06-24T09:19:54.113Z</time>
      </trkpt>
      <trkpt lat="48.68773" lon="-2.31818">
        <ele>55</ele>
        <time>2020-06-24T09:19:55.113Z</time>
      </trkpt>
      <trkpt lat="48.68774" lon="-2.31818">
        <ele>55</ele>
        <time>2020-06-24T09:19:56.113Z</time>
      </trkpt>
      <trkpt lat="48.68774" lon="-2.31818">
        <ele>55</ele>
        <time>2020-06-24T09:19:57.113Z</time>
      </trkpt>
      <trkpt lat="48.68774" lon="-2.31818">
        <ele>55</ele>
        <time>2020-06-24T09:19:58.113Z</time>
      </trkpt>
      <trkpt lat="48.68774" lon="-2.31819">
        <ele>55</ele>
        <time>2020-06-24T09:19:59.113Z</time>
      </trkpt>
      <trkpt lat="48.68774" lon="-2.31819">
        <ele>55</ele>
        <time>2020-06-24T09:20:00.113Z</time>
      </trkpt>
      <trkpt lat="48.68775" lon="-2.3182">
        <ele>55</ele>
        <time>2020-06-24T09:20:01.113Z</time>
      </trkpt>
      <trkpt lat="48.68775" lon="-2.31821">
        <ele>55</ele>
        <time>2020-06-24T09:20:02.113Z</time>
      </trkpt>
      <trkpt lat="48.68775" lon="-2.31821">
        <ele>55</ele>
        <time>2020-06-24T09:20:03.113Z</time>
      </trkpt>
      <trkpt lat="48.68776" lon="-2.31821">
        <ele>55</ele>
        <time>2020-06-24T09:20:04.113Z</time>
      </trkpt>
      <trkpt lat="48.68776" lon="-2.31822">
        <ele>55</ele>
        <time>2020-06-24T09:20:05.113Z</time>
      </trkpt>
      <trkpt lat="48.68776" lon="-2.31822">
        <ele>54</ele>
        <time>2020-06-24T09:20:06.113Z</time>
      </trkpt>
      <trkpt lat="48.68776" lon="-2.31822">
        <ele>54</ele>
        <time>2020-06-24T09:20:07.113Z</time>
      </trkpt>
      <trkpt lat="48.68776" lon="-2.31822">
        <ele>54</ele>
        <time>2020-06-24T09:20:08.113Z</time>
      </trkpt>
      <trkpt lat="48.68776" lon="-2.31822">
        <ele>54</ele>
        <time>2020-06-24T09:20:09.113Z</time>
      </trkpt>
      <trkpt lat="48.68776" lon="-2.31822">
        <ele>55</ele>
        <time>2020-06-24T09:20:10.113Z</time>
      </trkpt>
      <trkpt lat="48.68776" lon="-2.31823">
        <ele>53</ele>
        <time>2020-06-24T09:20:11.121Z</time>
      </trkpt>
      <trkpt lat="48.68776" lon="-2.31823">
        <ele>52</ele>
        <time>2020-06-24T09:20:12.121Z</time>
      </trkpt>
      <trkpt lat="48.68777" lon="-2.31824">
        <ele>52</ele>
        <time>2020-06-24T09:20:13.121Z</time>
      </trkpt>
      <trkpt lat="48.68777" lon="-2.31824">
        <ele>52</ele>
        <time>2020-06-24T09:20:14.121Z</time>
      </trkpt>
      <trkpt lat="48.68777" lon="-2.31824">
        <ele>53</ele>
        <time>2020-06-24T09:20:15.121Z</time>
      </trkpt>
      <trkpt lat="48.68777" lon="-2.31824">
        <ele>53</ele>
        <time>2020-06-24T09:20:16.121Z</time>
      </trkpt>
      <trkpt lat="48.68777" lon="-2.31823">
        <ele>53</ele>
        <time>2020-06-24T09:20:17.121Z</time>
      </trkpt>
      <trkpt lat="48.68778" lon="-2.31823">
        <ele>53</ele>
        <time>2020-06-24T09:20:18.121Z</time>
      </trkpt>
      <trkpt lat="48.68778" lon="-2.31823">
        <ele>54</ele>
        <time>2020-06-24T09:20:19.121Z</time>
      </trkpt>
      <trkpt lat="48.68778" lon="-2.31823">
        <ele>53</ele>
        <time>2020-06-24T09:20:20.121Z</time>
      </trkpt>
      <trkpt lat="48.68778" lon="-2.31823">
        <ele>54</ele>
        <time>2020-06-24T09:20:21.121Z</time>
      </trkpt>
      <trkpt lat="48.68777" lon="-2.3182">
        <ele>55</ele>
        <time>2020-06-24T09:20:22.004Z</time>
      </trkpt>
      <trkpt lat="48.68776" lon="-2.31819">
        <ele>55</ele>
        <time>2020-06-24T09:20:23.004Z</time>
      </trkpt>
      <trkpt lat="48.68775" lon="-2.31818">
        <ele>55</ele>
        <time>2020-06-24T09:20:24.004Z</time>
      </trkpt>
      <trkpt lat="48.68774" lon="-2.31817">
        <ele>56</ele>
        <time>2020-06-24T09:20:25.004Z</time>
      </trkpt>
      <trkpt lat="48.68773" lon="-2.31817">
        <ele>56</ele>
        <time>2020-06-24T09:20:26.004Z</time>
      </trkpt>
      <trkpt lat="48.68772" lon="-2.31816">
        <ele>56</ele>
        <time>2020-06-24T09:20:27.004Z</time>
      </trkpt>
      <trkpt lat="48.68772" lon="-2.31815">
        <ele>56</ele>
        <time>2020-06-24T09:20:28.004Z</time>
      </trkpt>
      <trkpt lat="48.68771" lon="-2.31813">
        <ele>56</ele>
        <time>2020-06-24T09:20:29.004Z</time>
      </trkpt>
      <trkpt lat="48.68771" lon="-2.31811">
        <ele>56</ele>
        <time>2020-06-24T09:20:30.004Z</time>
      </trkpt>
      <trkpt lat="48.68771" lon="-2.31809">
        <ele>57</ele>
        <time>2020-06-24T09:20:31.004Z</time>
      </trkpt>
      <trkpt lat="48.6877" lon="-2.31807">
        <ele>57</ele>
        <time>2020-06-24T09:20:32.004Z</time>
      </trkpt>
      <trkpt lat="48.6877" lon="-2.31806">
        <ele>58</ele>
        <time>2020-06-24T09:20:33.004Z</time>
      </trkpt>
      <trkpt lat="48.6877" lon="-2.31804">
        <ele>58</ele>
        <time>2020-06-24T09:20:34.004Z</time>
      </trkpt>
      <trkpt lat="48.6877" lon="-2.31802">
        <ele>58</ele>
        <time>2020-06-24T09:20:35.004Z</time>
      </trkpt>
      <trkpt lat="48.6877" lon="-2.318">
        <ele>58</ele>
        <time>2020-06-24T09:20:36.004Z</time>
      </trkpt>
      <trkpt lat="48.6877" lon="-2.31798">
        <ele>58</ele>
        <time>2020-06-24T09:20:37.004Z</time>
      </trkpt>
      <trkpt lat="48.68771" lon="-2.31797">
        <ele>58</ele>
        <time>2020-06-24T09:20:38.004Z</time>
      </trkpt>
      <trkpt lat="48.68771" lon="-2.31795">
        <ele>58</ele>
        <time>2020-06-24T09:20:39.004Z</time>
      </trkpt>
      <trkpt lat="48.68771" lon="-2.31794">
        <ele>58</ele>
        <time>2020-06-24T09:20:40.004Z</time>
      </trkpt>
      <trkpt lat="48.68771" lon="-2.31793">
        <ele>58</ele>
        <time>2020-06-24T09:20:41.004Z</time>
      </trkpt>
      <trkpt lat="48.68771" lon="-2.31791">
        <ele>58</ele>
        <time>2020-06-24T09:20:42.004Z</time>
      </trkpt>
      <trkpt lat="48.68772" lon="-2.3179">
        <ele>58</ele>
        <time>2020-06-24T09:20:43.004Z</time>
      </trkpt>
      <trkpt lat="48.68773" lon="-2.31789">
        <ele>58</ele>
        <time>2020-06-24T09:20:44.004Z</time>
      </trkpt>
      <trkpt lat="48.68773" lon="-2.31787">
        <ele>58</ele>
        <time>2020-06-24T09:20:45.004Z</time>
      </trkpt>
      <trkpt lat="48.68774" lon="-2.31786">
        <ele>58</ele>
        <time>2020-06-24T09:20:46.004Z</time>
      </trkpt>
      <trkpt lat="48.68774" lon="-2.31784">
        <ele>58</ele>
        <time>2020-06-24T09:20:47.004Z</time>
      </trkpt>
      <trkpt lat="48.68774" lon="-2.31782">
        <ele>58</ele>
        <time>2020-06-24T09:20:48.004Z</time>
      </trkpt>
      <trkpt lat="48.68775" lon="-2.3178">
        <ele>58</ele>
        <time>2020-06-24T09:20:49.004Z</time>
      </trkpt>
      <trkpt lat="48.68775" lon="-2.31779">
        <ele>58</ele>
        <time>2020-06-24T09:20:50.004Z</time>
      </trkpt>
      <trkpt lat="48.68775" lon="-2.31777">
        <ele>59</ele>
        <time>2020-06-24T09:20:51.004Z</time>
      </trkpt>
      <trkpt lat="48.68774" lon="-2.31775">
        <ele>59</ele>
        <time>2020-06-24T09:20:52.004Z</time>
      </trkpt>
      <trkpt lat="48.68774" lon="-2.31773">
        <ele>59</ele>
        <time>2020-06-24T09:20:53.004Z</time>
      </trkpt>
      <trkpt lat="48.68774" lon="-2.31772">
        <ele>59</ele>
        <time>2020-06-24T09:20:54.004Z</time>
      </trkpt>
      <trkpt lat="48.68773" lon="-2.3177">
        <ele>59</ele>
        <time>2020-06-24T09:20:55.004Z</time>
      </trkpt>
      <trkpt lat="48.68773" lon="-2.31768">
        <ele>59</ele>
        <time>2020-06-24T09:20:56.004Z</time>
      </trkpt>
      <trkpt lat="48.68773" lon="-2.31766">
        <ele>60</ele>
        <time>2020-06-24T09:20:57.004Z</time>
      </trkpt>
      <trkpt lat="48.68773" lon="-2.31765">
        <ele>60</ele>
        <time>2020-06-24T09:20:58.004Z</time>
      </trkpt>
      <trkpt lat="48.68773" lon="-2.31764">
        <ele>60</ele>
        <time>2020-06-24T09:20:59.004Z</time>
      </trkpt>
      <trkpt lat="48.68773" lon="-2.31763">
        <ele>59</ele>
        <time>2020-06-24T09:21:00.004Z</time>
      </trkpt>
      <trkpt lat="48.68774" lon="-2.31762">
        <ele>59</ele>
        <time>2020-06-24T09:21:01.004Z</time>
      </trkpt>
      <trkpt lat="48.68775" lon="-2.31761">
        <ele>59</ele>
        <time>2020-06-24T09:21:02.004Z</time>
      </trkpt>
      <trkpt lat="48.68776" lon="-2.3176">
        <ele>59</ele>
        <time>2020-06-24T09:21:03.004Z</time>
      </trkpt>
      <trkpt lat="48.68777" lon="-2.31759">
        <ele>59</ele>
        <time>2020-06-24T09:21:04.004Z</time>
      </trkpt>
      <trkpt lat="48.68779" lon="-2.31759">
        <ele>59</ele>
        <time>2020-06-24T09:21:05.004Z</time>
      </trkpt>
      <trkpt lat="48.6878" lon="-2.31758">
        <ele>59</ele>
        <time>2020-06-24T09:21:06.004Z</time>
      </trkpt>
      <trkpt lat="48.68781" lon="-2.31758">
        <ele>59</ele>
        <time>2020-06-24T09:21:07.004Z</time>
      </trkpt>
      <trkpt lat="48.68782" lon="-2.31758">
        <ele>58</ele>
        <time>2020-06-24T09:21:08.004Z</time>
      </trkpt>
      <trkpt lat="48.68783" lon="-2.31757">
        <ele>58</ele>
        <time>2020-06-24T09:21:09.004Z</time>
      </trkpt>
      <trkpt lat="48.68785" lon="-2.31758">
        <ele>58</ele>
        <time>2020-06-24T09:21:10.004Z</time>
      </trkpt>
      <trkpt lat="48.68786" lon="-2.31758">
        <ele>58</ele>
        <time>2020-06-24T09:21:11.004Z</time>
      </trkpt>
      <trkpt lat="48.68787" lon="-2.31757">
        <ele>58</ele>
        <time>2020-06-24T09:21:12.004Z</time>
      </trkpt>
      <trkpt lat="48.68788" lon="-2.31756">
        <ele>59</ele>
        <time>2020-06-24T09:21:13.004Z</time>
      </trkpt>
      <trkpt lat="48.68789" lon="-2.31755">
        <ele>59</ele>
        <time>2020-06-24T09:21:14.004Z</time>
      </trkpt>
      <trkpt lat="48.68789" lon="-2.31755">
        <ele>59</ele>
        <time>2020-06-24T09:21:15.004Z</time>
      </trkpt>
      <trkpt lat="48.6879" lon="-2.31754">
        <ele>59</ele>
        <time>2020-06-24T09:21:16.004Z</time>
      </trkpt>
      <trkpt lat="48.6879" lon="-2.31754">
        <ele>59</ele>
        <time>2020-06-24T09:21:17.004Z</time>
      </trkpt>
      <trkpt lat="48.68789" lon="-2.31754">
        <ele>59</ele>
        <time>2020-06-24T09:21:18.004Z</time>
      </trkpt>
      <trkpt lat="48.68789" lon="-2.31754">
        <ele>59</ele>
        <time>2020-06-24T09:21:19.004Z</time>
      </trkpt>
      <trkpt lat="48.68789" lon="-2.31753">
        <ele>58</ele>
        <time>2020-06-24T09:21:20.004Z</time>
      </trkpt>
      <trkpt lat="48.68789" lon="-2.31753">
        <ele>58</ele>
        <time>2020-06-24T09:21:21.004Z</time>
      </trkpt>
      <trkpt lat="48.68789" lon="-2.31751">
        <ele>59</ele>
        <time>2020-06-24T09:21:22.004Z</time>
      </trkpt>
      <trkpt lat="48.68788" lon="-2.31751">
        <ele>58</ele>
        <time>2020-06-24T09:21:23.004Z</time>
      </trkpt>
      <trkpt lat="48.68787" lon="-2.3175">
        <ele>59</ele>
        <time>2020-06-24T09:21:24.004Z</time>
      </trkpt>
      <trkpt lat="48.68786" lon="-2.31749">
        <ele>58</ele>
        <time>2020-06-24T09:21:25.004Z</time>
      </trkpt>
      <trkpt lat="48.68785" lon="-2.31749">
        <ele>58</ele>
        <time>2020-06-24T09:21:26.004Z</time>
      </trkpt>
      <trkpt lat="48.68784" lon="-2.31748">
        <ele>58</ele>
        <time>2020-06-24T09:21:27.004Z</time>
      </trkpt>
      <trkpt lat="48.68784" lon="-2.31747">
        <ele>58</ele>
        <time>2020-06-24T09:21:28.004Z</time>
      </trkpt>
      <trkpt lat="48.68783" lon="-2.31747">
        <ele>57</ele>
        <time>2020-06-24T09:21:29.004Z</time>
      </trkpt>
      <trkpt lat="48.68783" lon="-2.31747">
        <ele>57</ele>
        <time>2020-06-24T09:21:30.004Z</time>
      </trkpt>
      <trkpt lat="48.68783" lon="-2.31747">
        <ele>57</ele>
        <time>2020-06-24T09:21:31.004Z</time>
      </trkpt>
      <trkpt lat="48.68782" lon="-2.31747">
        <ele>57</ele>
        <time>2020-06-24T09:21:32.004Z</time>
      </trkpt>
      <trkpt lat="48.68782" lon="-2.31747">
        <ele>57</ele>
        <time>2020-06-24T09:21:33.004Z</time>
      </trkpt>
      <trkpt lat="48.68781" lon="-2.31747">
        <ele>57</ele>
        <time>2020-06-24T09:21:34.004Z</time>
      </trkpt>
      <trkpt lat="48.68779" lon="-2.31747">
        <ele>57</ele>
        <time>2020-06-24T09:21:35.004Z</time>
      </trkpt>
      <trkpt lat="48.68778" lon="-2.31746">
        <ele>57</ele>
        <time>2020-06-24T09:21:36.004Z</time>
      </trkpt>
      <trkpt lat="48.68777" lon="-2.31746">
        <ele>56</ele>
        <time>2020-06-24T09:21:37.004Z</time>
      </trkpt>
      <trkpt lat="48.68776" lon="-2.31744">
        <ele>56</ele>
        <time>2020-06-24T09:21:38.004Z</time>
      </trkpt>
      <trkpt lat="48.68776" lon="-2.31743">
        <ele>56</ele>
        <time>2020-06-24T09:21:39.004Z</time>
      </trkpt>
      <trkpt lat="48.68775" lon="-2.31741">
        <ele>56</ele>
        <time>2020-06-24T09:21:40.004Z</time>
      </trkpt>
      <trkpt lat="48.68775" lon="-2.31739">
        <ele>57</ele>
        <time>2020-06-24T09:21:41.004Z</time>
      </trkpt>
      <trkpt lat="48.68774" lon="-2.31738">
        <ele>57</ele>
        <time>2020-06-24T09:21:42.004Z</time>
      </trkpt>
      <trkpt lat="48.68773" lon="-2.31736">
        <ele>57</ele>
        <time>2020-06-24T09:21:43.004Z</time>
      </trkpt>
      <trkpt lat="48.68773" lon="-2.31735">
        <ele>56</ele>
        <time>2020-06-24T09:21:44.004Z</time>
      </trkpt>
      <trkpt lat="48.68772" lon="-2.31733">
        <ele>56</ele>
        <time>2020-06-24T09:21:45.004Z</time>
      </trkpt>
      <trkpt lat="48.68771" lon="-2.31731">
        <ele>56</ele>
        <time>2020-06-24T09:21:46.004Z</time>
      </trkpt>
      <trkpt lat="48.6877" lon="-2.3173">
        <ele>57</ele>
        <time>2020-06-24T09:21:47.004Z</time>
      </trkpt>
      <trkpt lat="48.68769" lon="-2.31728">
        <ele>57</ele>
        <time>2020-06-24T09:21:48.004Z</time>
      </trkpt>
      <trkpt lat="48.68768" lon="-2.31727">
        <ele>57</ele>
        <time>2020-06-24T09:21:49.004Z</time>
      </trkpt>
      <trkpt lat="48.68767" lon="-2.31725">
        <ele>57</ele>
        <time>2020-06-24T09:21:50.004Z</time>
      </trkpt>
      <trkpt lat="48.68766" lon="-2.31723">
        <ele>57</ele>
        <time>2020-06-24T09:21:51.004Z</time>
      </trkpt>
      <trkpt lat="48.68765" lon="-2.31721">
        <ele>57</ele>
        <time>2020-06-24T09:21:52.004Z</time>
      </trkpt>
      <trkpt lat="48.68765" lon="-2.3172">
        <ele>57</ele>
        <time>2020-06-24T09:21:53.004Z</time>
      </trkpt>
      <trkpt lat="48.68764" lon="-2.31718">
        <ele>57</ele>
        <time>2020-06-24T09:21:54.004Z</time>
      </trkpt>
      <trkpt lat="48.68763" lon="-2.31717">
        <ele>57</ele>
        <time>2020-06-24T09:21:55.004Z</time>
      </trkpt>
      <trkpt lat="48.68762" lon="-2.31715">
        <ele>58</ele>
        <time>2020-06-24T09:21:56.004Z</time>
      </trkpt>
      <trkpt lat="48.68761" lon="-2.31714">
        <ele>58</ele>
        <time>2020-06-24T09:21:57.004Z</time>
      </trkpt>
      <trkpt lat="48.6876" lon="-2.31713">
        <ele>58</ele>
        <time>2020-06-24T09:21:58.004Z</time>
      </trkpt>
      <trkpt lat="48.68759" lon="-2.31712">
        <ele>58</ele>
        <time>2020-06-24T09:21:59.004Z</time>
      </trkpt>
      <trkpt lat="48.68758" lon="-2.3171">
        <ele>58</ele>
        <time>2020-06-24T09:22:00.004Z</time>
      </trkpt>
      <trkpt lat="48.68757" lon="-2.31709">
        <ele>59</ele>
        <time>2020-06-24T09:22:01.004Z</time>
      </trkpt>
      <trkpt lat="48.68757" lon="-2.31708">
        <ele>59</ele>
        <time>2020-06-24T09:22:02.004Z</time>
      </trkpt>
      <trkpt lat="48.68756" lon="-2.31707">
        <ele>59</ele>
        <time>2020-06-24T09:22:03.004Z</time>
      </trkpt>
      <trkpt lat="48.68755" lon="-2.31705">
        <ele>59</ele>
        <time>2020-06-24T09:22:04.004Z</time>
      </trkpt>
      <trkpt lat="48.68754" lon="-2.31703">
        <ele>59</ele>
        <time>2020-06-24T09:22:05.004Z</time>
      </trkpt>
      <trkpt lat="48.68753" lon="-2.31702">
        <ele>59</ele>
        <time>2020-06-24T09:22:06.004Z</time>
      </trkpt>
      <trkpt lat="48.68752" lon="-2.31701">
        <ele>59</ele>
        <time>2020-06-24T09:22:07.004Z</time>
      </trkpt>
      <trkpt lat="48.68751" lon="-2.317">
        <ele>59</ele>
        <time>2020-06-24T09:22:08.004Z</time>
      </trkpt>
      <trkpt lat="48.6875" lon="-2.31699">
        <ele>59</ele>
        <time>2020-06-24T09:22:09.004Z</time>
      </trkpt>
      <trkpt lat="48.68749" lon="-2.31698">
        <ele>59</ele>
        <time>2020-06-24T09:22:10.004Z</time>
      </trkpt>
      <trkpt lat="48.68748" lon="-2.31697">
        <ele>59</ele>
        <time>2020-06-24T09:22:11.004Z</time>
      </trkpt>
      <trkpt lat="48.68747" lon="-2.31696">
        <ele>59</ele>
        <time>2020-06-24T09:22:12.004Z</time>
      </trkpt>
      <trkpt lat="48.68746" lon="-2.31695">
        <ele>59</ele>
        <time>2020-06-24T09:22:13.004Z</time>
      </trkpt>
      <trkpt lat="48.68745" lon="-2.31693">
        <ele>59</ele>
        <time>2020-06-24T09:22:14.004Z</time>
      </trkpt>
      <trkpt lat="48.68744" lon="-2.31692">
        <ele>59</ele>
        <time>2020-06-24T09:22:15.004Z</time>
      </trkpt>
      <trkpt lat="48.68743" lon="-2.3169">
        <ele>59</ele>
        <time>2020-06-24T09:22:16.004Z</time>
      </trkpt>
      <trkpt lat="48.68742" lon="-2.31689">
        <ele>59</ele>
        <time>2020-06-24T09:22:17.004Z</time>
      </trkpt>
      <trkpt lat="48.68741" lon="-2.31688">
        <ele>59</ele>
        <time>2020-06-24T09:22:18.004Z</time>
      </trkpt>
      <trkpt lat="48.6874" lon="-2.31686">
        <ele>59</ele>
        <time>2020-06-24T09:22:19.004Z</time>
      </trkpt>
      <trkpt lat="48.68739" lon="-2.31685">
        <ele>59</ele>
        <time>2020-06-24T09:22:20.004Z</time>
      </trkpt>
      <trkpt lat="48.68737" lon="-2.31684">
        <ele>59</ele>
        <time>2020-06-24T09:22:21.004Z</time>
      </trkpt>
      <trkpt lat="48.68736" lon="-2.31683">
        <ele>59</ele>
        <time>2020-06-24T09:22:22.004Z</time>
      </trkpt>
      <trkpt lat="48.68735" lon="-2.31682">
        <ele>59</ele>
        <time>2020-06-24T09:22:23.004Z</time>
      </trkpt>
      <trkpt lat="48.68734" lon="-2.3168">
        <ele>59</ele>
        <time>2020-06-24T09:22:24.004Z</time>
      </trkpt>
      <trkpt lat="48.68733" lon="-2.31679">
        <ele>59</ele>
        <time>2020-06-24T09:22:25.004Z</time>
      </trkpt>
      <trkpt lat="48.68732" lon="-2.31678">
        <ele>59</ele>
        <time>2020-06-24T09:22:26.004Z</time>
      </trkpt>
      <trkpt lat="48.68731" lon="-2.31677">
        <ele>59</ele>
        <time>2020-06-24T09:22:27.004Z</time>
      </trkpt>
      <trkpt lat="48.6873" lon="-2.31676">
        <ele>59</ele>
        <time>2020-06-24T09:22:28.004Z</time>
      </trkpt>
      <trkpt lat="48.68729" lon="-2.31675">
        <ele>59</ele>
        <time>2020-06-24T09:22:29.004Z</time>
      </trkpt>
      <trkpt lat="48.68728" lon="-2.31675">
        <ele>59</ele>
        <time>2020-06-24T09:22:30.004Z</time>
      </trkpt>
      <trkpt lat="48.68727" lon="-2.31674">
        <ele>60</ele>
        <time>2020-06-24T09:22:31.004Z</time>
      </trkpt>
      <trkpt lat="48.68726" lon="-2.31673">
        <ele>60</ele>
        <time>2020-06-24T09:22:32.004Z</time>
      </trkpt>
      <trkpt lat="48.68724" lon="-2.31673">
        <ele>60</ele>
        <time>2020-06-24T09:22:33.004Z</time>
      </trkpt>
      <trkpt lat="48.68723" lon="-2.31672">
        <ele>60</ele>
        <time>2020-06-24T09:22:34.004Z</time>
      </trkpt>
      <trkpt lat="48.68723" lon="-2.31672">
        <ele>60</ele>
        <time>2020-06-24T09:22:35.004Z</time>
      </trkpt>
      <trkpt lat="48.68722" lon="-2.31672">
        <ele>60</ele>
        <time>2020-06-24T09:22:36.004Z</time>
      </trkpt>
      <trkpt lat="48.68721" lon="-2.31671">
        <ele>60</ele>
        <time>2020-06-24T09:22:37.004Z</time>
      </trkpt>
      <trkpt lat="48.68719" lon="-2.31671">
        <ele>60</ele>
        <time>2020-06-24T09:22:38.004Z</time>
      </trkpt>
      <trkpt lat="48.68718" lon="-2.3167">
        <ele>60</ele>
        <time>2020-06-24T09:22:39.004Z</time>
      </trkpt>
      <trkpt lat="48.68717" lon="-2.3167">
        <ele>59</ele>
        <time>2020-06-24T09:22:40.004Z</time>
      </trkpt>
      <trkpt lat="48.68716" lon="-2.31669">
        <ele>59</ele>
        <time>2020-06-24T09:22:41.004Z</time>
      </trkpt>
      <trkpt lat="48.68714" lon="-2.31669">
        <ele>59</ele>
        <time>2020-06-24T09:22:42.004Z</time>
      </trkpt>
      <trkpt lat="48.68713" lon="-2.31668">
        <ele>60</ele>
        <time>2020-06-24T09:22:43.004Z</time>
      </trkpt>
      <trkpt lat="48.68712" lon="-2.31668">
        <ele>60</ele>
        <time>2020-06-24T09:22:44.004Z</time>
      </trkpt>
      <trkpt lat="48.68711" lon="-2.31668">
        <ele>60</ele>
        <time>2020-06-24T09:22:45.004Z</time>
      </trkpt>
      <trkpt lat="48.6871" lon="-2.31668">
        <ele>61</ele>
        <time>2020-06-24T09:22:46.004Z</time>
      </trkpt>
      <trkpt lat="48.68709" lon="-2.31668">
        <ele>61</ele>
        <time>2020-06-24T09:22:47.004Z</time>
      </trkpt>
      <trkpt lat="48.68708" lon="-2.31667">
        <ele>61</ele>
        <time>2020-06-24T09:22:48.004Z</time>
      </trkpt>
      <trkpt lat="48.68706" lon="-2.31667">
        <ele>61</ele>
        <time>2020-06-24T09:22:49.004Z</time>
      </trkpt>
      <trkpt lat="48.68705" lon="-2.31666">
        <ele>61</ele>
        <time>2020-06-24T09:22:50.004Z</time>
      </trkpt>
      <trkpt lat="48.68704" lon="-2.31666">
        <ele>61</ele>
        <time>2020-06-24T09:22:51.004Z</time>
      </trkpt>
      <trkpt lat="48.68703" lon="-2.31666">
        <ele>60</ele>
        <time>2020-06-24T09:22:52.004Z</time>
      </trkpt>
      <trkpt lat="48.68701" lon="-2.31665">
        <ele>61</ele>
        <time>2020-06-24T09:22:53.004Z</time>
      </trkpt>
      <trkpt lat="48.687" lon="-2.31665">
        <ele>61</ele>
        <time>2020-06-24T09:22:54.004Z</time>
      </trkpt>
      <trkpt lat="48.68699" lon="-2.31664">
        <ele>61</ele>
        <time>2020-06-24T09:22:55.004Z</time>
      </trkpt>
      <trkpt lat="48.68698" lon="-2.31663">
        <ele>62</ele>
        <time>2020-06-24T09:22:56.004Z</time>
      </trkpt>
      <trkpt lat="48.68696" lon="-2.31662">
        <ele>62</ele>
        <time>2020-06-24T09:22:57.004Z</time>
      </trkpt>
      <trkpt lat="48.68695" lon="-2.31661">
        <ele>62</ele>
        <time>2020-06-24T09:22:58.004Z</time>
      </trkpt>
      <trkpt lat="48.68694" lon="-2.31661">
        <ele>62</ele>
        <time>2020-06-24T09:22:59.004Z</time>
      </trkpt>
      <trkpt lat="48.68693" lon="-2.3166">
        <ele>62</ele>
        <time>2020-06-24T09:23:00.004Z</time>
      </trkpt>
      <trkpt lat="48.68692" lon="-2.3166">
        <ele>62</ele>
        <time>2020-06-24T09:23:01.004Z</time>
      </trkpt>
      <trkpt lat="48.68691" lon="-2.31659">
        <ele>62</ele>
        <time>2020-06-24T09:23:02.004Z</time>
      </trkpt>
      <trkpt lat="48.6869" lon="-2.31658">
        <ele>63</ele>
        <time>2020-06-24T09:23:03.004Z</time>
      </trkpt>
      <trkpt lat="48.68689" lon="-2.31658">
        <ele>64</ele>
        <time>2020-06-24T09:23:04.004Z</time>
      </trkpt>
      <trkpt lat="48.68689" lon="-2.31658">
        <ele>63</ele>
        <time>2020-06-24T09:23:05.004Z</time>
      </trkpt>
      <trkpt lat="48.68689" lon="-2.31658">
        <ele>63</ele>
        <time>2020-06-24T09:23:06.004Z</time>
      </trkpt>
      <trkpt lat="48.68689" lon="-2.31658">
        <ele>63</ele>
        <time>2020-06-24T09:23:07.004Z</time>
      </trkpt>
      <trkpt lat="48.68689" lon="-2.31658">
        <ele>63</ele>
        <time>2020-06-24T09:23:08.004Z</time>
      </trkpt>
      <trkpt lat="48.68689" lon="-2.31658">
        <ele>63</ele>
        <time>2020-06-24T09:23:09.004Z</time>
      </trkpt>
      <trkpt lat="48.68686" lon="-2.31659">
        <ele>63</ele>
        <time>2020-06-24T09:23:10.008Z</time>
      </trkpt>
      <trkpt lat="48.68685" lon="-2.31659">
        <ele>63</ele>
        <time>2020-06-24T09:23:11.008Z</time>
      </trkpt>
      <trkpt lat="48.68684" lon="-2.31659">
        <ele>62</ele>
        <time>2020-06-24T09:23:12.008Z</time>
      </trkpt>
      <trkpt lat="48.68683" lon="-2.31659">
        <ele>62</ele>
        <time>2020-06-24T09:23:13.008Z</time>
      </trkpt>
      <trkpt lat="48.68682" lon="-2.31659">
        <ele>62</ele>
        <time>2020-06-24T09:23:14.008Z</time>
      </trkpt>
      <trkpt lat="48.68681" lon="-2.31659">
        <ele>62</ele>
        <time>2020-06-24T09:23:15.008Z</time>
      </trkpt>
      <trkpt lat="48.6868" lon="-2.31658">
        <ele>62</ele>
        <time>2020-06-24T09:23:16.008Z</time>
      </trkpt>
      <trkpt lat="48.68678" lon="-2.31658">
        <ele>62</ele>
        <time>2020-06-24T09:23:17.008Z</time>
      </trkpt>
      <trkpt lat="48.68677" lon="-2.31657">
        <ele>62</ele>
        <time>2020-06-24T09:23:18.008Z</time>
      </trkpt>
      <trkpt lat="48.68676" lon="-2.31657">
        <ele>62</ele>
        <time>2020-06-24T09:23:19.008Z</time>
      </trkpt>
      <trkpt lat="48.68676" lon="-2.31657">
        <ele>62</ele>
        <time>2020-06-24T09:23:20.008Z</time>
      </trkpt>
      <trkpt lat="48.68675" lon="-2.31657">
        <ele>62</ele>
        <time>2020-06-24T09:23:21.008Z</time>
      </trkpt>
      <trkpt lat="48.68673" lon="-2.31657">
        <ele>62</ele>
        <time>2020-06-24T09:23:22.008Z</time>
      </trkpt>
      <trkpt lat="48.68672" lon="-2.31657">
        <ele>62</ele>
        <time>2020-06-24T09:23:23.008Z</time>
      </trkpt>
      <trkpt lat="48.68671" lon="-2.31657">
        <ele>62</ele>
        <time>2020-06-24T09:23:24.008Z</time>
      </trkpt>
      <trkpt lat="48.6867" lon="-2.31656">
        <ele>62</ele>
        <time>2020-06-24T09:23:25.008Z</time>
      </trkpt>
      <trkpt lat="48.68669" lon="-2.31656">
        <ele>62</ele>
        <time>2020-06-24T09:23:26.008Z</time>
      </trkpt>
      <trkpt lat="48.68668" lon="-2.31656">
        <ele>61</ele>
        <time>2020-06-24T09:23:27.008Z</time>
      </trkpt>
      <trkpt lat="48.68667" lon="-2.31655">
        <ele>62</ele>
        <time>2020-06-24T09:23:28.008Z</time>
      </trkpt>
      <trkpt lat="48.68666" lon="-2.31654">
        <ele>62</ele>
        <time>2020-06-24T09:23:29.008Z</time>
      </trkpt>
      <trkpt lat="48.68665" lon="-2.31653">
        <ele>61</ele>
        <time>2020-06-24T09:23:30.008Z</time>
      </trkpt>
      <trkpt lat="48.68664" lon="-2.31653">
        <ele>61</ele>
        <time>2020-06-24T09:23:31.008Z</time>
      </trkpt>
      <trkpt lat="48.68663" lon="-2.31652">
        <ele>61</ele>
        <time>2020-06-24T09:23:32.008Z</time>
      </trkpt>
      <trkpt lat="48.68662" lon="-2.3165">
        <ele>61</ele>
        <time>2020-06-24T09:23:33.008Z</time>
      </trkpt>
      <trkpt lat="48.6866" lon="-2.31649">
        <ele>61</ele>
        <time>2020-06-24T09:23:34.008Z</time>
      </trkpt>
      <trkpt lat="48.68659" lon="-2.31647">
        <ele>61</ele>
        <time>2020-06-24T09:23:35.008Z</time>
      </trkpt>
      <trkpt lat="48.68658" lon="-2.31646">
        <ele>61</ele>
        <time>2020-06-24T09:23:36.008Z</time>
      </trkpt>
      <trkpt lat="48.68657" lon="-2.31646">
        <ele>61</ele>
        <time>2020-06-24T09:23:37.008Z</time>
      </trkpt>
      <trkpt lat="48.68655" lon="-2.31645">
        <ele>61</ele>
        <time>2020-06-24T09:23:38.008Z</time>
      </trkpt>
      <trkpt lat="48.68654" lon="-2.31645">
        <ele>62</ele>
        <time>2020-06-24T09:23:39.008Z</time>
      </trkpt>
      <trkpt lat="48.68653" lon="-2.31645">
        <ele>62</ele>
        <time>2020-06-24T09:23:40.008Z</time>
      </trkpt>
      <trkpt lat="48.68652" lon="-2.31645">
        <ele>62</ele>
        <time>2020-06-24T09:23:41.008Z</time>
      </trkpt>
      <trkpt lat="48.68651" lon="-2.31645">
        <ele>62</ele>
        <time>2020-06-24T09:23:42.008Z</time>
      </trkpt>
      <trkpt lat="48.68649" lon="-2.31645">
        <ele>63</ele>
        <time>2020-06-24T09:23:43.008Z</time>
      </trkpt>
      <trkpt lat="48.68648" lon="-2.31645">
        <ele>63</ele>
        <time>2020-06-24T09:23:44.008Z</time>
      </trkpt>
      <trkpt lat="48.68647" lon="-2.31645">
        <ele>63</ele>
        <time>2020-06-24T09:23:45.008Z</time>
      </trkpt>
      <trkpt lat="48.68646" lon="-2.31645">
        <ele>64</ele>
        <time>2020-06-24T09:23:46.008Z</time>
      </trkpt>
      <trkpt lat="48.68644" lon="-2.31645">
        <ele>64</ele>
        <time>2020-06-24T09:23:47.008Z</time>
      </trkpt>
      <trkpt lat="48.68643" lon="-2.31645">
        <ele>64</ele>
        <time>2020-06-24T09:23:48.008Z</time>
      </trkpt>
      <trkpt lat="48.68642" lon="-2.31645">
        <ele>64</ele>
        <time>2020-06-24T09:23:49.008Z</time>
      </trkpt>
      <trkpt lat="48.6864" lon="-2.31645">
        <ele>64</ele>
        <time>2020-06-24T09:23:50.008Z</time>
      </trkpt>
      <trkpt lat="48.68639" lon="-2.31646">
        <ele>64</ele>
        <time>2020-06-24T09:23:51.008Z</time>
      </trkpt>
      <trkpt lat="48.68638" lon="-2.31646">
        <ele>64</ele>
        <time>2020-06-24T09:23:52.008Z</time>
      </trkpt>
      <trkpt lat="48.68636" lon="-2.31646">
        <ele>64</ele>
        <time>2020-06-24T09:23:53.008Z</time>
      </trkpt>
      <trkpt lat="48.68635" lon="-2.31646">
        <ele>64</ele>
        <time>2020-06-24T09:23:54.008Z</time>
      </trkpt>
      <trkpt lat="48.68634" lon="-2.31646">
        <ele>64</ele>
        <time>2020-06-24T09:23:55.008Z</time>
      </trkpt>
      <trkpt lat="48.68633" lon="-2.31646">
        <ele>64</ele>
        <time>2020-06-24T09:23:56.008Z</time>
      </trkpt>
      <trkpt lat="48.68631" lon="-2.31646">
        <ele>64</ele>
        <time>2020-06-24T09:23:57.008Z</time>
      </trkpt>
      <trkpt lat="48.6863" lon="-2.31646">
        <ele>64</ele>
        <time>2020-06-24T09:23:58.008Z</time>
      </trkpt>
      <trkpt lat="48.68629" lon="-2.31646">
        <ele>64</ele>
        <time>2020-06-24T09:23:59.008Z</time>
      </trkpt>
      <trkpt lat="48.68627" lon="-2.31646">
        <ele>64</ele>
        <time>2020-06-24T09:24:00.008Z</time>
      </trkpt>
      <trkpt lat="48.68626" lon="-2.31645">
        <ele>63</ele>
        <time>2020-06-24T09:24:01.008Z</time>
      </trkpt>
      <trkpt lat="48.68625" lon="-2.31645">
        <ele>63</ele>
        <time>2020-06-24T09:24:02.008Z</time>
      </trkpt>
      <trkpt lat="48.68624" lon="-2.31645">
        <ele>63</ele>
        <time>2020-06-24T09:24:03.008Z</time>
      </trkpt>
      <trkpt lat="48.68622" lon="-2.31645">
        <ele>63</ele>
        <time>2020-06-24T09:24:04.008Z</time>
      </trkpt>
      <trkpt lat="48.68621" lon="-2.31645">
        <ele>63</ele>
        <time>2020-06-24T09:24:05.008Z</time>
      </trkpt>
      <trkpt lat="48.6862" lon="-2.31645">
        <ele>63</ele>
        <time>2020-06-24T09:24:06.008Z</time>
      </trkpt>
      <trkpt lat="48.68619" lon="-2.31645">
        <ele>63</ele>
        <time>2020-06-24T09:24:07.008Z</time>
      </trkpt>
      <trkpt lat="48.68618" lon="-2.31645">
        <ele>63</ele>
        <time>2020-06-24T09:24:08.008Z</time>
      </trkpt>
      <trkpt lat="48.68617" lon="-2.31645">
        <ele>63</ele>
        <time>2020-06-24T09:24:09.008Z</time>
      </trkpt>
      <trkpt lat="48.68616" lon="-2.31644">
        <ele>63</ele>
        <time>2020-06-24T09:24:10.008Z</time>
      </trkpt>
      <trkpt lat="48.68615" lon="-2.31644">
        <ele>63</ele>
        <time>2020-06-24T09:24:11.008Z</time>
      </trkpt>
      <trkpt lat="48.68613" lon="-2.31643">
        <ele>63</ele>
        <time>2020-06-24T09:24:12.008Z</time>
      </trkpt>
      <trkpt lat="48.68612" lon="-2.31644">
        <ele>63</ele>
        <time>2020-06-24T09:24:13.008Z</time>
      </trkpt>
      <trkpt lat="48.68611" lon="-2.31644">
        <ele>63</ele>
        <time>2020-06-24T09:24:14.008Z</time>
      </trkpt>
      <trkpt lat="48.6861" lon="-2.31644">
        <ele>63</ele>
        <time>2020-06-24T09:24:15.008Z</time>
      </trkpt>
      <trkpt lat="48.68608" lon="-2.31645">
        <ele>63</ele>
        <time>2020-06-24T09:24:16.008Z</time>
      </trkpt>
      <trkpt lat="48.68607" lon="-2.31645">
        <ele>63</ele>
        <time>2020-06-24T09:24:17.008Z</time>
      </trkpt>
      <trkpt lat="48.68606" lon="-2.31646">
        <ele>63</ele>
        <time>2020-06-24T09:24:18.008Z</time>
      </trkpt>
      <trkpt lat="48.68605" lon="-2.31646">
        <ele>63</ele>
        <time>2020-06-24T09:24:19.008Z</time>
      </trkpt>
      <trkpt lat="48.68604" lon="-2.31647">
        <ele>64</ele>
        <time>2020-06-24T09:24:20.008Z</time>
      </trkpt>
      <trkpt lat="48.68603" lon="-2.31647">
        <ele>64</ele>
        <time>2020-06-24T09:24:21.008Z</time>
      </trkpt>
      <trkpt lat="48.68602" lon="-2.31647">
        <ele>64</ele>
        <time>2020-06-24T09:24:22.008Z</time>
      </trkpt>
      <trkpt lat="48.68601" lon="-2.31647">
        <ele>63</ele>
        <time>2020-06-24T09:24:23.008Z</time>
      </trkpt>
      <trkpt lat="48.686" lon="-2.31647">
        <ele>63</ele>
        <time>2020-06-24T09:24:24.008Z</time>
      </trkpt>
      <trkpt lat="48.68599" lon="-2.31648">
        <ele>63</ele>
        <time>2020-06-24T09:24:25.008Z</time>
      </trkpt>
      <trkpt lat="48.68599" lon="-2.31648">
        <ele>64</ele>
        <time>2020-06-24T09:24:26.008Z</time>
      </trkpt>
      <trkpt lat="48.68598" lon="-2.31648">
        <ele>63</ele>
        <time>2020-06-24T09:24:27.008Z</time>
      </trkpt>
      <trkpt lat="48.68598" lon="-2.31649">
        <ele>63</ele>
        <time>2020-06-24T09:24:28.008Z</time>
      </trkpt>
      <trkpt lat="48.68597" lon="-2.31649">
        <ele>63</ele>
        <time>2020-06-24T09:24:29.008Z</time>
      </trkpt>
      <trkpt lat="48.68596" lon="-2.31649">
        <ele>63</ele>
        <time>2020-06-24T09:24:30.008Z</time>
      </trkpt>
      <trkpt lat="48.68595" lon="-2.31649">
        <ele>63</ele>
        <time>2020-06-24T09:24:31.008Z</time>
      </trkpt>
      <trkpt lat="48.68595" lon="-2.3165">
        <ele>63</ele>
        <time>2020-06-24T09:24:32.008Z</time>
      </trkpt>
      <trkpt lat="48.68594" lon="-2.3165">
        <ele>62</ele>
        <time>2020-06-24T09:24:33.008Z</time>
      </trkpt>
      <trkpt lat="48.68593" lon="-2.31651">
        <ele>62</ele>
        <time>2020-06-24T09:24:34.008Z</time>
      </trkpt>
      <trkpt lat="48.68593" lon="-2.31652">
        <ele>62</ele>
        <time>2020-06-24T09:24:35.008Z</time>
      </trkpt>
      <trkpt lat="48.68592" lon="-2.31652">
        <ele>62</ele>
        <time>2020-06-24T09:24:36.008Z</time>
      </trkpt>
      <trkpt lat="48.68591" lon="-2.31653">
        <ele>62</ele>
        <time>2020-06-24T09:24:37.008Z</time>
      </trkpt>
      <trkpt lat="48.6859" lon="-2.31654">
        <ele>62</ele>
        <time>2020-06-24T09:24:38.008Z</time>
      </trkpt>
      <trkpt lat="48.68589" lon="-2.31654">
        <ele>61</ele>
        <time>2020-06-24T09:24:39.008Z</time>
      </trkpt>
      <trkpt lat="48.68588" lon="-2.31654">
        <ele>61</ele>
        <time>2020-06-24T09:24:40.008Z</time>
      </trkpt>
      <trkpt lat="48.68586" lon="-2.31654">
        <ele>61</ele>
        <time>2020-06-24T09:24:41.008Z</time>
      </trkpt>
      <trkpt lat="48.68585" lon="-2.31654">
        <ele>61</ele>
        <time>2020-06-24T09:24:42.008Z</time>
      </trkpt>
      <trkpt lat="48.68584" lon="-2.31655">
        <ele>61</ele>
        <time>2020-06-24T09:24:43.008Z</time>
      </trkpt>
      <trkpt lat="48.68583" lon="-2.31655">
        <ele>62</ele>
        <time>2020-06-24T09:24:44.008Z</time>
      </trkpt>
      <trkpt lat="48.68582" lon="-2.31655">
        <ele>62</ele>
        <time>2020-06-24T09:24:45.008Z</time>
      </trkpt>
      <trkpt lat="48.68581" lon="-2.31655">
        <ele>62</ele>
        <time>2020-06-24T09:24:46.008Z</time>
      </trkpt>
      <trkpt lat="48.6858" lon="-2.31655">
        <ele>62</ele>
        <time>2020-06-24T09:24:47.008Z</time>
      </trkpt>
      <trkpt lat="48.68579" lon="-2.31655">
        <ele>63</ele>
        <time>2020-06-24T09:24:48.008Z</time>
      </trkpt>
      <trkpt lat="48.68577" lon="-2.31656">
        <ele>63</ele>
        <time>2020-06-24T09:24:49.008Z</time>
      </trkpt>
      <trkpt lat="48.68576" lon="-2.31656">
        <ele>64</ele>
        <time>2020-06-24T09:24:50.008Z</time>
      </trkpt>
      <trkpt lat="48.68575" lon="-2.31656">
        <ele>64</ele>
        <time>2020-06-24T09:24:51.008Z</time>
      </trkpt>
      <trkpt lat="48.68574" lon="-2.31656">
        <ele>64</ele>
        <time>2020-06-24T09:24:52.008Z</time>
      </trkpt>
      <trkpt lat="48.68573" lon="-2.31656">
        <ele>64</ele>
        <time>2020-06-24T09:24:53.008Z</time>
      </trkpt>
      <trkpt lat="48.68573" lon="-2.31656">
        <ele>64</ele>
        <time>2020-06-24T09:24:54.008Z</time>
      </trkpt>
      <trkpt lat="48.68573" lon="-2.31656">
        <ele>63</ele>
        <time>2020-06-24T09:24:55.008Z</time>
      </trkpt>
      <trkpt lat="48.68573" lon="-2.31656">
        <ele>63</ele>
        <time>2020-06-24T09:24:56.008Z</time>
      </trkpt>
      <trkpt lat="48.68572" lon="-2.31656">
        <ele>63</ele>
        <time>2020-06-24T09:24:57.008Z</time>
      </trkpt>
      <trkpt lat="48.68572" lon="-2.31656">
        <ele>63</ele>
        <time>2020-06-24T09:24:58.008Z</time>
      </trkpt>
      <trkpt lat="48.68571" lon="-2.31655">
        <ele>63</ele>
        <time>2020-06-24T09:24:59.008Z</time>
      </trkpt>
      <trkpt lat="48.6857" lon="-2.31655">
        <ele>63</ele>
        <time>2020-06-24T09:25:00.008Z</time>
      </trkpt>
      <trkpt lat="48.68569" lon="-2.31654">
        <ele>63</ele>
        <time>2020-06-24T09:25:01.008Z</time>
      </trkpt>
      <trkpt lat="48.68568" lon="-2.31653">
        <ele>63</ele>
        <time>2020-06-24T09:25:02.008Z</time>
      </trkpt>
      <trkpt lat="48.68567" lon="-2.31652">
        <ele>63</ele>
        <time>2020-06-24T09:25:03.008Z</time>
      </trkpt>
      <trkpt lat="48.68566" lon="-2.31651">
        <ele>63</ele>
        <time>2020-06-24T09:25:04.008Z</time>
      </trkpt>
      <trkpt lat="48.68565" lon="-2.31649">
        <ele>63</ele>
        <time>2020-06-24T09:25:05.008Z</time>
      </trkpt>
      <trkpt lat="48.68564" lon="-2.31648">
        <ele>62</ele>
        <time>2020-06-24T09:25:06.008Z</time>
      </trkpt>
      <trkpt lat="48.68563" lon="-2.31647">
        <ele>62</ele>
        <time>2020-06-24T09:25:07.008Z</time>
      </trkpt>
      <trkpt lat="48.68562" lon="-2.31646">
        <ele>62</ele>
        <time>2020-06-24T09:25:08.008Z</time>
      </trkpt>
      <trkpt lat="48.68561" lon="-2.31645">
        <ele>62</ele>
        <time>2020-06-24T09:25:09.008Z</time>
      </trkpt>
      <trkpt lat="48.68561" lon="-2.31644">
        <ele>61</ele>
        <time>2020-06-24T09:25:10.008Z</time>
      </trkpt>
      <trkpt lat="48.6856" lon="-2.31642">
        <ele>61</ele>
        <time>2020-06-24T09:25:11.008Z</time>
      </trkpt>
      <trkpt lat="48.68559" lon="-2.31641">
        <ele>61</ele>
        <time>2020-06-24T09:25:12.008Z</time>
      </trkpt>
      <trkpt lat="48.68558" lon="-2.31641">
        <ele>61</ele>
        <time>2020-06-24T09:25:13.008Z</time>
      </trkpt>
      <trkpt lat="48.68557" lon="-2.3164">
        <ele>60</ele>
        <time>2020-06-24T09:25:14.008Z</time>
      </trkpt>
      <trkpt lat="48.68557" lon="-2.31639">
        <ele>60</ele>
        <time>2020-06-24T09:25:15.008Z</time>
      </trkpt>
      <trkpt lat="48.68557" lon="-2.31638">
        <ele>61</ele>
        <time>2020-06-24T09:25:16.008Z</time>
      </trkpt>
      <trkpt lat="48.68557" lon="-2.31636">
        <ele>61</ele>
        <time>2020-06-24T09:25:17.008Z</time>
      </trkpt>
      <trkpt lat="48.68557" lon="-2.31635">
        <ele>61</ele>
        <time>2020-06-24T09:25:18.008Z</time>
      </trkpt>
      <trkpt lat="48.68557" lon="-2.31635">
        <ele>61</ele>
        <time>2020-06-24T09:25:19.008Z</time>
      </trkpt>
      <trkpt lat="48.68557" lon="-2.31635">
        <ele>61</ele>
        <time>2020-06-24T09:25:20.008Z</time>
      </trkpt>
      <trkpt lat="48.68557" lon="-2.31635">
        <ele>61</ele>
        <time>2020-06-24T09:25:21.008Z</time>
      </trkpt>
      <trkpt lat="48.68557" lon="-2.31635">
        <ele>61</ele>
        <time>2020-06-24T09:25:22.008Z</time>
      </trkpt>
      <trkpt lat="48.68557" lon="-2.31635">
        <ele>61</ele>
        <time>2020-06-24T09:25:23.008Z</time>
      </trkpt>
      <trkpt lat="48.68557" lon="-2.31635">
        <ele>61</ele>
        <time>2020-06-24T09:25:24.008Z</time>
      </trkpt>
      <trkpt lat="48.68556" lon="-2.31638">
        <ele>60</ele>
        <time>2020-06-24T09:25:25.012Z</time>
      </trkpt>
      <trkpt lat="48.68555" lon="-2.3164">
        <ele>60</ele>
        <time>2020-06-24T09:25:26.012Z</time>
      </trkpt>
      <trkpt lat="48.68555" lon="-2.31641">
        <ele>60</ele>
        <time>2020-06-24T09:25:27.012Z</time>
      </trkpt>
      <trkpt lat="48.68554" lon="-2.31642">
        <ele>60</ele>
        <time>2020-06-24T09:25:28.012Z</time>
      </trkpt>
      <trkpt lat="48.68554" lon="-2.31644">
        <ele>60</ele>
        <time>2020-06-24T09:25:29.012Z</time>
      </trkpt>
      <trkpt lat="48.68554" lon="-2.31645">
        <ele>60</ele>
        <time>2020-06-24T09:25:30.012Z</time>
      </trkpt>
      <trkpt lat="48.68553" lon="-2.31646">
        <ele>60</ele>
        <time>2020-06-24T09:25:31.012Z</time>
      </trkpt>
      <trkpt lat="48.68553" lon="-2.31647">
        <ele>61</ele>
        <time>2020-06-24T09:25:32.012Z</time>
      </trkpt>
      <trkpt lat="48.68553" lon="-2.31647">
        <ele>61</ele>
        <time>2020-06-24T09:25:33.012Z</time>
      </trkpt>
      <trkpt lat="48.68553" lon="-2.31648">
        <ele>60</ele>
        <time>2020-06-24T09:25:34.012Z</time>
      </trkpt>
      <trkpt lat="48.68552" lon="-2.31649">
        <ele>60</ele>
        <time>2020-06-24T09:25:35.012Z</time>
      </trkpt>
      <trkpt lat="48.68552" lon="-2.3165">
        <ele>61</ele>
        <time>2020-06-24T09:25:36.012Z</time>
      </trkpt>
      <trkpt lat="48.68552" lon="-2.3165">
        <ele>61</ele>
        <time>2020-06-24T09:25:37.012Z</time>
      </trkpt>
      <trkpt lat="48.68552" lon="-2.31651">
        <ele>61</ele>
        <time>2020-06-24T09:25:38.012Z</time>
      </trkpt>
      <trkpt lat="48.68552" lon="-2.31653">
        <ele>61</ele>
        <time>2020-06-24T09:25:39.012Z</time>
      </trkpt>
      <trkpt lat="48.68553" lon="-2.31655">
        <ele>62</ele>
        <time>2020-06-24T09:25:40.012Z</time>
      </trkpt>
      <trkpt lat="48.68553" lon="-2.31657">
        <ele>61</ele>
        <time>2020-06-24T09:25:41.012Z</time>
      </trkpt>
      <trkpt lat="48.68552" lon="-2.31659">
        <ele>61</ele>
        <time>2020-06-24T09:25:42.012Z</time>
      </trkpt>
      <trkpt lat="48.68552" lon="-2.3166">
        <ele>61</ele>
        <time>2020-06-24T09:25:43.012Z</time>
      </trkpt>
      <trkpt lat="48.68552" lon="-2.31662">
        <ele>61</ele>
        <time>2020-06-24T09:25:44.012Z</time>
      </trkpt>
      <trkpt lat="48.68551" lon="-2.31663">
        <ele>60</ele>
        <time>2020-06-24T09:25:45.012Z</time>
      </trkpt>
      <trkpt lat="48.68551" lon="-2.31663">
        <ele>60</ele>
        <time>2020-06-24T09:25:46.012Z</time>
      </trkpt>
      <trkpt lat="48.6855" lon="-2.31662">
        <ele>61</ele>
        <time>2020-06-24T09:25:47.012Z</time>
      </trkpt>
      <trkpt lat="48.68549" lon="-2.31661">
        <ele>60</ele>
        <time>2020-06-24T09:25:48.012Z</time>
      </trkpt>
      <trkpt lat="48.68548" lon="-2.31659">
        <ele>60</ele>
        <time>2020-06-24T09:25:49.012Z</time>
      </trkpt>
      <trkpt lat="48.68547" lon="-2.31658">
        <ele>60</ele>
        <time>2020-06-24T09:25:50.012Z</time>
      </trkpt>
      <trkpt lat="48.68546" lon="-2.31657">
        <ele>60</ele>
        <time>2020-06-24T09:25:51.012Z</time>
      </trkpt>
      <trkpt lat="48.68545" lon="-2.31656">
        <ele>60</ele>
        <time>2020-06-24T09:25:52.012Z</time>
      </trkpt>
      <trkpt lat="48.68544" lon="-2.31654">
        <ele>60</ele>
        <time>2020-06-24T09:25:53.012Z</time>
      </trkpt>
      <trkpt lat="48.68543" lon="-2.31653">
        <ele>60</ele>
        <time>2020-06-24T09:25:54.012Z</time>
      </trkpt>
      <trkpt lat="48.68542" lon="-2.31651">
        <ele>60</ele>
        <time>2020-06-24T09:25:55.012Z</time>
      </trkpt>
      <trkpt lat="48.68541" lon="-2.3165">
        <ele>59</ele>
        <time>2020-06-24T09:25:56.012Z</time>
      </trkpt>
      <trkpt lat="48.6854" lon="-2.31649">
        <ele>59</ele>
        <time>2020-06-24T09:25:57.012Z</time>
      </trkpt>
      <trkpt lat="48.68539" lon="-2.31647">
        <ele>59</ele>
        <time>2020-06-24T09:25:58.012Z</time>
      </trkpt>
      <trkpt lat="48.68538" lon="-2.31646">
        <ele>59</ele>
        <time>2020-06-24T09:25:59.012Z</time>
      </trkpt>
      <trkpt lat="48.68537" lon="-2.31645">
        <ele>59</ele>
        <time>2020-06-24T09:26:00.012Z</time>
      </trkpt>
      <trkpt lat="48.68536" lon="-2.31644">
        <ele>59</ele>
        <time>2020-06-24T09:26:01.012Z</time>
      </trkpt>
      <trkpt lat="48.68535" lon="-2.31643">
        <ele>60</ele>
        <time>2020-06-24T09:26:02.012Z</time>
      </trkpt>
      <trkpt lat="48.68534" lon="-2.31641">
        <ele>60</ele>
        <time>2020-06-24T09:26:03.012Z</time>
      </trkpt>
      <trkpt lat="48.68533" lon="-2.3164">
        <ele>59</ele>
        <time>2020-06-24T09:26:04.012Z</time>
      </trkpt>
      <trkpt lat="48.68533" lon="-2.31639">
        <ele>59</ele>
        <time>2020-06-24T09:26:05.012Z</time>
      </trkpt>
      <trkpt lat="48.68531" lon="-2.31638">
        <ele>59</ele>
        <time>2020-06-24T09:26:06.012Z</time>
      </trkpt>
      <trkpt lat="48.6853" lon="-2.31637">
        <ele>60</ele>
        <time>2020-06-24T09:26:07.012Z</time>
      </trkpt>
      <trkpt lat="48.68529" lon="-2.31636">
        <ele>60</ele>
        <time>2020-06-24T09:26:08.012Z</time>
      </trkpt>
      <trkpt lat="48.68528" lon="-2.31635">
        <ele>59</ele>
        <time>2020-06-24T09:26:09.012Z</time>
      </trkpt>
      <trkpt lat="48.68527" lon="-2.31635">
        <ele>59</ele>
        <time>2020-06-24T09:26:10.012Z</time>
      </trkpt>
      <trkpt lat="48.68525" lon="-2.31633">
        <ele>60</ele>
        <time>2020-06-24T09:26:11.012Z</time>
      </trkpt>
      <trkpt lat="48.68524" lon="-2.31632">
        <ele>61</ele>
        <time>2020-06-24T09:26:12.012Z</time>
      </trkpt>
      <trkpt lat="48.68523" lon="-2.31631">
        <ele>61</ele>
        <time>2020-06-24T09:26:13.012Z</time>
      </trkpt>
      <trkpt lat="48.68522" lon="-2.31629">
        <ele>61</ele>
        <time>2020-06-24T09:26:14.012Z</time>
      </trkpt>
      <trkpt lat="48.68521" lon="-2.31628">
        <ele>62</ele>
        <time>2020-06-24T09:26:15.012Z</time>
      </trkpt>
      <trkpt lat="48.6852" lon="-2.31627">
        <ele>61</ele>
        <time>2020-06-24T09:26:16.012Z</time>
      </trkpt>
      <trkpt lat="48.68519" lon="-2.31626">
        <ele>61</ele>
        <time>2020-06-24T09:26:17.012Z</time>
      </trkpt>
      <trkpt lat="48.68518" lon="-2.31624">
        <ele>62</ele>
        <time>2020-06-24T09:26:18.012Z</time>
      </trkpt>
      <trkpt lat="48.68517" lon="-2.31623">
        <ele>62</ele>
        <time>2020-06-24T09:26:19.012Z</time>
      </trkpt>
      <trkpt lat="48.68515" lon="-2.31622">
        <ele>62</ele>
        <time>2020-06-24T09:26:20.012Z</time>
      </trkpt>
      <trkpt lat="48.68514" lon="-2.31621">
        <ele>62</ele>
        <time>2020-06-24T09:26:21.012Z</time>
      </trkpt>
      <trkpt lat="48.68513" lon="-2.31619">
        <ele>62</ele>
        <time>2020-06-24T09:26:22.012Z</time>
      </trkpt>
      <trkpt lat="48.68512" lon="-2.31618">
        <ele>62</ele>
        <time>2020-06-24T09:26:23.012Z</time>
      </trkpt>
      <trkpt lat="48.68512" lon="-2.31617">
        <ele>62</ele>
        <time>2020-06-24T09:26:24.012Z</time>
      </trkpt>
      <trkpt lat="48.68511" lon="-2.31615">
        <ele>62</ele>
        <time>2020-06-24T09:26:25.012Z</time>
      </trkpt>
      <trkpt lat="48.6851" lon="-2.31614">
        <ele>62</ele>
        <time>2020-06-24T09:26:26.012Z</time>
      </trkpt>
      <trkpt lat="48.68509" lon="-2.31612">
        <ele>62</ele>
        <time>2020-06-24T09:26:27.012Z</time>
      </trkpt>
      <trkpt lat="48.68508" lon="-2.31611">
        <ele>62</ele>
        <time>2020-06-24T09:26:28.012Z</time>
      </trkpt>
      <trkpt lat="48.68507" lon="-2.31609">
        <ele>62</ele>
        <time>2020-06-24T09:26:29.012Z</time>
      </trkpt>
      <trkpt lat="48.68507" lon="-2.31608">
        <ele>62</ele>
        <time>2020-06-24T09:26:30.012Z</time>
      </trkpt>
      <trkpt lat="48.68506" lon="-2.31606">
        <ele>62</ele>
        <time>2020-06-24T09:26:31.012Z</time>
      </trkpt>
      <trkpt lat="48.68505" lon="-2.31605">
        <ele>62</ele>
        <time>2020-06-24T09:26:32.012Z</time>
      </trkpt>
      <trkpt lat="48.68505" lon="-2.31603">
        <ele>61</ele>
        <time>2020-06-24T09:26:33.012Z</time>
      </trkpt>
      <trkpt lat="48.68504" lon="-2.31602">
        <ele>61</ele>
        <time>2020-06-24T09:26:34.012Z</time>
      </trkpt>
      <trkpt lat="48.68503" lon="-2.31602">
        <ele>61</ele>
        <time>2020-06-24T09:26:35.012Z</time>
      </trkpt>
      <trkpt lat="48.68502" lon="-2.31601">
        <ele>61</ele>
        <time>2020-06-24T09:26:36.012Z</time>
      </trkpt>
      <trkpt lat="48.68501" lon="-2.316">
        <ele>60</ele>
        <time>2020-06-24T09:26:37.012Z</time>
      </trkpt>
      <trkpt lat="48.68501" lon="-2.31598">
        <ele>60</ele>
        <time>2020-06-24T09:26:38.012Z</time>
      </trkpt>
      <trkpt lat="48.685" lon="-2.31597">
        <ele>60</ele>
        <time>2020-06-24T09:26:39.012Z</time>
      </trkpt>
      <trkpt lat="48.68499" lon="-2.31596">
        <ele>60</ele>
        <time>2020-06-24T09:26:40.012Z</time>
      </trkpt>
      <trkpt lat="48.68498" lon="-2.31595">
        <ele>61</ele>
        <time>2020-06-24T09:26:41.012Z</time>
      </trkpt>
      <trkpt lat="48.68497" lon="-2.31593">
        <ele>60</ele>
        <time>2020-06-24T09:26:42.012Z</time>
      </trkpt>
      <trkpt lat="48.68496" lon="-2.31592">
        <ele>60</ele>
        <time>2020-06-24T09:26:43.012Z</time>
      </trkpt>
      <trkpt lat="48.68495" lon="-2.31591">
        <ele>60</ele>
        <time>2020-06-24T09:26:44.012Z</time>
      </trkpt>
      <trkpt lat="48.68494" lon="-2.3159">
        <ele>60</ele>
        <time>2020-06-24T09:26:45.012Z</time>
      </trkpt>
      <trkpt lat="48.68493" lon="-2.31588">
        <ele>60</ele>
        <time>2020-06-24T09:26:46.012Z</time>
      </trkpt>
      <trkpt lat="48.68492" lon="-2.31587">
        <ele>60</ele>
        <time>2020-06-24T09:26:47.012Z</time>
      </trkpt>
      <trkpt lat="48.68492" lon="-2.31586">
        <ele>60</ele>
        <time>2020-06-24T09:26:48.012Z</time>
      </trkpt>
      <trkpt lat="48.68491" lon="-2.31584">
        <ele>60</ele>
        <time>2020-06-24T09:26:49.012Z</time>
      </trkpt>
      <trkpt lat="48.6849" lon="-2.31583">
        <ele>60</ele>
        <time>2020-06-24T09:26:50.012Z</time>
      </trkpt>
      <trkpt lat="48.68489" lon="-2.31582">
        <ele>60</ele>
        <time>2020-06-24T09:26:51.012Z</time>
      </trkpt>
      <trkpt lat="48.68488" lon="-2.31581">
        <ele>60</ele>
        <time>2020-06-24T09:26:52.012Z</time>
      </trkpt>
      <trkpt lat="48.68487" lon="-2.31579">
        <ele>60</ele>
        <time>2020-06-24T09:26:53.012Z</time>
      </trkpt>
      <trkpt lat="48.68486" lon="-2.31578">
        <ele>59</ele>
        <time>2020-06-24T09:26:54.012Z</time>
      </trkpt>
      <trkpt lat="48.68485" lon="-2.31577">
        <ele>59</ele>
        <time>2020-06-24T09:26:55.012Z</time>
      </trkpt>
      <trkpt lat="48.68484" lon="-2.31576">
        <ele>59</ele>
        <time>2020-06-24T09:26:56.012Z</time>
      </trkpt>
      <trkpt lat="48.68483" lon="-2.31574">
        <ele>59</ele>
        <time>2020-06-24T09:26:57.012Z</time>
      </trkpt>
      <trkpt lat="48.68482" lon="-2.31573">
        <ele>59</ele>
        <time>2020-06-24T09:26:58.012Z</time>
      </trkpt>
      <trkpt lat="48.68481" lon="-2.31572">
        <ele>59</ele>
        <time>2020-06-24T09:26:59.012Z</time>
      </trkpt>
      <trkpt lat="48.6848" lon="-2.31571">
        <ele>59</ele>
        <time>2020-06-24T09:27:00.012Z</time>
      </trkpt>
      <trkpt lat="48.68479" lon="-2.3157">
        <ele>59</ele>
        <time>2020-06-24T09:27:01.012Z</time>
      </trkpt>
      <trkpt lat="48.68478" lon="-2.31569">
        <ele>59</ele>
        <time>2020-06-24T09:27:02.012Z</time>
      </trkpt>
      <trkpt lat="48.68477" lon="-2.31567">
        <ele>60</ele>
        <time>2020-06-24T09:27:03.012Z</time>
      </trkpt>
      <trkpt lat="48.68476" lon="-2.31566">
        <ele>60</ele>
        <time>2020-06-24T09:27:04.012Z</time>
      </trkpt>
      <trkpt lat="48.68475" lon="-2.31564">
        <ele>59</ele>
        <time>2020-06-24T09:27:05.012Z</time>
      </trkpt>
      <trkpt lat="48.68474" lon="-2.31563">
        <ele>59</ele>
        <time>2020-06-24T09:27:06.012Z</time>
      </trkpt>
      <trkpt lat="48.68473" lon="-2.31561">
        <ele>60</ele>
        <time>2020-06-24T09:27:07.012Z</time>
      </trkpt>
      <trkpt lat="48.68472" lon="-2.3156">
        <ele>60</ele>
        <time>2020-06-24T09:27:08.012Z</time>
      </trkpt>
      <trkpt lat="48.68471" lon="-2.31559">
        <ele>60</ele>
        <time>2020-06-24T09:27:09.012Z</time>
      </trkpt>
      <trkpt lat="48.6847" lon="-2.31558">
        <ele>60</ele>
        <time>2020-06-24T09:27:10.012Z</time>
      </trkpt>
      <trkpt lat="48.68469" lon="-2.31556">
        <ele>60</ele>
        <time>2020-06-24T09:27:11.012Z</time>
      </trkpt>
      <trkpt lat="48.68468" lon="-2.31555">
        <ele>60</ele>
        <time>2020-06-24T09:27:12.012Z</time>
      </trkpt>
      <trkpt lat="48.68467" lon="-2.31554">
        <ele>60</ele>
        <time>2020-06-24T09:27:13.012Z</time>
      </trkpt>
      <trkpt lat="48.68466" lon="-2.31553">
        <ele>60</ele>
        <time>2020-06-24T09:27:14.012Z</time>
      </trkpt>
      <trkpt lat="48.68465" lon="-2.31552">
        <ele>61</ele>
        <time>2020-06-24T09:27:15.012Z</time>
      </trkpt>
      <trkpt lat="48.68464" lon="-2.31551">
        <ele>61</ele>
        <time>2020-06-24T09:27:16.012Z</time>
      </trkpt>
      <trkpt lat="48.68463" lon="-2.3155">
        <ele>61</ele>
        <time>2020-06-24T09:27:17.012Z</time>
      </trkpt>
      <trkpt lat="48.68462" lon="-2.31549">
        <ele>60</ele>
        <time>2020-06-24T09:27:18.012Z</time>
      </trkpt>
      <trkpt lat="48.68461" lon="-2.31548">
        <ele>60</ele>
        <time>2020-06-24T09:27:19.012Z</time>
      </trkpt>
      <trkpt lat="48.6846" lon="-2.31546">
        <ele>60</ele>
        <time>2020-06-24T09:27:20.012Z</time>
      </trkpt>
      <trkpt lat="48.68459" lon="-2.31545">
        <ele>60</ele>
        <time>2020-06-24T09:27:21.012Z</time>
      </trkpt>
      <trkpt lat="48.68458" lon="-2.31544">
        <ele>60</ele>
        <time>2020-06-24T09:27:22.012Z</time>
      </trkpt>
      <trkpt lat="48.68457" lon="-2.31543">
        <ele>60</ele>
        <time>2020-06-24T09:27:23.012Z</time>
      </trkpt>
      <trkpt lat="48.68456" lon="-2.31542">
        <ele>60</ele>
        <time>2020-06-24T09:27:24.012Z</time>
      </trkpt>
      <trkpt lat="48.68455" lon="-2.3154">
        <ele>60</ele>
        <time>2020-06-24T09:27:25.012Z</time>
      </trkpt>
      <trkpt lat="48.68454" lon="-2.31539">
        <ele>60</ele>
        <time>2020-06-24T09:27:26.012Z</time>
      </trkpt>
      <trkpt lat="48.68453" lon="-2.31538">
        <ele>60</ele>
        <time>2020-06-24T09:27:27.012Z</time>
      </trkpt>
      <trkpt lat="48.68453" lon="-2.31537">
        <ele>59</ele>
        <time>2020-06-24T09:27:28.012Z</time>
      </trkpt>
      <trkpt lat="48.68452" lon="-2.31536">
        <ele>59</ele>
        <time>2020-06-24T09:27:29.012Z</time>
      </trkpt>
      <trkpt lat="48.68451" lon="-2.31534">
        <ele>60</ele>
        <time>2020-06-24T09:27:30.012Z</time>
      </trkpt>
      <trkpt lat="48.6845" lon="-2.31533">
        <ele>60</ele>
        <time>2020-06-24T09:27:31.012Z</time>
      </trkpt>
      <trkpt lat="48.68449" lon="-2.31532">
        <ele>60</ele>
        <time>2020-06-24T09:27:32.012Z</time>
      </trkpt>
      <trkpt lat="48.68448" lon="-2.31531">
        <ele>60</ele>
        <time>2020-06-24T09:27:33.012Z</time>
      </trkpt>
      <trkpt lat="48.68447" lon="-2.31531">
        <ele>60</ele>
        <time>2020-06-24T09:27:34.012Z</time>
      </trkpt>
      <trkpt lat="48.68445" lon="-2.3153">
        <ele>60</ele>
        <time>2020-06-24T09:27:35.012Z</time>
      </trkpt>
      <trkpt lat="48.68444" lon="-2.31529">
        <ele>60</ele>
        <time>2020-06-24T09:27:36.012Z</time>
      </trkpt>
      <trkpt lat="48.68443" lon="-2.31528">
        <ele>61</ele>
        <time>2020-06-24T09:27:37.012Z</time>
      </trkpt>
      <trkpt lat="48.68442" lon="-2.31528">
        <ele>61</ele>
        <time>2020-06-24T09:27:38.012Z</time>
      </trkpt>
      <trkpt lat="48.68441" lon="-2.31528">
        <ele>61</ele>
        <time>2020-06-24T09:27:39.012Z</time>
      </trkpt>
      <trkpt lat="48.6844" lon="-2.31527">
        <ele>61</ele>
        <time>2020-06-24T09:27:40.012Z</time>
      </trkpt>
      <trkpt lat="48.68438" lon="-2.31527">
        <ele>61</ele>
        <time>2020-06-24T09:27:41.012Z</time>
      </trkpt>
      <trkpt lat="48.68437" lon="-2.31527">
        <ele>61</ele>
        <time>2020-06-24T09:27:42.012Z</time>
      </trkpt>
      <trkpt lat="48.68436" lon="-2.31527">
        <ele>61</ele>
        <time>2020-06-24T09:27:43.012Z</time>
      </trkpt>
      <trkpt lat="48.68435" lon="-2.31528">
        <ele>61</ele>
        <time>2020-06-24T09:27:44.012Z</time>
      </trkpt>
      <trkpt lat="48.68434" lon="-2.31528">
        <ele>61</ele>
        <time>2020-06-24T09:27:45.012Z</time>
      </trkpt>
      <trkpt lat="48.68433" lon="-2.31528">
        <ele>61</ele>
        <time>2020-06-24T09:27:46.012Z</time>
      </trkpt>
      <trkpt lat="48.68432" lon="-2.31528">
        <ele>60</ele>
        <time>2020-06-24T09:27:47.012Z</time>
      </trkpt>
      <trkpt lat="48.6843" lon="-2.31528">
        <ele>61</ele>
        <time>2020-06-24T09:27:48.012Z</time>
      </trkpt>
      <trkpt lat="48.68429" lon="-2.31528">
        <ele>61</ele>
        <time>2020-06-24T09:27:49.012Z</time>
      </trkpt>
      <trkpt lat="48.68429" lon="-2.31528">
        <ele>61</ele>
        <time>2020-06-24T09:27:50.012Z</time>
      </trkpt>
      <trkpt lat="48.68428" lon="-2.31528">
        <ele>62</ele>
        <time>2020-06-24T09:27:51.012Z</time>
      </trkpt>
      <trkpt lat="48.68426" lon="-2.31528">
        <ele>62</ele>
        <time>2020-06-24T09:27:52.012Z</time>
      </trkpt>
      <trkpt lat="48.68425" lon="-2.31528">
        <ele>63</ele>
        <time>2020-06-24T09:27:53.012Z</time>
      </trkpt>
      <trkpt lat="48.68424" lon="-2.31528">
        <ele>63</ele>
        <time>2020-06-24T09:27:54.012Z</time>
      </trkpt>
      <trkpt lat="48.68423" lon="-2.31528">
        <ele>63</ele>
        <time>2020-06-24T09:27:55.012Z</time>
      </trkpt>
      <trkpt lat="48.68422" lon="-2.31528">
        <ele>63</ele>
        <time>2020-06-24T09:27:56.012Z</time>
      </trkpt>
      <trkpt lat="48.68421" lon="-2.31528">
        <ele>64</ele>
        <time>2020-06-24T09:27:57.012Z</time>
      </trkpt>
      <trkpt lat="48.6842" lon="-2.31529">
        <ele>64</ele>
        <time>2020-06-24T09:27:58.012Z</time>
      </trkpt>
      <trkpt lat="48.68418" lon="-2.31529">
        <ele>65</ele>
        <time>2020-06-24T09:27:59.012Z</time>
      </trkpt>
      <trkpt lat="48.68417" lon="-2.31529">
        <ele>65</ele>
        <time>2020-06-24T09:28:00.012Z</time>
      </trkpt>
      <trkpt lat="48.68416" lon="-2.31529">
        <ele>65</ele>
        <time>2020-06-24T09:28:01.012Z</time>
      </trkpt>
      <trkpt lat="48.68415" lon="-2.3153">
        <ele>65</ele>
        <time>2020-06-24T09:28:02.012Z</time>
      </trkpt>
      <trkpt lat="48.68413" lon="-2.3153">
        <ele>66</ele>
        <time>2020-06-24T09:28:03.012Z</time>
      </trkpt>
      <trkpt lat="48.68412" lon="-2.3153">
        <ele>66</ele>
        <time>2020-06-24T09:28:04.012Z</time>
      </trkpt>
      <trkpt lat="48.68411" lon="-2.31529">
        <ele>67</ele>
        <time>2020-06-24T09:28:05.012Z</time>
      </trkpt>
      <trkpt lat="48.6841" lon="-2.31529">
        <ele>67</ele>
        <time>2020-06-24T09:28:06.012Z</time>
      </trkpt>
      <trkpt lat="48.68409" lon="-2.31529">
        <ele>67</ele>
        <time>2020-06-24T09:28:07.012Z</time>
      </trkpt>
      <trkpt lat="48.68408" lon="-2.31529">
        <ele>67</ele>
        <time>2020-06-24T09:28:08.012Z</time>
      </trkpt>
      <trkpt lat="48.68406" lon="-2.31528">
        <ele>68</ele>
        <time>2020-06-24T09:28:09.012Z</time>
      </trkpt>
      <trkpt lat="48.68405" lon="-2.31527">
        <ele>68</ele>
        <time>2020-06-24T09:28:10.012Z</time>
      </trkpt>
      <trkpt lat="48.68404" lon="-2.31526">
        <ele>68</ele>
        <time>2020-06-24T09:28:11.012Z</time>
      </trkpt>
      <trkpt lat="48.68402" lon="-2.31526">
        <ele>68</ele>
        <time>2020-06-24T09:28:12.012Z</time>
      </trkpt>
      <trkpt lat="48.68401" lon="-2.31525">
        <ele>68</ele>
        <time>2020-06-24T09:28:13.012Z</time>
      </trkpt>
      <trkpt lat="48.684" lon="-2.31525">
        <ele>68</ele>
        <time>2020-06-24T09:28:14.012Z</time>
      </trkpt>
      <trkpt lat="48.68399" lon="-2.31525">
        <ele>68</ele>
        <time>2020-06-24T09:28:15.012Z</time>
      </trkpt>
      <trkpt lat="48.68398" lon="-2.31525">
        <ele>68</ele>
        <time>2020-06-24T09:28:16.012Z</time>
      </trkpt>
      <trkpt lat="48.68397" lon="-2.31524">
        <ele>67</ele>
        <time>2020-06-24T09:28:17.012Z</time>
      </trkpt>
      <trkpt lat="48.68396" lon="-2.31524">
        <ele>67</ele>
        <time>2020-06-24T09:28:18.012Z</time>
      </trkpt>
      <trkpt lat="48.68395" lon="-2.31523">
        <ele>67</ele>
        <time>2020-06-24T09:28:19.012Z</time>
      </trkpt>
      <trkpt lat="48.68394" lon="-2.31523">
        <ele>67</ele>
        <time>2020-06-24T09:28:20.012Z</time>
      </trkpt>
      <trkpt lat="48.68393" lon="-2.31522">
        <ele>68</ele>
        <time>2020-06-24T09:28:21.012Z</time>
      </trkpt>
      <trkpt lat="48.68392" lon="-2.31522">
        <ele>68</ele>
        <time>2020-06-24T09:28:22.012Z</time>
      </trkpt>
      <trkpt lat="48.68391" lon="-2.31522">
        <ele>68</ele>
        <time>2020-06-24T09:28:23.012Z</time>
      </trkpt>
      <trkpt lat="48.6839" lon="-2.31522">
        <ele>68</ele>
        <time>2020-06-24T09:28:24.012Z</time>
      </trkpt>
      <trkpt lat="48.68389" lon="-2.31522">
        <ele>68</ele>
        <time>2020-06-24T09:28:25.012Z</time>
      </trkpt>
      <trkpt lat="48.68387" lon="-2.31522">
        <ele>68</ele>
        <time>2020-06-24T09:28:26.012Z</time>
      </trkpt>
      <trkpt lat="48.68386" lon="-2.31521">
        <ele>68</ele>
        <time>2020-06-24T09:28:27.012Z</time>
      </trkpt>
      <trkpt lat="48.68385" lon="-2.31521">
        <ele>68</ele>
        <time>2020-06-24T09:28:28.012Z</time>
      </trkpt>
      <trkpt lat="48.68384" lon="-2.3152">
        <ele>68</ele>
        <time>2020-06-24T09:28:29.012Z</time>
      </trkpt>
      <trkpt lat="48.68383" lon="-2.3152">
        <ele>68</ele>
        <time>2020-06-24T09:28:30.012Z</time>
      </trkpt>
      <trkpt lat="48.68382" lon="-2.3152">
        <ele>68</ele>
        <time>2020-06-24T09:28:31.012Z</time>
      </trkpt>
      <trkpt lat="48.68381" lon="-2.3152">
        <ele>67</ele>
        <time>2020-06-24T09:28:32.012Z</time>
      </trkpt>
      <trkpt lat="48.68379" lon="-2.31519">
        <ele>68</ele>
        <time>2020-06-24T09:28:33.012Z</time>
      </trkpt>
      <trkpt lat="48.68378" lon="-2.31519">
        <ele>68</ele>
        <time>2020-06-24T09:28:34.012Z</time>
      </trkpt>
      <trkpt lat="48.68377" lon="-2.31519">
        <ele>69</ele>
        <time>2020-06-24T09:28:35.012Z</time>
      </trkpt>
      <trkpt lat="48.68375" lon="-2.31519">
        <ele>68</ele>
        <time>2020-06-24T09:28:36.012Z</time>
      </trkpt>
      <trkpt lat="48.68374" lon="-2.31519">
        <ele>68</ele>
        <time>2020-06-24T09:28:37.012Z</time>
      </trkpt>
      <trkpt lat="48.68373" lon="-2.31519">
        <ele>68</ele>
        <time>2020-06-24T09:28:38.012Z</time>
      </trkpt>
      <trkpt lat="48.68372" lon="-2.31519">
        <ele>68</ele>
        <time>2020-06-24T09:28:39.012Z</time>
      </trkpt>
      <trkpt lat="48.68371" lon="-2.31518">
        <ele>68</ele>
        <time>2020-06-24T09:28:40.012Z</time>
      </trkpt>
      <trkpt lat="48.6837" lon="-2.31518">
        <ele>68</ele>
        <time>2020-06-24T09:28:41.012Z</time>
      </trkpt>
      <trkpt lat="48.68369" lon="-2.31518">
        <ele>68</ele>
        <time>2020-06-24T09:28:42.012Z</time>
      </trkpt>
      <trkpt lat="48.68367" lon="-2.31518">
        <ele>69</ele>
        <time>2020-06-24T09:28:43.012Z</time>
      </trkpt>
      <trkpt lat="48.68366" lon="-2.31518">
        <ele>69</ele>
        <time>2020-06-24T09:28:44.012Z</time>
      </trkpt>
      <trkpt lat="48.68365" lon="-2.31518">
        <ele>68</ele>
        <time>2020-06-24T09:28:45.012Z</time>
      </trkpt>
      <trkpt lat="48.68364" lon="-2.31518">
        <ele>68</ele>
        <time>2020-06-24T09:28:46.012Z</time>
      </trkpt>
      <trkpt lat="48.68363" lon="-2.31517">
        <ele>68</ele>
        <time>2020-06-24T09:28:47.012Z</time>
      </trkpt>
      <trkpt lat="48.68362" lon="-2.31517">
        <ele>68</ele>
        <time>2020-06-24T09:28:48.012Z</time>
      </trkpt>
      <trkpt lat="48.6836" lon="-2.31517">
        <ele>67</ele>
        <time>2020-06-24T09:28:49.012Z</time>
      </trkpt>
      <trkpt lat="48.68359" lon="-2.31517">
        <ele>67</ele>
        <time>2020-06-24T09:28:50.012Z</time>
      </trkpt>
      <trkpt lat="48.68358" lon="-2.31517">
        <ele>67</ele>
        <time>2020-06-24T09:28:51.012Z</time>
      </trkpt>
      <trkpt lat="48.68356" lon="-2.31518">
        <ele>67</ele>
        <time>2020-06-24T09:28:52.012Z</time>
      </trkpt>
      <trkpt lat="48.68355" lon="-2.31519">
        <ele>67</ele>
        <time>2020-06-24T09:28:53.012Z</time>
      </trkpt>
      <trkpt lat="48.68354" lon="-2.31519">
        <ele>67</ele>
        <time>2020-06-24T09:28:54.012Z</time>
      </trkpt>
      <trkpt lat="48.68353" lon="-2.3152">
        <ele>67</ele>
        <time>2020-06-24T09:28:55.012Z</time>
      </trkpt>
      <trkpt lat="48.68351" lon="-2.3152">
        <ele>67</ele>
        <time>2020-06-24T09:28:56.012Z</time>
      </trkpt>
      <trkpt lat="48.6835" lon="-2.31521">
        <ele>67</ele>
        <time>2020-06-24T09:28:57.012Z</time>
      </trkpt>
      <trkpt lat="48.68349" lon="-2.31522">
        <ele>67</ele>
        <time>2020-06-24T09:28:58.012Z</time>
      </trkpt>
      <trkpt lat="48.68347" lon="-2.31523">
        <ele>66</ele>
        <time>2020-06-24T09:28:59.012Z</time>
      </trkpt>
      <trkpt lat="48.68346" lon="-2.31523">
        <ele>66</ele>
        <time>2020-06-24T09:29:00.012Z</time>
      </trkpt>
      <trkpt lat="48.68345" lon="-2.31524">
        <ele>66</ele>
        <time>2020-06-24T09:29:01.012Z</time>
      </trkpt>
      <trkpt lat="48.68343" lon="-2.31525">
        <ele>66</ele>
        <time>2020-06-24T09:29:02.012Z</time>
      </trkpt>
      <trkpt lat="48.68342" lon="-2.31525">
        <ele>65</ele>
        <time>2020-06-24T09:29:03.012Z</time>
      </trkpt>
      <trkpt lat="48.6834" lon="-2.31526">
        <ele>66</ele>
        <time>2020-06-24T09:29:04.012Z</time>
      </trkpt>
      <trkpt lat="48.68339" lon="-2.31526">
        <ele>65</ele>
        <time>2020-06-24T09:29:05.012Z</time>
      </trkpt>
      <trkpt lat="48.68338" lon="-2.31526">
        <ele>66</ele>
        <time>2020-06-24T09:29:06.012Z</time>
      </trkpt>
      <trkpt lat="48.68336" lon="-2.31527">
        <ele>66</ele>
        <time>2020-06-24T09:29:07.012Z</time>
      </trkpt>
      <trkpt lat="48.68335" lon="-2.31527">
        <ele>66</ele>
        <time>2020-06-24T09:29:08.012Z</time>
      </trkpt>
      <trkpt lat="48.68334" lon="-2.31527">
        <ele>66</ele>
        <time>2020-06-24T09:29:09.012Z</time>
      </trkpt>
      <trkpt lat="48.68333" lon="-2.31528">
        <ele>66</ele>
        <time>2020-06-24T09:29:10.012Z</time>
      </trkpt>
      <trkpt lat="48.68331" lon="-2.31528">
        <ele>65</ele>
        <time>2020-06-24T09:29:11.012Z</time>
      </trkpt>
      <trkpt lat="48.6833" lon="-2.31528">
        <ele>66</ele>
        <time>2020-06-24T09:29:12.012Z</time>
      </trkpt>
      <trkpt lat="48.68329" lon="-2.31529">
        <ele>66</ele>
        <time>2020-06-24T09:29:13.012Z</time>
      </trkpt>
      <trkpt lat="48.68328" lon="-2.31529">
        <ele>66</ele>
        <time>2020-06-24T09:29:14.012Z</time>
      </trkpt>
      <trkpt lat="48.68327" lon="-2.3153">
        <ele>66</ele>
        <time>2020-06-24T09:29:15.012Z</time>
      </trkpt>
      <trkpt lat="48.68326" lon="-2.31531">
        <ele>66</ele>
        <time>2020-06-24T09:29:16.012Z</time>
      </trkpt>
      <trkpt lat="48.68324" lon="-2.31531">
        <ele>66</ele>
        <time>2020-06-24T09:29:17.012Z</time>
      </trkpt>
      <trkpt lat="48.68323" lon="-2.31532">
        <ele>67</ele>
        <time>2020-06-24T09:29:18.012Z</time>
      </trkpt>
      <trkpt lat="48.68322" lon="-2.31532">
        <ele>67</ele>
        <time>2020-06-24T09:29:19.012Z</time>
      </trkpt>
      <trkpt lat="48.68321" lon="-2.31533">
        <ele>67</ele>
        <time>2020-06-24T09:29:20.012Z</time>
      </trkpt>
      <trkpt lat="48.6832" lon="-2.31533">
        <ele>68</ele>
        <time>2020-06-24T09:29:21.012Z</time>
      </trkpt>
      <trkpt lat="48.68318" lon="-2.31533">
        <ele>68</ele>
        <time>2020-06-24T09:29:22.012Z</time>
      </trkpt>
      <trkpt lat="48.68317" lon="-2.31532">
        <ele>68</ele>
        <time>2020-06-24T09:29:23.012Z</time>
      </trkpt>
      <trkpt lat="48.68316" lon="-2.31532">
        <ele>68</ele>
        <time>2020-06-24T09:29:24.012Z</time>
      </trkpt>
      <trkpt lat="48.68315" lon="-2.31531">
        <ele>68</ele>
        <time>2020-06-24T09:29:25.012Z</time>
      </trkpt>
      <trkpt lat="48.68314" lon="-2.31531">
        <ele>68</ele>
        <time>2020-06-24T09:29:26.012Z</time>
      </trkpt>
      <trkpt lat="48.68313" lon="-2.3153">
        <ele>68</ele>
        <time>2020-06-24T09:29:27.012Z</time>
      </trkpt>
      <trkpt lat="48.68311" lon="-2.3153">
        <ele>68</ele>
        <time>2020-06-24T09:29:28.012Z</time>
      </trkpt>
      <trkpt lat="48.6831" lon="-2.31529">
        <ele>69</ele>
        <time>2020-06-24T09:29:29.012Z</time>
      </trkpt>
      <trkpt lat="48.68309" lon="-2.31529">
        <ele>69</ele>
        <time>2020-06-24T09:29:30.012Z</time>
      </trkpt>
      <trkpt lat="48.68308" lon="-2.31528">
        <ele>69</ele>
        <time>2020-06-24T09:29:31.012Z</time>
      </trkpt>
      <trkpt lat="48.68307" lon="-2.31527">
        <ele>69</ele>
        <time>2020-06-24T09:29:32.012Z</time>
      </trkpt>
      <trkpt lat="48.68306" lon="-2.31527">
        <ele>69</ele>
        <time>2020-06-24T09:29:33.012Z</time>
      </trkpt>
      <trkpt lat="48.68304" lon="-2.31526">
        <ele>69</ele>
        <time>2020-06-24T09:29:34.012Z</time>
      </trkpt>
      <trkpt lat="48.68303" lon="-2.31526">
        <ele>69</ele>
        <time>2020-06-24T09:29:35.012Z</time>
      </trkpt>
      <trkpt lat="48.68302" lon="-2.31526">
        <ele>69</ele>
        <time>2020-06-24T09:29:36.012Z</time>
      </trkpt>
      <trkpt lat="48.683" lon="-2.31525">
        <ele>69</ele>
        <time>2020-06-24T09:29:37.012Z</time>
      </trkpt>
      <trkpt lat="48.68299" lon="-2.31524">
        <ele>69</ele>
        <time>2020-06-24T09:29:38.012Z</time>
      </trkpt>
      <trkpt lat="48.68298" lon="-2.31524">
        <ele>69</ele>
        <time>2020-06-24T09:29:39.012Z</time>
      </trkpt>
      <trkpt lat="48.68297" lon="-2.31524">
        <ele>69</ele>
        <time>2020-06-24T09:29:40.012Z</time>
      </trkpt>
      <trkpt lat="48.68295" lon="-2.31523">
        <ele>68</ele>
        <time>2020-06-24T09:29:41.012Z</time>
      </trkpt>
      <trkpt lat="48.68294" lon="-2.31523">
        <ele>68</ele>
        <time>2020-06-24T09:29:42.012Z</time>
      </trkpt>
      <trkpt lat="48.68293" lon="-2.31522">
        <ele>68</ele>
        <time>2020-06-24T09:29:43.012Z</time>
      </trkpt>
      <trkpt lat="48.68292" lon="-2.31522">
        <ele>68</ele>
        <time>2020-06-24T09:29:44.012Z</time>
      </trkpt>
      <trkpt lat="48.6829" lon="-2.31522">
        <ele>68</ele>
        <time>2020-06-24T09:29:45.012Z</time>
      </trkpt>
      <trkpt lat="48.68289" lon="-2.31522">
        <ele>68</ele>
        <time>2020-06-24T09:29:46.012Z</time>
      </trkpt>
      <trkpt lat="48.68288" lon="-2.31522">
        <ele>68</ele>
        <time>2020-06-24T09:29:47.012Z</time>
      </trkpt>
      <trkpt lat="48.68286" lon="-2.31521">
        <ele>68</ele>
        <time>2020-06-24T09:29:48.012Z</time>
      </trkpt>
      <trkpt lat="48.68285" lon="-2.3152">
        <ele>68</ele>
        <time>2020-06-24T09:29:49.012Z</time>
      </trkpt>
      <trkpt lat="48.68284" lon="-2.3152">
        <ele>68</ele>
        <time>2020-06-24T09:29:50.012Z</time>
      </trkpt>
      <trkpt lat="48.68283" lon="-2.31519">
        <ele>67</ele>
        <time>2020-06-24T09:29:51.012Z</time>
      </trkpt>
      <trkpt lat="48.68281" lon="-2.31518">
        <ele>67</ele>
        <time>2020-06-24T09:29:52.012Z</time>
      </trkpt>
      <trkpt lat="48.6828" lon="-2.31517">
        <ele>67</ele>
        <time>2020-06-24T09:29:53.012Z</time>
      </trkpt>
      <trkpt lat="48.68279" lon="-2.31516">
        <ele>67</ele>
        <time>2020-06-24T09:29:54.012Z</time>
      </trkpt>
      <trkpt lat="48.68277" lon="-2.31515">
        <ele>67</ele>
        <time>2020-06-24T09:29:55.012Z</time>
      </trkpt>
      <trkpt lat="48.68276" lon="-2.31514">
        <ele>67</ele>
        <time>2020-06-24T09:29:56.012Z</time>
      </trkpt>
      <trkpt lat="48.68275" lon="-2.31514">
        <ele>67</ele>
        <time>2020-06-24T09:29:57.012Z</time>
      </trkpt>
      <trkpt lat="48.68273" lon="-2.31513">
        <ele>67</ele>
        <time>2020-06-24T09:29:58.012Z</time>
      </trkpt>
      <trkpt lat="48.68272" lon="-2.31512">
        <ele>67</ele>
        <time>2020-06-24T09:29:59.012Z</time>
      </trkpt>
      <trkpt lat="48.68271" lon="-2.31511">
        <ele>66</ele>
        <time>2020-06-24T09:30:00.012Z</time>
      </trkpt>
      <trkpt lat="48.6827" lon="-2.31511">
        <ele>66</ele>
        <time>2020-06-24T09:30:01.012Z</time>
      </trkpt>
      <trkpt lat="48.68268" lon="-2.3151">
        <ele>67</ele>
        <time>2020-06-24T09:30:02.012Z</time>
      </trkpt>
      <trkpt lat="48.68267" lon="-2.31509">
        <ele>66</ele>
        <time>2020-06-24T09:30:03.012Z</time>
      </trkpt>
      <trkpt lat="48.68265" lon="-2.31508">
        <ele>66</ele>
        <time>2020-06-24T09:30:04.012Z</time>
      </trkpt>
      <trkpt lat="48.68264" lon="-2.31508">
        <ele>67</ele>
        <time>2020-06-24T09:30:05.012Z</time>
      </trkpt>
      <trkpt lat="48.68263" lon="-2.31506">
        <ele>67</ele>
        <time>2020-06-24T09:30:06.012Z</time>
      </trkpt>
      <trkpt lat="48.68262" lon="-2.31505">
        <ele>67</ele>
        <time>2020-06-24T09:30:07.012Z</time>
      </trkpt>
      <trkpt lat="48.6826" lon="-2.31504">
        <ele>67</ele>
        <time>2020-06-24T09:30:08.012Z</time>
      </trkpt>
      <trkpt lat="48.68259" lon="-2.31504">
        <ele>66</ele>
        <time>2020-06-24T09:30:09.012Z</time>
      </trkpt>
      <trkpt lat="48.68257" lon="-2.31503">
        <ele>66</ele>
        <time>2020-06-24T09:30:10.012Z</time>
      </trkpt>
      <trkpt lat="48.68256" lon="-2.31502">
        <ele>65</ele>
        <time>2020-06-24T09:30:11.012Z</time>
      </trkpt>
      <trkpt lat="48.68255" lon="-2.31502">
        <ele>65</ele>
        <time>2020-06-24T09:30:12.012Z</time>
      </trkpt>
      <trkpt lat="48.68254" lon="-2.31501">
        <ele>65</ele>
        <time>2020-06-24T09:30:13.012Z</time>
      </trkpt>
      <trkpt lat="48.68253" lon="-2.315">
        <ele>66</ele>
        <time>2020-06-24T09:30:14.012Z</time>
      </trkpt>
      <trkpt lat="48.68251" lon="-2.31499">
        <ele>65</ele>
        <time>2020-06-24T09:30:15.012Z</time>
      </trkpt>
      <trkpt lat="48.6825" lon="-2.31498">
        <ele>65</ele>
        <time>2020-06-24T09:30:16.012Z</time>
      </trkpt>
      <trkpt lat="48.68249" lon="-2.31497">
        <ele>65</ele>
        <time>2020-06-24T09:30:17.012Z</time>
      </trkpt>
      <trkpt lat="48.68248" lon="-2.31496">
        <ele>65</ele>
        <time>2020-06-24T09:30:18.012Z</time>
      </trkpt>
      <trkpt lat="48.68247" lon="-2.31495">
        <ele>65</ele>
        <time>2020-06-24T09:30:19.012Z</time>
      </trkpt>
      <trkpt lat="48.68246" lon="-2.31494">
        <ele>65</ele>
        <time>2020-06-24T09:30:20.012Z</time>
      </trkpt>
      <trkpt lat="48.68245" lon="-2.31493">
        <ele>66</ele>
        <time>2020-06-24T09:30:21.012Z</time>
      </trkpt>
      <trkpt lat="48.68244" lon="-2.31492">
        <ele>66</ele>
        <time>2020-06-24T09:30:22.012Z</time>
      </trkpt>
      <trkpt lat="48.68243" lon="-2.31491">
        <ele>66</ele>
        <time>2020-06-24T09:30:23.012Z</time>
      </trkpt>
      <trkpt lat="48.68241" lon="-2.3149">
        <ele>66</ele>
        <time>2020-06-24T09:30:24.012Z</time>
      </trkpt>
      <trkpt lat="48.6824" lon="-2.31489">
        <ele>66</ele>
        <time>2020-06-24T09:30:25.012Z</time>
      </trkpt>
      <trkpt lat="48.68239" lon="-2.31488">
        <ele>66</ele>
        <time>2020-06-24T09:30:26.012Z</time>
      </trkpt>
      <trkpt lat="48.68238" lon="-2.31487">
        <ele>66</ele>
        <time>2020-06-24T09:30:27.012Z</time>
      </trkpt>
      <trkpt lat="48.68237" lon="-2.31486">
        <ele>66</ele>
        <time>2020-06-24T09:30:28.012Z</time>
      </trkpt>
      <trkpt lat="48.68236" lon="-2.31485">
        <ele>66</ele>
        <time>2020-06-24T09:30:29.012Z</time>
      </trkpt>
      <trkpt lat="48.68235" lon="-2.31484">
        <ele>66</ele>
        <time>2020-06-24T09:30:30.012Z</time>
      </trkpt>
      <trkpt lat="48.68233" lon="-2.31483">
        <ele>66</ele>
        <time>2020-06-24T09:30:31.012Z</time>
      </trkpt>
      <trkpt lat="48.68232" lon="-2.31481">
        <ele>66</ele>
        <time>2020-06-24T09:30:32.012Z</time>
      </trkpt>
      <trkpt lat="48.68231" lon="-2.3148">
        <ele>66</ele>
        <time>2020-06-24T09:30:33.012Z</time>
      </trkpt>
      <trkpt lat="48.6823" lon="-2.31479">
        <ele>66</ele>
        <time>2020-06-24T09:30:34.012Z</time>
      </trkpt>
      <trkpt lat="48.68228" lon="-2.31478">
        <ele>66</ele>
        <time>2020-06-24T09:30:35.012Z</time>
      </trkpt>
      <trkpt lat="48.68227" lon="-2.31478">
        <ele>66</ele>
        <time>2020-06-24T09:30:36.012Z</time>
      </trkpt>
      <trkpt lat="48.68226" lon="-2.31477">
        <ele>66</ele>
        <time>2020-06-24T09:30:37.012Z</time>
      </trkpt>
      <trkpt lat="48.68224" lon="-2.31476">
        <ele>66</ele>
        <time>2020-06-24T09:30:38.012Z</time>
      </trkpt>
      <trkpt lat="48.68223" lon="-2.31475">
        <ele>66</ele>
        <time>2020-06-24T09:30:39.012Z</time>
      </trkpt>
      <trkpt lat="48.68222" lon="-2.31475">
        <ele>66</ele>
        <time>2020-06-24T09:30:40.012Z</time>
      </trkpt>
      <trkpt lat="48.68221" lon="-2.31474">
        <ele>66</ele>
        <time>2020-06-24T09:30:41.012Z</time>
      </trkpt>
      <trkpt lat="48.6822" lon="-2.31473">
        <ele>66</ele>
        <time>2020-06-24T09:30:42.012Z</time>
      </trkpt>
      <trkpt lat="48.68219" lon="-2.31472">
        <ele>66</ele>
        <time>2020-06-24T09:30:43.012Z</time>
      </trkpt>
      <trkpt lat="48.68218" lon="-2.3147">
        <ele>67</ele>
        <time>2020-06-24T09:30:44.012Z</time>
      </trkpt>
      <trkpt lat="48.68217" lon="-2.31469">
        <ele>67</ele>
        <time>2020-06-24T09:30:45.012Z</time>
      </trkpt>
      <trkpt lat="48.68216" lon="-2.31468">
        <ele>67</ele>
        <time>2020-06-24T09:30:46.012Z</time>
      </trkpt>
      <trkpt lat="48.68215" lon="-2.31468">
        <ele>67</ele>
        <time>2020-06-24T09:30:47.012Z</time>
      </trkpt>
      <trkpt lat="48.68214" lon="-2.31467">
        <ele>67</ele>
        <time>2020-06-24T09:30:48.012Z</time>
      </trkpt>
      <trkpt lat="48.68212" lon="-2.31466">
        <ele>67</ele>
        <time>2020-06-24T09:30:49.012Z</time>
      </trkpt>
      <trkpt lat="48.68211" lon="-2.31466">
        <ele>67</ele>
        <time>2020-06-24T09:30:50.012Z</time>
      </trkpt>
      <trkpt lat="48.6821" lon="-2.31465">
        <ele>68</ele>
        <time>2020-06-24T09:30:51.012Z</time>
      </trkpt>
      <trkpt lat="48.68208" lon="-2.31465">
        <ele>68</ele>
        <time>2020-06-24T09:30:52.012Z</time>
      </trkpt>
      <trkpt lat="48.68207" lon="-2.31464">
        <ele>67</ele>
        <time>2020-06-24T09:30:53.012Z</time>
      </trkpt>
      <trkpt lat="48.68206" lon="-2.31464">
        <ele>68</ele>
        <time>2020-06-24T09:30:54.012Z</time>
      </trkpt>
      <trkpt lat="48.68205" lon="-2.31463">
        <ele>68</ele>
        <time>2020-06-24T09:30:55.012Z</time>
      </trkpt>
      <trkpt lat="48.68204" lon="-2.31462">
        <ele>68</ele>
        <time>2020-06-24T09:30:56.012Z</time>
      </trkpt>
      <trkpt lat="48.68203" lon="-2.31461">
        <ele>69</ele>
        <time>2020-06-24T09:30:57.012Z</time>
      </trkpt>
      <trkpt lat="48.68202" lon="-2.3146">
        <ele>69</ele>
        <time>2020-06-24T09:30:58.012Z</time>
      </trkpt>
      <trkpt lat="48.68201" lon="-2.31459">
        <ele>69</ele>
        <time>2020-06-24T09:30:59.012Z</time>
      </trkpt>
      <trkpt lat="48.682" lon="-2.31458">
        <ele>69</ele>
        <time>2020-06-24T09:31:00.012Z</time>
      </trkpt>
      <trkpt lat="48.68199" lon="-2.31457">
        <ele>69</ele>
        <time>2020-06-24T09:31:01.012Z</time>
      </trkpt>
      <trkpt lat="48.68198" lon="-2.31456">
        <ele>69</ele>
        <time>2020-06-24T09:31:02.012Z</time>
      </trkpt>
      <trkpt lat="48.68196" lon="-2.31455">
        <ele>69</ele>
        <time>2020-06-24T09:31:03.012Z</time>
      </trkpt>
      <trkpt lat="48.68195" lon="-2.31455">
        <ele>69</ele>
        <time>2020-06-24T09:31:04.012Z</time>
      </trkpt>
      <trkpt lat="48.68194" lon="-2.31454">
        <ele>69</ele>
        <time>2020-06-24T09:31:05.012Z</time>
      </trkpt>
      <trkpt lat="48.68193" lon="-2.31453">
        <ele>69</ele>
        <time>2020-06-24T09:31:06.012Z</time>
      </trkpt>
      <trkpt lat="48.68192" lon="-2.31452">
        <ele>69</ele>
        <time>2020-06-24T09:31:07.012Z</time>
      </trkpt>
      <trkpt lat="48.68191" lon="-2.31452">
        <ele>69</ele>
        <time>2020-06-24T09:31:08.012Z</time>
      </trkpt>
      <trkpt lat="48.68191" lon="-2.31451">
        <ele>69</ele>
        <time>2020-06-24T09:31:09.012Z</time>
      </trkpt>
      <trkpt lat="48.6819" lon="-2.3145">
        <ele>69</ele>
        <time>2020-06-24T09:31:10.012Z</time>
      </trkpt>
      <trkpt lat="48.68189" lon="-2.3145">
        <ele>69</ele>
        <time>2020-06-24T09:31:11.012Z</time>
      </trkpt>
      <trkpt lat="48.68189" lon="-2.31449">
        <ele>69</ele>
        <time>2020-06-24T09:31:12.012Z</time>
      </trkpt>
      <trkpt lat="48.68188" lon="-2.31448">
        <ele>69</ele>
        <time>2020-06-24T09:31:13.012Z</time>
      </trkpt>
      <trkpt lat="48.68187" lon="-2.31448">
        <ele>69</ele>
        <time>2020-06-24T09:31:14.012Z</time>
      </trkpt>
      <trkpt lat="48.68186" lon="-2.31447">
        <ele>69</ele>
        <time>2020-06-24T09:31:15.012Z</time>
      </trkpt>
      <trkpt lat="48.68185" lon="-2.31446">
        <ele>69</ele>
        <time>2020-06-24T09:31:16.012Z</time>
      </trkpt>
      <trkpt lat="48.68184" lon="-2.31445">
        <ele>69</ele>
        <time>2020-06-24T09:31:17.012Z</time>
      </trkpt>
      <trkpt lat="48.68183" lon="-2.31444">
        <ele>69</ele>
        <time>2020-06-24T09:31:18.012Z</time>
      </trkpt>
      <trkpt lat="48.68182" lon="-2.31443">
        <ele>69</ele>
        <time>2020-06-24T09:31:19.012Z</time>
      </trkpt>
      <trkpt lat="48.68181" lon="-2.31442">
        <ele>69</ele>
        <time>2020-06-24T09:31:20.012Z</time>
      </trkpt>
      <trkpt lat="48.6818" lon="-2.31441">
        <ele>69</ele>
        <time>2020-06-24T09:31:21.012Z</time>
      </trkpt>
      <trkpt lat="48.68178" lon="-2.3144">
        <ele>69</ele>
        <time>2020-06-24T09:31:22.012Z</time>
      </trkpt>
      <trkpt lat="48.68177" lon="-2.3144">
        <ele>69</ele>
        <time>2020-06-24T09:31:23.012Z</time>
      </trkpt>
      <trkpt lat="48.68176" lon="-2.31439">
        <ele>69</ele>
        <time>2020-06-24T09:31:24.012Z</time>
      </trkpt>
      <trkpt lat="48.68175" lon="-2.31439">
        <ele>69</ele>
        <time>2020-06-24T09:31:25.012Z</time>
      </trkpt>
      <trkpt lat="48.68174" lon="-2.31438">
        <ele>69</ele>
        <time>2020-06-24T09:31:26.012Z</time>
      </trkpt>
      <trkpt lat="48.68173" lon="-2.31438">
        <ele>69</ele>
        <time>2020-06-24T09:31:27.012Z</time>
      </trkpt>
      <trkpt lat="48.68171" lon="-2.31437">
        <ele>70</ele>
        <time>2020-06-24T09:31:28.012Z</time>
      </trkpt>
      <trkpt lat="48.6817" lon="-2.31437">
        <ele>69</ele>
        <time>2020-06-24T09:31:29.012Z</time>
      </trkpt>
      <trkpt lat="48.68169" lon="-2.31436">
        <ele>69</ele>
        <time>2020-06-24T09:31:30.012Z</time>
      </trkpt>
      <trkpt lat="48.68169" lon="-2.31436">
        <ele>69</ele>
        <time>2020-06-24T09:31:31.012Z</time>
      </trkpt>
      <trkpt lat="48.68168" lon="-2.31435">
        <ele>69</ele>
        <time>2020-06-24T09:31:32.012Z</time>
      </trkpt>
      <trkpt lat="48.68167" lon="-2.31435">
        <ele>69</ele>
        <time>2020-06-24T09:31:33.012Z</time>
      </trkpt>
      <trkpt lat="48.68165" lon="-2.31434">
        <ele>69</ele>
        <time>2020-06-24T09:31:34.012Z</time>
      </trkpt>
      <trkpt lat="48.68164" lon="-2.31434">
        <ele>69</ele>
        <time>2020-06-24T09:31:35.012Z</time>
      </trkpt>
      <trkpt lat="48.68164" lon="-2.31433">
        <ele>69</ele>
        <time>2020-06-24T09:31:36.012Z</time>
      </trkpt>
      <trkpt lat="48.68163" lon="-2.31432">
        <ele>70</ele>
        <time>2020-06-24T09:31:37.012Z</time>
      </trkpt>
      <trkpt lat="48.68161" lon="-2.31431">
        <ele>70</ele>
        <time>2020-06-24T09:31:38.012Z</time>
      </trkpt>
      <trkpt lat="48.6816" lon="-2.31429">
        <ele>70</ele>
        <time>2020-06-24T09:31:39.012Z</time>
      </trkpt>
      <trkpt lat="48.68159" lon="-2.31428">
        <ele>70</ele>
        <time>2020-06-24T09:31:40.012Z</time>
      </trkpt>
      <trkpt lat="48.68158" lon="-2.31427">
        <ele>70</ele>
        <time>2020-06-24T09:31:41.012Z</time>
      </trkpt>
      <trkpt lat="48.68157" lon="-2.31427">
        <ele>70</ele>
        <time>2020-06-24T09:31:42.012Z</time>
      </trkpt>
      <trkpt lat="48.68156" lon="-2.31426">
        <ele>70</ele>
        <time>2020-06-24T09:31:43.012Z</time>
      </trkpt>
      <trkpt lat="48.68155" lon="-2.31425">
        <ele>70</ele>
        <time>2020-06-24T09:31:44.012Z</time>
      </trkpt>
      <trkpt lat="48.68154" lon="-2.31424">
        <ele>70</ele>
        <time>2020-06-24T09:31:45.012Z</time>
      </trkpt>
      <trkpt lat="48.68153" lon="-2.31423">
        <ele>70</ele>
        <time>2020-06-24T09:31:46.012Z</time>
      </trkpt>
      <trkpt lat="48.68152" lon="-2.31422">
        <ele>70</ele>
        <time>2020-06-24T09:31:47.012Z</time>
      </trkpt>
      <trkpt lat="48.68151" lon="-2.31422">
        <ele>70</ele>
        <time>2020-06-24T09:31:48.012Z</time>
      </trkpt>
      <trkpt lat="48.6815" lon="-2.31421">
        <ele>70</ele>
        <time>2020-06-24T09:31:49.012Z</time>
      </trkpt>
      <trkpt lat="48.68148" lon="-2.31421">
        <ele>70</ele>
        <time>2020-06-24T09:31:50.012Z</time>
      </trkpt>
      <trkpt lat="48.68147" lon="-2.3142">
        <ele>70</ele>
        <time>2020-06-24T09:31:51.012Z</time>
      </trkpt>
      <trkpt lat="48.68146" lon="-2.31419">
        <ele>70</ele>
        <time>2020-06-24T09:31:52.012Z</time>
      </trkpt>
      <trkpt lat="48.68145" lon="-2.31418">
        <ele>70</ele>
        <time>2020-06-24T09:31:53.012Z</time>
      </trkpt>
      <trkpt lat="48.68144" lon="-2.31417">
        <ele>70</ele>
        <time>2020-06-24T09:31:54.012Z</time>
      </trkpt>
      <trkpt lat="48.68143" lon="-2.31416">
        <ele>71</ele>
        <time>2020-06-24T09:31:55.012Z</time>
      </trkpt>
      <trkpt lat="48.68141" lon="-2.31415">
        <ele>71</ele>
        <time>2020-06-24T09:31:56.012Z</time>
      </trkpt>
      <trkpt lat="48.6814" lon="-2.31415">
        <ele>72</ele>
        <time>2020-06-24T09:31:57.012Z</time>
      </trkpt>
      <trkpt lat="48.68139" lon="-2.31414">
        <ele>72</ele>
        <time>2020-06-24T09:31:58.012Z</time>
      </trkpt>
      <trkpt lat="48.68137" lon="-2.31414">
        <ele>72</ele>
        <time>2020-06-24T09:31:59.012Z</time>
      </trkpt>
      <trkpt lat="48.68136" lon="-2.31413">
        <ele>72</ele>
        <time>2020-06-24T09:32:00.012Z</time>
      </trkpt>
      <trkpt lat="48.68135" lon="-2.31412">
        <ele>72</ele>
        <time>2020-06-24T09:32:01.012Z</time>
      </trkpt>
      <trkpt lat="48.68133" lon="-2.31411">
        <ele>73</ele>
        <time>2020-06-24T09:32:02.012Z</time>
      </trkpt>
      <trkpt lat="48.68132" lon="-2.31411">
        <ele>73</ele>
        <time>2020-06-24T09:32:03.012Z</time>
      </trkpt>
      <trkpt lat="48.68131" lon="-2.3141">
        <ele>73</ele>
        <time>2020-06-24T09:32:04.012Z</time>
      </trkpt>
      <trkpt lat="48.68129" lon="-2.3141">
        <ele>73</ele>
        <time>2020-06-24T09:32:05.012Z</time>
      </trkpt>
      <trkpt lat="48.68128" lon="-2.31409">
        <ele>73</ele>
        <time>2020-06-24T09:32:06.012Z</time>
      </trkpt>
      <trkpt lat="48.68126" lon="-2.31409">
        <ele>73</ele>
        <time>2020-06-24T09:32:07.012Z</time>
      </trkpt>
      <trkpt lat="48.68125" lon="-2.31408">
        <ele>73</ele>
        <time>2020-06-24T09:32:08.012Z</time>
      </trkpt>
      <trkpt lat="48.68124" lon="-2.31408">
        <ele>73</ele>
        <time>2020-06-24T09:32:09.012Z</time>
      </trkpt>
      <trkpt lat="48.68123" lon="-2.31407">
        <ele>73</ele>
        <time>2020-06-24T09:32:10.012Z</time>
      </trkpt>
      <trkpt lat="48.68121" lon="-2.31406">
        <ele>72</ele>
        <time>2020-06-24T09:32:11.012Z</time>
      </trkpt>
      <trkpt lat="48.6812" lon="-2.31406">
        <ele>72</ele>
        <time>2020-06-24T09:32:12.012Z</time>
      </trkpt>
      <trkpt lat="48.68119" lon="-2.31405">
        <ele>72</ele>
        <time>2020-06-24T09:32:13.012Z</time>
      </trkpt>
      <trkpt lat="48.68117" lon="-2.31405">
        <ele>72</ele>
        <time>2020-06-24T09:32:14.012Z</time>
      </trkpt>
      <trkpt lat="48.68116" lon="-2.31405">
        <ele>72</ele>
        <time>2020-06-24T09:32:15.012Z</time>
      </trkpt>
      <trkpt lat="48.68115" lon="-2.31404">
        <ele>73</ele>
        <time>2020-06-24T09:32:16.012Z</time>
      </trkpt>
      <trkpt lat="48.68113" lon="-2.31404">
        <ele>73</ele>
        <time>2020-06-24T09:32:17.012Z</time>
      </trkpt>
      <trkpt lat="48.68112" lon="-2.31403">
        <ele>73</ele>
        <time>2020-06-24T09:32:18.012Z</time>
      </trkpt>
      <trkpt lat="48.68111" lon="-2.31403">
        <ele>73</ele>
        <time>2020-06-24T09:32:19.012Z</time>
      </trkpt>
      <trkpt lat="48.68109" lon="-2.31402">
        <ele>72</ele>
        <time>2020-06-24T09:32:20.012Z</time>
      </trkpt>
      <trkpt lat="48.68108" lon="-2.31402">
        <ele>72</ele>
        <time>2020-06-24T09:32:21.012Z</time>
      </trkpt>
      <trkpt lat="48.68107" lon="-2.31401">
        <ele>73</ele>
        <time>2020-06-24T09:32:22.012Z</time>
      </trkpt>
      <trkpt lat="48.68105" lon="-2.31401">
        <ele>73</ele>
        <time>2020-06-24T09:32:23.012Z</time>
      </trkpt>
      <trkpt lat="48.68104" lon="-2.31401">
        <ele>73</ele>
        <time>2020-06-24T09:32:24.012Z</time>
      </trkpt>
      <trkpt lat="48.68103" lon="-2.314">
        <ele>73</ele>
        <time>2020-06-24T09:32:25.012Z</time>
      </trkpt>
      <trkpt lat="48.68102" lon="-2.314">
        <ele>73</ele>
        <time>2020-06-24T09:32:26.012Z</time>
      </trkpt>
      <trkpt lat="48.681" lon="-2.314">
        <ele>73</ele>
        <time>2020-06-24T09:32:27.012Z</time>
      </trkpt>
      <trkpt lat="48.68099" lon="-2.314">
        <ele>73</ele>
        <time>2020-06-24T09:32:28.012Z</time>
      </trkpt>
      <trkpt lat="48.68097" lon="-2.314">
        <ele>73</ele>
        <time>2020-06-24T09:32:29.012Z</time>
      </trkpt>
      <trkpt lat="48.68096" lon="-2.31399">
        <ele>73</ele>
        <time>2020-06-24T09:32:30.012Z</time>
      </trkpt>
      <trkpt lat="48.68095" lon="-2.31399">
        <ele>73</ele>
        <time>2020-06-24T09:32:31.012Z</time>
      </trkpt>
      <trkpt lat="48.68094" lon="-2.31398">
        <ele>73</ele>
        <time>2020-06-24T09:32:32.012Z</time>
      </trkpt>
      <trkpt lat="48.68092" lon="-2.31398">
        <ele>73</ele>
        <time>2020-06-24T09:32:33.012Z</time>
      </trkpt>
      <trkpt lat="48.68091" lon="-2.31397">
        <ele>72</ele>
        <time>2020-06-24T09:32:34.012Z</time>
      </trkpt>
      <trkpt lat="48.6809" lon="-2.31397">
        <ele>72</ele>
        <time>2020-06-24T09:32:35.012Z</time>
      </trkpt>
      <trkpt lat="48.68088" lon="-2.31396">
        <ele>72</ele>
        <time>2020-06-24T09:32:36.012Z</time>
      </trkpt>
      <trkpt lat="48.68087" lon="-2.31396">
        <ele>72</ele>
        <time>2020-06-24T09:32:37.012Z</time>
      </trkpt>
      <trkpt lat="48.68085" lon="-2.31396">
        <ele>72</ele>
        <time>2020-06-24T09:32:38.012Z</time>
      </trkpt>
      <trkpt lat="48.68084" lon="-2.31395">
        <ele>71</ele>
        <time>2020-06-24T09:32:39.012Z</time>
      </trkpt>
      <trkpt lat="48.68083" lon="-2.31395">
        <ele>72</ele>
        <time>2020-06-24T09:32:40.012Z</time>
      </trkpt>
      <trkpt lat="48.68081" lon="-2.31394">
        <ele>71</ele>
        <time>2020-06-24T09:32:41.012Z</time>
      </trkpt>
      <trkpt lat="48.6808" lon="-2.31394">
        <ele>71</ele>
        <time>2020-06-24T09:32:42.012Z</time>
      </trkpt>
      <trkpt lat="48.68079" lon="-2.31393">
        <ele>71</ele>
        <time>2020-06-24T09:32:43.012Z</time>
      </trkpt>
      <trkpt lat="48.68078" lon="-2.31393">
        <ele>71</ele>
        <time>2020-06-24T09:32:44.012Z</time>
      </trkpt>
      <trkpt lat="48.68076" lon="-2.31392">
        <ele>71</ele>
        <time>2020-06-24T09:32:45.012Z</time>
      </trkpt>
      <trkpt lat="48.68075" lon="-2.31391">
        <ele>71</ele>
        <time>2020-06-24T09:32:46.012Z</time>
      </trkpt>
      <trkpt lat="48.68074" lon="-2.31391">
        <ele>71</ele>
        <time>2020-06-24T09:32:47.012Z</time>
      </trkpt>
      <trkpt lat="48.68073" lon="-2.3139">
        <ele>71</ele>
        <time>2020-06-24T09:32:48.012Z</time>
      </trkpt>
      <trkpt lat="48.68072" lon="-2.3139">
        <ele>71</ele>
        <time>2020-06-24T09:32:49.012Z</time>
      </trkpt>
      <trkpt lat="48.68071" lon="-2.31389">
        <ele>71</ele>
        <time>2020-06-24T09:32:50.012Z</time>
      </trkpt>
      <trkpt lat="48.68069" lon="-2.31389">
        <ele>71</ele>
        <time>2020-06-24T09:32:51.012Z</time>
      </trkpt>
      <trkpt lat="48.68068" lon="-2.31388">
        <ele>71</ele>
        <time>2020-06-24T09:32:52.012Z</time>
      </trkpt>
      <trkpt lat="48.68067" lon="-2.31387">
        <ele>71</ele>
        <time>2020-06-24T09:32:53.012Z</time>
      </trkpt>
      <trkpt lat="48.68066" lon="-2.31386">
        <ele>72</ele>
        <time>2020-06-24T09:32:54.012Z</time>
      </trkpt>
      <trkpt lat="48.68064" lon="-2.31385">
        <ele>72</ele>
        <time>2020-06-24T09:32:55.012Z</time>
      </trkpt>
      <trkpt lat="48.68063" lon="-2.31384">
        <ele>73</ele>
        <time>2020-06-24T09:32:56.012Z</time>
      </trkpt>
      <trkpt lat="48.68061" lon="-2.31384">
        <ele>73</ele>
        <time>2020-06-24T09:32:57.012Z</time>
      </trkpt>
      <trkpt lat="48.6806" lon="-2.31383">
        <ele>73</ele>
        <time>2020-06-24T09:32:58.012Z</time>
      </trkpt>
      <trkpt lat="48.68059" lon="-2.31383">
        <ele>73</ele>
        <time>2020-06-24T09:32:59.012Z</time>
      </trkpt>
      <trkpt lat="48.68058" lon="-2.31382">
        <ele>73</ele>
        <time>2020-06-24T09:33:00.012Z</time>
      </trkpt>
      <trkpt lat="48.68057" lon="-2.31382">
        <ele>72</ele>
        <time>2020-06-24T09:33:01.012Z</time>
      </trkpt>
      <trkpt lat="48.68055" lon="-2.31381">
        <ele>73</ele>
        <time>2020-06-24T09:33:02.012Z</time>
      </trkpt>
      <trkpt lat="48.68054" lon="-2.3138">
        <ele>73</ele>
        <time>2020-06-24T09:33:03.012Z</time>
      </trkpt>
      <trkpt lat="48.68053" lon="-2.31379">
        <ele>73</ele>
        <time>2020-06-24T09:33:04.012Z</time>
      </trkpt>
      <trkpt lat="48.68052" lon="-2.31378">
        <ele>73</ele>
        <time>2020-06-24T09:33:05.012Z</time>
      </trkpt>
      <trkpt lat="48.68051" lon="-2.31376">
        <ele>73</ele>
        <time>2020-06-24T09:33:06.012Z</time>
      </trkpt>
      <trkpt lat="48.68049" lon="-2.31375">
        <ele>72</ele>
        <time>2020-06-24T09:33:07.012Z</time>
      </trkpt>
      <trkpt lat="48.68048" lon="-2.31374">
        <ele>72</ele>
        <time>2020-06-24T09:33:08.012Z</time>
      </trkpt>
      <trkpt lat="48.68047" lon="-2.31373">
        <ele>72</ele>
        <time>2020-06-24T09:33:09.012Z</time>
      </trkpt>
      <trkpt lat="48.68046" lon="-2.31372">
        <ele>72</ele>
        <time>2020-06-24T09:33:10.012Z</time>
      </trkpt>
      <trkpt lat="48.68044" lon="-2.31372">
        <ele>72</ele>
        <time>2020-06-24T09:33:11.012Z</time>
      </trkpt>
      <trkpt lat="48.68043" lon="-2.31372">
        <ele>72</ele>
        <time>2020-06-24T09:33:12.012Z</time>
      </trkpt>
      <trkpt lat="48.68042" lon="-2.31371">
        <ele>72</ele>
        <time>2020-06-24T09:33:13.012Z</time>
      </trkpt>
      <trkpt lat="48.68041" lon="-2.3137">
        <ele>72</ele>
        <time>2020-06-24T09:33:14.012Z</time>
      </trkpt>
      <trkpt lat="48.6804" lon="-2.31368">
        <ele>72</ele>
        <time>2020-06-24T09:33:15.012Z</time>
      </trkpt>
      <trkpt lat="48.68039" lon="-2.31367">
        <ele>71</ele>
        <time>2020-06-24T09:33:16.012Z</time>
      </trkpt>
      <trkpt lat="48.68038" lon="-2.31367">
        <ele>71</ele>
        <time>2020-06-24T09:33:17.012Z</time>
      </trkpt>
      <trkpt lat="48.68036" lon="-2.31367">
        <ele>71</ele>
        <time>2020-06-24T09:33:18.012Z</time>
      </trkpt>
      <trkpt lat="48.68035" lon="-2.31366">
        <ele>70</ele>
        <time>2020-06-24T09:33:19.012Z</time>
      </trkpt>
      <trkpt lat="48.68034" lon="-2.31366">
        <ele>69</ele>
        <time>2020-06-24T09:33:20.012Z</time>
      </trkpt>
      <trkpt lat="48.68033" lon="-2.31366">
        <ele>69</ele>
        <time>2020-06-24T09:33:21.012Z</time>
      </trkpt>
      <trkpt lat="48.68032" lon="-2.31365">
        <ele>70</ele>
        <time>2020-06-24T09:33:22.012Z</time>
      </trkpt>
      <trkpt lat="48.6803" lon="-2.31365">
        <ele>71</ele>
        <time>2020-06-24T09:33:23.012Z</time>
      </trkpt>
      <trkpt lat="48.68029" lon="-2.31364">
        <ele>71</ele>
        <time>2020-06-24T09:33:24.012Z</time>
      </trkpt>
      <trkpt lat="48.68027" lon="-2.31364">
        <ele>70</ele>
        <time>2020-06-24T09:33:25.012Z</time>
      </trkpt>
      <trkpt lat="48.68026" lon="-2.31363">
        <ele>70</ele>
        <time>2020-06-24T09:33:26.012Z</time>
      </trkpt>
      <trkpt lat="48.68024" lon="-2.31363">
        <ele>70</ele>
        <time>2020-06-24T09:33:27.012Z</time>
      </trkpt>
      <trkpt lat="48.68023" lon="-2.31362">
        <ele>69</ele>
        <time>2020-06-24T09:33:28.012Z</time>
      </trkpt>
      <trkpt lat="48.68022" lon="-2.31362">
        <ele>69</ele>
        <time>2020-06-24T09:33:29.012Z</time>
      </trkpt>
      <trkpt lat="48.6802" lon="-2.31362">
        <ele>68</ele>
        <time>2020-06-24T09:33:30.012Z</time>
      </trkpt>
      <trkpt lat="48.68019" lon="-2.31361">
        <ele>68</ele>
        <time>2020-06-24T09:33:31.012Z</time>
      </trkpt>
      <trkpt lat="48.68018" lon="-2.31361">
        <ele>67</ele>
        <time>2020-06-24T09:33:32.012Z</time>
      </trkpt>
      <trkpt lat="48.68017" lon="-2.3136">
        <ele>67</ele>
        <time>2020-06-24T09:33:33.012Z</time>
      </trkpt>
      <trkpt lat="48.68016" lon="-2.31359">
        <ele>67</ele>
        <time>2020-06-24T09:33:34.012Z</time>
      </trkpt>
      <trkpt lat="48.68015" lon="-2.31358">
        <ele>67</ele>
        <time>2020-06-24T09:33:35.012Z</time>
      </trkpt>
      <trkpt lat="48.68014" lon="-2.31357">
        <ele>67</ele>
        <time>2020-06-24T09:33:36.012Z</time>
      </trkpt>
      <trkpt lat="48.68012" lon="-2.31356">
        <ele>67</ele>
        <time>2020-06-24T09:33:37.012Z</time>
      </trkpt>
      <trkpt lat="48.68011" lon="-2.31355">
        <ele>67</ele>
        <time>2020-06-24T09:33:38.012Z</time>
      </trkpt>
      <trkpt lat="48.6801" lon="-2.31354">
        <ele>67</ele>
        <time>2020-06-24T09:33:39.012Z</time>
      </trkpt>
      <trkpt lat="48.68009" lon="-2.31354">
        <ele>66</ele>
        <time>2020-06-24T09:33:40.012Z</time>
      </trkpt>
      <trkpt lat="48.68008" lon="-2.31354">
        <ele>66</ele>
        <time>2020-06-24T09:33:41.012Z</time>
      </trkpt>
      <trkpt lat="48.68006" lon="-2.31354">
        <ele>66</ele>
        <time>2020-06-24T09:33:42.012Z</time>
      </trkpt>
      <trkpt lat="48.68005" lon="-2.31354">
        <ele>66</ele>
        <time>2020-06-24T09:33:43.012Z</time>
      </trkpt>
      <trkpt lat="48.68004" lon="-2.31354">
        <ele>66</ele>
        <time>2020-06-24T09:33:44.012Z</time>
      </trkpt>
      <trkpt lat="48.68003" lon="-2.31353">
        <ele>66</ele>
        <time>2020-06-24T09:33:45.012Z</time>
      </trkpt>
      <trkpt lat="48.68002" lon="-2.31353">
        <ele>66</ele>
        <time>2020-06-24T09:33:46.012Z</time>
      </trkpt>
      <trkpt lat="48.68001" lon="-2.31352">
        <ele>66</ele>
        <time>2020-06-24T09:33:47.012Z</time>
      </trkpt>
      <trkpt lat="48.67999" lon="-2.31351">
        <ele>66</ele>
        <time>2020-06-24T09:33:48.012Z</time>
      </trkpt>
      <trkpt lat="48.67998" lon="-2.3135">
        <ele>66</ele>
        <time>2020-06-24T09:33:49.012Z</time>
      </trkpt>
      <trkpt lat="48.67997" lon="-2.31349">
        <ele>66</ele>
        <time>2020-06-24T09:33:50.012Z</time>
      </trkpt>
      <trkpt lat="48.67996" lon="-2.31348">
        <ele>66</ele>
        <time>2020-06-24T09:33:51.012Z</time>
      </trkpt>
      <trkpt lat="48.67995" lon="-2.31348">
        <ele>67</ele>
        <time>2020-06-24T09:33:52.012Z</time>
      </trkpt>
      <trkpt lat="48.67994" lon="-2.31347">
        <ele>67</ele>
        <time>2020-06-24T09:33:53.012Z</time>
      </trkpt>
      <trkpt lat="48.67993" lon="-2.31346">
        <ele>67</ele>
        <time>2020-06-24T09:33:54.012Z</time>
      </trkpt>
      <trkpt lat="48.67992" lon="-2.31345">
        <ele>66</ele>
        <time>2020-06-24T09:33:55.012Z</time>
      </trkpt>
      <trkpt lat="48.67991" lon="-2.31344">
        <ele>66</ele>
        <time>2020-06-24T09:33:56.012Z</time>
      </trkpt>
      <trkpt lat="48.6799" lon="-2.31344">
        <ele>67</ele>
        <time>2020-06-24T09:33:57.012Z</time>
      </trkpt>
      <trkpt lat="48.67988" lon="-2.31343">
        <ele>66</ele>
        <time>2020-06-24T09:33:58.012Z</time>
      </trkpt>
      <trkpt lat="48.67987" lon="-2.31343">
        <ele>67</ele>
        <time>2020-06-24T09:33:59.012Z</time>
      </trkpt>
      <trkpt lat="48.67985" lon="-2.31342">
        <ele>66</ele>
        <time>2020-06-24T09:34:00.012Z</time>
      </trkpt>
      <trkpt lat="48.67984" lon="-2.31342">
        <ele>66</ele>
        <time>2020-06-24T09:34:01.012Z</time>
      </trkpt>
      <trkpt lat="48.67983" lon="-2.31341">
        <ele>66</ele>
        <time>2020-06-24T09:34:02.012Z</time>
      </trkpt>
      <trkpt lat="48.67982" lon="-2.3134">
        <ele>66</ele>
        <time>2020-06-24T09:34:03.012Z</time>
      </trkpt>
      <trkpt lat="48.6798" lon="-2.31339">
        <ele>66</ele>
        <time>2020-06-24T09:34:04.012Z</time>
      </trkpt>
      <trkpt lat="48.67979" lon="-2.31339">
        <ele>66</ele>
        <time>2020-06-24T09:34:05.012Z</time>
      </trkpt>
      <trkpt lat="48.67978" lon="-2.31338">
        <ele>66</ele>
        <time>2020-06-24T09:34:06.012Z</time>
      </trkpt>
      <trkpt lat="48.67977" lon="-2.31338">
        <ele>66</ele>
        <time>2020-06-24T09:34:07.012Z</time>
      </trkpt>
      <trkpt lat="48.67975" lon="-2.31338">
        <ele>66</ele>
        <time>2020-06-24T09:34:08.012Z</time>
      </trkpt>
      <trkpt lat="48.67974" lon="-2.31338">
        <ele>66</ele>
        <time>2020-06-24T09:34:09.012Z</time>
      </trkpt>
      <trkpt lat="48.67972" lon="-2.31338">
        <ele>66</ele>
        <time>2020-06-24T09:34:10.012Z</time>
      </trkpt>
      <trkpt lat="48.67971" lon="-2.31339">
        <ele>66</ele>
        <time>2020-06-24T09:34:11.012Z</time>
      </trkpt>
      <trkpt lat="48.6797" lon="-2.3134">
        <ele>66</ele>
        <time>2020-06-24T09:34:12.012Z</time>
      </trkpt>
      <trkpt lat="48.67968" lon="-2.31341">
        <ele>66</ele>
        <time>2020-06-24T09:34:13.012Z</time>
      </trkpt>
      <trkpt lat="48.67967" lon="-2.31342">
        <ele>66</ele>
        <time>2020-06-24T09:34:14.012Z</time>
      </trkpt>
      <trkpt lat="48.67967" lon="-2.31344">
        <ele>66</ele>
        <time>2020-06-24T09:34:15.012Z</time>
      </trkpt>
      <trkpt lat="48.67966" lon="-2.31347">
        <ele>66</ele>
        <time>2020-06-24T09:34:16.012Z</time>
      </trkpt>
      <trkpt lat="48.67965" lon="-2.31348">
        <ele>66</ele>
        <time>2020-06-24T09:34:17.012Z</time>
      </trkpt>
      <trkpt lat="48.67965" lon="-2.3135">
        <ele>66</ele>
        <time>2020-06-24T09:34:18.012Z</time>
      </trkpt>
      <trkpt lat="48.67964" lon="-2.31351">
        <ele>66</ele>
        <time>2020-06-24T09:34:19.012Z</time>
      </trkpt>
      <trkpt lat="48.67964" lon="-2.31352">
        <ele>66</ele>
        <time>2020-06-24T09:34:20.012Z</time>
      </trkpt>
      <trkpt lat="48.67964" lon="-2.31352">
        <ele>65</ele>
        <time>2020-06-24T09:34:21.012Z</time>
      </trkpt>
      <trkpt lat="48.67964" lon="-2.31352">
        <ele>65</ele>
        <time>2020-06-24T09:34:22.012Z</time>
      </trkpt>
      <trkpt lat="48.67964" lon="-2.31352">
        <ele>65</ele>
        <time>2020-06-24T09:34:23.012Z</time>
      </trkpt>
      <trkpt lat="48.67964" lon="-2.31351">
        <ele>65</ele>
        <time>2020-06-24T09:34:24.012Z</time>
      </trkpt>
      <trkpt lat="48.67964" lon="-2.31351">
        <ele>65</ele>
        <time>2020-06-24T09:34:25.012Z</time>
      </trkpt>
      <trkpt lat="48.67964" lon="-2.31351">
        <ele>65</ele>
        <time>2020-06-24T09:34:26.012Z</time>
      </trkpt>
      <trkpt lat="48.67963" lon="-2.31358">
        <ele>64</ele>
        <time>2020-06-24T09:34:27.008Z</time>
      </trkpt>
      <trkpt lat="48.67962" lon="-2.31359">
        <ele>64</ele>
        <time>2020-06-24T09:34:28.008Z</time>
      </trkpt>
      <trkpt lat="48.67962" lon="-2.31361">
        <ele>64</ele>
        <time>2020-06-24T09:34:29.008Z</time>
      </trkpt>
      <trkpt lat="48.67961" lon="-2.31363">
        <ele>64</ele>
        <time>2020-06-24T09:34:30.008Z</time>
      </trkpt>
      <trkpt lat="48.6796" lon="-2.31365">
        <ele>64</ele>
        <time>2020-06-24T09:34:31.008Z</time>
      </trkpt>
      <trkpt lat="48.67959" lon="-2.31366">
        <ele>64</ele>
        <time>2020-06-24T09:34:32.008Z</time>
      </trkpt>
      <trkpt lat="48.67958" lon="-2.31367">
        <ele>64</ele>
        <time>2020-06-24T09:34:33.008Z</time>
      </trkpt>
      <trkpt lat="48.67957" lon="-2.31368">
        <ele>64</ele>
        <time>2020-06-24T09:34:34.008Z</time>
      </trkpt>
      <trkpt lat="48.67956" lon="-2.31369">
        <ele>64</ele>
        <time>2020-06-24T09:34:35.008Z</time>
      </trkpt>
      <trkpt lat="48.67955" lon="-2.3137">
        <ele>64</ele>
        <time>2020-06-24T09:34:36.008Z</time>
      </trkpt>
      <trkpt lat="48.67953" lon="-2.31372">
        <ele>64</ele>
        <time>2020-06-24T09:34:37.008Z</time>
      </trkpt>
      <trkpt lat="48.67952" lon="-2.31373">
        <ele>64</ele>
        <time>2020-06-24T09:34:38.008Z</time>
      </trkpt>
      <trkpt lat="48.67951" lon="-2.31374">
        <ele>64</ele>
        <time>2020-06-24T09:34:39.008Z</time>
      </trkpt>
      <trkpt lat="48.6795" lon="-2.31374">
        <ele>64</ele>
        <time>2020-06-24T09:34:40.008Z</time>
      </trkpt>
      <trkpt lat="48.67949" lon="-2.31375">
        <ele>64</ele>
        <time>2020-06-24T09:34:41.008Z</time>
      </trkpt>
      <trkpt lat="48.67947" lon="-2.31376">
        <ele>64</ele>
        <time>2020-06-24T09:34:42.008Z</time>
      </trkpt>
      <trkpt lat="48.67946" lon="-2.31377">
        <ele>64</ele>
        <time>2020-06-24T09:34:43.008Z</time>
      </trkpt>
      <trkpt lat="48.67945" lon="-2.31377">
        <ele>64</ele>
        <time>2020-06-24T09:34:44.008Z</time>
      </trkpt>
      <trkpt lat="48.67943" lon="-2.31378">
        <ele>64</ele>
        <time>2020-06-24T09:34:45.008Z</time>
      </trkpt>
      <trkpt lat="48.67942" lon="-2.31378">
        <ele>64</ele>
        <time>2020-06-24T09:34:46.008Z</time>
      </trkpt>
      <trkpt lat="48.67941" lon="-2.31378">
        <ele>64</ele>
        <time>2020-06-24T09:34:47.008Z</time>
      </trkpt>
      <trkpt lat="48.6794" lon="-2.31378">
        <ele>64</ele>
        <time>2020-06-24T09:34:48.008Z</time>
      </trkpt>
      <trkpt lat="48.6794" lon="-2.31378">
        <ele>64</ele>
        <time>2020-06-24T09:34:49.008Z</time>
      </trkpt>
      <trkpt lat="48.6794" lon="-2.31379">
        <ele>64</ele>
        <time>2020-06-24T09:34:50.008Z</time>
      </trkpt>
      <trkpt lat="48.6794" lon="-2.31379">
        <ele>65</ele>
        <time>2020-06-24T09:34:51.008Z</time>
      </trkpt>
      <trkpt lat="48.6794" lon="-2.31379">
        <ele>65</ele>
        <time>2020-06-24T09:34:52.008Z</time>
      </trkpt>
      <trkpt lat="48.6794" lon="-2.31379">
        <ele>65</ele>
        <time>2020-06-24T09:34:53.008Z</time>
      </trkpt>
      <trkpt lat="48.6794" lon="-2.31379">
        <ele>64</ele>
        <time>2020-06-24T09:34:54.008Z</time>
      </trkpt>
      <trkpt lat="48.67936" lon="-2.3138">
        <ele>64</ele>
        <time>2020-06-24T09:34:55.024Z</time>
      </trkpt>
      <trkpt lat="48.67935" lon="-2.31381">
        <ele>64</ele>
        <time>2020-06-24T09:34:56.024Z</time>
      </trkpt>
      <trkpt lat="48.67934" lon="-2.31382">
        <ele>64</ele>
        <time>2020-06-24T09:34:57.024Z</time>
      </trkpt>
      <trkpt lat="48.67933" lon="-2.31383">
        <ele>64</ele>
        <time>2020-06-24T09:34:58.024Z</time>
      </trkpt>
      <trkpt lat="48.67932" lon="-2.31384">
        <ele>64</ele>
        <time>2020-06-24T09:34:59.024Z</time>
      </trkpt>
      <trkpt lat="48.6793" lon="-2.31384">
        <ele>64</ele>
        <time>2020-06-24T09:35:00.024Z</time>
      </trkpt>
      <trkpt lat="48.67929" lon="-2.31385">
        <ele>64</ele>
        <time>2020-06-24T09:35:01.024Z</time>
      </trkpt>
      <trkpt lat="48.67928" lon="-2.31386">
        <ele>64</ele>
        <time>2020-06-24T09:35:02.024Z</time>
      </trkpt>
      <trkpt lat="48.67927" lon="-2.31387">
        <ele>63</ele>
        <time>2020-06-24T09:35:03.024Z</time>
      </trkpt>
      <trkpt lat="48.67926" lon="-2.31388">
        <ele>63</ele>
        <time>2020-06-24T09:35:04.024Z</time>
      </trkpt>
      <trkpt lat="48.67924" lon="-2.31389">
        <ele>63</ele>
        <time>2020-06-24T09:35:05.024Z</time>
      </trkpt>
      <trkpt lat="48.67923" lon="-2.3139">
        <ele>63</ele>
        <time>2020-06-24T09:35:06.024Z</time>
      </trkpt>
      <trkpt lat="48.67922" lon="-2.3139">
        <ele>63</ele>
        <time>2020-06-24T09:35:07.024Z</time>
      </trkpt>
      <trkpt lat="48.67921" lon="-2.31391">
        <ele>63</ele>
        <time>2020-06-24T09:35:08.024Z</time>
      </trkpt>
      <trkpt lat="48.6792" lon="-2.31392">
        <ele>63</ele>
        <time>2020-06-24T09:35:09.024Z</time>
      </trkpt>
      <trkpt lat="48.67918" lon="-2.31393">
        <ele>63</ele>
        <time>2020-06-24T09:35:10.024Z</time>
      </trkpt>
      <trkpt lat="48.67917" lon="-2.31394">
        <ele>63</ele>
        <time>2020-06-24T09:35:11.024Z</time>
      </trkpt>
      <trkpt lat="48.67916" lon="-2.31395">
        <ele>63</ele>
        <time>2020-06-24T09:35:12.024Z</time>
      </trkpt>
      <trkpt lat="48.67915" lon="-2.31396">
        <ele>63</ele>
        <time>2020-06-24T09:35:13.024Z</time>
      </trkpt>
      <trkpt lat="48.67914" lon="-2.31397">
        <ele>62</ele>
        <time>2020-06-24T09:35:14.024Z</time>
      </trkpt>
      <trkpt lat="48.67912" lon="-2.31398">
        <ele>63</ele>
        <time>2020-06-24T09:35:15.024Z</time>
      </trkpt>
      <trkpt lat="48.67911" lon="-2.31398">
        <ele>63</ele>
        <time>2020-06-24T09:35:16.024Z</time>
      </trkpt>
      <trkpt lat="48.6791" lon="-2.31399">
        <ele>63</ele>
        <time>2020-06-24T09:35:17.024Z</time>
      </trkpt>
      <trkpt lat="48.67909" lon="-2.314">
        <ele>63</ele>
        <time>2020-06-24T09:35:18.024Z</time>
      </trkpt>
      <trkpt lat="48.67907" lon="-2.31401">
        <ele>63</ele>
        <time>2020-06-24T09:35:19.024Z</time>
      </trkpt>
      <trkpt lat="48.67906" lon="-2.31401">
        <ele>63</ele>
        <time>2020-06-24T09:35:20.024Z</time>
      </trkpt>
      <trkpt lat="48.67905" lon="-2.31402">
        <ele>63</ele>
        <time>2020-06-24T09:35:21.024Z</time>
      </trkpt>
      <trkpt lat="48.67904" lon="-2.31403">
        <ele>63</ele>
        <time>2020-06-24T09:35:22.024Z</time>
      </trkpt>
      <trkpt lat="48.67902" lon="-2.31403">
        <ele>63</ele>
        <time>2020-06-24T09:35:23.024Z</time>
      </trkpt>
      <trkpt lat="48.67901" lon="-2.31404">
        <ele>63</ele>
        <time>2020-06-24T09:35:24.024Z</time>
      </trkpt>
      <trkpt lat="48.679" lon="-2.31405">
        <ele>64</ele>
        <time>2020-06-24T09:35:25.024Z</time>
      </trkpt>
      <trkpt lat="48.67899" lon="-2.31405">
        <ele>64</ele>
        <time>2020-06-24T09:35:26.024Z</time>
      </trkpt>
      <trkpt lat="48.67898" lon="-2.31406">
        <ele>64</ele>
        <time>2020-06-24T09:35:27.024Z</time>
      </trkpt>
      <trkpt lat="48.67897" lon="-2.31407">
        <ele>65</ele>
        <time>2020-06-24T09:35:28.024Z</time>
      </trkpt>
      <trkpt lat="48.67896" lon="-2.31408">
        <ele>65</ele>
        <time>2020-06-24T09:35:29.024Z</time>
      </trkpt>
      <trkpt lat="48.67895" lon="-2.31408">
        <ele>65</ele>
        <time>2020-06-24T09:35:30.024Z</time>
      </trkpt>
      <trkpt lat="48.67894" lon="-2.31409">
        <ele>65</ele>
        <time>2020-06-24T09:35:31.024Z</time>
      </trkpt>
      <trkpt lat="48.67893" lon="-2.3141">
        <ele>65</ele>
        <time>2020-06-24T09:35:32.024Z</time>
      </trkpt>
      <trkpt lat="48.67891" lon="-2.3141">
        <ele>65</ele>
        <time>2020-06-24T09:35:33.024Z</time>
      </trkpt>
      <trkpt lat="48.6789" lon="-2.31411">
        <ele>65</ele>
        <time>2020-06-24T09:35:34.024Z</time>
      </trkpt>
      <trkpt lat="48.67889" lon="-2.31411">
        <ele>65</ele>
        <time>2020-06-24T09:35:35.024Z</time>
      </trkpt>
      <trkpt lat="48.67888" lon="-2.31412">
        <ele>65</ele>
        <time>2020-06-24T09:35:36.024Z</time>
      </trkpt>
      <trkpt lat="48.67887" lon="-2.31412">
        <ele>65</ele>
        <time>2020-06-24T09:35:37.024Z</time>
      </trkpt>
      <trkpt lat="48.67886" lon="-2.31413">
        <ele>66</ele>
        <time>2020-06-24T09:35:38.024Z</time>
      </trkpt>
      <trkpt lat="48.67885" lon="-2.31413">
        <ele>66</ele>
        <time>2020-06-24T09:35:39.024Z</time>
      </trkpt>
      <trkpt lat="48.67884" lon="-2.31414">
        <ele>66</ele>
        <time>2020-06-24T09:35:40.024Z</time>
      </trkpt>
      <trkpt lat="48.67883" lon="-2.31415">
        <ele>66</ele>
        <time>2020-06-24T09:35:41.024Z</time>
      </trkpt>
      <trkpt lat="48.67882" lon="-2.31416">
        <ele>66</ele>
        <time>2020-06-24T09:35:42.024Z</time>
      </trkpt>
      <trkpt lat="48.67881" lon="-2.31416">
        <ele>66</ele>
        <time>2020-06-24T09:35:43.024Z</time>
      </trkpt>
      <trkpt lat="48.6788" lon="-2.31417">
        <ele>66</ele>
        <time>2020-06-24T09:35:44.024Z</time>
      </trkpt>
      <trkpt lat="48.67878" lon="-2.31418">
        <ele>66</ele>
        <time>2020-06-24T09:35:45.024Z</time>
      </trkpt>
      <trkpt lat="48.67877" lon="-2.31419">
        <ele>66</ele>
        <time>2020-06-24T09:35:46.024Z</time>
      </trkpt>
      <trkpt lat="48.67876" lon="-2.3142">
        <ele>67</ele>
        <time>2020-06-24T09:35:47.024Z</time>
      </trkpt>
      <trkpt lat="48.67875" lon="-2.31421">
        <ele>67</ele>
        <time>2020-06-24T09:35:48.024Z</time>
      </trkpt>
      <trkpt lat="48.67873" lon="-2.31422">
        <ele>67</ele>
        <time>2020-06-24T09:35:49.024Z</time>
      </trkpt>
      <trkpt lat="48.67872" lon="-2.31422">
        <ele>67</ele>
        <time>2020-06-24T09:35:50.024Z</time>
      </trkpt>
      <trkpt lat="48.67871" lon="-2.31423">
        <ele>67</ele>
        <time>2020-06-24T09:35:51.024Z</time>
      </trkpt>
      <trkpt lat="48.67869" lon="-2.31424">
        <ele>66</ele>
        <time>2020-06-24T09:35:52.024Z</time>
      </trkpt>
      <trkpt lat="48.67868" lon="-2.31424">
        <ele>67</ele>
        <time>2020-06-24T09:35:53.024Z</time>
      </trkpt>
      <trkpt lat="48.67867" lon="-2.31425">
        <ele>67</ele>
        <time>2020-06-24T09:35:54.024Z</time>
      </trkpt>
      <trkpt lat="48.67866" lon="-2.31425">
        <ele>66</ele>
        <time>2020-06-24T09:35:55.024Z</time>
      </trkpt>
      <trkpt lat="48.67864" lon="-2.31425">
        <ele>66</ele>
        <time>2020-06-24T09:35:56.024Z</time>
      </trkpt>
      <trkpt lat="48.67863" lon="-2.31426">
        <ele>66</ele>
        <time>2020-06-24T09:35:57.024Z</time>
      </trkpt>
      <trkpt lat="48.67862" lon="-2.31428">
        <ele>66</ele>
        <time>2020-06-24T09:35:58.024Z</time>
      </trkpt>
      <trkpt lat="48.67861" lon="-2.3143">
        <ele>66</ele>
        <time>2020-06-24T09:35:59.024Z</time>
      </trkpt>
      <trkpt lat="48.6786" lon="-2.31431">
        <ele>66</ele>
        <time>2020-06-24T09:36:00.024Z</time>
      </trkpt>
      <trkpt lat="48.67859" lon="-2.31431">
        <ele>66</ele>
        <time>2020-06-24T09:36:01.024Z</time>
      </trkpt>
      <trkpt lat="48.67858" lon="-2.31431">
        <ele>66</ele>
        <time>2020-06-24T09:36:02.024Z</time>
      </trkpt>
      <trkpt lat="48.67857" lon="-2.31431">
        <ele>66</ele>
        <time>2020-06-24T09:36:03.024Z</time>
      </trkpt>
      <trkpt lat="48.67855" lon="-2.3143">
        <ele>66</ele>
        <time>2020-06-24T09:36:04.024Z</time>
      </trkpt>
      <trkpt lat="48.67854" lon="-2.3143">
        <ele>65</ele>
        <time>2020-06-24T09:36:05.024Z</time>
      </trkpt>
      <trkpt lat="48.67852" lon="-2.31429">
        <ele>65</ele>
        <time>2020-06-24T09:36:06.024Z</time>
      </trkpt>
      <trkpt lat="48.67851" lon="-2.31429">
        <ele>65</ele>
        <time>2020-06-24T09:36:07.024Z</time>
      </trkpt>
      <trkpt lat="48.67849" lon="-2.31429">
        <ele>65</ele>
        <time>2020-06-24T09:36:08.024Z</time>
      </trkpt>
      <trkpt lat="48.67848" lon="-2.3143">
        <ele>65</ele>
        <time>2020-06-24T09:36:09.024Z</time>
      </trkpt>
      <trkpt lat="48.67846" lon="-2.3143">
        <ele>65</ele>
        <time>2020-06-24T09:36:10.024Z</time>
      </trkpt>
      <trkpt lat="48.67845" lon="-2.31431">
        <ele>65</ele>
        <time>2020-06-24T09:36:11.024Z</time>
      </trkpt>
      <trkpt lat="48.67844" lon="-2.31431">
        <ele>65</ele>
        <time>2020-06-24T09:36:12.024Z</time>
      </trkpt>
      <trkpt lat="48.67842" lon="-2.31432">
        <ele>65</ele>
        <time>2020-06-24T09:36:13.024Z</time>
      </trkpt>
      <trkpt lat="48.67841" lon="-2.31432">
        <ele>65</ele>
        <time>2020-06-24T09:36:14.024Z</time>
      </trkpt>
      <trkpt lat="48.67839" lon="-2.31432">
        <ele>65</ele>
        <time>2020-06-24T09:36:15.024Z</time>
      </trkpt>
      <trkpt lat="48.67838" lon="-2.31432">
        <ele>65</ele>
        <time>2020-06-24T09:36:16.024Z</time>
      </trkpt>
      <trkpt lat="48.67837" lon="-2.31433">
        <ele>65</ele>
        <time>2020-06-24T09:36:17.024Z</time>
      </trkpt>
      <trkpt lat="48.67835" lon="-2.31433">
        <ele>65</ele>
        <time>2020-06-24T09:36:18.024Z</time>
      </trkpt>
      <trkpt lat="48.67834" lon="-2.31434">
        <ele>65</ele>
        <time>2020-06-24T09:36:19.024Z</time>
      </trkpt>
      <trkpt lat="48.67832" lon="-2.31434">
        <ele>65</ele>
        <time>2020-06-24T09:36:20.024Z</time>
      </trkpt>
      <trkpt lat="48.67831" lon="-2.31435">
        <ele>65</ele>
        <time>2020-06-24T09:36:21.024Z</time>
      </trkpt>
      <trkpt lat="48.6783" lon="-2.31436">
        <ele>65</ele>
        <time>2020-06-24T09:36:22.024Z</time>
      </trkpt>
      <trkpt lat="48.67828" lon="-2.31436">
        <ele>65</ele>
        <time>2020-06-24T09:36:23.024Z</time>
      </trkpt>
      <trkpt lat="48.67827" lon="-2.31436">
        <ele>65</ele>
        <time>2020-06-24T09:36:24.024Z</time>
      </trkpt>
      <trkpt lat="48.67826" lon="-2.31437">
        <ele>65</ele>
        <time>2020-06-24T09:36:25.024Z</time>
      </trkpt>
      <trkpt lat="48.67824" lon="-2.31437">
        <ele>65</ele>
        <time>2020-06-24T09:36:26.024Z</time>
      </trkpt>
      <trkpt lat="48.67823" lon="-2.31437">
        <ele>64</ele>
        <time>2020-06-24T09:36:27.024Z</time>
      </trkpt>
      <trkpt lat="48.67822" lon="-2.31438">
        <ele>65</ele>
        <time>2020-06-24T09:36:28.024Z</time>
      </trkpt>
      <trkpt lat="48.67821" lon="-2.31438">
        <ele>65</ele>
        <time>2020-06-24T09:36:29.024Z</time>
      </trkpt>
      <trkpt lat="48.67819" lon="-2.31438">
        <ele>65</ele>
        <time>2020-06-24T09:36:30.024Z</time>
      </trkpt>
      <trkpt lat="48.67818" lon="-2.31438">
        <ele>65</ele>
        <time>2020-06-24T09:36:31.024Z</time>
      </trkpt>
      <trkpt lat="48.67817" lon="-2.31439">
        <ele>65</ele>
        <time>2020-06-24T09:36:32.024Z</time>
      </trkpt>
      <trkpt lat="48.67816" lon="-2.3144">
        <ele>65</ele>
        <time>2020-06-24T09:36:33.024Z</time>
      </trkpt>
      <trkpt lat="48.67815" lon="-2.3144">
        <ele>65</ele>
        <time>2020-06-24T09:36:34.024Z</time>
      </trkpt>
      <trkpt lat="48.67814" lon="-2.31441">
        <ele>65</ele>
        <time>2020-06-24T09:36:35.024Z</time>
      </trkpt>
      <trkpt lat="48.67813" lon="-2.31441">
        <ele>65</ele>
        <time>2020-06-24T09:36:36.024Z</time>
      </trkpt>
      <trkpt lat="48.67811" lon="-2.31442">
        <ele>65</ele>
        <time>2020-06-24T09:36:37.024Z</time>
      </trkpt>
      <trkpt lat="48.6781" lon="-2.31442">
        <ele>65</ele>
        <time>2020-06-24T09:36:38.024Z</time>
      </trkpt>
      <trkpt lat="48.67809" lon="-2.31443">
        <ele>65</ele>
        <time>2020-06-24T09:36:39.024Z</time>
      </trkpt>
      <trkpt lat="48.67807" lon="-2.31444">
        <ele>65</ele>
        <time>2020-06-24T09:36:40.024Z</time>
      </trkpt>
      <trkpt lat="48.67806" lon="-2.31445">
        <ele>65</ele>
        <time>2020-06-24T09:36:41.024Z</time>
      </trkpt>
      <trkpt lat="48.67805" lon="-2.31446">
        <ele>65</ele>
        <time>2020-06-24T09:36:42.024Z</time>
      </trkpt>
      <trkpt lat="48.67804" lon="-2.31446">
        <ele>65</ele>
        <time>2020-06-24T09:36:43.024Z</time>
      </trkpt>
      <trkpt lat="48.67802" lon="-2.31447">
        <ele>65</ele>
        <time>2020-06-24T09:36:44.024Z</time>
      </trkpt>
      <trkpt lat="48.67801" lon="-2.31447">
        <ele>65</ele>
        <time>2020-06-24T09:36:45.024Z</time>
      </trkpt>
      <trkpt lat="48.678" lon="-2.31448">
        <ele>65</ele>
        <time>2020-06-24T09:36:46.024Z</time>
      </trkpt>
      <trkpt lat="48.67798" lon="-2.31448">
        <ele>65</ele>
        <time>2020-06-24T09:36:47.024Z</time>
      </trkpt>
      <trkpt lat="48.67797" lon="-2.31448">
        <ele>65</ele>
        <time>2020-06-24T09:36:48.024Z</time>
      </trkpt>
      <trkpt lat="48.67796" lon="-2.31448">
        <ele>65</ele>
        <time>2020-06-24T09:36:49.024Z</time>
      </trkpt>
      <trkpt lat="48.67794" lon="-2.31447">
        <ele>65</ele>
        <time>2020-06-24T09:36:50.024Z</time>
      </trkpt>
      <trkpt lat="48.67793" lon="-2.31447">
        <ele>65</ele>
        <time>2020-06-24T09:36:51.024Z</time>
      </trkpt>
      <trkpt lat="48.67791" lon="-2.31446">
        <ele>65</ele>
        <time>2020-06-24T09:36:52.024Z</time>
      </trkpt>
      <trkpt lat="48.6779" lon="-2.31446">
        <ele>65</ele>
        <time>2020-06-24T09:36:53.024Z</time>
      </trkpt>
      <trkpt lat="48.67788" lon="-2.31446">
        <ele>65</ele>
        <time>2020-06-24T09:36:54.024Z</time>
      </trkpt>
      <trkpt lat="48.67787" lon="-2.31446">
        <ele>64</ele>
        <time>2020-06-24T09:36:55.024Z</time>
      </trkpt>
      <trkpt lat="48.67786" lon="-2.31446">
        <ele>64</ele>
        <time>2020-06-24T09:36:56.024Z</time>
      </trkpt>
      <trkpt lat="48.67784" lon="-2.31446">
        <ele>64</ele>
        <time>2020-06-24T09:36:57.024Z</time>
      </trkpt>
      <trkpt lat="48.67783" lon="-2.31447">
        <ele>64</ele>
        <time>2020-06-24T09:36:58.024Z</time>
      </trkpt>
      <trkpt lat="48.67781" lon="-2.31447">
        <ele>64</ele>
        <time>2020-06-24T09:36:59.024Z</time>
      </trkpt>
      <trkpt lat="48.6778" lon="-2.31448">
        <ele>64</ele>
        <time>2020-06-24T09:37:00.024Z</time>
      </trkpt>
      <trkpt lat="48.67779" lon="-2.31449">
        <ele>64</ele>
        <time>2020-06-24T09:37:01.024Z</time>
      </trkpt>
      <trkpt lat="48.67778" lon="-2.31451">
        <ele>64</ele>
        <time>2020-06-24T09:37:02.024Z</time>
      </trkpt>
      <trkpt lat="48.67777" lon="-2.31453">
        <ele>65</ele>
        <time>2020-06-24T09:37:03.024Z</time>
      </trkpt>
      <trkpt lat="48.67776" lon="-2.31454">
        <ele>65</ele>
        <time>2020-06-24T09:37:04.024Z</time>
      </trkpt>
      <trkpt lat="48.67776" lon="-2.31456">
        <ele>65</ele>
        <time>2020-06-24T09:37:05.024Z</time>
      </trkpt>
      <trkpt lat="48.67775" lon="-2.31458">
        <ele>65</ele>
        <time>2020-06-24T09:37:06.024Z</time>
      </trkpt>
      <trkpt lat="48.67774" lon="-2.31459">
        <ele>66</ele>
        <time>2020-06-24T09:37:07.024Z</time>
      </trkpt>
      <trkpt lat="48.67773" lon="-2.3146">
        <ele>65</ele>
        <time>2020-06-24T09:37:08.024Z</time>
      </trkpt>
      <trkpt lat="48.67772" lon="-2.31461">
        <ele>66</ele>
        <time>2020-06-24T09:37:09.024Z</time>
      </trkpt>
      <trkpt lat="48.67771" lon="-2.31462">
        <ele>66</ele>
        <time>2020-06-24T09:37:10.024Z</time>
      </trkpt>
      <trkpt lat="48.6777" lon="-2.31463">
        <ele>66</ele>
        <time>2020-06-24T09:37:11.024Z</time>
      </trkpt>
      <trkpt lat="48.67769" lon="-2.31463">
        <ele>66</ele>
        <time>2020-06-24T09:37:12.024Z</time>
      </trkpt>
      <trkpt lat="48.67767" lon="-2.31465">
        <ele>66</ele>
        <time>2020-06-24T09:37:13.024Z</time>
      </trkpt>
      <trkpt lat="48.67767" lon="-2.31466">
        <ele>65</ele>
        <time>2020-06-24T09:37:14.024Z</time>
      </trkpt>
      <trkpt lat="48.67766" lon="-2.31468">
        <ele>65</ele>
        <time>2020-06-24T09:37:15.024Z</time>
      </trkpt>
      <trkpt lat="48.67766" lon="-2.3147">
        <ele>65</ele>
        <time>2020-06-24T09:37:16.024Z</time>
      </trkpt>
      <trkpt lat="48.67765" lon="-2.31471">
        <ele>65</ele>
        <time>2020-06-24T09:37:17.024Z</time>
      </trkpt>
      <trkpt lat="48.67764" lon="-2.31473">
        <ele>65</ele>
        <time>2020-06-24T09:37:18.024Z</time>
      </trkpt>
      <trkpt lat="48.67764" lon="-2.31474">
        <ele>65</ele>
        <time>2020-06-24T09:37:19.024Z</time>
      </trkpt>
      <trkpt lat="48.67763" lon="-2.31475">
        <ele>65</ele>
        <time>2020-06-24T09:37:20.024Z</time>
      </trkpt>
      <trkpt lat="48.67762" lon="-2.31476">
        <ele>65</ele>
        <time>2020-06-24T09:37:21.024Z</time>
      </trkpt>
      <trkpt lat="48.67761" lon="-2.31478">
        <ele>65</ele>
        <time>2020-06-24T09:37:22.024Z</time>
      </trkpt>
      <trkpt lat="48.6776" lon="-2.31479">
        <ele>65</ele>
        <time>2020-06-24T09:37:23.024Z</time>
      </trkpt>
      <trkpt lat="48.67759" lon="-2.31481">
        <ele>65</ele>
        <time>2020-06-24T09:37:24.024Z</time>
      </trkpt>
      <trkpt lat="48.67758" lon="-2.31482">
        <ele>65</ele>
        <time>2020-06-24T09:37:25.024Z</time>
      </trkpt>
      <trkpt lat="48.67757" lon="-2.31483">
        <ele>65</ele>
        <time>2020-06-24T09:37:26.024Z</time>
      </trkpt>
      <trkpt lat="48.67756" lon="-2.31484">
        <ele>65</ele>
        <time>2020-06-24T09:37:27.024Z</time>
      </trkpt>
      <trkpt lat="48.67755" lon="-2.31485">
        <ele>65</ele>
        <time>2020-06-24T09:37:28.024Z</time>
      </trkpt>
      <trkpt lat="48.67753" lon="-2.31486">
        <ele>65</ele>
        <time>2020-06-24T09:37:29.024Z</time>
      </trkpt>
      <trkpt lat="48.67752" lon="-2.31487">
        <ele>65</ele>
        <time>2020-06-24T09:37:30.024Z</time>
      </trkpt>
      <trkpt lat="48.67751" lon="-2.31487">
        <ele>65</ele>
        <time>2020-06-24T09:37:31.024Z</time>
      </trkpt>
      <trkpt lat="48.6775" lon="-2.31488">
        <ele>65</ele>
        <time>2020-06-24T09:37:32.024Z</time>
      </trkpt>
      <trkpt lat="48.67748" lon="-2.31489">
        <ele>65</ele>
        <time>2020-06-24T09:37:33.024Z</time>
      </trkpt>
      <trkpt lat="48.67747" lon="-2.3149">
        <ele>65</ele>
        <time>2020-06-24T09:37:34.024Z</time>
      </trkpt>
      <trkpt lat="48.67746" lon="-2.3149">
        <ele>65</ele>
        <time>2020-06-24T09:37:35.024Z</time>
      </trkpt>
      <trkpt lat="48.67745" lon="-2.31491">
        <ele>65</ele>
        <time>2020-06-24T09:37:36.024Z</time>
      </trkpt>
      <trkpt lat="48.67743" lon="-2.31492">
        <ele>65</ele>
        <time>2020-06-24T09:37:37.024Z</time>
      </trkpt>
      <trkpt lat="48.67742" lon="-2.31492">
        <ele>65</ele>
        <time>2020-06-24T09:37:38.024Z</time>
      </trkpt>
      <trkpt lat="48.67741" lon="-2.31492">
        <ele>65</ele>
        <time>2020-06-24T09:37:39.024Z</time>
      </trkpt>
      <trkpt lat="48.6774" lon="-2.31493">
        <ele>65</ele>
        <time>2020-06-24T09:37:40.024Z</time>
      </trkpt>
      <trkpt lat="48.67738" lon="-2.31493">
        <ele>65</ele>
        <time>2020-06-24T09:37:41.024Z</time>
      </trkpt>
      <trkpt lat="48.67737" lon="-2.31494">
        <ele>65</ele>
        <time>2020-06-24T09:37:42.024Z</time>
      </trkpt>
      <trkpt lat="48.67736" lon="-2.31494">
        <ele>65</ele>
        <time>2020-06-24T09:37:43.024Z</time>
      </trkpt>
      <trkpt lat="48.67734" lon="-2.31495">
        <ele>65</ele>
        <time>2020-06-24T09:37:44.024Z</time>
      </trkpt>
      <trkpt lat="48.67733" lon="-2.31495">
        <ele>65</ele>
        <time>2020-06-24T09:37:45.024Z</time>
      </trkpt>
      <trkpt lat="48.67731" lon="-2.31496">
        <ele>65</ele>
        <time>2020-06-24T09:37:46.024Z</time>
      </trkpt>
      <trkpt lat="48.6773" lon="-2.31496">
        <ele>65</ele>
        <time>2020-06-24T09:37:47.024Z</time>
      </trkpt>
      <trkpt lat="48.67729" lon="-2.31497">
        <ele>64</ele>
        <time>2020-06-24T09:37:48.024Z</time>
      </trkpt>
      <trkpt lat="48.67727" lon="-2.31497">
        <ele>64</ele>
        <time>2020-06-24T09:37:49.024Z</time>
      </trkpt>
      <trkpt lat="48.67726" lon="-2.31498">
        <ele>65</ele>
        <time>2020-06-24T09:37:50.024Z</time>
      </trkpt>
      <trkpt lat="48.67724" lon="-2.31498">
        <ele>65</ele>
        <time>2020-06-24T09:37:51.024Z</time>
      </trkpt>
      <trkpt lat="48.67723" lon="-2.31499">
        <ele>65</ele>
        <time>2020-06-24T09:37:52.024Z</time>
      </trkpt>
      <trkpt lat="48.67722" lon="-2.31499">
        <ele>65</ele>
        <time>2020-06-24T09:37:53.024Z</time>
      </trkpt>
      <trkpt lat="48.6772" lon="-2.31499">
        <ele>65</ele>
        <time>2020-06-24T09:37:54.024Z</time>
      </trkpt>
      <trkpt lat="48.67719" lon="-2.315">
        <ele>65</ele>
        <time>2020-06-24T09:37:55.024Z</time>
      </trkpt>
      <trkpt lat="48.67718" lon="-2.315">
        <ele>65</ele>
        <time>2020-06-24T09:37:56.024Z</time>
      </trkpt>
      <trkpt lat="48.67716" lon="-2.31501">
        <ele>65</ele>
        <time>2020-06-24T09:37:57.024Z</time>
      </trkpt>
      <trkpt lat="48.67715" lon="-2.31502">
        <ele>65</ele>
        <time>2020-06-24T09:37:58.024Z</time>
      </trkpt>
      <trkpt lat="48.67714" lon="-2.31502">
        <ele>65</ele>
        <time>2020-06-24T09:37:59.024Z</time>
      </trkpt>
      <trkpt lat="48.67712" lon="-2.31503">
        <ele>65</ele>
        <time>2020-06-24T09:38:00.024Z</time>
      </trkpt>
      <trkpt lat="48.67711" lon="-2.31503">
        <ele>65</ele>
        <time>2020-06-24T09:38:01.024Z</time>
      </trkpt>
      <trkpt lat="48.67709" lon="-2.31504">
        <ele>65</ele>
        <time>2020-06-24T09:38:02.024Z</time>
      </trkpt>
      <trkpt lat="48.67708" lon="-2.31504">
        <ele>65</ele>
        <time>2020-06-24T09:38:03.024Z</time>
      </trkpt>
      <trkpt lat="48.67707" lon="-2.31505">
        <ele>65</ele>
        <time>2020-06-24T09:38:04.024Z</time>
      </trkpt>
      <trkpt lat="48.67705" lon="-2.31506">
        <ele>65</ele>
        <time>2020-06-24T09:38:05.024Z</time>
      </trkpt>
      <trkpt lat="48.67704" lon="-2.31506">
        <ele>65</ele>
        <time>2020-06-24T09:38:06.024Z</time>
      </trkpt>
      <trkpt lat="48.67702" lon="-2.31507">
        <ele>64</ele>
        <time>2020-06-24T09:38:07.024Z</time>
      </trkpt>
      <trkpt lat="48.67701" lon="-2.31508">
        <ele>65</ele>
        <time>2020-06-24T09:38:08.024Z</time>
      </trkpt>
      <trkpt lat="48.677" lon="-2.31508">
        <ele>65</ele>
        <time>2020-06-24T09:38:09.024Z</time>
      </trkpt>
      <trkpt lat="48.67698" lon="-2.31509">
        <ele>65</ele>
        <time>2020-06-24T09:38:10.024Z</time>
      </trkpt>
      <trkpt lat="48.67697" lon="-2.31509">
        <ele>65</ele>
        <time>2020-06-24T09:38:11.024Z</time>
      </trkpt>
      <trkpt lat="48.67696" lon="-2.3151">
        <ele>65</ele>
        <time>2020-06-24T09:38:12.024Z</time>
      </trkpt>
      <trkpt lat="48.67694" lon="-2.31511">
        <ele>65</ele>
        <time>2020-06-24T09:38:13.024Z</time>
      </trkpt>
      <trkpt lat="48.67693" lon="-2.31512">
        <ele>64</ele>
        <time>2020-06-24T09:38:14.024Z</time>
      </trkpt>
      <trkpt lat="48.67691" lon="-2.31513">
        <ele>65</ele>
        <time>2020-06-24T09:38:15.024Z</time>
      </trkpt>
      <trkpt lat="48.6769" lon="-2.31513">
        <ele>65</ele>
        <time>2020-06-24T09:38:16.024Z</time>
      </trkpt>
      <trkpt lat="48.67689" lon="-2.31514">
        <ele>65</ele>
        <time>2020-06-24T09:38:17.024Z</time>
      </trkpt>
      <trkpt lat="48.67687" lon="-2.31515">
        <ele>65</ele>
        <time>2020-06-24T09:38:18.024Z</time>
      </trkpt>
      <trkpt lat="48.67686" lon="-2.31515">
        <ele>65</ele>
        <time>2020-06-24T09:38:19.024Z</time>
      </trkpt>
      <trkpt lat="48.67685" lon="-2.31516">
        <ele>65</ele>
        <time>2020-06-24T09:38:20.024Z</time>
      </trkpt>
      <trkpt lat="48.67683" lon="-2.31516">
        <ele>65</ele>
        <time>2020-06-24T09:38:21.024Z</time>
      </trkpt>
      <trkpt lat="48.67682" lon="-2.31517">
        <ele>65</ele>
        <time>2020-06-24T09:38:22.024Z</time>
      </trkpt>
      <trkpt lat="48.6768" lon="-2.31517">
        <ele>65</ele>
        <time>2020-06-24T09:38:23.024Z</time>
      </trkpt>
      <trkpt lat="48.67679" lon="-2.31517">
        <ele>65</ele>
        <time>2020-06-24T09:38:24.024Z</time>
      </trkpt>
      <trkpt lat="48.67678" lon="-2.31517">
        <ele>65</ele>
        <time>2020-06-24T09:38:25.024Z</time>
      </trkpt>
      <trkpt lat="48.67676" lon="-2.31517">
        <ele>65</ele>
        <time>2020-06-24T09:38:26.024Z</time>
      </trkpt>
      <trkpt lat="48.67675" lon="-2.31517">
        <ele>65</ele>
        <time>2020-06-24T09:38:27.024Z</time>
      </trkpt>
      <trkpt lat="48.67674" lon="-2.31517">
        <ele>65</ele>
        <time>2020-06-24T09:38:28.024Z</time>
      </trkpt>
      <trkpt lat="48.67672" lon="-2.31517">
        <ele>65</ele>
        <time>2020-06-24T09:38:29.024Z</time>
      </trkpt>
      <trkpt lat="48.67671" lon="-2.31517">
        <ele>65</ele>
        <time>2020-06-24T09:38:30.024Z</time>
      </trkpt>
      <trkpt lat="48.6767" lon="-2.31517">
        <ele>65</ele>
        <time>2020-06-24T09:38:31.024Z</time>
      </trkpt>
      <trkpt lat="48.67669" lon="-2.31518">
        <ele>65</ele>
        <time>2020-06-24T09:38:32.024Z</time>
      </trkpt>
      <trkpt lat="48.67667" lon="-2.31518">
        <ele>64</ele>
        <time>2020-06-24T09:38:33.024Z</time>
      </trkpt>
      <trkpt lat="48.67666" lon="-2.31519">
        <ele>64</ele>
        <time>2020-06-24T09:38:34.024Z</time>
      </trkpt>
      <trkpt lat="48.67665" lon="-2.3152">
        <ele>64</ele>
        <time>2020-06-24T09:38:35.024Z</time>
      </trkpt>
      <trkpt lat="48.67664" lon="-2.31521">
        <ele>64</ele>
        <time>2020-06-24T09:38:36.024Z</time>
      </trkpt>
      <trkpt lat="48.67662" lon="-2.31522">
        <ele>64</ele>
        <time>2020-06-24T09:38:37.024Z</time>
      </trkpt>
      <trkpt lat="48.67661" lon="-2.31523">
        <ele>65</ele>
        <time>2020-06-24T09:38:38.024Z</time>
      </trkpt>
      <trkpt lat="48.6766" lon="-2.31523">
        <ele>65</ele>
        <time>2020-06-24T09:38:39.024Z</time>
      </trkpt>
      <trkpt lat="48.67659" lon="-2.31524">
        <ele>65</ele>
        <time>2020-06-24T09:38:40.024Z</time>
      </trkpt>
      <trkpt lat="48.67657" lon="-2.31524">
        <ele>65</ele>
        <time>2020-06-24T09:38:41.024Z</time>
      </trkpt>
      <trkpt lat="48.67656" lon="-2.31525">
        <ele>65</ele>
        <time>2020-06-24T09:38:42.024Z</time>
      </trkpt>
      <trkpt lat="48.67655" lon="-2.31525">
        <ele>65</ele>
        <time>2020-06-24T09:38:43.024Z</time>
      </trkpt>
      <trkpt lat="48.67654" lon="-2.31526">
        <ele>65</ele>
        <time>2020-06-24T09:38:44.024Z</time>
      </trkpt>
      <trkpt lat="48.67653" lon="-2.31527">
        <ele>65</ele>
        <time>2020-06-24T09:38:45.024Z</time>
      </trkpt>
      <trkpt lat="48.67652" lon="-2.31528">
        <ele>65</ele>
        <time>2020-06-24T09:38:46.024Z</time>
      </trkpt>
      <trkpt lat="48.67651" lon="-2.31529">
        <ele>65</ele>
        <time>2020-06-24T09:38:47.024Z</time>
      </trkpt>
      <trkpt lat="48.6765" lon="-2.3153">
        <ele>65</ele>
        <time>2020-06-24T09:38:48.024Z</time>
      </trkpt>
      <trkpt lat="48.67649" lon="-2.3153">
        <ele>65</ele>
        <time>2020-06-24T09:38:49.024Z</time>
      </trkpt>
      <trkpt lat="48.67648" lon="-2.31529">
        <ele>65</ele>
        <time>2020-06-24T09:38:50.024Z</time>
      </trkpt>
      <trkpt lat="48.67646" lon="-2.31529">
        <ele>65</ele>
        <time>2020-06-24T09:38:51.024Z</time>
      </trkpt>
      <trkpt lat="48.67645" lon="-2.31528">
        <ele>65</ele>
        <time>2020-06-24T09:38:52.024Z</time>
      </trkpt>
      <trkpt lat="48.67644" lon="-2.31528">
        <ele>65</ele>
        <time>2020-06-24T09:38:53.024Z</time>
      </trkpt>
      <trkpt lat="48.67642" lon="-2.31528">
        <ele>64</ele>
        <time>2020-06-24T09:38:54.024Z</time>
      </trkpt>
      <trkpt lat="48.67641" lon="-2.31528">
        <ele>64</ele>
        <time>2020-06-24T09:38:55.024Z</time>
      </trkpt>
      <trkpt lat="48.6764" lon="-2.31529">
        <ele>64</ele>
        <time>2020-06-24T09:38:56.024Z</time>
      </trkpt>
      <trkpt lat="48.67639" lon="-2.3153">
        <ele>65</ele>
        <time>2020-06-24T09:38:57.024Z</time>
      </trkpt>
      <trkpt lat="48.67638" lon="-2.31531">
        <ele>65</ele>
        <time>2020-06-24T09:38:58.024Z</time>
      </trkpt>
      <trkpt lat="48.67637" lon="-2.31532">
        <ele>65</ele>
        <time>2020-06-24T09:38:59.024Z</time>
      </trkpt>
      <trkpt lat="48.67636" lon="-2.31534">
        <ele>65</ele>
        <time>2020-06-24T09:39:00.024Z</time>
      </trkpt>
      <trkpt lat="48.67635" lon="-2.31534">
        <ele>65</ele>
        <time>2020-06-24T09:39:01.024Z</time>
      </trkpt>
      <trkpt lat="48.67633" lon="-2.31535">
        <ele>65</ele>
        <time>2020-06-24T09:39:02.024Z</time>
      </trkpt>
      <trkpt lat="48.67632" lon="-2.31535">
        <ele>65</ele>
        <time>2020-06-24T09:39:03.024Z</time>
      </trkpt>
      <trkpt lat="48.67631" lon="-2.31535">
        <ele>65</ele>
        <time>2020-06-24T09:39:04.024Z</time>
      </trkpt>
      <trkpt lat="48.6763" lon="-2.31534">
        <ele>64</ele>
        <time>2020-06-24T09:39:05.024Z</time>
      </trkpt>
      <trkpt lat="48.67628" lon="-2.31534">
        <ele>64</ele>
        <time>2020-06-24T09:39:06.024Z</time>
      </trkpt>
      <trkpt lat="48.67627" lon="-2.31533">
        <ele>64</ele>
        <time>2020-06-24T09:39:07.024Z</time>
      </trkpt>
      <trkpt lat="48.67626" lon="-2.31533">
        <ele>64</ele>
        <time>2020-06-24T09:39:08.024Z</time>
      </trkpt>
      <trkpt lat="48.67624" lon="-2.31532">
        <ele>64</ele>
        <time>2020-06-24T09:39:09.024Z</time>
      </trkpt>
      <trkpt lat="48.67623" lon="-2.31532">
        <ele>64</ele>
        <time>2020-06-24T09:39:10.024Z</time>
      </trkpt>
      <trkpt lat="48.67622" lon="-2.31531">
        <ele>64</ele>
        <time>2020-06-24T09:39:11.024Z</time>
      </trkpt>
      <trkpt lat="48.67621" lon="-2.31531">
        <ele>64</ele>
        <time>2020-06-24T09:39:12.024Z</time>
      </trkpt>
      <trkpt lat="48.6762" lon="-2.3153">
        <ele>64</ele>
        <time>2020-06-24T09:39:13.024Z</time>
      </trkpt>
      <trkpt lat="48.6762" lon="-2.3153">
        <ele>64</ele>
        <time>2020-06-24T09:39:14.024Z</time>
      </trkpt>
      <trkpt lat="48.6762" lon="-2.3153">
        <ele>64</ele>
        <time>2020-06-24T09:39:15.024Z</time>
      </trkpt>
      <trkpt lat="48.67619" lon="-2.3153">
        <ele>64</ele>
        <time>2020-06-24T09:39:16.024Z</time>
      </trkpt>
      <trkpt lat="48.67618" lon="-2.31531">
        <ele>64</ele>
        <time>2020-06-24T09:39:17.024Z</time>
      </trkpt>
      <trkpt lat="48.67617" lon="-2.31532">
        <ele>64</ele>
        <time>2020-06-24T09:39:18.024Z</time>
      </trkpt>
      <trkpt lat="48.67616" lon="-2.31532">
        <ele>64</ele>
        <time>2020-06-24T09:39:19.024Z</time>
      </trkpt>
      <trkpt lat="48.67615" lon="-2.31532">
        <ele>65</ele>
        <time>2020-06-24T09:39:20.024Z</time>
      </trkpt>
      <trkpt lat="48.67613" lon="-2.31533">
        <ele>65</ele>
        <time>2020-06-24T09:39:21.024Z</time>
      </trkpt>
      <trkpt lat="48.67612" lon="-2.31533">
        <ele>65</ele>
        <time>2020-06-24T09:39:22.024Z</time>
      </trkpt>
      <trkpt lat="48.67611" lon="-2.31534">
        <ele>65</ele>
        <time>2020-06-24T09:39:23.024Z</time>
      </trkpt>
      <trkpt lat="48.67609" lon="-2.31535">
        <ele>64</ele>
        <time>2020-06-24T09:39:24.024Z</time>
      </trkpt>
      <trkpt lat="48.67608" lon="-2.31535">
        <ele>64</ele>
        <time>2020-06-24T09:39:25.024Z</time>
      </trkpt>
      <trkpt lat="48.67607" lon="-2.31535">
        <ele>64</ele>
        <time>2020-06-24T09:39:26.024Z</time>
      </trkpt>
      <trkpt lat="48.67605" lon="-2.31535">
        <ele>64</ele>
        <time>2020-06-24T09:39:27.024Z</time>
      </trkpt>
      <trkpt lat="48.67604" lon="-2.31535">
        <ele>64</ele>
        <time>2020-06-24T09:39:28.024Z</time>
      </trkpt>
      <trkpt lat="48.67603" lon="-2.31535">
        <ele>64</ele>
        <time>2020-06-24T09:39:29.024Z</time>
      </trkpt>
      <trkpt lat="48.67601" lon="-2.31536">
        <ele>64</ele>
        <time>2020-06-24T09:39:30.024Z</time>
      </trkpt>
      <trkpt lat="48.676" lon="-2.31537">
        <ele>64</ele>
        <time>2020-06-24T09:39:31.024Z</time>
      </trkpt>
      <trkpt lat="48.67599" lon="-2.31537">
        <ele>64</ele>
        <time>2020-06-24T09:39:32.024Z</time>
      </trkpt>
      <trkpt lat="48.67597" lon="-2.31538">
        <ele>64</ele>
        <time>2020-06-24T09:39:33.024Z</time>
      </trkpt>
      <trkpt lat="48.67596" lon="-2.31539">
        <ele>64</ele>
        <time>2020-06-24T09:39:34.024Z</time>
      </trkpt>
      <trkpt lat="48.67595" lon="-2.31539">
        <ele>64</ele>
        <time>2020-06-24T09:39:35.024Z</time>
      </trkpt>
      <trkpt lat="48.67594" lon="-2.31539">
        <ele>64</ele>
        <time>2020-06-24T09:39:36.024Z</time>
      </trkpt>
      <trkpt lat="48.67592" lon="-2.31538">
        <ele>64</ele>
        <time>2020-06-24T09:39:37.024Z</time>
      </trkpt>
      <trkpt lat="48.67591" lon="-2.31538">
        <ele>64</ele>
        <time>2020-06-24T09:39:38.024Z</time>
      </trkpt>
      <trkpt lat="48.6759" lon="-2.31537">
        <ele>64</ele>
        <time>2020-06-24T09:39:39.024Z</time>
      </trkpt>
      <trkpt lat="48.67589" lon="-2.31537">
        <ele>64</ele>
        <time>2020-06-24T09:39:40.024Z</time>
      </trkpt>
      <trkpt lat="48.67588" lon="-2.31536">
        <ele>64</ele>
        <time>2020-06-24T09:39:41.024Z</time>
      </trkpt>
      <trkpt lat="48.67587" lon="-2.31536">
        <ele>64</ele>
        <time>2020-06-24T09:39:42.024Z</time>
      </trkpt>
      <trkpt lat="48.67586" lon="-2.31536">
        <ele>64</ele>
        <time>2020-06-24T09:39:43.024Z</time>
      </trkpt>
      <trkpt lat="48.67584" lon="-2.31535">
        <ele>64</ele>
        <time>2020-06-24T09:39:44.024Z</time>
      </trkpt>
      <trkpt lat="48.67583" lon="-2.31535">
        <ele>64</ele>
        <time>2020-06-24T09:39:45.024Z</time>
      </trkpt>
      <trkpt lat="48.67582" lon="-2.31535">
        <ele>64</ele>
        <time>2020-06-24T09:39:46.024Z</time>
      </trkpt>
      <trkpt lat="48.67581" lon="-2.31534">
        <ele>64</ele>
        <time>2020-06-24T09:39:47.024Z</time>
      </trkpt>
      <trkpt lat="48.6758" lon="-2.31533">
        <ele>64</ele>
        <time>2020-06-24T09:39:48.024Z</time>
      </trkpt>
      <trkpt lat="48.67579" lon="-2.31533">
        <ele>64</ele>
        <time>2020-06-24T09:39:49.024Z</time>
      </trkpt>
      <trkpt lat="48.67578" lon="-2.31533">
        <ele>64</ele>
        <time>2020-06-24T09:39:50.024Z</time>
      </trkpt>
      <trkpt lat="48.67576" lon="-2.31532">
        <ele>64</ele>
        <time>2020-06-24T09:39:51.024Z</time>
      </trkpt>
      <trkpt lat="48.67575" lon="-2.31532">
        <ele>64</ele>
        <time>2020-06-24T09:39:52.024Z</time>
      </trkpt>
      <trkpt lat="48.67574" lon="-2.31533">
        <ele>63</ele>
        <time>2020-06-24T09:39:53.024Z</time>
      </trkpt>
      <trkpt lat="48.67572" lon="-2.31534">
        <ele>63</ele>
        <time>2020-06-24T09:39:54.024Z</time>
      </trkpt>
      <trkpt lat="48.67571" lon="-2.31535">
        <ele>63</ele>
        <time>2020-06-24T09:39:55.024Z</time>
      </trkpt>
      <trkpt lat="48.6757" lon="-2.31536">
        <ele>63</ele>
        <time>2020-06-24T09:39:56.024Z</time>
      </trkpt>
      <trkpt lat="48.67568" lon="-2.31538">
        <ele>63</ele>
        <time>2020-06-24T09:39:57.024Z</time>
      </trkpt>
      <trkpt lat="48.67567" lon="-2.31539">
        <ele>63</ele>
        <time>2020-06-24T09:39:58.024Z</time>
      </trkpt>
      <trkpt lat="48.67566" lon="-2.3154">
        <ele>63</ele>
        <time>2020-06-24T09:39:59.024Z</time>
      </trkpt>
      <trkpt lat="48.67565" lon="-2.31542">
        <ele>63</ele>
        <time>2020-06-24T09:40:00.024Z</time>
      </trkpt>
      <trkpt lat="48.67564" lon="-2.31543">
        <ele>63</ele>
        <time>2020-06-24T09:40:01.024Z</time>
      </trkpt>
      <trkpt lat="48.67563" lon="-2.31545">
        <ele>63</ele>
        <time>2020-06-24T09:40:02.024Z</time>
      </trkpt>
      <trkpt lat="48.67562" lon="-2.31546">
        <ele>63</ele>
        <time>2020-06-24T09:40:03.024Z</time>
      </trkpt>
      <trkpt lat="48.67561" lon="-2.31548">
        <ele>62</ele>
        <time>2020-06-24T09:40:04.024Z</time>
      </trkpt>
      <trkpt lat="48.6756" lon="-2.31549">
        <ele>62</ele>
        <time>2020-06-24T09:40:05.024Z</time>
      </trkpt>
      <trkpt lat="48.67559" lon="-2.31551">
        <ele>62</ele>
        <time>2020-06-24T09:40:06.024Z</time>
      </trkpt>
      <trkpt lat="48.67559" lon="-2.31553">
        <ele>62</ele>
        <time>2020-06-24T09:40:07.024Z</time>
      </trkpt>
      <trkpt lat="48.67558" lon="-2.31554">
        <ele>62</ele>
        <time>2020-06-24T09:40:08.024Z</time>
      </trkpt>
      <trkpt lat="48.67557" lon="-2.31556">
        <ele>61</ele>
        <time>2020-06-24T09:40:09.024Z</time>
      </trkpt>
      <trkpt lat="48.67556" lon="-2.31558">
        <ele>61</ele>
        <time>2020-06-24T09:40:10.024Z</time>
      </trkpt>
      <trkpt lat="48.67555" lon="-2.31559">
        <ele>61</ele>
        <time>2020-06-24T09:40:11.024Z</time>
      </trkpt>
      <trkpt lat="48.67554" lon="-2.31561">
        <ele>61</ele>
        <time>2020-06-24T09:40:12.024Z</time>
      </trkpt>
      <trkpt lat="48.67553" lon="-2.31562">
        <ele>61</ele>
        <time>2020-06-24T09:40:13.024Z</time>
      </trkpt>
      <trkpt lat="48.67552" lon="-2.31564">
        <ele>61</ele>
        <time>2020-06-24T09:40:14.024Z</time>
      </trkpt>
      <trkpt lat="48.67552" lon="-2.31566">
        <ele>61</ele>
        <time>2020-06-24T09:40:15.024Z</time>
      </trkpt>
      <trkpt lat="48.67551" lon="-2.31568">
        <ele>61</ele>
        <time>2020-06-24T09:40:16.024Z</time>
      </trkpt>
      <trkpt lat="48.6755" lon="-2.3157">
        <ele>61</ele>
        <time>2020-06-24T09:40:17.024Z</time>
      </trkpt>
      <trkpt lat="48.67549" lon="-2.31571">
        <ele>61</ele>
        <time>2020-06-24T09:40:18.024Z</time>
      </trkpt>
      <trkpt lat="48.67549" lon="-2.31573">
        <ele>61</ele>
        <time>2020-06-24T09:40:19.024Z</time>
      </trkpt>
      <trkpt lat="48.67548" lon="-2.31575">
        <ele>61</ele>
        <time>2020-06-24T09:40:20.024Z</time>
      </trkpt>
      <trkpt lat="48.67547" lon="-2.31577">
        <ele>61</ele>
        <time>2020-06-24T09:40:21.024Z</time>
      </trkpt>
      <trkpt lat="48.67547" lon="-2.31579">
        <ele>61</ele>
        <time>2020-06-24T09:40:22.024Z</time>
      </trkpt>
      <trkpt lat="48.67546" lon="-2.31581">
        <ele>61</ele>
        <time>2020-06-24T09:40:23.024Z</time>
      </trkpt>
      <trkpt lat="48.67545" lon="-2.31583">
        <ele>61</ele>
        <time>2020-06-24T09:40:24.024Z</time>
      </trkpt>
      <trkpt lat="48.67544" lon="-2.31584">
        <ele>61</ele>
        <time>2020-06-24T09:40:25.024Z</time>
      </trkpt>
      <trkpt lat="48.67543" lon="-2.31586">
        <ele>61</ele>
        <time>2020-06-24T09:40:26.024Z</time>
      </trkpt>
      <trkpt lat="48.67542" lon="-2.31588">
        <ele>60</ele>
        <time>2020-06-24T09:40:27.024Z</time>
      </trkpt>
      <trkpt lat="48.67542" lon="-2.31589">
        <ele>60</ele>
        <time>2020-06-24T09:40:28.024Z</time>
      </trkpt>
      <trkpt lat="48.67541" lon="-2.31591">
        <ele>60</ele>
        <time>2020-06-24T09:40:29.024Z</time>
      </trkpt>
      <trkpt lat="48.6754" lon="-2.31593">
        <ele>60</ele>
        <time>2020-06-24T09:40:30.024Z</time>
      </trkpt>
      <trkpt lat="48.6754" lon="-2.31595">
        <ele>60</ele>
        <time>2020-06-24T09:40:31.024Z</time>
      </trkpt>
      <trkpt lat="48.6754" lon="-2.31597">
        <ele>60</ele>
        <time>2020-06-24T09:40:32.024Z</time>
      </trkpt>
      <trkpt lat="48.6754" lon="-2.31599">
        <ele>60</ele>
        <time>2020-06-24T09:40:33.024Z</time>
      </trkpt>
      <trkpt lat="48.67539" lon="-2.316">
        <ele>60</ele>
        <time>2020-06-24T09:40:34.024Z</time>
      </trkpt>
      <trkpt lat="48.67539" lon="-2.31602">
        <ele>60</ele>
        <time>2020-06-24T09:40:35.024Z</time>
      </trkpt>
      <trkpt lat="48.67538" lon="-2.31604">
        <ele>60</ele>
        <time>2020-06-24T09:40:36.024Z</time>
      </trkpt>
      <trkpt lat="48.67538" lon="-2.31606">
        <ele>60</ele>
        <time>2020-06-24T09:40:37.024Z</time>
      </trkpt>
      <trkpt lat="48.67537" lon="-2.31608">
        <ele>60</ele>
        <time>2020-06-24T09:40:38.024Z</time>
      </trkpt>
      <trkpt lat="48.67537" lon="-2.3161">
        <ele>60</ele>
        <time>2020-06-24T09:40:39.024Z</time>
      </trkpt>
      <trkpt lat="48.67536" lon="-2.31612">
        <ele>60</ele>
        <time>2020-06-24T09:40:40.024Z</time>
      </trkpt>
      <trkpt lat="48.67536" lon="-2.31614">
        <ele>60</ele>
        <time>2020-06-24T09:40:41.024Z</time>
      </trkpt>
      <trkpt lat="48.67536" lon="-2.31616">
        <ele>60</ele>
        <time>2020-06-24T09:40:42.024Z</time>
      </trkpt>
      <trkpt lat="48.67535" lon="-2.31617">
        <ele>60</ele>
        <time>2020-06-24T09:40:43.024Z</time>
      </trkpt>
      <trkpt lat="48.67535" lon="-2.31619">
        <ele>60</ele>
        <time>2020-06-24T09:40:44.024Z</time>
      </trkpt>
      <trkpt lat="48.67534" lon="-2.31621">
        <ele>60</ele>
        <time>2020-06-24T09:40:45.024Z</time>
      </trkpt>
      <trkpt lat="48.67534" lon="-2.31623">
        <ele>60</ele>
        <time>2020-06-24T09:40:46.024Z</time>
      </trkpt>
      <trkpt lat="48.67534" lon="-2.31624">
        <ele>59</ele>
        <time>2020-06-24T09:40:47.024Z</time>
      </trkpt>
      <trkpt lat="48.67533" lon="-2.31626">
        <ele>59</ele>
        <time>2020-06-24T09:40:48.024Z</time>
      </trkpt>
      <trkpt lat="48.67533" lon="-2.31628">
        <ele>59</ele>
        <time>2020-06-24T09:40:49.024Z</time>
      </trkpt>
      <trkpt lat="48.67532" lon="-2.3163">
        <ele>59</ele>
        <time>2020-06-24T09:40:50.024Z</time>
      </trkpt>
      <trkpt lat="48.67532" lon="-2.31632">
        <ele>59</ele>
        <time>2020-06-24T09:40:51.024Z</time>
      </trkpt>
      <trkpt lat="48.67531" lon="-2.31633">
        <ele>59</ele>
        <time>2020-06-24T09:40:52.024Z</time>
      </trkpt>
      <trkpt lat="48.67531" lon="-2.31635">
        <ele>59</ele>
        <time>2020-06-24T09:40:53.024Z</time>
      </trkpt>
      <trkpt lat="48.6753" lon="-2.31637">
        <ele>59</ele>
        <time>2020-06-24T09:40:54.024Z</time>
      </trkpt>
      <trkpt lat="48.6753" lon="-2.31639">
        <ele>59</ele>
        <time>2020-06-24T09:40:55.024Z</time>
      </trkpt>
      <trkpt lat="48.67529" lon="-2.3164">
        <ele>59</ele>
        <time>2020-06-24T09:40:56.024Z</time>
      </trkpt>
      <trkpt lat="48.67529" lon="-2.31642">
        <ele>59</ele>
        <time>2020-06-24T09:40:57.024Z</time>
      </trkpt>
      <trkpt lat="48.67528" lon="-2.31643">
        <ele>58</ele>
        <time>2020-06-24T09:40:58.024Z</time>
      </trkpt>
      <trkpt lat="48.67527" lon="-2.31645">
        <ele>58</ele>
        <time>2020-06-24T09:40:59.024Z</time>
      </trkpt>
      <trkpt lat="48.67526" lon="-2.31646">
        <ele>58</ele>
        <time>2020-06-24T09:41:00.024Z</time>
      </trkpt>
      <trkpt lat="48.67525" lon="-2.31648">
        <ele>58</ele>
        <time>2020-06-24T09:41:01.024Z</time>
      </trkpt>
      <trkpt lat="48.67524" lon="-2.31649">
        <ele>58</ele>
        <time>2020-06-24T09:41:02.024Z</time>
      </trkpt>
      <trkpt lat="48.67523" lon="-2.31651">
        <ele>58</ele>
        <time>2020-06-24T09:41:03.024Z</time>
      </trkpt>
      <trkpt lat="48.67522" lon="-2.31652">
        <ele>58</ele>
        <time>2020-06-24T09:41:04.024Z</time>
      </trkpt>
      <trkpt lat="48.67521" lon="-2.31654">
        <ele>58</ele>
        <time>2020-06-24T09:41:05.024Z</time>
      </trkpt>
      <trkpt lat="48.6752" lon="-2.31655">
        <ele>57</ele>
        <time>2020-06-24T09:41:06.024Z</time>
      </trkpt>
      <trkpt lat="48.67519" lon="-2.31657">
        <ele>57</ele>
        <time>2020-06-24T09:41:07.024Z</time>
      </trkpt>
      <trkpt lat="48.67518" lon="-2.31658">
        <ele>57</ele>
        <time>2020-06-24T09:41:08.024Z</time>
      </trkpt>
      <trkpt lat="48.67517" lon="-2.3166">
        <ele>57</ele>
        <time>2020-06-24T09:41:09.024Z</time>
      </trkpt>
      <trkpt lat="48.67516" lon="-2.31661">
        <ele>58</ele>
        <time>2020-06-24T09:41:10.024Z</time>
      </trkpt>
      <trkpt lat="48.67515" lon="-2.31663">
        <ele>58</ele>
        <time>2020-06-24T09:41:11.024Z</time>
      </trkpt>
      <trkpt lat="48.67515" lon="-2.31665">
        <ele>58</ele>
        <time>2020-06-24T09:41:12.024Z</time>
      </trkpt>
      <trkpt lat="48.67514" lon="-2.31667">
        <ele>58</ele>
        <time>2020-06-24T09:41:13.024Z</time>
      </trkpt>
      <trkpt lat="48.67513" lon="-2.31668">
        <ele>57</ele>
        <time>2020-06-24T09:41:14.024Z</time>
      </trkpt>
      <trkpt lat="48.67512" lon="-2.3167">
        <ele>58</ele>
        <time>2020-06-24T09:41:15.024Z</time>
      </trkpt>
      <trkpt lat="48.67512" lon="-2.31672">
        <ele>57</ele>
        <time>2020-06-24T09:41:16.024Z</time>
      </trkpt>
      <trkpt lat="48.67511" lon="-2.31673">
        <ele>57</ele>
        <time>2020-06-24T09:41:17.024Z</time>
      </trkpt>
      <trkpt lat="48.6751" lon="-2.31675">
        <ele>57</ele>
        <time>2020-06-24T09:41:18.024Z</time>
      </trkpt>
      <trkpt lat="48.67509" lon="-2.31677">
        <ele>57</ele>
        <time>2020-06-24T09:41:19.024Z</time>
      </trkpt>
      <trkpt lat="48.67508" lon="-2.31678">
        <ele>57</ele>
        <time>2020-06-24T09:41:20.024Z</time>
      </trkpt>
      <trkpt lat="48.67508" lon="-2.3168">
        <ele>57</ele>
        <time>2020-06-24T09:41:21.024Z</time>
      </trkpt>
      <trkpt lat="48.67507" lon="-2.31681">
        <ele>57</ele>
        <time>2020-06-24T09:41:22.024Z</time>
      </trkpt>
      <trkpt lat="48.67506" lon="-2.31682">
        <ele>57</ele>
        <time>2020-06-24T09:41:23.024Z</time>
      </trkpt>
      <trkpt lat="48.67506" lon="-2.31683">
        <ele>57</ele>
        <time>2020-06-24T09:41:24.024Z</time>
      </trkpt>
      <trkpt lat="48.67505" lon="-2.31683">
        <ele>56</ele>
        <time>2020-06-24T09:41:25.024Z</time>
      </trkpt>
      <trkpt lat="48.67505" lon="-2.31683">
        <ele>56</ele>
        <time>2020-06-24T09:41:26.024Z</time>
      </trkpt>
      <trkpt lat="48.67504" lon="-2.31683">
        <ele>55</ele>
        <time>2020-06-24T09:41:27.024Z</time>
      </trkpt>
      <trkpt lat="48.67504" lon="-2.31683">
        <ele>55</ele>
        <time>2020-06-24T09:41:28.024Z</time>
      </trkpt>
      <trkpt lat="48.67503" lon="-2.31683">
        <ele>54</ele>
        <time>2020-06-24T09:41:29.024Z</time>
      </trkpt>
      <trkpt lat="48.67503" lon="-2.31683">
        <ele>54</ele>
        <time>2020-06-24T09:41:30.024Z</time>
      </trkpt>
      <trkpt lat="48.67502" lon="-2.31683">
        <ele>54</ele>
        <time>2020-06-24T09:41:31.024Z</time>
      </trkpt>
      <trkpt lat="48.67501" lon="-2.31684">
        <ele>53</ele>
        <time>2020-06-24T09:41:32.024Z</time>
      </trkpt>
      <trkpt lat="48.675" lon="-2.31684">
        <ele>53</ele>
        <time>2020-06-24T09:41:33.024Z</time>
      </trkpt>
      <trkpt lat="48.67499" lon="-2.31684">
        <ele>52</ele>
        <time>2020-06-24T09:41:34.024Z</time>
      </trkpt>
      <trkpt lat="48.67498" lon="-2.31684">
        <ele>52</ele>
        <time>2020-06-24T09:41:35.024Z</time>
      </trkpt>
      <trkpt lat="48.67497" lon="-2.31684">
        <ele>51</ele>
        <time>2020-06-24T09:41:36.024Z</time>
      </trkpt>
      <trkpt lat="48.67496" lon="-2.31684">
        <ele>51</ele>
        <time>2020-06-24T09:41:37.024Z</time>
      </trkpt>
      <trkpt lat="48.67494" lon="-2.31683">
        <ele>51</ele>
        <time>2020-06-24T09:41:38.024Z</time>
      </trkpt>
      <trkpt lat="48.67493" lon="-2.31682">
        <ele>51</ele>
        <time>2020-06-24T09:41:39.024Z</time>
      </trkpt>
      <trkpt lat="48.67492" lon="-2.31681">
        <ele>51</ele>
        <time>2020-06-24T09:41:40.024Z</time>
      </trkpt>
      <trkpt lat="48.67492" lon="-2.31679">
        <ele>51</ele>
        <time>2020-06-24T09:41:41.024Z</time>
      </trkpt>
      <trkpt lat="48.67491" lon="-2.31677">
        <ele>51</ele>
        <time>2020-06-24T09:41:42.024Z</time>
      </trkpt>
      <trkpt lat="48.6749" lon="-2.31675">
        <ele>50</ele>
        <time>2020-06-24T09:41:43.024Z</time>
      </trkpt>
      <trkpt lat="48.6749" lon="-2.31673">
        <ele>50</ele>
        <time>2020-06-24T09:41:44.024Z</time>
      </trkpt>
      <trkpt lat="48.67489" lon="-2.31671">
        <ele>50</ele>
        <time>2020-06-24T09:41:45.024Z</time>
      </trkpt>
      <trkpt lat="48.67488" lon="-2.3167">
        <ele>50</ele>
        <time>2020-06-24T09:41:46.024Z</time>
      </trkpt>
      <trkpt lat="48.67487" lon="-2.31668">
        <ele>51</ele>
        <time>2020-06-24T09:41:47.024Z</time>
      </trkpt>
      <trkpt lat="48.67487" lon="-2.31666">
        <ele>51</ele>
        <time>2020-06-24T09:41:48.024Z</time>
      </trkpt>
      <trkpt lat="48.67486" lon="-2.31664">
        <ele>50</ele>
        <time>2020-06-24T09:41:49.024Z</time>
      </trkpt>
      <trkpt lat="48.67485" lon="-2.31663">
        <ele>51</ele>
        <time>2020-06-24T09:41:50.024Z</time>
      </trkpt>
      <trkpt lat="48.67484" lon="-2.31661">
        <ele>51</ele>
        <time>2020-06-24T09:41:51.024Z</time>
      </trkpt>
      <trkpt lat="48.67484" lon="-2.3166">
        <ele>51</ele>
        <time>2020-06-24T09:41:52.024Z</time>
      </trkpt>
      <trkpt lat="48.67483" lon="-2.31659">
        <ele>50</ele>
        <time>2020-06-24T09:41:53.024Z</time>
      </trkpt>
      <trkpt lat="48.67483" lon="-2.31657">
        <ele>50</ele>
        <time>2020-06-24T09:41:54.024Z</time>
      </trkpt>
      <trkpt lat="48.67482" lon="-2.31656">
        <ele>50</ele>
        <time>2020-06-24T09:41:55.024Z</time>
      </trkpt>
      <trkpt lat="48.67482" lon="-2.31655">
        <ele>50</ele>
        <time>2020-06-24T09:41:56.024Z</time>
      </trkpt>
      <trkpt lat="48.67481" lon="-2.31654">
        <ele>50</ele>
        <time>2020-06-24T09:41:57.024Z</time>
      </trkpt>
      <trkpt lat="48.67481" lon="-2.31653">
        <ele>50</ele>
        <time>2020-06-24T09:41:58.024Z</time>
      </trkpt>
      <trkpt lat="48.6748" lon="-2.31652">
        <ele>50</ele>
        <time>2020-06-24T09:41:59.024Z</time>
      </trkpt>
      <trkpt lat="48.6748" lon="-2.3165">
        <ele>51</ele>
        <time>2020-06-24T09:42:00.024Z</time>
      </trkpt>
      <trkpt lat="48.6748" lon="-2.31649">
        <ele>51</ele>
        <time>2020-06-24T09:42:01.024Z</time>
      </trkpt>
      <trkpt lat="48.6748" lon="-2.31647">
        <ele>52</ele>
        <time>2020-06-24T09:42:02.024Z</time>
      </trkpt>
      <trkpt lat="48.6748" lon="-2.31645">
        <ele>51</ele>
        <time>2020-06-24T09:42:03.024Z</time>
      </trkpt>
      <trkpt lat="48.6748" lon="-2.31643">
        <ele>52</ele>
        <time>2020-06-24T09:42:04.024Z</time>
      </trkpt>
      <trkpt lat="48.6748" lon="-2.31641">
        <ele>51</ele>
        <time>2020-06-24T09:42:05.024Z</time>
      </trkpt>
      <trkpt lat="48.67481" lon="-2.31639">
        <ele>51</ele>
        <time>2020-06-24T09:42:06.024Z</time>
      </trkpt>
      <trkpt lat="48.67481" lon="-2.31637">
        <ele>52</ele>
        <time>2020-06-24T09:42:07.024Z</time>
      </trkpt>
      <trkpt lat="48.67482" lon="-2.31635">
        <ele>52</ele>
        <time>2020-06-24T09:42:08.024Z</time>
      </trkpt>
      <trkpt lat="48.67482" lon="-2.31633">
        <ele>52</ele>
        <time>2020-06-24T09:42:09.024Z</time>
      </trkpt>
      <trkpt lat="48.67483" lon="-2.31631">
        <ele>52</ele>
        <time>2020-06-24T09:42:10.024Z</time>
      </trkpt>
      <trkpt lat="48.67483" lon="-2.31629">
        <ele>52</ele>
        <time>2020-06-24T09:42:11.024Z</time>
      </trkpt>
      <trkpt lat="48.67484" lon="-2.31627">
        <ele>52</ele>
        <time>2020-06-24T09:42:12.024Z</time>
      </trkpt>
      <trkpt lat="48.67484" lon="-2.31625">
        <ele>52</ele>
        <time>2020-06-24T09:42:13.024Z</time>
      </trkpt>
      <trkpt lat="48.67484" lon="-2.31623">
        <ele>52</ele>
        <time>2020-06-24T09:42:14.024Z</time>
      </trkpt>
      <trkpt lat="48.67485" lon="-2.31621">
        <ele>52</ele>
        <time>2020-06-24T09:42:15.024Z</time>
      </trkpt>
      <trkpt lat="48.67486" lon="-2.31619">
        <ele>52</ele>
        <time>2020-06-24T09:42:16.024Z</time>
      </trkpt>
      <trkpt lat="48.67486" lon="-2.31617">
        <ele>52</ele>
        <time>2020-06-24T09:42:17.024Z</time>
      </trkpt>
      <trkpt lat="48.67487" lon="-2.31615">
        <ele>52</ele>
        <time>2020-06-24T09:42:18.024Z</time>
      </trkpt>
      <trkpt lat="48.67487" lon="-2.31613">
        <ele>52</ele>
        <time>2020-06-24T09:42:19.024Z</time>
      </trkpt>
      <trkpt lat="48.67487" lon="-2.31611">
        <ele>52</ele>
        <time>2020-06-24T09:42:20.024Z</time>
      </trkpt>
      <trkpt lat="48.67487" lon="-2.31609">
        <ele>52</ele>
        <time>2020-06-24T09:42:21.024Z</time>
      </trkpt>
      <trkpt lat="48.67487" lon="-2.31607">
        <ele>53</ele>
        <time>2020-06-24T09:42:22.024Z</time>
      </trkpt>
      <trkpt lat="48.67487" lon="-2.31605">
        <ele>53</ele>
        <time>2020-06-24T09:42:23.024Z</time>
      </trkpt>
      <trkpt lat="48.67487" lon="-2.31604">
        <ele>53</ele>
        <time>2020-06-24T09:42:24.024Z</time>
      </trkpt>
      <trkpt lat="48.67487" lon="-2.31603">
        <ele>53</ele>
        <time>2020-06-24T09:42:25.024Z</time>
      </trkpt>
      <trkpt lat="48.67487" lon="-2.31602">
        <ele>54</ele>
        <time>2020-06-24T09:42:26.024Z</time>
      </trkpt>
      <trkpt lat="48.67486" lon="-2.31601">
        <ele>54</ele>
        <time>2020-06-24T09:42:27.024Z</time>
      </trkpt>
      <trkpt lat="48.67486" lon="-2.316">
        <ele>54</ele>
        <time>2020-06-24T09:42:28.024Z</time>
      </trkpt>
      <trkpt lat="48.67486" lon="-2.31599">
        <ele>54</ele>
        <time>2020-06-24T09:42:29.024Z</time>
      </trkpt>
      <trkpt lat="48.67486" lon="-2.31597">
        <ele>54</ele>
        <time>2020-06-24T09:42:30.024Z</time>
      </trkpt>
      <trkpt lat="48.67485" lon="-2.31596">
        <ele>55</ele>
        <time>2020-06-24T09:42:31.024Z</time>
      </trkpt>
      <trkpt lat="48.67485" lon="-2.31595">
        <ele>55</ele>
        <time>2020-06-24T09:42:32.024Z</time>
      </trkpt>
      <trkpt lat="48.67484" lon="-2.31594">
        <ele>55</ele>
        <time>2020-06-24T09:42:33.024Z</time>
      </trkpt>
      <trkpt lat="48.67484" lon="-2.31593">
        <ele>55</ele>
        <time>2020-06-24T09:42:34.024Z</time>
      </trkpt>
      <trkpt lat="48.67483" lon="-2.31593">
        <ele>55</ele>
        <time>2020-06-24T09:42:35.024Z</time>
      </trkpt>
      <trkpt lat="48.67482" lon="-2.31594">
        <ele>55</ele>
        <time>2020-06-24T09:42:36.024Z</time>
      </trkpt>
      <trkpt lat="48.67482" lon="-2.31596">
        <ele>55</ele>
        <time>2020-06-24T09:42:37.024Z</time>
      </trkpt>
      <trkpt lat="48.67481" lon="-2.31598">
        <ele>55</ele>
        <time>2020-06-24T09:42:38.024Z</time>
      </trkpt>
      <trkpt lat="48.67481" lon="-2.316">
        <ele>55</ele>
        <time>2020-06-24T09:42:39.024Z</time>
      </trkpt>
      <trkpt lat="48.6748" lon="-2.31601">
        <ele>55</ele>
        <time>2020-06-24T09:42:40.024Z</time>
      </trkpt>
      <trkpt lat="48.67479" lon="-2.31603">
        <ele>55</ele>
        <time>2020-06-24T09:42:41.024Z</time>
      </trkpt>
      <trkpt lat="48.67479" lon="-2.31604">
        <ele>56</ele>
        <time>2020-06-24T09:42:42.024Z</time>
      </trkpt>
      <trkpt lat="48.67478" lon="-2.31606">
        <ele>56</ele>
        <time>2020-06-24T09:42:43.024Z</time>
      </trkpt>
      <trkpt lat="48.67478" lon="-2.31607">
        <ele>56</ele>
        <time>2020-06-24T09:42:44.024Z</time>
      </trkpt>
      <trkpt lat="48.67477" lon="-2.31608">
        <ele>56</ele>
        <time>2020-06-24T09:42:45.024Z</time>
      </trkpt>
      <trkpt lat="48.67477" lon="-2.31609">
        <ele>56</ele>
        <time>2020-06-24T09:42:46.024Z</time>
      </trkpt>
      <trkpt lat="48.67477" lon="-2.31609">
        <ele>56</ele>
        <time>2020-06-24T09:42:47.024Z</time>
      </trkpt>
      <trkpt lat="48.67476" lon="-2.31609">
        <ele>56</ele>
        <time>2020-06-24T09:42:48.024Z</time>
      </trkpt>
      <trkpt lat="48.67476" lon="-2.31608">
        <ele>57</ele>
        <time>2020-06-24T09:42:49.024Z</time>
      </trkpt>
      <trkpt lat="48.67475" lon="-2.31607">
        <ele>57</ele>
        <time>2020-06-24T09:42:50.024Z</time>
      </trkpt>
      <trkpt lat="48.67476" lon="-2.31605">
        <ele>57</ele>
        <time>2020-06-24T09:42:51.024Z</time>
      </trkpt>
      <trkpt lat="48.67476" lon="-2.31603">
        <ele>58</ele>
        <time>2020-06-24T09:42:52.024Z</time>
      </trkpt>
      <trkpt lat="48.67476" lon="-2.31602">
        <ele>58</ele>
        <time>2020-06-24T09:42:53.024Z</time>
      </trkpt>
      <trkpt lat="48.67476" lon="-2.316">
        <ele>58</ele>
        <time>2020-06-24T09:42:54.024Z</time>
      </trkpt>
      <trkpt lat="48.67476" lon="-2.31598">
        <ele>58</ele>
        <time>2020-06-24T09:42:55.024Z</time>
      </trkpt>
      <trkpt lat="48.67476" lon="-2.31596">
        <ele>59</ele>
        <time>2020-06-24T09:42:56.024Z</time>
      </trkpt>
      <trkpt lat="48.67476" lon="-2.31595">
        <ele>59</ele>
        <time>2020-06-24T09:42:57.024Z</time>
      </trkpt>
      <trkpt lat="48.67475" lon="-2.31595">
        <ele>59</ele>
        <time>2020-06-24T09:42:58.024Z</time>
      </trkpt>
      <trkpt lat="48.67474" lon="-2.31596">
        <ele>59</ele>
        <time>2020-06-24T09:42:59.024Z</time>
      </trkpt>
      <trkpt lat="48.67473" lon="-2.31597">
        <ele>59</ele>
        <time>2020-06-24T09:43:00.024Z</time>
      </trkpt>
      <trkpt lat="48.67473" lon="-2.31599">
        <ele>59</ele>
        <time>2020-06-24T09:43:01.024Z</time>
      </trkpt>
      <trkpt lat="48.67472" lon="-2.316">
        <ele>59</ele>
        <time>2020-06-24T09:43:02.024Z</time>
      </trkpt>
      <trkpt lat="48.67471" lon="-2.31602">
        <ele>60</ele>
        <time>2020-06-24T09:43:03.024Z</time>
      </trkpt>
      <trkpt lat="48.67471" lon="-2.31603">
        <ele>60</ele>
        <time>2020-06-24T09:43:04.024Z</time>
      </trkpt>
      <trkpt lat="48.6747" lon="-2.31605">
        <ele>60</ele>
        <time>2020-06-24T09:43:05.024Z</time>
      </trkpt>
      <trkpt lat="48.67469" lon="-2.31606">
        <ele>60</ele>
        <time>2020-06-24T09:43:06.024Z</time>
      </trkpt>
      <trkpt lat="48.67469" lon="-2.31607">
        <ele>60</ele>
        <time>2020-06-24T09:43:07.024Z</time>
      </trkpt>
      <trkpt lat="48.67468" lon="-2.31608">
        <ele>60</ele>
        <time>2020-06-24T09:43:08.024Z</time>
      </trkpt>
      <trkpt lat="48.67468" lon="-2.31608">
        <ele>60</ele>
        <time>2020-06-24T09:43:09.024Z</time>
      </trkpt>
      <trkpt lat="48.67468" lon="-2.31608">
        <ele>60</ele>
        <time>2020-06-24T09:43:10.024Z</time>
      </trkpt>
      <trkpt lat="48.67467" lon="-2.31607">
        <ele>60</ele>
        <time>2020-06-24T09:43:11.024Z</time>
      </trkpt>
      <trkpt lat="48.67467" lon="-2.31605">
        <ele>60</ele>
        <time>2020-06-24T09:43:12.024Z</time>
      </trkpt>
      <trkpt lat="48.67467" lon="-2.31603">
        <ele>60</ele>
        <time>2020-06-24T09:43:13.024Z</time>
      </trkpt>
      <trkpt lat="48.67467" lon="-2.31601">
        <ele>60</ele>
        <time>2020-06-24T09:43:14.024Z</time>
      </trkpt>
      <trkpt lat="48.67468" lon="-2.31599">
        <ele>61</ele>
        <time>2020-06-24T09:43:15.024Z</time>
      </trkpt>
      <trkpt lat="48.67468" lon="-2.31597">
        <ele>61</ele>
        <time>2020-06-24T09:43:16.024Z</time>
      </trkpt>
      <trkpt lat="48.67468" lon="-2.31595">
        <ele>61</ele>
        <time>2020-06-24T09:43:17.024Z</time>
      </trkpt>
      <trkpt lat="48.67469" lon="-2.31593">
        <ele>61</ele>
        <time>2020-06-24T09:43:18.024Z</time>
      </trkpt>
      <trkpt lat="48.67469" lon="-2.31591">
        <ele>61</ele>
        <time>2020-06-24T09:43:19.024Z</time>
      </trkpt>
      <trkpt lat="48.67469" lon="-2.31589">
        <ele>61</ele>
        <time>2020-06-24T09:43:20.024Z</time>
      </trkpt>
      <trkpt lat="48.6747" lon="-2.31587">
        <ele>61</ele>
        <time>2020-06-24T09:43:21.024Z</time>
      </trkpt>
      <trkpt lat="48.6747" lon="-2.31585">
        <ele>61</ele>
        <time>2020-06-24T09:43:22.024Z</time>
      </trkpt>
      <trkpt lat="48.6747" lon="-2.31583">
        <ele>61</ele>
        <time>2020-06-24T09:43:23.024Z</time>
      </trkpt>
      <trkpt lat="48.67471" lon="-2.31581">
        <ele>61</ele>
        <time>2020-06-24T09:43:24.024Z</time>
      </trkpt>
      <trkpt lat="48.67471" lon="-2.31579">
        <ele>61</ele>
        <time>2020-06-24T09:43:25.024Z</time>
      </trkpt>
      <trkpt lat="48.67471" lon="-2.31577">
        <ele>61</ele>
        <time>2020-06-24T09:43:26.024Z</time>
      </trkpt>
      <trkpt lat="48.67471" lon="-2.31576">
        <ele>61</ele>
        <time>2020-06-24T09:43:27.024Z</time>
      </trkpt>
      <trkpt lat="48.6747" lon="-2.31574">
        <ele>61</ele>
        <time>2020-06-24T09:43:28.024Z</time>
      </trkpt>
      <trkpt lat="48.67469" lon="-2.31573">
        <ele>61</ele>
        <time>2020-06-24T09:43:29.024Z</time>
      </trkpt>
      <trkpt lat="48.67468" lon="-2.31573">
        <ele>62</ele>
        <time>2020-06-24T09:43:30.024Z</time>
      </trkpt>
      <trkpt lat="48.67467" lon="-2.31573">
        <ele>62</ele>
        <time>2020-06-24T09:43:31.024Z</time>
      </trkpt>
      <trkpt lat="48.67466" lon="-2.31573">
        <ele>62</ele>
        <time>2020-06-24T09:43:32.024Z</time>
      </trkpt>
      <trkpt lat="48.67464" lon="-2.31573">
        <ele>62</ele>
        <time>2020-06-24T09:43:33.024Z</time>
      </trkpt>
      <trkpt lat="48.67463" lon="-2.31574">
        <ele>62</ele>
        <time>2020-06-24T09:43:34.024Z</time>
      </trkpt>
      <trkpt lat="48.67462" lon="-2.31574">
        <ele>62</ele>
        <time>2020-06-24T09:43:35.024Z</time>
      </trkpt>
      <trkpt lat="48.67461" lon="-2.31574">
        <ele>62</ele>
        <time>2020-06-24T09:43:36.024Z</time>
      </trkpt>
      <trkpt lat="48.6746" lon="-2.31574">
        <ele>62</ele>
        <time>2020-06-24T09:43:37.024Z</time>
      </trkpt>
      <trkpt lat="48.67459" lon="-2.31574">
        <ele>62</ele>
        <time>2020-06-24T09:43:38.024Z</time>
      </trkpt>
      <trkpt lat="48.67458" lon="-2.31574">
        <ele>63</ele>
        <time>2020-06-24T09:43:39.024Z</time>
      </trkpt>
      <trkpt lat="48.67457" lon="-2.31575">
        <ele>63</ele>
        <time>2020-06-24T09:43:40.024Z</time>
      </trkpt>
      <trkpt lat="48.67455" lon="-2.31575">
        <ele>63</ele>
        <time>2020-06-24T09:43:41.024Z</time>
      </trkpt>
      <trkpt lat="48.67454" lon="-2.31575">
        <ele>63</ele>
        <time>2020-06-24T09:43:42.024Z</time>
      </trkpt>
      <trkpt lat="48.67453" lon="-2.31575">
        <ele>63</ele>
        <time>2020-06-24T09:43:43.024Z</time>
      </trkpt>
      <trkpt lat="48.67452" lon="-2.31575">
        <ele>63</ele>
        <time>2020-06-24T09:43:44.024Z</time>
      </trkpt>
      <trkpt lat="48.6745" lon="-2.31575">
        <ele>63</ele>
        <time>2020-06-24T09:43:45.024Z</time>
      </trkpt>
      <trkpt lat="48.67449" lon="-2.31575">
        <ele>63</ele>
        <time>2020-06-24T09:43:46.024Z</time>
      </trkpt>
      <trkpt lat="48.67448" lon="-2.31575">
        <ele>63</ele>
        <time>2020-06-24T09:43:47.024Z</time>
      </trkpt>
      <trkpt lat="48.67447" lon="-2.31574">
        <ele>63</ele>
        <time>2020-06-24T09:43:48.024Z</time>
      </trkpt>
      <trkpt lat="48.67446" lon="-2.31574">
        <ele>63</ele>
        <time>2020-06-24T09:43:49.024Z</time>
      </trkpt>
      <trkpt lat="48.67444" lon="-2.31574">
        <ele>64</ele>
        <time>2020-06-24T09:43:50.024Z</time>
      </trkpt>
      <trkpt lat="48.67443" lon="-2.31574">
        <ele>64</ele>
        <time>2020-06-24T09:43:51.024Z</time>
      </trkpt>
      <trkpt lat="48.67442" lon="-2.31573">
        <ele>64</ele>
        <time>2020-06-24T09:43:52.024Z</time>
      </trkpt>
      <trkpt lat="48.67441" lon="-2.31573">
        <ele>64</ele>
        <time>2020-06-24T09:43:53.024Z</time>
      </trkpt>
      <trkpt lat="48.6744" lon="-2.31572">
        <ele>64</ele>
        <time>2020-06-24T09:43:54.024Z</time>
      </trkpt>
      <trkpt lat="48.67439" lon="-2.31572">
        <ele>64</ele>
        <time>2020-06-24T09:43:55.024Z</time>
      </trkpt>
      <trkpt lat="48.67437" lon="-2.31571">
        <ele>64</ele>
        <time>2020-06-24T09:43:56.024Z</time>
      </trkpt>
      <trkpt lat="48.67436" lon="-2.31571">
        <ele>64</ele>
        <time>2020-06-24T09:43:57.024Z</time>
      </trkpt>
      <trkpt lat="48.67435" lon="-2.3157">
        <ele>64</ele>
        <time>2020-06-24T09:43:58.024Z</time>
      </trkpt>
      <trkpt lat="48.67434" lon="-2.3157">
        <ele>64</ele>
        <time>2020-06-24T09:43:59.024Z</time>
      </trkpt>
      <trkpt lat="48.67432" lon="-2.31569">
        <ele>64</ele>
        <time>2020-06-24T09:44:00.024Z</time>
      </trkpt>
      <trkpt lat="48.67431" lon="-2.31569">
        <ele>65</ele>
        <time>2020-06-24T09:44:01.024Z</time>
      </trkpt>
      <trkpt lat="48.6743" lon="-2.31568">
        <ele>65</ele>
        <time>2020-06-24T09:44:02.024Z</time>
      </trkpt>
      <trkpt lat="48.67429" lon="-2.31568">
        <ele>65</ele>
        <time>2020-06-24T09:44:03.024Z</time>
      </trkpt>
      <trkpt lat="48.67428" lon="-2.31568">
        <ele>65</ele>
        <time>2020-06-24T09:44:04.024Z</time>
      </trkpt>
      <trkpt lat="48.67426" lon="-2.31567">
        <ele>65</ele>
        <time>2020-06-24T09:44:05.024Z</time>
      </trkpt>
      <trkpt lat="48.67425" lon="-2.31567">
        <ele>65</ele>
        <time>2020-06-24T09:44:06.024Z</time>
      </trkpt>
      <trkpt lat="48.67424" lon="-2.31567">
        <ele>65</ele>
        <time>2020-06-24T09:44:07.024Z</time>
      </trkpt>
      <trkpt lat="48.67423" lon="-2.31567">
        <ele>65</ele>
        <time>2020-06-24T09:44:08.024Z</time>
      </trkpt>
      <trkpt lat="48.67422" lon="-2.31567">
        <ele>65</ele>
        <time>2020-06-24T09:44:09.024Z</time>
      </trkpt>
      <trkpt lat="48.67421" lon="-2.31567">
        <ele>65</ele>
        <time>2020-06-24T09:44:10.024Z</time>
      </trkpt>
      <trkpt lat="48.6742" lon="-2.31566">
        <ele>65</ele>
        <time>2020-06-24T09:44:11.024Z</time>
      </trkpt>
      <trkpt lat="48.67418" lon="-2.31566">
        <ele>65</ele>
        <time>2020-06-24T09:44:12.024Z</time>
      </trkpt>
      <trkpt lat="48.67417" lon="-2.31566">
        <ele>65</ele>
        <time>2020-06-24T09:44:13.024Z</time>
      </trkpt>
      <trkpt lat="48.67416" lon="-2.31565">
        <ele>65</ele>
        <time>2020-06-24T09:44:14.024Z</time>
      </trkpt>
      <trkpt lat="48.67415" lon="-2.31565">
        <ele>65</ele>
        <time>2020-06-24T09:44:15.024Z</time>
      </trkpt>
      <trkpt lat="48.67414" lon="-2.31565">
        <ele>65</ele>
        <time>2020-06-24T09:44:16.024Z</time>
      </trkpt>
      <trkpt lat="48.67413" lon="-2.31565">
        <ele>65</ele>
        <time>2020-06-24T09:44:17.024Z</time>
      </trkpt>
      <trkpt lat="48.67412" lon="-2.31565">
        <ele>65</ele>
        <time>2020-06-24T09:44:18.024Z</time>
      </trkpt>
      <trkpt lat="48.67411" lon="-2.31565">
        <ele>65</ele>
        <time>2020-06-24T09:44:19.024Z</time>
      </trkpt>
      <trkpt lat="48.6741" lon="-2.31564">
        <ele>65</ele>
        <time>2020-06-24T09:44:20.024Z</time>
      </trkpt>
      <trkpt lat="48.67409" lon="-2.31564">
        <ele>65</ele>
        <time>2020-06-24T09:44:21.024Z</time>
      </trkpt>
      <trkpt lat="48.67408" lon="-2.31563">
        <ele>65</ele>
        <time>2020-06-24T09:44:22.024Z</time>
      </trkpt>
      <trkpt lat="48.67407" lon="-2.31563">
        <ele>65</ele>
        <time>2020-06-24T09:44:23.024Z</time>
      </trkpt>
      <trkpt lat="48.67405" lon="-2.31563">
        <ele>66</ele>
        <time>2020-06-24T09:44:24.024Z</time>
      </trkpt>
      <trkpt lat="48.67404" lon="-2.31563">
        <ele>66</ele>
        <time>2020-06-24T09:44:25.024Z</time>
      </trkpt>
      <trkpt lat="48.67403" lon="-2.31563">
        <ele>66</ele>
        <time>2020-06-24T09:44:26.024Z</time>
      </trkpt>
      <trkpt lat="48.67402" lon="-2.31563">
        <ele>66</ele>
        <time>2020-06-24T09:44:27.024Z</time>
      </trkpt>
      <trkpt lat="48.674" lon="-2.31563">
        <ele>66</ele>
        <time>2020-06-24T09:44:28.024Z</time>
      </trkpt>
      <trkpt lat="48.67399" lon="-2.31563">
        <ele>66</ele>
        <time>2020-06-24T09:44:29.024Z</time>
      </trkpt>
      <trkpt lat="48.67398" lon="-2.31562">
        <ele>66</ele>
        <time>2020-06-24T09:44:30.024Z</time>
      </trkpt>
      <trkpt lat="48.67397" lon="-2.31562">
        <ele>66</ele>
        <time>2020-06-24T09:44:31.024Z</time>
      </trkpt>
      <trkpt lat="48.67396" lon="-2.31561">
        <ele>66</ele>
        <time>2020-06-24T09:44:32.024Z</time>
      </trkpt>
      <trkpt lat="48.67395" lon="-2.31561">
        <ele>66</ele>
        <time>2020-06-24T09:44:33.024Z</time>
      </trkpt>
      <trkpt lat="48.67393" lon="-2.31561">
        <ele>66</ele>
        <time>2020-06-24T09:44:34.024Z</time>
      </trkpt>
      <trkpt lat="48.67392" lon="-2.31561">
        <ele>66</ele>
        <time>2020-06-24T09:44:35.024Z</time>
      </trkpt>
      <trkpt lat="48.67391" lon="-2.31561">
        <ele>66</ele>
        <time>2020-06-24T09:44:36.024Z</time>
      </trkpt>
      <trkpt lat="48.6739" lon="-2.3156">
        <ele>66</ele>
        <time>2020-06-24T09:44:37.024Z</time>
      </trkpt>
      <trkpt lat="48.67389" lon="-2.3156">
        <ele>66</ele>
        <time>2020-06-24T09:44:38.024Z</time>
      </trkpt>
      <trkpt lat="48.67388" lon="-2.3156">
        <ele>66</ele>
        <time>2020-06-24T09:44:39.024Z</time>
      </trkpt>
      <trkpt lat="48.67387" lon="-2.3156">
        <ele>66</ele>
        <time>2020-06-24T09:44:40.024Z</time>
      </trkpt>
      <trkpt lat="48.67386" lon="-2.31559">
        <ele>66</ele>
        <time>2020-06-24T09:44:41.024Z</time>
      </trkpt>
      <trkpt lat="48.67385" lon="-2.31559">
        <ele>67</ele>
        <time>2020-06-24T09:44:42.024Z</time>
      </trkpt>
      <trkpt lat="48.67384" lon="-2.31559">
        <ele>67</ele>
        <time>2020-06-24T09:44:43.024Z</time>
      </trkpt>
      <trkpt lat="48.67383" lon="-2.31558">
        <ele>67</ele>
        <time>2020-06-24T09:44:44.024Z</time>
      </trkpt>
      <trkpt lat="48.67382" lon="-2.31558">
        <ele>67</ele>
        <time>2020-06-24T09:44:45.024Z</time>
      </trkpt>
      <trkpt lat="48.67381" lon="-2.31558">
        <ele>66</ele>
        <time>2020-06-24T09:44:46.024Z</time>
      </trkpt>
      <trkpt lat="48.6738" lon="-2.31558">
        <ele>66</ele>
        <time>2020-06-24T09:44:47.024Z</time>
      </trkpt>
      <trkpt lat="48.6738" lon="-2.31558">
        <ele>66</ele>
        <time>2020-06-24T09:44:48.024Z</time>
      </trkpt>
      <trkpt lat="48.67379" lon="-2.31558">
        <ele>66</ele>
        <time>2020-06-24T09:44:49.024Z</time>
      </trkpt>
      <trkpt lat="48.67379" lon="-2.31558">
        <ele>66</ele>
        <time>2020-06-24T09:44:50.024Z</time>
      </trkpt>
      <trkpt lat="48.67378" lon="-2.31558">
        <ele>66</ele>
        <time>2020-06-24T09:44:51.024Z</time>
      </trkpt>
      <trkpt lat="48.67377" lon="-2.31557">
        <ele>66</ele>
        <time>2020-06-24T09:44:52.024Z</time>
      </trkpt>
      <trkpt lat="48.67376" lon="-2.31557">
        <ele>66</ele>
        <time>2020-06-24T09:44:53.024Z</time>
      </trkpt>
      <trkpt lat="48.67375" lon="-2.31557">
        <ele>66</ele>
        <time>2020-06-24T09:44:54.024Z</time>
      </trkpt>
      <trkpt lat="48.67374" lon="-2.31556">
        <ele>66</ele>
        <time>2020-06-24T09:44:55.024Z</time>
      </trkpt>
      <trkpt lat="48.67373" lon="-2.31556">
        <ele>66</ele>
        <time>2020-06-24T09:44:56.024Z</time>
      </trkpt>
      <trkpt lat="48.67372" lon="-2.31556">
        <ele>66</ele>
        <time>2020-06-24T09:44:57.024Z</time>
      </trkpt>
      <trkpt lat="48.67371" lon="-2.31556">
        <ele>67</ele>
        <time>2020-06-24T09:44:58.024Z</time>
      </trkpt>
      <trkpt lat="48.6737" lon="-2.31555">
        <ele>67</ele>
        <time>2020-06-24T09:44:59.024Z</time>
      </trkpt>
      <trkpt lat="48.67369" lon="-2.31555">
        <ele>67</ele>
        <time>2020-06-24T09:45:00.024Z</time>
      </trkpt>
      <trkpt lat="48.67368" lon="-2.31555">
        <ele>67</ele>
        <time>2020-06-24T09:45:01.024Z</time>
      </trkpt>
      <trkpt lat="48.67367" lon="-2.31555">
        <ele>67</ele>
        <time>2020-06-24T09:45:02.024Z</time>
      </trkpt>
      <trkpt lat="48.67366" lon="-2.31554">
        <ele>67</ele>
        <time>2020-06-24T09:45:03.024Z</time>
      </trkpt>
      <trkpt lat="48.67365" lon="-2.31555">
        <ele>67</ele>
        <time>2020-06-24T09:45:04.024Z</time>
      </trkpt>
      <trkpt lat="48.67364" lon="-2.31555">
        <ele>67</ele>
        <time>2020-06-24T09:45:05.024Z</time>
      </trkpt>
      <trkpt lat="48.67363" lon="-2.31555">
        <ele>67</ele>
        <time>2020-06-24T09:45:06.024Z</time>
      </trkpt>
      <trkpt lat="48.67362" lon="-2.31555">
        <ele>67</ele>
        <time>2020-06-24T09:45:07.024Z</time>
      </trkpt>
      <trkpt lat="48.67361" lon="-2.31555">
        <ele>67</ele>
        <time>2020-06-24T09:45:08.024Z</time>
      </trkpt>
      <trkpt lat="48.6736" lon="-2.31555">
        <ele>67</ele>
        <time>2020-06-24T09:45:09.024Z</time>
      </trkpt>
      <trkpt lat="48.67359" lon="-2.31555">
        <ele>67</ele>
        <time>2020-06-24T09:45:10.024Z</time>
      </trkpt>
      <trkpt lat="48.67359" lon="-2.31555">
        <ele>67</ele>
        <time>2020-06-24T09:45:11.024Z</time>
      </trkpt>
      <trkpt lat="48.67358" lon="-2.31554">
        <ele>67</ele>
        <time>2020-06-24T09:45:12.024Z</time>
      </trkpt>
      <trkpt lat="48.67357" lon="-2.31554">
        <ele>67</ele>
        <time>2020-06-24T09:45:13.024Z</time>
      </trkpt>
      <trkpt lat="48.67356" lon="-2.31553">
        <ele>67</ele>
        <time>2020-06-24T09:45:14.024Z</time>
      </trkpt>
      <trkpt lat="48.67355" lon="-2.31553">
        <ele>67</ele>
        <time>2020-06-24T09:45:15.024Z</time>
      </trkpt>
      <trkpt lat="48.67354" lon="-2.31553">
        <ele>67</ele>
        <time>2020-06-24T09:45:16.024Z</time>
      </trkpt>
      <trkpt lat="48.67353" lon="-2.31552">
        <ele>67</ele>
        <time>2020-06-24T09:45:17.024Z</time>
      </trkpt>
      <trkpt lat="48.67352" lon="-2.31552">
        <ele>67</ele>
        <time>2020-06-24T09:45:18.024Z</time>
      </trkpt>
      <trkpt lat="48.67351" lon="-2.31552">
        <ele>67</ele>
        <time>2020-06-24T09:45:19.024Z</time>
      </trkpt>
      <trkpt lat="48.6735" lon="-2.31552">
        <ele>67</ele>
        <time>2020-06-24T09:45:20.024Z</time>
      </trkpt>
      <trkpt lat="48.67349" lon="-2.31552">
        <ele>67</ele>
        <time>2020-06-24T09:45:21.024Z</time>
      </trkpt>
      <trkpt lat="48.67348" lon="-2.31552">
        <ele>67</ele>
        <time>2020-06-24T09:45:22.024Z</time>
      </trkpt>
      <trkpt lat="48.67348" lon="-2.31552">
        <ele>67</ele>
        <time>2020-06-24T09:45:23.024Z</time>
      </trkpt>
      <trkpt lat="48.67347" lon="-2.31552">
        <ele>68</ele>
        <time>2020-06-24T09:45:24.024Z</time>
      </trkpt>
      <trkpt lat="48.67346" lon="-2.31552">
        <ele>67</ele>
        <time>2020-06-24T09:45:25.024Z</time>
      </trkpt>
      <trkpt lat="48.67345" lon="-2.31552">
        <ele>68</ele>
        <time>2020-06-24T09:45:26.024Z</time>
      </trkpt>
      <trkpt lat="48.67344" lon="-2.31552">
        <ele>67</ele>
        <time>2020-06-24T09:45:27.024Z</time>
      </trkpt>
      <trkpt lat="48.67343" lon="-2.31551">
        <ele>67</ele>
        <time>2020-06-24T09:45:28.024Z</time>
      </trkpt>
      <trkpt lat="48.67342" lon="-2.31551">
        <ele>67</ele>
        <time>2020-06-24T09:45:29.024Z</time>
      </trkpt>
      <trkpt lat="48.67341" lon="-2.3155">
        <ele>68</ele>
        <time>2020-06-24T09:45:30.024Z</time>
      </trkpt>
      <trkpt lat="48.6734" lon="-2.3155">
        <ele>68</ele>
        <time>2020-06-24T09:45:31.024Z</time>
      </trkpt>
      <trkpt lat="48.6734" lon="-2.31549">
        <ele>68</ele>
        <time>2020-06-24T09:45:32.024Z</time>
      </trkpt>
      <trkpt lat="48.67339" lon="-2.31549">
        <ele>68</ele>
        <time>2020-06-24T09:45:33.024Z</time>
      </trkpt>
      <trkpt lat="48.67339" lon="-2.31549">
        <ele>68</ele>
        <time>2020-06-24T09:45:34.024Z</time>
      </trkpt>
      <trkpt lat="48.67339" lon="-2.31549">
        <ele>67</ele>
        <time>2020-06-24T09:45:35.024Z</time>
      </trkpt>
      <trkpt lat="48.67339" lon="-2.31549">
        <ele>67</ele>
        <time>2020-06-24T09:45:36.024Z</time>
      </trkpt>
      <trkpt lat="48.67339" lon="-2.31549">
        <ele>67</ele>
        <time>2020-06-24T09:45:37.024Z</time>
      </trkpt>
      <trkpt lat="48.67339" lon="-2.31549">
        <ele>67</ele>
        <time>2020-06-24T09:45:38.024Z</time>
      </trkpt>
      <trkpt lat="48.67339" lon="-2.31549">
        <ele>67</ele>
        <time>2020-06-24T09:45:39.024Z</time>
      </trkpt>
      <trkpt lat="48.67337" lon="-2.31547">
        <ele>66</ele>
        <time>2020-06-24T09:45:40.036Z</time>
      </trkpt>
      <trkpt lat="48.67336" lon="-2.31547">
        <ele>66</ele>
        <time>2020-06-24T09:45:41.036Z</time>
      </trkpt>
      <trkpt lat="48.67335" lon="-2.31546">
        <ele>66</ele>
        <time>2020-06-24T09:45:42.036Z</time>
      </trkpt>
      <trkpt lat="48.67334" lon="-2.31545">
        <ele>66</ele>
        <time>2020-06-24T09:45:43.036Z</time>
      </trkpt>
      <trkpt lat="48.67333" lon="-2.31544">
        <ele>66</ele>
        <time>2020-06-24T09:45:44.036Z</time>
      </trkpt>
      <trkpt lat="48.67332" lon="-2.31544">
        <ele>66</ele>
        <time>2020-06-24T09:45:45.036Z</time>
      </trkpt>
      <trkpt lat="48.67331" lon="-2.31543">
        <ele>66</ele>
        <time>2020-06-24T09:45:46.036Z</time>
      </trkpt>
      <trkpt lat="48.67331" lon="-2.31542">
        <ele>65</ele>
        <time>2020-06-24T09:45:47.036Z</time>
      </trkpt>
      <trkpt lat="48.6733" lon="-2.31541">
        <ele>65</ele>
        <time>2020-06-24T09:45:48.036Z</time>
      </trkpt>
      <trkpt lat="48.67329" lon="-2.31541">
        <ele>65</ele>
        <time>2020-06-24T09:45:49.036Z</time>
      </trkpt>
      <trkpt lat="48.67328" lon="-2.3154">
        <ele>65</ele>
        <time>2020-06-24T09:45:50.036Z</time>
      </trkpt>
      <trkpt lat="48.67327" lon="-2.3154">
        <ele>64</ele>
        <time>2020-06-24T09:45:51.036Z</time>
      </trkpt>
      <trkpt lat="48.67326" lon="-2.31539">
        <ele>64</ele>
        <time>2020-06-24T09:45:52.036Z</time>
      </trkpt>
      <trkpt lat="48.67326" lon="-2.31538">
        <ele>64</ele>
        <time>2020-06-24T09:45:53.036Z</time>
      </trkpt>
      <trkpt lat="48.67325" lon="-2.31538">
        <ele>64</ele>
        <time>2020-06-24T09:45:54.036Z</time>
      </trkpt>
      <trkpt lat="48.67324" lon="-2.31537">
        <ele>64</ele>
        <time>2020-06-24T09:45:55.036Z</time>
      </trkpt>
      <trkpt lat="48.67323" lon="-2.31536">
        <ele>64</ele>
        <time>2020-06-24T09:45:56.036Z</time>
      </trkpt>
      <trkpt lat="48.67322" lon="-2.31535">
        <ele>64</ele>
        <time>2020-06-24T09:45:57.036Z</time>
      </trkpt>
      <trkpt lat="48.67322" lon="-2.31534">
        <ele>64</ele>
        <time>2020-06-24T09:45:58.036Z</time>
      </trkpt>
      <trkpt lat="48.67321" lon="-2.31533">
        <ele>64</ele>
        <time>2020-06-24T09:45:59.036Z</time>
      </trkpt>
      <trkpt lat="48.6732" lon="-2.31532">
        <ele>63</ele>
        <time>2020-06-24T09:46:00.036Z</time>
      </trkpt>
      <trkpt lat="48.67319" lon="-2.31531">
        <ele>63</ele>
        <time>2020-06-24T09:46:01.036Z</time>
      </trkpt>
      <trkpt lat="48.67318" lon="-2.31531">
        <ele>63</ele>
        <time>2020-06-24T09:46:02.036Z</time>
      </trkpt>
      <trkpt lat="48.67317" lon="-2.3153">
        <ele>63</ele>
        <time>2020-06-24T09:46:03.036Z</time>
      </trkpt>
      <trkpt lat="48.67316" lon="-2.31529">
        <ele>63</ele>
        <time>2020-06-24T09:46:04.036Z</time>
      </trkpt>
      <trkpt lat="48.67315" lon="-2.31528">
        <ele>63</ele>
        <time>2020-06-24T09:46:05.036Z</time>
      </trkpt>
      <trkpt lat="48.67314" lon="-2.31528">
        <ele>63</ele>
        <time>2020-06-24T09:46:06.036Z</time>
      </trkpt>
      <trkpt lat="48.67313" lon="-2.31527">
        <ele>63</ele>
        <time>2020-06-24T09:46:07.036Z</time>
      </trkpt>
      <trkpt lat="48.67312" lon="-2.31527">
        <ele>63</ele>
        <time>2020-06-24T09:46:08.036Z</time>
      </trkpt>
      <trkpt lat="48.67311" lon="-2.31526">
        <ele>63</ele>
        <time>2020-06-24T09:46:09.036Z</time>
      </trkpt>
      <trkpt lat="48.6731" lon="-2.31525">
        <ele>63</ele>
        <time>2020-06-24T09:46:10.036Z</time>
      </trkpt>
      <trkpt lat="48.67309" lon="-2.31525">
        <ele>63</ele>
        <time>2020-06-24T09:46:11.036Z</time>
      </trkpt>
      <trkpt lat="48.67308" lon="-2.31524">
        <ele>63</ele>
        <time>2020-06-24T09:46:12.036Z</time>
      </trkpt>
      <trkpt lat="48.67308" lon="-2.31523">
        <ele>63</ele>
        <time>2020-06-24T09:46:13.036Z</time>
      </trkpt>
      <trkpt lat="48.67307" lon="-2.31523">
        <ele>64</ele>
        <time>2020-06-24T09:46:14.036Z</time>
      </trkpt>
      <trkpt lat="48.67306" lon="-2.31522">
        <ele>64</ele>
        <time>2020-06-24T09:46:15.036Z</time>
      </trkpt>
      <trkpt lat="48.67304" lon="-2.31522">
        <ele>64</ele>
        <time>2020-06-24T09:46:16.036Z</time>
      </trkpt>
      <trkpt lat="48.67303" lon="-2.31522">
        <ele>64</ele>
        <time>2020-06-24T09:46:17.036Z</time>
      </trkpt>
      <trkpt lat="48.67302" lon="-2.31521">
        <ele>64</ele>
        <time>2020-06-24T09:46:18.036Z</time>
      </trkpt>
      <trkpt lat="48.67301" lon="-2.31521">
        <ele>64</ele>
        <time>2020-06-24T09:46:19.036Z</time>
      </trkpt>
      <trkpt lat="48.673" lon="-2.31521">
        <ele>64</ele>
        <time>2020-06-24T09:46:20.036Z</time>
      </trkpt>
      <trkpt lat="48.67299" lon="-2.31521">
        <ele>64</ele>
        <time>2020-06-24T09:46:21.036Z</time>
      </trkpt>
      <trkpt lat="48.67298" lon="-2.31521">
        <ele>64</ele>
        <time>2020-06-24T09:46:22.036Z</time>
      </trkpt>
      <trkpt lat="48.67297" lon="-2.31521">
        <ele>64</ele>
        <time>2020-06-24T09:46:23.036Z</time>
      </trkpt>
      <trkpt lat="48.67296" lon="-2.3152">
        <ele>64</ele>
        <time>2020-06-24T09:46:24.036Z</time>
      </trkpt>
      <trkpt lat="48.67295" lon="-2.3152">
        <ele>63</ele>
        <time>2020-06-24T09:46:25.036Z</time>
      </trkpt>
      <trkpt lat="48.67295" lon="-2.3152">
        <ele>63</ele>
        <time>2020-06-24T09:46:26.036Z</time>
      </trkpt>
      <trkpt lat="48.67294" lon="-2.31519">
        <ele>63</ele>
        <time>2020-06-24T09:46:27.036Z</time>
      </trkpt>
      <trkpt lat="48.67293" lon="-2.31519">
        <ele>63</ele>
        <time>2020-06-24T09:46:28.036Z</time>
      </trkpt>
      <trkpt lat="48.67293" lon="-2.31519">
        <ele>64</ele>
        <time>2020-06-24T09:46:29.036Z</time>
      </trkpt>
      <trkpt lat="48.67292" lon="-2.31518">
        <ele>64</ele>
        <time>2020-06-24T09:46:30.036Z</time>
      </trkpt>
      <trkpt lat="48.67291" lon="-2.31518">
        <ele>63</ele>
        <time>2020-06-24T09:46:31.036Z</time>
      </trkpt>
      <trkpt lat="48.6729" lon="-2.31518">
        <ele>64</ele>
        <time>2020-06-24T09:46:32.036Z</time>
      </trkpt>
      <trkpt lat="48.67289" lon="-2.31518">
        <ele>64</ele>
        <time>2020-06-24T09:46:33.036Z</time>
      </trkpt>
      <trkpt lat="48.67289" lon="-2.31518">
        <ele>64</ele>
        <time>2020-06-24T09:46:34.036Z</time>
      </trkpt>
      <trkpt lat="48.67288" lon="-2.31518">
        <ele>64</ele>
        <time>2020-06-24T09:46:35.036Z</time>
      </trkpt>
      <trkpt lat="48.67288" lon="-2.31518">
        <ele>64</ele>
        <time>2020-06-24T09:46:36.036Z</time>
      </trkpt>
      <trkpt lat="48.67288" lon="-2.31518">
        <ele>64</ele>
        <time>2020-06-24T09:46:37.036Z</time>
      </trkpt>
      <trkpt lat="48.67288" lon="-2.31518">
        <ele>64</ele>
        <time>2020-06-24T09:46:38.036Z</time>
      </trkpt>
      <trkpt lat="48.67288" lon="-2.31518">
        <ele>64</ele>
        <time>2020-06-24T09:46:39.036Z</time>
      </trkpt>
      <trkpt lat="48.67288" lon="-2.31518">
        <ele>64</ele>
        <time>2020-06-24T09:46:40.036Z</time>
      </trkpt>
      <trkpt lat="48.67287" lon="-2.31517">
        <ele>64</ele>
        <time>2020-06-24T09:46:41.036Z</time>
      </trkpt>
      <trkpt lat="48.67287" lon="-2.31517">
        <ele>63</ele>
        <time>2020-06-24T09:46:42.036Z</time>
      </trkpt>
      <trkpt lat="48.67286" lon="-2.31516">
        <ele>63</ele>
        <time>2020-06-24T09:46:43.036Z</time>
      </trkpt>
      <trkpt lat="48.67285" lon="-2.31515">
        <ele>63</ele>
        <time>2020-06-24T09:46:44.036Z</time>
      </trkpt>
      <trkpt lat="48.67285" lon="-2.31515">
        <ele>63</ele>
        <time>2020-06-24T09:46:45.036Z</time>
      </trkpt>
      <trkpt lat="48.67284" lon="-2.31514">
        <ele>63</ele>
        <time>2020-06-24T09:46:46.036Z</time>
      </trkpt>
      <trkpt lat="48.67283" lon="-2.31513">
        <ele>63</ele>
        <time>2020-06-24T09:46:47.036Z</time>
      </trkpt>
      <trkpt lat="48.67283" lon="-2.31512">
        <ele>63</ele>
        <time>2020-06-24T09:46:48.036Z</time>
      </trkpt>
      <trkpt lat="48.67282" lon="-2.31512">
        <ele>62</ele>
        <time>2020-06-24T09:46:49.036Z</time>
      </trkpt>
      <trkpt lat="48.67281" lon="-2.31511">
        <ele>62</ele>
        <time>2020-06-24T09:46:50.036Z</time>
      </trkpt>
      <trkpt lat="48.67281" lon="-2.3151">
        <ele>62</ele>
        <time>2020-06-24T09:46:51.036Z</time>
      </trkpt>
      <trkpt lat="48.6728" lon="-2.31508">
        <ele>63</ele>
        <time>2020-06-24T09:46:52.036Z</time>
      </trkpt>
      <trkpt lat="48.6728" lon="-2.31506">
        <ele>62</ele>
        <time>2020-06-24T09:46:53.036Z</time>
      </trkpt>
      <trkpt lat="48.67279" lon="-2.31504">
        <ele>62</ele>
        <time>2020-06-24T09:46:54.036Z</time>
      </trkpt>
      <trkpt lat="48.67279" lon="-2.31502">
        <ele>62</ele>
        <time>2020-06-24T09:46:55.036Z</time>
      </trkpt>
      <trkpt lat="48.67279" lon="-2.31501">
        <ele>61</ele>
        <time>2020-06-24T09:46:56.036Z</time>
      </trkpt>
      <trkpt lat="48.67278" lon="-2.31499">
        <ele>61</ele>
        <time>2020-06-24T09:46:57.036Z</time>
      </trkpt>
      <trkpt lat="48.67278" lon="-2.31497">
        <ele>61</ele>
        <time>2020-06-24T09:46:58.036Z</time>
      </trkpt>
      <trkpt lat="48.67277" lon="-2.31496">
        <ele>61</ele>
        <time>2020-06-24T09:46:59.036Z</time>
      </trkpt>
      <trkpt lat="48.67277" lon="-2.31494">
        <ele>61</ele>
        <time>2020-06-24T09:47:00.036Z</time>
      </trkpt>
      <trkpt lat="48.67276" lon="-2.31493">
        <ele>61</ele>
        <time>2020-06-24T09:47:01.036Z</time>
      </trkpt>
      <trkpt lat="48.67275" lon="-2.31491">
        <ele>61</ele>
        <time>2020-06-24T09:47:02.036Z</time>
      </trkpt>
      <trkpt lat="48.67275" lon="-2.31489">
        <ele>61</ele>
        <time>2020-06-24T09:47:03.036Z</time>
      </trkpt>
      <trkpt lat="48.67274" lon="-2.31488">
        <ele>61</ele>
        <time>2020-06-24T09:47:04.036Z</time>
      </trkpt>
      <trkpt lat="48.67273" lon="-2.31487">
        <ele>61</ele>
        <time>2020-06-24T09:47:05.036Z</time>
      </trkpt>
      <trkpt lat="48.67272" lon="-2.31486">
        <ele>61</ele>
        <time>2020-06-24T09:47:06.036Z</time>
      </trkpt>
      <trkpt lat="48.6727" lon="-2.31485">
        <ele>61</ele>
        <time>2020-06-24T09:47:07.036Z</time>
      </trkpt>
      <trkpt lat="48.67269" lon="-2.31485">
        <ele>61</ele>
        <time>2020-06-24T09:47:08.036Z</time>
      </trkpt>
      <trkpt lat="48.67268" lon="-2.31484">
        <ele>61</ele>
        <time>2020-06-24T09:47:09.036Z</time>
      </trkpt>
      <trkpt lat="48.67266" lon="-2.31484">
        <ele>61</ele>
        <time>2020-06-24T09:47:10.036Z</time>
      </trkpt>
      <trkpt lat="48.67265" lon="-2.31484">
        <ele>61</ele>
        <time>2020-06-24T09:47:11.036Z</time>
      </trkpt>
      <trkpt lat="48.67264" lon="-2.31484">
        <ele>61</ele>
        <time>2020-06-24T09:47:12.036Z</time>
      </trkpt>
      <trkpt lat="48.67263" lon="-2.31484">
        <ele>61</ele>
        <time>2020-06-24T09:47:13.036Z</time>
      </trkpt>
      <trkpt lat="48.67262" lon="-2.31483">
        <ele>61</ele>
        <time>2020-06-24T09:47:14.036Z</time>
      </trkpt>
      <trkpt lat="48.67261" lon="-2.31482">
        <ele>61</ele>
        <time>2020-06-24T09:47:15.036Z</time>
      </trkpt>
      <trkpt lat="48.6726" lon="-2.31481">
        <ele>62</ele>
        <time>2020-06-24T09:47:16.036Z</time>
      </trkpt>
      <trkpt lat="48.67259" lon="-2.31479">
        <ele>62</ele>
        <time>2020-06-24T09:47:17.036Z</time>
      </trkpt>
      <trkpt lat="48.67258" lon="-2.31478">
        <ele>62</ele>
        <time>2020-06-24T09:47:18.036Z</time>
      </trkpt>
      <trkpt lat="48.67258" lon="-2.31476">
        <ele>61</ele>
        <time>2020-06-24T09:47:19.036Z</time>
      </trkpt>
      <trkpt lat="48.67257" lon="-2.31475">
        <ele>61</ele>
        <time>2020-06-24T09:47:20.036Z</time>
      </trkpt>
      <trkpt lat="48.67256" lon="-2.31474">
        <ele>62</ele>
        <time>2020-06-24T09:47:21.036Z</time>
      </trkpt>
      <trkpt lat="48.67256" lon="-2.31473">
        <ele>61</ele>
        <time>2020-06-24T09:47:22.036Z</time>
      </trkpt>
      <trkpt lat="48.67255" lon="-2.31472">
        <ele>61</ele>
        <time>2020-06-24T09:47:23.036Z</time>
      </trkpt>
      <trkpt lat="48.67255" lon="-2.3147">
        <ele>61</ele>
        <time>2020-06-24T09:47:24.036Z</time>
      </trkpt>
      <trkpt lat="48.67255" lon="-2.31469">
        <ele>62</ele>
        <time>2020-06-24T09:47:25.036Z</time>
      </trkpt>
      <trkpt lat="48.67254" lon="-2.31468">
        <ele>61</ele>
        <time>2020-06-24T09:47:26.036Z</time>
      </trkpt>
      <trkpt lat="48.67254" lon="-2.31467">
        <ele>61</ele>
        <time>2020-06-24T09:47:27.036Z</time>
      </trkpt>
      <trkpt lat="48.67254" lon="-2.31466">
        <ele>62</ele>
        <time>2020-06-24T09:47:28.036Z</time>
      </trkpt>
      <trkpt lat="48.67253" lon="-2.31466">
        <ele>62</ele>
        <time>2020-06-24T09:47:29.036Z</time>
      </trkpt>
      <trkpt lat="48.67253" lon="-2.31465">
        <ele>62</ele>
        <time>2020-06-24T09:47:30.036Z</time>
      </trkpt>
      <trkpt lat="48.67252" lon="-2.31465">
        <ele>62</ele>
        <time>2020-06-24T09:47:31.036Z</time>
      </trkpt>
      <trkpt lat="48.67252" lon="-2.31464">
        <ele>62</ele>
        <time>2020-06-24T09:47:32.036Z</time>
      </trkpt>
      <trkpt lat="48.67251" lon="-2.31463">
        <ele>62</ele>
        <time>2020-06-24T09:47:33.036Z</time>
      </trkpt>
      <trkpt lat="48.6725" lon="-2.31462">
        <ele>62</ele>
        <time>2020-06-24T09:47:34.036Z</time>
      </trkpt>
      <trkpt lat="48.6725" lon="-2.31461">
        <ele>62</ele>
        <time>2020-06-24T09:47:35.036Z</time>
      </trkpt>
      <trkpt lat="48.6725" lon="-2.3146">
        <ele>62</ele>
        <time>2020-06-24T09:47:36.036Z</time>
      </trkpt>
      <trkpt lat="48.6725" lon="-2.31458">
        <ele>62</ele>
        <time>2020-06-24T09:47:37.036Z</time>
      </trkpt>
      <trkpt lat="48.67249" lon="-2.31457">
        <ele>62</ele>
        <time>2020-06-24T09:47:38.036Z</time>
      </trkpt>
      <trkpt lat="48.67249" lon="-2.31455">
        <ele>62</ele>
        <time>2020-06-24T09:47:39.036Z</time>
      </trkpt>
      <trkpt lat="48.67249" lon="-2.31453">
        <ele>62</ele>
        <time>2020-06-24T09:47:40.036Z</time>
      </trkpt>
      <trkpt lat="48.67249" lon="-2.31451">
        <ele>62</ele>
        <time>2020-06-24T09:47:41.036Z</time>
      </trkpt>
      <trkpt lat="48.67249" lon="-2.3145">
        <ele>62</ele>
        <time>2020-06-24T09:47:42.036Z</time>
      </trkpt>
      <trkpt lat="48.67249" lon="-2.31448">
        <ele>62</ele>
        <time>2020-06-24T09:47:43.036Z</time>
      </trkpt>
      <trkpt lat="48.6725" lon="-2.31446">
        <ele>62</ele>
        <time>2020-06-24T09:47:44.036Z</time>
      </trkpt>
      <trkpt lat="48.67249" lon="-2.31444">
        <ele>61</ele>
        <time>2020-06-24T09:47:45.036Z</time>
      </trkpt>
      <trkpt lat="48.67249" lon="-2.31442">
        <ele>61</ele>
        <time>2020-06-24T09:47:46.036Z</time>
      </trkpt>
      <trkpt lat="48.67249" lon="-2.31441">
        <ele>61</ele>
        <time>2020-06-24T09:47:47.036Z</time>
      </trkpt>
      <trkpt lat="48.67248" lon="-2.31439">
        <ele>61</ele>
        <time>2020-06-24T09:47:48.036Z</time>
      </trkpt>
      <trkpt lat="48.67247" lon="-2.31438">
        <ele>61</ele>
        <time>2020-06-24T09:47:49.036Z</time>
      </trkpt>
      <trkpt lat="48.67247" lon="-2.31436">
        <ele>62</ele>
        <time>2020-06-24T09:47:50.036Z</time>
      </trkpt>
      <trkpt lat="48.67246" lon="-2.31435">
        <ele>62</ele>
        <time>2020-06-24T09:47:51.036Z</time>
      </trkpt>
      <trkpt lat="48.67245" lon="-2.31434">
        <ele>62</ele>
        <time>2020-06-24T09:47:52.036Z</time>
      </trkpt>
      <trkpt lat="48.67244" lon="-2.31433">
        <ele>62</ele>
        <time>2020-06-24T09:47:53.036Z</time>
      </trkpt>
      <trkpt lat="48.67244" lon="-2.31432">
        <ele>62</ele>
        <time>2020-06-24T09:47:54.036Z</time>
      </trkpt>
      <trkpt lat="48.67243" lon="-2.31431">
        <ele>62</ele>
        <time>2020-06-24T09:47:55.036Z</time>
      </trkpt>
      <trkpt lat="48.67242" lon="-2.3143">
        <ele>62</ele>
        <time>2020-06-24T09:47:56.036Z</time>
      </trkpt>
      <trkpt lat="48.67241" lon="-2.31429">
        <ele>63</ele>
        <time>2020-06-24T09:47:57.036Z</time>
      </trkpt>
      <trkpt lat="48.6724" lon="-2.31427">
        <ele>63</ele>
        <time>2020-06-24T09:47:58.036Z</time>
      </trkpt>
      <trkpt lat="48.6724" lon="-2.31425">
        <ele>63</ele>
        <time>2020-06-24T09:47:59.036Z</time>
      </trkpt>
      <trkpt lat="48.6724" lon="-2.31424">
        <ele>63</ele>
        <time>2020-06-24T09:48:00.036Z</time>
      </trkpt>
      <trkpt lat="48.67239" lon="-2.31422">
        <ele>63</ele>
        <time>2020-06-24T09:48:01.036Z</time>
      </trkpt>
      <trkpt lat="48.67238" lon="-2.3142">
        <ele>63</ele>
        <time>2020-06-24T09:48:02.036Z</time>
      </trkpt>
      <trkpt lat="48.67238" lon="-2.31419">
        <ele>63</ele>
        <time>2020-06-24T09:48:03.036Z</time>
      </trkpt>
      <trkpt lat="48.67237" lon="-2.31417">
        <ele>62</ele>
        <time>2020-06-24T09:48:04.036Z</time>
      </trkpt>
      <trkpt lat="48.67236" lon="-2.31415">
        <ele>62</ele>
        <time>2020-06-24T09:48:05.036Z</time>
      </trkpt>
      <trkpt lat="48.67236" lon="-2.31414">
        <ele>62</ele>
        <time>2020-06-24T09:48:06.036Z</time>
      </trkpt>
      <trkpt lat="48.67235" lon="-2.31412">
        <ele>62</ele>
        <time>2020-06-24T09:48:07.036Z</time>
      </trkpt>
      <trkpt lat="48.67234" lon="-2.31411">
        <ele>62</ele>
        <time>2020-06-24T09:48:08.036Z</time>
      </trkpt>
      <trkpt lat="48.67233" lon="-2.3141">
        <ele>63</ele>
        <time>2020-06-24T09:48:09.036Z</time>
      </trkpt>
      <trkpt lat="48.67232" lon="-2.31409">
        <ele>63</ele>
        <time>2020-06-24T09:48:10.036Z</time>
      </trkpt>
      <trkpt lat="48.67231" lon="-2.31408">
        <ele>63</ele>
        <time>2020-06-24T09:48:11.036Z</time>
      </trkpt>
      <trkpt lat="48.6723" lon="-2.31406">
        <ele>63</ele>
        <time>2020-06-24T09:48:12.036Z</time>
      </trkpt>
      <trkpt lat="48.67229" lon="-2.31405">
        <ele>63</ele>
        <time>2020-06-24T09:48:13.036Z</time>
      </trkpt>
      <trkpt lat="48.67228" lon="-2.31404">
        <ele>63</ele>
        <time>2020-06-24T09:48:14.036Z</time>
      </trkpt>
      <trkpt lat="48.67227" lon="-2.31402">
        <ele>63</ele>
        <time>2020-06-24T09:48:15.036Z</time>
      </trkpt>
      <trkpt lat="48.67226" lon="-2.31401">
        <ele>63</ele>
        <time>2020-06-24T09:48:16.036Z</time>
      </trkpt>
      <trkpt lat="48.67225" lon="-2.314">
        <ele>63</ele>
        <time>2020-06-24T09:48:17.036Z</time>
      </trkpt>
      <trkpt lat="48.67225" lon="-2.31398">
        <ele>63</ele>
        <time>2020-06-24T09:48:18.036Z</time>
      </trkpt>
      <trkpt lat="48.67224" lon="-2.31397">
        <ele>63</ele>
        <time>2020-06-24T09:48:19.036Z</time>
      </trkpt>
      <trkpt lat="48.67223" lon="-2.31396">
        <ele>63</ele>
        <time>2020-06-24T09:48:20.036Z</time>
      </trkpt>
      <trkpt lat="48.67222" lon="-2.31394">
        <ele>63</ele>
        <time>2020-06-24T09:48:21.036Z</time>
      </trkpt>
      <trkpt lat="48.67222" lon="-2.31393">
        <ele>63</ele>
        <time>2020-06-24T09:48:22.036Z</time>
      </trkpt>
      <trkpt lat="48.67221" lon="-2.31392">
        <ele>62</ele>
        <time>2020-06-24T09:48:23.036Z</time>
      </trkpt>
      <trkpt lat="48.6722" lon="-2.3139">
        <ele>62</ele>
        <time>2020-06-24T09:48:24.036Z</time>
      </trkpt>
      <trkpt lat="48.67219" lon="-2.31389">
        <ele>62</ele>
        <time>2020-06-24T09:48:25.036Z</time>
      </trkpt>
      <trkpt lat="48.67218" lon="-2.31387">
        <ele>62</ele>
        <time>2020-06-24T09:48:26.036Z</time>
      </trkpt>
      <trkpt lat="48.67217" lon="-2.31386">
        <ele>62</ele>
        <time>2020-06-24T09:48:27.036Z</time>
      </trkpt>
      <trkpt lat="48.67216" lon="-2.31385">
        <ele>62</ele>
        <time>2020-06-24T09:48:28.036Z</time>
      </trkpt>
      <trkpt lat="48.67215" lon="-2.31384">
        <ele>62</ele>
        <time>2020-06-24T09:48:29.036Z</time>
      </trkpt>
      <trkpt lat="48.67214" lon="-2.31383">
        <ele>62</ele>
        <time>2020-06-24T09:48:30.036Z</time>
      </trkpt>
      <trkpt lat="48.67213" lon="-2.31382">
        <ele>62</ele>
        <time>2020-06-24T09:48:31.036Z</time>
      </trkpt>
      <trkpt lat="48.67212" lon="-2.31381">
        <ele>62</ele>
        <time>2020-06-24T09:48:32.036Z</time>
      </trkpt>
      <trkpt lat="48.67211" lon="-2.31379">
        <ele>61</ele>
        <time>2020-06-24T09:48:33.036Z</time>
      </trkpt>
      <trkpt lat="48.67209" lon="-2.31378">
        <ele>61</ele>
        <time>2020-06-24T09:48:34.036Z</time>
      </trkpt>
      <trkpt lat="48.67208" lon="-2.31377">
        <ele>61</ele>
        <time>2020-06-24T09:48:35.036Z</time>
      </trkpt>
      <trkpt lat="48.67207" lon="-2.31376">
        <ele>62</ele>
        <time>2020-06-24T09:48:36.036Z</time>
      </trkpt>
      <trkpt lat="48.67206" lon="-2.31375">
        <ele>62</ele>
        <time>2020-06-24T09:48:37.036Z</time>
      </trkpt>
      <trkpt lat="48.67204" lon="-2.31374">
        <ele>62</ele>
        <time>2020-06-24T09:48:38.036Z</time>
      </trkpt>
      <trkpt lat="48.67203" lon="-2.31373">
        <ele>62</ele>
        <time>2020-06-24T09:48:39.036Z</time>
      </trkpt>
      <trkpt lat="48.67201" lon="-2.31373">
        <ele>62</ele>
        <time>2020-06-24T09:48:40.036Z</time>
      </trkpt>
      <trkpt lat="48.672" lon="-2.31372">
        <ele>62</ele>
        <time>2020-06-24T09:48:41.036Z</time>
      </trkpt>
      <trkpt lat="48.67199" lon="-2.31371">
        <ele>62</ele>
        <time>2020-06-24T09:48:42.036Z</time>
      </trkpt>
      <trkpt lat="48.67198" lon="-2.3137">
        <ele>62</ele>
        <time>2020-06-24T09:48:43.036Z</time>
      </trkpt>
      <trkpt lat="48.67197" lon="-2.31369">
        <ele>62</ele>
        <time>2020-06-24T09:48:44.036Z</time>
      </trkpt>
      <trkpt lat="48.67196" lon="-2.31368">
        <ele>62</ele>
        <time>2020-06-24T09:48:45.036Z</time>
      </trkpt>
      <trkpt lat="48.67195" lon="-2.31366">
        <ele>62</ele>
        <time>2020-06-24T09:48:46.036Z</time>
      </trkpt>
      <trkpt lat="48.67194" lon="-2.31365">
        <ele>62</ele>
        <time>2020-06-24T09:48:47.036Z</time>
      </trkpt>
      <trkpt lat="48.67192" lon="-2.31364">
        <ele>62</ele>
        <time>2020-06-24T09:48:48.036Z</time>
      </trkpt>
      <trkpt lat="48.67191" lon="-2.31363">
        <ele>62</ele>
        <time>2020-06-24T09:48:49.036Z</time>
      </trkpt>
      <trkpt lat="48.6719" lon="-2.31361">
        <ele>62</ele>
        <time>2020-06-24T09:48:50.036Z</time>
      </trkpt>
      <trkpt lat="48.67189" lon="-2.3136">
        <ele>62</ele>
        <time>2020-06-24T09:48:51.036Z</time>
      </trkpt>
      <trkpt lat="48.67188" lon="-2.31359">
        <ele>62</ele>
        <time>2020-06-24T09:48:52.036Z</time>
      </trkpt>
      <trkpt lat="48.67187" lon="-2.31358">
        <ele>62</ele>
        <time>2020-06-24T09:48:53.036Z</time>
      </trkpt>
      <trkpt lat="48.67186" lon="-2.31356">
        <ele>62</ele>
        <time>2020-06-24T09:48:54.036Z</time>
      </trkpt>
      <trkpt lat="48.67185" lon="-2.31355">
        <ele>61</ele>
        <time>2020-06-24T09:48:55.036Z</time>
      </trkpt>
      <trkpt lat="48.67184" lon="-2.31354">
        <ele>61</ele>
        <time>2020-06-24T09:48:56.036Z</time>
      </trkpt>
      <trkpt lat="48.67183" lon="-2.31352">
        <ele>61</ele>
        <time>2020-06-24T09:48:57.036Z</time>
      </trkpt>
      <trkpt lat="48.67182" lon="-2.31351">
        <ele>61</ele>
        <time>2020-06-24T09:48:58.036Z</time>
      </trkpt>
      <trkpt lat="48.67181" lon="-2.3135">
        <ele>61</ele>
        <time>2020-06-24T09:48:59.036Z</time>
      </trkpt>
      <trkpt lat="48.6718" lon="-2.31348">
        <ele>61</ele>
        <time>2020-06-24T09:49:00.036Z</time>
      </trkpt>
      <trkpt lat="48.6718" lon="-2.31347">
        <ele>61</ele>
        <time>2020-06-24T09:49:01.036Z</time>
      </trkpt>
      <trkpt lat="48.67179" lon="-2.31345">
        <ele>61</ele>
        <time>2020-06-24T09:49:02.036Z</time>
      </trkpt>
      <trkpt lat="48.67178" lon="-2.31344">
        <ele>61</ele>
        <time>2020-06-24T09:49:03.036Z</time>
      </trkpt>
      <trkpt lat="48.67178" lon="-2.31342">
        <ele>61</ele>
        <time>2020-06-24T09:49:04.036Z</time>
      </trkpt>
      <trkpt lat="48.67177" lon="-2.31341">
        <ele>61</ele>
        <time>2020-06-24T09:49:05.036Z</time>
      </trkpt>
      <trkpt lat="48.67176" lon="-2.3134">
        <ele>61</ele>
        <time>2020-06-24T09:49:06.036Z</time>
      </trkpt>
      <trkpt lat="48.67175" lon="-2.31339">
        <ele>61</ele>
        <time>2020-06-24T09:49:07.036Z</time>
      </trkpt>
      <trkpt lat="48.67174" lon="-2.31337">
        <ele>60</ele>
        <time>2020-06-24T09:49:08.036Z</time>
      </trkpt>
      <trkpt lat="48.67173" lon="-2.31336">
        <ele>60</ele>
        <time>2020-06-24T09:49:09.036Z</time>
      </trkpt>
      <trkpt lat="48.67172" lon="-2.31335">
        <ele>60</ele>
        <time>2020-06-24T09:49:10.036Z</time>
      </trkpt>
      <trkpt lat="48.67171" lon="-2.31334">
        <ele>60</ele>
        <time>2020-06-24T09:49:11.036Z</time>
      </trkpt>
      <trkpt lat="48.6717" lon="-2.31333">
        <ele>60</ele>
        <time>2020-06-24T09:49:12.036Z</time>
      </trkpt>
      <trkpt lat="48.67169" lon="-2.31332">
        <ele>60</ele>
        <time>2020-06-24T09:49:13.036Z</time>
      </trkpt>
      <trkpt lat="48.67168" lon="-2.3133">
        <ele>60</ele>
        <time>2020-06-24T09:49:14.036Z</time>
      </trkpt>
      <trkpt lat="48.67166" lon="-2.31329">
        <ele>59</ele>
        <time>2020-06-24T09:49:15.036Z</time>
      </trkpt>
      <trkpt lat="48.67165" lon="-2.31328">
        <ele>60</ele>
        <time>2020-06-24T09:49:16.036Z</time>
      </trkpt>
      <trkpt lat="48.67164" lon="-2.31327">
        <ele>60</ele>
        <time>2020-06-24T09:49:17.036Z</time>
      </trkpt>
      <trkpt lat="48.67163" lon="-2.31325">
        <ele>60</ele>
        <time>2020-06-24T09:49:18.036Z</time>
      </trkpt>
      <trkpt lat="48.67162" lon="-2.31324">
        <ele>60</ele>
        <time>2020-06-24T09:49:19.036Z</time>
      </trkpt>
      <trkpt lat="48.67161" lon="-2.31323">
        <ele>60</ele>
        <time>2020-06-24T09:49:20.036Z</time>
      </trkpt>
      <trkpt lat="48.6716" lon="-2.31321">
        <ele>60</ele>
        <time>2020-06-24T09:49:21.036Z</time>
      </trkpt>
      <trkpt lat="48.67159" lon="-2.3132">
        <ele>60</ele>
        <time>2020-06-24T09:49:22.036Z</time>
      </trkpt>
      <trkpt lat="48.67158" lon="-2.31318">
        <ele>60</ele>
        <time>2020-06-24T09:49:23.036Z</time>
      </trkpt>
      <trkpt lat="48.67157" lon="-2.31316">
        <ele>60</ele>
        <time>2020-06-24T09:49:24.036Z</time>
      </trkpt>
      <trkpt lat="48.67156" lon="-2.31315">
        <ele>60</ele>
        <time>2020-06-24T09:49:25.036Z</time>
      </trkpt>
      <trkpt lat="48.67155" lon="-2.31313">
        <ele>59</ele>
        <time>2020-06-24T09:49:26.036Z</time>
      </trkpt>
      <trkpt lat="48.67155" lon="-2.31312">
        <ele>59</ele>
        <time>2020-06-24T09:49:27.036Z</time>
      </trkpt>
      <trkpt lat="48.67154" lon="-2.3131">
        <ele>59</ele>
        <time>2020-06-24T09:49:28.036Z</time>
      </trkpt>
      <trkpt lat="48.67153" lon="-2.31308">
        <ele>59</ele>
        <time>2020-06-24T09:49:29.036Z</time>
      </trkpt>
      <trkpt lat="48.67153" lon="-2.31306">
        <ele>59</ele>
        <time>2020-06-24T09:49:30.036Z</time>
      </trkpt>
      <trkpt lat="48.67152" lon="-2.31305">
        <ele>59</ele>
        <time>2020-06-24T09:49:31.036Z</time>
      </trkpt>
      <trkpt lat="48.6715" lon="-2.31303">
        <ele>59</ele>
        <time>2020-06-24T09:49:32.036Z</time>
      </trkpt>
      <trkpt lat="48.67149" lon="-2.31302">
        <ele>59</ele>
        <time>2020-06-24T09:49:33.036Z</time>
      </trkpt>
      <trkpt lat="48.67148" lon="-2.31301">
        <ele>59</ele>
        <time>2020-06-24T09:49:34.036Z</time>
      </trkpt>
      <trkpt lat="48.67147" lon="-2.313">
        <ele>59</ele>
        <time>2020-06-24T09:49:35.036Z</time>
      </trkpt>
      <trkpt lat="48.67146" lon="-2.31299">
        <ele>59</ele>
        <time>2020-06-24T09:49:36.036Z</time>
      </trkpt>
      <trkpt lat="48.67144" lon="-2.31298">
        <ele>59</ele>
        <time>2020-06-24T09:49:37.036Z</time>
      </trkpt>
      <trkpt lat="48.67143" lon="-2.31298">
        <ele>60</ele>
        <time>2020-06-24T09:49:38.036Z</time>
      </trkpt>
      <trkpt lat="48.67141" lon="-2.31297">
        <ele>60</ele>
        <time>2020-06-24T09:49:39.036Z</time>
      </trkpt>
      <trkpt lat="48.6714" lon="-2.31297">
        <ele>60</ele>
        <time>2020-06-24T09:49:40.036Z</time>
      </trkpt>
      <trkpt lat="48.67139" lon="-2.31296">
        <ele>60</ele>
        <time>2020-06-24T09:49:41.036Z</time>
      </trkpt>
      <trkpt lat="48.67138" lon="-2.31296">
        <ele>60</ele>
        <time>2020-06-24T09:49:42.036Z</time>
      </trkpt>
      <trkpt lat="48.67137" lon="-2.31295">
        <ele>60</ele>
        <time>2020-06-24T09:49:43.036Z</time>
      </trkpt>
      <trkpt lat="48.67135" lon="-2.31295">
        <ele>60</ele>
        <time>2020-06-24T09:49:44.036Z</time>
      </trkpt>
      <trkpt lat="48.67134" lon="-2.31295">
        <ele>60</ele>
        <time>2020-06-24T09:49:45.036Z</time>
      </trkpt>
      <trkpt lat="48.67133" lon="-2.31296">
        <ele>60</ele>
        <time>2020-06-24T09:49:46.036Z</time>
      </trkpt>
      <trkpt lat="48.67132" lon="-2.31296">
        <ele>60</ele>
        <time>2020-06-24T09:49:47.036Z</time>
      </trkpt>
      <trkpt lat="48.6713" lon="-2.31296">
        <ele>60</ele>
        <time>2020-06-24T09:49:48.036Z</time>
      </trkpt>
      <trkpt lat="48.67129" lon="-2.31296">
        <ele>60</ele>
        <time>2020-06-24T09:49:49.036Z</time>
      </trkpt>
      <trkpt lat="48.67127" lon="-2.31296">
        <ele>60</ele>
        <time>2020-06-24T09:49:50.036Z</time>
      </trkpt>
      <trkpt lat="48.67126" lon="-2.31296">
        <ele>60</ele>
        <time>2020-06-24T09:49:51.036Z</time>
      </trkpt>
      <trkpt lat="48.67124" lon="-2.31296">
        <ele>61</ele>
        <time>2020-06-24T09:49:52.036Z</time>
      </trkpt>
      <trkpt lat="48.67123" lon="-2.31295">
        <ele>61</ele>
        <time>2020-06-24T09:49:53.036Z</time>
      </trkpt>
      <trkpt lat="48.67121" lon="-2.31295">
        <ele>61</ele>
        <time>2020-06-24T09:49:54.036Z</time>
      </trkpt>
      <trkpt lat="48.6712" lon="-2.31294">
        <ele>62</ele>
        <time>2020-06-24T09:49:55.036Z</time>
      </trkpt>
      <trkpt lat="48.67118" lon="-2.31294">
        <ele>62</ele>
        <time>2020-06-24T09:49:56.036Z</time>
      </trkpt>
      <trkpt lat="48.67117" lon="-2.31293">
        <ele>62</ele>
        <time>2020-06-24T09:49:57.036Z</time>
      </trkpt>
      <trkpt lat="48.67115" lon="-2.31293">
        <ele>63</ele>
        <time>2020-06-24T09:49:58.036Z</time>
      </trkpt>
      <trkpt lat="48.67114" lon="-2.31292">
        <ele>63</ele>
        <time>2020-06-24T09:49:59.036Z</time>
      </trkpt>
      <trkpt lat="48.67113" lon="-2.31292">
        <ele>62</ele>
        <time>2020-06-24T09:50:00.036Z</time>
      </trkpt>
      <trkpt lat="48.67112" lon="-2.31291">
        <ele>62</ele>
        <time>2020-06-24T09:50:01.036Z</time>
      </trkpt>
      <trkpt lat="48.6711" lon="-2.3129">
        <ele>62</ele>
        <time>2020-06-24T09:50:02.036Z</time>
      </trkpt>
      <trkpt lat="48.67109" lon="-2.3129">
        <ele>63</ele>
        <time>2020-06-24T09:50:03.036Z</time>
      </trkpt>
      <trkpt lat="48.67108" lon="-2.31289">
        <ele>63</ele>
        <time>2020-06-24T09:50:04.036Z</time>
      </trkpt>
      <trkpt lat="48.67106" lon="-2.31288">
        <ele>63</ele>
        <time>2020-06-24T09:50:05.036Z</time>
      </trkpt>
      <trkpt lat="48.67105" lon="-2.31287">
        <ele>64</ele>
        <time>2020-06-24T09:50:06.036Z</time>
      </trkpt>
      <trkpt lat="48.67104" lon="-2.31286">
        <ele>64</ele>
        <time>2020-06-24T09:50:07.036Z</time>
      </trkpt>
      <trkpt lat="48.67103" lon="-2.31285">
        <ele>64</ele>
        <time>2020-06-24T09:50:08.036Z</time>
      </trkpt>
      <trkpt lat="48.67102" lon="-2.31284">
        <ele>64</ele>
        <time>2020-06-24T09:50:09.036Z</time>
      </trkpt>
      <trkpt lat="48.671" lon="-2.31283">
        <ele>64</ele>
        <time>2020-06-24T09:50:10.036Z</time>
      </trkpt>
      <trkpt lat="48.67099" lon="-2.31282">
        <ele>64</ele>
        <time>2020-06-24T09:50:11.036Z</time>
      </trkpt>
      <trkpt lat="48.67098" lon="-2.31281">
        <ele>64</ele>
        <time>2020-06-24T09:50:12.036Z</time>
      </trkpt>
      <trkpt lat="48.67097" lon="-2.31281">
        <ele>65</ele>
        <time>2020-06-24T09:50:13.036Z</time>
      </trkpt>
      <trkpt lat="48.67096" lon="-2.3128">
        <ele>64</ele>
        <time>2020-06-24T09:50:14.036Z</time>
      </trkpt>
      <trkpt lat="48.67095" lon="-2.3128">
        <ele>63</ele>
        <time>2020-06-24T09:50:15.036Z</time>
      </trkpt>
      <trkpt lat="48.67094" lon="-2.31279">
        <ele>63</ele>
        <time>2020-06-24T09:50:16.036Z</time>
      </trkpt>
      <trkpt lat="48.67093" lon="-2.31278">
        <ele>63</ele>
        <time>2020-06-24T09:50:17.036Z</time>
      </trkpt>
      <trkpt lat="48.67092" lon="-2.31277">
        <ele>63</ele>
        <time>2020-06-24T09:50:18.036Z</time>
      </trkpt>
      <trkpt lat="48.67091" lon="-2.31275">
        <ele>63</ele>
        <time>2020-06-24T09:50:19.036Z</time>
      </trkpt>
      <trkpt lat="48.6709" lon="-2.31274">
        <ele>64</ele>
        <time>2020-06-24T09:50:20.036Z</time>
      </trkpt>
      <trkpt lat="48.67089" lon="-2.31273">
        <ele>63</ele>
        <time>2020-06-24T09:50:21.036Z</time>
      </trkpt>
      <trkpt lat="48.67088" lon="-2.31272">
        <ele>64</ele>
        <time>2020-06-24T09:50:22.036Z</time>
      </trkpt>
      <trkpt lat="48.67088" lon="-2.3127">
        <ele>64</ele>
        <time>2020-06-24T09:50:23.036Z</time>
      </trkpt>
      <trkpt lat="48.67087" lon="-2.31269">
        <ele>64</ele>
        <time>2020-06-24T09:50:24.036Z</time>
      </trkpt>
      <trkpt lat="48.67086" lon="-2.31268">
        <ele>64</ele>
        <time>2020-06-24T09:50:25.036Z</time>
      </trkpt>
      <trkpt lat="48.67085" lon="-2.31266">
        <ele>64</ele>
        <time>2020-06-24T09:50:26.036Z</time>
      </trkpt>
      <trkpt lat="48.67084" lon="-2.31265">
        <ele>65</ele>
        <time>2020-06-24T09:50:27.036Z</time>
      </trkpt>
      <trkpt lat="48.67083" lon="-2.31263">
        <ele>64</ele>
        <time>2020-06-24T09:50:28.036Z</time>
      </trkpt>
      <trkpt lat="48.67082" lon="-2.31262">
        <ele>65</ele>
        <time>2020-06-24T09:50:29.036Z</time>
      </trkpt>
      <trkpt lat="48.67081" lon="-2.31261">
        <ele>64</ele>
        <time>2020-06-24T09:50:30.036Z</time>
      </trkpt>
      <trkpt lat="48.6708" lon="-2.3126">
        <ele>65</ele>
        <time>2020-06-24T09:50:31.036Z</time>
      </trkpt>
      <trkpt lat="48.67079" lon="-2.31258">
        <ele>65</ele>
        <time>2020-06-24T09:50:32.036Z</time>
      </trkpt>
      <trkpt lat="48.67078" lon="-2.31257">
        <ele>65</ele>
        <time>2020-06-24T09:50:33.036Z</time>
      </trkpt>
      <trkpt lat="48.67077" lon="-2.31256">
        <ele>65</ele>
        <time>2020-06-24T09:50:34.036Z</time>
      </trkpt>
      <trkpt lat="48.67076" lon="-2.31255">
        <ele>65</ele>
        <time>2020-06-24T09:50:35.036Z</time>
      </trkpt>
      <trkpt lat="48.67076" lon="-2.31254">
        <ele>64</ele>
        <time>2020-06-24T09:50:36.036Z</time>
      </trkpt>
      <trkpt lat="48.67075" lon="-2.31252">
        <ele>64</ele>
        <time>2020-06-24T09:50:37.036Z</time>
      </trkpt>
      <trkpt lat="48.67074" lon="-2.31251">
        <ele>64</ele>
        <time>2020-06-24T09:50:38.036Z</time>
      </trkpt>
      <trkpt lat="48.67073" lon="-2.31249">
        <ele>64</ele>
        <time>2020-06-24T09:50:39.036Z</time>
      </trkpt>
      <trkpt lat="48.67072" lon="-2.31248">
        <ele>64</ele>
        <time>2020-06-24T09:50:40.036Z</time>
      </trkpt>
      <trkpt lat="48.67071" lon="-2.31246">
        <ele>64</ele>
        <time>2020-06-24T09:50:41.036Z</time>
      </trkpt>
      <trkpt lat="48.6707" lon="-2.31245">
        <ele>64</ele>
        <time>2020-06-24T09:50:42.036Z</time>
      </trkpt>
      <trkpt lat="48.6707" lon="-2.31244">
        <ele>64</ele>
        <time>2020-06-24T09:50:43.036Z</time>
      </trkpt>
      <trkpt lat="48.67069" lon="-2.31242">
        <ele>64</ele>
        <time>2020-06-24T09:50:44.036Z</time>
      </trkpt>
      <trkpt lat="48.67068" lon="-2.31241">
        <ele>64</ele>
        <time>2020-06-24T09:50:45.036Z</time>
      </trkpt>
      <trkpt lat="48.67067" lon="-2.31239">
        <ele>64</ele>
        <time>2020-06-24T09:50:46.036Z</time>
      </trkpt>
      <trkpt lat="48.67066" lon="-2.31238">
        <ele>64</ele>
        <time>2020-06-24T09:50:47.036Z</time>
      </trkpt>
      <trkpt lat="48.67065" lon="-2.31236">
        <ele>64</ele>
        <time>2020-06-24T09:50:48.036Z</time>
      </trkpt>
      <trkpt lat="48.67064" lon="-2.31235">
        <ele>65</ele>
        <time>2020-06-24T09:50:49.036Z</time>
      </trkpt>
      <trkpt lat="48.67064" lon="-2.31234">
        <ele>65</ele>
        <time>2020-06-24T09:50:50.036Z</time>
      </trkpt>
      <trkpt lat="48.67063" lon="-2.31232">
        <ele>65</ele>
        <time>2020-06-24T09:50:51.036Z</time>
      </trkpt>
      <trkpt lat="48.67062" lon="-2.31231">
        <ele>65</ele>
        <time>2020-06-24T09:50:52.036Z</time>
      </trkpt>
      <trkpt lat="48.67061" lon="-2.3123">
        <ele>65</ele>
        <time>2020-06-24T09:50:53.036Z</time>
      </trkpt>
      <trkpt lat="48.67061" lon="-2.31228">
        <ele>65</ele>
        <time>2020-06-24T09:50:54.036Z</time>
      </trkpt>
      <trkpt lat="48.6706" lon="-2.31227">
        <ele>65</ele>
        <time>2020-06-24T09:50:55.036Z</time>
      </trkpt>
      <trkpt lat="48.67059" lon="-2.31225">
        <ele>65</ele>
        <time>2020-06-24T09:50:56.036Z</time>
      </trkpt>
      <trkpt lat="48.67059" lon="-2.31223">
        <ele>65</ele>
        <time>2020-06-24T09:50:57.036Z</time>
      </trkpt>
      <trkpt lat="48.67058" lon="-2.31222">
        <ele>65</ele>
        <time>2020-06-24T09:50:58.036Z</time>
      </trkpt>
      <trkpt lat="48.67058" lon="-2.3122">
        <ele>65</ele>
        <time>2020-06-24T09:50:59.036Z</time>
      </trkpt>
      <trkpt lat="48.67057" lon="-2.31219">
        <ele>65</ele>
        <time>2020-06-24T09:51:00.036Z</time>
      </trkpt>
      <trkpt lat="48.67057" lon="-2.31217">
        <ele>65</ele>
        <time>2020-06-24T09:51:01.036Z</time>
      </trkpt>
      <trkpt lat="48.67056" lon="-2.31216">
        <ele>65</ele>
        <time>2020-06-24T09:51:02.036Z</time>
      </trkpt>
      <trkpt lat="48.67056" lon="-2.31214">
        <ele>65</ele>
        <time>2020-06-24T09:51:03.036Z</time>
      </trkpt>
      <trkpt lat="48.67055" lon="-2.31212">
        <ele>65</ele>
        <time>2020-06-24T09:51:04.036Z</time>
      </trkpt>
      <trkpt lat="48.67055" lon="-2.31211">
        <ele>65</ele>
        <time>2020-06-24T09:51:05.036Z</time>
      </trkpt>
      <trkpt lat="48.67054" lon="-2.31209">
        <ele>65</ele>
        <time>2020-06-24T09:51:06.036Z</time>
      </trkpt>
      <trkpt lat="48.67054" lon="-2.31207">
        <ele>65</ele>
        <time>2020-06-24T09:51:07.036Z</time>
      </trkpt>
      <trkpt lat="48.67054" lon="-2.31206">
        <ele>65</ele>
        <time>2020-06-24T09:51:08.036Z</time>
      </trkpt>
      <trkpt lat="48.67053" lon="-2.31204">
        <ele>65</ele>
        <time>2020-06-24T09:51:09.036Z</time>
      </trkpt>
      <trkpt lat="48.67053" lon="-2.31203">
        <ele>66</ele>
        <time>2020-06-24T09:51:10.036Z</time>
      </trkpt>
      <trkpt lat="48.67052" lon="-2.31201">
        <ele>66</ele>
        <time>2020-06-24T09:51:11.036Z</time>
      </trkpt>
      <trkpt lat="48.67051" lon="-2.312">
        <ele>66</ele>
        <time>2020-06-24T09:51:12.036Z</time>
      </trkpt>
      <trkpt lat="48.6705" lon="-2.31198">
        <ele>66</ele>
        <time>2020-06-24T09:51:13.036Z</time>
      </trkpt>
      <trkpt lat="48.67049" lon="-2.31197">
        <ele>66</ele>
        <time>2020-06-24T09:51:14.036Z</time>
      </trkpt>
      <trkpt lat="48.67049" lon="-2.31195">
        <ele>66</ele>
        <time>2020-06-24T09:51:15.036Z</time>
      </trkpt>
      <trkpt lat="48.67048" lon="-2.31193">
        <ele>66</ele>
        <time>2020-06-24T09:51:16.036Z</time>
      </trkpt>
      <trkpt lat="48.67047" lon="-2.31192">
        <ele>65</ele>
        <time>2020-06-24T09:51:17.036Z</time>
      </trkpt>
      <trkpt lat="48.67046" lon="-2.31191">
        <ele>65</ele>
        <time>2020-06-24T09:51:18.036Z</time>
      </trkpt>
      <trkpt lat="48.67045" lon="-2.31189">
        <ele>66</ele>
        <time>2020-06-24T09:51:19.036Z</time>
      </trkpt>
      <trkpt lat="48.67044" lon="-2.31188">
        <ele>66</ele>
        <time>2020-06-24T09:51:20.036Z</time>
      </trkpt>
      <trkpt lat="48.67044" lon="-2.31187">
        <ele>66</ele>
        <time>2020-06-24T09:51:21.036Z</time>
      </trkpt>
      <trkpt lat="48.67043" lon="-2.31185">
        <ele>66</ele>
        <time>2020-06-24T09:51:22.036Z</time>
      </trkpt>
      <trkpt lat="48.67042" lon="-2.31184">
        <ele>66</ele>
        <time>2020-06-24T09:51:23.036Z</time>
      </trkpt>
      <trkpt lat="48.67041" lon="-2.31182">
        <ele>66</ele>
        <time>2020-06-24T09:51:24.036Z</time>
      </trkpt>
      <trkpt lat="48.6704" lon="-2.31181">
        <ele>66</ele>
        <time>2020-06-24T09:51:25.036Z</time>
      </trkpt>
      <trkpt lat="48.67039" lon="-2.3118">
        <ele>66</ele>
        <time>2020-06-24T09:51:26.036Z</time>
      </trkpt>
      <trkpt lat="48.67039" lon="-2.31178">
        <ele>65</ele>
        <time>2020-06-24T09:51:27.036Z</time>
      </trkpt>
      <trkpt lat="48.67038" lon="-2.31176">
        <ele>65</ele>
        <time>2020-06-24T09:51:28.036Z</time>
      </trkpt>
      <trkpt lat="48.67037" lon="-2.31175">
        <ele>65</ele>
        <time>2020-06-24T09:51:29.036Z</time>
      </trkpt>
      <trkpt lat="48.67036" lon="-2.31173">
        <ele>65</ele>
        <time>2020-06-24T09:51:30.036Z</time>
      </trkpt>
      <trkpt lat="48.67035" lon="-2.31171">
        <ele>65</ele>
        <time>2020-06-24T09:51:31.036Z</time>
      </trkpt>
      <trkpt lat="48.67035" lon="-2.3117">
        <ele>65</ele>
        <time>2020-06-24T09:51:32.036Z</time>
      </trkpt>
      <trkpt lat="48.67034" lon="-2.31169">
        <ele>65</ele>
        <time>2020-06-24T09:51:33.036Z</time>
      </trkpt>
      <trkpt lat="48.67033" lon="-2.31167">
        <ele>65</ele>
        <time>2020-06-24T09:51:34.036Z</time>
      </trkpt>
      <trkpt lat="48.67033" lon="-2.31166">
        <ele>65</ele>
        <time>2020-06-24T09:51:35.036Z</time>
      </trkpt>
      <trkpt lat="48.67032" lon="-2.31164">
        <ele>64</ele>
        <time>2020-06-24T09:51:36.036Z</time>
      </trkpt>
      <trkpt lat="48.67031" lon="-2.31163">
        <ele>64</ele>
        <time>2020-06-24T09:51:37.036Z</time>
      </trkpt>
      <trkpt lat="48.67031" lon="-2.31161">
        <ele>64</ele>
        <time>2020-06-24T09:51:38.036Z</time>
      </trkpt>
      <trkpt lat="48.6703" lon="-2.3116">
        <ele>63</ele>
        <time>2020-06-24T09:51:39.036Z</time>
      </trkpt>
      <trkpt lat="48.67029" lon="-2.31158">
        <ele>63</ele>
        <time>2020-06-24T09:51:40.036Z</time>
      </trkpt>
      <trkpt lat="48.67027" lon="-2.31157">
        <ele>63</ele>
        <time>2020-06-24T09:51:41.036Z</time>
      </trkpt>
      <trkpt lat="48.67026" lon="-2.31156">
        <ele>63</ele>
        <time>2020-06-24T09:51:42.036Z</time>
      </trkpt>
      <trkpt lat="48.67025" lon="-2.31157">
        <ele>63</ele>
        <time>2020-06-24T09:51:43.036Z</time>
      </trkpt>
      <trkpt lat="48.67024" lon="-2.31157">
        <ele>63</ele>
        <time>2020-06-24T09:51:44.036Z</time>
      </trkpt>
      <trkpt lat="48.67023" lon="-2.31158">
        <ele>63</ele>
        <time>2020-06-24T09:51:45.036Z</time>
      </trkpt>
      <trkpt lat="48.67023" lon="-2.31158">
        <ele>63</ele>
        <time>2020-06-24T09:51:46.036Z</time>
      </trkpt>
      <trkpt lat="48.67023" lon="-2.31158">
        <ele>63</ele>
        <time>2020-06-24T09:51:47.036Z</time>
      </trkpt>
      <trkpt lat="48.67022" lon="-2.31159">
        <ele>63</ele>
        <time>2020-06-24T09:51:48.036Z</time>
      </trkpt>
      <trkpt lat="48.67021" lon="-2.31159">
        <ele>63</ele>
        <time>2020-06-24T09:51:49.036Z</time>
      </trkpt>
      <trkpt lat="48.67021" lon="-2.3116">
        <ele>63</ele>
        <time>2020-06-24T09:51:50.036Z</time>
      </trkpt>
      <trkpt lat="48.6702" lon="-2.3116">
        <ele>63</ele>
        <time>2020-06-24T09:51:51.036Z</time>
      </trkpt>
      <trkpt lat="48.6702" lon="-2.3116">
        <ele>63</ele>
        <time>2020-06-24T09:51:52.036Z</time>
      </trkpt>
      <trkpt lat="48.6702" lon="-2.3116">
        <ele>63</ele>
        <time>2020-06-24T09:51:53.036Z</time>
      </trkpt>
      <trkpt lat="48.6702" lon="-2.3116">
        <ele>63</ele>
        <time>2020-06-24T09:51:54.036Z</time>
      </trkpt>
      <trkpt lat="48.6702" lon="-2.31161">
        <ele>63</ele>
        <time>2020-06-24T09:51:55.036Z</time>
      </trkpt>
      <trkpt lat="48.6702" lon="-2.31161">
        <ele>63</ele>
        <time>2020-06-24T09:51:56.036Z</time>
      </trkpt>
      <trkpt lat="48.6702" lon="-2.31161">
        <ele>63</ele>
        <time>2020-06-24T09:51:57.036Z</time>
      </trkpt>
      <trkpt lat="48.67017" lon="-2.31163">
        <ele>63</ele>
        <time>2020-06-24T09:51:58.040Z</time>
      </trkpt>
      <trkpt lat="48.67015" lon="-2.31163">
        <ele>63</ele>
        <time>2020-06-24T09:51:59.040Z</time>
      </trkpt>
      <trkpt lat="48.67014" lon="-2.31164">
        <ele>63</ele>
        <time>2020-06-24T09:52:00.040Z</time>
      </trkpt>
      <trkpt lat="48.67013" lon="-2.31165">
        <ele>63</ele>
        <time>2020-06-24T09:52:01.040Z</time>
      </trkpt>
      <trkpt lat="48.67012" lon="-2.31165">
        <ele>63</ele>
        <time>2020-06-24T09:52:02.040Z</time>
      </trkpt>
      <trkpt lat="48.6701" lon="-2.31166">
        <ele>63</ele>
        <time>2020-06-24T09:52:03.040Z</time>
      </trkpt>
      <trkpt lat="48.67009" lon="-2.31166">
        <ele>63</ele>
        <time>2020-06-24T09:52:04.040Z</time>
      </trkpt>
      <trkpt lat="48.67007" lon="-2.31167">
        <ele>63</ele>
        <time>2020-06-24T09:52:05.040Z</time>
      </trkpt>
      <trkpt lat="48.67006" lon="-2.31167">
        <ele>63</ele>
        <time>2020-06-24T09:52:06.040Z</time>
      </trkpt>
      <trkpt lat="48.67005" lon="-2.31168">
        <ele>63</ele>
        <time>2020-06-24T09:52:07.040Z</time>
      </trkpt>
      <trkpt lat="48.67003" lon="-2.31168">
        <ele>63</ele>
        <time>2020-06-24T09:52:08.040Z</time>
      </trkpt>
      <trkpt lat="48.67002" lon="-2.31168">
        <ele>63</ele>
        <time>2020-06-24T09:52:09.040Z</time>
      </trkpt>
      <trkpt lat="48.67001" lon="-2.31168">
        <ele>63</ele>
        <time>2020-06-24T09:52:10.040Z</time>
      </trkpt>
      <trkpt lat="48.66999" lon="-2.31168">
        <ele>63</ele>
        <time>2020-06-24T09:52:11.040Z</time>
      </trkpt>
      <trkpt lat="48.66998" lon="-2.31169">
        <ele>63</ele>
        <time>2020-06-24T09:52:12.040Z</time>
      </trkpt>
      <trkpt lat="48.66997" lon="-2.31169">
        <ele>63</ele>
        <time>2020-06-24T09:52:13.040Z</time>
      </trkpt>
      <trkpt lat="48.66995" lon="-2.31169">
        <ele>63</ele>
        <time>2020-06-24T09:52:14.040Z</time>
      </trkpt>
      <trkpt lat="48.66994" lon="-2.31169">
        <ele>63</ele>
        <time>2020-06-24T09:52:15.040Z</time>
      </trkpt>
      <trkpt lat="48.66992" lon="-2.3117">
        <ele>64</ele>
        <time>2020-06-24T09:52:16.040Z</time>
      </trkpt>
      <trkpt lat="48.66991" lon="-2.3117">
        <ele>64</ele>
        <time>2020-06-24T09:52:17.040Z</time>
      </trkpt>
      <trkpt lat="48.66989" lon="-2.31171">
        <ele>64</ele>
        <time>2020-06-24T09:52:18.040Z</time>
      </trkpt>
      <trkpt lat="48.66988" lon="-2.31171">
        <ele>64</ele>
        <time>2020-06-24T09:52:19.040Z</time>
      </trkpt>
      <trkpt lat="48.66986" lon="-2.31171">
        <ele>64</ele>
        <time>2020-06-24T09:52:20.040Z</time>
      </trkpt>
      <trkpt lat="48.66985" lon="-2.31172">
        <ele>64</ele>
        <time>2020-06-24T09:52:21.040Z</time>
      </trkpt>
      <trkpt lat="48.66983" lon="-2.31172">
        <ele>64</ele>
        <time>2020-06-24T09:52:22.040Z</time>
      </trkpt>
      <trkpt lat="48.66982" lon="-2.31172">
        <ele>64</ele>
        <time>2020-06-24T09:52:23.040Z</time>
      </trkpt>
      <trkpt lat="48.6698" lon="-2.31172">
        <ele>64</ele>
        <time>2020-06-24T09:52:24.040Z</time>
      </trkpt>
      <trkpt lat="48.66979" lon="-2.31172">
        <ele>64</ele>
        <time>2020-06-24T09:52:25.040Z</time>
      </trkpt>
      <trkpt lat="48.66977" lon="-2.31171">
        <ele>64</ele>
        <time>2020-06-24T09:52:26.040Z</time>
      </trkpt>
      <trkpt lat="48.66976" lon="-2.31171">
        <ele>64</ele>
        <time>2020-06-24T09:52:27.040Z</time>
      </trkpt>
      <trkpt lat="48.66974" lon="-2.31171">
        <ele>65</ele>
        <time>2020-06-24T09:52:28.040Z</time>
      </trkpt>
      <trkpt lat="48.66973" lon="-2.3117">
        <ele>65</ele>
        <time>2020-06-24T09:52:29.040Z</time>
      </trkpt>
      <trkpt lat="48.66971" lon="-2.31169">
        <ele>65</ele>
        <time>2020-06-24T09:52:30.040Z</time>
      </trkpt>
      <trkpt lat="48.6697" lon="-2.31169">
        <ele>65</ele>
        <time>2020-06-24T09:52:31.040Z</time>
      </trkpt>
      <trkpt lat="48.66968" lon="-2.31169">
        <ele>65</ele>
        <time>2020-06-24T09:52:32.040Z</time>
      </trkpt>
      <trkpt lat="48.66967" lon="-2.31169">
        <ele>65</ele>
        <time>2020-06-24T09:52:33.040Z</time>
      </trkpt>
      <trkpt lat="48.66965" lon="-2.31169">
        <ele>66</ele>
        <time>2020-06-24T09:52:34.040Z</time>
      </trkpt>
      <trkpt lat="48.66964" lon="-2.31169">
        <ele>66</ele>
        <time>2020-06-24T09:52:35.040Z</time>
      </trkpt>
      <trkpt lat="48.66962" lon="-2.31169">
        <ele>66</ele>
        <time>2020-06-24T09:52:36.040Z</time>
      </trkpt>
      <trkpt lat="48.66961" lon="-2.3117">
        <ele>66</ele>
        <time>2020-06-24T09:52:37.040Z</time>
      </trkpt>
      <trkpt lat="48.6696" lon="-2.3117">
        <ele>66</ele>
        <time>2020-06-24T09:52:38.040Z</time>
      </trkpt>
      <trkpt lat="48.66958" lon="-2.3117">
        <ele>66</ele>
        <time>2020-06-24T09:52:39.040Z</time>
      </trkpt>
      <trkpt lat="48.66957" lon="-2.3117">
        <ele>65</ele>
        <time>2020-06-24T09:52:40.040Z</time>
      </trkpt>
      <trkpt lat="48.66956" lon="-2.31169">
        <ele>65</ele>
        <time>2020-06-24T09:52:41.040Z</time>
      </trkpt>
      <trkpt lat="48.66954" lon="-2.31168">
        <ele>65</ele>
        <time>2020-06-24T09:52:42.040Z</time>
      </trkpt>
      <trkpt lat="48.66953" lon="-2.31168">
        <ele>65</ele>
        <time>2020-06-24T09:52:43.040Z</time>
      </trkpt>
      <trkpt lat="48.66952" lon="-2.31167">
        <ele>65</ele>
        <time>2020-06-24T09:52:44.040Z</time>
      </trkpt>
      <trkpt lat="48.6695" lon="-2.31166">
        <ele>65</ele>
        <time>2020-06-24T09:52:45.040Z</time>
      </trkpt>
      <trkpt lat="48.66949" lon="-2.31166">
        <ele>65</ele>
        <time>2020-06-24T09:52:46.040Z</time>
      </trkpt>
      <trkpt lat="48.66948" lon="-2.31165">
        <ele>65</ele>
        <time>2020-06-24T09:52:47.040Z</time>
      </trkpt>
      <trkpt lat="48.66947" lon="-2.31164">
        <ele>64</ele>
        <time>2020-06-24T09:52:48.040Z</time>
      </trkpt>
      <trkpt lat="48.66945" lon="-2.31164">
        <ele>64</ele>
        <time>2020-06-24T09:52:49.040Z</time>
      </trkpt>
      <trkpt lat="48.66944" lon="-2.31163">
        <ele>64</ele>
        <time>2020-06-24T09:52:50.040Z</time>
      </trkpt>
      <trkpt lat="48.66944" lon="-2.31162">
        <ele>63</ele>
        <time>2020-06-24T09:52:51.040Z</time>
      </trkpt>
      <trkpt lat="48.66943" lon="-2.3116">
        <ele>63</ele>
        <time>2020-06-24T09:52:52.040Z</time>
      </trkpt>
      <trkpt lat="48.66942" lon="-2.31158">
        <ele>63</ele>
        <time>2020-06-24T09:52:53.040Z</time>
      </trkpt>
      <trkpt lat="48.66942" lon="-2.31157">
        <ele>63</ele>
        <time>2020-06-24T09:52:54.040Z</time>
      </trkpt>
      <trkpt lat="48.66942" lon="-2.31155">
        <ele>62</ele>
        <time>2020-06-24T09:52:55.040Z</time>
      </trkpt>
      <trkpt lat="48.66942" lon="-2.31154">
        <ele>62</ele>
        <time>2020-06-24T09:52:56.040Z</time>
      </trkpt>
      <trkpt lat="48.66941" lon="-2.31153">
        <ele>62</ele>
        <time>2020-06-24T09:52:57.040Z</time>
      </trkpt>
      <trkpt lat="48.66941" lon="-2.31152">
        <ele>62</ele>
        <time>2020-06-24T09:52:58.040Z</time>
      </trkpt>
      <trkpt lat="48.66941" lon="-2.31151">
        <ele>62</ele>
        <time>2020-06-24T09:52:59.040Z</time>
      </trkpt>
      <trkpt lat="48.66941" lon="-2.31149">
        <ele>62</ele>
        <time>2020-06-24T09:53:00.040Z</time>
      </trkpt>
      <trkpt lat="48.66941" lon="-2.31147">
        <ele>62</ele>
        <time>2020-06-24T09:53:01.040Z</time>
      </trkpt>
      <trkpt lat="48.66941" lon="-2.31145">
        <ele>62</ele>
        <time>2020-06-24T09:53:02.040Z</time>
      </trkpt>
      <trkpt lat="48.66942" lon="-2.31143">
        <ele>62</ele>
        <time>2020-06-24T09:53:03.040Z</time>
      </trkpt>
      <trkpt lat="48.66943" lon="-2.31142">
        <ele>62</ele>
        <time>2020-06-24T09:53:04.040Z</time>
      </trkpt>
      <trkpt lat="48.66944" lon="-2.3114">
        <ele>62</ele>
        <time>2020-06-24T09:53:05.040Z</time>
      </trkpt>
      <trkpt lat="48.66946" lon="-2.31139">
        <ele>61</ele>
        <time>2020-06-24T09:53:06.040Z</time>
      </trkpt>
      <trkpt lat="48.66947" lon="-2.31138">
        <ele>61</ele>
        <time>2020-06-24T09:53:07.040Z</time>
      </trkpt>
      <trkpt lat="48.66948" lon="-2.31137">
        <ele>62</ele>
        <time>2020-06-24T09:53:08.040Z</time>
      </trkpt>
      <trkpt lat="48.66949" lon="-2.31135">
        <ele>62</ele>
        <time>2020-06-24T09:53:09.040Z</time>
      </trkpt>
      <trkpt lat="48.6695" lon="-2.31133">
        <ele>62</ele>
        <time>2020-06-24T09:53:10.040Z</time>
      </trkpt>
      <trkpt lat="48.6695" lon="-2.31132">
        <ele>62</ele>
        <time>2020-06-24T09:53:11.040Z</time>
      </trkpt>
      <trkpt lat="48.66951" lon="-2.3113">
        <ele>63</ele>
        <time>2020-06-24T09:53:12.040Z</time>
      </trkpt>
      <trkpt lat="48.66952" lon="-2.31128">
        <ele>63</ele>
        <time>2020-06-24T09:53:13.040Z</time>
      </trkpt>
      <trkpt lat="48.66953" lon="-2.31127">
        <ele>62</ele>
        <time>2020-06-24T09:53:14.040Z</time>
      </trkpt>
      <trkpt lat="48.66953" lon="-2.31126">
        <ele>62</ele>
        <time>2020-06-24T09:53:15.040Z</time>
      </trkpt>
      <trkpt lat="48.66954" lon="-2.31124">
        <ele>62</ele>
        <time>2020-06-24T09:53:16.040Z</time>
      </trkpt>
      <trkpt lat="48.66955" lon="-2.31123">
        <ele>62</ele>
        <time>2020-06-24T09:53:17.040Z</time>
      </trkpt>
      <trkpt lat="48.66956" lon="-2.31121">
        <ele>63</ele>
        <time>2020-06-24T09:53:18.040Z</time>
      </trkpt>
      <trkpt lat="48.66957" lon="-2.3112">
        <ele>63</ele>
        <time>2020-06-24T09:53:19.040Z</time>
      </trkpt>
      <trkpt lat="48.66957" lon="-2.31118">
        <ele>63</ele>
        <time>2020-06-24T09:53:20.040Z</time>
      </trkpt>
      <trkpt lat="48.66957" lon="-2.31116">
        <ele>63</ele>
        <time>2020-06-24T09:53:21.040Z</time>
      </trkpt>
      <trkpt lat="48.66957" lon="-2.31114">
        <ele>63</ele>
        <time>2020-06-24T09:53:22.040Z</time>
      </trkpt>
      <trkpt lat="48.66957" lon="-2.31113">
        <ele>64</ele>
        <time>2020-06-24T09:53:23.040Z</time>
      </trkpt>
      <trkpt lat="48.66957" lon="-2.31111">
        <ele>64</ele>
        <time>2020-06-24T09:53:24.040Z</time>
      </trkpt>
      <trkpt lat="48.66957" lon="-2.3111">
        <ele>64</ele>
        <time>2020-06-24T09:53:25.040Z</time>
      </trkpt>
      <trkpt lat="48.66957" lon="-2.31108">
        <ele>64</ele>
        <time>2020-06-24T09:53:26.040Z</time>
      </trkpt>
      <trkpt lat="48.66958" lon="-2.31106">
        <ele>64</ele>
        <time>2020-06-24T09:53:27.040Z</time>
      </trkpt>
      <trkpt lat="48.66959" lon="-2.31105">
        <ele>64</ele>
        <time>2020-06-24T09:53:28.040Z</time>
      </trkpt>
      <trkpt lat="48.66959" lon="-2.31103">
        <ele>63</ele>
        <time>2020-06-24T09:53:29.040Z</time>
      </trkpt>
      <trkpt lat="48.6696" lon="-2.31102">
        <ele>64</ele>
        <time>2020-06-24T09:53:30.040Z</time>
      </trkpt>
      <trkpt lat="48.66961" lon="-2.31101">
        <ele>64</ele>
        <time>2020-06-24T09:53:31.040Z</time>
      </trkpt>
      <trkpt lat="48.66961" lon="-2.311">
        <ele>64</ele>
        <time>2020-06-24T09:53:32.040Z</time>
      </trkpt>
      <trkpt lat="48.66961" lon="-2.311">
        <ele>64</ele>
        <time>2020-06-24T09:53:33.040Z</time>
      </trkpt>
      <trkpt lat="48.66961" lon="-2.311">
        <ele>64</ele>
        <time>2020-06-24T09:53:34.040Z</time>
      </trkpt>
      <trkpt lat="48.66961" lon="-2.311">
        <ele>64</ele>
        <time>2020-06-24T09:53:35.040Z</time>
      </trkpt>
      <trkpt lat="48.66961" lon="-2.311">
        <ele>64</ele>
        <time>2020-06-24T09:53:36.040Z</time>
      </trkpt>
      <trkpt lat="48.66961" lon="-2.31099">
        <ele>63</ele>
        <time>2020-06-24T09:53:37.040Z</time>
      </trkpt>
      <trkpt lat="48.66961" lon="-2.31099">
        <ele>63</ele>
        <time>2020-06-24T09:53:38.040Z</time>
      </trkpt>
      <trkpt lat="48.66962" lon="-2.31095">
        <ele>63</ele>
        <time>2020-06-24T09:53:39.044Z</time>
      </trkpt>
      <trkpt lat="48.66963" lon="-2.31093">
        <ele>63</ele>
        <time>2020-06-24T09:53:40.044Z</time>
      </trkpt>
      <trkpt lat="48.66963" lon="-2.31091">
        <ele>63</ele>
        <time>2020-06-24T09:53:41.044Z</time>
      </trkpt>
      <trkpt lat="48.66963" lon="-2.3109">
        <ele>63</ele>
        <time>2020-06-24T09:53:42.044Z</time>
      </trkpt>
      <trkpt lat="48.66964" lon="-2.31088">
        <ele>63</ele>
        <time>2020-06-24T09:53:43.044Z</time>
      </trkpt>
      <trkpt lat="48.66964" lon="-2.31086">
        <ele>63</ele>
        <time>2020-06-24T09:53:44.044Z</time>
      </trkpt>
      <trkpt lat="48.66964" lon="-2.31084">
        <ele>63</ele>
        <time>2020-06-24T09:53:45.044Z</time>
      </trkpt>
      <trkpt lat="48.66965" lon="-2.31082">
        <ele>64</ele>
        <time>2020-06-24T09:53:46.044Z</time>
      </trkpt>
      <trkpt lat="48.66965" lon="-2.3108">
        <ele>63</ele>
        <time>2020-06-24T09:53:47.044Z</time>
      </trkpt>
      <trkpt lat="48.66966" lon="-2.31078">
        <ele>63</ele>
        <time>2020-06-24T09:53:48.044Z</time>
      </trkpt>
      <trkpt lat="48.66966" lon="-2.31076">
        <ele>63</ele>
        <time>2020-06-24T09:53:49.044Z</time>
      </trkpt>
      <trkpt lat="48.66966" lon="-2.31074">
        <ele>63</ele>
        <time>2020-06-24T09:53:50.044Z</time>
      </trkpt>
      <trkpt lat="48.66967" lon="-2.31072">
        <ele>63</ele>
        <time>2020-06-24T09:53:51.044Z</time>
      </trkpt>
      <trkpt lat="48.66967" lon="-2.31069">
        <ele>63</ele>
        <time>2020-06-24T09:53:52.044Z</time>
      </trkpt>
      <trkpt lat="48.66967" lon="-2.31067">
        <ele>63</ele>
        <time>2020-06-24T09:53:53.044Z</time>
      </trkpt>
      <trkpt lat="48.66967" lon="-2.31066">
        <ele>62</ele>
        <time>2020-06-24T09:53:54.044Z</time>
      </trkpt>
      <trkpt lat="48.66967" lon="-2.31064">
        <ele>61</ele>
        <time>2020-06-24T09:53:55.044Z</time>
      </trkpt>
      <trkpt lat="48.66968" lon="-2.31063">
        <ele>61</ele>
        <time>2020-06-24T09:53:56.044Z</time>
      </trkpt>
      <trkpt lat="48.66969" lon="-2.31061">
        <ele>61</ele>
        <time>2020-06-24T09:53:57.044Z</time>
      </trkpt>
      <trkpt lat="48.6697" lon="-2.31059">
        <ele>61</ele>
        <time>2020-06-24T09:53:58.044Z</time>
      </trkpt>
      <trkpt lat="48.6697" lon="-2.31057">
        <ele>61</ele>
        <time>2020-06-24T09:53:59.044Z</time>
      </trkpt>
      <trkpt lat="48.6697" lon="-2.31055">
        <ele>61</ele>
        <time>2020-06-24T09:54:00.044Z</time>
      </trkpt>
      <trkpt lat="48.6697" lon="-2.31053">
        <ele>61</ele>
        <time>2020-06-24T09:54:01.044Z</time>
      </trkpt>
      <trkpt lat="48.66969" lon="-2.31051">
        <ele>61</ele>
        <time>2020-06-24T09:54:02.044Z</time>
      </trkpt>
      <trkpt lat="48.66968" lon="-2.31049">
        <ele>61</ele>
        <time>2020-06-24T09:54:03.044Z</time>
      </trkpt>
      <trkpt lat="48.66967" lon="-2.31047">
        <ele>62</ele>
        <time>2020-06-24T09:54:04.044Z</time>
      </trkpt>
      <trkpt lat="48.66967" lon="-2.31046">
        <ele>62</ele>
        <time>2020-06-24T09:54:05.044Z</time>
      </trkpt>
      <trkpt lat="48.66966" lon="-2.31044">
        <ele>61</ele>
        <time>2020-06-24T09:54:06.044Z</time>
      </trkpt>
      <trkpt lat="48.66965" lon="-2.31043">
        <ele>61</ele>
        <time>2020-06-24T09:54:07.044Z</time>
      </trkpt>
      <trkpt lat="48.66964" lon="-2.31041">
        <ele>61</ele>
        <time>2020-06-24T09:54:08.044Z</time>
      </trkpt>
      <trkpt lat="48.66964" lon="-2.3104">
        <ele>61</ele>
        <time>2020-06-24T09:54:09.044Z</time>
      </trkpt>
      <trkpt lat="48.66963" lon="-2.31038">
        <ele>61</ele>
        <time>2020-06-24T09:54:10.044Z</time>
      </trkpt>
      <trkpt lat="48.66962" lon="-2.31036">
        <ele>61</ele>
        <time>2020-06-24T09:54:11.044Z</time>
      </trkpt>
      <trkpt lat="48.66961" lon="-2.31035">
        <ele>61</ele>
        <time>2020-06-24T09:54:12.044Z</time>
      </trkpt>
      <trkpt lat="48.6696" lon="-2.31033">
        <ele>62</ele>
        <time>2020-06-24T09:54:13.044Z</time>
      </trkpt>
      <trkpt lat="48.66959" lon="-2.31031">
        <ele>62</ele>
        <time>2020-06-24T09:54:14.044Z</time>
      </trkpt>
      <trkpt lat="48.66959" lon="-2.31029">
        <ele>62</ele>
        <time>2020-06-24T09:54:15.044Z</time>
      </trkpt>
      <trkpt lat="48.66958" lon="-2.31028">
        <ele>62</ele>
        <time>2020-06-24T09:54:16.044Z</time>
      </trkpt>
      <trkpt lat="48.66957" lon="-2.31026">
        <ele>62</ele>
        <time>2020-06-24T09:54:17.044Z</time>
      </trkpt>
      <trkpt lat="48.66955" lon="-2.31025">
        <ele>62</ele>
        <time>2020-06-24T09:54:18.044Z</time>
      </trkpt>
      <trkpt lat="48.66954" lon="-2.31023">
        <ele>62</ele>
        <time>2020-06-24T09:54:19.044Z</time>
      </trkpt>
      <trkpt lat="48.66953" lon="-2.31022">
        <ele>62</ele>
        <time>2020-06-24T09:54:20.044Z</time>
      </trkpt>
      <trkpt lat="48.66952" lon="-2.3102">
        <ele>62</ele>
        <time>2020-06-24T09:54:21.044Z</time>
      </trkpt>
      <trkpt lat="48.66951" lon="-2.31019">
        <ele>62</ele>
        <time>2020-06-24T09:54:22.044Z</time>
      </trkpt>
      <trkpt lat="48.6695" lon="-2.31018">
        <ele>62</ele>
        <time>2020-06-24T09:54:23.044Z</time>
      </trkpt>
      <trkpt lat="48.66949" lon="-2.31017">
        <ele>62</ele>
        <time>2020-06-24T09:54:24.044Z</time>
      </trkpt>
      <trkpt lat="48.66948" lon="-2.31016">
        <ele>62</ele>
        <time>2020-06-24T09:54:25.044Z</time>
      </trkpt>
      <trkpt lat="48.66947" lon="-2.31014">
        <ele>62</ele>
        <time>2020-06-24T09:54:26.044Z</time>
      </trkpt>
      <trkpt lat="48.66946" lon="-2.31013">
        <ele>62</ele>
        <time>2020-06-24T09:54:27.044Z</time>
      </trkpt>
      <trkpt lat="48.66945" lon="-2.31011">
        <ele>61</ele>
        <time>2020-06-24T09:54:28.044Z</time>
      </trkpt>
      <trkpt lat="48.66944" lon="-2.3101">
        <ele>61</ele>
        <time>2020-06-24T09:54:29.044Z</time>
      </trkpt>
      <trkpt lat="48.66944" lon="-2.31008">
        <ele>61</ele>
        <time>2020-06-24T09:54:30.044Z</time>
      </trkpt>
      <trkpt lat="48.66943" lon="-2.31006">
        <ele>61</ele>
        <time>2020-06-24T09:54:31.044Z</time>
      </trkpt>
      <trkpt lat="48.66942" lon="-2.31004">
        <ele>61</ele>
        <time>2020-06-24T09:54:32.044Z</time>
      </trkpt>
      <trkpt lat="48.66941" lon="-2.31003">
        <ele>61</ele>
        <time>2020-06-24T09:54:33.044Z</time>
      </trkpt>
      <trkpt lat="48.6694" lon="-2.31001">
        <ele>61</ele>
        <time>2020-06-24T09:54:34.044Z</time>
      </trkpt>
      <trkpt lat="48.66939" lon="-2.30999">
        <ele>61</ele>
        <time>2020-06-24T09:54:35.044Z</time>
      </trkpt>
      <trkpt lat="48.66938" lon="-2.30997">
        <ele>61</ele>
        <time>2020-06-24T09:54:36.044Z</time>
      </trkpt>
      <trkpt lat="48.66937" lon="-2.30996">
        <ele>61</ele>
        <time>2020-06-24T09:54:37.044Z</time>
      </trkpt>
      <trkpt lat="48.66936" lon="-2.30994">
        <ele>61</ele>
        <time>2020-06-24T09:54:38.044Z</time>
      </trkpt>
      <trkpt lat="48.66936" lon="-2.30993">
        <ele>60</ele>
        <time>2020-06-24T09:54:39.044Z</time>
      </trkpt>
      <trkpt lat="48.66935" lon="-2.30991">
        <ele>60</ele>
        <time>2020-06-24T09:54:40.044Z</time>
      </trkpt>
      <trkpt lat="48.66934" lon="-2.30989">
        <ele>60</ele>
        <time>2020-06-24T09:54:41.044Z</time>
      </trkpt>
      <trkpt lat="48.66933" lon="-2.30987">
        <ele>60</ele>
        <time>2020-06-24T09:54:42.044Z</time>
      </trkpt>
      <trkpt lat="48.66933" lon="-2.30985">
        <ele>60</ele>
        <time>2020-06-24T09:54:43.044Z</time>
      </trkpt>
      <trkpt lat="48.66932" lon="-2.30983">
        <ele>59</ele>
        <time>2020-06-24T09:54:44.044Z</time>
      </trkpt>
      <trkpt lat="48.66932" lon="-2.30981">
        <ele>59</ele>
        <time>2020-06-24T09:54:45.044Z</time>
      </trkpt>
      <trkpt lat="48.66932" lon="-2.3098">
        <ele>60</ele>
        <time>2020-06-24T09:54:46.044Z</time>
      </trkpt>
      <trkpt lat="48.66931" lon="-2.30978">
        <ele>60</ele>
        <time>2020-06-24T09:54:47.044Z</time>
      </trkpt>
      <trkpt lat="48.66931" lon="-2.30976">
        <ele>60</ele>
        <time>2020-06-24T09:54:48.044Z</time>
      </trkpt>
      <trkpt lat="48.66931" lon="-2.30974">
        <ele>60</ele>
        <time>2020-06-24T09:54:49.044Z</time>
      </trkpt>
      <trkpt lat="48.66931" lon="-2.30972">
        <ele>60</ele>
        <time>2020-06-24T09:54:50.044Z</time>
      </trkpt>
      <trkpt lat="48.6693" lon="-2.3097">
        <ele>60</ele>
        <time>2020-06-24T09:54:51.044Z</time>
      </trkpt>
      <trkpt lat="48.6693" lon="-2.30968">
        <ele>60</ele>
        <time>2020-06-24T09:54:52.044Z</time>
      </trkpt>
      <trkpt lat="48.66929" lon="-2.30966">
        <ele>60</ele>
        <time>2020-06-24T09:54:53.044Z</time>
      </trkpt>
      <trkpt lat="48.66929" lon="-2.30964">
        <ele>60</ele>
        <time>2020-06-24T09:54:54.044Z</time>
      </trkpt>
      <trkpt lat="48.66929" lon="-2.30962">
        <ele>60</ele>
        <time>2020-06-24T09:54:55.044Z</time>
      </trkpt>
      <trkpt lat="48.66928" lon="-2.3096">
        <ele>60</ele>
        <time>2020-06-24T09:54:56.044Z</time>
      </trkpt>
      <trkpt lat="48.66928" lon="-2.30958">
        <ele>60</ele>
        <time>2020-06-24T09:54:57.044Z</time>
      </trkpt>
      <trkpt lat="48.66927" lon="-2.30956">
        <ele>60</ele>
        <time>2020-06-24T09:54:58.044Z</time>
      </trkpt>
      <trkpt lat="48.66926" lon="-2.30955">
        <ele>61</ele>
        <time>2020-06-24T09:54:59.044Z</time>
      </trkpt>
      <trkpt lat="48.66926" lon="-2.30953">
        <ele>61</ele>
        <time>2020-06-24T09:55:00.044Z</time>
      </trkpt>
      <trkpt lat="48.66925" lon="-2.30952">
        <ele>61</ele>
        <time>2020-06-24T09:55:01.044Z</time>
      </trkpt>
      <trkpt lat="48.66924" lon="-2.30951">
        <ele>61</ele>
        <time>2020-06-24T09:55:02.044Z</time>
      </trkpt>
      <trkpt lat="48.66924" lon="-2.30949">
        <ele>61</ele>
        <time>2020-06-24T09:55:03.044Z</time>
      </trkpt>
      <trkpt lat="48.66923" lon="-2.30948">
        <ele>61</ele>
        <time>2020-06-24T09:55:04.044Z</time>
      </trkpt>
      <trkpt lat="48.66923" lon="-2.30948">
        <ele>61</ele>
        <time>2020-06-24T09:55:05.044Z</time>
      </trkpt>
      <trkpt lat="48.66923" lon="-2.30948">
        <ele>61</ele>
        <time>2020-06-24T09:55:06.044Z</time>
      </trkpt>
      <trkpt lat="48.66923" lon="-2.30948">
        <ele>61</ele>
        <time>2020-06-24T09:55:07.044Z</time>
      </trkpt>
      <trkpt lat="48.66923" lon="-2.30948">
        <ele>62</ele>
        <time>2020-06-24T09:55:08.044Z</time>
      </trkpt>
      <trkpt lat="48.66923" lon="-2.30948">
        <ele>62</ele>
        <time>2020-06-24T09:55:09.044Z</time>
      </trkpt>
      <trkpt lat="48.66923" lon="-2.30948">
        <ele>62</ele>
        <time>2020-06-24T09:55:10.044Z</time>
      </trkpt>
      <trkpt lat="48.66921" lon="-2.30943">
        <ele>61</ele>
        <time>2020-06-24T09:55:11.048Z</time>
      </trkpt>
      <trkpt lat="48.6692" lon="-2.30941">
        <ele>60</ele>
        <time>2020-06-24T09:55:12.048Z</time>
      </trkpt>
      <trkpt lat="48.66919" lon="-2.30939">
        <ele>61</ele>
        <time>2020-06-24T09:55:13.048Z</time>
      </trkpt>
      <trkpt lat="48.66918" lon="-2.30938">
        <ele>61</ele>
        <time>2020-06-24T09:55:14.048Z</time>
      </trkpt>
      <trkpt lat="48.66918" lon="-2.30936">
        <ele>61</ele>
        <time>2020-06-24T09:55:15.048Z</time>
      </trkpt>
      <trkpt lat="48.66917" lon="-2.30935">
        <ele>61</ele>
        <time>2020-06-24T09:55:16.048Z</time>
      </trkpt>
      <trkpt lat="48.66917" lon="-2.30933">
        <ele>61</ele>
        <time>2020-06-24T09:55:17.048Z</time>
      </trkpt>
      <trkpt lat="48.66916" lon="-2.30932">
        <ele>61</ele>
        <time>2020-06-24T09:55:18.048Z</time>
      </trkpt>
      <trkpt lat="48.66915" lon="-2.30931">
        <ele>62</ele>
        <time>2020-06-24T09:55:19.048Z</time>
      </trkpt>
      <trkpt lat="48.66914" lon="-2.30929">
        <ele>62</ele>
        <time>2020-06-24T09:55:20.048Z</time>
      </trkpt>
      <trkpt lat="48.66913" lon="-2.30928">
        <ele>62</ele>
        <time>2020-06-24T09:55:21.048Z</time>
      </trkpt>
      <trkpt lat="48.66912" lon="-2.30926">
        <ele>62</ele>
        <time>2020-06-24T09:55:22.048Z</time>
      </trkpt>
      <trkpt lat="48.66911" lon="-2.30925">
        <ele>62</ele>
        <time>2020-06-24T09:55:23.048Z</time>
      </trkpt>
      <trkpt lat="48.6691" lon="-2.30924">
        <ele>63</ele>
        <time>2020-06-24T09:55:24.048Z</time>
      </trkpt>
      <trkpt lat="48.66909" lon="-2.30923">
        <ele>63</ele>
        <time>2020-06-24T09:55:25.048Z</time>
      </trkpt>
      <trkpt lat="48.66908" lon="-2.30921">
        <ele>63</ele>
        <time>2020-06-24T09:55:26.048Z</time>
      </trkpt>
      <trkpt lat="48.66908" lon="-2.3092">
        <ele>63</ele>
        <time>2020-06-24T09:55:27.048Z</time>
      </trkpt>
      <trkpt lat="48.66907" lon="-2.30918">
        <ele>63</ele>
        <time>2020-06-24T09:55:28.048Z</time>
      </trkpt>
      <trkpt lat="48.66906" lon="-2.30917">
        <ele>63</ele>
        <time>2020-06-24T09:55:29.048Z</time>
      </trkpt>
      <trkpt lat="48.66906" lon="-2.30916">
        <ele>63</ele>
        <time>2020-06-24T09:55:30.048Z</time>
      </trkpt>
      <trkpt lat="48.66905" lon="-2.30914">
        <ele>63</ele>
        <time>2020-06-24T09:55:31.048Z</time>
      </trkpt>
      <trkpt lat="48.66904" lon="-2.30913">
        <ele>63</ele>
        <time>2020-06-24T09:55:32.048Z</time>
      </trkpt>
      <trkpt lat="48.66903" lon="-2.30912">
        <ele>63</ele>
        <time>2020-06-24T09:55:33.048Z</time>
      </trkpt>
      <trkpt lat="48.66902" lon="-2.3091">
        <ele>63</ele>
        <time>2020-06-24T09:55:34.048Z</time>
      </trkpt>
      <trkpt lat="48.66901" lon="-2.30909">
        <ele>64</ele>
        <time>2020-06-24T09:55:35.048Z</time>
      </trkpt>
      <trkpt lat="48.669" lon="-2.30908">
        <ele>64</ele>
        <time>2020-06-24T09:55:36.048Z</time>
      </trkpt>
      <trkpt lat="48.669" lon="-2.30906">
        <ele>64</ele>
        <time>2020-06-24T09:55:37.048Z</time>
      </trkpt>
      <trkpt lat="48.66899" lon="-2.30904">
        <ele>64</ele>
        <time>2020-06-24T09:55:38.048Z</time>
      </trkpt>
      <trkpt lat="48.66899" lon="-2.30903">
        <ele>64</ele>
        <time>2020-06-24T09:55:39.048Z</time>
      </trkpt>
      <trkpt lat="48.66898" lon="-2.30901">
        <ele>64</ele>
        <time>2020-06-24T09:55:40.048Z</time>
      </trkpt>
      <trkpt lat="48.66897" lon="-2.30899">
        <ele>65</ele>
        <time>2020-06-24T09:55:41.048Z</time>
      </trkpt>
      <trkpt lat="48.66897" lon="-2.30898">
        <ele>65</ele>
        <time>2020-06-24T09:55:42.048Z</time>
      </trkpt>
      <trkpt lat="48.66897" lon="-2.30896">
        <ele>65</ele>
        <time>2020-06-24T09:55:43.048Z</time>
      </trkpt>
      <trkpt lat="48.66897" lon="-2.30895">
        <ele>65</ele>
        <time>2020-06-24T09:55:44.048Z</time>
      </trkpt>
      <trkpt lat="48.66897" lon="-2.30893">
        <ele>65</ele>
        <time>2020-06-24T09:55:45.048Z</time>
      </trkpt>
      <trkpt lat="48.66897" lon="-2.30891">
        <ele>65</ele>
        <time>2020-06-24T09:55:46.048Z</time>
      </trkpt>
      <trkpt lat="48.66896" lon="-2.3089">
        <ele>65</ele>
        <time>2020-06-24T09:55:47.048Z</time>
      </trkpt>
      <trkpt lat="48.66896" lon="-2.30888">
        <ele>65</ele>
        <time>2020-06-24T09:55:48.048Z</time>
      </trkpt>
      <trkpt lat="48.66896" lon="-2.30886">
        <ele>65</ele>
        <time>2020-06-24T09:55:49.048Z</time>
      </trkpt>
      <trkpt lat="48.66896" lon="-2.30885">
        <ele>65</ele>
        <time>2020-06-24T09:55:50.048Z</time>
      </trkpt>
      <trkpt lat="48.66896" lon="-2.30883">
        <ele>66</ele>
        <time>2020-06-24T09:55:51.048Z</time>
      </trkpt>
      <trkpt lat="48.66895" lon="-2.30882">
        <ele>66</ele>
        <time>2020-06-24T09:55:52.048Z</time>
      </trkpt>
      <trkpt lat="48.66895" lon="-2.3088">
        <ele>66</ele>
        <time>2020-06-24T09:55:53.048Z</time>
      </trkpt>
      <trkpt lat="48.66895" lon="-2.30878">
        <ele>66</ele>
        <time>2020-06-24T09:55:54.048Z</time>
      </trkpt>
      <trkpt lat="48.66894" lon="-2.30876">
        <ele>66</ele>
        <time>2020-06-24T09:55:55.048Z</time>
      </trkpt>
      <trkpt lat="48.66894" lon="-2.30874">
        <ele>66</ele>
        <time>2020-06-24T09:55:56.048Z</time>
      </trkpt>
      <trkpt lat="48.66894" lon="-2.30872">
        <ele>66</ele>
        <time>2020-06-24T09:55:57.048Z</time>
      </trkpt>
      <trkpt lat="48.66894" lon="-2.3087">
        <ele>66</ele>
        <time>2020-06-24T09:55:58.048Z</time>
      </trkpt>
      <trkpt lat="48.66893" lon="-2.30868">
        <ele>66</ele>
        <time>2020-06-24T09:55:59.048Z</time>
      </trkpt>
      <trkpt lat="48.66893" lon="-2.30866">
        <ele>66</ele>
        <time>2020-06-24T09:56:00.048Z</time>
      </trkpt>
      <trkpt lat="48.66893" lon="-2.30864">
        <ele>66</ele>
        <time>2020-06-24T09:56:01.048Z</time>
      </trkpt>
      <trkpt lat="48.66892" lon="-2.30863">
        <ele>66</ele>
        <time>2020-06-24T09:56:02.048Z</time>
      </trkpt>
      <trkpt lat="48.66892" lon="-2.30861">
        <ele>66</ele>
        <time>2020-06-24T09:56:03.048Z</time>
      </trkpt>
      <trkpt lat="48.66892" lon="-2.3086">
        <ele>67</ele>
        <time>2020-06-24T09:56:04.048Z</time>
      </trkpt>
      <trkpt lat="48.66892" lon="-2.30858">
        <ele>67</ele>
        <time>2020-06-24T09:56:05.048Z</time>
      </trkpt>
      <trkpt lat="48.66892" lon="-2.30856">
        <ele>67</ele>
        <time>2020-06-24T09:56:06.048Z</time>
      </trkpt>
      <trkpt lat="48.66891" lon="-2.30854">
        <ele>67</ele>
        <time>2020-06-24T09:56:07.048Z</time>
      </trkpt>
      <trkpt lat="48.66891" lon="-2.30852">
        <ele>67</ele>
        <time>2020-06-24T09:56:08.048Z</time>
      </trkpt>
      <trkpt lat="48.6689" lon="-2.3085">
        <ele>67</ele>
        <time>2020-06-24T09:56:09.048Z</time>
      </trkpt>
      <trkpt lat="48.66889" lon="-2.30848">
        <ele>67</ele>
        <time>2020-06-24T09:56:10.048Z</time>
      </trkpt>
      <trkpt lat="48.66888" lon="-2.30847">
        <ele>67</ele>
        <time>2020-06-24T09:56:11.048Z</time>
      </trkpt>
      <trkpt lat="48.66887" lon="-2.30845">
        <ele>67</ele>
        <time>2020-06-24T09:56:12.048Z</time>
      </trkpt>
      <trkpt lat="48.66887" lon="-2.30844">
        <ele>66</ele>
        <time>2020-06-24T09:56:13.048Z</time>
      </trkpt>
      <trkpt lat="48.66886" lon="-2.30842">
        <ele>66</ele>
        <time>2020-06-24T09:56:14.048Z</time>
      </trkpt>
      <trkpt lat="48.66886" lon="-2.3084">
        <ele>66</ele>
        <time>2020-06-24T09:56:15.048Z</time>
      </trkpt>
      <trkpt lat="48.66886" lon="-2.30838">
        <ele>66</ele>
        <time>2020-06-24T09:56:16.048Z</time>
      </trkpt>
      <trkpt lat="48.66885" lon="-2.30836">
        <ele>66</ele>
        <time>2020-06-24T09:56:17.048Z</time>
      </trkpt>
      <trkpt lat="48.66885" lon="-2.30834">
        <ele>66</ele>
        <time>2020-06-24T09:56:18.048Z</time>
      </trkpt>
      <trkpt lat="48.66885" lon="-2.30832">
        <ele>66</ele>
        <time>2020-06-24T09:56:19.048Z</time>
      </trkpt>
      <trkpt lat="48.66884" lon="-2.3083">
        <ele>66</ele>
        <time>2020-06-24T09:56:20.048Z</time>
      </trkpt>
      <trkpt lat="48.66884" lon="-2.30828">
        <ele>67</ele>
        <time>2020-06-24T09:56:21.048Z</time>
      </trkpt>
      <trkpt lat="48.66883" lon="-2.30826">
        <ele>67</ele>
        <time>2020-06-24T09:56:22.048Z</time>
      </trkpt>
      <trkpt lat="48.66882" lon="-2.30824">
        <ele>67</ele>
        <time>2020-06-24T09:56:23.048Z</time>
      </trkpt>
      <trkpt lat="48.66881" lon="-2.30822">
        <ele>67</ele>
        <time>2020-06-24T09:56:24.048Z</time>
      </trkpt>
      <trkpt lat="48.66881" lon="-2.3082">
        <ele>67</ele>
        <time>2020-06-24T09:56:25.048Z</time>
      </trkpt>
      <trkpt lat="48.6688" lon="-2.30819">
        <ele>67</ele>
        <time>2020-06-24T09:56:26.048Z</time>
      </trkpt>
      <trkpt lat="48.66879" lon="-2.30817">
        <ele>67</ele>
        <time>2020-06-24T09:56:27.048Z</time>
      </trkpt>
      <trkpt lat="48.66879" lon="-2.30815">
        <ele>67</ele>
        <time>2020-06-24T09:56:28.048Z</time>
      </trkpt>
      <trkpt lat="48.66878" lon="-2.30814">
        <ele>68</ele>
        <time>2020-06-24T09:56:29.048Z</time>
      </trkpt>
      <trkpt lat="48.66877" lon="-2.30812">
        <ele>68</ele>
        <time>2020-06-24T09:56:30.048Z</time>
      </trkpt>
      <trkpt lat="48.66876" lon="-2.30811">
        <ele>68</ele>
        <time>2020-06-24T09:56:31.048Z</time>
      </trkpt>
      <trkpt lat="48.66876" lon="-2.30809">
        <ele>68</ele>
        <time>2020-06-24T09:56:32.048Z</time>
      </trkpt>
      <trkpt lat="48.66875" lon="-2.30807">
        <ele>68</ele>
        <time>2020-06-24T09:56:33.048Z</time>
      </trkpt>
      <trkpt lat="48.66874" lon="-2.30806">
        <ele>69</ele>
        <time>2020-06-24T09:56:34.048Z</time>
      </trkpt>
      <trkpt lat="48.66874" lon="-2.30804">
        <ele>69</ele>
        <time>2020-06-24T09:56:35.048Z</time>
      </trkpt>
      <trkpt lat="48.66873" lon="-2.30802">
        <ele>69</ele>
        <time>2020-06-24T09:56:36.048Z</time>
      </trkpt>
      <trkpt lat="48.66873" lon="-2.308">
        <ele>69</ele>
        <time>2020-06-24T09:56:37.048Z</time>
      </trkpt>
      <trkpt lat="48.66872" lon="-2.30798">
        <ele>69</ele>
        <time>2020-06-24T09:56:38.048Z</time>
      </trkpt>
      <trkpt lat="48.66872" lon="-2.30797">
        <ele>69</ele>
        <time>2020-06-24T09:56:39.048Z</time>
      </trkpt>
      <trkpt lat="48.66871" lon="-2.30795">
        <ele>70</ele>
        <time>2020-06-24T09:56:40.048Z</time>
      </trkpt>
      <trkpt lat="48.6687" lon="-2.30794">
        <ele>70</ele>
        <time>2020-06-24T09:56:41.048Z</time>
      </trkpt>
      <trkpt lat="48.66869" lon="-2.30792">
        <ele>70</ele>
        <time>2020-06-24T09:56:42.048Z</time>
      </trkpt>
      <trkpt lat="48.66869" lon="-2.30791">
        <ele>70</ele>
        <time>2020-06-24T09:56:43.048Z</time>
      </trkpt>
      <trkpt lat="48.66868" lon="-2.30789">
        <ele>70</ele>
        <time>2020-06-24T09:56:44.048Z</time>
      </trkpt>
      <trkpt lat="48.66868" lon="-2.30787">
        <ele>70</ele>
        <time>2020-06-24T09:56:45.048Z</time>
      </trkpt>
      <trkpt lat="48.66867" lon="-2.30786">
        <ele>70</ele>
        <time>2020-06-24T09:56:46.048Z</time>
      </trkpt>
      <trkpt lat="48.66866" lon="-2.30784">
        <ele>70</ele>
        <time>2020-06-24T09:56:47.048Z</time>
      </trkpt>
      <trkpt lat="48.66866" lon="-2.30782">
        <ele>70</ele>
        <time>2020-06-24T09:56:48.048Z</time>
      </trkpt>
      <trkpt lat="48.66865" lon="-2.30781">
        <ele>71</ele>
        <time>2020-06-24T09:56:49.048Z</time>
      </trkpt>
      <trkpt lat="48.66864" lon="-2.30779">
        <ele>71</ele>
        <time>2020-06-24T09:56:50.048Z</time>
      </trkpt>
      <trkpt lat="48.66864" lon="-2.30778">
        <ele>71</ele>
        <time>2020-06-24T09:56:51.048Z</time>
      </trkpt>
      <trkpt lat="48.66863" lon="-2.30776">
        <ele>71</ele>
        <time>2020-06-24T09:56:52.048Z</time>
      </trkpt>
      <trkpt lat="48.66863" lon="-2.30774">
        <ele>71</ele>
        <time>2020-06-24T09:56:53.048Z</time>
      </trkpt>
      <trkpt lat="48.66862" lon="-2.30773">
        <ele>71</ele>
        <time>2020-06-24T09:56:54.048Z</time>
      </trkpt>
      <trkpt lat="48.66862" lon="-2.30771">
        <ele>71</ele>
        <time>2020-06-24T09:56:55.048Z</time>
      </trkpt>
      <trkpt lat="48.66862" lon="-2.30769">
        <ele>71</ele>
        <time>2020-06-24T09:56:56.048Z</time>
      </trkpt>
      <trkpt lat="48.66862" lon="-2.30767">
        <ele>71</ele>
        <time>2020-06-24T09:56:57.048Z</time>
      </trkpt>
      <trkpt lat="48.66861" lon="-2.30765">
        <ele>71</ele>
        <time>2020-06-24T09:56:58.048Z</time>
      </trkpt>
      <trkpt lat="48.66861" lon="-2.30763">
        <ele>71</ele>
        <time>2020-06-24T09:56:59.048Z</time>
      </trkpt>
      <trkpt lat="48.6686" lon="-2.30761">
        <ele>71</ele>
        <time>2020-06-24T09:57:00.048Z</time>
      </trkpt>
      <trkpt lat="48.6686" lon="-2.30759">
        <ele>71</ele>
        <time>2020-06-24T09:57:01.048Z</time>
      </trkpt>
      <trkpt lat="48.66859" lon="-2.30758">
        <ele>71</ele>
        <time>2020-06-24T09:57:02.048Z</time>
      </trkpt>
      <trkpt lat="48.66858" lon="-2.30756">
        <ele>71</ele>
        <time>2020-06-24T09:57:03.048Z</time>
      </trkpt>
      <trkpt lat="48.66857" lon="-2.30755">
        <ele>71</ele>
        <time>2020-06-24T09:57:04.048Z</time>
      </trkpt>
      <trkpt lat="48.66856" lon="-2.30753">
        <ele>70</ele>
        <time>2020-06-24T09:57:05.048Z</time>
      </trkpt>
      <trkpt lat="48.66855" lon="-2.30752">
        <ele>70</ele>
        <time>2020-06-24T09:57:06.048Z</time>
      </trkpt>
      <trkpt lat="48.66855" lon="-2.3075">
        <ele>70</ele>
        <time>2020-06-24T09:57:07.048Z</time>
      </trkpt>
      <trkpt lat="48.66854" lon="-2.30748">
        <ele>70</ele>
        <time>2020-06-24T09:57:08.048Z</time>
      </trkpt>
      <trkpt lat="48.66853" lon="-2.30747">
        <ele>70</ele>
        <time>2020-06-24T09:57:09.048Z</time>
      </trkpt>
      <trkpt lat="48.66852" lon="-2.30745">
        <ele>70</ele>
        <time>2020-06-24T09:57:10.048Z</time>
      </trkpt>
      <trkpt lat="48.66851" lon="-2.30743">
        <ele>70</ele>
        <time>2020-06-24T09:57:11.048Z</time>
      </trkpt>
      <trkpt lat="48.66851" lon="-2.30741">
        <ele>70</ele>
        <time>2020-06-24T09:57:12.048Z</time>
      </trkpt>
      <trkpt lat="48.6685" lon="-2.30739">
        <ele>70</ele>
        <time>2020-06-24T09:57:13.048Z</time>
      </trkpt>
      <trkpt lat="48.66849" lon="-2.30737">
        <ele>69</ele>
        <time>2020-06-24T09:57:14.048Z</time>
      </trkpt>
      <trkpt lat="48.66849" lon="-2.30735">
        <ele>69</ele>
        <time>2020-06-24T09:57:15.048Z</time>
      </trkpt>
      <trkpt lat="48.66848" lon="-2.30733">
        <ele>69</ele>
        <time>2020-06-24T09:57:16.048Z</time>
      </trkpt>
      <trkpt lat="48.66847" lon="-2.30731">
        <ele>69</ele>
        <time>2020-06-24T09:57:17.048Z</time>
      </trkpt>
      <trkpt lat="48.66847" lon="-2.30729">
        <ele>69</ele>
        <time>2020-06-24T09:57:18.048Z</time>
      </trkpt>
      <trkpt lat="48.66847" lon="-2.30727">
        <ele>69</ele>
        <time>2020-06-24T09:57:19.048Z</time>
      </trkpt>
      <trkpt lat="48.66846" lon="-2.30725">
        <ele>69</ele>
        <time>2020-06-24T09:57:20.048Z</time>
      </trkpt>
      <trkpt lat="48.66846" lon="-2.30723">
        <ele>69</ele>
        <time>2020-06-24T09:57:21.048Z</time>
      </trkpt>
      <trkpt lat="48.66845" lon="-2.30721">
        <ele>69</ele>
        <time>2020-06-24T09:57:22.048Z</time>
      </trkpt>
      <trkpt lat="48.66845" lon="-2.30719">
        <ele>69</ele>
        <time>2020-06-24T09:57:23.048Z</time>
      </trkpt>
      <trkpt lat="48.66845" lon="-2.30717">
        <ele>69</ele>
        <time>2020-06-24T09:57:24.048Z</time>
      </trkpt>
      <trkpt lat="48.66845" lon="-2.30715">
        <ele>69</ele>
        <time>2020-06-24T09:57:25.048Z</time>
      </trkpt>
      <trkpt lat="48.66845" lon="-2.30713">
        <ele>69</ele>
        <time>2020-06-24T09:57:26.048Z</time>
      </trkpt>
      <trkpt lat="48.66845" lon="-2.30711">
        <ele>69</ele>
        <time>2020-06-24T09:57:27.048Z</time>
      </trkpt>
      <trkpt lat="48.66845" lon="-2.30709">
        <ele>69</ele>
        <time>2020-06-24T09:57:28.048Z</time>
      </trkpt>
      <trkpt lat="48.66845" lon="-2.30707">
        <ele>69</ele>
        <time>2020-06-24T09:57:29.048Z</time>
      </trkpt>
      <trkpt lat="48.66845" lon="-2.30705">
        <ele>69</ele>
        <time>2020-06-24T09:57:30.048Z</time>
      </trkpt>
      <trkpt lat="48.66845" lon="-2.30703">
        <ele>69</ele>
        <time>2020-06-24T09:57:31.048Z</time>
      </trkpt>
      <trkpt lat="48.66845" lon="-2.30701">
        <ele>68</ele>
        <time>2020-06-24T09:57:32.048Z</time>
      </trkpt>
      <trkpt lat="48.66846" lon="-2.30699">
        <ele>68</ele>
        <time>2020-06-24T09:57:33.048Z</time>
      </trkpt>
      <trkpt lat="48.66846" lon="-2.30697">
        <ele>68</ele>
        <time>2020-06-24T09:57:34.048Z</time>
      </trkpt>
      <trkpt lat="48.66846" lon="-2.30696">
        <ele>68</ele>
        <time>2020-06-24T09:57:35.048Z</time>
      </trkpt>
      <trkpt lat="48.66846" lon="-2.30694">
        <ele>67</ele>
        <time>2020-06-24T09:57:36.048Z</time>
      </trkpt>
      <trkpt lat="48.66846" lon="-2.30692">
        <ele>67</ele>
        <time>2020-06-24T09:57:37.048Z</time>
      </trkpt>
      <trkpt lat="48.66846" lon="-2.3069">
        <ele>67</ele>
        <time>2020-06-24T09:57:38.048Z</time>
      </trkpt>
      <trkpt lat="48.66846" lon="-2.30688">
        <ele>68</ele>
        <time>2020-06-24T09:57:39.048Z</time>
      </trkpt>
      <trkpt lat="48.66846" lon="-2.30686">
        <ele>68</ele>
        <time>2020-06-24T09:57:40.048Z</time>
      </trkpt>
      <trkpt lat="48.66846" lon="-2.30684">
        <ele>69</ele>
        <time>2020-06-24T09:57:41.048Z</time>
      </trkpt>
      <trkpt lat="48.66846" lon="-2.30681">
        <ele>69</ele>
        <time>2020-06-24T09:57:42.048Z</time>
      </trkpt>
      <trkpt lat="48.66845" lon="-2.30679">
        <ele>69</ele>
        <time>2020-06-24T09:57:43.048Z</time>
      </trkpt>
      <trkpt lat="48.66845" lon="-2.30677">
        <ele>69</ele>
        <time>2020-06-24T09:57:44.048Z</time>
      </trkpt>
      <trkpt lat="48.66845" lon="-2.30675">
        <ele>69</ele>
        <time>2020-06-24T09:57:45.048Z</time>
      </trkpt>
      <trkpt lat="48.66845" lon="-2.30673">
        <ele>70</ele>
        <time>2020-06-24T09:57:46.048Z</time>
      </trkpt>
      <trkpt lat="48.66845" lon="-2.30671">
        <ele>70</ele>
        <time>2020-06-24T09:57:47.048Z</time>
      </trkpt>
      <trkpt lat="48.66845" lon="-2.30669">
        <ele>70</ele>
        <time>2020-06-24T09:57:48.048Z</time>
      </trkpt>
      <trkpt lat="48.66844" lon="-2.30668">
        <ele>70</ele>
        <time>2020-06-24T09:57:49.048Z</time>
      </trkpt>
      <trkpt lat="48.66844" lon="-2.30666">
        <ele>70</ele>
        <time>2020-06-24T09:57:50.048Z</time>
      </trkpt>
      <trkpt lat="48.66844" lon="-2.30663">
        <ele>70</ele>
        <time>2020-06-24T09:57:51.048Z</time>
      </trkpt>
      <trkpt lat="48.66844" lon="-2.30661">
        <ele>70</ele>
        <time>2020-06-24T09:57:52.048Z</time>
      </trkpt>
      <trkpt lat="48.66844" lon="-2.30659">
        <ele>70</ele>
        <time>2020-06-24T09:57:53.048Z</time>
      </trkpt>
      <trkpt lat="48.66844" lon="-2.30657">
        <ele>70</ele>
        <time>2020-06-24T09:57:54.048Z</time>
      </trkpt>
      <trkpt lat="48.66844" lon="-2.30655">
        <ele>70</ele>
        <time>2020-06-24T09:57:55.048Z</time>
      </trkpt>
      <trkpt lat="48.66843" lon="-2.30653">
        <ele>70</ele>
        <time>2020-06-24T09:57:56.048Z</time>
      </trkpt>
      <trkpt lat="48.66842" lon="-2.30652">
        <ele>70</ele>
        <time>2020-06-24T09:57:57.048Z</time>
      </trkpt>
      <trkpt lat="48.66841" lon="-2.3065">
        <ele>70</ele>
        <time>2020-06-24T09:57:58.048Z</time>
      </trkpt>
      <trkpt lat="48.66841" lon="-2.30648">
        <ele>69</ele>
        <time>2020-06-24T09:57:59.048Z</time>
      </trkpt>
      <trkpt lat="48.6684" lon="-2.30647">
        <ele>69</ele>
        <time>2020-06-24T09:58:00.048Z</time>
      </trkpt>
      <trkpt lat="48.66839" lon="-2.30645">
        <ele>69</ele>
        <time>2020-06-24T09:58:01.048Z</time>
      </trkpt>
      <trkpt lat="48.66838" lon="-2.30643">
        <ele>69</ele>
        <time>2020-06-24T09:58:02.048Z</time>
      </trkpt>
      <trkpt lat="48.66838" lon="-2.30641">
        <ele>69</ele>
        <time>2020-06-24T09:58:03.048Z</time>
      </trkpt>
      <trkpt lat="48.66836" lon="-2.3064">
        <ele>69</ele>
        <time>2020-06-24T09:58:04.048Z</time>
      </trkpt>
      <trkpt lat="48.66835" lon="-2.30638">
        <ele>69</ele>
        <time>2020-06-24T09:58:05.048Z</time>
      </trkpt>
      <trkpt lat="48.66834" lon="-2.30638">
        <ele>69</ele>
        <time>2020-06-24T09:58:06.048Z</time>
      </trkpt>
      <trkpt lat="48.66832" lon="-2.30637">
        <ele>69</ele>
        <time>2020-06-24T09:58:07.048Z</time>
      </trkpt>
      <trkpt lat="48.66831" lon="-2.30636">
        <ele>69</ele>
        <time>2020-06-24T09:58:08.048Z</time>
      </trkpt>
      <trkpt lat="48.6683" lon="-2.30635">
        <ele>70</ele>
        <time>2020-06-24T09:58:09.048Z</time>
      </trkpt>
      <trkpt lat="48.66829" lon="-2.30634">
        <ele>70</ele>
        <time>2020-06-24T09:58:10.048Z</time>
      </trkpt>
      <trkpt lat="48.66829" lon="-2.30632">
        <ele>69</ele>
        <time>2020-06-24T09:58:11.048Z</time>
      </trkpt>
      <trkpt lat="48.66828" lon="-2.30631">
        <ele>69</ele>
        <time>2020-06-24T09:58:12.048Z</time>
      </trkpt>
      <trkpt lat="48.66828" lon="-2.30631">
        <ele>69</ele>
        <time>2020-06-24T09:58:13.048Z</time>
      </trkpt>
      <trkpt lat="48.66829" lon="-2.3063">
        <ele>69</ele>
        <time>2020-06-24T09:58:14.048Z</time>
      </trkpt>
      <trkpt lat="48.66829" lon="-2.30629">
        <ele>68</ele>
        <time>2020-06-24T09:58:15.048Z</time>
      </trkpt>
      <trkpt lat="48.6683" lon="-2.30628">
        <ele>69</ele>
        <time>2020-06-24T09:58:16.048Z</time>
      </trkpt>
      <trkpt lat="48.6683" lon="-2.30626">
        <ele>68</ele>
        <time>2020-06-24T09:58:17.048Z</time>
      </trkpt>
      <trkpt lat="48.6683" lon="-2.30624">
        <ele>68</ele>
        <time>2020-06-24T09:58:18.048Z</time>
      </trkpt>
      <trkpt lat="48.6683" lon="-2.30622">
        <ele>68</ele>
        <time>2020-06-24T09:58:19.048Z</time>
      </trkpt>
      <trkpt lat="48.66829" lon="-2.3062">
        <ele>68</ele>
        <time>2020-06-24T09:58:20.048Z</time>
      </trkpt>
      <trkpt lat="48.66829" lon="-2.30618">
        <ele>68</ele>
        <time>2020-06-24T09:58:21.048Z</time>
      </trkpt>
      <trkpt lat="48.66828" lon="-2.30616">
        <ele>68</ele>
        <time>2020-06-24T09:58:22.048Z</time>
      </trkpt>
      <trkpt lat="48.66828" lon="-2.30613">
        <ele>68</ele>
        <time>2020-06-24T09:58:23.048Z</time>
      </trkpt>
      <trkpt lat="48.66828" lon="-2.30611">
        <ele>68</ele>
        <time>2020-06-24T09:58:24.048Z</time>
      </trkpt>
      <trkpt lat="48.66827" lon="-2.30609">
        <ele>68</ele>
        <time>2020-06-24T09:58:25.048Z</time>
      </trkpt>
      <trkpt lat="48.66827" lon="-2.30607">
        <ele>68</ele>
        <time>2020-06-24T09:58:26.048Z</time>
      </trkpt>
      <trkpt lat="48.66826" lon="-2.30606">
        <ele>68</ele>
        <time>2020-06-24T09:58:27.048Z</time>
      </trkpt>
      <trkpt lat="48.66825" lon="-2.30604">
        <ele>69</ele>
        <time>2020-06-24T09:58:28.048Z</time>
      </trkpt>
      <trkpt lat="48.66825" lon="-2.30603">
        <ele>69</ele>
        <time>2020-06-24T09:58:29.048Z</time>
      </trkpt>
      <trkpt lat="48.66825" lon="-2.30603">
        <ele>69</ele>
        <time>2020-06-24T09:58:30.048Z</time>
      </trkpt>
      <trkpt lat="48.66825" lon="-2.30603">
        <ele>69</ele>
        <time>2020-06-24T09:58:31.048Z</time>
      </trkpt>
      <trkpt lat="48.66825" lon="-2.30603">
        <ele>69</ele>
        <time>2020-06-24T09:58:32.048Z</time>
      </trkpt>
      <trkpt lat="48.66825" lon="-2.30603">
        <ele>69</ele>
        <time>2020-06-24T09:58:33.048Z</time>
      </trkpt>
      <trkpt lat="48.66826" lon="-2.30603">
        <ele>69</ele>
        <time>2020-06-24T09:58:34.048Z</time>
      </trkpt>
      <trkpt lat="48.66826" lon="-2.30603">
        <ele>69</ele>
        <time>2020-06-24T09:58:35.048Z</time>
      </trkpt>
      <trkpt lat="48.66823" lon="-2.30599">
        <ele>68</ele>
        <time>2020-06-24T09:58:36.045Z</time>
      </trkpt>
      <trkpt lat="48.66822" lon="-2.30597">
        <ele>68</ele>
        <time>2020-06-24T09:58:37.045Z</time>
      </trkpt>
      <trkpt lat="48.66822" lon="-2.30595">
        <ele>67</ele>
        <time>2020-06-24T09:58:38.045Z</time>
      </trkpt>
      <trkpt lat="48.66822" lon="-2.30593">
        <ele>67</ele>
        <time>2020-06-24T09:58:39.045Z</time>
      </trkpt>
      <trkpt lat="48.66822" lon="-2.30591">
        <ele>67</ele>
        <time>2020-06-24T09:58:40.045Z</time>
      </trkpt>
      <trkpt lat="48.66822" lon="-2.30588">
        <ele>67</ele>
        <time>2020-06-24T09:58:41.045Z</time>
      </trkpt>
      <trkpt lat="48.66821" lon="-2.30586">
        <ele>67</ele>
        <time>2020-06-24T09:58:42.045Z</time>
      </trkpt>
      <trkpt lat="48.66821" lon="-2.30584">
        <ele>67</ele>
        <time>2020-06-24T09:58:43.045Z</time>
      </trkpt>
      <trkpt lat="48.6682" lon="-2.30582">
        <ele>67</ele>
        <time>2020-06-24T09:58:44.045Z</time>
      </trkpt>
      <trkpt lat="48.6682" lon="-2.3058">
        <ele>67</ele>
        <time>2020-06-24T09:58:45.045Z</time>
      </trkpt>
      <trkpt lat="48.66819" lon="-2.30577">
        <ele>67</ele>
        <time>2020-06-24T09:58:46.045Z</time>
      </trkpt>
      <trkpt lat="48.66819" lon="-2.30575">
        <ele>67</ele>
        <time>2020-06-24T09:58:47.045Z</time>
      </trkpt>
      <trkpt lat="48.66818" lon="-2.30573">
        <ele>67</ele>
        <time>2020-06-24T09:58:48.045Z</time>
      </trkpt>
      <trkpt lat="48.66818" lon="-2.30571">
        <ele>67</ele>
        <time>2020-06-24T09:58:49.045Z</time>
      </trkpt>
      <trkpt lat="48.66817" lon="-2.30569">
        <ele>67</ele>
        <time>2020-06-24T09:58:50.045Z</time>
      </trkpt>
      <trkpt lat="48.66817" lon="-2.30567">
        <ele>67</ele>
        <time>2020-06-24T09:58:51.045Z</time>
      </trkpt>
      <trkpt lat="48.66816" lon="-2.30565">
        <ele>67</ele>
        <time>2020-06-24T09:58:52.045Z</time>
      </trkpt>
      <trkpt lat="48.66816" lon="-2.30563">
        <ele>67</ele>
        <time>2020-06-24T09:58:53.045Z</time>
      </trkpt>
      <trkpt lat="48.66815" lon="-2.30561">
        <ele>67</ele>
        <time>2020-06-24T09:58:54.045Z</time>
      </trkpt>
      <trkpt lat="48.66815" lon="-2.30559">
        <ele>67</ele>
        <time>2020-06-24T09:58:55.045Z</time>
      </trkpt>
      <trkpt lat="48.66815" lon="-2.30558">
        <ele>67</ele>
        <time>2020-06-24T09:58:56.045Z</time>
      </trkpt>
      <trkpt lat="48.66814" lon="-2.30556">
        <ele>68</ele>
        <time>2020-06-24T09:58:57.045Z</time>
      </trkpt>
      <trkpt lat="48.66814" lon="-2.30554">
        <ele>68</ele>
        <time>2020-06-24T09:58:58.045Z</time>
      </trkpt>
      <trkpt lat="48.66813" lon="-2.30553">
        <ele>68</ele>
        <time>2020-06-24T09:58:59.045Z</time>
      </trkpt>
      <trkpt lat="48.66812" lon="-2.30551">
        <ele>68</ele>
        <time>2020-06-24T09:59:00.045Z</time>
      </trkpt>
      <trkpt lat="48.66812" lon="-2.30549">
        <ele>68</ele>
        <time>2020-06-24T09:59:01.045Z</time>
      </trkpt>
      <trkpt lat="48.66811" lon="-2.30547">
        <ele>68</ele>
        <time>2020-06-24T09:59:02.045Z</time>
      </trkpt>
      <trkpt lat="48.6681" lon="-2.30546">
        <ele>69</ele>
        <time>2020-06-24T09:59:03.045Z</time>
      </trkpt>
      <trkpt lat="48.66809" lon="-2.30544">
        <ele>69</ele>
        <time>2020-06-24T09:59:04.045Z</time>
      </trkpt>
      <trkpt lat="48.66809" lon="-2.30542">
        <ele>70</ele>
        <time>2020-06-24T09:59:05.045Z</time>
      </trkpt>
      <trkpt lat="48.66808" lon="-2.30541">
        <ele>70</ele>
        <time>2020-06-24T09:59:06.045Z</time>
      </trkpt>
      <trkpt lat="48.66808" lon="-2.30539">
        <ele>70</ele>
        <time>2020-06-24T09:59:07.045Z</time>
      </trkpt>
      <trkpt lat="48.66807" lon="-2.30537">
        <ele>70</ele>
        <time>2020-06-24T09:59:08.045Z</time>
      </trkpt>
      <trkpt lat="48.66807" lon="-2.30536">
        <ele>71</ele>
        <time>2020-06-24T09:59:09.045Z</time>
      </trkpt>
      <trkpt lat="48.66806" lon="-2.30534">
        <ele>71</ele>
        <time>2020-06-24T09:59:10.045Z</time>
      </trkpt>
      <trkpt lat="48.66806" lon="-2.30532">
        <ele>71</ele>
        <time>2020-06-24T09:59:11.045Z</time>
      </trkpt>
      <trkpt lat="48.66805" lon="-2.30531">
        <ele>72</ele>
        <time>2020-06-24T09:59:12.045Z</time>
      </trkpt>
      <trkpt lat="48.66805" lon="-2.30529">
        <ele>72</ele>
        <time>2020-06-24T09:59:13.045Z</time>
      </trkpt>
      <trkpt lat="48.66804" lon="-2.30527">
        <ele>72</ele>
        <time>2020-06-24T09:59:14.045Z</time>
      </trkpt>
      <trkpt lat="48.66804" lon="-2.30526">
        <ele>72</ele>
        <time>2020-06-24T09:59:15.045Z</time>
      </trkpt>
      <trkpt lat="48.66804" lon="-2.30525">
        <ele>72</ele>
        <time>2020-06-24T09:59:16.045Z</time>
      </trkpt>
      <trkpt lat="48.66803" lon="-2.30523">
        <ele>72</ele>
        <time>2020-06-24T09:59:17.045Z</time>
      </trkpt>
      <trkpt lat="48.66803" lon="-2.30521">
        <ele>72</ele>
        <time>2020-06-24T09:59:18.045Z</time>
      </trkpt>
      <trkpt lat="48.66802" lon="-2.30519">
        <ele>72</ele>
        <time>2020-06-24T09:59:19.045Z</time>
      </trkpt>
      <trkpt lat="48.66802" lon="-2.30517">
        <ele>73</ele>
        <time>2020-06-24T09:59:20.045Z</time>
      </trkpt>
      <trkpt lat="48.66802" lon="-2.30515">
        <ele>73</ele>
        <time>2020-06-24T09:59:21.045Z</time>
      </trkpt>
      <trkpt lat="48.66801" lon="-2.30513">
        <ele>73</ele>
        <time>2020-06-24T09:59:22.045Z</time>
      </trkpt>
      <trkpt lat="48.66801" lon="-2.30511">
        <ele>73</ele>
        <time>2020-06-24T09:59:23.045Z</time>
      </trkpt>
      <trkpt lat="48.668" lon="-2.30509">
        <ele>73</ele>
        <time>2020-06-24T09:59:24.045Z</time>
      </trkpt>
      <trkpt lat="48.668" lon="-2.30507">
        <ele>74</ele>
        <time>2020-06-24T09:59:25.045Z</time>
      </trkpt>
      <trkpt lat="48.668" lon="-2.30505">
        <ele>74</ele>
        <time>2020-06-24T09:59:26.045Z</time>
      </trkpt>
      <trkpt lat="48.668" lon="-2.30504">
        <ele>74</ele>
        <time>2020-06-24T09:59:27.045Z</time>
      </trkpt>
      <trkpt lat="48.668" lon="-2.30503">
        <ele>75</ele>
        <time>2020-06-24T09:59:28.045Z</time>
      </trkpt>
      <trkpt lat="48.668" lon="-2.30501">
        <ele>74</ele>
        <time>2020-06-24T09:59:29.045Z</time>
      </trkpt>
      <trkpt lat="48.66801" lon="-2.305">
        <ele>75</ele>
        <time>2020-06-24T09:59:30.045Z</time>
      </trkpt>
      <trkpt lat="48.66801" lon="-2.30497">
        <ele>75</ele>
        <time>2020-06-24T09:59:31.045Z</time>
      </trkpt>
      <trkpt lat="48.66801" lon="-2.30495">
        <ele>75</ele>
        <time>2020-06-24T09:59:32.045Z</time>
      </trkpt>
      <trkpt lat="48.66802" lon="-2.30493">
        <ele>75</ele>
        <time>2020-06-24T09:59:33.045Z</time>
      </trkpt>
      <trkpt lat="48.66801" lon="-2.30491">
        <ele>76</ele>
        <time>2020-06-24T09:59:34.045Z</time>
      </trkpt>
      <trkpt lat="48.66801" lon="-2.3049">
        <ele>76</ele>
        <time>2020-06-24T09:59:35.045Z</time>
      </trkpt>
      <trkpt lat="48.66801" lon="-2.30488">
        <ele>76</ele>
        <time>2020-06-24T09:59:36.045Z</time>
      </trkpt>
      <trkpt lat="48.668" lon="-2.30487">
        <ele>76</ele>
        <time>2020-06-24T09:59:37.045Z</time>
      </trkpt>
      <trkpt lat="48.668" lon="-2.30486">
        <ele>77</ele>
        <time>2020-06-24T09:59:38.045Z</time>
      </trkpt>
      <trkpt lat="48.668" lon="-2.30485">
        <ele>76</ele>
        <time>2020-06-24T09:59:39.045Z</time>
      </trkpt>
      <trkpt lat="48.66799" lon="-2.30483">
        <ele>77</ele>
        <time>2020-06-24T09:59:40.045Z</time>
      </trkpt>
      <trkpt lat="48.66799" lon="-2.30482">
        <ele>77</ele>
        <time>2020-06-24T09:59:41.045Z</time>
      </trkpt>
      <trkpt lat="48.66798" lon="-2.30481">
        <ele>77</ele>
        <time>2020-06-24T09:59:42.045Z</time>
      </trkpt>
      <trkpt lat="48.66798" lon="-2.30479">
        <ele>77</ele>
        <time>2020-06-24T09:59:43.045Z</time>
      </trkpt>
      <trkpt lat="48.66797" lon="-2.30477">
        <ele>77</ele>
        <time>2020-06-24T09:59:44.045Z</time>
      </trkpt>
      <trkpt lat="48.66797" lon="-2.30476">
        <ele>77</ele>
        <time>2020-06-24T09:59:45.045Z</time>
      </trkpt>
      <trkpt lat="48.66796" lon="-2.30474">
        <ele>77</ele>
        <time>2020-06-24T09:59:46.045Z</time>
      </trkpt>
      <trkpt lat="48.66795" lon="-2.30472">
        <ele>77</ele>
        <time>2020-06-24T09:59:47.045Z</time>
      </trkpt>
      <trkpt lat="48.66795" lon="-2.30471">
        <ele>77</ele>
        <time>2020-06-24T09:59:48.045Z</time>
      </trkpt>
      <trkpt lat="48.66794" lon="-2.3047">
        <ele>77</ele>
        <time>2020-06-24T09:59:49.045Z</time>
      </trkpt>
      <trkpt lat="48.66792" lon="-2.30469">
        <ele>77</ele>
        <time>2020-06-24T09:59:50.045Z</time>
      </trkpt>
      <trkpt lat="48.66791" lon="-2.30467">
        <ele>77</ele>
        <time>2020-06-24T09:59:51.045Z</time>
      </trkpt>
      <trkpt lat="48.6679" lon="-2.30466">
        <ele>77</ele>
        <time>2020-06-24T09:59:52.045Z</time>
      </trkpt>
      <trkpt lat="48.66789" lon="-2.30465">
        <ele>77</ele>
        <time>2020-06-24T09:59:53.045Z</time>
      </trkpt>
      <trkpt lat="48.66788" lon="-2.30464">
        <ele>77</ele>
        <time>2020-06-24T09:59:54.045Z</time>
      </trkpt>
      <trkpt lat="48.66787" lon="-2.30462">
        <ele>77</ele>
        <time>2020-06-24T09:59:55.045Z</time>
      </trkpt>
      <trkpt lat="48.66786" lon="-2.3046">
        <ele>77</ele>
        <time>2020-06-24T09:59:56.045Z</time>
      </trkpt>
      <trkpt lat="48.66785" lon="-2.30459">
        <ele>78</ele>
        <time>2020-06-24T09:59:57.045Z</time>
      </trkpt>
      <trkpt lat="48.66784" lon="-2.30457">
        <ele>78</ele>
        <time>2020-06-24T09:59:58.045Z</time>
      </trkpt>
      <trkpt lat="48.66784" lon="-2.30455">
        <ele>77</ele>
        <time>2020-06-24T09:59:59.045Z</time>
      </trkpt>
      <trkpt lat="48.66783" lon="-2.30453">
        <ele>78</ele>
        <time>2020-06-24T10:00:00.045Z</time>
      </trkpt>
      <trkpt lat="48.66782" lon="-2.30452">
        <ele>78</ele>
        <time>2020-06-24T10:00:01.045Z</time>
      </trkpt>
      <trkpt lat="48.66781" lon="-2.3045">
        <ele>78</ele>
        <time>2020-06-24T10:00:02.045Z</time>
      </trkpt>
      <trkpt lat="48.6678" lon="-2.30448">
        <ele>78</ele>
        <time>2020-06-24T10:00:03.045Z</time>
      </trkpt>
      <trkpt lat="48.66779" lon="-2.30447">
        <ele>78</ele>
        <time>2020-06-24T10:00:04.045Z</time>
      </trkpt>
      <trkpt lat="48.66778" lon="-2.30446">
        <ele>78</ele>
        <time>2020-06-24T10:00:05.045Z</time>
      </trkpt>
      <trkpt lat="48.66777" lon="-2.30444">
        <ele>78</ele>
        <time>2020-06-24T10:00:06.045Z</time>
      </trkpt>
      <trkpt lat="48.66776" lon="-2.30443">
        <ele>78</ele>
        <time>2020-06-24T10:00:07.045Z</time>
      </trkpt>
      <trkpt lat="48.66776" lon="-2.30441">
        <ele>78</ele>
        <time>2020-06-24T10:00:08.045Z</time>
      </trkpt>
      <trkpt lat="48.66775" lon="-2.30439">
        <ele>77</ele>
        <time>2020-06-24T10:00:09.045Z</time>
      </trkpt>
      <trkpt lat="48.66775" lon="-2.30437">
        <ele>77</ele>
        <time>2020-06-24T10:00:10.045Z</time>
      </trkpt>
      <trkpt lat="48.66775" lon="-2.30435">
        <ele>76</ele>
        <time>2020-06-24T10:00:11.045Z</time>
      </trkpt>
      <trkpt lat="48.66774" lon="-2.30433">
        <ele>76</ele>
        <time>2020-06-24T10:00:12.045Z</time>
      </trkpt>
      <trkpt lat="48.66773" lon="-2.30431">
        <ele>76</ele>
        <time>2020-06-24T10:00:13.045Z</time>
      </trkpt>
      <trkpt lat="48.66773" lon="-2.30429">
        <ele>76</ele>
        <time>2020-06-24T10:00:14.045Z</time>
      </trkpt>
      <trkpt lat="48.66772" lon="-2.30427">
        <ele>76</ele>
        <time>2020-06-24T10:00:15.045Z</time>
      </trkpt>
      <trkpt lat="48.66772" lon="-2.30425">
        <ele>75</ele>
        <time>2020-06-24T10:00:16.045Z</time>
      </trkpt>
      <trkpt lat="48.66771" lon="-2.30423">
        <ele>75</ele>
        <time>2020-06-24T10:00:17.045Z</time>
      </trkpt>
      <trkpt lat="48.66771" lon="-2.30421">
        <ele>75</ele>
        <time>2020-06-24T10:00:18.045Z</time>
      </trkpt>
      <trkpt lat="48.66771" lon="-2.30419">
        <ele>74</ele>
        <time>2020-06-24T10:00:19.045Z</time>
      </trkpt>
      <trkpt lat="48.66771" lon="-2.30417">
        <ele>74</ele>
        <time>2020-06-24T10:00:20.045Z</time>
      </trkpt>
      <trkpt lat="48.66771" lon="-2.30415">
        <ele>74</ele>
        <time>2020-06-24T10:00:21.045Z</time>
      </trkpt>
      <trkpt lat="48.66771" lon="-2.30412">
        <ele>74</ele>
        <time>2020-06-24T10:00:22.045Z</time>
      </trkpt>
      <trkpt lat="48.66771" lon="-2.3041">
        <ele>74</ele>
        <time>2020-06-24T10:00:23.045Z</time>
      </trkpt>
      <trkpt lat="48.66771" lon="-2.30408">
        <ele>74</ele>
        <time>2020-06-24T10:00:24.045Z</time>
      </trkpt>
      <trkpt lat="48.6677" lon="-2.30406">
        <ele>74</ele>
        <time>2020-06-24T10:00:25.045Z</time>
      </trkpt>
      <trkpt lat="48.6677" lon="-2.30404">
        <ele>74</ele>
        <time>2020-06-24T10:00:26.045Z</time>
      </trkpt>
      <trkpt lat="48.66769" lon="-2.30402">
        <ele>75</ele>
        <time>2020-06-24T10:00:27.045Z</time>
      </trkpt>
      <trkpt lat="48.66769" lon="-2.304">
        <ele>75</ele>
        <time>2020-06-24T10:00:28.045Z</time>
      </trkpt>
      <trkpt lat="48.66769" lon="-2.30398">
        <ele>75</ele>
        <time>2020-06-24T10:00:29.045Z</time>
      </trkpt>
      <trkpt lat="48.66768" lon="-2.30397">
        <ele>75</ele>
        <time>2020-06-24T10:00:30.045Z</time>
      </trkpt>
      <trkpt lat="48.66768" lon="-2.30395">
        <ele>75</ele>
        <time>2020-06-24T10:00:31.045Z</time>
      </trkpt>
      <trkpt lat="48.66767" lon="-2.30393">
        <ele>75</ele>
        <time>2020-06-24T10:00:32.045Z</time>
      </trkpt>
      <trkpt lat="48.66767" lon="-2.3039">
        <ele>76</ele>
        <time>2020-06-24T10:00:33.045Z</time>
      </trkpt>
      <trkpt lat="48.66766" lon="-2.30389">
        <ele>76</ele>
        <time>2020-06-24T10:00:34.045Z</time>
      </trkpt>
      <trkpt lat="48.66766" lon="-2.30387">
        <ele>76</ele>
        <time>2020-06-24T10:00:35.045Z</time>
      </trkpt>
      <trkpt lat="48.66765" lon="-2.30385">
        <ele>76</ele>
        <time>2020-06-24T10:00:36.045Z</time>
      </trkpt>
      <trkpt lat="48.66765" lon="-2.30383">
        <ele>77</ele>
        <time>2020-06-24T10:00:37.045Z</time>
      </trkpt>
      <trkpt lat="48.66764" lon="-2.30381">
        <ele>77</ele>
        <time>2020-06-24T10:00:38.045Z</time>
      </trkpt>
      <trkpt lat="48.66763" lon="-2.3038">
        <ele>77</ele>
        <time>2020-06-24T10:00:39.045Z</time>
      </trkpt>
      <trkpt lat="48.66762" lon="-2.30378">
        <ele>77</ele>
        <time>2020-06-24T10:00:40.045Z</time>
      </trkpt>
      <trkpt lat="48.66761" lon="-2.30377">
        <ele>77</ele>
        <time>2020-06-24T10:00:41.045Z</time>
      </trkpt>
      <trkpt lat="48.6676" lon="-2.30375">
        <ele>76</ele>
        <time>2020-06-24T10:00:42.045Z</time>
      </trkpt>
      <trkpt lat="48.66758" lon="-2.30374">
        <ele>76</ele>
        <time>2020-06-24T10:00:43.045Z</time>
      </trkpt>
      <trkpt lat="48.66757" lon="-2.30373">
        <ele>76</ele>
        <time>2020-06-24T10:00:44.045Z</time>
      </trkpt>
      <trkpt lat="48.66756" lon="-2.30372">
        <ele>76</ele>
        <time>2020-06-24T10:00:45.045Z</time>
      </trkpt>
      <trkpt lat="48.66755" lon="-2.30371">
        <ele>76</ele>
        <time>2020-06-24T10:00:46.045Z</time>
      </trkpt>
      <trkpt lat="48.66754" lon="-2.3037">
        <ele>76</ele>
        <time>2020-06-24T10:00:47.045Z</time>
      </trkpt>
      <trkpt lat="48.66753" lon="-2.30369">
        <ele>76</ele>
        <time>2020-06-24T10:00:48.045Z</time>
      </trkpt>
      <trkpt lat="48.66752" lon="-2.30368">
        <ele>75</ele>
        <time>2020-06-24T10:00:49.045Z</time>
      </trkpt>
      <trkpt lat="48.66751" lon="-2.30366">
        <ele>75</ele>
        <time>2020-06-24T10:00:50.045Z</time>
      </trkpt>
      <trkpt lat="48.6675" lon="-2.30366">
        <ele>75</ele>
        <time>2020-06-24T10:00:51.045Z</time>
      </trkpt>
      <trkpt lat="48.66749" lon="-2.30365">
        <ele>74</ele>
        <time>2020-06-24T10:00:52.045Z</time>
      </trkpt>
      <trkpt lat="48.66748" lon="-2.30364">
        <ele>74</ele>
        <time>2020-06-24T10:00:53.045Z</time>
      </trkpt>
      <trkpt lat="48.66747" lon="-2.30364">
        <ele>73</ele>
        <time>2020-06-24T10:00:54.045Z</time>
      </trkpt>
      <trkpt lat="48.66746" lon="-2.30363">
        <ele>73</ele>
        <time>2020-06-24T10:00:55.045Z</time>
      </trkpt>
      <trkpt lat="48.66745" lon="-2.30362">
        <ele>72</ele>
        <time>2020-06-24T10:00:56.045Z</time>
      </trkpt>
      <trkpt lat="48.66744" lon="-2.30361">
        <ele>71</ele>
        <time>2020-06-24T10:00:57.045Z</time>
      </trkpt>
      <trkpt lat="48.66743" lon="-2.3036">
        <ele>71</ele>
        <time>2020-06-24T10:00:58.045Z</time>
      </trkpt>
      <trkpt lat="48.66742" lon="-2.30358">
        <ele>71</ele>
        <time>2020-06-24T10:00:59.045Z</time>
      </trkpt>
      <trkpt lat="48.66741" lon="-2.30357">
        <ele>71</ele>
        <time>2020-06-24T10:01:00.045Z</time>
      </trkpt>
      <trkpt lat="48.6674" lon="-2.30356">
        <ele>71</ele>
        <time>2020-06-24T10:01:01.045Z</time>
      </trkpt>
      <trkpt lat="48.6674" lon="-2.30354">
        <ele>70</ele>
        <time>2020-06-24T10:01:02.045Z</time>
      </trkpt>
      <trkpt lat="48.6674" lon="-2.30353">
        <ele>70</ele>
        <time>2020-06-24T10:01:03.045Z</time>
      </trkpt>
      <trkpt lat="48.66739" lon="-2.30352">
        <ele>70</ele>
        <time>2020-06-24T10:01:04.045Z</time>
      </trkpt>
      <trkpt lat="48.66739" lon="-2.30351">
        <ele>70</ele>
        <time>2020-06-24T10:01:05.045Z</time>
      </trkpt>
      <trkpt lat="48.66739" lon="-2.30349">
        <ele>70</ele>
        <time>2020-06-24T10:01:06.045Z</time>
      </trkpt>
      <trkpt lat="48.66739" lon="-2.30347">
        <ele>70</ele>
        <time>2020-06-24T10:01:07.045Z</time>
      </trkpt>
      <trkpt lat="48.66738" lon="-2.30346">
        <ele>70</ele>
        <time>2020-06-24T10:01:08.045Z</time>
      </trkpt>
      <trkpt lat="48.66738" lon="-2.30345">
        <ele>70</ele>
        <time>2020-06-24T10:01:09.045Z</time>
      </trkpt>
      <trkpt lat="48.66737" lon="-2.30344">
        <ele>70</ele>
        <time>2020-06-24T10:01:10.045Z</time>
      </trkpt>
      <trkpt lat="48.66736" lon="-2.30343">
        <ele>70</ele>
        <time>2020-06-24T10:01:11.045Z</time>
      </trkpt>
      <trkpt lat="48.66736" lon="-2.30341">
        <ele>70</ele>
        <time>2020-06-24T10:01:12.045Z</time>
      </trkpt>
      <trkpt lat="48.66736" lon="-2.30341">
        <ele>70</ele>
        <time>2020-06-24T10:01:13.045Z</time>
      </trkpt>
      <trkpt lat="48.66735" lon="-2.30339">
        <ele>71</ele>
        <time>2020-06-24T10:01:14.045Z</time>
      </trkpt>
      <trkpt lat="48.66735" lon="-2.30338">
        <ele>71</ele>
        <time>2020-06-24T10:01:15.045Z</time>
      </trkpt>
      <trkpt lat="48.66735" lon="-2.30337">
        <ele>71</ele>
        <time>2020-06-24T10:01:16.045Z</time>
      </trkpt>
      <trkpt lat="48.66734" lon="-2.30336">
        <ele>71</ele>
        <time>2020-06-24T10:01:17.045Z</time>
      </trkpt>
      <trkpt lat="48.66734" lon="-2.30334">
        <ele>71</ele>
        <time>2020-06-24T10:01:18.045Z</time>
      </trkpt>
      <trkpt lat="48.66734" lon="-2.30333">
        <ele>71</ele>
        <time>2020-06-24T10:01:19.045Z</time>
      </trkpt>
      <trkpt lat="48.66734" lon="-2.30331">
        <ele>71</ele>
        <time>2020-06-24T10:01:20.045Z</time>
      </trkpt>
      <trkpt lat="48.66734" lon="-2.3033">
        <ele>71</ele>
        <time>2020-06-24T10:01:21.045Z</time>
      </trkpt>
      <trkpt lat="48.66734" lon="-2.30329">
        <ele>71</ele>
        <time>2020-06-24T10:01:22.045Z</time>
      </trkpt>
      <trkpt lat="48.66733" lon="-2.30328">
        <ele>70</ele>
        <time>2020-06-24T10:01:23.045Z</time>
      </trkpt>
      <trkpt lat="48.66732" lon="-2.30327">
        <ele>70</ele>
        <time>2020-06-24T10:01:24.045Z</time>
      </trkpt>
      <trkpt lat="48.6673" lon="-2.30327">
        <ele>70</ele>
        <time>2020-06-24T10:01:25.045Z</time>
      </trkpt>
      <trkpt lat="48.66729" lon="-2.30325">
        <ele>70</ele>
        <time>2020-06-24T10:01:26.045Z</time>
      </trkpt>
      <trkpt lat="48.66728" lon="-2.30324">
        <ele>70</ele>
        <time>2020-06-24T10:01:27.045Z</time>
      </trkpt>
      <trkpt lat="48.66727" lon="-2.30323">
        <ele>70</ele>
        <time>2020-06-24T10:01:28.045Z</time>
      </trkpt>
      <trkpt lat="48.66726" lon="-2.30322">
        <ele>70</ele>
        <time>2020-06-24T10:01:29.045Z</time>
      </trkpt>
      <trkpt lat="48.66726" lon="-2.3032">
        <ele>71</ele>
        <time>2020-06-24T10:01:30.045Z</time>
      </trkpt>
      <trkpt lat="48.66725" lon="-2.30318">
        <ele>70</ele>
        <time>2020-06-24T10:01:31.045Z</time>
      </trkpt>
      <trkpt lat="48.66724" lon="-2.30317">
        <ele>70</ele>
        <time>2020-06-24T10:01:32.045Z</time>
      </trkpt>
      <trkpt lat="48.66723" lon="-2.30315">
        <ele>70</ele>
        <time>2020-06-24T10:01:33.045Z</time>
      </trkpt>
      <trkpt lat="48.66722" lon="-2.30313">
        <ele>71</ele>
        <time>2020-06-24T10:01:34.045Z</time>
      </trkpt>
      <trkpt lat="48.66721" lon="-2.30311">
        <ele>71</ele>
        <time>2020-06-24T10:01:35.045Z</time>
      </trkpt>
      <trkpt lat="48.6672" lon="-2.30309">
        <ele>71</ele>
        <time>2020-06-24T10:01:36.045Z</time>
      </trkpt>
      <trkpt lat="48.66719" lon="-2.30307">
        <ele>70</ele>
        <time>2020-06-24T10:01:37.045Z</time>
      </trkpt>
      <trkpt lat="48.66718" lon="-2.30305">
        <ele>69</ele>
        <time>2020-06-24T10:01:38.045Z</time>
      </trkpt>
      <trkpt lat="48.66717" lon="-2.30303">
        <ele>69</ele>
        <time>2020-06-24T10:01:39.045Z</time>
      </trkpt>
      <trkpt lat="48.66717" lon="-2.30301">
        <ele>69</ele>
        <time>2020-06-24T10:01:40.045Z</time>
      </trkpt>
      <trkpt lat="48.66716" lon="-2.303">
        <ele>69</ele>
        <time>2020-06-24T10:01:41.045Z</time>
      </trkpt>
      <trkpt lat="48.66716" lon="-2.30298">
        <ele>69</ele>
        <time>2020-06-24T10:01:42.045Z</time>
      </trkpt>
      <trkpt lat="48.66715" lon="-2.30297">
        <ele>69</ele>
        <time>2020-06-24T10:01:43.045Z</time>
      </trkpt>
      <trkpt lat="48.66714" lon="-2.30295">
        <ele>69</ele>
        <time>2020-06-24T10:01:44.045Z</time>
      </trkpt>
      <trkpt lat="48.66714" lon="-2.30294">
        <ele>69</ele>
        <time>2020-06-24T10:01:45.045Z</time>
      </trkpt>
      <trkpt lat="48.66713" lon="-2.30291">
        <ele>69</ele>
        <time>2020-06-24T10:01:46.045Z</time>
      </trkpt>
      <trkpt lat="48.66713" lon="-2.30289">
        <ele>69</ele>
        <time>2020-06-24T10:01:47.045Z</time>
      </trkpt>
      <trkpt lat="48.66713" lon="-2.30287">
        <ele>69</ele>
        <time>2020-06-24T10:01:48.045Z</time>
      </trkpt>
      <trkpt lat="48.66713" lon="-2.30286">
        <ele>69</ele>
        <time>2020-06-24T10:01:49.045Z</time>
      </trkpt>
      <trkpt lat="48.66713" lon="-2.30284">
        <ele>69</ele>
        <time>2020-06-24T10:01:50.045Z</time>
      </trkpt>
      <trkpt lat="48.66713" lon="-2.30282">
        <ele>69</ele>
        <time>2020-06-24T10:01:51.045Z</time>
      </trkpt>
      <trkpt lat="48.66713" lon="-2.3028">
        <ele>67</ele>
        <time>2020-06-24T10:01:52.045Z</time>
      </trkpt>
      <trkpt lat="48.66713" lon="-2.30277">
        <ele>66</ele>
        <time>2020-06-24T10:01:53.045Z</time>
      </trkpt>
      <trkpt lat="48.66714" lon="-2.30276">
        <ele>65</ele>
        <time>2020-06-24T10:01:54.045Z</time>
      </trkpt>
      <trkpt lat="48.66714" lon="-2.30274">
        <ele>64</ele>
        <time>2020-06-24T10:01:55.045Z</time>
      </trkpt>
      <trkpt lat="48.66714" lon="-2.30273">
        <ele>64</ele>
        <time>2020-06-24T10:01:56.045Z</time>
      </trkpt>
      <trkpt lat="48.66714" lon="-2.30271">
        <ele>64</ele>
        <time>2020-06-24T10:01:57.045Z</time>
      </trkpt>
      <trkpt lat="48.66714" lon="-2.30269">
        <ele>63</ele>
        <time>2020-06-24T10:01:58.045Z</time>
      </trkpt>
      <trkpt lat="48.66714" lon="-2.30268">
        <ele>63</ele>
        <time>2020-06-24T10:01:59.045Z</time>
      </trkpt>
      <trkpt lat="48.66714" lon="-2.30266">
        <ele>63</ele>
        <time>2020-06-24T10:02:00.045Z</time>
      </trkpt>
      <trkpt lat="48.66714" lon="-2.30265">
        <ele>63</ele>
        <time>2020-06-24T10:02:01.045Z</time>
      </trkpt>
      <trkpt lat="48.66714" lon="-2.30263">
        <ele>63</ele>
        <time>2020-06-24T10:02:02.045Z</time>
      </trkpt>
      <trkpt lat="48.66715" lon="-2.30262">
        <ele>63</ele>
        <time>2020-06-24T10:02:03.045Z</time>
      </trkpt>
      <trkpt lat="48.66715" lon="-2.3026">
        <ele>65</ele>
        <time>2020-06-24T10:02:04.045Z</time>
      </trkpt>
      <trkpt lat="48.66715" lon="-2.30259">
        <ele>65</ele>
        <time>2020-06-24T10:02:05.045Z</time>
      </trkpt>
      <trkpt lat="48.66716" lon="-2.30257">
        <ele>65</ele>
        <time>2020-06-24T10:02:06.045Z</time>
      </trkpt>
      <trkpt lat="48.66716" lon="-2.30255">
        <ele>65</ele>
        <time>2020-06-24T10:02:07.045Z</time>
      </trkpt>
      <trkpt lat="48.66717" lon="-2.30252">
        <ele>65</ele>
        <time>2020-06-24T10:02:08.045Z</time>
      </trkpt>
      <trkpt lat="48.66717" lon="-2.30249">
        <ele>65</ele>
        <time>2020-06-24T10:02:09.045Z</time>
      </trkpt>
      <trkpt lat="48.66718" lon="-2.30246">
        <ele>64</ele>
        <time>2020-06-24T10:02:10.045Z</time>
      </trkpt>
      <trkpt lat="48.66718" lon="-2.30244">
        <ele>65</ele>
        <time>2020-06-24T10:02:11.045Z</time>
      </trkpt>
      <trkpt lat="48.66718" lon="-2.30242">
        <ele>65</ele>
        <time>2020-06-24T10:02:12.045Z</time>
      </trkpt>
      <trkpt lat="48.66718" lon="-2.3024">
        <ele>65</ele>
        <time>2020-06-24T10:02:13.045Z</time>
      </trkpt>
      <trkpt lat="48.66718" lon="-2.30237">
        <ele>65</ele>
        <time>2020-06-24T10:02:14.045Z</time>
      </trkpt>
      <trkpt lat="48.66718" lon="-2.30235">
        <ele>64</ele>
        <time>2020-06-24T10:02:15.045Z</time>
      </trkpt>
      <trkpt lat="48.66718" lon="-2.30232">
        <ele>64</ele>
        <time>2020-06-24T10:02:16.045Z</time>
      </trkpt>
      <trkpt lat="48.66718" lon="-2.3023">
        <ele>64</ele>
        <time>2020-06-24T10:02:17.045Z</time>
      </trkpt>
      <trkpt lat="48.66718" lon="-2.30227">
        <ele>63</ele>
        <time>2020-06-24T10:02:18.045Z</time>
      </trkpt>
      <trkpt lat="48.66717" lon="-2.30225">
        <ele>62</ele>
        <time>2020-06-24T10:02:19.045Z</time>
      </trkpt>
      <trkpt lat="48.66717" lon="-2.30223">
        <ele>64</ele>
        <time>2020-06-24T10:02:20.045Z</time>
      </trkpt>
      <trkpt lat="48.66718" lon="-2.3022">
        <ele>64</ele>
        <time>2020-06-24T10:02:21.045Z</time>
      </trkpt>
      <trkpt lat="48.66718" lon="-2.30217">
        <ele>64</ele>
        <time>2020-06-24T10:02:22.045Z</time>
      </trkpt>
      <trkpt lat="48.66718" lon="-2.30215">
        <ele>63</ele>
        <time>2020-06-24T10:02:23.045Z</time>
      </trkpt>
      <trkpt lat="48.66718" lon="-2.30213">
        <ele>62</ele>
        <time>2020-06-24T10:02:24.045Z</time>
      </trkpt>
      <trkpt lat="48.66718" lon="-2.30211">
        <ele>62</ele>
        <time>2020-06-24T10:02:25.045Z</time>
      </trkpt>
      <trkpt lat="48.66718" lon="-2.30209">
        <ele>61</ele>
        <time>2020-06-24T10:02:26.045Z</time>
      </trkpt>
      <trkpt lat="48.66719" lon="-2.30208">
        <ele>61</ele>
        <time>2020-06-24T10:02:27.045Z</time>
      </trkpt>
      <trkpt lat="48.66719" lon="-2.30206">
        <ele>61</ele>
        <time>2020-06-24T10:02:28.045Z</time>
      </trkpt>
      <trkpt lat="48.66719" lon="-2.30204">
        <ele>61</ele>
        <time>2020-06-24T10:02:29.045Z</time>
      </trkpt>
      <trkpt lat="48.66719" lon="-2.30202">
        <ele>61</ele>
        <time>2020-06-24T10:02:30.045Z</time>
      </trkpt>
      <trkpt lat="48.66719" lon="-2.30201">
        <ele>60</ele>
        <time>2020-06-24T10:02:31.045Z</time>
      </trkpt>
      <trkpt lat="48.6672" lon="-2.30201">
        <ele>60</ele>
        <time>2020-06-24T10:02:32.045Z</time>
      </trkpt>
      <trkpt lat="48.6672" lon="-2.30201">
        <ele>60</ele>
        <time>2020-06-24T10:02:33.045Z</time>
      </trkpt>
      <trkpt lat="48.66721" lon="-2.302">
        <ele>59</ele>
        <time>2020-06-24T10:02:34.045Z</time>
      </trkpt>
      <trkpt lat="48.66721" lon="-2.302">
        <ele>59</ele>
        <time>2020-06-24T10:02:35.045Z</time>
      </trkpt>
      <trkpt lat="48.66722" lon="-2.30199">
        <ele>59</ele>
        <time>2020-06-24T10:02:36.045Z</time>
      </trkpt>
      <trkpt lat="48.66723" lon="-2.30199">
        <ele>58</ele>
        <time>2020-06-24T10:02:37.045Z</time>
      </trkpt>
      <trkpt lat="48.66723" lon="-2.30198">
        <ele>58</ele>
        <time>2020-06-24T10:02:38.045Z</time>
      </trkpt>
      <trkpt lat="48.66723" lon="-2.30195">
        <ele>57</ele>
        <time>2020-06-24T10:02:39.045Z</time>
      </trkpt>
      <trkpt lat="48.66723" lon="-2.30193">
        <ele>57</ele>
        <time>2020-06-24T10:02:40.045Z</time>
      </trkpt>
      <trkpt lat="48.66723" lon="-2.3019">
        <ele>57</ele>
        <time>2020-06-24T10:02:41.045Z</time>
      </trkpt>
      <trkpt lat="48.66723" lon="-2.30188">
        <ele>57</ele>
        <time>2020-06-24T10:02:42.045Z</time>
      </trkpt>
      <trkpt lat="48.66723" lon="-2.30186">
        <ele>56</ele>
        <time>2020-06-24T10:02:43.045Z</time>
      </trkpt>
      <trkpt lat="48.66723" lon="-2.30184">
        <ele>56</ele>
        <time>2020-06-24T10:02:44.045Z</time>
      </trkpt>
      <trkpt lat="48.66723" lon="-2.30182">
        <ele>56</ele>
        <time>2020-06-24T10:02:45.045Z</time>
      </trkpt>
      <trkpt lat="48.66723" lon="-2.3018">
        <ele>55</ele>
        <time>2020-06-24T10:02:46.045Z</time>
      </trkpt>
      <trkpt lat="48.66723" lon="-2.30177">
        <ele>55</ele>
        <time>2020-06-24T10:02:47.045Z</time>
      </trkpt>
      <trkpt lat="48.66723" lon="-2.30175">
        <ele>56</ele>
        <time>2020-06-24T10:02:48.045Z</time>
      </trkpt>
      <trkpt lat="48.66723" lon="-2.30173">
        <ele>56</ele>
        <time>2020-06-24T10:02:49.045Z</time>
      </trkpt>
      <trkpt lat="48.66724" lon="-2.30171">
        <ele>57</ele>
        <time>2020-06-24T10:02:50.045Z</time>
      </trkpt>
      <trkpt lat="48.66724" lon="-2.30169">
        <ele>58</ele>
        <time>2020-06-24T10:02:51.045Z</time>
      </trkpt>
      <trkpt lat="48.66724" lon="-2.30167">
        <ele>58</ele>
        <time>2020-06-24T10:02:52.045Z</time>
      </trkpt>
      <trkpt lat="48.66724" lon="-2.30166">
        <ele>58</ele>
        <time>2020-06-24T10:02:53.045Z</time>
      </trkpt>
      <trkpt lat="48.66724" lon="-2.30164">
        <ele>57</ele>
        <time>2020-06-24T10:02:54.045Z</time>
      </trkpt>
      <trkpt lat="48.66723" lon="-2.30161">
        <ele>57</ele>
        <time>2020-06-24T10:02:55.045Z</time>
      </trkpt>
      <trkpt lat="48.66723" lon="-2.30159">
        <ele>56</ele>
        <time>2020-06-24T10:02:56.045Z</time>
      </trkpt>
      <trkpt lat="48.66722" lon="-2.30157">
        <ele>55</ele>
        <time>2020-06-24T10:02:57.045Z</time>
      </trkpt>
      <trkpt lat="48.66722" lon="-2.30154">
        <ele>56</ele>
        <time>2020-06-24T10:02:58.045Z</time>
      </trkpt>
      <trkpt lat="48.66722" lon="-2.30152">
        <ele>56</ele>
        <time>2020-06-24T10:02:59.045Z</time>
      </trkpt>
      <trkpt lat="48.66722" lon="-2.3015">
        <ele>56</ele>
        <time>2020-06-24T10:03:00.045Z</time>
      </trkpt>
      <trkpt lat="48.66722" lon="-2.30148">
        <ele>55</ele>
        <time>2020-06-24T10:03:01.045Z</time>
      </trkpt>
      <trkpt lat="48.66721" lon="-2.30145">
        <ele>55</ele>
        <time>2020-06-24T10:03:02.045Z</time>
      </trkpt>
      <trkpt lat="48.66721" lon="-2.30143">
        <ele>55</ele>
        <time>2020-06-24T10:03:03.045Z</time>
      </trkpt>
      <trkpt lat="48.66721" lon="-2.30141">
        <ele>54</ele>
        <time>2020-06-24T10:03:04.045Z</time>
      </trkpt>
      <trkpt lat="48.66721" lon="-2.30139">
        <ele>54</ele>
        <time>2020-06-24T10:03:05.045Z</time>
      </trkpt>
      <trkpt lat="48.66721" lon="-2.30137">
        <ele>55</ele>
        <time>2020-06-24T10:03:06.045Z</time>
      </trkpt>
      <trkpt lat="48.66721" lon="-2.30134">
        <ele>55</ele>
        <time>2020-06-24T10:03:07.045Z</time>
      </trkpt>
      <trkpt lat="48.66721" lon="-2.30133">
        <ele>56</ele>
        <time>2020-06-24T10:03:08.045Z</time>
      </trkpt>
      <trkpt lat="48.66721" lon="-2.30131">
        <ele>57</ele>
        <time>2020-06-24T10:03:09.045Z</time>
      </trkpt>
      <trkpt lat="48.66721" lon="-2.30129">
        <ele>57</ele>
        <time>2020-06-24T10:03:10.045Z</time>
      </trkpt>
      <trkpt lat="48.66721" lon="-2.30127">
        <ele>58</ele>
        <time>2020-06-24T10:03:11.045Z</time>
      </trkpt>
      <trkpt lat="48.66721" lon="-2.30126">
        <ele>58</ele>
        <time>2020-06-24T10:03:12.045Z</time>
      </trkpt>
      <trkpt lat="48.66721" lon="-2.30125">
        <ele>59</ele>
        <time>2020-06-24T10:03:13.045Z</time>
      </trkpt>
      <trkpt lat="48.66721" lon="-2.30123">
        <ele>59</ele>
        <time>2020-06-24T10:03:14.045Z</time>
      </trkpt>
      <trkpt lat="48.66721" lon="-2.30122">
        <ele>59</ele>
        <time>2020-06-24T10:03:15.045Z</time>
      </trkpt>
      <trkpt lat="48.66721" lon="-2.30121">
        <ele>60</ele>
        <time>2020-06-24T10:03:16.045Z</time>
      </trkpt>
      <trkpt lat="48.66721" lon="-2.3012">
        <ele>60</ele>
        <time>2020-06-24T10:03:17.045Z</time>
      </trkpt>
      <trkpt lat="48.66721" lon="-2.30118">
        <ele>60</ele>
        <time>2020-06-24T10:03:18.045Z</time>
      </trkpt>
      <trkpt lat="48.66721" lon="-2.30116">
        <ele>60</ele>
        <time>2020-06-24T10:03:19.045Z</time>
      </trkpt>
      <trkpt lat="48.66721" lon="-2.30114">
        <ele>60</ele>
        <time>2020-06-24T10:03:20.045Z</time>
      </trkpt>
      <trkpt lat="48.66721" lon="-2.30113">
        <ele>60</ele>
        <time>2020-06-24T10:03:21.045Z</time>
      </trkpt>
      <trkpt lat="48.6672" lon="-2.30111">
        <ele>59</ele>
        <time>2020-06-24T10:03:22.045Z</time>
      </trkpt>
      <trkpt lat="48.6672" lon="-2.30109">
        <ele>59</ele>
        <time>2020-06-24T10:03:23.045Z</time>
      </trkpt>
      <trkpt lat="48.66719" lon="-2.30107">
        <ele>59</ele>
        <time>2020-06-24T10:03:24.045Z</time>
      </trkpt>
      <trkpt lat="48.66719" lon="-2.30105">
        <ele>59</ele>
        <time>2020-06-24T10:03:25.045Z</time>
      </trkpt>
      <trkpt lat="48.66718" lon="-2.30103">
        <ele>60</ele>
        <time>2020-06-24T10:03:26.045Z</time>
      </trkpt>
      <trkpt lat="48.66718" lon="-2.30101">
        <ele>60</ele>
        <time>2020-06-24T10:03:27.045Z</time>
      </trkpt>
      <trkpt lat="48.66717" lon="-2.301">
        <ele>60</ele>
        <time>2020-06-24T10:03:28.045Z</time>
      </trkpt>
      <trkpt lat="48.66717" lon="-2.30099">
        <ele>61</ele>
        <time>2020-06-24T10:03:29.045Z</time>
      </trkpt>
      <trkpt lat="48.66716" lon="-2.30097">
        <ele>61</ele>
        <time>2020-06-24T10:03:30.045Z</time>
      </trkpt>
      <trkpt lat="48.66715" lon="-2.30096">
        <ele>61</ele>
        <time>2020-06-24T10:03:31.045Z</time>
      </trkpt>
      <trkpt lat="48.66715" lon="-2.30094">
        <ele>61</ele>
        <time>2020-06-24T10:03:32.045Z</time>
      </trkpt>
      <trkpt lat="48.66714" lon="-2.30093">
        <ele>62</ele>
        <time>2020-06-24T10:03:33.045Z</time>
      </trkpt>
      <trkpt lat="48.66714" lon="-2.30091">
        <ele>62</ele>
        <time>2020-06-24T10:03:34.045Z</time>
      </trkpt>
      <trkpt lat="48.66713" lon="-2.30091">
        <ele>63</ele>
        <time>2020-06-24T10:03:35.045Z</time>
      </trkpt>
      <trkpt lat="48.66712" lon="-2.30091">
        <ele>64</ele>
        <time>2020-06-24T10:03:36.045Z</time>
      </trkpt>
      <trkpt lat="48.66711" lon="-2.3009">
        <ele>64</ele>
        <time>2020-06-24T10:03:37.045Z</time>
      </trkpt>
      <trkpt lat="48.66711" lon="-2.30089">
        <ele>64</ele>
        <time>2020-06-24T10:03:38.045Z</time>
      </trkpt>
      <trkpt lat="48.6671" lon="-2.30088">
        <ele>64</ele>
        <time>2020-06-24T10:03:39.045Z</time>
      </trkpt>
      <trkpt lat="48.6671" lon="-2.30088">
        <ele>65</ele>
        <time>2020-06-24T10:03:40.045Z</time>
      </trkpt>
      <trkpt lat="48.6671" lon="-2.30087">
        <ele>65</ele>
        <time>2020-06-24T10:03:41.045Z</time>
      </trkpt>
      <trkpt lat="48.6671" lon="-2.30087">
        <ele>66</ele>
        <time>2020-06-24T10:03:42.045Z</time>
      </trkpt>
      <trkpt lat="48.6671" lon="-2.30087">
        <ele>65</ele>
        <time>2020-06-24T10:03:43.045Z</time>
      </trkpt>
      <trkpt lat="48.6671" lon="-2.30087">
        <ele>66</ele>
        <time>2020-06-24T10:03:44.045Z</time>
      </trkpt>
      <trkpt lat="48.6671" lon="-2.30087">
        <ele>66</ele>
        <time>2020-06-24T10:03:45.045Z</time>
      </trkpt>
      <trkpt lat="48.6671" lon="-2.30087">
        <ele>66</ele>
        <time>2020-06-24T10:03:46.045Z</time>
      </trkpt>
      <trkpt lat="48.6671" lon="-2.30087">
        <ele>65</ele>
        <time>2020-06-24T10:03:47.045Z</time>
      </trkpt>
      <trkpt lat="48.6671" lon="-2.30087">
        <ele>65</ele>
        <time>2020-06-24T10:03:48.045Z</time>
      </trkpt>
      <trkpt lat="48.66714" lon="-2.3009">
        <ele>67</ele>
        <time>2020-06-24T10:03:49.045Z</time>
      </trkpt>
      <trkpt lat="48.66715" lon="-2.3009">
        <ele>64</ele>
        <time>2020-06-24T10:03:50.045Z</time>
      </trkpt>
      <trkpt lat="48.66717" lon="-2.30089">
        <ele>65</ele>
        <time>2020-06-24T10:03:51.045Z</time>
      </trkpt>
      <trkpt lat="48.66718" lon="-2.30088">
        <ele>65</ele>
        <time>2020-06-24T10:03:52.045Z</time>
      </trkpt>
      <trkpt lat="48.66718" lon="-2.30086">
        <ele>66</ele>
        <time>2020-06-24T10:03:53.045Z</time>
      </trkpt>
      <trkpt lat="48.66718" lon="-2.30085">
        <ele>66</ele>
        <time>2020-06-24T10:03:54.045Z</time>
      </trkpt>
      <trkpt lat="48.66718" lon="-2.30082">
        <ele>67</ele>
        <time>2020-06-24T10:03:55.045Z</time>
      </trkpt>
      <trkpt lat="48.66718" lon="-2.3008">
        <ele>68</ele>
        <time>2020-06-24T10:03:56.045Z</time>
      </trkpt>
      <trkpt lat="48.66717" lon="-2.30078">
        <ele>68</ele>
        <time>2020-06-24T10:03:57.045Z</time>
      </trkpt>
      <trkpt lat="48.66717" lon="-2.30075">
        <ele>68</ele>
        <time>2020-06-24T10:03:58.045Z</time>
      </trkpt>
      <trkpt lat="48.66716" lon="-2.30073">
        <ele>69</ele>
        <time>2020-06-24T10:03:59.045Z</time>
      </trkpt>
      <trkpt lat="48.66716" lon="-2.30071">
        <ele>68</ele>
        <time>2020-06-24T10:04:00.045Z</time>
      </trkpt>
      <trkpt lat="48.66715" lon="-2.30068">
        <ele>68</ele>
        <time>2020-06-24T10:04:01.045Z</time>
      </trkpt>
      <trkpt lat="48.66715" lon="-2.30066">
        <ele>68</ele>
        <time>2020-06-24T10:04:02.045Z</time>
      </trkpt>
      <trkpt lat="48.66715" lon="-2.30064">
        <ele>68</ele>
        <time>2020-06-24T10:04:03.045Z</time>
      </trkpt>
      <trkpt lat="48.66715" lon="-2.30062">
        <ele>68</ele>
        <time>2020-06-24T10:04:04.045Z</time>
      </trkpt>
      <trkpt lat="48.66714" lon="-2.3006">
        <ele>68</ele>
        <time>2020-06-24T10:04:05.045Z</time>
      </trkpt>
      <trkpt lat="48.66714" lon="-2.30058">
        <ele>68</ele>
        <time>2020-06-24T10:04:06.045Z</time>
      </trkpt>
      <trkpt lat="48.66714" lon="-2.30056">
        <ele>68</ele>
        <time>2020-06-24T10:04:07.045Z</time>
      </trkpt>
      <trkpt lat="48.66714" lon="-2.30054">
        <ele>68</ele>
        <time>2020-06-24T10:04:08.045Z</time>
      </trkpt>
      <trkpt lat="48.66714" lon="-2.30053">
        <ele>68</ele>
        <time>2020-06-24T10:04:09.045Z</time>
      </trkpt>
      <trkpt lat="48.66714" lon="-2.30052">
        <ele>68</ele>
        <time>2020-06-24T10:04:10.045Z</time>
      </trkpt>
      <trkpt lat="48.66714" lon="-2.30051">
        <ele>68</ele>
        <time>2020-06-24T10:04:11.045Z</time>
      </trkpt>
      <trkpt lat="48.66714" lon="-2.30051">
        <ele>69</ele>
        <time>2020-06-24T10:04:12.045Z</time>
      </trkpt>
      <trkpt lat="48.66714" lon="-2.30051">
        <ele>69</ele>
        <time>2020-06-24T10:04:13.045Z</time>
      </trkpt>
      <trkpt lat="48.66714" lon="-2.30051">
        <ele>68</ele>
        <time>2020-06-24T10:04:14.045Z</time>
      </trkpt>
      <trkpt lat="48.66714" lon="-2.30051">
        <ele>69</ele>
        <time>2020-06-24T10:04:15.045Z</time>
      </trkpt>
      <trkpt lat="48.66714" lon="-2.30051">
        <ele>69</ele>
        <time>2020-06-24T10:04:16.045Z</time>
      </trkpt>
      <trkpt lat="48.66713" lon="-2.30046">
        <ele>71</ele>
        <time>2020-06-24T10:04:17.049Z</time>
      </trkpt>
      <trkpt lat="48.66713" lon="-2.30044">
        <ele>71</ele>
        <time>2020-06-24T10:04:18.049Z</time>
      </trkpt>
      <trkpt lat="48.66714" lon="-2.30043">
        <ele>71</ele>
        <time>2020-06-24T10:04:19.049Z</time>
      </trkpt>
      <trkpt lat="48.66714" lon="-2.30041">
        <ele>71</ele>
        <time>2020-06-24T10:04:20.049Z</time>
      </trkpt>
      <trkpt lat="48.66713" lon="-2.30039">
        <ele>71</ele>
        <time>2020-06-24T10:04:21.049Z</time>
      </trkpt>
      <trkpt lat="48.66713" lon="-2.30037">
        <ele>71</ele>
        <time>2020-06-24T10:04:22.049Z</time>
      </trkpt>
      <trkpt lat="48.66713" lon="-2.30034">
        <ele>71</ele>
        <time>2020-06-24T10:04:23.049Z</time>
      </trkpt>
      <trkpt lat="48.66713" lon="-2.30032">
        <ele>71</ele>
        <time>2020-06-24T10:04:24.049Z</time>
      </trkpt>
      <trkpt lat="48.66713" lon="-2.30031">
        <ele>70</ele>
        <time>2020-06-24T10:04:25.049Z</time>
      </trkpt>
      <trkpt lat="48.66712" lon="-2.30029">
        <ele>70</ele>
        <time>2020-06-24T10:04:26.049Z</time>
      </trkpt>
      <trkpt lat="48.66712" lon="-2.30027">
        <ele>70</ele>
        <time>2020-06-24T10:04:27.049Z</time>
      </trkpt>
      <trkpt lat="48.66712" lon="-2.30025">
        <ele>70</ele>
        <time>2020-06-24T10:04:28.049Z</time>
      </trkpt>
      <trkpt lat="48.66712" lon="-2.30023">
        <ele>70</ele>
        <time>2020-06-24T10:04:29.049Z</time>
      </trkpt>
      <trkpt lat="48.66712" lon="-2.30021">
        <ele>70</ele>
        <time>2020-06-24T10:04:30.049Z</time>
      </trkpt>
      <trkpt lat="48.66712" lon="-2.30019">
        <ele>70</ele>
        <time>2020-06-24T10:04:31.049Z</time>
      </trkpt>
      <trkpt lat="48.66711" lon="-2.30017">
        <ele>70</ele>
        <time>2020-06-24T10:04:32.049Z</time>
      </trkpt>
      <trkpt lat="48.66711" lon="-2.30016">
        <ele>70</ele>
        <time>2020-06-24T10:04:33.049Z</time>
      </trkpt>
      <trkpt lat="48.66711" lon="-2.30013">
        <ele>71</ele>
        <time>2020-06-24T10:04:34.049Z</time>
      </trkpt>
      <trkpt lat="48.66711" lon="-2.30011">
        <ele>71</ele>
        <time>2020-06-24T10:04:35.049Z</time>
      </trkpt>
      <trkpt lat="48.66711" lon="-2.30009">
        <ele>71</ele>
        <time>2020-06-24T10:04:36.049Z</time>
      </trkpt>
      <trkpt lat="48.66711" lon="-2.30007">
        <ele>71</ele>
        <time>2020-06-24T10:04:37.049Z</time>
      </trkpt>
      <trkpt lat="48.66711" lon="-2.30005">
        <ele>72</ele>
        <time>2020-06-24T10:04:38.049Z</time>
      </trkpt>
      <trkpt lat="48.66711" lon="-2.30003">
        <ele>71</ele>
        <time>2020-06-24T10:04:39.049Z</time>
      </trkpt>
      <trkpt lat="48.66711" lon="-2.30001">
        <ele>72</ele>
        <time>2020-06-24T10:04:40.049Z</time>
      </trkpt>
      <trkpt lat="48.66711" lon="-2.3">
        <ele>72</ele>
        <time>2020-06-24T10:04:41.049Z</time>
      </trkpt>
      <trkpt lat="48.66711" lon="-2.29998">
        <ele>72</ele>
        <time>2020-06-24T10:04:42.049Z</time>
      </trkpt>
      <trkpt lat="48.66711" lon="-2.29996">
        <ele>72</ele>
        <time>2020-06-24T10:04:43.049Z</time>
      </trkpt>
      <trkpt lat="48.66711" lon="-2.29994">
        <ele>72</ele>
        <time>2020-06-24T10:04:44.049Z</time>
      </trkpt>
      <trkpt lat="48.6671" lon="-2.29992">
        <ele>72</ele>
        <time>2020-06-24T10:04:45.049Z</time>
      </trkpt>
      <trkpt lat="48.6671" lon="-2.2999">
        <ele>72</ele>
        <time>2020-06-24T10:04:46.049Z</time>
      </trkpt>
      <trkpt lat="48.6671" lon="-2.29988">
        <ele>72</ele>
        <time>2020-06-24T10:04:47.049Z</time>
      </trkpt>
      <trkpt lat="48.6671" lon="-2.29986">
        <ele>72</ele>
        <time>2020-06-24T10:04:48.049Z</time>
      </trkpt>
      <trkpt lat="48.66709" lon="-2.29984">
        <ele>72</ele>
        <time>2020-06-24T10:04:49.049Z</time>
      </trkpt>
      <trkpt lat="48.66709" lon="-2.29981">
        <ele>72</ele>
        <time>2020-06-24T10:04:50.049Z</time>
      </trkpt>
      <trkpt lat="48.66709" lon="-2.29979">
        <ele>72</ele>
        <time>2020-06-24T10:04:51.049Z</time>
      </trkpt>
      <trkpt lat="48.66709" lon="-2.29977">
        <ele>72</ele>
        <time>2020-06-24T10:04:52.049Z</time>
      </trkpt>
      <trkpt lat="48.66709" lon="-2.29975">
        <ele>72</ele>
        <time>2020-06-24T10:04:53.049Z</time>
      </trkpt>
      <trkpt lat="48.66709" lon="-2.29973">
        <ele>72</ele>
        <time>2020-06-24T10:04:54.049Z</time>
      </trkpt>
      <trkpt lat="48.66709" lon="-2.2997">
        <ele>72</ele>
        <time>2020-06-24T10:04:55.049Z</time>
      </trkpt>
      <trkpt lat="48.66709" lon="-2.29968">
        <ele>72</ele>
        <time>2020-06-24T10:04:56.049Z</time>
      </trkpt>
      <trkpt lat="48.6671" lon="-2.29966">
        <ele>73</ele>
        <time>2020-06-24T10:04:57.049Z</time>
      </trkpt>
      <trkpt lat="48.6671" lon="-2.29964">
        <ele>73</ele>
        <time>2020-06-24T10:04:58.049Z</time>
      </trkpt>
      <trkpt lat="48.6671" lon="-2.29962">
        <ele>73</ele>
        <time>2020-06-24T10:04:59.049Z</time>
      </trkpt>
      <trkpt lat="48.6671" lon="-2.2996">
        <ele>73</ele>
        <time>2020-06-24T10:05:00.049Z</time>
      </trkpt>
      <trkpt lat="48.6671" lon="-2.29958">
        <ele>73</ele>
        <time>2020-06-24T10:05:01.049Z</time>
      </trkpt>
      <trkpt lat="48.66709" lon="-2.29956">
        <ele>72</ele>
        <time>2020-06-24T10:05:02.049Z</time>
      </trkpt>
      <trkpt lat="48.66709" lon="-2.29954">
        <ele>72</ele>
        <time>2020-06-24T10:05:03.049Z</time>
      </trkpt>
      <trkpt lat="48.66709" lon="-2.29952">
        <ele>72</ele>
        <time>2020-06-24T10:05:04.049Z</time>
      </trkpt>
      <trkpt lat="48.66708" lon="-2.2995">
        <ele>72</ele>
        <time>2020-06-24T10:05:05.049Z</time>
      </trkpt>
      <trkpt lat="48.66708" lon="-2.29948">
        <ele>72</ele>
        <time>2020-06-24T10:05:06.049Z</time>
      </trkpt>
      <trkpt lat="48.66708" lon="-2.29946">
        <ele>72</ele>
        <time>2020-06-24T10:05:07.049Z</time>
      </trkpt>
      <trkpt lat="48.66708" lon="-2.29945">
        <ele>73</ele>
        <time>2020-06-24T10:05:08.049Z</time>
      </trkpt>
      <trkpt lat="48.66707" lon="-2.29944">
        <ele>73</ele>
        <time>2020-06-24T10:05:09.049Z</time>
      </trkpt>
      <trkpt lat="48.66708" lon="-2.29944">
        <ele>73</ele>
        <time>2020-06-24T10:05:10.049Z</time>
      </trkpt>
      <trkpt lat="48.66708" lon="-2.29944">
        <ele>73</ele>
        <time>2020-06-24T10:05:11.049Z</time>
      </trkpt>
      <trkpt lat="48.66708" lon="-2.29944">
        <ele>73</ele>
        <time>2020-06-24T10:05:12.049Z</time>
      </trkpt>
      <trkpt lat="48.66708" lon="-2.29944">
        <ele>73</ele>
        <time>2020-06-24T10:05:13.049Z</time>
      </trkpt>
      <trkpt lat="48.66708" lon="-2.29944">
        <ele>73</ele>
        <time>2020-06-24T10:05:14.049Z</time>
      </trkpt>
      <trkpt lat="48.66708" lon="-2.29943">
        <ele>73</ele>
        <time>2020-06-24T10:05:15.049Z</time>
      </trkpt>
      <trkpt lat="48.66705" lon="-2.29938">
        <ele>72</ele>
        <time>2020-06-24T10:05:16.064Z</time>
      </trkpt>
      <trkpt lat="48.66705" lon="-2.29937">
        <ele>72</ele>
        <time>2020-06-24T10:05:17.064Z</time>
      </trkpt>
      <trkpt lat="48.66704" lon="-2.29935">
        <ele>72</ele>
        <time>2020-06-24T10:05:18.064Z</time>
      </trkpt>
      <trkpt lat="48.66703" lon="-2.29933">
        <ele>72</ele>
        <time>2020-06-24T10:05:19.064Z</time>
      </trkpt>
      <trkpt lat="48.66702" lon="-2.29932">
        <ele>72</ele>
        <time>2020-06-24T10:05:20.064Z</time>
      </trkpt>
      <trkpt lat="48.66701" lon="-2.2993">
        <ele>72</ele>
        <time>2020-06-24T10:05:21.064Z</time>
      </trkpt>
      <trkpt lat="48.667" lon="-2.29929">
        <ele>72</ele>
        <time>2020-06-24T10:05:22.064Z</time>
      </trkpt>
      <trkpt lat="48.66699" lon="-2.29927">
        <ele>72</ele>
        <time>2020-06-24T10:05:23.064Z</time>
      </trkpt>
      <trkpt lat="48.66698" lon="-2.29926">
        <ele>72</ele>
        <time>2020-06-24T10:05:24.064Z</time>
      </trkpt>
      <trkpt lat="48.66697" lon="-2.29924">
        <ele>72</ele>
        <time>2020-06-24T10:05:25.064Z</time>
      </trkpt>
      <trkpt lat="48.66696" lon="-2.29922">
        <ele>72</ele>
        <time>2020-06-24T10:05:26.064Z</time>
      </trkpt>
      <trkpt lat="48.66695" lon="-2.2992">
        <ele>72</ele>
        <time>2020-06-24T10:05:27.064Z</time>
      </trkpt>
      <trkpt lat="48.66695" lon="-2.29918">
        <ele>72</ele>
        <time>2020-06-24T10:05:28.064Z</time>
      </trkpt>
      <trkpt lat="48.66694" lon="-2.29917">
        <ele>72</ele>
        <time>2020-06-24T10:05:29.064Z</time>
      </trkpt>
      <trkpt lat="48.66693" lon="-2.29915">
        <ele>73</ele>
        <time>2020-06-24T10:05:30.064Z</time>
      </trkpt>
      <trkpt lat="48.66693" lon="-2.29913">
        <ele>73</ele>
        <time>2020-06-24T10:05:31.064Z</time>
      </trkpt>
      <trkpt lat="48.66693" lon="-2.29911">
        <ele>73</ele>
        <time>2020-06-24T10:05:32.064Z</time>
      </trkpt>
      <trkpt lat="48.66692" lon="-2.29909">
        <ele>72</ele>
        <time>2020-06-24T10:05:33.064Z</time>
      </trkpt>
      <trkpt lat="48.66692" lon="-2.29907">
        <ele>72</ele>
        <time>2020-06-24T10:05:34.064Z</time>
      </trkpt>
      <trkpt lat="48.66691" lon="-2.29905">
        <ele>71</ele>
        <time>2020-06-24T10:05:35.064Z</time>
      </trkpt>
      <trkpt lat="48.66691" lon="-2.29902">
        <ele>71</ele>
        <time>2020-06-24T10:05:36.064Z</time>
      </trkpt>
      <trkpt lat="48.66691" lon="-2.299">
        <ele>71</ele>
        <time>2020-06-24T10:05:37.064Z</time>
      </trkpt>
      <trkpt lat="48.6669" lon="-2.29897">
        <ele>71</ele>
        <time>2020-06-24T10:05:38.064Z</time>
      </trkpt>
      <trkpt lat="48.6669" lon="-2.29895">
        <ele>71</ele>
        <time>2020-06-24T10:05:39.064Z</time>
      </trkpt>
      <trkpt lat="48.6669" lon="-2.29893">
        <ele>70</ele>
        <time>2020-06-24T10:05:40.064Z</time>
      </trkpt>
      <trkpt lat="48.6669" lon="-2.29891">
        <ele>70</ele>
        <time>2020-06-24T10:05:41.064Z</time>
      </trkpt>
      <trkpt lat="48.66689" lon="-2.29888">
        <ele>70</ele>
        <time>2020-06-24T10:05:42.064Z</time>
      </trkpt>
      <trkpt lat="48.66689" lon="-2.29886">
        <ele>69</ele>
        <time>2020-06-24T10:05:43.064Z</time>
      </trkpt>
      <trkpt lat="48.66689" lon="-2.29884">
        <ele>69</ele>
        <time>2020-06-24T10:05:44.064Z</time>
      </trkpt>
      <trkpt lat="48.66688" lon="-2.29881">
        <ele>68</ele>
        <time>2020-06-24T10:05:45.064Z</time>
      </trkpt>
      <trkpt lat="48.66688" lon="-2.29879">
        <ele>68</ele>
        <time>2020-06-24T10:05:46.064Z</time>
      </trkpt>
      <trkpt lat="48.66688" lon="-2.29877">
        <ele>67</ele>
        <time>2020-06-24T10:05:47.064Z</time>
      </trkpt>
      <trkpt lat="48.66688" lon="-2.29874">
        <ele>67</ele>
        <time>2020-06-24T10:05:48.064Z</time>
      </trkpt>
      <trkpt lat="48.66689" lon="-2.29872">
        <ele>67</ele>
        <time>2020-06-24T10:05:49.064Z</time>
      </trkpt>
      <trkpt lat="48.66689" lon="-2.29869">
        <ele>66</ele>
        <time>2020-06-24T10:05:50.064Z</time>
      </trkpt>
      <trkpt lat="48.66689" lon="-2.29867">
        <ele>66</ele>
        <time>2020-06-24T10:05:51.064Z</time>
      </trkpt>
      <trkpt lat="48.66689" lon="-2.29865">
        <ele>65</ele>
        <time>2020-06-24T10:05:52.064Z</time>
      </trkpt>
      <trkpt lat="48.66689" lon="-2.29863">
        <ele>66</ele>
        <time>2020-06-24T10:05:53.064Z</time>
      </trkpt>
      <trkpt lat="48.6669" lon="-2.29861">
        <ele>65</ele>
        <time>2020-06-24T10:05:54.064Z</time>
      </trkpt>
      <trkpt lat="48.6669" lon="-2.29858">
        <ele>65</ele>
        <time>2020-06-24T10:05:55.064Z</time>
      </trkpt>
      <trkpt lat="48.6669" lon="-2.29856">
        <ele>65</ele>
        <time>2020-06-24T10:05:56.064Z</time>
      </trkpt>
      <trkpt lat="48.6669" lon="-2.29854">
        <ele>65</ele>
        <time>2020-06-24T10:05:57.064Z</time>
      </trkpt>
      <trkpt lat="48.6669" lon="-2.29852">
        <ele>65</ele>
        <time>2020-06-24T10:05:58.064Z</time>
      </trkpt>
      <trkpt lat="48.66691" lon="-2.29849">
        <ele>64</ele>
        <time>2020-06-24T10:05:59.064Z</time>
      </trkpt>
      <trkpt lat="48.66691" lon="-2.29847">
        <ele>64</ele>
        <time>2020-06-24T10:06:00.064Z</time>
      </trkpt>
      <trkpt lat="48.66692" lon="-2.29844">
        <ele>64</ele>
        <time>2020-06-24T10:06:01.064Z</time>
      </trkpt>
      <trkpt lat="48.66692" lon="-2.29842">
        <ele>64</ele>
        <time>2020-06-24T10:06:02.064Z</time>
      </trkpt>
      <trkpt lat="48.66692" lon="-2.2984">
        <ele>64</ele>
        <time>2020-06-24T10:06:03.064Z</time>
      </trkpt>
      <trkpt lat="48.66691" lon="-2.29837">
        <ele>63</ele>
        <time>2020-06-24T10:06:04.064Z</time>
      </trkpt>
      <trkpt lat="48.66691" lon="-2.29835">
        <ele>63</ele>
        <time>2020-06-24T10:06:05.064Z</time>
      </trkpt>
      <trkpt lat="48.6669" lon="-2.29833">
        <ele>64</ele>
        <time>2020-06-24T10:06:06.064Z</time>
      </trkpt>
      <trkpt lat="48.6669" lon="-2.29831">
        <ele>64</ele>
        <time>2020-06-24T10:06:07.064Z</time>
      </trkpt>
      <trkpt lat="48.66689" lon="-2.29829">
        <ele>64</ele>
        <time>2020-06-24T10:06:08.064Z</time>
      </trkpt>
      <trkpt lat="48.66689" lon="-2.29827">
        <ele>64</ele>
        <time>2020-06-24T10:06:09.064Z</time>
      </trkpt>
      <trkpt lat="48.66688" lon="-2.29825">
        <ele>64</ele>
        <time>2020-06-24T10:06:10.064Z</time>
      </trkpt>
      <trkpt lat="48.66688" lon="-2.29823">
        <ele>64</ele>
        <time>2020-06-24T10:06:11.064Z</time>
      </trkpt>
      <trkpt lat="48.66687" lon="-2.29821">
        <ele>64</ele>
        <time>2020-06-24T10:06:12.064Z</time>
      </trkpt>
      <trkpt lat="48.66686" lon="-2.29819">
        <ele>64</ele>
        <time>2020-06-24T10:06:13.064Z</time>
      </trkpt>
      <trkpt lat="48.66686" lon="-2.29817">
        <ele>65</ele>
        <time>2020-06-24T10:06:14.064Z</time>
      </trkpt>
      <trkpt lat="48.66685" lon="-2.29815">
        <ele>64</ele>
        <time>2020-06-24T10:06:15.064Z</time>
      </trkpt>
      <trkpt lat="48.66685" lon="-2.29813">
        <ele>64</ele>
        <time>2020-06-24T10:06:16.064Z</time>
      </trkpt>
      <trkpt lat="48.66684" lon="-2.29811">
        <ele>64</ele>
        <time>2020-06-24T10:06:17.064Z</time>
      </trkpt>
      <trkpt lat="48.66683" lon="-2.29809">
        <ele>64</ele>
        <time>2020-06-24T10:06:18.064Z</time>
      </trkpt>
      <trkpt lat="48.66683" lon="-2.29807">
        <ele>64</ele>
        <time>2020-06-24T10:06:19.064Z</time>
      </trkpt>
      <trkpt lat="48.66682" lon="-2.29805">
        <ele>64</ele>
        <time>2020-06-24T10:06:20.064Z</time>
      </trkpt>
      <trkpt lat="48.66682" lon="-2.29803">
        <ele>64</ele>
        <time>2020-06-24T10:06:21.064Z</time>
      </trkpt>
      <trkpt lat="48.66682" lon="-2.29801">
        <ele>64</ele>
        <time>2020-06-24T10:06:22.064Z</time>
      </trkpt>
      <trkpt lat="48.66681" lon="-2.29799">
        <ele>63</ele>
        <time>2020-06-24T10:06:23.064Z</time>
      </trkpt>
      <trkpt lat="48.66681" lon="-2.29797">
        <ele>63</ele>
        <time>2020-06-24T10:06:24.064Z</time>
      </trkpt>
      <trkpt lat="48.6668" lon="-2.29795">
        <ele>62</ele>
        <time>2020-06-24T10:06:25.064Z</time>
      </trkpt>
      <trkpt lat="48.66679" lon="-2.29793">
        <ele>62</ele>
        <time>2020-06-24T10:06:26.064Z</time>
      </trkpt>
      <trkpt lat="48.66679" lon="-2.29791">
        <ele>61</ele>
        <time>2020-06-24T10:06:27.064Z</time>
      </trkpt>
      <trkpt lat="48.66678" lon="-2.29788">
        <ele>61</ele>
        <time>2020-06-24T10:06:28.064Z</time>
      </trkpt>
      <trkpt lat="48.66678" lon="-2.29786">
        <ele>60</ele>
        <time>2020-06-24T10:06:29.064Z</time>
      </trkpt>
      <trkpt lat="48.66677" lon="-2.29785">
        <ele>60</ele>
        <time>2020-06-24T10:06:30.064Z</time>
      </trkpt>
      <trkpt lat="48.66677" lon="-2.29783">
        <ele>59</ele>
        <time>2020-06-24T10:06:31.064Z</time>
      </trkpt>
      <trkpt lat="48.66677" lon="-2.29782">
        <ele>59</ele>
        <time>2020-06-24T10:06:32.064Z</time>
      </trkpt>
      <trkpt lat="48.66678" lon="-2.29781">
        <ele>59</ele>
        <time>2020-06-24T10:06:33.064Z</time>
      </trkpt>
      <trkpt lat="48.66678" lon="-2.2978">
        <ele>58</ele>
        <time>2020-06-24T10:06:34.064Z</time>
      </trkpt>
      <trkpt lat="48.66678" lon="-2.29779">
        <ele>58</ele>
        <time>2020-06-24T10:06:35.064Z</time>
      </trkpt>
      <trkpt lat="48.66678" lon="-2.29778">
        <ele>58</ele>
        <time>2020-06-24T10:06:36.064Z</time>
      </trkpt>
      <trkpt lat="48.66678" lon="-2.29777">
        <ele>57</ele>
        <time>2020-06-24T10:06:37.064Z</time>
      </trkpt>
      <trkpt lat="48.66678" lon="-2.29776">
        <ele>57</ele>
        <time>2020-06-24T10:06:38.064Z</time>
      </trkpt>
      <trkpt lat="48.66679" lon="-2.29775">
        <ele>57</ele>
        <time>2020-06-24T10:06:39.064Z</time>
      </trkpt>
      <trkpt lat="48.66679" lon="-2.29773">
        <ele>56</ele>
        <time>2020-06-24T10:06:40.064Z</time>
      </trkpt>
      <trkpt lat="48.6668" lon="-2.29771">
        <ele>56</ele>
        <time>2020-06-24T10:06:41.064Z</time>
      </trkpt>
      <trkpt lat="48.6668" lon="-2.2977">
        <ele>56</ele>
        <time>2020-06-24T10:06:42.064Z</time>
      </trkpt>
      <trkpt lat="48.66681" lon="-2.29768">
        <ele>55</ele>
        <time>2020-06-24T10:06:43.064Z</time>
      </trkpt>
      <trkpt lat="48.66681" lon="-2.29767">
        <ele>55</ele>
        <time>2020-06-24T10:06:44.064Z</time>
      </trkpt>
      <trkpt lat="48.66682" lon="-2.29767">
        <ele>55</ele>
        <time>2020-06-24T10:06:45.064Z</time>
      </trkpt>
      <trkpt lat="48.66684" lon="-2.29766">
        <ele>55</ele>
        <time>2020-06-24T10:06:46.064Z</time>
      </trkpt>
      <trkpt lat="48.66685" lon="-2.29765">
        <ele>54</ele>
        <time>2020-06-24T10:06:47.064Z</time>
      </trkpt>
      <trkpt lat="48.66686" lon="-2.29764">
        <ele>53</ele>
        <time>2020-06-24T10:06:48.064Z</time>
      </trkpt>
      <trkpt lat="48.66687" lon="-2.29762">
        <ele>53</ele>
        <time>2020-06-24T10:06:49.064Z</time>
      </trkpt>
      <trkpt lat="48.66688" lon="-2.2976">
        <ele>53</ele>
        <time>2020-06-24T10:06:50.064Z</time>
      </trkpt>
      <trkpt lat="48.66688" lon="-2.29757">
        <ele>53</ele>
        <time>2020-06-24T10:06:51.064Z</time>
      </trkpt>
      <trkpt lat="48.66688" lon="-2.29754">
        <ele>53</ele>
        <time>2020-06-24T10:06:52.064Z</time>
      </trkpt>
      <trkpt lat="48.66689" lon="-2.29751">
        <ele>55</ele>
        <time>2020-06-24T10:06:53.064Z</time>
      </trkpt>
      <trkpt lat="48.66689" lon="-2.29749">
        <ele>55</ele>
        <time>2020-06-24T10:06:54.064Z</time>
      </trkpt>
      <trkpt lat="48.6669" lon="-2.29746">
        <ele>55</ele>
        <time>2020-06-24T10:06:55.064Z</time>
      </trkpt>
      <trkpt lat="48.6669" lon="-2.29744">
        <ele>56</ele>
        <time>2020-06-24T10:06:56.064Z</time>
      </trkpt>
      <trkpt lat="48.66691" lon="-2.29742">
        <ele>57</ele>
        <time>2020-06-24T10:06:57.064Z</time>
      </trkpt>
      <trkpt lat="48.66692" lon="-2.29739">
        <ele>57</ele>
        <time>2020-06-24T10:06:58.064Z</time>
      </trkpt>
      <trkpt lat="48.66692" lon="-2.29737">
        <ele>57</ele>
        <time>2020-06-24T10:06:59.064Z</time>
      </trkpt>
      <trkpt lat="48.66692" lon="-2.29734">
        <ele>57</ele>
        <time>2020-06-24T10:07:00.064Z</time>
      </trkpt>
      <trkpt lat="48.66693" lon="-2.29732">
        <ele>56</ele>
        <time>2020-06-24T10:07:01.064Z</time>
      </trkpt>
      <trkpt lat="48.66694" lon="-2.29731">
        <ele>56</ele>
        <time>2020-06-24T10:07:02.064Z</time>
      </trkpt>
      <trkpt lat="48.66695" lon="-2.29729">
        <ele>56</ele>
        <time>2020-06-24T10:07:03.064Z</time>
      </trkpt>
      <trkpt lat="48.66696" lon="-2.29729">
        <ele>56</ele>
        <time>2020-06-24T10:07:04.064Z</time>
      </trkpt>
      <trkpt lat="48.66697" lon="-2.29728">
        <ele>56</ele>
        <time>2020-06-24T10:07:05.064Z</time>
      </trkpt>
      <trkpt lat="48.66699" lon="-2.29728">
        <ele>56</ele>
        <time>2020-06-24T10:07:06.064Z</time>
      </trkpt>
      <trkpt lat="48.667" lon="-2.29728">
        <ele>56</ele>
        <time>2020-06-24T10:07:07.064Z</time>
      </trkpt>
      <trkpt lat="48.66702" lon="-2.29728">
        <ele>56</ele>
        <time>2020-06-24T10:07:08.064Z</time>
      </trkpt>
      <trkpt lat="48.66703" lon="-2.29728">
        <ele>56</ele>
        <time>2020-06-24T10:07:09.064Z</time>
      </trkpt>
      <trkpt lat="48.66704" lon="-2.29728">
        <ele>55</ele>
        <time>2020-06-24T10:07:10.064Z</time>
      </trkpt>
      <trkpt lat="48.66705" lon="-2.29727">
        <ele>55</ele>
        <time>2020-06-24T10:07:11.064Z</time>
      </trkpt>
      <trkpt lat="48.66706" lon="-2.29726">
        <ele>55</ele>
        <time>2020-06-24T10:07:12.064Z</time>
      </trkpt>
      <trkpt lat="48.66706" lon="-2.29725">
        <ele>55</ele>
        <time>2020-06-24T10:07:13.064Z</time>
      </trkpt>
      <trkpt lat="48.66707" lon="-2.29723">
        <ele>54</ele>
        <time>2020-06-24T10:07:14.064Z</time>
      </trkpt>
      <trkpt lat="48.66708" lon="-2.29722">
        <ele>54</ele>
        <time>2020-06-24T10:07:15.064Z</time>
      </trkpt>
      <trkpt lat="48.66708" lon="-2.2972">
        <ele>53</ele>
        <time>2020-06-24T10:07:16.064Z</time>
      </trkpt>
      <trkpt lat="48.66709" lon="-2.29718">
        <ele>53</ele>
        <time>2020-06-24T10:07:17.064Z</time>
      </trkpt>
      <trkpt lat="48.66709" lon="-2.29716">
        <ele>53</ele>
        <time>2020-06-24T10:07:18.064Z</time>
      </trkpt>
      <trkpt lat="48.6671" lon="-2.29714">
        <ele>53</ele>
        <time>2020-06-24T10:07:19.064Z</time>
      </trkpt>
      <trkpt lat="48.6671" lon="-2.29712">
        <ele>52</ele>
        <time>2020-06-24T10:07:20.064Z</time>
      </trkpt>
      <trkpt lat="48.66711" lon="-2.29711">
        <ele>52</ele>
        <time>2020-06-24T10:07:21.064Z</time>
      </trkpt>
      <trkpt lat="48.66712" lon="-2.29709">
        <ele>52</ele>
        <time>2020-06-24T10:07:22.064Z</time>
      </trkpt>
      <trkpt lat="48.66713" lon="-2.29708">
        <ele>51</ele>
        <time>2020-06-24T10:07:23.064Z</time>
      </trkpt>
      <trkpt lat="48.66714" lon="-2.29706">
        <ele>51</ele>
        <time>2020-06-24T10:07:24.064Z</time>
      </trkpt>
      <trkpt lat="48.66715" lon="-2.29705">
        <ele>50</ele>
        <time>2020-06-24T10:07:25.064Z</time>
      </trkpt>
      <trkpt lat="48.66716" lon="-2.29703">
        <ele>50</ele>
        <time>2020-06-24T10:07:26.064Z</time>
      </trkpt>
      <trkpt lat="48.66716" lon="-2.29702">
        <ele>51</ele>
        <time>2020-06-24T10:07:27.064Z</time>
      </trkpt>
      <trkpt lat="48.66717" lon="-2.297">
        <ele>50</ele>
        <time>2020-06-24T10:07:28.064Z</time>
      </trkpt>
      <trkpt lat="48.66717" lon="-2.29698">
        <ele>50</ele>
        <time>2020-06-24T10:07:29.064Z</time>
      </trkpt>
      <trkpt lat="48.66717" lon="-2.29696">
        <ele>50</ele>
        <time>2020-06-24T10:07:30.064Z</time>
      </trkpt>
      <trkpt lat="48.66717" lon="-2.29694">
        <ele>51</ele>
        <time>2020-06-24T10:07:31.064Z</time>
      </trkpt>
      <trkpt lat="48.66717" lon="-2.29691">
        <ele>51</ele>
        <time>2020-06-24T10:07:32.064Z</time>
      </trkpt>
      <trkpt lat="48.66717" lon="-2.29688">
        <ele>51</ele>
        <time>2020-06-24T10:07:33.064Z</time>
      </trkpt>
      <trkpt lat="48.66716" lon="-2.29686">
        <ele>51</ele>
        <time>2020-06-24T10:07:34.064Z</time>
      </trkpt>
      <trkpt lat="48.66716" lon="-2.29683">
        <ele>51</ele>
        <time>2020-06-24T10:07:35.064Z</time>
      </trkpt>
      <trkpt lat="48.66716" lon="-2.29681">
        <ele>51</ele>
        <time>2020-06-24T10:07:36.064Z</time>
      </trkpt>
      <trkpt lat="48.66716" lon="-2.29679">
        <ele>51</ele>
        <time>2020-06-24T10:07:37.064Z</time>
      </trkpt>
      <trkpt lat="48.66716" lon="-2.29676">
        <ele>50</ele>
        <time>2020-06-24T10:07:38.064Z</time>
      </trkpt>
      <trkpt lat="48.66716" lon="-2.29674">
        <ele>50</ele>
        <time>2020-06-24T10:07:39.064Z</time>
      </trkpt>
      <trkpt lat="48.66716" lon="-2.29672">
        <ele>51</ele>
        <time>2020-06-24T10:07:40.064Z</time>
      </trkpt>
      <trkpt lat="48.66716" lon="-2.2967">
        <ele>51</ele>
        <time>2020-06-24T10:07:41.064Z</time>
      </trkpt>
      <trkpt lat="48.66716" lon="-2.29668">
        <ele>51</ele>
        <time>2020-06-24T10:07:42.064Z</time>
      </trkpt>
      <trkpt lat="48.66716" lon="-2.29666">
        <ele>51</ele>
        <time>2020-06-24T10:07:43.064Z</time>
      </trkpt>
      <trkpt lat="48.66716" lon="-2.29664">
        <ele>51</ele>
        <time>2020-06-24T10:07:44.064Z</time>
      </trkpt>
      <trkpt lat="48.66716" lon="-2.29662">
        <ele>51</ele>
        <time>2020-06-24T10:07:45.064Z</time>
      </trkpt>
      <trkpt lat="48.66716" lon="-2.2966">
        <ele>51</ele>
        <time>2020-06-24T10:07:46.064Z</time>
      </trkpt>
      <trkpt lat="48.66716" lon="-2.29658">
        <ele>51</ele>
        <time>2020-06-24T10:07:47.064Z</time>
      </trkpt>
      <trkpt lat="48.66716" lon="-2.29655">
        <ele>51</ele>
        <time>2020-06-24T10:07:48.064Z</time>
      </trkpt>
      <trkpt lat="48.66717" lon="-2.29653">
        <ele>52</ele>
        <time>2020-06-24T10:07:49.064Z</time>
      </trkpt>
      <trkpt lat="48.66717" lon="-2.29651">
        <ele>52</ele>
        <time>2020-06-24T10:07:50.064Z</time>
      </trkpt>
      <trkpt lat="48.66717" lon="-2.29649">
        <ele>52</ele>
        <time>2020-06-24T10:07:51.064Z</time>
      </trkpt>
      <trkpt lat="48.66718" lon="-2.29647">
        <ele>52</ele>
        <time>2020-06-24T10:07:52.064Z</time>
      </trkpt>
      <trkpt lat="48.66718" lon="-2.29645">
        <ele>52</ele>
        <time>2020-06-24T10:07:53.064Z</time>
      </trkpt>
      <trkpt lat="48.66718" lon="-2.29643">
        <ele>52</ele>
        <time>2020-06-24T10:07:54.064Z</time>
      </trkpt>
      <trkpt lat="48.66718" lon="-2.2964">
        <ele>52</ele>
        <time>2020-06-24T10:07:55.064Z</time>
      </trkpt>
      <trkpt lat="48.66719" lon="-2.29638">
        <ele>52</ele>
        <time>2020-06-24T10:07:56.064Z</time>
      </trkpt>
      <trkpt lat="48.66719" lon="-2.29636">
        <ele>52</ele>
        <time>2020-06-24T10:07:57.064Z</time>
      </trkpt>
      <trkpt lat="48.66719" lon="-2.29634">
        <ele>52</ele>
        <time>2020-06-24T10:07:58.064Z</time>
      </trkpt>
      <trkpt lat="48.6672" lon="-2.29632">
        <ele>52</ele>
        <time>2020-06-24T10:07:59.064Z</time>
      </trkpt>
      <trkpt lat="48.6672" lon="-2.2963">
        <ele>52</ele>
        <time>2020-06-24T10:08:00.064Z</time>
      </trkpt>
      <trkpt lat="48.6672" lon="-2.29628">
        <ele>52</ele>
        <time>2020-06-24T10:08:01.064Z</time>
      </trkpt>
      <trkpt lat="48.66721" lon="-2.29626">
        <ele>52</ele>
        <time>2020-06-24T10:08:02.064Z</time>
      </trkpt>
      <trkpt lat="48.66721" lon="-2.29624">
        <ele>53</ele>
        <time>2020-06-24T10:08:03.064Z</time>
      </trkpt>
      <trkpt lat="48.66721" lon="-2.29622">
        <ele>52</ele>
        <time>2020-06-24T10:08:04.064Z</time>
      </trkpt>
      <trkpt lat="48.66721" lon="-2.2962">
        <ele>52</ele>
        <time>2020-06-24T10:08:05.064Z</time>
      </trkpt>
      <trkpt lat="48.66721" lon="-2.29618">
        <ele>53</ele>
        <time>2020-06-24T10:08:06.064Z</time>
      </trkpt>
      <trkpt lat="48.66721" lon="-2.29615">
        <ele>53</ele>
        <time>2020-06-24T10:08:07.064Z</time>
      </trkpt>
      <trkpt lat="48.66721" lon="-2.29613">
        <ele>53</ele>
        <time>2020-06-24T10:08:08.064Z</time>
      </trkpt>
      <trkpt lat="48.66721" lon="-2.29611">
        <ele>53</ele>
        <time>2020-06-24T10:08:09.064Z</time>
      </trkpt>
      <trkpt lat="48.66721" lon="-2.29608">
        <ele>53</ele>
        <time>2020-06-24T10:08:10.064Z</time>
      </trkpt>
      <trkpt lat="48.6672" lon="-2.29606">
        <ele>53</ele>
        <time>2020-06-24T10:08:11.064Z</time>
      </trkpt>
      <trkpt lat="48.66721" lon="-2.29604">
        <ele>52</ele>
        <time>2020-06-24T10:08:12.064Z</time>
      </trkpt>
      <trkpt lat="48.66721" lon="-2.29601">
        <ele>52</ele>
        <time>2020-06-24T10:08:13.064Z</time>
      </trkpt>
      <trkpt lat="48.66721" lon="-2.29599">
        <ele>52</ele>
        <time>2020-06-24T10:08:14.064Z</time>
      </trkpt>
      <trkpt lat="48.66721" lon="-2.29597">
        <ele>52</ele>
        <time>2020-06-24T10:08:15.064Z</time>
      </trkpt>
      <trkpt lat="48.66721" lon="-2.29594">
        <ele>52</ele>
        <time>2020-06-24T10:08:16.064Z</time>
      </trkpt>
      <trkpt lat="48.66722" lon="-2.29592">
        <ele>52</ele>
        <time>2020-06-24T10:08:17.064Z</time>
      </trkpt>
      <trkpt lat="48.66722" lon="-2.2959">
        <ele>52</ele>
        <time>2020-06-24T10:08:18.064Z</time>
      </trkpt>
      <trkpt lat="48.66723" lon="-2.29589">
        <ele>52</ele>
        <time>2020-06-24T10:08:19.064Z</time>
      </trkpt>
      <trkpt lat="48.66724" lon="-2.29587">
        <ele>52</ele>
        <time>2020-06-24T10:08:20.064Z</time>
      </trkpt>
      <trkpt lat="48.66724" lon="-2.29585">
        <ele>52</ele>
        <time>2020-06-24T10:08:21.064Z</time>
      </trkpt>
      <trkpt lat="48.66724" lon="-2.29583">
        <ele>52</ele>
        <time>2020-06-24T10:08:22.064Z</time>
      </trkpt>
      <trkpt lat="48.66725" lon="-2.29581">
        <ele>52</ele>
        <time>2020-06-24T10:08:23.064Z</time>
      </trkpt>
      <trkpt lat="48.66726" lon="-2.2958">
        <ele>51</ele>
        <time>2020-06-24T10:08:24.064Z</time>
      </trkpt>
      <trkpt lat="48.66727" lon="-2.29578">
        <ele>52</ele>
        <time>2020-06-24T10:08:25.064Z</time>
      </trkpt>
      <trkpt lat="48.66728" lon="-2.29577">
        <ele>52</ele>
        <time>2020-06-24T10:08:26.064Z</time>
      </trkpt>
      <trkpt lat="48.6673" lon="-2.29576">
        <ele>51</ele>
        <time>2020-06-24T10:08:27.064Z</time>
      </trkpt>
      <trkpt lat="48.66731" lon="-2.29575">
        <ele>51</ele>
        <time>2020-06-24T10:08:28.064Z</time>
      </trkpt>
      <trkpt lat="48.66732" lon="-2.29574">
        <ele>51</ele>
        <time>2020-06-24T10:08:29.064Z</time>
      </trkpt>
      <trkpt lat="48.66734" lon="-2.29573">
        <ele>51</ele>
        <time>2020-06-24T10:08:30.064Z</time>
      </trkpt>
      <trkpt lat="48.66735" lon="-2.29571">
        <ele>51</ele>
        <time>2020-06-24T10:08:31.064Z</time>
      </trkpt>
      <trkpt lat="48.66735" lon="-2.29569">
        <ele>51</ele>
        <time>2020-06-24T10:08:32.064Z</time>
      </trkpt>
      <trkpt lat="48.66736" lon="-2.29567">
        <ele>51</ele>
        <time>2020-06-24T10:08:33.064Z</time>
      </trkpt>
      <trkpt lat="48.66736" lon="-2.29565">
        <ele>50</ele>
        <time>2020-06-24T10:08:34.064Z</time>
      </trkpt>
      <trkpt lat="48.66737" lon="-2.29562">
        <ele>50</ele>
        <time>2020-06-24T10:08:35.064Z</time>
      </trkpt>
      <trkpt lat="48.66737" lon="-2.2956">
        <ele>50</ele>
        <time>2020-06-24T10:08:36.064Z</time>
      </trkpt>
      <trkpt lat="48.66737" lon="-2.29557">
        <ele>50</ele>
        <time>2020-06-24T10:08:37.064Z</time>
      </trkpt>
      <trkpt lat="48.66737" lon="-2.29555">
        <ele>50</ele>
        <time>2020-06-24T10:08:38.064Z</time>
      </trkpt>
      <trkpt lat="48.66738" lon="-2.29553">
        <ele>50</ele>
        <time>2020-06-24T10:08:39.064Z</time>
      </trkpt>
      <trkpt lat="48.66738" lon="-2.29551">
        <ele>50</ele>
        <time>2020-06-24T10:08:40.064Z</time>
      </trkpt>
      <trkpt lat="48.66739" lon="-2.29549">
        <ele>50</ele>
        <time>2020-06-24T10:08:41.064Z</time>
      </trkpt>
      <trkpt lat="48.66739" lon="-2.29546">
        <ele>50</ele>
        <time>2020-06-24T10:08:42.064Z</time>
      </trkpt>
      <trkpt lat="48.6674" lon="-2.29544">
        <ele>51</ele>
        <time>2020-06-24T10:08:43.064Z</time>
      </trkpt>
      <trkpt lat="48.6674" lon="-2.29542">
        <ele>51</ele>
        <time>2020-06-24T10:08:44.064Z</time>
      </trkpt>
      <trkpt lat="48.66741" lon="-2.29541">
        <ele>51</ele>
        <time>2020-06-24T10:08:45.064Z</time>
      </trkpt>
      <trkpt lat="48.66741" lon="-2.29539">
        <ele>51</ele>
        <time>2020-06-24T10:08:46.064Z</time>
      </trkpt>
      <trkpt lat="48.66741" lon="-2.29537">
        <ele>51</ele>
        <time>2020-06-24T10:08:47.064Z</time>
      </trkpt>
      <trkpt lat="48.66741" lon="-2.29536">
        <ele>51</ele>
        <time>2020-06-24T10:08:48.064Z</time>
      </trkpt>
      <trkpt lat="48.66741" lon="-2.29535">
        <ele>52</ele>
        <time>2020-06-24T10:08:49.064Z</time>
      </trkpt>
      <trkpt lat="48.66741" lon="-2.29533">
        <ele>52</ele>
        <time>2020-06-24T10:08:50.064Z</time>
      </trkpt>
      <trkpt lat="48.66741" lon="-2.29531">
        <ele>51</ele>
        <time>2020-06-24T10:08:51.064Z</time>
      </trkpt>
      <trkpt lat="48.66741" lon="-2.29529">
        <ele>51</ele>
        <time>2020-06-24T10:08:52.064Z</time>
      </trkpt>
      <trkpt lat="48.66742" lon="-2.29528">
        <ele>51</ele>
        <time>2020-06-24T10:08:53.064Z</time>
      </trkpt>
      <trkpt lat="48.66743" lon="-2.29527">
        <ele>51</ele>
        <time>2020-06-24T10:08:54.064Z</time>
      </trkpt>
      <trkpt lat="48.66744" lon="-2.29525">
        <ele>51</ele>
        <time>2020-06-24T10:08:55.064Z</time>
      </trkpt>
      <trkpt lat="48.66745" lon="-2.29523">
        <ele>51</ele>
        <time>2020-06-24T10:08:56.064Z</time>
      </trkpt>
      <trkpt lat="48.66746" lon="-2.29521">
        <ele>51</ele>
        <time>2020-06-24T10:08:57.064Z</time>
      </trkpt>
      <trkpt lat="48.66746" lon="-2.29519">
        <ele>51</ele>
        <time>2020-06-24T10:08:58.064Z</time>
      </trkpt>
      <trkpt lat="48.66746" lon="-2.29517">
        <ele>50</ele>
        <time>2020-06-24T10:08:59.064Z</time>
      </trkpt>
      <trkpt lat="48.66746" lon="-2.29515">
        <ele>50</ele>
        <time>2020-06-24T10:09:00.064Z</time>
      </trkpt>
      <trkpt lat="48.66746" lon="-2.29514">
        <ele>50</ele>
        <time>2020-06-24T10:09:01.064Z</time>
      </trkpt>
      <trkpt lat="48.66745" lon="-2.29513">
        <ele>50</ele>
        <time>2020-06-24T10:09:02.064Z</time>
      </trkpt>
      <trkpt lat="48.66745" lon="-2.29511">
        <ele>49</ele>
        <time>2020-06-24T10:09:03.064Z</time>
      </trkpt>
      <trkpt lat="48.66745" lon="-2.29509">
        <ele>49</ele>
        <time>2020-06-24T10:09:04.064Z</time>
      </trkpt>
      <trkpt lat="48.66745" lon="-2.29507">
        <ele>49</ele>
        <time>2020-06-24T10:09:05.064Z</time>
      </trkpt>
      <trkpt lat="48.66745" lon="-2.29505">
        <ele>49</ele>
        <time>2020-06-24T10:09:06.064Z</time>
      </trkpt>
      <trkpt lat="48.66745" lon="-2.29503">
        <ele>49</ele>
        <time>2020-06-24T10:09:07.064Z</time>
      </trkpt>
      <trkpt lat="48.66745" lon="-2.29501">
        <ele>49</ele>
        <time>2020-06-24T10:09:08.064Z</time>
      </trkpt>
      <trkpt lat="48.66745" lon="-2.29499">
        <ele>48</ele>
        <time>2020-06-24T10:09:09.064Z</time>
      </trkpt>
      <trkpt lat="48.66745" lon="-2.29496">
        <ele>48</ele>
        <time>2020-06-24T10:09:10.064Z</time>
      </trkpt>
      <trkpt lat="48.66746" lon="-2.29494">
        <ele>48</ele>
        <time>2020-06-24T10:09:11.064Z</time>
      </trkpt>
      <trkpt lat="48.66746" lon="-2.29492">
        <ele>48</ele>
        <time>2020-06-24T10:09:12.064Z</time>
      </trkpt>
      <trkpt lat="48.66746" lon="-2.2949">
        <ele>48</ele>
        <time>2020-06-24T10:09:13.064Z</time>
      </trkpt>
      <trkpt lat="48.66746" lon="-2.29488">
        <ele>48</ele>
        <time>2020-06-24T10:09:14.064Z</time>
      </trkpt>
      <trkpt lat="48.66746" lon="-2.29486">
        <ele>48</ele>
        <time>2020-06-24T10:09:15.064Z</time>
      </trkpt>
      <trkpt lat="48.66747" lon="-2.29484">
        <ele>48</ele>
        <time>2020-06-24T10:09:16.064Z</time>
      </trkpt>
      <trkpt lat="48.66747" lon="-2.29481">
        <ele>48</ele>
        <time>2020-06-24T10:09:17.064Z</time>
      </trkpt>
      <trkpt lat="48.66747" lon="-2.29479">
        <ele>48</ele>
        <time>2020-06-24T10:09:18.064Z</time>
      </trkpt>
      <trkpt lat="48.66748" lon="-2.29477">
        <ele>48</ele>
        <time>2020-06-24T10:09:19.064Z</time>
      </trkpt>
      <trkpt lat="48.66748" lon="-2.29475">
        <ele>48</ele>
        <time>2020-06-24T10:09:20.064Z</time>
      </trkpt>
      <trkpt lat="48.66748" lon="-2.29473">
        <ele>49</ele>
        <time>2020-06-24T10:09:21.064Z</time>
      </trkpt>
      <trkpt lat="48.66749" lon="-2.29471">
        <ele>49</ele>
        <time>2020-06-24T10:09:22.064Z</time>
      </trkpt>
      <trkpt lat="48.66749" lon="-2.2947">
        <ele>49</ele>
        <time>2020-06-24T10:09:23.064Z</time>
      </trkpt>
      <trkpt lat="48.6675" lon="-2.29468">
        <ele>49</ele>
        <time>2020-06-24T10:09:24.064Z</time>
      </trkpt>
      <trkpt lat="48.6675" lon="-2.29466">
        <ele>48</ele>
        <time>2020-06-24T10:09:25.064Z</time>
      </trkpt>
      <trkpt lat="48.66751" lon="-2.29465">
        <ele>48</ele>
        <time>2020-06-24T10:09:26.064Z</time>
      </trkpt>
      <trkpt lat="48.66751" lon="-2.29463">
        <ele>48</ele>
        <time>2020-06-24T10:09:27.064Z</time>
      </trkpt>
      <trkpt lat="48.66752" lon="-2.29461">
        <ele>48</ele>
        <time>2020-06-24T10:09:28.064Z</time>
      </trkpt>
      <trkpt lat="48.66752" lon="-2.29459">
        <ele>47</ele>
        <time>2020-06-24T10:09:29.064Z</time>
      </trkpt>
      <trkpt lat="48.66753" lon="-2.29457">
        <ele>47</ele>
        <time>2020-06-24T10:09:30.064Z</time>
      </trkpt>
      <trkpt lat="48.66753" lon="-2.29455">
        <ele>48</ele>
        <time>2020-06-24T10:09:31.064Z</time>
      </trkpt>
      <trkpt lat="48.66753" lon="-2.29452">
        <ele>47</ele>
        <time>2020-06-24T10:09:32.064Z</time>
      </trkpt>
      <trkpt lat="48.66753" lon="-2.2945">
        <ele>47</ele>
        <time>2020-06-24T10:09:33.064Z</time>
      </trkpt>
      <trkpt lat="48.66753" lon="-2.29448">
        <ele>47</ele>
        <time>2020-06-24T10:09:34.064Z</time>
      </trkpt>
      <trkpt lat="48.66754" lon="-2.29446">
        <ele>47</ele>
        <time>2020-06-24T10:09:35.064Z</time>
      </trkpt>
      <trkpt lat="48.66754" lon="-2.29444">
        <ele>47</ele>
        <time>2020-06-24T10:09:36.064Z</time>
      </trkpt>
      <trkpt lat="48.66754" lon="-2.29442">
        <ele>47</ele>
        <time>2020-06-24T10:09:37.064Z</time>
      </trkpt>
      <trkpt lat="48.66754" lon="-2.2944">
        <ele>48</ele>
        <time>2020-06-24T10:09:38.064Z</time>
      </trkpt>
      <trkpt lat="48.66754" lon="-2.29437">
        <ele>48</ele>
        <time>2020-06-24T10:09:39.064Z</time>
      </trkpt>
      <trkpt lat="48.66754" lon="-2.29435">
        <ele>48</ele>
        <time>2020-06-24T10:09:40.064Z</time>
      </trkpt>
      <trkpt lat="48.66755" lon="-2.29433">
        <ele>48</ele>
        <time>2020-06-24T10:09:41.064Z</time>
      </trkpt>
      <trkpt lat="48.66755" lon="-2.29431">
        <ele>48</ele>
        <time>2020-06-24T10:09:42.064Z</time>
      </trkpt>
      <trkpt lat="48.66755" lon="-2.29429">
        <ele>47</ele>
        <time>2020-06-24T10:09:43.064Z</time>
      </trkpt>
      <trkpt lat="48.66755" lon="-2.29427">
        <ele>48</ele>
        <time>2020-06-24T10:09:44.064Z</time>
      </trkpt>
      <trkpt lat="48.66756" lon="-2.29425">
        <ele>48</ele>
        <time>2020-06-24T10:09:45.064Z</time>
      </trkpt>
      <trkpt lat="48.66756" lon="-2.29423">
        <ele>48</ele>
        <time>2020-06-24T10:09:46.064Z</time>
      </trkpt>
      <trkpt lat="48.66757" lon="-2.29421">
        <ele>48</ele>
        <time>2020-06-24T10:09:47.064Z</time>
      </trkpt>
      <trkpt lat="48.66757" lon="-2.29419">
        <ele>48</ele>
        <time>2020-06-24T10:09:48.064Z</time>
      </trkpt>
      <trkpt lat="48.66758" lon="-2.29417">
        <ele>48</ele>
        <time>2020-06-24T10:09:49.064Z</time>
      </trkpt>
      <trkpt lat="48.66758" lon="-2.29415">
        <ele>47</ele>
        <time>2020-06-24T10:09:50.064Z</time>
      </trkpt>
      <trkpt lat="48.66758" lon="-2.29413">
        <ele>47</ele>
        <time>2020-06-24T10:09:51.064Z</time>
      </trkpt>
      <trkpt lat="48.66759" lon="-2.29411">
        <ele>48</ele>
        <time>2020-06-24T10:09:52.064Z</time>
      </trkpt>
      <trkpt lat="48.66759" lon="-2.29409">
        <ele>48</ele>
        <time>2020-06-24T10:09:53.064Z</time>
      </trkpt>
      <trkpt lat="48.6676" lon="-2.29407">
        <ele>47</ele>
        <time>2020-06-24T10:09:54.064Z</time>
      </trkpt>
      <trkpt lat="48.6676" lon="-2.29405">
        <ele>48</ele>
        <time>2020-06-24T10:09:55.064Z</time>
      </trkpt>
      <trkpt lat="48.6676" lon="-2.29403">
        <ele>48</ele>
        <time>2020-06-24T10:09:56.064Z</time>
      </trkpt>
      <trkpt lat="48.6676" lon="-2.29401">
        <ele>48</ele>
        <time>2020-06-24T10:09:57.064Z</time>
      </trkpt>
      <trkpt lat="48.6676" lon="-2.29399">
        <ele>48</ele>
        <time>2020-06-24T10:09:58.064Z</time>
      </trkpt>
      <trkpt lat="48.66759" lon="-2.29397">
        <ele>49</ele>
        <time>2020-06-24T10:09:59.064Z</time>
      </trkpt>
      <trkpt lat="48.66758" lon="-2.29395">
        <ele>49</ele>
        <time>2020-06-24T10:10:00.064Z</time>
      </trkpt>
      <trkpt lat="48.66758" lon="-2.29394">
        <ele>49</ele>
        <time>2020-06-24T10:10:01.064Z</time>
      </trkpt>
      <trkpt lat="48.66757" lon="-2.29392">
        <ele>49</ele>
        <time>2020-06-24T10:10:02.064Z</time>
      </trkpt>
      <trkpt lat="48.66757" lon="-2.2939">
        <ele>49</ele>
        <time>2020-06-24T10:10:03.064Z</time>
      </trkpt>
      <trkpt lat="48.66757" lon="-2.29388">
        <ele>49</ele>
        <time>2020-06-24T10:10:04.064Z</time>
      </trkpt>
      <trkpt lat="48.66757" lon="-2.29386">
        <ele>49</ele>
        <time>2020-06-24T10:10:05.064Z</time>
      </trkpt>
      <trkpt lat="48.66757" lon="-2.29385">
        <ele>49</ele>
        <time>2020-06-24T10:10:06.064Z</time>
      </trkpt>
      <trkpt lat="48.66757" lon="-2.29383">
        <ele>49</ele>
        <time>2020-06-24T10:10:07.064Z</time>
      </trkpt>
      <trkpt lat="48.66757" lon="-2.29382">
        <ele>48</ele>
        <time>2020-06-24T10:10:08.064Z</time>
      </trkpt>
      <trkpt lat="48.66757" lon="-2.2938">
        <ele>48</ele>
        <time>2020-06-24T10:10:09.064Z</time>
      </trkpt>
      <trkpt lat="48.66757" lon="-2.29378">
        <ele>48</ele>
        <time>2020-06-24T10:10:10.064Z</time>
      </trkpt>
      <trkpt lat="48.66757" lon="-2.29376">
        <ele>48</ele>
        <time>2020-06-24T10:10:11.064Z</time>
      </trkpt>
      <trkpt lat="48.66757" lon="-2.29374">
        <ele>48</ele>
        <time>2020-06-24T10:10:12.064Z</time>
      </trkpt>
      <trkpt lat="48.66757" lon="-2.29372">
        <ele>48</ele>
        <time>2020-06-24T10:10:13.064Z</time>
      </trkpt>
      <trkpt lat="48.66757" lon="-2.29369">
        <ele>48</ele>
        <time>2020-06-24T10:10:14.064Z</time>
      </trkpt>
      <trkpt lat="48.66757" lon="-2.29367">
        <ele>48</ele>
        <time>2020-06-24T10:10:15.064Z</time>
      </trkpt>
      <trkpt lat="48.66757" lon="-2.29365">
        <ele>48</ele>
        <time>2020-06-24T10:10:16.064Z</time>
      </trkpt>
      <trkpt lat="48.66757" lon="-2.29363">
        <ele>48</ele>
        <time>2020-06-24T10:10:17.064Z</time>
      </trkpt>
      <trkpt lat="48.66757" lon="-2.2936">
        <ele>48</ele>
        <time>2020-06-24T10:10:18.064Z</time>
      </trkpt>
      <trkpt lat="48.66757" lon="-2.29358">
        <ele>48</ele>
        <time>2020-06-24T10:10:19.064Z</time>
      </trkpt>
      <trkpt lat="48.66757" lon="-2.29356">
        <ele>48</ele>
        <time>2020-06-24T10:10:20.064Z</time>
      </trkpt>
      <trkpt lat="48.66757" lon="-2.29354">
        <ele>47</ele>
        <time>2020-06-24T10:10:21.064Z</time>
      </trkpt>
      <trkpt lat="48.66757" lon="-2.29352">
        <ele>47</ele>
        <time>2020-06-24T10:10:22.064Z</time>
      </trkpt>
      <trkpt lat="48.66757" lon="-2.2935">
        <ele>47</ele>
        <time>2020-06-24T10:10:23.064Z</time>
      </trkpt>
      <trkpt lat="48.66756" lon="-2.29348">
        <ele>47</ele>
        <time>2020-06-24T10:10:24.064Z</time>
      </trkpt>
      <trkpt lat="48.66756" lon="-2.29346">
        <ele>47</ele>
        <time>2020-06-24T10:10:25.064Z</time>
      </trkpt>
      <trkpt lat="48.66756" lon="-2.29344">
        <ele>47</ele>
        <time>2020-06-24T10:10:26.064Z</time>
      </trkpt>
      <trkpt lat="48.66755" lon="-2.29342">
        <ele>47</ele>
        <time>2020-06-24T10:10:27.064Z</time>
      </trkpt>
      <trkpt lat="48.66754" lon="-2.29341">
        <ele>47</ele>
        <time>2020-06-24T10:10:28.064Z</time>
      </trkpt>
      <trkpt lat="48.66754" lon="-2.29339">
        <ele>47</ele>
        <time>2020-06-24T10:10:29.064Z</time>
      </trkpt>
      <trkpt lat="48.66753" lon="-2.29337">
        <ele>46</ele>
        <time>2020-06-24T10:10:30.064Z</time>
      </trkpt>
      <trkpt lat="48.66753" lon="-2.29335">
        <ele>46</ele>
        <time>2020-06-24T10:10:31.064Z</time>
      </trkpt>
      <trkpt lat="48.66752" lon="-2.29334">
        <ele>46</ele>
        <time>2020-06-24T10:10:32.064Z</time>
      </trkpt>
      <trkpt lat="48.66751" lon="-2.29332">
        <ele>46</ele>
        <time>2020-06-24T10:10:33.064Z</time>
      </trkpt>
      <trkpt lat="48.66751" lon="-2.2933">
        <ele>46</ele>
        <time>2020-06-24T10:10:34.064Z</time>
      </trkpt>
      <trkpt lat="48.6675" lon="-2.29328">
        <ele>46</ele>
        <time>2020-06-24T10:10:35.064Z</time>
      </trkpt>
      <trkpt lat="48.6675" lon="-2.29326">
        <ele>46</ele>
        <time>2020-06-24T10:10:36.064Z</time>
      </trkpt>
      <trkpt lat="48.6675" lon="-2.29325">
        <ele>45</ele>
        <time>2020-06-24T10:10:37.064Z</time>
      </trkpt>
      <trkpt lat="48.6675" lon="-2.29323">
        <ele>46</ele>
        <time>2020-06-24T10:10:38.064Z</time>
      </trkpt>
      <trkpt lat="48.66749" lon="-2.29321">
        <ele>45</ele>
        <time>2020-06-24T10:10:39.064Z</time>
      </trkpt>
      <trkpt lat="48.6675" lon="-2.29319">
        <ele>45</ele>
        <time>2020-06-24T10:10:40.064Z</time>
      </trkpt>
      <trkpt lat="48.6675" lon="-2.29317">
        <ele>46</ele>
        <time>2020-06-24T10:10:41.064Z</time>
      </trkpt>
      <trkpt lat="48.6675" lon="-2.29316">
        <ele>45</ele>
        <time>2020-06-24T10:10:42.064Z</time>
      </trkpt>
      <trkpt lat="48.6675" lon="-2.29315">
        <ele>46</ele>
        <time>2020-06-24T10:10:43.064Z</time>
      </trkpt>
      <trkpt lat="48.6675" lon="-2.29314">
        <ele>45</ele>
        <time>2020-06-24T10:10:44.064Z</time>
      </trkpt>
      <trkpt lat="48.6675" lon="-2.29313">
        <ele>45</ele>
        <time>2020-06-24T10:10:45.064Z</time>
      </trkpt>
      <trkpt lat="48.6675" lon="-2.29311">
        <ele>45</ele>
        <time>2020-06-24T10:10:46.064Z</time>
      </trkpt>
      <trkpt lat="48.66751" lon="-2.2931">
        <ele>45</ele>
        <time>2020-06-24T10:10:47.064Z</time>
      </trkpt>
      <trkpt lat="48.66751" lon="-2.29308">
        <ele>45</ele>
        <time>2020-06-24T10:10:48.064Z</time>
      </trkpt>
      <trkpt lat="48.66751" lon="-2.29306">
        <ele>44</ele>
        <time>2020-06-24T10:10:49.064Z</time>
      </trkpt>
      <trkpt lat="48.66751" lon="-2.29304">
        <ele>44</ele>
        <time>2020-06-24T10:10:50.064Z</time>
      </trkpt>
      <trkpt lat="48.66751" lon="-2.29303">
        <ele>44</ele>
        <time>2020-06-24T10:10:51.064Z</time>
      </trkpt>
      <trkpt lat="48.66751" lon="-2.29301">
        <ele>44</ele>
        <time>2020-06-24T10:10:52.064Z</time>
      </trkpt>
      <trkpt lat="48.66752" lon="-2.29299">
        <ele>44</ele>
        <time>2020-06-24T10:10:53.064Z</time>
      </trkpt>
      <trkpt lat="48.66752" lon="-2.29298">
        <ele>45</ele>
        <time>2020-06-24T10:10:54.064Z</time>
      </trkpt>
      <trkpt lat="48.66752" lon="-2.29296">
        <ele>45</ele>
        <time>2020-06-24T10:10:55.064Z</time>
      </trkpt>
      <trkpt lat="48.66751" lon="-2.29294">
        <ele>46</ele>
        <time>2020-06-24T10:10:56.064Z</time>
      </trkpt>
      <trkpt lat="48.66751" lon="-2.29291">
        <ele>46</ele>
        <time>2020-06-24T10:10:57.064Z</time>
      </trkpt>
      <trkpt lat="48.66751" lon="-2.29289">
        <ele>47</ele>
        <time>2020-06-24T10:10:58.064Z</time>
      </trkpt>
      <trkpt lat="48.6675" lon="-2.29287">
        <ele>47</ele>
        <time>2020-06-24T10:10:59.064Z</time>
      </trkpt>
      <trkpt lat="48.66749" lon="-2.29285">
        <ele>47</ele>
        <time>2020-06-24T10:11:00.064Z</time>
      </trkpt>
      <trkpt lat="48.66749" lon="-2.29283">
        <ele>47</ele>
        <time>2020-06-24T10:11:01.064Z</time>
      </trkpt>
      <trkpt lat="48.66748" lon="-2.29282">
        <ele>47</ele>
        <time>2020-06-24T10:11:02.064Z</time>
      </trkpt>
      <trkpt lat="48.66747" lon="-2.2928">
        <ele>46</ele>
        <time>2020-06-24T10:11:03.064Z</time>
      </trkpt>
      <trkpt lat="48.66746" lon="-2.29278">
        <ele>46</ele>
        <time>2020-06-24T10:11:04.064Z</time>
      </trkpt>
      <trkpt lat="48.66745" lon="-2.29277">
        <ele>46</ele>
        <time>2020-06-24T10:11:05.064Z</time>
      </trkpt>
      <trkpt lat="48.66744" lon="-2.29276">
        <ele>46</ele>
        <time>2020-06-24T10:11:06.064Z</time>
      </trkpt>
      <trkpt lat="48.66743" lon="-2.29275">
        <ele>46</ele>
        <time>2020-06-24T10:11:07.064Z</time>
      </trkpt>
      <trkpt lat="48.66742" lon="-2.29274">
        <ele>46</ele>
        <time>2020-06-24T10:11:08.064Z</time>
      </trkpt>
      <trkpt lat="48.66741" lon="-2.29272">
        <ele>46</ele>
        <time>2020-06-24T10:11:09.064Z</time>
      </trkpt>
      <trkpt lat="48.6674" lon="-2.29271">
        <ele>47</ele>
        <time>2020-06-24T10:11:10.064Z</time>
      </trkpt>
      <trkpt lat="48.6674" lon="-2.29269">
        <ele>46</ele>
        <time>2020-06-24T10:11:11.064Z</time>
      </trkpt>
      <trkpt lat="48.66739" lon="-2.29267">
        <ele>46</ele>
        <time>2020-06-24T10:11:12.064Z</time>
      </trkpt>
      <trkpt lat="48.66738" lon="-2.29265">
        <ele>46</ele>
        <time>2020-06-24T10:11:13.064Z</time>
      </trkpt>
      <trkpt lat="48.66738" lon="-2.29263">
        <ele>46</ele>
        <time>2020-06-24T10:11:14.064Z</time>
      </trkpt>
      <trkpt lat="48.66737" lon="-2.29261">
        <ele>46</ele>
        <time>2020-06-24T10:11:15.064Z</time>
      </trkpt>
      <trkpt lat="48.66737" lon="-2.29259">
        <ele>46</ele>
        <time>2020-06-24T10:11:16.064Z</time>
      </trkpt>
      <trkpt lat="48.66737" lon="-2.29257">
        <ele>46</ele>
        <time>2020-06-24T10:11:17.064Z</time>
      </trkpt>
      <trkpt lat="48.66736" lon="-2.29254">
        <ele>46</ele>
        <time>2020-06-24T10:11:18.064Z</time>
      </trkpt>
      <trkpt lat="48.66736" lon="-2.29252">
        <ele>46</ele>
        <time>2020-06-24T10:11:19.064Z</time>
      </trkpt>
      <trkpt lat="48.66735" lon="-2.2925">
        <ele>45</ele>
        <time>2020-06-24T10:11:20.064Z</time>
      </trkpt>
      <trkpt lat="48.66735" lon="-2.29248">
        <ele>45</ele>
        <time>2020-06-24T10:11:21.064Z</time>
      </trkpt>
      <trkpt lat="48.66735" lon="-2.29246">
        <ele>45</ele>
        <time>2020-06-24T10:11:22.064Z</time>
      </trkpt>
      <trkpt lat="48.66734" lon="-2.29244">
        <ele>45</ele>
        <time>2020-06-24T10:11:23.064Z</time>
      </trkpt>
      <trkpt lat="48.66734" lon="-2.29242">
        <ele>45</ele>
        <time>2020-06-24T10:11:24.064Z</time>
      </trkpt>
      <trkpt lat="48.66733" lon="-2.2924">
        <ele>45</ele>
        <time>2020-06-24T10:11:25.064Z</time>
      </trkpt>
      <trkpt lat="48.66733" lon="-2.29239">
        <ele>45</ele>
        <time>2020-06-24T10:11:26.064Z</time>
      </trkpt>
      <trkpt lat="48.66732" lon="-2.29237">
        <ele>45</ele>
        <time>2020-06-24T10:11:27.064Z</time>
      </trkpt>
      <trkpt lat="48.66732" lon="-2.29236">
        <ele>46</ele>
        <time>2020-06-24T10:11:28.064Z</time>
      </trkpt>
      <trkpt lat="48.66731" lon="-2.29234">
        <ele>46</ele>
        <time>2020-06-24T10:11:29.064Z</time>
      </trkpt>
      <trkpt lat="48.66731" lon="-2.29232">
        <ele>46</ele>
        <time>2020-06-24T10:11:30.064Z</time>
      </trkpt>
      <trkpt lat="48.6673" lon="-2.29231">
        <ele>46</ele>
        <time>2020-06-24T10:11:31.064Z</time>
      </trkpt>
      <trkpt lat="48.66729" lon="-2.29229">
        <ele>47</ele>
        <time>2020-06-24T10:11:32.064Z</time>
      </trkpt>
      <trkpt lat="48.66728" lon="-2.29227">
        <ele>46</ele>
        <time>2020-06-24T10:11:33.064Z</time>
      </trkpt>
      <trkpt lat="48.66728" lon="-2.29226">
        <ele>46</ele>
        <time>2020-06-24T10:11:34.064Z</time>
      </trkpt>
      <trkpt lat="48.66727" lon="-2.29225">
        <ele>46</ele>
        <time>2020-06-24T10:11:35.064Z</time>
      </trkpt>
      <trkpt lat="48.66727" lon="-2.29224">
        <ele>47</ele>
        <time>2020-06-24T10:11:36.064Z</time>
      </trkpt>
      <trkpt lat="48.66726" lon="-2.29222">
        <ele>47</ele>
        <time>2020-06-24T10:11:37.064Z</time>
      </trkpt>
      <trkpt lat="48.66726" lon="-2.29221">
        <ele>47</ele>
        <time>2020-06-24T10:11:38.064Z</time>
      </trkpt>
      <trkpt lat="48.66725" lon="-2.2922">
        <ele>49</ele>
        <time>2020-06-24T10:11:39.064Z</time>
      </trkpt>
      <trkpt lat="48.66725" lon="-2.29219">
        <ele>49</ele>
        <time>2020-06-24T10:11:40.064Z</time>
      </trkpt>
      <trkpt lat="48.66724" lon="-2.29218">
        <ele>48</ele>
        <time>2020-06-24T10:11:41.064Z</time>
      </trkpt>
      <trkpt lat="48.66722" lon="-2.29218">
        <ele>48</ele>
        <time>2020-06-24T10:11:42.064Z</time>
      </trkpt>
      <trkpt lat="48.66721" lon="-2.29217">
        <ele>48</ele>
        <time>2020-06-24T10:11:43.064Z</time>
      </trkpt>
      <trkpt lat="48.6672" lon="-2.29217">
        <ele>48</ele>
        <time>2020-06-24T10:11:44.064Z</time>
      </trkpt>
      <trkpt lat="48.66719" lon="-2.29216">
        <ele>48</ele>
        <time>2020-06-24T10:11:45.064Z</time>
      </trkpt>
      <trkpt lat="48.66718" lon="-2.29215">
        <ele>48</ele>
        <time>2020-06-24T10:11:46.064Z</time>
      </trkpt>
      <trkpt lat="48.66717" lon="-2.29214">
        <ele>47</ele>
        <time>2020-06-24T10:11:47.064Z</time>
      </trkpt>
      <trkpt lat="48.66716" lon="-2.29212">
        <ele>47</ele>
        <time>2020-06-24T10:11:48.064Z</time>
      </trkpt>
      <trkpt lat="48.66715" lon="-2.2921">
        <ele>47</ele>
        <time>2020-06-24T10:11:49.064Z</time>
      </trkpt>
      <trkpt lat="48.66715" lon="-2.29209">
        <ele>47</ele>
        <time>2020-06-24T10:11:50.064Z</time>
      </trkpt>
      <trkpt lat="48.66714" lon="-2.29207">
        <ele>47</ele>
        <time>2020-06-24T10:11:51.064Z</time>
      </trkpt>
      <trkpt lat="48.66713" lon="-2.29206">
        <ele>47</ele>
        <time>2020-06-24T10:11:52.064Z</time>
      </trkpt>
      <trkpt lat="48.66713" lon="-2.29205">
        <ele>48</ele>
        <time>2020-06-24T10:11:53.064Z</time>
      </trkpt>
      <trkpt lat="48.66712" lon="-2.29204">
        <ele>48</ele>
        <time>2020-06-24T10:11:54.064Z</time>
      </trkpt>
      <trkpt lat="48.66711" lon="-2.29203">
        <ele>49</ele>
        <time>2020-06-24T10:11:55.064Z</time>
      </trkpt>
      <trkpt lat="48.6671" lon="-2.29202">
        <ele>48</ele>
        <time>2020-06-24T10:11:56.064Z</time>
      </trkpt>
      <trkpt lat="48.66709" lon="-2.292">
        <ele>48</ele>
        <time>2020-06-24T10:11:57.064Z</time>
      </trkpt>
      <trkpt lat="48.66708" lon="-2.29198">
        <ele>48</ele>
        <time>2020-06-24T10:11:58.064Z</time>
      </trkpt>
      <trkpt lat="48.66706" lon="-2.29196">
        <ele>48</ele>
        <time>2020-06-24T10:11:59.064Z</time>
      </trkpt>
      <trkpt lat="48.66706" lon="-2.29194">
        <ele>48</ele>
        <time>2020-06-24T10:12:00.064Z</time>
      </trkpt>
      <trkpt lat="48.66705" lon="-2.29193">
        <ele>48</ele>
        <time>2020-06-24T10:12:01.064Z</time>
      </trkpt>
      <trkpt lat="48.66704" lon="-2.29192">
        <ele>48</ele>
        <time>2020-06-24T10:12:02.064Z</time>
      </trkpt>
      <trkpt lat="48.66704" lon="-2.2919">
        <ele>49</ele>
        <time>2020-06-24T10:12:03.064Z</time>
      </trkpt>
      <trkpt lat="48.66703" lon="-2.29189">
        <ele>48</ele>
        <time>2020-06-24T10:12:04.064Z</time>
      </trkpt>
      <trkpt lat="48.66703" lon="-2.29188">
        <ele>49</ele>
        <time>2020-06-24T10:12:05.064Z</time>
      </trkpt>
      <trkpt lat="48.66702" lon="-2.29187">
        <ele>49</ele>
        <time>2020-06-24T10:12:06.064Z</time>
      </trkpt>
      <trkpt lat="48.66701" lon="-2.29185">
        <ele>49</ele>
        <time>2020-06-24T10:12:07.064Z</time>
      </trkpt>
      <trkpt lat="48.667" lon="-2.29184">
        <ele>49</ele>
        <time>2020-06-24T10:12:08.064Z</time>
      </trkpt>
      <trkpt lat="48.66699" lon="-2.29182">
        <ele>49</ele>
        <time>2020-06-24T10:12:09.064Z</time>
      </trkpt>
      <trkpt lat="48.66698" lon="-2.2918">
        <ele>49</ele>
        <time>2020-06-24T10:12:10.064Z</time>
      </trkpt>
      <trkpt lat="48.66698" lon="-2.29179">
        <ele>48</ele>
        <time>2020-06-24T10:12:11.064Z</time>
      </trkpt>
      <trkpt lat="48.66698" lon="-2.29177">
        <ele>48</ele>
        <time>2020-06-24T10:12:12.064Z</time>
      </trkpt>
      <trkpt lat="48.66697" lon="-2.29175">
        <ele>47</ele>
        <time>2020-06-24T10:12:13.064Z</time>
      </trkpt>
      <trkpt lat="48.66697" lon="-2.29172">
        <ele>48</ele>
        <time>2020-06-24T10:12:14.064Z</time>
      </trkpt>
      <trkpt lat="48.66697" lon="-2.2917">
        <ele>48</ele>
        <time>2020-06-24T10:12:15.064Z</time>
      </trkpt>
      <trkpt lat="48.66697" lon="-2.29169">
        <ele>48</ele>
        <time>2020-06-24T10:12:16.064Z</time>
      </trkpt>
      <trkpt lat="48.66696" lon="-2.29167">
        <ele>48</ele>
        <time>2020-06-24T10:12:17.064Z</time>
      </trkpt>
      <trkpt lat="48.66696" lon="-2.29164">
        <ele>47</ele>
        <time>2020-06-24T10:12:18.064Z</time>
      </trkpt>
      <trkpt lat="48.66696" lon="-2.29162">
        <ele>47</ele>
        <time>2020-06-24T10:12:19.064Z</time>
      </trkpt>
      <trkpt lat="48.66696" lon="-2.2916">
        <ele>47</ele>
        <time>2020-06-24T10:12:20.064Z</time>
      </trkpt>
      <trkpt lat="48.66695" lon="-2.29158">
        <ele>46</ele>
        <time>2020-06-24T10:12:21.064Z</time>
      </trkpt>
      <trkpt lat="48.66695" lon="-2.29156">
        <ele>46</ele>
        <time>2020-06-24T10:12:22.064Z</time>
      </trkpt>
      <trkpt lat="48.66695" lon="-2.29154">
        <ele>46</ele>
        <time>2020-06-24T10:12:23.064Z</time>
      </trkpt>
      <trkpt lat="48.66695" lon="-2.29152">
        <ele>47</ele>
        <time>2020-06-24T10:12:24.064Z</time>
      </trkpt>
      <trkpt lat="48.66694" lon="-2.29149">
        <ele>47</ele>
        <time>2020-06-24T10:12:25.064Z</time>
      </trkpt>
      <trkpt lat="48.66694" lon="-2.29146">
        <ele>47</ele>
        <time>2020-06-24T10:12:26.064Z</time>
      </trkpt>
      <trkpt lat="48.66695" lon="-2.29144">
        <ele>47</ele>
        <time>2020-06-24T10:12:27.064Z</time>
      </trkpt>
      <trkpt lat="48.66695" lon="-2.29142">
        <ele>48</ele>
        <time>2020-06-24T10:12:28.064Z</time>
      </trkpt>
      <trkpt lat="48.66696" lon="-2.2914">
        <ele>48</ele>
        <time>2020-06-24T10:12:29.064Z</time>
      </trkpt>
      <trkpt lat="48.66698" lon="-2.29138">
        <ele>51</ele>
        <time>2020-06-24T10:12:30.064Z</time>
      </trkpt>
      <trkpt lat="48.66699" lon="-2.29136">
        <ele>51</ele>
        <time>2020-06-24T10:12:31.064Z</time>
      </trkpt>
      <trkpt lat="48.667" lon="-2.29135">
        <ele>50</ele>
        <time>2020-06-24T10:12:32.064Z</time>
      </trkpt>
      <trkpt lat="48.66702" lon="-2.29133">
        <ele>51</ele>
        <time>2020-06-24T10:12:33.064Z</time>
      </trkpt>
      <trkpt lat="48.66703" lon="-2.29132">
        <ele>50</ele>
        <time>2020-06-24T10:12:34.064Z</time>
      </trkpt>
      <trkpt lat="48.66704" lon="-2.2913">
        <ele>49</ele>
        <time>2020-06-24T10:12:35.064Z</time>
      </trkpt>
      <trkpt lat="48.66705" lon="-2.29129">
        <ele>49</ele>
        <time>2020-06-24T10:12:36.064Z</time>
      </trkpt>
      <trkpt lat="48.66705" lon="-2.29127">
        <ele>50</ele>
        <time>2020-06-24T10:12:37.064Z</time>
      </trkpt>
      <trkpt lat="48.66706" lon="-2.29125">
        <ele>50</ele>
        <time>2020-06-24T10:12:38.064Z</time>
      </trkpt>
      <trkpt lat="48.66707" lon="-2.29123">
        <ele>50</ele>
        <time>2020-06-24T10:12:39.064Z</time>
      </trkpt>
      <trkpt lat="48.66708" lon="-2.29121">
        <ele>50</ele>
        <time>2020-06-24T10:12:40.064Z</time>
      </trkpt>
      <trkpt lat="48.66709" lon="-2.29119">
        <ele>50</ele>
        <time>2020-06-24T10:12:41.064Z</time>
      </trkpt>
      <trkpt lat="48.6671" lon="-2.29117">
        <ele>50</ele>
        <time>2020-06-24T10:12:42.064Z</time>
      </trkpt>
      <trkpt lat="48.6671" lon="-2.29115">
        <ele>50</ele>
        <time>2020-06-24T10:12:43.064Z</time>
      </trkpt>
      <trkpt lat="48.66711" lon="-2.29113">
        <ele>50</ele>
        <time>2020-06-24T10:12:44.064Z</time>
      </trkpt>
      <trkpt lat="48.66711" lon="-2.29111">
        <ele>51</ele>
        <time>2020-06-24T10:12:45.064Z</time>
      </trkpt>
      <trkpt lat="48.66711" lon="-2.29109">
        <ele>51</ele>
        <time>2020-06-24T10:12:46.064Z</time>
      </trkpt>
      <trkpt lat="48.66711" lon="-2.29108">
        <ele>51</ele>
        <time>2020-06-24T10:12:47.064Z</time>
      </trkpt>
      <trkpt lat="48.66711" lon="-2.29106">
        <ele>51</ele>
        <time>2020-06-24T10:12:48.064Z</time>
      </trkpt>
      <trkpt lat="48.66711" lon="-2.29106">
        <ele>52</ele>
        <time>2020-06-24T10:12:49.064Z</time>
      </trkpt>
      <trkpt lat="48.66711" lon="-2.29106">
        <ele>51</ele>
        <time>2020-06-24T10:12:50.064Z</time>
      </trkpt>
      <trkpt lat="48.66711" lon="-2.29106">
        <ele>51</ele>
        <time>2020-06-24T10:12:51.064Z</time>
      </trkpt>
      <trkpt lat="48.66711" lon="-2.29105">
        <ele>51</ele>
        <time>2020-06-24T10:12:52.064Z</time>
      </trkpt>
      <trkpt lat="48.66711" lon="-2.29105">
        <ele>51</ele>
        <time>2020-06-24T10:12:53.064Z</time>
      </trkpt>
      <trkpt lat="48.66711" lon="-2.29105">
        <ele>51</ele>
        <time>2020-06-24T10:12:54.064Z</time>
      </trkpt>
      <trkpt lat="48.66711" lon="-2.29105">
        <ele>51</ele>
        <time>2020-06-24T10:12:55.064Z</time>
      </trkpt>
      <trkpt lat="48.66712" lon="-2.291">
        <ele>50</ele>
        <time>2020-06-24T10:12:56.068Z</time>
      </trkpt>
      <trkpt lat="48.66712" lon="-2.291">
        <ele>50</ele>
        <time>2020-06-24T10:12:57.068Z</time>
      </trkpt>
      <trkpt lat="48.66712" lon="-2.291">
        <ele>50</ele>
        <time>2020-06-24T10:12:58.068Z</time>
      </trkpt>
      <trkpt lat="48.66712" lon="-2.291">
        <ele>50</ele>
        <time>2020-06-24T10:12:59.068Z</time>
      </trkpt>
      <trkpt lat="48.66712" lon="-2.291">
        <ele>51</ele>
        <time>2020-06-24T10:13:00.068Z</time>
      </trkpt>
      <trkpt lat="48.66712" lon="-2.29099">
        <ele>51</ele>
        <time>2020-06-24T10:13:01.068Z</time>
      </trkpt>
      <trkpt lat="48.66712" lon="-2.291">
        <ele>51</ele>
        <time>2020-06-24T10:13:02.068Z</time>
      </trkpt>
      <trkpt lat="48.66712" lon="-2.291">
        <ele>51</ele>
        <time>2020-06-24T10:13:03.068Z</time>
      </trkpt>
      <trkpt lat="48.66712" lon="-2.291">
        <ele>51</ele>
        <time>2020-06-24T10:13:04.068Z</time>
      </trkpt>
      <trkpt lat="48.66712" lon="-2.291">
        <ele>51</ele>
        <time>2020-06-24T10:13:05.068Z</time>
      </trkpt>
      <trkpt lat="48.66712" lon="-2.291">
        <ele>51</ele>
        <time>2020-06-24T10:13:06.068Z</time>
      </trkpt>
      <trkpt lat="48.66713" lon="-2.291">
        <ele>51</ele>
        <time>2020-06-24T10:13:07.068Z</time>
      </trkpt>
      <trkpt lat="48.66713" lon="-2.291">
        <ele>51</ele>
        <time>2020-06-24T10:13:08.068Z</time>
      </trkpt>
      <trkpt lat="48.66713" lon="-2.291">
        <ele>51</ele>
        <time>2020-06-24T10:13:09.068Z</time>
      </trkpt>
      <trkpt lat="48.66712" lon="-2.29094">
        <ele>51</ele>
        <time>2020-06-24T10:13:10.072Z</time>
      </trkpt>
      <trkpt lat="48.66712" lon="-2.29092">
        <ele>51</ele>
        <time>2020-06-24T10:13:11.072Z</time>
      </trkpt>
      <trkpt lat="48.66712" lon="-2.2909">
        <ele>51</ele>
        <time>2020-06-24T10:13:12.072Z</time>
      </trkpt>
      <trkpt lat="48.66711" lon="-2.29089">
        <ele>51</ele>
        <time>2020-06-24T10:13:13.072Z</time>
      </trkpt>
      <trkpt lat="48.66711" lon="-2.29087">
        <ele>51</ele>
        <time>2020-06-24T10:13:14.072Z</time>
      </trkpt>
      <trkpt lat="48.66711" lon="-2.29085">
        <ele>51</ele>
        <time>2020-06-24T10:13:15.072Z</time>
      </trkpt>
      <trkpt lat="48.6671" lon="-2.29083">
        <ele>50</ele>
        <time>2020-06-24T10:13:16.072Z</time>
      </trkpt>
      <trkpt lat="48.6671" lon="-2.29081">
        <ele>50</ele>
        <time>2020-06-24T10:13:17.072Z</time>
      </trkpt>
      <trkpt lat="48.6671" lon="-2.2908">
        <ele>50</ele>
        <time>2020-06-24T10:13:18.072Z</time>
      </trkpt>
      <trkpt lat="48.6671" lon="-2.29078">
        <ele>49</ele>
        <time>2020-06-24T10:13:19.072Z</time>
      </trkpt>
      <trkpt lat="48.66709" lon="-2.29076">
        <ele>49</ele>
        <time>2020-06-24T10:13:20.072Z</time>
      </trkpt>
      <trkpt lat="48.66709" lon="-2.29074">
        <ele>48</ele>
        <time>2020-06-24T10:13:21.072Z</time>
      </trkpt>
      <trkpt lat="48.66708" lon="-2.29071">
        <ele>48</ele>
        <time>2020-06-24T10:13:22.072Z</time>
      </trkpt>
      <trkpt lat="48.66708" lon="-2.29069">
        <ele>48</ele>
        <time>2020-06-24T10:13:23.072Z</time>
      </trkpt>
      <trkpt lat="48.66707" lon="-2.29067">
        <ele>47</ele>
        <time>2020-06-24T10:13:24.072Z</time>
      </trkpt>
      <trkpt lat="48.66707" lon="-2.29065">
        <ele>47</ele>
        <time>2020-06-24T10:13:25.072Z</time>
      </trkpt>
      <trkpt lat="48.66707" lon="-2.29063">
        <ele>47</ele>
        <time>2020-06-24T10:13:26.072Z</time>
      </trkpt>
      <trkpt lat="48.66706" lon="-2.29061">
        <ele>47</ele>
        <time>2020-06-24T10:13:27.072Z</time>
      </trkpt>
      <trkpt lat="48.66706" lon="-2.29059">
        <ele>46</ele>
        <time>2020-06-24T10:13:28.072Z</time>
      </trkpt>
      <trkpt lat="48.66706" lon="-2.29057">
        <ele>47</ele>
        <time>2020-06-24T10:13:29.072Z</time>
      </trkpt>
      <trkpt lat="48.66706" lon="-2.29055">
        <ele>47</ele>
        <time>2020-06-24T10:13:30.072Z</time>
      </trkpt>
      <trkpt lat="48.66706" lon="-2.29053">
        <ele>46</ele>
        <time>2020-06-24T10:13:31.072Z</time>
      </trkpt>
      <trkpt lat="48.66706" lon="-2.29051">
        <ele>46</ele>
        <time>2020-06-24T10:13:32.072Z</time>
      </trkpt>
      <trkpt lat="48.66707" lon="-2.29049">
        <ele>46</ele>
        <time>2020-06-24T10:13:33.072Z</time>
      </trkpt>
      <trkpt lat="48.66707" lon="-2.29047">
        <ele>46</ele>
        <time>2020-06-24T10:13:34.072Z</time>
      </trkpt>
      <trkpt lat="48.66708" lon="-2.29046">
        <ele>46</ele>
        <time>2020-06-24T10:13:35.072Z</time>
      </trkpt>
      <trkpt lat="48.66709" lon="-2.29045">
        <ele>46</ele>
        <time>2020-06-24T10:13:36.072Z</time>
      </trkpt>
      <trkpt lat="48.6671" lon="-2.29043">
        <ele>46</ele>
        <time>2020-06-24T10:13:37.072Z</time>
      </trkpt>
      <trkpt lat="48.6671" lon="-2.29042">
        <ele>46</ele>
        <time>2020-06-24T10:13:38.072Z</time>
      </trkpt>
      <trkpt lat="48.66711" lon="-2.2904">
        <ele>46</ele>
        <time>2020-06-24T10:13:39.072Z</time>
      </trkpt>
      <trkpt lat="48.66712" lon="-2.29039">
        <ele>46</ele>
        <time>2020-06-24T10:13:40.072Z</time>
      </trkpt>
      <trkpt lat="48.66713" lon="-2.29037">
        <ele>46</ele>
        <time>2020-06-24T10:13:41.072Z</time>
      </trkpt>
      <trkpt lat="48.66713" lon="-2.29035">
        <ele>46</ele>
        <time>2020-06-24T10:13:42.072Z</time>
      </trkpt>
      <trkpt lat="48.66714" lon="-2.29033">
        <ele>46</ele>
        <time>2020-06-24T10:13:43.072Z</time>
      </trkpt>
      <trkpt lat="48.66715" lon="-2.29031">
        <ele>46</ele>
        <time>2020-06-24T10:13:44.072Z</time>
      </trkpt>
      <trkpt lat="48.66716" lon="-2.29029">
        <ele>45</ele>
        <time>2020-06-24T10:13:45.072Z</time>
      </trkpt>
      <trkpt lat="48.66716" lon="-2.29027">
        <ele>45</ele>
        <time>2020-06-24T10:13:46.072Z</time>
      </trkpt>
      <trkpt lat="48.66717" lon="-2.29025">
        <ele>46</ele>
        <time>2020-06-24T10:13:47.072Z</time>
      </trkpt>
      <trkpt lat="48.66717" lon="-2.29023">
        <ele>45</ele>
        <time>2020-06-24T10:13:48.072Z</time>
      </trkpt>
      <trkpt lat="48.66718" lon="-2.2902">
        <ele>45</ele>
        <time>2020-06-24T10:13:49.072Z</time>
      </trkpt>
      <trkpt lat="48.66718" lon="-2.29018">
        <ele>45</ele>
        <time>2020-06-24T10:13:50.072Z</time>
      </trkpt>
      <trkpt lat="48.66718" lon="-2.29016">
        <ele>45</ele>
        <time>2020-06-24T10:13:51.072Z</time>
      </trkpt>
      <trkpt lat="48.66717" lon="-2.29014">
        <ele>44</ele>
        <time>2020-06-24T10:13:52.072Z</time>
      </trkpt>
      <trkpt lat="48.66717" lon="-2.29012">
        <ele>44</ele>
        <time>2020-06-24T10:13:53.072Z</time>
      </trkpt>
      <trkpt lat="48.66716" lon="-2.2901">
        <ele>44</ele>
        <time>2020-06-24T10:13:54.072Z</time>
      </trkpt>
      <trkpt lat="48.66715" lon="-2.29008">
        <ele>44</ele>
        <time>2020-06-24T10:13:55.072Z</time>
      </trkpt>
      <trkpt lat="48.66715" lon="-2.29006">
        <ele>44</ele>
        <time>2020-06-24T10:13:56.072Z</time>
      </trkpt>
      <trkpt lat="48.66714" lon="-2.29005">
        <ele>44</ele>
        <time>2020-06-24T10:13:57.072Z</time>
      </trkpt>
      <trkpt lat="48.66713" lon="-2.29003">
        <ele>44</ele>
        <time>2020-06-24T10:13:58.072Z</time>
      </trkpt>
      <trkpt lat="48.66712" lon="-2.29002">
        <ele>44</ele>
        <time>2020-06-24T10:13:59.072Z</time>
      </trkpt>
      <trkpt lat="48.66712" lon="-2.29">
        <ele>43</ele>
        <time>2020-06-24T10:14:00.072Z</time>
      </trkpt>
      <trkpt lat="48.66711" lon="-2.28999">
        <ele>43</ele>
        <time>2020-06-24T10:14:01.072Z</time>
      </trkpt>
      <trkpt lat="48.6671" lon="-2.28997">
        <ele>44</ele>
        <time>2020-06-24T10:14:02.072Z</time>
      </trkpt>
      <trkpt lat="48.66709" lon="-2.28996">
        <ele>44</ele>
        <time>2020-06-24T10:14:03.072Z</time>
      </trkpt>
      <trkpt lat="48.66708" lon="-2.28994">
        <ele>44</ele>
        <time>2020-06-24T10:14:04.072Z</time>
      </trkpt>
      <trkpt lat="48.66707" lon="-2.28992">
        <ele>44</ele>
        <time>2020-06-24T10:14:05.072Z</time>
      </trkpt>
      <trkpt lat="48.66706" lon="-2.2899">
        <ele>45</ele>
        <time>2020-06-24T10:14:06.072Z</time>
      </trkpt>
      <trkpt lat="48.66705" lon="-2.28989">
        <ele>45</ele>
        <time>2020-06-24T10:14:07.072Z</time>
      </trkpt>
      <trkpt lat="48.66705" lon="-2.28987">
        <ele>45</ele>
        <time>2020-06-24T10:14:08.072Z</time>
      </trkpt>
      <trkpt lat="48.66704" lon="-2.28986">
        <ele>45</ele>
        <time>2020-06-24T10:14:09.072Z</time>
      </trkpt>
      <trkpt lat="48.66704" lon="-2.28985">
        <ele>44</ele>
        <time>2020-06-24T10:14:10.072Z</time>
      </trkpt>
      <trkpt lat="48.66703" lon="-2.28984">
        <ele>44</ele>
        <time>2020-06-24T10:14:11.072Z</time>
      </trkpt>
      <trkpt lat="48.66703" lon="-2.28984">
        <ele>45</ele>
        <time>2020-06-24T10:14:12.072Z</time>
      </trkpt>
      <trkpt lat="48.66703" lon="-2.28984">
        <ele>45</ele>
        <time>2020-06-24T10:14:13.072Z</time>
      </trkpt>
      <trkpt lat="48.66703" lon="-2.28984">
        <ele>46</ele>
        <time>2020-06-24T10:14:14.072Z</time>
      </trkpt>
      <trkpt lat="48.66704" lon="-2.28983">
        <ele>46</ele>
        <time>2020-06-24T10:14:15.072Z</time>
      </trkpt>
      <trkpt lat="48.66704" lon="-2.28983">
        <ele>46</ele>
        <time>2020-06-24T10:14:16.072Z</time>
      </trkpt>
      <trkpt lat="48.66704" lon="-2.28983">
        <ele>46</ele>
        <time>2020-06-24T10:14:17.072Z</time>
      </trkpt>
      <trkpt lat="48.66704" lon="-2.28983">
        <ele>47</ele>
        <time>2020-06-24T10:14:18.072Z</time>
      </trkpt>
      <trkpt lat="48.66701" lon="-2.28979">
        <ele>46</ele>
        <time>2020-06-24T10:14:19.076Z</time>
      </trkpt>
      <trkpt lat="48.667" lon="-2.28977">
        <ele>46</ele>
        <time>2020-06-24T10:14:20.076Z</time>
      </trkpt>
      <trkpt lat="48.667" lon="-2.28975">
        <ele>47</ele>
        <time>2020-06-24T10:14:21.076Z</time>
      </trkpt>
      <trkpt lat="48.66699" lon="-2.28973">
        <ele>47</ele>
        <time>2020-06-24T10:14:22.076Z</time>
      </trkpt>
      <trkpt lat="48.66698" lon="-2.28971">
        <ele>46</ele>
        <time>2020-06-24T10:14:23.076Z</time>
      </trkpt>
      <trkpt lat="48.66698" lon="-2.28969">
        <ele>46</ele>
        <time>2020-06-24T10:14:24.076Z</time>
      </trkpt>
      <trkpt lat="48.66698" lon="-2.28967">
        <ele>46</ele>
        <time>2020-06-24T10:14:25.076Z</time>
      </trkpt>
      <trkpt lat="48.66697" lon="-2.28965">
        <ele>46</ele>
        <time>2020-06-24T10:14:26.076Z</time>
      </trkpt>
      <trkpt lat="48.66697" lon="-2.28964">
        <ele>46</ele>
        <time>2020-06-24T10:14:27.076Z</time>
      </trkpt>
      <trkpt lat="48.66696" lon="-2.28962">
        <ele>46</ele>
        <time>2020-06-24T10:14:28.076Z</time>
      </trkpt>
      <trkpt lat="48.66696" lon="-2.2896">
        <ele>46</ele>
        <time>2020-06-24T10:14:29.076Z</time>
      </trkpt>
      <trkpt lat="48.66695" lon="-2.28958">
        <ele>46</ele>
        <time>2020-06-24T10:14:30.076Z</time>
      </trkpt>
      <trkpt lat="48.66695" lon="-2.28956">
        <ele>46</ele>
        <time>2020-06-24T10:14:31.076Z</time>
      </trkpt>
      <trkpt lat="48.66694" lon="-2.28954">
        <ele>45</ele>
        <time>2020-06-24T10:14:32.076Z</time>
      </trkpt>
      <trkpt lat="48.66694" lon="-2.28952">
        <ele>45</ele>
        <time>2020-06-24T10:14:33.076Z</time>
      </trkpt>
      <trkpt lat="48.66693" lon="-2.2895">
        <ele>45</ele>
        <time>2020-06-24T10:14:34.076Z</time>
      </trkpt>
      <trkpt lat="48.66693" lon="-2.28948">
        <ele>45</ele>
        <time>2020-06-24T10:14:35.076Z</time>
      </trkpt>
      <trkpt lat="48.66693" lon="-2.28946">
        <ele>45</ele>
        <time>2020-06-24T10:14:36.076Z</time>
      </trkpt>
      <trkpt lat="48.66692" lon="-2.28944">
        <ele>45</ele>
        <time>2020-06-24T10:14:37.076Z</time>
      </trkpt>
      <trkpt lat="48.66692" lon="-2.28942">
        <ele>44</ele>
        <time>2020-06-24T10:14:38.076Z</time>
      </trkpt>
      <trkpt lat="48.66691" lon="-2.2894">
        <ele>44</ele>
        <time>2020-06-24T10:14:39.076Z</time>
      </trkpt>
      <trkpt lat="48.66691" lon="-2.28938">
        <ele>44</ele>
        <time>2020-06-24T10:14:40.076Z</time>
      </trkpt>
      <trkpt lat="48.66691" lon="-2.28936">
        <ele>44</ele>
        <time>2020-06-24T10:14:41.076Z</time>
      </trkpt>
      <trkpt lat="48.66691" lon="-2.28934">
        <ele>43</ele>
        <time>2020-06-24T10:14:42.076Z</time>
      </trkpt>
      <trkpt lat="48.6669" lon="-2.28932">
        <ele>43</ele>
        <time>2020-06-24T10:14:43.076Z</time>
      </trkpt>
      <trkpt lat="48.6669" lon="-2.2893">
        <ele>43</ele>
        <time>2020-06-24T10:14:44.076Z</time>
      </trkpt>
      <trkpt lat="48.6669" lon="-2.28928">
        <ele>43</ele>
        <time>2020-06-24T10:14:45.076Z</time>
      </trkpt>
      <trkpt lat="48.66689" lon="-2.28925">
        <ele>43</ele>
        <time>2020-06-24T10:14:46.076Z</time>
      </trkpt>
      <trkpt lat="48.66689" lon="-2.28923">
        <ele>42</ele>
        <time>2020-06-24T10:14:47.076Z</time>
      </trkpt>
      <trkpt lat="48.66688" lon="-2.28921">
        <ele>42</ele>
        <time>2020-06-24T10:14:48.076Z</time>
      </trkpt>
      <trkpt lat="48.66688" lon="-2.28919">
        <ele>42</ele>
        <time>2020-06-24T10:14:49.076Z</time>
      </trkpt>
      <trkpt lat="48.66688" lon="-2.28918">
        <ele>42</ele>
        <time>2020-06-24T10:14:50.076Z</time>
      </trkpt>
      <trkpt lat="48.66688" lon="-2.28915">
        <ele>41</ele>
        <time>2020-06-24T10:14:51.076Z</time>
      </trkpt>
      <trkpt lat="48.66688" lon="-2.28913">
        <ele>41</ele>
        <time>2020-06-24T10:14:52.076Z</time>
      </trkpt>
      <trkpt lat="48.66688" lon="-2.28911">
        <ele>41</ele>
        <time>2020-06-24T10:14:53.076Z</time>
      </trkpt>
      <trkpt lat="48.66688" lon="-2.28908">
        <ele>41</ele>
        <time>2020-06-24T10:14:54.076Z</time>
      </trkpt>
      <trkpt lat="48.66688" lon="-2.28907">
        <ele>41</ele>
        <time>2020-06-24T10:14:55.076Z</time>
      </trkpt>
      <trkpt lat="48.66688" lon="-2.28905">
        <ele>41</ele>
        <time>2020-06-24T10:14:56.076Z</time>
      </trkpt>
      <trkpt lat="48.66688" lon="-2.28903">
        <ele>41</ele>
        <time>2020-06-24T10:14:57.076Z</time>
      </trkpt>
      <trkpt lat="48.66688" lon="-2.28902">
        <ele>41</ele>
        <time>2020-06-24T10:14:58.076Z</time>
      </trkpt>
      <trkpt lat="48.66689" lon="-2.289">
        <ele>42</ele>
        <time>2020-06-24T10:14:59.076Z</time>
      </trkpt>
      <trkpt lat="48.66689" lon="-2.289">
        <ele>43</ele>
        <time>2020-06-24T10:15:00.076Z</time>
      </trkpt>
      <trkpt lat="48.6669" lon="-2.289">
        <ele>43</ele>
        <time>2020-06-24T10:15:01.076Z</time>
      </trkpt>
      <trkpt lat="48.6669" lon="-2.28899">
        <ele>43</ele>
        <time>2020-06-24T10:15:02.076Z</time>
      </trkpt>
      <trkpt lat="48.66691" lon="-2.289">
        <ele>43</ele>
        <time>2020-06-24T10:15:03.076Z</time>
      </trkpt>
      <trkpt lat="48.66691" lon="-2.289">
        <ele>43</ele>
        <time>2020-06-24T10:15:04.076Z</time>
      </trkpt>
      <trkpt lat="48.66691" lon="-2.289">
        <ele>43</ele>
        <time>2020-06-24T10:15:05.076Z</time>
      </trkpt>
      <trkpt lat="48.66691" lon="-2.289">
        <ele>43</ele>
        <time>2020-06-24T10:15:06.076Z</time>
      </trkpt>
      <trkpt lat="48.66691" lon="-2.28894">
        <ele>42</ele>
        <time>2020-06-24T10:15:07.080Z</time>
      </trkpt>
      <trkpt lat="48.66692" lon="-2.28891">
        <ele>42</ele>
        <time>2020-06-24T10:15:08.080Z</time>
      </trkpt>
      <trkpt lat="48.66692" lon="-2.28889">
        <ele>42</ele>
        <time>2020-06-24T10:15:09.080Z</time>
      </trkpt>
      <trkpt lat="48.66692" lon="-2.28887">
        <ele>42</ele>
        <time>2020-06-24T10:15:10.080Z</time>
      </trkpt>
      <trkpt lat="48.66692" lon="-2.28885">
        <ele>41</ele>
        <time>2020-06-24T10:15:11.080Z</time>
      </trkpt>
      <trkpt lat="48.66692" lon="-2.28883">
        <ele>41</ele>
        <time>2020-06-24T10:15:12.080Z</time>
      </trkpt>
      <trkpt lat="48.66693" lon="-2.2888">
        <ele>41</ele>
        <time>2020-06-24T10:15:13.080Z</time>
      </trkpt>
      <trkpt lat="48.66693" lon="-2.28878">
        <ele>41</ele>
        <time>2020-06-24T10:15:14.080Z</time>
      </trkpt>
      <trkpt lat="48.66693" lon="-2.28876">
        <ele>41</ele>
        <time>2020-06-24T10:15:15.080Z</time>
      </trkpt>
      <trkpt lat="48.66694" lon="-2.28874">
        <ele>41</ele>
        <time>2020-06-24T10:15:16.080Z</time>
      </trkpt>
      <trkpt lat="48.66694" lon="-2.28872">
        <ele>41</ele>
        <time>2020-06-24T10:15:17.080Z</time>
      </trkpt>
      <trkpt lat="48.66695" lon="-2.2887">
        <ele>41</ele>
        <time>2020-06-24T10:15:18.080Z</time>
      </trkpt>
      <trkpt lat="48.66695" lon="-2.28868">
        <ele>41</ele>
        <time>2020-06-24T10:15:19.080Z</time>
      </trkpt>
      <trkpt lat="48.66696" lon="-2.28866">
        <ele>41</ele>
        <time>2020-06-24T10:15:20.080Z</time>
      </trkpt>
      <trkpt lat="48.66697" lon="-2.28865">
        <ele>40</ele>
        <time>2020-06-24T10:15:21.080Z</time>
      </trkpt>
      <trkpt lat="48.66698" lon="-2.28864">
        <ele>40</ele>
        <time>2020-06-24T10:15:22.080Z</time>
      </trkpt>
      <trkpt lat="48.66699" lon="-2.28863">
        <ele>40</ele>
        <time>2020-06-24T10:15:23.080Z</time>
      </trkpt>
      <trkpt lat="48.66699" lon="-2.2886">
        <ele>40</ele>
        <time>2020-06-24T10:15:24.080Z</time>
      </trkpt>
      <trkpt lat="48.667" lon="-2.28858">
        <ele>40</ele>
        <time>2020-06-24T10:15:25.080Z</time>
      </trkpt>
      <trkpt lat="48.667" lon="-2.28856">
        <ele>40</ele>
        <time>2020-06-24T10:15:26.080Z</time>
      </trkpt>
      <trkpt lat="48.66701" lon="-2.28855">
        <ele>40</ele>
        <time>2020-06-24T10:15:27.080Z</time>
      </trkpt>
      <trkpt lat="48.66701" lon="-2.28853">
        <ele>39</ele>
        <time>2020-06-24T10:15:28.080Z</time>
      </trkpt>
      <trkpt lat="48.66701" lon="-2.28851">
        <ele>39</ele>
        <time>2020-06-24T10:15:29.080Z</time>
      </trkpt>
      <trkpt lat="48.66702" lon="-2.28849">
        <ele>39</ele>
        <time>2020-06-24T10:15:30.080Z</time>
      </trkpt>
      <trkpt lat="48.66703" lon="-2.28847">
        <ele>39</ele>
        <time>2020-06-24T10:15:31.080Z</time>
      </trkpt>
      <trkpt lat="48.66703" lon="-2.28845">
        <ele>38</ele>
        <time>2020-06-24T10:15:32.080Z</time>
      </trkpt>
      <trkpt lat="48.66704" lon="-2.28843">
        <ele>38</ele>
        <time>2020-06-24T10:15:33.080Z</time>
      </trkpt>
      <trkpt lat="48.66705" lon="-2.28842">
        <ele>38</ele>
        <time>2020-06-24T10:15:34.080Z</time>
      </trkpt>
      <trkpt lat="48.66705" lon="-2.2884">
        <ele>38</ele>
        <time>2020-06-24T10:15:35.080Z</time>
      </trkpt>
      <trkpt lat="48.66706" lon="-2.28839">
        <ele>38</ele>
        <time>2020-06-24T10:15:36.080Z</time>
      </trkpt>
      <trkpt lat="48.66707" lon="-2.28837">
        <ele>37</ele>
        <time>2020-06-24T10:15:37.080Z</time>
      </trkpt>
      <trkpt lat="48.66708" lon="-2.28835">
        <ele>38</ele>
        <time>2020-06-24T10:15:38.080Z</time>
      </trkpt>
      <trkpt lat="48.66709" lon="-2.28834">
        <ele>37</ele>
        <time>2020-06-24T10:15:39.080Z</time>
      </trkpt>
      <trkpt lat="48.6671" lon="-2.28832">
        <ele>37</ele>
        <time>2020-06-24T10:15:40.080Z</time>
      </trkpt>
      <trkpt lat="48.66711" lon="-2.2883">
        <ele>37</ele>
        <time>2020-06-24T10:15:41.080Z</time>
      </trkpt>
      <trkpt lat="48.66711" lon="-2.28828">
        <ele>37</ele>
        <time>2020-06-24T10:15:42.080Z</time>
      </trkpt>
      <trkpt lat="48.66712" lon="-2.28826">
        <ele>37</ele>
        <time>2020-06-24T10:15:43.080Z</time>
      </trkpt>
      <trkpt lat="48.66712" lon="-2.28824">
        <ele>36</ele>
        <time>2020-06-24T10:15:44.080Z</time>
      </trkpt>
      <trkpt lat="48.66713" lon="-2.28823">
        <ele>36</ele>
        <time>2020-06-24T10:15:45.080Z</time>
      </trkpt>
      <trkpt lat="48.66713" lon="-2.28821">
        <ele>36</ele>
        <time>2020-06-24T10:15:46.080Z</time>
      </trkpt>
      <trkpt lat="48.66713" lon="-2.28821">
        <ele>36</ele>
        <time>2020-06-24T10:15:47.080Z</time>
      </trkpt>
      <trkpt lat="48.66714" lon="-2.2882">
        <ele>38</ele>
        <time>2020-06-24T10:15:48.080Z</time>
      </trkpt>
      <trkpt lat="48.66715" lon="-2.2882">
        <ele>38</ele>
        <time>2020-06-24T10:15:49.080Z</time>
      </trkpt>
      <trkpt lat="48.66715" lon="-2.2882">
        <ele>38</ele>
        <time>2020-06-24T10:15:50.080Z</time>
      </trkpt>
      <trkpt lat="48.66715" lon="-2.2882">
        <ele>38</ele>
        <time>2020-06-24T10:15:51.080Z</time>
      </trkpt>
      <trkpt lat="48.66715" lon="-2.2882">
        <ele>38</ele>
        <time>2020-06-24T10:15:52.080Z</time>
      </trkpt>
      <trkpt lat="48.66715" lon="-2.2882">
        <ele>38</ele>
        <time>2020-06-24T10:15:53.080Z</time>
      </trkpt>
      <trkpt lat="48.66712" lon="-2.28816">
        <ele>37</ele>
        <time>2020-06-24T10:15:54.084Z</time>
      </trkpt>
      <trkpt lat="48.66711" lon="-2.28815">
        <ele>37</ele>
        <time>2020-06-24T10:15:55.084Z</time>
      </trkpt>
      <trkpt lat="48.6671" lon="-2.28813">
        <ele>36</ele>
        <time>2020-06-24T10:15:56.084Z</time>
      </trkpt>
      <trkpt lat="48.66709" lon="-2.28812">
        <ele>36</ele>
        <time>2020-06-24T10:15:57.084Z</time>
      </trkpt>
      <trkpt lat="48.66708" lon="-2.2881">
        <ele>36</ele>
        <time>2020-06-24T10:15:58.084Z</time>
      </trkpt>
      <trkpt lat="48.66707" lon="-2.28808">
        <ele>36</ele>
        <time>2020-06-24T10:15:59.084Z</time>
      </trkpt>
      <trkpt lat="48.66706" lon="-2.28807">
        <ele>36</ele>
        <time>2020-06-24T10:16:00.084Z</time>
      </trkpt>
      <trkpt lat="48.66705" lon="-2.28805">
        <ele>36</ele>
        <time>2020-06-24T10:16:01.084Z</time>
      </trkpt>
      <trkpt lat="48.66705" lon="-2.28804">
        <ele>35</ele>
        <time>2020-06-24T10:16:02.084Z</time>
      </trkpt>
      <trkpt lat="48.66704" lon="-2.28803">
        <ele>35</ele>
        <time>2020-06-24T10:16:03.084Z</time>
      </trkpt>
      <trkpt lat="48.66703" lon="-2.28801">
        <ele>35</ele>
        <time>2020-06-24T10:16:04.084Z</time>
      </trkpt>
      <trkpt lat="48.66702" lon="-2.288">
        <ele>35</ele>
        <time>2020-06-24T10:16:05.084Z</time>
      </trkpt>
      <trkpt lat="48.66701" lon="-2.28798">
        <ele>35</ele>
        <time>2020-06-24T10:16:06.084Z</time>
      </trkpt>
      <trkpt lat="48.667" lon="-2.28797">
        <ele>35</ele>
        <time>2020-06-24T10:16:07.084Z</time>
      </trkpt>
      <trkpt lat="48.66699" lon="-2.28795">
        <ele>35</ele>
        <time>2020-06-24T10:16:08.084Z</time>
      </trkpt>
      <trkpt lat="48.66698" lon="-2.28793">
        <ele>35</ele>
        <time>2020-06-24T10:16:09.084Z</time>
      </trkpt>
      <trkpt lat="48.66697" lon="-2.28791">
        <ele>35</ele>
        <time>2020-06-24T10:16:10.084Z</time>
      </trkpt>
      <trkpt lat="48.66697" lon="-2.28789">
        <ele>34</ele>
        <time>2020-06-24T10:16:11.084Z</time>
      </trkpt>
      <trkpt lat="48.66697" lon="-2.28786">
        <ele>34</ele>
        <time>2020-06-24T10:16:12.084Z</time>
      </trkpt>
      <trkpt lat="48.66697" lon="-2.28784">
        <ele>34</ele>
        <time>2020-06-24T10:16:13.084Z</time>
      </trkpt>
      <trkpt lat="48.66696" lon="-2.28782">
        <ele>34</ele>
        <time>2020-06-24T10:16:14.084Z</time>
      </trkpt>
      <trkpt lat="48.66696" lon="-2.28781">
        <ele>33</ele>
        <time>2020-06-24T10:16:15.084Z</time>
      </trkpt>
      <trkpt lat="48.66696" lon="-2.2878">
        <ele>34</ele>
        <time>2020-06-24T10:16:16.084Z</time>
      </trkpt>
      <trkpt lat="48.66696" lon="-2.28779">
        <ele>33</ele>
        <time>2020-06-24T10:16:17.084Z</time>
      </trkpt>
      <trkpt lat="48.66696" lon="-2.28778">
        <ele>32</ele>
        <time>2020-06-24T10:16:18.084Z</time>
      </trkpt>
      <trkpt lat="48.66696" lon="-2.28777">
        <ele>32</ele>
        <time>2020-06-24T10:16:19.084Z</time>
      </trkpt>
      <trkpt lat="48.66696" lon="-2.28776">
        <ele>32</ele>
        <time>2020-06-24T10:16:20.084Z</time>
      </trkpt>
      <trkpt lat="48.66696" lon="-2.28774">
        <ele>31</ele>
        <time>2020-06-24T10:16:21.084Z</time>
      </trkpt>
      <trkpt lat="48.66695" lon="-2.28772">
        <ele>31</ele>
        <time>2020-06-24T10:16:22.084Z</time>
      </trkpt>
      <trkpt lat="48.66695" lon="-2.2877">
        <ele>31</ele>
        <time>2020-06-24T10:16:23.084Z</time>
      </trkpt>
      <trkpt lat="48.66695" lon="-2.28769">
        <ele>31</ele>
        <time>2020-06-24T10:16:24.084Z</time>
      </trkpt>
      <trkpt lat="48.66694" lon="-2.28767">
        <ele>31</ele>
        <time>2020-06-24T10:16:25.084Z</time>
      </trkpt>
      <trkpt lat="48.66694" lon="-2.28767">
        <ele>31</ele>
        <time>2020-06-24T10:16:26.084Z</time>
      </trkpt>
      <trkpt lat="48.66694" lon="-2.28767">
        <ele>32</ele>
        <time>2020-06-24T10:16:27.084Z</time>
      </trkpt>
      <trkpt lat="48.66694" lon="-2.28767">
        <ele>32</ele>
        <time>2020-06-24T10:16:28.084Z</time>
      </trkpt>
      <trkpt lat="48.66694" lon="-2.28766">
        <ele>32</ele>
        <time>2020-06-24T10:16:29.084Z</time>
      </trkpt>
      <trkpt lat="48.66694" lon="-2.28766">
        <ele>32</ele>
        <time>2020-06-24T10:16:30.084Z</time>
      </trkpt>
      <trkpt lat="48.66694" lon="-2.28765">
        <ele>32</ele>
        <time>2020-06-24T10:16:31.084Z</time>
      </trkpt>
      <trkpt lat="48.66694" lon="-2.28764">
        <ele>33</ele>
        <time>2020-06-24T10:16:32.084Z</time>
      </trkpt>
      <trkpt lat="48.66694" lon="-2.28761">
        <ele>33</ele>
        <time>2020-06-24T10:16:33.084Z</time>
      </trkpt>
      <trkpt lat="48.66694" lon="-2.28758">
        <ele>33</ele>
        <time>2020-06-24T10:16:34.084Z</time>
      </trkpt>
      <trkpt lat="48.66694" lon="-2.28756">
        <ele>32</ele>
        <time>2020-06-24T10:16:35.084Z</time>
      </trkpt>
      <trkpt lat="48.66695" lon="-2.28753">
        <ele>32</ele>
        <time>2020-06-24T10:16:36.084Z</time>
      </trkpt>
      <trkpt lat="48.66695" lon="-2.28751">
        <ele>32</ele>
        <time>2020-06-24T10:16:37.084Z</time>
      </trkpt>
      <trkpt lat="48.66695" lon="-2.28749">
        <ele>31</ele>
        <time>2020-06-24T10:16:38.084Z</time>
      </trkpt>
      <trkpt lat="48.66696" lon="-2.28747">
        <ele>31</ele>
        <time>2020-06-24T10:16:39.084Z</time>
      </trkpt>
      <trkpt lat="48.66696" lon="-2.28745">
        <ele>31</ele>
        <time>2020-06-24T10:16:40.084Z</time>
      </trkpt>
      <trkpt lat="48.66696" lon="-2.28743">
        <ele>31</ele>
        <time>2020-06-24T10:16:41.084Z</time>
      </trkpt>
      <trkpt lat="48.66697" lon="-2.28741">
        <ele>31</ele>
        <time>2020-06-24T10:16:42.084Z</time>
      </trkpt>
      <trkpt lat="48.66697" lon="-2.2874">
        <ele>30</ele>
        <time>2020-06-24T10:16:43.084Z</time>
      </trkpt>
      <trkpt lat="48.66696" lon="-2.28739">
        <ele>30</ele>
        <time>2020-06-24T10:16:44.084Z</time>
      </trkpt>
      <trkpt lat="48.66696" lon="-2.28738">
        <ele>30</ele>
        <time>2020-06-24T10:16:45.084Z</time>
      </trkpt>
      <trkpt lat="48.66696" lon="-2.28737">
        <ele>30</ele>
        <time>2020-06-24T10:16:46.084Z</time>
      </trkpt>
      <trkpt lat="48.66697" lon="-2.28737">
        <ele>30</ele>
        <time>2020-06-24T10:16:47.084Z</time>
      </trkpt>
      <trkpt lat="48.66697" lon="-2.28736">
        <ele>31</ele>
        <time>2020-06-24T10:16:48.084Z</time>
      </trkpt>
      <trkpt lat="48.66696" lon="-2.28735">
        <ele>30</ele>
        <time>2020-06-24T10:16:49.084Z</time>
      </trkpt>
      <trkpt lat="48.66696" lon="-2.28734">
        <ele>30</ele>
        <time>2020-06-24T10:16:50.084Z</time>
      </trkpt>
      <trkpt lat="48.66696" lon="-2.28734">
        <ele>30</ele>
        <time>2020-06-24T10:16:51.084Z</time>
      </trkpt>
      <trkpt lat="48.66696" lon="-2.28734">
        <ele>31</ele>
        <time>2020-06-24T10:16:52.084Z</time>
      </trkpt>
      <trkpt lat="48.66696" lon="-2.28733">
        <ele>31</ele>
        <time>2020-06-24T10:16:53.084Z</time>
      </trkpt>
      <trkpt lat="48.66696" lon="-2.28733">
        <ele>30</ele>
        <time>2020-06-24T10:16:54.084Z</time>
      </trkpt>
      <trkpt lat="48.66696" lon="-2.28733">
        <ele>30</ele>
        <time>2020-06-24T10:16:55.084Z</time>
      </trkpt>
      <trkpt lat="48.66696" lon="-2.28732">
        <ele>31</ele>
        <time>2020-06-24T10:16:56.084Z</time>
      </trkpt>
      <trkpt lat="48.66696" lon="-2.28732">
        <ele>31</ele>
        <time>2020-06-24T10:16:57.084Z</time>
      </trkpt>
      <trkpt lat="48.66696" lon="-2.28731">
        <ele>31</ele>
        <time>2020-06-24T10:16:58.084Z</time>
      </trkpt>
      <trkpt lat="48.66696" lon="-2.28731">
        <ele>31</ele>
        <time>2020-06-24T10:16:59.084Z</time>
      </trkpt>
      <trkpt lat="48.66696" lon="-2.28731">
        <ele>31</ele>
        <time>2020-06-24T10:17:00.084Z</time>
      </trkpt>
      <trkpt lat="48.66696" lon="-2.28731">
        <ele>31</ele>
        <time>2020-06-24T10:17:01.084Z</time>
      </trkpt>
      <trkpt lat="48.66693" lon="-2.2873">
        <ele>31</ele>
        <time>2020-06-24T10:17:02.084Z</time>
      </trkpt>
      <trkpt lat="48.66692" lon="-2.2873">
        <ele>31</ele>
        <time>2020-06-24T10:17:03.084Z</time>
      </trkpt>
      <trkpt lat="48.66691" lon="-2.2873">
        <ele>32</ele>
        <time>2020-06-24T10:17:04.084Z</time>
      </trkpt>
      <trkpt lat="48.6669" lon="-2.28731">
        <ele>32</ele>
        <time>2020-06-24T10:17:05.084Z</time>
      </trkpt>
      <trkpt lat="48.66689" lon="-2.28731">
        <ele>32</ele>
        <time>2020-06-24T10:17:06.084Z</time>
      </trkpt>
      <trkpt lat="48.66688" lon="-2.28731">
        <ele>32</ele>
        <time>2020-06-24T10:17:07.084Z</time>
      </trkpt>
      <trkpt lat="48.66687" lon="-2.28731">
        <ele>32</ele>
        <time>2020-06-24T10:17:08.084Z</time>
      </trkpt>
      <trkpt lat="48.66686" lon="-2.28731">
        <ele>32</ele>
        <time>2020-06-24T10:17:09.084Z</time>
      </trkpt>
      <trkpt lat="48.66686" lon="-2.28731">
        <ele>32</ele>
        <time>2020-06-24T10:17:10.084Z</time>
      </trkpt>
      <trkpt lat="48.66686" lon="-2.28732">
        <ele>32</ele>
        <time>2020-06-24T10:17:11.084Z</time>
      </trkpt>
      <trkpt lat="48.66686" lon="-2.28733">
        <ele>32</ele>
        <time>2020-06-24T10:17:12.084Z</time>
      </trkpt>
      <trkpt lat="48.66687" lon="-2.28733">
        <ele>32</ele>
        <time>2020-06-24T10:17:13.084Z</time>
      </trkpt>
      <trkpt lat="48.66688" lon="-2.28733">
        <ele>32</ele>
        <time>2020-06-24T10:17:14.084Z</time>
      </trkpt>
      <trkpt lat="48.6669" lon="-2.28732">
        <ele>31</ele>
        <time>2020-06-24T10:17:15.084Z</time>
      </trkpt>
      <trkpt lat="48.66691" lon="-2.28731">
        <ele>31</ele>
        <time>2020-06-24T10:17:16.084Z</time>
      </trkpt>
      <trkpt lat="48.66692" lon="-2.28729">
        <ele>31</ele>
        <time>2020-06-24T10:17:17.084Z</time>
      </trkpt>
      <trkpt lat="48.66692" lon="-2.28727">
        <ele>31</ele>
        <time>2020-06-24T10:17:18.084Z</time>
      </trkpt>
      <trkpt lat="48.66692" lon="-2.28725">
        <ele>30</ele>
        <time>2020-06-24T10:17:19.084Z</time>
      </trkpt>
      <trkpt lat="48.66691" lon="-2.28723">
        <ele>30</ele>
        <time>2020-06-24T10:17:20.084Z</time>
      </trkpt>
      <trkpt lat="48.66691" lon="-2.28722">
        <ele>30</ele>
        <time>2020-06-24T10:17:21.084Z</time>
      </trkpt>
      <trkpt lat="48.6669" lon="-2.2872">
        <ele>30</ele>
        <time>2020-06-24T10:17:22.084Z</time>
      </trkpt>
      <trkpt lat="48.6669" lon="-2.28718">
        <ele>30</ele>
        <time>2020-06-24T10:17:23.084Z</time>
      </trkpt>
      <trkpt lat="48.66689" lon="-2.28716">
        <ele>30</ele>
        <time>2020-06-24T10:17:24.084Z</time>
      </trkpt>
      <trkpt lat="48.66689" lon="-2.28714">
        <ele>29</ele>
        <time>2020-06-24T10:17:25.084Z</time>
      </trkpt>
      <trkpt lat="48.66688" lon="-2.28713">
        <ele>29</ele>
        <time>2020-06-24T10:17:26.084Z</time>
      </trkpt>
      <trkpt lat="48.66687" lon="-2.28711">
        <ele>29</ele>
        <time>2020-06-24T10:17:27.084Z</time>
      </trkpt>
      <trkpt lat="48.66687" lon="-2.2871">
        <ele>29</ele>
        <time>2020-06-24T10:17:28.084Z</time>
      </trkpt>
      <trkpt lat="48.66686" lon="-2.28709">
        <ele>29</ele>
        <time>2020-06-24T10:17:29.084Z</time>
      </trkpt>
      <trkpt lat="48.66684" lon="-2.28708">
        <ele>29</ele>
        <time>2020-06-24T10:17:30.084Z</time>
      </trkpt>
      <trkpt lat="48.66683" lon="-2.28707">
        <ele>28</ele>
        <time>2020-06-24T10:17:31.084Z</time>
      </trkpt>
      <trkpt lat="48.66682" lon="-2.28707">
        <ele>28</ele>
        <time>2020-06-24T10:17:32.084Z</time>
      </trkpt>
      <trkpt lat="48.66681" lon="-2.28706">
        <ele>27</ele>
        <time>2020-06-24T10:17:33.084Z</time>
      </trkpt>
      <trkpt lat="48.66679" lon="-2.28706">
        <ele>27</ele>
        <time>2020-06-24T10:17:34.084Z</time>
      </trkpt>
      <trkpt lat="48.66678" lon="-2.28706">
        <ele>27</ele>
        <time>2020-06-24T10:17:35.084Z</time>
      </trkpt>
      <trkpt lat="48.66677" lon="-2.28706">
        <ele>27</ele>
        <time>2020-06-24T10:17:36.084Z</time>
      </trkpt>
      <trkpt lat="48.66675" lon="-2.28706">
        <ele>27</ele>
        <time>2020-06-24T10:17:37.084Z</time>
      </trkpt>
      <trkpt lat="48.66674" lon="-2.28706">
        <ele>26</ele>
        <time>2020-06-24T10:17:38.084Z</time>
      </trkpt>
      <trkpt lat="48.66672" lon="-2.28706">
        <ele>26</ele>
        <time>2020-06-24T10:17:39.084Z</time>
      </trkpt>
      <trkpt lat="48.66671" lon="-2.28706">
        <ele>27</ele>
        <time>2020-06-24T10:17:40.084Z</time>
      </trkpt>
      <trkpt lat="48.66669" lon="-2.28707">
        <ele>27</ele>
        <time>2020-06-24T10:17:41.084Z</time>
      </trkpt>
      <trkpt lat="48.66668" lon="-2.28707">
        <ele>27</ele>
        <time>2020-06-24T10:17:42.084Z</time>
      </trkpt>
      <trkpt lat="48.66666" lon="-2.28707">
        <ele>27</ele>
        <time>2020-06-24T10:17:43.084Z</time>
      </trkpt>
      <trkpt lat="48.66665" lon="-2.28706">
        <ele>27</ele>
        <time>2020-06-24T10:17:44.084Z</time>
      </trkpt>
      <trkpt lat="48.66664" lon="-2.28706">
        <ele>26</ele>
        <time>2020-06-24T10:17:45.084Z</time>
      </trkpt>
      <trkpt lat="48.66662" lon="-2.28705">
        <ele>26</ele>
        <time>2020-06-24T10:17:46.084Z</time>
      </trkpt>
      <trkpt lat="48.66661" lon="-2.28704">
        <ele>27</ele>
        <time>2020-06-24T10:17:47.084Z</time>
      </trkpt>
      <trkpt lat="48.6666" lon="-2.28703">
        <ele>27</ele>
        <time>2020-06-24T10:17:48.084Z</time>
      </trkpt>
      <trkpt lat="48.66659" lon="-2.28702">
        <ele>26</ele>
        <time>2020-06-24T10:17:49.084Z</time>
      </trkpt>
      <trkpt lat="48.66658" lon="-2.28701">
        <ele>27</ele>
        <time>2020-06-24T10:17:50.084Z</time>
      </trkpt>
      <trkpt lat="48.66657" lon="-2.28699">
        <ele>26</ele>
        <time>2020-06-24T10:17:51.084Z</time>
      </trkpt>
      <trkpt lat="48.66655" lon="-2.28698">
        <ele>26</ele>
        <time>2020-06-24T10:17:52.084Z</time>
      </trkpt>
      <trkpt lat="48.66654" lon="-2.28698">
        <ele>26</ele>
        <time>2020-06-24T10:17:53.084Z</time>
      </trkpt>
      <trkpt lat="48.66653" lon="-2.28697">
        <ele>25</ele>
        <time>2020-06-24T10:17:54.084Z</time>
      </trkpt>
      <trkpt lat="48.66652" lon="-2.28696">
        <ele>25</ele>
        <time>2020-06-24T10:17:55.084Z</time>
      </trkpt>
      <trkpt lat="48.66651" lon="-2.28695">
        <ele>25</ele>
        <time>2020-06-24T10:17:56.084Z</time>
      </trkpt>
      <trkpt lat="48.6665" lon="-2.28694">
        <ele>25</ele>
        <time>2020-06-24T10:17:57.084Z</time>
      </trkpt>
      <trkpt lat="48.66649" lon="-2.28693">
        <ele>25</ele>
        <time>2020-06-24T10:17:58.084Z</time>
      </trkpt>
      <trkpt lat="48.66648" lon="-2.28691">
        <ele>24</ele>
        <time>2020-06-24T10:17:59.084Z</time>
      </trkpt>
      <trkpt lat="48.66647" lon="-2.2869">
        <ele>24</ele>
        <time>2020-06-24T10:18:00.084Z</time>
      </trkpt>
      <trkpt lat="48.66646" lon="-2.2869">
        <ele>23</ele>
        <time>2020-06-24T10:18:01.084Z</time>
      </trkpt>
      <trkpt lat="48.66645" lon="-2.28689">
        <ele>23</ele>
        <time>2020-06-24T10:18:02.084Z</time>
      </trkpt>
      <trkpt lat="48.66644" lon="-2.28687">
        <ele>23</ele>
        <time>2020-06-24T10:18:03.084Z</time>
      </trkpt>
      <trkpt lat="48.66643" lon="-2.28686">
        <ele>23</ele>
        <time>2020-06-24T10:18:04.084Z</time>
      </trkpt>
      <trkpt lat="48.66642" lon="-2.28684">
        <ele>23</ele>
        <time>2020-06-24T10:18:05.084Z</time>
      </trkpt>
      <trkpt lat="48.6664" lon="-2.28683">
        <ele>23</ele>
        <time>2020-06-24T10:18:06.084Z</time>
      </trkpt>
      <trkpt lat="48.66639" lon="-2.28682">
        <ele>22</ele>
        <time>2020-06-24T10:18:07.084Z</time>
      </trkpt>
      <trkpt lat="48.66638" lon="-2.28681">
        <ele>22</ele>
        <time>2020-06-24T10:18:08.084Z</time>
      </trkpt>
      <trkpt lat="48.66637" lon="-2.28681">
        <ele>21</ele>
        <time>2020-06-24T10:18:09.084Z</time>
      </trkpt>
      <trkpt lat="48.66635" lon="-2.28681">
        <ele>21</ele>
        <time>2020-06-24T10:18:10.084Z</time>
      </trkpt>
      <trkpt lat="48.66634" lon="-2.28681">
        <ele>20</ele>
        <time>2020-06-24T10:18:11.084Z</time>
      </trkpt>
      <trkpt lat="48.66633" lon="-2.2868">
        <ele>20</ele>
        <time>2020-06-24T10:18:12.084Z</time>
      </trkpt>
      <trkpt lat="48.66631" lon="-2.2868">
        <ele>20</ele>
        <time>2020-06-24T10:18:13.084Z</time>
      </trkpt>
      <trkpt lat="48.6663" lon="-2.28679">
        <ele>20</ele>
        <time>2020-06-24T10:18:14.084Z</time>
      </trkpt>
      <trkpt lat="48.66629" lon="-2.28677">
        <ele>19</ele>
        <time>2020-06-24T10:18:15.084Z</time>
      </trkpt>
      <trkpt lat="48.66628" lon="-2.28676">
        <ele>20</ele>
        <time>2020-06-24T10:18:16.084Z</time>
      </trkpt>
      <trkpt lat="48.66628" lon="-2.28675">
        <ele>19</ele>
        <time>2020-06-24T10:18:17.084Z</time>
      </trkpt>
      <trkpt lat="48.66627" lon="-2.28674">
        <ele>19</ele>
        <time>2020-06-24T10:18:18.084Z</time>
      </trkpt>
      <trkpt lat="48.66626" lon="-2.28673">
        <ele>18</ele>
        <time>2020-06-24T10:18:19.084Z</time>
      </trkpt>
      <trkpt lat="48.66625" lon="-2.28672">
        <ele>18</ele>
        <time>2020-06-24T10:18:20.084Z</time>
      </trkpt>
      <trkpt lat="48.66625" lon="-2.28671">
        <ele>18</ele>
        <time>2020-06-24T10:18:21.084Z</time>
      </trkpt>
      <trkpt lat="48.66625" lon="-2.2867">
        <ele>17</ele>
        <time>2020-06-24T10:18:22.084Z</time>
      </trkpt>
      <trkpt lat="48.66624" lon="-2.28669">
        <ele>17</ele>
        <time>2020-06-24T10:18:23.084Z</time>
      </trkpt>
      <trkpt lat="48.66625" lon="-2.28668">
        <ele>17</ele>
        <time>2020-06-24T10:18:24.084Z</time>
      </trkpt>
      <trkpt lat="48.66625" lon="-2.28667">
        <ele>16</ele>
        <time>2020-06-24T10:18:25.084Z</time>
      </trkpt>
      <trkpt lat="48.66625" lon="-2.28666">
        <ele>16</ele>
        <time>2020-06-24T10:18:26.084Z</time>
      </trkpt>
      <trkpt lat="48.66625" lon="-2.28666">
        <ele>15</ele>
        <time>2020-06-24T10:18:27.084Z</time>
      </trkpt>
      <trkpt lat="48.66624" lon="-2.28665">
        <ele>14</ele>
        <time>2020-06-24T10:18:28.084Z</time>
      </trkpt>
      <trkpt lat="48.66624" lon="-2.28665">
        <ele>14</ele>
        <time>2020-06-24T10:18:29.084Z</time>
      </trkpt>
      <trkpt lat="48.66624" lon="-2.28664">
        <ele>14</ele>
        <time>2020-06-24T10:18:30.084Z</time>
      </trkpt>
      <trkpt lat="48.66624" lon="-2.28663">
        <ele>14</ele>
        <time>2020-06-24T10:18:31.084Z</time>
      </trkpt>
      <trkpt lat="48.66623" lon="-2.28663">
        <ele>13</ele>
        <time>2020-06-24T10:18:32.084Z</time>
      </trkpt>
      <trkpt lat="48.66623" lon="-2.28662">
        <ele>13</ele>
        <time>2020-06-24T10:18:33.084Z</time>
      </trkpt>
      <trkpt lat="48.66623" lon="-2.28661">
        <ele>13</ele>
        <time>2020-06-24T10:18:34.084Z</time>
      </trkpt>
      <trkpt lat="48.66623" lon="-2.28661">
        <ele>12</ele>
        <time>2020-06-24T10:18:35.084Z</time>
      </trkpt>
      <trkpt lat="48.66622" lon="-2.2866">
        <ele>12</ele>
        <time>2020-06-24T10:18:36.084Z</time>
      </trkpt>
      <trkpt lat="48.66622" lon="-2.28659">
        <ele>12</ele>
        <time>2020-06-24T10:18:37.084Z</time>
      </trkpt>
      <trkpt lat="48.66622" lon="-2.28658">
        <ele>11</ele>
        <time>2020-06-24T10:18:38.084Z</time>
      </trkpt>
      <trkpt lat="48.66622" lon="-2.28657">
        <ele>11</ele>
        <time>2020-06-24T10:18:39.084Z</time>
      </trkpt>
      <trkpt lat="48.66622" lon="-2.28655">
        <ele>11</ele>
        <time>2020-06-24T10:18:40.084Z</time>
      </trkpt>
      <trkpt lat="48.66621" lon="-2.28654">
        <ele>12</ele>
        <time>2020-06-24T10:18:41.084Z</time>
      </trkpt>
      <trkpt lat="48.66622" lon="-2.28652">
        <ele>12</ele>
        <time>2020-06-24T10:18:42.084Z</time>
      </trkpt>
      <trkpt lat="48.66622" lon="-2.28651">
        <ele>12</ele>
        <time>2020-06-24T10:18:43.084Z</time>
      </trkpt>
      <trkpt lat="48.66622" lon="-2.2865">
        <ele>12</ele>
        <time>2020-06-24T10:18:44.084Z</time>
      </trkpt>
      <trkpt lat="48.66623" lon="-2.28649">
        <ele>11</ele>
        <time>2020-06-24T10:18:45.084Z</time>
      </trkpt>
      <trkpt lat="48.66623" lon="-2.28648">
        <ele>11</ele>
        <time>2020-06-24T10:18:46.084Z</time>
      </trkpt>
      <trkpt lat="48.66624" lon="-2.28648">
        <ele>11</ele>
        <time>2020-06-24T10:18:47.084Z</time>
      </trkpt>
      <trkpt lat="48.66624" lon="-2.28647">
        <ele>11</ele>
        <time>2020-06-24T10:18:48.084Z</time>
      </trkpt>
      <trkpt lat="48.66624" lon="-2.28647">
        <ele>11</ele>
        <time>2020-06-24T10:18:49.084Z</time>
      </trkpt>
      <trkpt lat="48.66625" lon="-2.28647">
        <ele>11</ele>
        <time>2020-06-24T10:18:50.084Z</time>
      </trkpt>
      <trkpt lat="48.66625" lon="-2.28647">
        <ele>11</ele>
        <time>2020-06-24T10:18:51.084Z</time>
      </trkpt>
      <trkpt lat="48.66626" lon="-2.28647">
        <ele>11</ele>
        <time>2020-06-24T10:18:52.084Z</time>
      </trkpt>
      <trkpt lat="48.66626" lon="-2.28647">
        <ele>11</ele>
        <time>2020-06-24T10:18:53.084Z</time>
      </trkpt>
      <trkpt lat="48.66627" lon="-2.28647">
        <ele>11</ele>
        <time>2020-06-24T10:18:54.084Z</time>
      </trkpt>
      <trkpt lat="48.66627" lon="-2.28647">
        <ele>10</ele>
        <time>2020-06-24T10:18:55.084Z</time>
      </trkpt>
      <trkpt lat="48.66628" lon="-2.28647">
        <ele>10</ele>
        <time>2020-06-24T10:18:56.084Z</time>
      </trkpt>
      <trkpt lat="48.66628" lon="-2.28648">
        <ele>10</ele>
        <time>2020-06-24T10:18:57.084Z</time>
      </trkpt>
      <trkpt lat="48.66629" lon="-2.28648">
        <ele>10</ele>
        <time>2020-06-24T10:18:58.084Z</time>
      </trkpt>
      <trkpt lat="48.66629" lon="-2.28648">
        <ele>10</ele>
        <time>2020-06-24T10:18:59.084Z</time>
      </trkpt>
      <trkpt lat="48.6663" lon="-2.28648">
        <ele>10</ele>
        <time>2020-06-24T10:19:00.084Z</time>
      </trkpt>
      <trkpt lat="48.6663" lon="-2.28648">
        <ele>10</ele>
        <time>2020-06-24T10:19:01.084Z</time>
      </trkpt>
      <trkpt lat="48.6663" lon="-2.28648">
        <ele>10</ele>
        <time>2020-06-24T10:19:02.084Z</time>
      </trkpt>
      <trkpt lat="48.6663" lon="-2.28648">
        <ele>9</ele>
        <time>2020-06-24T10:19:03.084Z</time>
      </trkpt>
      <trkpt lat="48.66631" lon="-2.28649">
        <ele>10</ele>
        <time>2020-06-24T10:19:04.084Z</time>
      </trkpt>
      <trkpt lat="48.66632" lon="-2.28649">
        <ele>10</ele>
        <time>2020-06-24T10:19:05.084Z</time>
      </trkpt>
      <trkpt lat="48.66632" lon="-2.28649">
        <ele>10</ele>
        <time>2020-06-24T10:19:06.084Z</time>
      </trkpt>
      <trkpt lat="48.66633" lon="-2.2865">
        <ele>10</ele>
        <time>2020-06-24T10:19:07.084Z</time>
      </trkpt>
      <trkpt lat="48.66633" lon="-2.2865">
        <ele>10</ele>
        <time>2020-06-24T10:19:08.084Z</time>
      </trkpt>
      <trkpt lat="48.66633" lon="-2.2865">
        <ele>10</ele>
        <time>2020-06-24T10:19:09.084Z</time>
      </trkpt>
      <trkpt lat="48.66633" lon="-2.2865">
        <ele>10</ele>
        <time>2020-06-24T10:19:10.084Z</time>
      </trkpt>
      <trkpt lat="48.66633" lon="-2.2865">
        <ele>10</ele>
        <time>2020-06-24T10:19:11.084Z</time>
      </trkpt>
      <trkpt lat="48.66633" lon="-2.2865">
        <ele>10</ele>
        <time>2020-06-24T10:19:12.084Z</time>
      </trkpt>
      <trkpt lat="48.66634" lon="-2.2865">
        <ele>10</ele>
        <time>2020-06-24T10:19:13.084Z</time>
      </trkpt>
      <trkpt lat="48.66634" lon="-2.2865">
        <ele>10</ele>
        <time>2020-06-24T10:19:14.084Z</time>
      </trkpt>
      <trkpt lat="48.66635" lon="-2.2865">
        <ele>10</ele>
        <time>2020-06-24T10:19:15.084Z</time>
      </trkpt>
      <trkpt lat="48.66635" lon="-2.2865">
        <ele>10</ele>
        <time>2020-06-24T10:19:16.084Z</time>
      </trkpt>
      <trkpt lat="48.66635" lon="-2.2865">
        <ele>10</ele>
        <time>2020-06-24T10:19:17.084Z</time>
      </trkpt>
      <trkpt lat="48.66636" lon="-2.28651">
        <ele>10</ele>
        <time>2020-06-24T10:19:18.084Z</time>
      </trkpt>
      <trkpt lat="48.66636" lon="-2.28651">
        <ele>10</ele>
        <time>2020-06-24T10:19:19.084Z</time>
      </trkpt>
      <trkpt lat="48.66636" lon="-2.28651">
        <ele>10</ele>
        <time>2020-06-24T10:19:20.084Z</time>
      </trkpt>
      <trkpt lat="48.66637" lon="-2.28652">
        <ele>10</ele>
        <time>2020-06-24T10:19:21.084Z</time>
      </trkpt>
      <trkpt lat="48.66637" lon="-2.28652">
        <ele>9</ele>
        <time>2020-06-24T10:19:22.084Z</time>
      </trkpt>
      <trkpt lat="48.66638" lon="-2.28652">
        <ele>9</ele>
        <time>2020-06-24T10:19:23.084Z</time>
      </trkpt>
      <trkpt lat="48.66638" lon="-2.28652">
        <ele>9</ele>
        <time>2020-06-24T10:19:24.084Z</time>
      </trkpt>
      <trkpt lat="48.66639" lon="-2.28652">
        <ele>8</ele>
        <time>2020-06-24T10:19:25.084Z</time>
      </trkpt>
      <trkpt lat="48.6664" lon="-2.28652">
        <ele>8</ele>
        <time>2020-06-24T10:19:26.084Z</time>
      </trkpt>
      <trkpt lat="48.6664" lon="-2.28652">
        <ele>8</ele>
        <time>2020-06-24T10:19:27.084Z</time>
      </trkpt>
      <trkpt lat="48.66641" lon="-2.28651">
        <ele>8</ele>
        <time>2020-06-24T10:19:28.084Z</time>
      </trkpt>
      <trkpt lat="48.66641" lon="-2.28651">
        <ele>7</ele>
        <time>2020-06-24T10:19:29.084Z</time>
      </trkpt>
      <trkpt lat="48.66642" lon="-2.2865">
        <ele>7</ele>
        <time>2020-06-24T10:19:30.084Z</time>
      </trkpt>
      <trkpt lat="48.66643" lon="-2.2865">
        <ele>7</ele>
        <time>2020-06-24T10:19:31.084Z</time>
      </trkpt>
      <trkpt lat="48.66644" lon="-2.28649">
        <ele>7</ele>
        <time>2020-06-24T10:19:32.084Z</time>
      </trkpt>
      <trkpt lat="48.66645" lon="-2.28649">
        <ele>7</ele>
        <time>2020-06-24T10:19:33.084Z</time>
      </trkpt>
      <trkpt lat="48.66646" lon="-2.28649">
        <ele>7</ele>
        <time>2020-06-24T10:19:34.084Z</time>
      </trkpt>
      <trkpt lat="48.66647" lon="-2.28648">
        <ele>7</ele>
        <time>2020-06-24T10:19:35.084Z</time>
      </trkpt>
      <trkpt lat="48.66647" lon="-2.28648">
        <ele>7</ele>
        <time>2020-06-24T10:19:36.084Z</time>
      </trkpt>
      <trkpt lat="48.66648" lon="-2.28647">
        <ele>6</ele>
        <time>2020-06-24T10:19:37.084Z</time>
      </trkpt>
      <trkpt lat="48.66648" lon="-2.28646">
        <ele>6</ele>
        <time>2020-06-24T10:19:38.084Z</time>
      </trkpt>
      <trkpt lat="48.66649" lon="-2.28645">
        <ele>5</ele>
        <time>2020-06-24T10:19:39.084Z</time>
      </trkpt>
      <trkpt lat="48.66649" lon="-2.28644">
        <ele>5</ele>
        <time>2020-06-24T10:19:40.084Z</time>
      </trkpt>
      <trkpt lat="48.66648" lon="-2.28642">
        <ele>5</ele>
        <time>2020-06-24T10:19:41.084Z</time>
      </trkpt>
      <trkpt lat="48.66648" lon="-2.28641">
        <ele>4</ele>
        <time>2020-06-24T10:19:42.084Z</time>
      </trkpt>
      <trkpt lat="48.66648" lon="-2.2864">
        <ele>4</ele>
        <time>2020-06-24T10:19:43.084Z</time>
      </trkpt>
      <trkpt lat="48.66648" lon="-2.28639">
        <ele>4</ele>
        <time>2020-06-24T10:19:44.084Z</time>
      </trkpt>
      <trkpt lat="48.66648" lon="-2.28637">
        <ele>5</ele>
        <time>2020-06-24T10:19:45.084Z</time>
      </trkpt>
      <trkpt lat="48.66649" lon="-2.28636">
        <ele>5</ele>
        <time>2020-06-24T10:19:46.084Z</time>
      </trkpt>
      <trkpt lat="48.66649" lon="-2.28635">
        <ele>5</ele>
        <time>2020-06-24T10:19:47.084Z</time>
      </trkpt>
      <trkpt lat="48.66649" lon="-2.28634">
        <ele>5</ele>
        <time>2020-06-24T10:19:48.084Z</time>
      </trkpt>
      <trkpt lat="48.66649" lon="-2.28634">
        <ele>5</ele>
        <time>2020-06-24T10:19:49.084Z</time>
      </trkpt>
      <trkpt lat="48.66649" lon="-2.28634">
        <ele>4</ele>
        <time>2020-06-24T10:19:50.084Z</time>
      </trkpt>
      <trkpt lat="48.66649" lon="-2.28634">
        <ele>4</ele>
        <time>2020-06-24T10:19:51.084Z</time>
      </trkpt>
      <trkpt lat="48.66649" lon="-2.28635">
        <ele>3</ele>
        <time>2020-06-24T10:19:52.084Z</time>
      </trkpt>
      <trkpt lat="48.66647" lon="-2.2863">
        <ele>2</ele>
        <time>2020-06-24T10:19:53.080Z</time>
      </trkpt>
      <trkpt lat="48.66647" lon="-2.28628">
        <ele>3</ele>
        <time>2020-06-24T10:19:54.080Z</time>
      </trkpt>
      <trkpt lat="48.66647" lon="-2.28627">
        <ele>3</ele>
        <time>2020-06-24T10:19:55.080Z</time>
      </trkpt>
      <trkpt lat="48.66646" lon="-2.28625">
        <ele>3</ele>
        <time>2020-06-24T10:19:56.080Z</time>
      </trkpt>
      <trkpt lat="48.66647" lon="-2.28624">
        <ele>3</ele>
        <time>2020-06-24T10:19:57.080Z</time>
      </trkpt>
      <trkpt lat="48.66647" lon="-2.28623">
        <ele>2</ele>
        <time>2020-06-24T10:19:58.080Z</time>
      </trkpt>
      <trkpt lat="48.66647" lon="-2.28621">
        <ele>3</ele>
        <time>2020-06-24T10:19:59.080Z</time>
      </trkpt>
      <trkpt lat="48.66648" lon="-2.28621">
        <ele>3</ele>
        <time>2020-06-24T10:20:00.080Z</time>
      </trkpt>
      <trkpt lat="48.66648" lon="-2.28621">
        <ele>4</ele>
        <time>2020-06-24T10:20:01.080Z</time>
      </trkpt>
      <trkpt lat="48.66648" lon="-2.28621">
        <ele>4</ele>
        <time>2020-06-24T10:20:02.080Z</time>
      </trkpt>
      <trkpt lat="48.66648" lon="-2.28621">
        <ele>4</ele>
        <time>2020-06-24T10:20:03.080Z</time>
      </trkpt>
      <trkpt lat="48.66648" lon="-2.28621">
        <ele>4</ele>
        <time>2020-06-24T10:20:04.080Z</time>
      </trkpt>
      <trkpt lat="48.66648" lon="-2.28621">
        <ele>4</ele>
        <time>2020-06-24T10:20:05.080Z</time>
      </trkpt>
      <trkpt lat="48.66644" lon="-2.28618">
        <ele>4</ele>
        <time>2020-06-24T10:20:06.092Z</time>
      </trkpt>
      <trkpt lat="48.66643" lon="-2.28618">
        <ele>4</ele>
        <time>2020-06-24T10:20:07.092Z</time>
      </trkpt>
      <trkpt lat="48.66642" lon="-2.28618">
        <ele>5</ele>
        <time>2020-06-24T10:20:08.092Z</time>
      </trkpt>
      <trkpt lat="48.66641" lon="-2.28618">
        <ele>5</ele>
        <time>2020-06-24T10:20:09.092Z</time>
      </trkpt>
      <trkpt lat="48.66641" lon="-2.28618">
        <ele>5</ele>
        <time>2020-06-24T10:20:10.092Z</time>
      </trkpt>
      <trkpt lat="48.66641" lon="-2.28618">
        <ele>5</ele>
        <time>2020-06-24T10:20:11.092Z</time>
      </trkpt>
      <trkpt lat="48.6664" lon="-2.28618">
        <ele>6</ele>
        <time>2020-06-24T10:20:12.092Z</time>
      </trkpt>
      <trkpt lat="48.6664" lon="-2.28617">
        <ele>6</ele>
        <time>2020-06-24T10:20:13.092Z</time>
      </trkpt>
      <trkpt lat="48.6664" lon="-2.28617">
        <ele>6</ele>
        <time>2020-06-24T10:20:14.092Z</time>
      </trkpt>
      <trkpt lat="48.6664" lon="-2.28617">
        <ele>6</ele>
        <time>2020-06-24T10:20:15.092Z</time>
      </trkpt>
      <trkpt lat="48.6664" lon="-2.28617">
        <ele>6</ele>
        <time>2020-06-24T10:20:16.092Z</time>
      </trkpt>
      <trkpt lat="48.6664" lon="-2.28617">
        <ele>6</ele>
        <time>2020-06-24T10:20:17.092Z</time>
      </trkpt>
      <trkpt lat="48.6664" lon="-2.28617">
        <ele>5</ele>
        <time>2020-06-24T10:20:18.092Z</time>
      </trkpt>
      <trkpt lat="48.6664" lon="-2.28617">
        <ele>5</ele>
        <time>2020-06-24T10:20:19.092Z</time>
      </trkpt>
      <trkpt lat="48.6664" lon="-2.28617">
        <ele>5</ele>
        <time>2020-06-24T10:20:20.092Z</time>
      </trkpt>
      <trkpt lat="48.6664" lon="-2.28617">
        <ele>5</ele>
        <time>2020-06-24T10:20:21.092Z</time>
      </trkpt>
      <trkpt lat="48.6664" lon="-2.28617">
        <ele>5</ele>
        <time>2020-06-24T10:20:22.092Z</time>
      </trkpt>
      <trkpt lat="48.6664" lon="-2.28616">
        <ele>5</ele>
        <time>2020-06-24T10:20:23.092Z</time>
      </trkpt>
      <trkpt lat="48.6664" lon="-2.28616">
        <ele>6</ele>
        <time>2020-06-24T10:20:24.092Z</time>
      </trkpt>
      <trkpt lat="48.6664" lon="-2.28615">
        <ele>6</ele>
        <time>2020-06-24T10:20:25.092Z</time>
      </trkpt>
      <trkpt lat="48.6664" lon="-2.28615">
        <ele>6</ele>
        <time>2020-06-24T10:20:26.092Z</time>
      </trkpt>
      <trkpt lat="48.6664" lon="-2.28615">
        <ele>6</ele>
        <time>2020-06-24T10:20:27.092Z</time>
      </trkpt>
      <trkpt lat="48.6664" lon="-2.28614">
        <ele>6</ele>
        <time>2020-06-24T10:20:28.092Z</time>
      </trkpt>
      <trkpt lat="48.6664" lon="-2.28613">
        <ele>6</ele>
        <time>2020-06-24T10:20:29.092Z</time>
      </trkpt>
      <trkpt lat="48.6664" lon="-2.28613">
        <ele>6</ele>
        <time>2020-06-24T10:20:30.092Z</time>
      </trkpt>
      <trkpt lat="48.6664" lon="-2.28613">
        <ele>6</ele>
        <time>2020-06-24T10:20:31.092Z</time>
      </trkpt>
      <trkpt lat="48.6664" lon="-2.28612">
        <ele>7</ele>
        <time>2020-06-24T10:20:32.100Z</time>
      </trkpt>
      <trkpt lat="48.66639" lon="-2.28612">
        <ele>6</ele>
        <time>2020-06-24T10:20:33.100Z</time>
      </trkpt>
      <trkpt lat="48.66639" lon="-2.28611">
        <ele>6</ele>
        <time>2020-06-24T10:20:34.100Z</time>
      </trkpt>
      <trkpt lat="48.66639" lon="-2.2861">
        <ele>5</ele>
        <time>2020-06-24T10:20:35.100Z</time>
      </trkpt>
      <trkpt lat="48.66638" lon="-2.28609">
        <ele>5</ele>
        <time>2020-06-24T10:20:36.100Z</time>
      </trkpt>
      <trkpt lat="48.66638" lon="-2.28608">
        <ele>5</ele>
        <time>2020-06-24T10:20:37.100Z</time>
      </trkpt>
      <trkpt lat="48.66638" lon="-2.28607">
        <ele>5</ele>
        <time>2020-06-24T10:20:38.100Z</time>
      </trkpt>
      <trkpt lat="48.66638" lon="-2.28607">
        <ele>6</ele>
        <time>2020-06-24T10:20:39.100Z</time>
      </trkpt>
      <trkpt lat="48.66637" lon="-2.28606">
        <ele>6</ele>
        <time>2020-06-24T10:20:40.100Z</time>
      </trkpt>
      <trkpt lat="48.66637" lon="-2.28606">
        <ele>6</ele>
        <time>2020-06-24T10:20:41.100Z</time>
      </trkpt>
      <trkpt lat="48.66637" lon="-2.28605">
        <ele>6</ele>
        <time>2020-06-24T10:20:42.100Z</time>
      </trkpt>
      <trkpt lat="48.66637" lon="-2.28605">
        <ele>6</ele>
        <time>2020-06-24T10:20:43.100Z</time>
      </trkpt>
      <trkpt lat="48.66637" lon="-2.28605">
        <ele>6</ele>
        <time>2020-06-24T10:20:44.100Z</time>
      </trkpt>
      <trkpt lat="48.66637" lon="-2.28606">
        <ele>6</ele>
        <time>2020-06-24T10:20:45.100Z</time>
      </trkpt>
      <trkpt lat="48.66637" lon="-2.28606">
        <ele>5</ele>
        <time>2020-06-24T10:20:46.100Z</time>
      </trkpt>
      <trkpt lat="48.66637" lon="-2.28606">
        <ele>5</ele>
        <time>2020-06-24T10:20:47.100Z</time>
      </trkpt>
      <trkpt lat="48.66637" lon="-2.28605">
        <ele>5</ele>
        <time>2020-06-24T10:20:48.100Z</time>
      </trkpt>
      <trkpt lat="48.66637" lon="-2.28605">
        <ele>4</ele>
        <time>2020-06-24T10:20:49.100Z</time>
      </trkpt>
      <trkpt lat="48.66636" lon="-2.28605">
        <ele>5</ele>
        <time>2020-06-24T10:20:50.100Z</time>
      </trkpt>
      <trkpt lat="48.66635" lon="-2.28605">
        <ele>5</ele>
        <time>2020-06-24T10:20:51.100Z</time>
      </trkpt>
      <trkpt lat="48.66634" lon="-2.28605">
        <ele>4</ele>
        <time>2020-06-24T10:20:52.100Z</time>
      </trkpt>
      <trkpt lat="48.66634" lon="-2.28605">
        <ele>4</ele>
        <time>2020-06-24T10:20:53.100Z</time>
      </trkpt>
      <trkpt lat="48.66634" lon="-2.28605">
        <ele>4</ele>
        <time>2020-06-24T10:20:54.100Z</time>
      </trkpt>
      <trkpt lat="48.66634" lon="-2.28605">
        <ele>4</ele>
        <time>2020-06-24T10:20:55.100Z</time>
      </trkpt>
      <trkpt lat="48.66635" lon="-2.28605">
        <ele>4</ele>
        <time>2020-06-24T10:20:56.100Z</time>
      </trkpt>
      <trkpt lat="48.66635" lon="-2.28604">
        <ele>5</ele>
        <time>2020-06-24T10:20:57.112Z</time>
      </trkpt>
      <trkpt lat="48.66634" lon="-2.28604">
        <ele>5</ele>
        <time>2020-06-24T10:20:58.112Z</time>
      </trkpt>
      <trkpt lat="48.66634" lon="-2.28604">
        <ele>5</ele>
        <time>2020-06-24T10:20:59.112Z</time>
      </trkpt>
      <trkpt lat="48.66634" lon="-2.28604">
        <ele>5</ele>
        <time>2020-06-24T10:21:00.112Z</time>
      </trkpt>
      <trkpt lat="48.66634" lon="-2.28604">
        <ele>5</ele>
        <time>2020-06-24T10:21:01.112Z</time>
      </trkpt>
      <trkpt lat="48.66634" lon="-2.28604">
        <ele>5</ele>
        <time>2020-06-24T10:21:02.112Z</time>
      </trkpt>
      <trkpt lat="48.66634" lon="-2.28604">
        <ele>5</ele>
        <time>2020-06-24T10:21:03.112Z</time>
      </trkpt>
      <trkpt lat="48.66636" lon="-2.28601">
        <ele>5.2</ele>
        <time>2020-06-24T10:21:04.120Z</time>
      </trkpt>
      <trkpt lat="48.66636" lon="-2.28601">
        <ele>5.2</ele>
        <time>2020-06-24T10:21:05.120Z</time>
      </trkpt>
      <trkpt lat="48.66636" lon="-2.28601">
        <ele>5.2</ele>
        <time>2020-06-24T10:21:06.120Z</time>
      </trkpt>
      <trkpt lat="48.66636" lon="-2.28601">
        <ele>5.2</ele>
        <time>2020-06-24T10:21:07.120Z</time>
      </trkpt>
      <trkpt lat="48.66636" lon="-2.28601">
        <ele>5.3</ele>
        <time>2020-06-24T10:21:08.120Z</time>
      </trkpt>
      <trkpt lat="48.66636" lon="-2.28601">
        <ele>5.3</ele>
        <time>2020-06-24T10:21:09.120Z</time>
      </trkpt>
      <trkpt lat="48.66635" lon="-2.28605">
        <ele>6</ele>
        <time>2020-06-24T10:21:10.007Z</time>
      </trkpt>
      <trkpt lat="48.66635" lon="-2.28604">
        <ele>6</ele>
        <time>2020-06-24T10:21:11.007Z</time>
      </trkpt>
      <trkpt lat="48.66634" lon="-2.28604">
        <ele>5</ele>
        <time>2020-06-24T10:21:12.007Z</time>
      </trkpt>
      <trkpt lat="48.66634" lon="-2.28604">
        <ele>6</ele>
        <time>2020-06-24T10:21:13.007Z</time>
      </trkpt>
      <trkpt lat="48.66634" lon="-2.28604">
        <ele>6</ele>
        <time>2020-06-24T10:21:14.007Z</time>
      </trkpt>
      <trkpt lat="48.66634" lon="-2.28604">
        <ele>6</ele>
        <time>2020-06-24T10:21:15.007Z</time>
      </trkpt>
      <trkpt lat="48.66634" lon="-2.28604">
        <ele>6</ele>
        <time>2020-06-24T10:21:16.007Z</time>
      </trkpt>
      <trkpt lat="48.66634" lon="-2.28604">
        <ele>6</ele>
        <time>2020-06-24T10:21:17.007Z</time>
      </trkpt>
      <trkpt lat="48.66634" lon="-2.28604">
        <ele>6</ele>
        <time>2020-06-24T10:21:18.007Z</time>
      </trkpt>
      <trkpt lat="48.66634" lon="-2.28605">
        <ele>4</ele>
        <time>2020-06-24T10:21:19.022Z</time>
      </trkpt>
      <trkpt lat="48.66634" lon="-2.28605">
        <ele>4</ele>
        <time>2020-06-24T10:21:20.022Z</time>
      </trkpt>
      <trkpt lat="48.66634" lon="-2.28604">
        <ele>4</ele>
        <time>2020-06-24T10:21:21.022Z</time>
      </trkpt>
      <trkpt lat="48.66634" lon="-2.28604">
        <ele>4</ele>
        <time>2020-06-24T10:21:22.022Z</time>
      </trkpt>
      <trkpt lat="48.66634" lon="-2.28604">
        <ele>4</ele>
        <time>2020-06-24T10:21:23.022Z</time>
      </trkpt>
      <trkpt lat="48.66634" lon="-2.28604">
        <ele>4</ele>
        <time>2020-06-24T10:21:24.022Z</time>
      </trkpt>
      <trkpt lat="48.66635" lon="-2.28605">
        <ele>5</ele>
        <time>2020-06-24T10:21:25.033Z</time>
      </trkpt>
      <trkpt lat="48.66635" lon="-2.28605">
        <ele>5</ele>
        <time>2020-06-24T10:21:26.033Z</time>
      </trkpt>
      <trkpt lat="48.66635" lon="-2.28605">
        <ele>5</ele>
        <time>2020-06-24T10:21:27.033Z</time>
      </trkpt>
      <trkpt lat="48.66635" lon="-2.28605">
        <ele>5</ele>
        <time>2020-06-24T10:21:28.033Z</time>
      </trkpt>
      <trkpt lat="48.66635" lon="-2.28605">
        <ele>5</ele>
        <time>2020-06-24T10:21:29.033Z</time>
      </trkpt>
      <trkpt lat="48.66635" lon="-2.28605">
        <ele>5</ele>
        <time>2020-06-24T10:21:30.033Z</time>
      </trkpt>
      <trkpt lat="48.66637" lon="-2.28606">
        <ele>5</ele>
        <time>2020-06-24T10:21:31.044Z</time>
      </trkpt>
      <trkpt lat="48.66637" lon="-2.28606">
        <ele>5</ele>
        <time>2020-06-24T10:21:32.044Z</time>
      </trkpt>
      <trkpt lat="48.66637" lon="-2.28606">
        <ele>5</ele>
        <time>2020-06-24T10:21:33.044Z</time>
      </trkpt>
      <trkpt lat="48.66637" lon="-2.28606">
        <ele>5</ele>
        <time>2020-06-24T10:21:34.044Z</time>
      </trkpt>
      <trkpt lat="48.66637" lon="-2.28607">
        <ele>4</ele>
        <time>2020-06-24T10:21:35.044Z</time>
      </trkpt>
      <trkpt lat="48.66638" lon="-2.28608">
        <ele>4</ele>
        <time>2020-06-24T10:21:36.044Z</time>
      </trkpt>
      <trkpt lat="48.66638" lon="-2.28609">
        <ele>4</ele>
        <time>2020-06-24T10:21:37.044Z</time>
      </trkpt>
      <trkpt lat="48.66638" lon="-2.2861">
        <ele>4</ele>
        <time>2020-06-24T10:21:38.044Z</time>
      </trkpt>
      <trkpt lat="48.66638" lon="-2.28612">
        <ele>5</ele>
        <time>2020-06-24T10:21:39.044Z</time>
      </trkpt>
      <trkpt lat="48.66638" lon="-2.28613">
        <ele>5</ele>
        <time>2020-06-24T10:21:40.044Z</time>
      </trkpt>
      <trkpt lat="48.66638" lon="-2.28614">
        <ele>5</ele>
        <time>2020-06-24T10:21:41.044Z</time>
      </trkpt>
      <trkpt lat="48.66638" lon="-2.28614">
        <ele>5</ele>
        <time>2020-06-24T10:21:42.044Z</time>
      </trkpt>
      <trkpt lat="48.66639" lon="-2.28615">
        <ele>6</ele>
        <time>2020-06-24T10:21:43.044Z</time>
      </trkpt>
      <trkpt lat="48.66639" lon="-2.28616">
        <ele>6</ele>
        <time>2020-06-24T10:21:44.044Z</time>
      </trkpt>
      <trkpt lat="48.66639" lon="-2.28616">
        <ele>6</ele>
        <time>2020-06-24T10:21:45.044Z</time>
      </trkpt>
      <trkpt lat="48.6664" lon="-2.28617">
        <ele>6</ele>
        <time>2020-06-24T10:21:46.044Z</time>
      </trkpt>
      <trkpt lat="48.6664" lon="-2.28618">
        <ele>6</ele>
        <time>2020-06-24T10:21:47.044Z</time>
      </trkpt>
      <trkpt lat="48.6664" lon="-2.28618">
        <ele>6</ele>
        <time>2020-06-24T10:21:48.044Z</time>
      </trkpt>
      <trkpt lat="48.6664" lon="-2.28618">
        <ele>6</ele>
        <time>2020-06-24T10:21:49.044Z</time>
      </trkpt>
      <trkpt lat="48.6664" lon="-2.28618">
        <ele>6</ele>
        <time>2020-06-24T10:21:50.044Z</time>
      </trkpt>
      <trkpt lat="48.6664" lon="-2.28619">
        <ele>6</ele>
        <time>2020-06-24T10:21:51.044Z</time>
      </trkpt>
      <trkpt lat="48.66641" lon="-2.28619">
        <ele>6</ele>
        <time>2020-06-24T10:21:52.044Z</time>
      </trkpt>
      <trkpt lat="48.66641" lon="-2.28619">
        <ele>6</ele>
        <time>2020-06-24T10:21:53.044Z</time>
      </trkpt>
      <trkpt lat="48.66643" lon="-2.28621">
        <ele>4</ele>
        <time>2020-06-24T10:21:54.055Z</time>
      </trkpt>
      <trkpt lat="48.66643" lon="-2.28622">
        <ele>4</ele>
        <time>2020-06-24T10:21:55.055Z</time>
      </trkpt>
      <trkpt lat="48.66644" lon="-2.28622">
        <ele>4</ele>
        <time>2020-06-24T10:21:56.055Z</time>
      </trkpt>
      <trkpt lat="48.66644" lon="-2.28623">
        <ele>4</ele>
        <time>2020-06-24T10:21:57.055Z</time>
      </trkpt>
      <trkpt lat="48.66644" lon="-2.28624">
        <ele>4</ele>
        <time>2020-06-24T10:21:58.055Z</time>
      </trkpt>
      <trkpt lat="48.66644" lon="-2.28625">
        <ele>3</ele>
        <time>2020-06-24T10:21:59.055Z</time>
      </trkpt>
      <trkpt lat="48.66644" lon="-2.28626">
        <ele>3</ele>
        <time>2020-06-24T10:22:00.055Z</time>
      </trkpt>
      <trkpt lat="48.66644" lon="-2.28627">
        <ele>3</ele>
        <time>2020-06-24T10:22:01.055Z</time>
      </trkpt>
      <trkpt lat="48.66644" lon="-2.28629">
        <ele>3</ele>
        <time>2020-06-24T10:22:02.055Z</time>
      </trkpt>
      <trkpt lat="48.66645" lon="-2.2863">
        <ele>3</ele>
        <time>2020-06-24T10:22:03.055Z</time>
      </trkpt>
      <trkpt lat="48.66644" lon="-2.28632">
        <ele>3</ele>
        <time>2020-06-24T10:22:04.055Z</time>
      </trkpt>
      <trkpt lat="48.66644" lon="-2.28633">
        <ele>3</ele>
        <time>2020-06-24T10:22:05.055Z</time>
      </trkpt>
      <trkpt lat="48.66644" lon="-2.28634">
        <ele>3</ele>
        <time>2020-06-24T10:22:06.055Z</time>
      </trkpt>
      <trkpt lat="48.66644" lon="-2.28635">
        <ele>4</ele>
        <time>2020-06-24T10:22:07.055Z</time>
      </trkpt>
      <trkpt lat="48.66644" lon="-2.28637">
        <ele>4</ele>
        <time>2020-06-24T10:22:08.055Z</time>
      </trkpt>
      <trkpt lat="48.66643" lon="-2.28638">
        <ele>4</ele>
        <time>2020-06-24T10:22:09.055Z</time>
      </trkpt>
      <trkpt lat="48.66643" lon="-2.28639">
        <ele>4</ele>
        <time>2020-06-24T10:22:10.055Z</time>
      </trkpt>
      <trkpt lat="48.66643" lon="-2.2864">
        <ele>4</ele>
        <time>2020-06-24T10:22:11.055Z</time>
      </trkpt>
      <trkpt lat="48.66643" lon="-2.28641">
        <ele>5</ele>
        <time>2020-06-24T10:22:12.055Z</time>
      </trkpt>
      <trkpt lat="48.66643" lon="-2.28642">
        <ele>5</ele>
        <time>2020-06-24T10:22:13.055Z</time>
      </trkpt>
      <trkpt lat="48.66643" lon="-2.28643">
        <ele>4</ele>
        <time>2020-06-24T10:22:14.055Z</time>
      </trkpt>
      <trkpt lat="48.66642" lon="-2.28644">
        <ele>4</ele>
        <time>2020-06-24T10:22:15.055Z</time>
      </trkpt>
      <trkpt lat="48.66642" lon="-2.28644">
        <ele>5</ele>
        <time>2020-06-24T10:22:16.055Z</time>
      </trkpt>
      <trkpt lat="48.66641" lon="-2.28645">
        <ele>5</ele>
        <time>2020-06-24T10:22:17.055Z</time>
      </trkpt>
      <trkpt lat="48.66641" lon="-2.28645">
        <ele>5</ele>
        <time>2020-06-24T10:22:18.055Z</time>
      </trkpt>
      <trkpt lat="48.6664" lon="-2.28646">
        <ele>6</ele>
        <time>2020-06-24T10:22:19.055Z</time>
      </trkpt>
      <trkpt lat="48.6664" lon="-2.28646">
        <ele>6</ele>
        <time>2020-06-24T10:22:20.055Z</time>
      </trkpt>
      <trkpt lat="48.6664" lon="-2.28646">
        <ele>6</ele>
        <time>2020-06-24T10:22:21.055Z</time>
      </trkpt>
      <trkpt lat="48.66639" lon="-2.28647">
        <ele>7</ele>
        <time>2020-06-24T10:22:22.055Z</time>
      </trkpt>
      <trkpt lat="48.66639" lon="-2.28648">
        <ele>7</ele>
        <time>2020-06-24T10:22:23.055Z</time>
      </trkpt>
      <trkpt lat="48.66638" lon="-2.28649">
        <ele>7</ele>
        <time>2020-06-24T10:22:24.055Z</time>
      </trkpt>
      <trkpt lat="48.66637" lon="-2.2865">
        <ele>7</ele>
        <time>2020-06-24T10:22:25.055Z</time>
      </trkpt>
      <trkpt lat="48.66637" lon="-2.2865">
        <ele>8</ele>
        <time>2020-06-24T10:22:26.055Z</time>
      </trkpt>
      <trkpt lat="48.66637" lon="-2.28651">
        <ele>8</ele>
        <time>2020-06-24T10:22:27.055Z</time>
      </trkpt>
      <trkpt lat="48.66637" lon="-2.28651">
        <ele>9</ele>
        <time>2020-06-24T10:22:28.055Z</time>
      </trkpt>
      <trkpt lat="48.66636" lon="-2.2865">
        <ele>10</ele>
        <time>2020-06-24T10:22:29.055Z</time>
      </trkpt>
      <trkpt lat="48.66636" lon="-2.28649">
        <ele>11</ele>
        <time>2020-06-24T10:22:30.055Z</time>
      </trkpt>
      <trkpt lat="48.66635" lon="-2.28648">
        <ele>11</ele>
        <time>2020-06-24T10:22:31.055Z</time>
      </trkpt>
      <trkpt lat="48.66635" lon="-2.28647">
        <ele>11</ele>
        <time>2020-06-24T10:22:32.055Z</time>
      </trkpt>
      <trkpt lat="48.66634" lon="-2.28647">
        <ele>11</ele>
        <time>2020-06-24T10:22:33.055Z</time>
      </trkpt>
      <trkpt lat="48.66634" lon="-2.28647">
        <ele>12</ele>
        <time>2020-06-24T10:22:34.055Z</time>
      </trkpt>
      <trkpt lat="48.66633" lon="-2.28646">
        <ele>12</ele>
        <time>2020-06-24T10:22:35.055Z</time>
      </trkpt>
      <trkpt lat="48.66633" lon="-2.28646">
        <ele>12</ele>
        <time>2020-06-24T10:22:36.055Z</time>
      </trkpt>
      <trkpt lat="48.66632" lon="-2.28646">
        <ele>13</ele>
        <time>2020-06-24T10:22:37.055Z</time>
      </trkpt>
      <trkpt lat="48.66631" lon="-2.28645">
        <ele>13</ele>
        <time>2020-06-24T10:22:38.055Z</time>
      </trkpt>
      <trkpt lat="48.66631" lon="-2.28645">
        <ele>13</ele>
        <time>2020-06-24T10:22:39.055Z</time>
      </trkpt>
      <trkpt lat="48.6663" lon="-2.28645">
        <ele>14</ele>
        <time>2020-06-24T10:22:40.055Z</time>
      </trkpt>
      <trkpt lat="48.6663" lon="-2.28645">
        <ele>14</ele>
        <time>2020-06-24T10:22:41.055Z</time>
      </trkpt>
      <trkpt lat="48.66629" lon="-2.28644">
        <ele>14</ele>
        <time>2020-06-24T10:22:42.055Z</time>
      </trkpt>
      <trkpt lat="48.66628" lon="-2.28644">
        <ele>14</ele>
        <time>2020-06-24T10:22:43.055Z</time>
      </trkpt>
      <trkpt lat="48.66628" lon="-2.28643">
        <ele>14</ele>
        <time>2020-06-24T10:22:44.055Z</time>
      </trkpt>
      <trkpt lat="48.66627" lon="-2.28643">
        <ele>14</ele>
        <time>2020-06-24T10:22:45.055Z</time>
      </trkpt>
      <trkpt lat="48.66626" lon="-2.28643">
        <ele>14</ele>
        <time>2020-06-24T10:22:46.055Z</time>
      </trkpt>
      <trkpt lat="48.66626" lon="-2.28642">
        <ele>14</ele>
        <time>2020-06-24T10:22:47.055Z</time>
      </trkpt>
      <trkpt lat="48.66625" lon="-2.28642">
        <ele>14</ele>
        <time>2020-06-24T10:22:48.055Z</time>
      </trkpt>
      <trkpt lat="48.66624" lon="-2.28642">
        <ele>14</ele>
        <time>2020-06-24T10:22:49.055Z</time>
      </trkpt>
      <trkpt lat="48.66623" lon="-2.28642">
        <ele>14</ele>
        <time>2020-06-24T10:22:50.055Z</time>
      </trkpt>
      <trkpt lat="48.66622" lon="-2.28643">
        <ele>14</ele>
        <time>2020-06-24T10:22:51.055Z</time>
      </trkpt>
      <trkpt lat="48.66622" lon="-2.28644">
        <ele>13</ele>
        <time>2020-06-24T10:22:52.055Z</time>
      </trkpt>
      <trkpt lat="48.66622" lon="-2.28646">
        <ele>13</ele>
        <time>2020-06-24T10:22:53.055Z</time>
      </trkpt>
      <trkpt lat="48.66622" lon="-2.28647">
        <ele>13</ele>
        <time>2020-06-24T10:22:54.055Z</time>
      </trkpt>
      <trkpt lat="48.66622" lon="-2.28649">
        <ele>13</ele>
        <time>2020-06-24T10:22:55.055Z</time>
      </trkpt>
      <trkpt lat="48.66622" lon="-2.28651">
        <ele>13</ele>
        <time>2020-06-24T10:22:56.055Z</time>
      </trkpt>
      <trkpt lat="48.66622" lon="-2.28652">
        <ele>13</ele>
        <time>2020-06-24T10:22:57.055Z</time>
      </trkpt>
      <trkpt lat="48.66622" lon="-2.28654">
        <ele>13</ele>
        <time>2020-06-24T10:22:58.055Z</time>
      </trkpt>
      <trkpt lat="48.66622" lon="-2.28655">
        <ele>14</ele>
        <time>2020-06-24T10:22:59.055Z</time>
      </trkpt>
      <trkpt lat="48.66623" lon="-2.28656">
        <ele>14</ele>
        <time>2020-06-24T10:23:00.055Z</time>
      </trkpt>
      <trkpt lat="48.66623" lon="-2.28656">
        <ele>14</ele>
        <time>2020-06-24T10:23:01.055Z</time>
      </trkpt>
      <trkpt lat="48.66623" lon="-2.28657">
        <ele>14</ele>
        <time>2020-06-24T10:23:02.055Z</time>
      </trkpt>
      <trkpt lat="48.66624" lon="-2.28658">
        <ele>15</ele>
        <time>2020-06-24T10:23:03.055Z</time>
      </trkpt>
      <trkpt lat="48.66624" lon="-2.28658">
        <ele>15</ele>
        <time>2020-06-24T10:23:04.055Z</time>
      </trkpt>
      <trkpt lat="48.66624" lon="-2.28659">
        <ele>16</ele>
        <time>2020-06-24T10:23:05.055Z</time>
      </trkpt>
      <trkpt lat="48.66624" lon="-2.28659">
        <ele>16</ele>
        <time>2020-06-24T10:23:06.055Z</time>
      </trkpt>
      <trkpt lat="48.66625" lon="-2.2866">
        <ele>16</ele>
        <time>2020-06-24T10:23:07.055Z</time>
      </trkpt>
      <trkpt lat="48.66625" lon="-2.2866">
        <ele>16</ele>
        <time>2020-06-24T10:23:08.055Z</time>
      </trkpt>
      <trkpt lat="48.66625" lon="-2.28661">
        <ele>17</ele>
        <time>2020-06-24T10:23:09.055Z</time>
      </trkpt>
      <trkpt lat="48.66625" lon="-2.28661">
        <ele>17</ele>
        <time>2020-06-24T10:23:10.055Z</time>
      </trkpt>
      <trkpt lat="48.66625" lon="-2.28662">
        <ele>18</ele>
        <time>2020-06-24T10:23:11.055Z</time>
      </trkpt>
      <trkpt lat="48.66625" lon="-2.28663">
        <ele>18</ele>
        <time>2020-06-24T10:23:12.055Z</time>
      </trkpt>
      <trkpt lat="48.66625" lon="-2.28663">
        <ele>19</ele>
        <time>2020-06-24T10:23:13.055Z</time>
      </trkpt>
      <trkpt lat="48.66625" lon="-2.28664">
        <ele>19</ele>
        <time>2020-06-24T10:23:14.055Z</time>
      </trkpt>
      <trkpt lat="48.66625" lon="-2.28665">
        <ele>19</ele>
        <time>2020-06-24T10:23:15.055Z</time>
      </trkpt>
      <trkpt lat="48.66625" lon="-2.28665">
        <ele>19</ele>
        <time>2020-06-24T10:23:16.055Z</time>
      </trkpt>
      <trkpt lat="48.66624" lon="-2.28666">
        <ele>20</ele>
        <time>2020-06-24T10:23:17.055Z</time>
      </trkpt>
      <trkpt lat="48.66624" lon="-2.28667">
        <ele>20</ele>
        <time>2020-06-24T10:23:18.055Z</time>
      </trkpt>
      <trkpt lat="48.66624" lon="-2.28667">
        <ele>20</ele>
        <time>2020-06-24T10:23:19.055Z</time>
      </trkpt>
      <trkpt lat="48.66624" lon="-2.28667">
        <ele>20</ele>
        <time>2020-06-24T10:23:20.055Z</time>
      </trkpt>
      <trkpt lat="48.66624" lon="-2.28667">
        <ele>20</ele>
        <time>2020-06-24T10:23:21.055Z</time>
      </trkpt>
      <trkpt lat="48.66623" lon="-2.28668">
        <ele>20</ele>
        <time>2020-06-24T10:23:22.055Z</time>
      </trkpt>
      <trkpt lat="48.66623" lon="-2.28668">
        <ele>20</ele>
        <time>2020-06-24T10:23:23.055Z</time>
      </trkpt>
      <trkpt lat="48.66624" lon="-2.28669">
        <ele>20</ele>
        <time>2020-06-24T10:23:24.055Z</time>
      </trkpt>
      <trkpt lat="48.66624" lon="-2.2867">
        <ele>20</ele>
        <time>2020-06-24T10:23:25.055Z</time>
      </trkpt>
      <trkpt lat="48.66624" lon="-2.28671">
        <ele>20</ele>
        <time>2020-06-24T10:23:26.055Z</time>
      </trkpt>
      <trkpt lat="48.66625" lon="-2.28671">
        <ele>20</ele>
        <time>2020-06-24T10:23:27.055Z</time>
      </trkpt>
      <trkpt lat="48.66625" lon="-2.28673">
        <ele>20</ele>
        <time>2020-06-24T10:23:28.055Z</time>
      </trkpt>
      <trkpt lat="48.66626" lon="-2.28674">
        <ele>20</ele>
        <time>2020-06-24T10:23:29.055Z</time>
      </trkpt>
      <trkpt lat="48.66627" lon="-2.28675">
        <ele>20</ele>
        <time>2020-06-24T10:23:30.055Z</time>
      </trkpt>
      <trkpt lat="48.66627" lon="-2.28676">
        <ele>19</ele>
        <time>2020-06-24T10:23:31.055Z</time>
      </trkpt>
      <trkpt lat="48.66627" lon="-2.28677">
        <ele>19</ele>
        <time>2020-06-24T10:23:32.055Z</time>
      </trkpt>
      <trkpt lat="48.66627" lon="-2.28678">
        <ele>19</ele>
        <time>2020-06-24T10:23:33.055Z</time>
      </trkpt>
      <trkpt lat="48.66626" lon="-2.28678">
        <ele>19</ele>
        <time>2020-06-24T10:23:34.055Z</time>
      </trkpt>
      <trkpt lat="48.66626" lon="-2.28679">
        <ele>19</ele>
        <time>2020-06-24T10:23:35.055Z</time>
      </trkpt>
      <trkpt lat="48.66625" lon="-2.2868">
        <ele>20</ele>
        <time>2020-06-24T10:23:36.055Z</time>
      </trkpt>
      <trkpt lat="48.66624" lon="-2.28681">
        <ele>20</ele>
        <time>2020-06-24T10:23:37.055Z</time>
      </trkpt>
      <trkpt lat="48.66624" lon="-2.28682">
        <ele>20</ele>
        <time>2020-06-24T10:23:38.055Z</time>
      </trkpt>
      <trkpt lat="48.66623" lon="-2.28683">
        <ele>20</ele>
        <time>2020-06-24T10:23:39.055Z</time>
      </trkpt>
      <trkpt lat="48.66623" lon="-2.28685">
        <ele>21</ele>
        <time>2020-06-24T10:23:40.055Z</time>
      </trkpt>
      <trkpt lat="48.66622" lon="-2.28686">
        <ele>21</ele>
        <time>2020-06-24T10:23:41.055Z</time>
      </trkpt>
      <trkpt lat="48.66622" lon="-2.28687">
        <ele>22</ele>
        <time>2020-06-24T10:23:42.055Z</time>
      </trkpt>
      <trkpt lat="48.66621" lon="-2.28688">
        <ele>22</ele>
        <time>2020-06-24T10:23:43.055Z</time>
      </trkpt>
      <trkpt lat="48.66621" lon="-2.2869">
        <ele>23</ele>
        <time>2020-06-24T10:23:44.055Z</time>
      </trkpt>
      <trkpt lat="48.6662" lon="-2.28691">
        <ele>23</ele>
        <time>2020-06-24T10:23:45.055Z</time>
      </trkpt>
      <trkpt lat="48.66619" lon="-2.28692">
        <ele>24</ele>
        <time>2020-06-24T10:23:46.055Z</time>
      </trkpt>
      <trkpt lat="48.66619" lon="-2.28693">
        <ele>24</ele>
        <time>2020-06-24T10:23:47.055Z</time>
      </trkpt>
      <trkpt lat="48.66618" lon="-2.28693">
        <ele>25</ele>
        <time>2020-06-24T10:23:48.055Z</time>
      </trkpt>
      <trkpt lat="48.66617" lon="-2.28693">
        <ele>25</ele>
        <time>2020-06-24T10:23:49.055Z</time>
      </trkpt>
      <trkpt lat="48.66616" lon="-2.28693">
        <ele>25</ele>
        <time>2020-06-24T10:23:50.055Z</time>
      </trkpt>
      <trkpt lat="48.66615" lon="-2.28693">
        <ele>25</ele>
        <time>2020-06-24T10:23:51.055Z</time>
      </trkpt>
      <trkpt lat="48.66614" lon="-2.28693">
        <ele>25</ele>
        <time>2020-06-24T10:23:52.055Z</time>
      </trkpt>
      <trkpt lat="48.66613" lon="-2.28693">
        <ele>26</ele>
        <time>2020-06-24T10:23:53.055Z</time>
      </trkpt>
      <trkpt lat="48.66612" lon="-2.28694">
        <ele>26</ele>
        <time>2020-06-24T10:23:54.055Z</time>
      </trkpt>
      <trkpt lat="48.66612" lon="-2.28695">
        <ele>26</ele>
        <time>2020-06-24T10:23:55.055Z</time>
      </trkpt>
      <trkpt lat="48.66611" lon="-2.28695">
        <ele>26</ele>
        <time>2020-06-24T10:23:56.055Z</time>
      </trkpt>
      <trkpt lat="48.6661" lon="-2.28696">
        <ele>26</ele>
        <time>2020-06-24T10:23:57.055Z</time>
      </trkpt>
      <trkpt lat="48.66609" lon="-2.28696">
        <ele>26</ele>
        <time>2020-06-24T10:23:58.055Z</time>
      </trkpt>
      <trkpt lat="48.66608" lon="-2.28696">
        <ele>26</ele>
        <time>2020-06-24T10:23:59.055Z</time>
      </trkpt>
      <trkpt lat="48.66607" lon="-2.28696">
        <ele>26</ele>
        <time>2020-06-24T10:24:00.055Z</time>
      </trkpt>
      <trkpt lat="48.66606" lon="-2.28696">
        <ele>26</ele>
        <time>2020-06-24T10:24:01.055Z</time>
      </trkpt>
      <trkpt lat="48.66605" lon="-2.28696">
        <ele>26</ele>
        <time>2020-06-24T10:24:02.055Z</time>
      </trkpt>
      <trkpt lat="48.66604" lon="-2.28695">
        <ele>26</ele>
        <time>2020-06-24T10:24:03.055Z</time>
      </trkpt>
      <trkpt lat="48.66603" lon="-2.28695">
        <ele>26</ele>
        <time>2020-06-24T10:24:04.055Z</time>
      </trkpt>
      <trkpt lat="48.66602" lon="-2.28695">
        <ele>26</ele>
        <time>2020-06-24T10:24:05.055Z</time>
      </trkpt>
      <trkpt lat="48.666" lon="-2.28694">
        <ele>27</ele>
        <time>2020-06-24T10:24:06.055Z</time>
      </trkpt>
      <trkpt lat="48.66599" lon="-2.28694">
        <ele>26</ele>
        <time>2020-06-24T10:24:07.055Z</time>
      </trkpt>
      <trkpt lat="48.66598" lon="-2.28693">
        <ele>26</ele>
        <time>2020-06-24T10:24:08.055Z</time>
      </trkpt>
      <trkpt lat="48.66598" lon="-2.28692">
        <ele>26</ele>
        <time>2020-06-24T10:24:09.055Z</time>
      </trkpt>
      <trkpt lat="48.66597" lon="-2.28692">
        <ele>26</ele>
        <time>2020-06-24T10:24:10.055Z</time>
      </trkpt>
      <trkpt lat="48.66596" lon="-2.28691">
        <ele>26</ele>
        <time>2020-06-24T10:24:11.055Z</time>
      </trkpt>
      <trkpt lat="48.66595" lon="-2.2869">
        <ele>25</ele>
        <time>2020-06-24T10:24:12.055Z</time>
      </trkpt>
      <trkpt lat="48.66595" lon="-2.28688">
        <ele>25</ele>
        <time>2020-06-24T10:24:13.055Z</time>
      </trkpt>
      <trkpt lat="48.66594" lon="-2.28687">
        <ele>25</ele>
        <time>2020-06-24T10:24:14.055Z</time>
      </trkpt>
      <trkpt lat="48.66593" lon="-2.28685">
        <ele>25</ele>
        <time>2020-06-24T10:24:15.055Z</time>
      </trkpt>
      <trkpt lat="48.66592" lon="-2.28684">
        <ele>25</ele>
        <time>2020-06-24T10:24:16.055Z</time>
      </trkpt>
      <trkpt lat="48.66592" lon="-2.28683">
        <ele>25</ele>
        <time>2020-06-24T10:24:17.055Z</time>
      </trkpt>
      <trkpt lat="48.66591" lon="-2.28682">
        <ele>25</ele>
        <time>2020-06-24T10:24:18.055Z</time>
      </trkpt>
      <trkpt lat="48.6659" lon="-2.28681">
        <ele>25</ele>
        <time>2020-06-24T10:24:19.055Z</time>
      </trkpt>
      <trkpt lat="48.66589" lon="-2.2868">
        <ele>26</ele>
        <time>2020-06-24T10:24:20.055Z</time>
      </trkpt>
      <trkpt lat="48.66588" lon="-2.28679">
        <ele>26</ele>
        <time>2020-06-24T10:24:21.055Z</time>
      </trkpt>
      <trkpt lat="48.66587" lon="-2.28678">
        <ele>26</ele>
        <time>2020-06-24T10:24:22.055Z</time>
      </trkpt>
      <trkpt lat="48.66586" lon="-2.28677">
        <ele>25</ele>
        <time>2020-06-24T10:24:23.055Z</time>
      </trkpt>
      <trkpt lat="48.66585" lon="-2.28676">
        <ele>26</ele>
        <time>2020-06-24T10:24:24.055Z</time>
      </trkpt>
      <trkpt lat="48.66584" lon="-2.28675">
        <ele>25</ele>
        <time>2020-06-24T10:24:25.055Z</time>
      </trkpt>
      <trkpt lat="48.66583" lon="-2.28673">
        <ele>26</ele>
        <time>2020-06-24T10:24:26.055Z</time>
      </trkpt>
      <trkpt lat="48.66582" lon="-2.28672">
        <ele>26</ele>
        <time>2020-06-24T10:24:27.055Z</time>
      </trkpt>
      <trkpt lat="48.66581" lon="-2.28671">
        <ele>26</ele>
        <time>2020-06-24T10:24:28.055Z</time>
      </trkpt>
      <trkpt lat="48.6658" lon="-2.2867">
        <ele>26</ele>
        <time>2020-06-24T10:24:29.055Z</time>
      </trkpt>
      <trkpt lat="48.6658" lon="-2.28669">
        <ele>25</ele>
        <time>2020-06-24T10:24:30.055Z</time>
      </trkpt>
      <trkpt lat="48.66579" lon="-2.28668">
        <ele>25</ele>
        <time>2020-06-24T10:24:31.055Z</time>
      </trkpt>
      <trkpt lat="48.66578" lon="-2.28667">
        <ele>25</ele>
        <time>2020-06-24T10:24:32.055Z</time>
      </trkpt>
      <trkpt lat="48.66577" lon="-2.28666">
        <ele>25</ele>
        <time>2020-06-24T10:24:33.055Z</time>
      </trkpt>
      <trkpt lat="48.66576" lon="-2.28665">
        <ele>25</ele>
        <time>2020-06-24T10:24:34.055Z</time>
      </trkpt>
      <trkpt lat="48.66575" lon="-2.28664">
        <ele>25</ele>
        <time>2020-06-24T10:24:35.055Z</time>
      </trkpt>
      <trkpt lat="48.66574" lon="-2.28663">
        <ele>25</ele>
        <time>2020-06-24T10:24:36.055Z</time>
      </trkpt>
      <trkpt lat="48.66573" lon="-2.28662">
        <ele>25</ele>
        <time>2020-06-24T10:24:37.055Z</time>
      </trkpt>
      <trkpt lat="48.66572" lon="-2.28662">
        <ele>25</ele>
        <time>2020-06-24T10:24:38.055Z</time>
      </trkpt>
      <trkpt lat="48.66571" lon="-2.28661">
        <ele>25</ele>
        <time>2020-06-24T10:24:39.055Z</time>
      </trkpt>
      <trkpt lat="48.66569" lon="-2.2866">
        <ele>25</ele>
        <time>2020-06-24T10:24:40.055Z</time>
      </trkpt>
      <trkpt lat="48.66568" lon="-2.28659">
        <ele>25</ele>
        <time>2020-06-24T10:24:41.055Z</time>
      </trkpt>
      <trkpt lat="48.66567" lon="-2.28659">
        <ele>25</ele>
        <time>2020-06-24T10:24:42.055Z</time>
      </trkpt>
      <trkpt lat="48.66566" lon="-2.28659">
        <ele>25</ele>
        <time>2020-06-24T10:24:43.055Z</time>
      </trkpt>
      <trkpt lat="48.66565" lon="-2.28659">
        <ele>25</ele>
        <time>2020-06-24T10:24:44.055Z</time>
      </trkpt>
      <trkpt lat="48.66564" lon="-2.28659">
        <ele>25</ele>
        <time>2020-06-24T10:24:45.055Z</time>
      </trkpt>
      <trkpt lat="48.66563" lon="-2.28659">
        <ele>26</ele>
        <time>2020-06-24T10:24:46.055Z</time>
      </trkpt>
      <trkpt lat="48.66562" lon="-2.28659">
        <ele>26</ele>
        <time>2020-06-24T10:24:47.055Z</time>
      </trkpt>
      <trkpt lat="48.66561" lon="-2.28659">
        <ele>26</ele>
        <time>2020-06-24T10:24:48.055Z</time>
      </trkpt>
      <trkpt lat="48.6656" lon="-2.2866">
        <ele>27</ele>
        <time>2020-06-24T10:24:49.055Z</time>
      </trkpt>
      <trkpt lat="48.66559" lon="-2.2866">
        <ele>27</ele>
        <time>2020-06-24T10:24:50.055Z</time>
      </trkpt>
      <trkpt lat="48.66558" lon="-2.2866">
        <ele>27</ele>
        <time>2020-06-24T10:24:51.055Z</time>
      </trkpt>
      <trkpt lat="48.66557" lon="-2.2866">
        <ele>27</ele>
        <time>2020-06-24T10:24:52.055Z</time>
      </trkpt>
      <trkpt lat="48.66556" lon="-2.28661">
        <ele>28</ele>
        <time>2020-06-24T10:24:53.055Z</time>
      </trkpt>
      <trkpt lat="48.66555" lon="-2.28661">
        <ele>28</ele>
        <time>2020-06-24T10:24:54.055Z</time>
      </trkpt>
      <trkpt lat="48.66554" lon="-2.28661">
        <ele>28</ele>
        <time>2020-06-24T10:24:55.055Z</time>
      </trkpt>
      <trkpt lat="48.66553" lon="-2.28662">
        <ele>28</ele>
        <time>2020-06-24T10:24:56.055Z</time>
      </trkpt>
      <trkpt lat="48.66552" lon="-2.28661">
        <ele>29</ele>
        <time>2020-06-24T10:24:57.055Z</time>
      </trkpt>
      <trkpt lat="48.66551" lon="-2.28661">
        <ele>29</ele>
        <time>2020-06-24T10:24:58.055Z</time>
      </trkpt>
      <trkpt lat="48.6655" lon="-2.28661">
        <ele>29</ele>
        <time>2020-06-24T10:24:59.055Z</time>
      </trkpt>
      <trkpt lat="48.66549" lon="-2.28661">
        <ele>30</ele>
        <time>2020-06-24T10:25:00.055Z</time>
      </trkpt>
      <trkpt lat="48.66548" lon="-2.28661">
        <ele>30</ele>
        <time>2020-06-24T10:25:01.055Z</time>
      </trkpt>
      <trkpt lat="48.66547" lon="-2.28661">
        <ele>30</ele>
        <time>2020-06-24T10:25:02.055Z</time>
      </trkpt>
      <trkpt lat="48.66546" lon="-2.2866">
        <ele>29</ele>
        <time>2020-06-24T10:25:03.055Z</time>
      </trkpt>
      <trkpt lat="48.66544" lon="-2.2866">
        <ele>29</ele>
        <time>2020-06-24T10:25:04.055Z</time>
      </trkpt>
      <trkpt lat="48.66543" lon="-2.28659">
        <ele>29</ele>
        <time>2020-06-24T10:25:05.055Z</time>
      </trkpt>
      <trkpt lat="48.66542" lon="-2.28658">
        <ele>28</ele>
        <time>2020-06-24T10:25:06.055Z</time>
      </trkpt>
      <trkpt lat="48.66541" lon="-2.28658">
        <ele>28</ele>
        <time>2020-06-24T10:25:07.055Z</time>
      </trkpt>
      <trkpt lat="48.6654" lon="-2.28657">
        <ele>28</ele>
        <time>2020-06-24T10:25:08.055Z</time>
      </trkpt>
      <trkpt lat="48.66539" lon="-2.28657">
        <ele>28</ele>
        <time>2020-06-24T10:25:09.055Z</time>
      </trkpt>
      <trkpt lat="48.66538" lon="-2.28656">
        <ele>28</ele>
        <time>2020-06-24T10:25:10.055Z</time>
      </trkpt>
      <trkpt lat="48.66537" lon="-2.28656">
        <ele>27</ele>
        <time>2020-06-24T10:25:11.055Z</time>
      </trkpt>
      <trkpt lat="48.66536" lon="-2.28655">
        <ele>28</ele>
        <time>2020-06-24T10:25:12.055Z</time>
      </trkpt>
      <trkpt lat="48.66534" lon="-2.28655">
        <ele>28</ele>
        <time>2020-06-24T10:25:13.055Z</time>
      </trkpt>
      <trkpt lat="48.66533" lon="-2.28654">
        <ele>28</ele>
        <time>2020-06-24T10:25:14.055Z</time>
      </trkpt>
      <trkpt lat="48.66532" lon="-2.28654">
        <ele>28</ele>
        <time>2020-06-24T10:25:15.055Z</time>
      </trkpt>
      <trkpt lat="48.66531" lon="-2.28653">
        <ele>28</ele>
        <time>2020-06-24T10:25:16.055Z</time>
      </trkpt>
      <trkpt lat="48.6653" lon="-2.28653">
        <ele>29</ele>
        <time>2020-06-24T10:25:17.055Z</time>
      </trkpt>
      <trkpt lat="48.66528" lon="-2.28652">
        <ele>28</ele>
        <time>2020-06-24T10:25:18.055Z</time>
      </trkpt>
      <trkpt lat="48.66527" lon="-2.28651">
        <ele>28</ele>
        <time>2020-06-24T10:25:19.055Z</time>
      </trkpt>
      <trkpt lat="48.66526" lon="-2.2865">
        <ele>28</ele>
        <time>2020-06-24T10:25:20.055Z</time>
      </trkpt>
      <trkpt lat="48.66525" lon="-2.28649">
        <ele>28</ele>
        <time>2020-06-24T10:25:21.055Z</time>
      </trkpt>
      <trkpt lat="48.66524" lon="-2.28647">
        <ele>28</ele>
        <time>2020-06-24T10:25:22.055Z</time>
      </trkpt>
      <trkpt lat="48.66523" lon="-2.28646">
        <ele>28</ele>
        <time>2020-06-24T10:25:23.055Z</time>
      </trkpt>
      <trkpt lat="48.66522" lon="-2.28645">
        <ele>28</ele>
        <time>2020-06-24T10:25:24.055Z</time>
      </trkpt>
      <trkpt lat="48.66521" lon="-2.28643">
        <ele>28</ele>
        <time>2020-06-24T10:25:25.055Z</time>
      </trkpt>
      <trkpt lat="48.6652" lon="-2.28642">
        <ele>27</ele>
        <time>2020-06-24T10:25:26.055Z</time>
      </trkpt>
      <trkpt lat="48.66519" lon="-2.2864">
        <ele>27</ele>
        <time>2020-06-24T10:25:27.055Z</time>
      </trkpt>
      <trkpt lat="48.66518" lon="-2.28639">
        <ele>27</ele>
        <time>2020-06-24T10:25:28.055Z</time>
      </trkpt>
      <trkpt lat="48.66518" lon="-2.28637">
        <ele>27</ele>
        <time>2020-06-24T10:25:29.055Z</time>
      </trkpt>
      <trkpt lat="48.66517" lon="-2.28635">
        <ele>27</ele>
        <time>2020-06-24T10:25:30.055Z</time>
      </trkpt>
      <trkpt lat="48.66516" lon="-2.28633">
        <ele>27</ele>
        <time>2020-06-24T10:25:31.055Z</time>
      </trkpt>
      <trkpt lat="48.66516" lon="-2.28631">
        <ele>27</ele>
        <time>2020-06-24T10:25:32.055Z</time>
      </trkpt>
      <trkpt lat="48.66515" lon="-2.28629">
        <ele>27</ele>
        <time>2020-06-24T10:25:33.055Z</time>
      </trkpt>
      <trkpt lat="48.66515" lon="-2.28627">
        <ele>27</ele>
        <time>2020-06-24T10:25:34.055Z</time>
      </trkpt>
      <trkpt lat="48.66515" lon="-2.28626">
        <ele>27</ele>
        <time>2020-06-24T10:25:35.055Z</time>
      </trkpt>
      <trkpt lat="48.66515" lon="-2.28624">
        <ele>27</ele>
        <time>2020-06-24T10:25:36.055Z</time>
      </trkpt>
      <trkpt lat="48.66515" lon="-2.28623">
        <ele>27</ele>
        <time>2020-06-24T10:25:37.055Z</time>
      </trkpt>
      <trkpt lat="48.66515" lon="-2.28621">
        <ele>27</ele>
        <time>2020-06-24T10:25:38.055Z</time>
      </trkpt>
      <trkpt lat="48.66515" lon="-2.28619">
        <ele>26</ele>
        <time>2020-06-24T10:25:39.055Z</time>
      </trkpt>
      <trkpt lat="48.66516" lon="-2.28617">
        <ele>26</ele>
        <time>2020-06-24T10:25:40.055Z</time>
      </trkpt>
      <trkpt lat="48.66516" lon="-2.28616">
        <ele>25</ele>
        <time>2020-06-24T10:25:41.055Z</time>
      </trkpt>
      <trkpt lat="48.66517" lon="-2.28614">
        <ele>25</ele>
        <time>2020-06-24T10:25:42.055Z</time>
      </trkpt>
      <trkpt lat="48.66518" lon="-2.28612">
        <ele>25</ele>
        <time>2020-06-24T10:25:43.055Z</time>
      </trkpt>
      <trkpt lat="48.66518" lon="-2.2861">
        <ele>25</ele>
        <time>2020-06-24T10:25:44.055Z</time>
      </trkpt>
      <trkpt lat="48.66518" lon="-2.28609">
        <ele>25</ele>
        <time>2020-06-24T10:25:45.055Z</time>
      </trkpt>
      <trkpt lat="48.66519" lon="-2.28607">
        <ele>24</ele>
        <time>2020-06-24T10:25:46.055Z</time>
      </trkpt>
      <trkpt lat="48.66519" lon="-2.28605">
        <ele>24</ele>
        <time>2020-06-24T10:25:47.055Z</time>
      </trkpt>
      <trkpt lat="48.6652" lon="-2.28603">
        <ele>24</ele>
        <time>2020-06-24T10:25:48.055Z</time>
      </trkpt>
      <trkpt lat="48.6652" lon="-2.28601">
        <ele>23</ele>
        <time>2020-06-24T10:25:49.055Z</time>
      </trkpt>
      <trkpt lat="48.66521" lon="-2.28599">
        <ele>23</ele>
        <time>2020-06-24T10:25:50.055Z</time>
      </trkpt>
      <trkpt lat="48.66521" lon="-2.28597">
        <ele>23</ele>
        <time>2020-06-24T10:25:51.055Z</time>
      </trkpt>
      <trkpt lat="48.66521" lon="-2.28595">
        <ele>22</ele>
        <time>2020-06-24T10:25:52.055Z</time>
      </trkpt>
      <trkpt lat="48.66521" lon="-2.28593">
        <ele>22</ele>
        <time>2020-06-24T10:25:53.055Z</time>
      </trkpt>
      <trkpt lat="48.6652" lon="-2.28592">
        <ele>22</ele>
        <time>2020-06-24T10:25:54.055Z</time>
      </trkpt>
      <trkpt lat="48.66519" lon="-2.2859">
        <ele>21</ele>
        <time>2020-06-24T10:25:55.055Z</time>
      </trkpt>
      <trkpt lat="48.66519" lon="-2.28589">
        <ele>20</ele>
        <time>2020-06-24T10:25:56.055Z</time>
      </trkpt>
      <trkpt lat="48.66518" lon="-2.28588">
        <ele>20</ele>
        <time>2020-06-24T10:25:57.055Z</time>
      </trkpt>
      <trkpt lat="48.66517" lon="-2.28587">
        <ele>20</ele>
        <time>2020-06-24T10:25:58.055Z</time>
      </trkpt>
      <trkpt lat="48.66516" lon="-2.28587">
        <ele>19</ele>
        <time>2020-06-24T10:25:59.055Z</time>
      </trkpt>
      <trkpt lat="48.66515" lon="-2.28586">
        <ele>19</ele>
        <time>2020-06-24T10:26:00.055Z</time>
      </trkpt>
      <trkpt lat="48.66514" lon="-2.28585">
        <ele>19</ele>
        <time>2020-06-24T10:26:01.055Z</time>
      </trkpt>
      <trkpt lat="48.66512" lon="-2.28584">
        <ele>19</ele>
        <time>2020-06-24T10:26:02.055Z</time>
      </trkpt>
      <trkpt lat="48.66511" lon="-2.28583">
        <ele>19</ele>
        <time>2020-06-24T10:26:03.055Z</time>
      </trkpt>
      <trkpt lat="48.6651" lon="-2.28583">
        <ele>20</ele>
        <time>2020-06-24T10:26:04.055Z</time>
      </trkpt>
      <trkpt lat="48.66509" lon="-2.28582">
        <ele>20</ele>
        <time>2020-06-24T10:26:05.055Z</time>
      </trkpt>
      <trkpt lat="48.66508" lon="-2.28581">
        <ele>20</ele>
        <time>2020-06-24T10:26:06.055Z</time>
      </trkpt>
      <trkpt lat="48.66506" lon="-2.2858">
        <ele>20</ele>
        <time>2020-06-24T10:26:07.055Z</time>
      </trkpt>
      <trkpt lat="48.66505" lon="-2.2858">
        <ele>20</ele>
        <time>2020-06-24T10:26:08.055Z</time>
      </trkpt>
      <trkpt lat="48.66504" lon="-2.28579">
        <ele>20</ele>
        <time>2020-06-24T10:26:09.055Z</time>
      </trkpt>
      <trkpt lat="48.66502" lon="-2.28579">
        <ele>20</ele>
        <time>2020-06-24T10:26:10.055Z</time>
      </trkpt>
      <trkpt lat="48.66501" lon="-2.28578">
        <ele>20</ele>
        <time>2020-06-24T10:26:11.055Z</time>
      </trkpt>
      <trkpt lat="48.665" lon="-2.28578">
        <ele>19</ele>
        <time>2020-06-24T10:26:12.055Z</time>
      </trkpt>
      <trkpt lat="48.66498" lon="-2.28577">
        <ele>19</ele>
        <time>2020-06-24T10:26:13.055Z</time>
      </trkpt>
      <trkpt lat="48.66497" lon="-2.28577">
        <ele>19</ele>
        <time>2020-06-24T10:26:14.055Z</time>
      </trkpt>
      <trkpt lat="48.66496" lon="-2.28576">
        <ele>19</ele>
        <time>2020-06-24T10:26:15.055Z</time>
      </trkpt>
      <trkpt lat="48.66494" lon="-2.28576">
        <ele>19</ele>
        <time>2020-06-24T10:26:16.055Z</time>
      </trkpt>
      <trkpt lat="48.66493" lon="-2.28576">
        <ele>19</ele>
        <time>2020-06-24T10:26:17.055Z</time>
      </trkpt>
      <trkpt lat="48.66491" lon="-2.28576">
        <ele>19</ele>
        <time>2020-06-24T10:26:18.055Z</time>
      </trkpt>
      <trkpt lat="48.6649" lon="-2.28577">
        <ele>20</ele>
        <time>2020-06-24T10:26:19.055Z</time>
      </trkpt>
      <trkpt lat="48.66489" lon="-2.28578">
        <ele>20</ele>
        <time>2020-06-24T10:26:20.055Z</time>
      </trkpt>
      <trkpt lat="48.66488" lon="-2.28579">
        <ele>20</ele>
        <time>2020-06-24T10:26:21.055Z</time>
      </trkpt>
      <trkpt lat="48.66487" lon="-2.2858">
        <ele>20</ele>
        <time>2020-06-24T10:26:22.055Z</time>
      </trkpt>
      <trkpt lat="48.66486" lon="-2.28581">
        <ele>20</ele>
        <time>2020-06-24T10:26:23.055Z</time>
      </trkpt>
      <trkpt lat="48.66485" lon="-2.28583">
        <ele>20</ele>
        <time>2020-06-24T10:26:24.055Z</time>
      </trkpt>
      <trkpt lat="48.66484" lon="-2.28584">
        <ele>20</ele>
        <time>2020-06-24T10:26:25.055Z</time>
      </trkpt>
      <trkpt lat="48.66483" lon="-2.28585">
        <ele>21</ele>
        <time>2020-06-24T10:26:26.055Z</time>
      </trkpt>
      <trkpt lat="48.66482" lon="-2.28587">
        <ele>21</ele>
        <time>2020-06-24T10:26:27.055Z</time>
      </trkpt>
      <trkpt lat="48.66481" lon="-2.28588">
        <ele>21</ele>
        <time>2020-06-24T10:26:28.055Z</time>
      </trkpt>
      <trkpt lat="48.6648" lon="-2.28589">
        <ele>22</ele>
        <time>2020-06-24T10:26:29.055Z</time>
      </trkpt>
      <trkpt lat="48.66479" lon="-2.28591">
        <ele>22</ele>
        <time>2020-06-24T10:26:30.055Z</time>
      </trkpt>
      <trkpt lat="48.66478" lon="-2.28592">
        <ele>22</ele>
        <time>2020-06-24T10:26:31.055Z</time>
      </trkpt>
      <trkpt lat="48.66477" lon="-2.28594">
        <ele>22</ele>
        <time>2020-06-24T10:26:32.055Z</time>
      </trkpt>
      <trkpt lat="48.66477" lon="-2.28595">
        <ele>22</ele>
        <time>2020-06-24T10:26:33.055Z</time>
      </trkpt>
      <trkpt lat="48.66476" lon="-2.28596">
        <ele>22</ele>
        <time>2020-06-24T10:26:34.055Z</time>
      </trkpt>
      <trkpt lat="48.66475" lon="-2.28598">
        <ele>23</ele>
        <time>2020-06-24T10:26:35.055Z</time>
      </trkpt>
      <trkpt lat="48.66474" lon="-2.28599">
        <ele>23</ele>
        <time>2020-06-24T10:26:36.055Z</time>
      </trkpt>
      <trkpt lat="48.66473" lon="-2.286">
        <ele>23</ele>
        <time>2020-06-24T10:26:37.055Z</time>
      </trkpt>
      <trkpt lat="48.66473" lon="-2.28602">
        <ele>24</ele>
        <time>2020-06-24T10:26:38.055Z</time>
      </trkpt>
      <trkpt lat="48.66472" lon="-2.28603">
        <ele>24</ele>
        <time>2020-06-24T10:26:39.055Z</time>
      </trkpt>
      <trkpt lat="48.66471" lon="-2.28605">
        <ele>24</ele>
        <time>2020-06-24T10:26:40.055Z</time>
      </trkpt>
      <trkpt lat="48.6647" lon="-2.28606">
        <ele>24</ele>
        <time>2020-06-24T10:26:41.055Z</time>
      </trkpt>
      <trkpt lat="48.6647" lon="-2.28607">
        <ele>24</ele>
        <time>2020-06-24T10:26:42.055Z</time>
      </trkpt>
      <trkpt lat="48.66469" lon="-2.28607">
        <ele>24</ele>
        <time>2020-06-24T10:26:43.055Z</time>
      </trkpt>
      <trkpt lat="48.66468" lon="-2.28608">
        <ele>25</ele>
        <time>2020-06-24T10:26:44.055Z</time>
      </trkpt>
      <trkpt lat="48.66467" lon="-2.28609">
        <ele>25</ele>
        <time>2020-06-24T10:26:45.055Z</time>
      </trkpt>
      <trkpt lat="48.66466" lon="-2.2861">
        <ele>25</ele>
        <time>2020-06-24T10:26:46.055Z</time>
      </trkpt>
      <trkpt lat="48.66465" lon="-2.28611">
        <ele>25</ele>
        <time>2020-06-24T10:26:47.055Z</time>
      </trkpt>
      <trkpt lat="48.66464" lon="-2.28612">
        <ele>25</ele>
        <time>2020-06-24T10:26:48.055Z</time>
      </trkpt>
      <trkpt lat="48.66464" lon="-2.28613">
        <ele>26</ele>
        <time>2020-06-24T10:26:49.055Z</time>
      </trkpt>
      <trkpt lat="48.66463" lon="-2.28614">
        <ele>26</ele>
        <time>2020-06-24T10:26:50.055Z</time>
      </trkpt>
      <trkpt lat="48.66462" lon="-2.28615">
        <ele>26</ele>
        <time>2020-06-24T10:26:51.055Z</time>
      </trkpt>
      <trkpt lat="48.66462" lon="-2.28616">
        <ele>26</ele>
        <time>2020-06-24T10:26:52.055Z</time>
      </trkpt>
      <trkpt lat="48.66461" lon="-2.28617">
        <ele>27</ele>
        <time>2020-06-24T10:26:53.055Z</time>
      </trkpt>
      <trkpt lat="48.6646" lon="-2.28618">
        <ele>27</ele>
        <time>2020-06-24T10:26:54.055Z</time>
      </trkpt>
      <trkpt lat="48.66459" lon="-2.28619">
        <ele>27</ele>
        <time>2020-06-24T10:26:55.055Z</time>
      </trkpt>
      <trkpt lat="48.66458" lon="-2.2862">
        <ele>27</ele>
        <time>2020-06-24T10:26:56.055Z</time>
      </trkpt>
      <trkpt lat="48.66457" lon="-2.28621">
        <ele>27</ele>
        <time>2020-06-24T10:26:57.055Z</time>
      </trkpt>
      <trkpt lat="48.66456" lon="-2.28622">
        <ele>27</ele>
        <time>2020-06-24T10:26:58.055Z</time>
      </trkpt>
      <trkpt lat="48.66454" lon="-2.28623">
        <ele>27</ele>
        <time>2020-06-24T10:26:59.055Z</time>
      </trkpt>
      <trkpt lat="48.66453" lon="-2.28624">
        <ele>27</ele>
        <time>2020-06-24T10:27:00.055Z</time>
      </trkpt>
      <trkpt lat="48.66452" lon="-2.28625">
        <ele>27</ele>
        <time>2020-06-24T10:27:01.055Z</time>
      </trkpt>
      <trkpt lat="48.66451" lon="-2.28626">
        <ele>27</ele>
        <time>2020-06-24T10:27:02.055Z</time>
      </trkpt>
      <trkpt lat="48.6645" lon="-2.28627">
        <ele>27</ele>
        <time>2020-06-24T10:27:03.055Z</time>
      </trkpt>
      <trkpt lat="48.66449" lon="-2.28627">
        <ele>26</ele>
        <time>2020-06-24T10:27:04.055Z</time>
      </trkpt>
      <trkpt lat="48.66447" lon="-2.28628">
        <ele>26</ele>
        <time>2020-06-24T10:27:05.055Z</time>
      </trkpt>
      <trkpt lat="48.66446" lon="-2.28628">
        <ele>26</ele>
        <time>2020-06-24T10:27:06.055Z</time>
      </trkpt>
      <trkpt lat="48.66444" lon="-2.28628">
        <ele>26</ele>
        <time>2020-06-24T10:27:07.055Z</time>
      </trkpt>
      <trkpt lat="48.66443" lon="-2.28629">
        <ele>26</ele>
        <time>2020-06-24T10:27:08.055Z</time>
      </trkpt>
      <trkpt lat="48.66441" lon="-2.28629">
        <ele>26</ele>
        <time>2020-06-24T10:27:09.055Z</time>
      </trkpt>
      <trkpt lat="48.6644" lon="-2.2863">
        <ele>25</ele>
        <time>2020-06-24T10:27:10.055Z</time>
      </trkpt>
      <trkpt lat="48.66439" lon="-2.28631">
        <ele>25</ele>
        <time>2020-06-24T10:27:11.055Z</time>
      </trkpt>
      <trkpt lat="48.66438" lon="-2.28632">
        <ele>25</ele>
        <time>2020-06-24T10:27:12.055Z</time>
      </trkpt>
      <trkpt lat="48.66437" lon="-2.28633">
        <ele>25</ele>
        <time>2020-06-24T10:27:13.055Z</time>
      </trkpt>
      <trkpt lat="48.66436" lon="-2.28634">
        <ele>25</ele>
        <time>2020-06-24T10:27:14.055Z</time>
      </trkpt>
      <trkpt lat="48.66435" lon="-2.28635">
        <ele>25</ele>
        <time>2020-06-24T10:27:15.055Z</time>
      </trkpt>
      <trkpt lat="48.66434" lon="-2.28635">
        <ele>25</ele>
        <time>2020-06-24T10:27:16.055Z</time>
      </trkpt>
      <trkpt lat="48.66433" lon="-2.28636">
        <ele>25</ele>
        <time>2020-06-24T10:27:17.055Z</time>
      </trkpt>
      <trkpt lat="48.66433" lon="-2.28637">
        <ele>25</ele>
        <time>2020-06-24T10:27:18.055Z</time>
      </trkpt>
      <trkpt lat="48.66432" lon="-2.28638">
        <ele>25</ele>
        <time>2020-06-24T10:27:19.055Z</time>
      </trkpt>
      <trkpt lat="48.6643" lon="-2.2864">
        <ele>25</ele>
        <time>2020-06-24T10:27:20.055Z</time>
      </trkpt>
      <trkpt lat="48.66429" lon="-2.28641">
        <ele>25</ele>
        <time>2020-06-24T10:27:21.055Z</time>
      </trkpt>
      <trkpt lat="48.66428" lon="-2.28641">
        <ele>25</ele>
        <time>2020-06-24T10:27:22.055Z</time>
      </trkpt>
      <trkpt lat="48.66427" lon="-2.28642">
        <ele>25</ele>
        <time>2020-06-24T10:27:23.055Z</time>
      </trkpt>
      <trkpt lat="48.66426" lon="-2.28643">
        <ele>25</ele>
        <time>2020-06-24T10:27:24.055Z</time>
      </trkpt>
      <trkpt lat="48.66425" lon="-2.28643">
        <ele>24</ele>
        <time>2020-06-24T10:27:25.055Z</time>
      </trkpt>
      <trkpt lat="48.66424" lon="-2.28644">
        <ele>24</ele>
        <time>2020-06-24T10:27:26.055Z</time>
      </trkpt>
      <trkpt lat="48.66423" lon="-2.28644">
        <ele>25</ele>
        <time>2020-06-24T10:27:27.055Z</time>
      </trkpt>
      <trkpt lat="48.66421" lon="-2.28645">
        <ele>25</ele>
        <time>2020-06-24T10:27:28.055Z</time>
      </trkpt>
      <trkpt lat="48.6642" lon="-2.28645">
        <ele>25</ele>
        <time>2020-06-24T10:27:29.055Z</time>
      </trkpt>
      <trkpt lat="48.66419" lon="-2.28646">
        <ele>25</ele>
        <time>2020-06-24T10:27:30.055Z</time>
      </trkpt>
      <trkpt lat="48.66418" lon="-2.28646">
        <ele>25</ele>
        <time>2020-06-24T10:27:31.055Z</time>
      </trkpt>
      <trkpt lat="48.66417" lon="-2.28647">
        <ele>25</ele>
        <time>2020-06-24T10:27:32.055Z</time>
      </trkpt>
      <trkpt lat="48.66416" lon="-2.28648">
        <ele>25</ele>
        <time>2020-06-24T10:27:33.055Z</time>
      </trkpt>
      <trkpt lat="48.66415" lon="-2.28649">
        <ele>25</ele>
        <time>2020-06-24T10:27:34.055Z</time>
      </trkpt>
      <trkpt lat="48.66414" lon="-2.2865">
        <ele>25</ele>
        <time>2020-06-24T10:27:35.055Z</time>
      </trkpt>
      <trkpt lat="48.66413" lon="-2.28651">
        <ele>26</ele>
        <time>2020-06-24T10:27:36.055Z</time>
      </trkpt>
      <trkpt lat="48.66412" lon="-2.28652">
        <ele>26</ele>
        <time>2020-06-24T10:27:37.055Z</time>
      </trkpt>
      <trkpt lat="48.66411" lon="-2.28653">
        <ele>26</ele>
        <time>2020-06-24T10:27:38.055Z</time>
      </trkpt>
      <trkpt lat="48.6641" lon="-2.28654">
        <ele>26</ele>
        <time>2020-06-24T10:27:39.055Z</time>
      </trkpt>
      <trkpt lat="48.66409" lon="-2.28654">
        <ele>26</ele>
        <time>2020-06-24T10:27:40.055Z</time>
      </trkpt>
      <trkpt lat="48.66408" lon="-2.28655">
        <ele>26</ele>
        <time>2020-06-24T10:27:41.055Z</time>
      </trkpt>
      <trkpt lat="48.66407" lon="-2.28656">
        <ele>26</ele>
        <time>2020-06-24T10:27:42.055Z</time>
      </trkpt>
      <trkpt lat="48.66406" lon="-2.28656">
        <ele>26</ele>
        <time>2020-06-24T10:27:43.055Z</time>
      </trkpt>
      <trkpt lat="48.66404" lon="-2.28657">
        <ele>26</ele>
        <time>2020-06-24T10:27:44.055Z</time>
      </trkpt>
      <trkpt lat="48.66403" lon="-2.28657">
        <ele>26</ele>
        <time>2020-06-24T10:27:45.055Z</time>
      </trkpt>
      <trkpt lat="48.66402" lon="-2.28657">
        <ele>26</ele>
        <time>2020-06-24T10:27:46.055Z</time>
      </trkpt>
      <trkpt lat="48.66401" lon="-2.28658">
        <ele>26</ele>
        <time>2020-06-24T10:27:47.055Z</time>
      </trkpt>
      <trkpt lat="48.66399" lon="-2.28658">
        <ele>27</ele>
        <time>2020-06-24T10:27:48.055Z</time>
      </trkpt>
      <trkpt lat="48.66398" lon="-2.28659">
        <ele>27</ele>
        <time>2020-06-24T10:27:49.055Z</time>
      </trkpt>
      <trkpt lat="48.66397" lon="-2.2866">
        <ele>27</ele>
        <time>2020-06-24T10:27:50.055Z</time>
      </trkpt>
      <trkpt lat="48.66396" lon="-2.2866">
        <ele>27</ele>
        <time>2020-06-24T10:27:51.055Z</time>
      </trkpt>
      <trkpt lat="48.66394" lon="-2.28661">
        <ele>27</ele>
        <time>2020-06-24T10:27:52.055Z</time>
      </trkpt>
      <trkpt lat="48.66393" lon="-2.28661">
        <ele>27</ele>
        <time>2020-06-24T10:27:53.055Z</time>
      </trkpt>
      <trkpt lat="48.66392" lon="-2.28662">
        <ele>27</ele>
        <time>2020-06-24T10:27:54.055Z</time>
      </trkpt>
      <trkpt lat="48.66391" lon="-2.28663">
        <ele>27</ele>
        <time>2020-06-24T10:27:55.055Z</time>
      </trkpt>
      <trkpt lat="48.6639" lon="-2.28664">
        <ele>26</ele>
        <time>2020-06-24T10:27:56.055Z</time>
      </trkpt>
      <trkpt lat="48.66389" lon="-2.28665">
        <ele>27</ele>
        <time>2020-06-24T10:27:57.055Z</time>
      </trkpt>
      <trkpt lat="48.66388" lon="-2.28665">
        <ele>27</ele>
        <time>2020-06-24T10:27:58.055Z</time>
      </trkpt>
      <trkpt lat="48.66387" lon="-2.28666">
        <ele>27</ele>
        <time>2020-06-24T10:27:59.055Z</time>
      </trkpt>
      <trkpt lat="48.66386" lon="-2.28667">
        <ele>27</ele>
        <time>2020-06-24T10:28:00.055Z</time>
      </trkpt>
      <trkpt lat="48.66385" lon="-2.28667">
        <ele>27</ele>
        <time>2020-06-24T10:28:01.055Z</time>
      </trkpt>
      <trkpt lat="48.66384" lon="-2.28668">
        <ele>27</ele>
        <time>2020-06-24T10:28:02.055Z</time>
      </trkpt>
      <trkpt lat="48.66382" lon="-2.28669">
        <ele>27</ele>
        <time>2020-06-24T10:28:03.055Z</time>
      </trkpt>
      <trkpt lat="48.66381" lon="-2.2867">
        <ele>27</ele>
        <time>2020-06-24T10:28:04.055Z</time>
      </trkpt>
      <trkpt lat="48.6638" lon="-2.2867">
        <ele>26</ele>
        <time>2020-06-24T10:28:05.055Z</time>
      </trkpt>
      <trkpt lat="48.66379" lon="-2.2867">
        <ele>26</ele>
        <time>2020-06-24T10:28:06.055Z</time>
      </trkpt>
      <trkpt lat="48.66378" lon="-2.2867">
        <ele>26</ele>
        <time>2020-06-24T10:28:07.055Z</time>
      </trkpt>
      <trkpt lat="48.66377" lon="-2.2867">
        <ele>25</ele>
        <time>2020-06-24T10:28:08.055Z</time>
      </trkpt>
      <trkpt lat="48.66376" lon="-2.28671">
        <ele>25</ele>
        <time>2020-06-24T10:28:09.055Z</time>
      </trkpt>
      <trkpt lat="48.66374" lon="-2.28672">
        <ele>25</ele>
        <time>2020-06-24T10:28:10.055Z</time>
      </trkpt>
      <trkpt lat="48.66373" lon="-2.28672">
        <ele>25</ele>
        <time>2020-06-24T10:28:11.055Z</time>
      </trkpt>
      <trkpt lat="48.66372" lon="-2.28673">
        <ele>25</ele>
        <time>2020-06-24T10:28:12.055Z</time>
      </trkpt>
      <trkpt lat="48.66371" lon="-2.28673">
        <ele>25</ele>
        <time>2020-06-24T10:28:13.055Z</time>
      </trkpt>
      <trkpt lat="48.6637" lon="-2.28674">
        <ele>25</ele>
        <time>2020-06-24T10:28:14.055Z</time>
      </trkpt>
      <trkpt lat="48.66369" lon="-2.28674">
        <ele>25</ele>
        <time>2020-06-24T10:28:15.055Z</time>
      </trkpt>
      <trkpt lat="48.66368" lon="-2.28675">
        <ele>24</ele>
        <time>2020-06-24T10:28:16.055Z</time>
      </trkpt>
      <trkpt lat="48.66368" lon="-2.28676">
        <ele>25</ele>
        <time>2020-06-24T10:28:17.055Z</time>
      </trkpt>
      <trkpt lat="48.66368" lon="-2.28676">
        <ele>25</ele>
        <time>2020-06-24T10:28:18.055Z</time>
      </trkpt>
      <trkpt lat="48.66368" lon="-2.28676">
        <ele>26</ele>
        <time>2020-06-24T10:28:19.055Z</time>
      </trkpt>
      <trkpt lat="48.66368" lon="-2.28676">
        <ele>26</ele>
        <time>2020-06-24T10:28:20.055Z</time>
      </trkpt>
      <trkpt lat="48.66368" lon="-2.28675">
        <ele>25</ele>
        <time>2020-06-24T10:28:21.055Z</time>
      </trkpt>
      <trkpt lat="48.66368" lon="-2.28675">
        <ele>25</ele>
        <time>2020-06-24T10:28:22.055Z</time>
      </trkpt>
      <trkpt lat="48.66368" lon="-2.28675">
        <ele>25</ele>
        <time>2020-06-24T10:28:23.055Z</time>
      </trkpt>
      <trkpt lat="48.66363" lon="-2.28678">
        <ele>25</ele>
        <time>2020-06-24T10:28:24.062Z</time>
      </trkpt>
      <trkpt lat="48.66362" lon="-2.28679">
        <ele>25</ele>
        <time>2020-06-24T10:28:25.062Z</time>
      </trkpt>
      <trkpt lat="48.66361" lon="-2.2868">
        <ele>25</ele>
        <time>2020-06-24T10:28:26.062Z</time>
      </trkpt>
      <trkpt lat="48.6636" lon="-2.28681">
        <ele>24</ele>
        <time>2020-06-24T10:28:27.062Z</time>
      </trkpt>
      <trkpt lat="48.66359" lon="-2.28683">
        <ele>23</ele>
        <time>2020-06-24T10:28:28.062Z</time>
      </trkpt>
      <trkpt lat="48.66359" lon="-2.28684">
        <ele>22</ele>
        <time>2020-06-24T10:28:29.062Z</time>
      </trkpt>
      <trkpt lat="48.66358" lon="-2.28686">
        <ele>21</ele>
        <time>2020-06-24T10:28:30.062Z</time>
      </trkpt>
      <trkpt lat="48.66357" lon="-2.28687">
        <ele>20</ele>
        <time>2020-06-24T10:28:31.062Z</time>
      </trkpt>
      <trkpt lat="48.66356" lon="-2.28688">
        <ele>20</ele>
        <time>2020-06-24T10:28:32.062Z</time>
      </trkpt>
      <trkpt lat="48.66355" lon="-2.2869">
        <ele>19</ele>
        <time>2020-06-24T10:28:33.062Z</time>
      </trkpt>
      <trkpt lat="48.66354" lon="-2.28691">
        <ele>19</ele>
        <time>2020-06-24T10:28:34.062Z</time>
      </trkpt>
      <trkpt lat="48.66354" lon="-2.28692">
        <ele>19</ele>
        <time>2020-06-24T10:28:35.062Z</time>
      </trkpt>
      <trkpt lat="48.66353" lon="-2.28693">
        <ele>19</ele>
        <time>2020-06-24T10:28:36.062Z</time>
      </trkpt>
      <trkpt lat="48.66351" lon="-2.28694">
        <ele>20</ele>
        <time>2020-06-24T10:28:37.062Z</time>
      </trkpt>
      <trkpt lat="48.6635" lon="-2.28695">
        <ele>20</ele>
        <time>2020-06-24T10:28:38.062Z</time>
      </trkpt>
      <trkpt lat="48.66348" lon="-2.28696">
        <ele>20</ele>
        <time>2020-06-24T10:28:39.062Z</time>
      </trkpt>
      <trkpt lat="48.66347" lon="-2.28697">
        <ele>20</ele>
        <time>2020-06-24T10:28:40.062Z</time>
      </trkpt>
      <trkpt lat="48.66346" lon="-2.28698">
        <ele>20</ele>
        <time>2020-06-24T10:28:41.062Z</time>
      </trkpt>
      <trkpt lat="48.66345" lon="-2.28698">
        <ele>20</ele>
        <time>2020-06-24T10:28:42.062Z</time>
      </trkpt>
      <trkpt lat="48.66343" lon="-2.28699">
        <ele>20</ele>
        <time>2020-06-24T10:28:43.062Z</time>
      </trkpt>
      <trkpt lat="48.66342" lon="-2.287">
        <ele>20</ele>
        <time>2020-06-24T10:28:44.062Z</time>
      </trkpt>
      <trkpt lat="48.66341" lon="-2.28701">
        <ele>20</ele>
        <time>2020-06-24T10:28:45.062Z</time>
      </trkpt>
      <trkpt lat="48.6634" lon="-2.28702">
        <ele>20</ele>
        <time>2020-06-24T10:28:46.062Z</time>
      </trkpt>
      <trkpt lat="48.66339" lon="-2.28703">
        <ele>20</ele>
        <time>2020-06-24T10:28:47.062Z</time>
      </trkpt>
      <trkpt lat="48.66338" lon="-2.28705">
        <ele>20</ele>
        <time>2020-06-24T10:28:48.062Z</time>
      </trkpt>
      <trkpt lat="48.66337" lon="-2.28705">
        <ele>20</ele>
        <time>2020-06-24T10:28:49.062Z</time>
      </trkpt>
      <trkpt lat="48.66336" lon="-2.28706">
        <ele>19</ele>
        <time>2020-06-24T10:28:50.062Z</time>
      </trkpt>
      <trkpt lat="48.66335" lon="-2.28707">
        <ele>19</ele>
        <time>2020-06-24T10:28:51.062Z</time>
      </trkpt>
      <trkpt lat="48.66334" lon="-2.28708">
        <ele>19</ele>
        <time>2020-06-24T10:28:52.062Z</time>
      </trkpt>
      <trkpt lat="48.66333" lon="-2.28709">
        <ele>18</ele>
        <time>2020-06-24T10:28:53.062Z</time>
      </trkpt>
      <trkpt lat="48.66332" lon="-2.2871">
        <ele>19</ele>
        <time>2020-06-24T10:28:54.062Z</time>
      </trkpt>
      <trkpt lat="48.66331" lon="-2.28712">
        <ele>19</ele>
        <time>2020-06-24T10:28:55.062Z</time>
      </trkpt>
      <trkpt lat="48.6633" lon="-2.28713">
        <ele>19</ele>
        <time>2020-06-24T10:28:56.062Z</time>
      </trkpt>
      <trkpt lat="48.66329" lon="-2.28714">
        <ele>18</ele>
        <time>2020-06-24T10:28:57.062Z</time>
      </trkpt>
      <trkpt lat="48.66328" lon="-2.28715">
        <ele>18</ele>
        <time>2020-06-24T10:28:58.062Z</time>
      </trkpt>
      <trkpt lat="48.66327" lon="-2.28716">
        <ele>18</ele>
        <time>2020-06-24T10:28:59.062Z</time>
      </trkpt>
      <trkpt lat="48.66326" lon="-2.28718">
        <ele>18</ele>
        <time>2020-06-24T10:29:00.062Z</time>
      </trkpt>
      <trkpt lat="48.66325" lon="-2.28719">
        <ele>18</ele>
        <time>2020-06-24T10:29:01.062Z</time>
      </trkpt>
      <trkpt lat="48.66325" lon="-2.2872">
        <ele>18</ele>
        <time>2020-06-24T10:29:02.062Z</time>
      </trkpt>
      <trkpt lat="48.66324" lon="-2.28722">
        <ele>18</ele>
        <time>2020-06-24T10:29:03.062Z</time>
      </trkpt>
      <trkpt lat="48.66324" lon="-2.28723">
        <ele>18</ele>
        <time>2020-06-24T10:29:04.062Z</time>
      </trkpt>
      <trkpt lat="48.66323" lon="-2.28725">
        <ele>18</ele>
        <time>2020-06-24T10:29:05.062Z</time>
      </trkpt>
      <trkpt lat="48.66323" lon="-2.28726">
        <ele>19</ele>
        <time>2020-06-24T10:29:06.062Z</time>
      </trkpt>
      <trkpt lat="48.66322" lon="-2.28727">
        <ele>19</ele>
        <time>2020-06-24T10:29:07.062Z</time>
      </trkpt>
      <trkpt lat="48.66322" lon="-2.28728">
        <ele>18</ele>
        <time>2020-06-24T10:29:08.062Z</time>
      </trkpt>
      <trkpt lat="48.66322" lon="-2.2873">
        <ele>18</ele>
        <time>2020-06-24T10:29:09.062Z</time>
      </trkpt>
      <trkpt lat="48.66321" lon="-2.28732">
        <ele>18</ele>
        <time>2020-06-24T10:29:10.062Z</time>
      </trkpt>
      <trkpt lat="48.66321" lon="-2.28733">
        <ele>19</ele>
        <time>2020-06-24T10:29:11.062Z</time>
      </trkpt>
      <trkpt lat="48.66321" lon="-2.28735">
        <ele>18</ele>
        <time>2020-06-24T10:29:12.062Z</time>
      </trkpt>
      <trkpt lat="48.6632" lon="-2.28736">
        <ele>18</ele>
        <time>2020-06-24T10:29:13.062Z</time>
      </trkpt>
      <trkpt lat="48.6632" lon="-2.28737">
        <ele>18</ele>
        <time>2020-06-24T10:29:14.062Z</time>
      </trkpt>
      <trkpt lat="48.6632" lon="-2.28739">
        <ele>19</ele>
        <time>2020-06-24T10:29:15.062Z</time>
      </trkpt>
      <trkpt lat="48.66319" lon="-2.2874">
        <ele>19</ele>
        <time>2020-06-24T10:29:16.062Z</time>
      </trkpt>
      <trkpt lat="48.66318" lon="-2.28742">
        <ele>19</ele>
        <time>2020-06-24T10:29:17.062Z</time>
      </trkpt>
      <trkpt lat="48.66318" lon="-2.28743">
        <ele>19</ele>
        <time>2020-06-24T10:29:18.062Z</time>
      </trkpt>
      <trkpt lat="48.66317" lon="-2.28745">
        <ele>20</ele>
        <time>2020-06-24T10:29:19.062Z</time>
      </trkpt>
      <trkpt lat="48.66317" lon="-2.28746">
        <ele>20</ele>
        <time>2020-06-24T10:29:20.062Z</time>
      </trkpt>
      <trkpt lat="48.66316" lon="-2.28747">
        <ele>20</ele>
        <time>2020-06-24T10:29:21.062Z</time>
      </trkpt>
      <trkpt lat="48.66316" lon="-2.28749">
        <ele>20</ele>
        <time>2020-06-24T10:29:22.062Z</time>
      </trkpt>
      <trkpt lat="48.66317" lon="-2.28751">
        <ele>20</ele>
        <time>2020-06-24T10:29:23.062Z</time>
      </trkpt>
      <trkpt lat="48.66317" lon="-2.28753">
        <ele>19</ele>
        <time>2020-06-24T10:29:24.062Z</time>
      </trkpt>
      <trkpt lat="48.66317" lon="-2.28754">
        <ele>19</ele>
        <time>2020-06-24T10:29:25.062Z</time>
      </trkpt>
      <trkpt lat="48.66317" lon="-2.28756">
        <ele>19</ele>
        <time>2020-06-24T10:29:26.062Z</time>
      </trkpt>
      <trkpt lat="48.66317" lon="-2.28757">
        <ele>19</ele>
        <time>2020-06-24T10:29:27.062Z</time>
      </trkpt>
      <trkpt lat="48.66317" lon="-2.28759">
        <ele>19</ele>
        <time>2020-06-24T10:29:28.062Z</time>
      </trkpt>
      <trkpt lat="48.66317" lon="-2.2876">
        <ele>20</ele>
        <time>2020-06-24T10:29:29.062Z</time>
      </trkpt>
      <trkpt lat="48.66317" lon="-2.28761">
        <ele>21</ele>
        <time>2020-06-24T10:29:30.062Z</time>
      </trkpt>
      <trkpt lat="48.66317" lon="-2.28762">
        <ele>21</ele>
        <time>2020-06-24T10:29:31.062Z</time>
      </trkpt>
      <trkpt lat="48.66317" lon="-2.28764">
        <ele>21</ele>
        <time>2020-06-24T10:29:32.062Z</time>
      </trkpt>
      <trkpt lat="48.66317" lon="-2.28765">
        <ele>21</ele>
        <time>2020-06-24T10:29:33.062Z</time>
      </trkpt>
      <trkpt lat="48.66317" lon="-2.28767">
        <ele>21</ele>
        <time>2020-06-24T10:29:34.062Z</time>
      </trkpt>
      <trkpt lat="48.66317" lon="-2.28769">
        <ele>21</ele>
        <time>2020-06-24T10:29:35.062Z</time>
      </trkpt>
      <trkpt lat="48.66317" lon="-2.28771">
        <ele>21</ele>
        <time>2020-06-24T10:29:36.062Z</time>
      </trkpt>
      <trkpt lat="48.66318" lon="-2.28772">
        <ele>21</ele>
        <time>2020-06-24T10:29:37.062Z</time>
      </trkpt>
      <trkpt lat="48.66319" lon="-2.28774">
        <ele>21</ele>
        <time>2020-06-24T10:29:38.062Z</time>
      </trkpt>
      <trkpt lat="48.66319" lon="-2.28775">
        <ele>21</ele>
        <time>2020-06-24T10:29:39.062Z</time>
      </trkpt>
      <trkpt lat="48.6632" lon="-2.28776">
        <ele>22</ele>
        <time>2020-06-24T10:29:40.062Z</time>
      </trkpt>
      <trkpt lat="48.6632" lon="-2.28777">
        <ele>22</ele>
        <time>2020-06-24T10:29:41.062Z</time>
      </trkpt>
      <trkpt lat="48.66321" lon="-2.28779">
        <ele>22</ele>
        <time>2020-06-24T10:29:42.062Z</time>
      </trkpt>
      <trkpt lat="48.66321" lon="-2.2878">
        <ele>22</ele>
        <time>2020-06-24T10:29:43.062Z</time>
      </trkpt>
      <trkpt lat="48.66322" lon="-2.28782">
        <ele>22</ele>
        <time>2020-06-24T10:29:44.062Z</time>
      </trkpt>
      <trkpt lat="48.66322" lon="-2.28783">
        <ele>22</ele>
        <time>2020-06-24T10:29:45.062Z</time>
      </trkpt>
      <trkpt lat="48.66322" lon="-2.28784">
        <ele>22</ele>
        <time>2020-06-24T10:29:46.062Z</time>
      </trkpt>
      <trkpt lat="48.66322" lon="-2.28786">
        <ele>23</ele>
        <time>2020-06-24T10:29:47.062Z</time>
      </trkpt>
      <trkpt lat="48.66322" lon="-2.28787">
        <ele>23</ele>
        <time>2020-06-24T10:29:48.062Z</time>
      </trkpt>
      <trkpt lat="48.66322" lon="-2.28789">
        <ele>23</ele>
        <time>2020-06-24T10:29:49.062Z</time>
      </trkpt>
      <trkpt lat="48.66322" lon="-2.28791">
        <ele>23</ele>
        <time>2020-06-24T10:29:50.062Z</time>
      </trkpt>
      <trkpt lat="48.66323" lon="-2.28792">
        <ele>23</ele>
        <time>2020-06-24T10:29:51.062Z</time>
      </trkpt>
      <trkpt lat="48.66323" lon="-2.28794">
        <ele>22</ele>
        <time>2020-06-24T10:29:52.062Z</time>
      </trkpt>
      <trkpt lat="48.66323" lon="-2.28796">
        <ele>22</ele>
        <time>2020-06-24T10:29:53.062Z</time>
      </trkpt>
      <trkpt lat="48.66324" lon="-2.28798">
        <ele>23</ele>
        <time>2020-06-24T10:29:54.062Z</time>
      </trkpt>
      <trkpt lat="48.66324" lon="-2.288">
        <ele>23</ele>
        <time>2020-06-24T10:29:55.062Z</time>
      </trkpt>
      <trkpt lat="48.66324" lon="-2.28802">
        <ele>23</ele>
        <time>2020-06-24T10:29:56.062Z</time>
      </trkpt>
      <trkpt lat="48.66325" lon="-2.28803">
        <ele>23</ele>
        <time>2020-06-24T10:29:57.062Z</time>
      </trkpt>
      <trkpt lat="48.66325" lon="-2.28804">
        <ele>23</ele>
        <time>2020-06-24T10:29:58.062Z</time>
      </trkpt>
      <trkpt lat="48.66326" lon="-2.28806">
        <ele>23</ele>
        <time>2020-06-24T10:29:59.062Z</time>
      </trkpt>
      <trkpt lat="48.66326" lon="-2.28807">
        <ele>22</ele>
        <time>2020-06-24T10:30:00.062Z</time>
      </trkpt>
      <trkpt lat="48.66326" lon="-2.28809">
        <ele>23</ele>
        <time>2020-06-24T10:30:01.062Z</time>
      </trkpt>
      <trkpt lat="48.66327" lon="-2.28811">
        <ele>23</ele>
        <time>2020-06-24T10:30:02.062Z</time>
      </trkpt>
      <trkpt lat="48.66327" lon="-2.28813">
        <ele>23</ele>
        <time>2020-06-24T10:30:03.062Z</time>
      </trkpt>
      <trkpt lat="48.66327" lon="-2.28815">
        <ele>24</ele>
        <time>2020-06-24T10:30:04.062Z</time>
      </trkpt>
      <trkpt lat="48.66327" lon="-2.28817">
        <ele>24</ele>
        <time>2020-06-24T10:30:05.062Z</time>
      </trkpt>
      <trkpt lat="48.66327" lon="-2.28819">
        <ele>25</ele>
        <time>2020-06-24T10:30:06.062Z</time>
      </trkpt>
      <trkpt lat="48.66327" lon="-2.2882">
        <ele>24</ele>
        <time>2020-06-24T10:30:07.062Z</time>
      </trkpt>
      <trkpt lat="48.66327" lon="-2.28822">
        <ele>25</ele>
        <time>2020-06-24T10:30:08.062Z</time>
      </trkpt>
      <trkpt lat="48.66327" lon="-2.28824">
        <ele>25</ele>
        <time>2020-06-24T10:30:09.062Z</time>
      </trkpt>
      <trkpt lat="48.66327" lon="-2.28826">
        <ele>24</ele>
        <time>2020-06-24T10:30:10.062Z</time>
      </trkpt>
      <trkpt lat="48.66327" lon="-2.28827">
        <ele>24</ele>
        <time>2020-06-24T10:30:11.062Z</time>
      </trkpt>
      <trkpt lat="48.66326" lon="-2.28829">
        <ele>24</ele>
        <time>2020-06-24T10:30:12.062Z</time>
      </trkpt>
      <trkpt lat="48.66326" lon="-2.28831">
        <ele>24</ele>
        <time>2020-06-24T10:30:13.062Z</time>
      </trkpt>
      <trkpt lat="48.66325" lon="-2.28833">
        <ele>24</ele>
        <time>2020-06-24T10:30:14.062Z</time>
      </trkpt>
      <trkpt lat="48.66325" lon="-2.28835">
        <ele>24</ele>
        <time>2020-06-24T10:30:15.062Z</time>
      </trkpt>
      <trkpt lat="48.66324" lon="-2.28837">
        <ele>23</ele>
        <time>2020-06-24T10:30:16.062Z</time>
      </trkpt>
      <trkpt lat="48.66324" lon="-2.28839">
        <ele>23</ele>
        <time>2020-06-24T10:30:17.062Z</time>
      </trkpt>
      <trkpt lat="48.66324" lon="-2.28841">
        <ele>23</ele>
        <time>2020-06-24T10:30:18.062Z</time>
      </trkpt>
      <trkpt lat="48.66324" lon="-2.28843">
        <ele>23</ele>
        <time>2020-06-24T10:30:19.062Z</time>
      </trkpt>
      <trkpt lat="48.66323" lon="-2.28845">
        <ele>23</ele>
        <time>2020-06-24T10:30:20.062Z</time>
      </trkpt>
      <trkpt lat="48.66323" lon="-2.28847">
        <ele>23</ele>
        <time>2020-06-24T10:30:21.062Z</time>
      </trkpt>
      <trkpt lat="48.66323" lon="-2.28849">
        <ele>23</ele>
        <time>2020-06-24T10:30:22.062Z</time>
      </trkpt>
      <trkpt lat="48.66323" lon="-2.28851">
        <ele>23</ele>
        <time>2020-06-24T10:30:23.062Z</time>
      </trkpt>
      <trkpt lat="48.66322" lon="-2.28852">
        <ele>23</ele>
        <time>2020-06-24T10:30:24.062Z</time>
      </trkpt>
      <trkpt lat="48.66322" lon="-2.28854">
        <ele>24</ele>
        <time>2020-06-24T10:30:25.062Z</time>
      </trkpt>
      <trkpt lat="48.66322" lon="-2.28855">
        <ele>23</ele>
        <time>2020-06-24T10:30:26.062Z</time>
      </trkpt>
      <trkpt lat="48.66322" lon="-2.28857">
        <ele>23</ele>
        <time>2020-06-24T10:30:27.062Z</time>
      </trkpt>
      <trkpt lat="48.66322" lon="-2.28858">
        <ele>23</ele>
        <time>2020-06-24T10:30:28.062Z</time>
      </trkpt>
      <trkpt lat="48.66322" lon="-2.28859">
        <ele>23</ele>
        <time>2020-06-24T10:30:29.062Z</time>
      </trkpt>
      <trkpt lat="48.66322" lon="-2.28861">
        <ele>23</ele>
        <time>2020-06-24T10:30:30.062Z</time>
      </trkpt>
      <trkpt lat="48.66322" lon="-2.28862">
        <ele>23</ele>
        <time>2020-06-24T10:30:31.062Z</time>
      </trkpt>
      <trkpt lat="48.66322" lon="-2.28863">
        <ele>23</ele>
        <time>2020-06-24T10:30:32.062Z</time>
      </trkpt>
      <trkpt lat="48.66322" lon="-2.28864">
        <ele>23</ele>
        <time>2020-06-24T10:30:33.062Z</time>
      </trkpt>
      <trkpt lat="48.66322" lon="-2.28865">
        <ele>23</ele>
        <time>2020-06-24T10:30:34.062Z</time>
      </trkpt>
      <trkpt lat="48.66321" lon="-2.28866">
        <ele>23</ele>
        <time>2020-06-24T10:30:35.062Z</time>
      </trkpt>
      <trkpt lat="48.66321" lon="-2.28867">
        <ele>23</ele>
        <time>2020-06-24T10:30:36.062Z</time>
      </trkpt>
      <trkpt lat="48.66321" lon="-2.28868">
        <ele>23</ele>
        <time>2020-06-24T10:30:37.062Z</time>
      </trkpt>
      <trkpt lat="48.66321" lon="-2.28869">
        <ele>22</ele>
        <time>2020-06-24T10:30:38.062Z</time>
      </trkpt>
      <trkpt lat="48.66321" lon="-2.28869">
        <ele>22</ele>
        <time>2020-06-24T10:30:39.062Z</time>
      </trkpt>
      <trkpt lat="48.66321" lon="-2.2887">
        <ele>22</ele>
        <time>2020-06-24T10:30:40.062Z</time>
      </trkpt>
      <trkpt lat="48.66322" lon="-2.28871">
        <ele>21</ele>
        <time>2020-06-24T10:30:41.062Z</time>
      </trkpt>
      <trkpt lat="48.66322" lon="-2.28873">
        <ele>21</ele>
        <time>2020-06-24T10:30:42.062Z</time>
      </trkpt>
      <trkpt lat="48.66322" lon="-2.28874">
        <ele>21</ele>
        <time>2020-06-24T10:30:43.062Z</time>
      </trkpt>
      <trkpt lat="48.66322" lon="-2.28875">
        <ele>20</ele>
        <time>2020-06-24T10:30:44.062Z</time>
      </trkpt>
      <trkpt lat="48.66322" lon="-2.28876">
        <ele>21</ele>
        <time>2020-06-24T10:30:45.062Z</time>
      </trkpt>
      <trkpt lat="48.66322" lon="-2.28878">
        <ele>20</ele>
        <time>2020-06-24T10:30:46.062Z</time>
      </trkpt>
      <trkpt lat="48.66321" lon="-2.28879">
        <ele>20</ele>
        <time>2020-06-24T10:30:47.062Z</time>
      </trkpt>
      <trkpt lat="48.66321" lon="-2.2888">
        <ele>20</ele>
        <time>2020-06-24T10:30:48.062Z</time>
      </trkpt>
      <trkpt lat="48.66321" lon="-2.28881">
        <ele>20</ele>
        <time>2020-06-24T10:30:49.062Z</time>
      </trkpt>
      <trkpt lat="48.66321" lon="-2.28882">
        <ele>19</ele>
        <time>2020-06-24T10:30:50.062Z</time>
      </trkpt>
      <trkpt lat="48.66321" lon="-2.28884">
        <ele>20</ele>
        <time>2020-06-24T10:30:51.062Z</time>
      </trkpt>
      <trkpt lat="48.66321" lon="-2.28885">
        <ele>20</ele>
        <time>2020-06-24T10:30:52.062Z</time>
      </trkpt>
      <trkpt lat="48.66321" lon="-2.28886">
        <ele>19</ele>
        <time>2020-06-24T10:30:53.062Z</time>
      </trkpt>
      <trkpt lat="48.66322" lon="-2.28887">
        <ele>19</ele>
        <time>2020-06-24T10:30:54.062Z</time>
      </trkpt>
      <trkpt lat="48.66322" lon="-2.28888">
        <ele>19</ele>
        <time>2020-06-24T10:30:55.062Z</time>
      </trkpt>
      <trkpt lat="48.66322" lon="-2.28889">
        <ele>19</ele>
        <time>2020-06-24T10:30:56.062Z</time>
      </trkpt>
      <trkpt lat="48.66322" lon="-2.28889">
        <ele>19</ele>
        <time>2020-06-24T10:30:57.062Z</time>
      </trkpt>
      <trkpt lat="48.66322" lon="-2.2889">
        <ele>18</ele>
        <time>2020-06-24T10:30:58.062Z</time>
      </trkpt>
      <trkpt lat="48.66322" lon="-2.28891">
        <ele>18</ele>
        <time>2020-06-24T10:30:59.062Z</time>
      </trkpt>
      <trkpt lat="48.66322" lon="-2.28892">
        <ele>18</ele>
        <time>2020-06-24T10:31:00.062Z</time>
      </trkpt>
      <trkpt lat="48.66322" lon="-2.28893">
        <ele>17</ele>
        <time>2020-06-24T10:31:01.062Z</time>
      </trkpt>
      <trkpt lat="48.66322" lon="-2.28894">
        <ele>17</ele>
        <time>2020-06-24T10:31:02.062Z</time>
      </trkpt>
      <trkpt lat="48.66322" lon="-2.28895">
        <ele>16</ele>
        <time>2020-06-24T10:31:03.062Z</time>
      </trkpt>
      <trkpt lat="48.66322" lon="-2.28896">
        <ele>16</ele>
        <time>2020-06-24T10:31:04.062Z</time>
      </trkpt>
      <trkpt lat="48.66322" lon="-2.28897">
        <ele>15</ele>
        <time>2020-06-24T10:31:05.062Z</time>
      </trkpt>
      <trkpt lat="48.66323" lon="-2.28898">
        <ele>14</ele>
        <time>2020-06-24T10:31:06.062Z</time>
      </trkpt>
      <trkpt lat="48.66323" lon="-2.289">
        <ele>14</ele>
        <time>2020-06-24T10:31:07.062Z</time>
      </trkpt>
      <trkpt lat="48.66323" lon="-2.28902">
        <ele>14</ele>
        <time>2020-06-24T10:31:08.062Z</time>
      </trkpt>
      <trkpt lat="48.66323" lon="-2.28904">
        <ele>14</ele>
        <time>2020-06-24T10:31:09.062Z</time>
      </trkpt>
      <trkpt lat="48.66323" lon="-2.28906">
        <ele>14</ele>
        <time>2020-06-24T10:31:10.062Z</time>
      </trkpt>
      <trkpt lat="48.66322" lon="-2.28908">
        <ele>15</ele>
        <time>2020-06-24T10:31:11.062Z</time>
      </trkpt>
      <trkpt lat="48.66322" lon="-2.2891">
        <ele>15</ele>
        <time>2020-06-24T10:31:12.062Z</time>
      </trkpt>
      <trkpt lat="48.66321" lon="-2.28912">
        <ele>16</ele>
        <time>2020-06-24T10:31:13.062Z</time>
      </trkpt>
      <trkpt lat="48.6632" lon="-2.28914">
        <ele>16</ele>
        <time>2020-06-24T10:31:14.062Z</time>
      </trkpt>
      <trkpt lat="48.6632" lon="-2.28916">
        <ele>16</ele>
        <time>2020-06-24T10:31:15.062Z</time>
      </trkpt>
      <trkpt lat="48.6632" lon="-2.28917">
        <ele>16</ele>
        <time>2020-06-24T10:31:16.062Z</time>
      </trkpt>
      <trkpt lat="48.6632" lon="-2.28919">
        <ele>16</ele>
        <time>2020-06-24T10:31:17.062Z</time>
      </trkpt>
      <trkpt lat="48.6632" lon="-2.2892">
        <ele>16</ele>
        <time>2020-06-24T10:31:18.062Z</time>
      </trkpt>
      <trkpt lat="48.6632" lon="-2.28921">
        <ele>15</ele>
        <time>2020-06-24T10:31:19.062Z</time>
      </trkpt>
      <trkpt lat="48.66319" lon="-2.28923">
        <ele>15</ele>
        <time>2020-06-24T10:31:20.062Z</time>
      </trkpt>
      <trkpt lat="48.66318" lon="-2.28924">
        <ele>16</ele>
        <time>2020-06-24T10:31:21.062Z</time>
      </trkpt>
      <trkpt lat="48.66318" lon="-2.28926">
        <ele>16</ele>
        <time>2020-06-24T10:31:22.062Z</time>
      </trkpt>
      <trkpt lat="48.66317" lon="-2.28927">
        <ele>17</ele>
        <time>2020-06-24T10:31:23.062Z</time>
      </trkpt>
      <trkpt lat="48.66316" lon="-2.28928">
        <ele>18</ele>
        <time>2020-06-24T10:31:24.062Z</time>
      </trkpt>
      <trkpt lat="48.66316" lon="-2.2893">
        <ele>18</ele>
        <time>2020-06-24T10:31:25.062Z</time>
      </trkpt>
      <trkpt lat="48.66315" lon="-2.28931">
        <ele>17</ele>
        <time>2020-06-24T10:31:26.062Z</time>
      </trkpt>
      <trkpt lat="48.66315" lon="-2.28933">
        <ele>18</ele>
        <time>2020-06-24T10:31:27.062Z</time>
      </trkpt>
      <trkpt lat="48.66315" lon="-2.28934">
        <ele>18</ele>
        <time>2020-06-24T10:31:28.062Z</time>
      </trkpt>
      <trkpt lat="48.66315" lon="-2.28935">
        <ele>18</ele>
        <time>2020-06-24T10:31:29.062Z</time>
      </trkpt>
      <trkpt lat="48.66315" lon="-2.28936">
        <ele>18</ele>
        <time>2020-06-24T10:31:30.062Z</time>
      </trkpt>
      <trkpt lat="48.66315" lon="-2.28938">
        <ele>18</ele>
        <time>2020-06-24T10:31:31.062Z</time>
      </trkpt>
      <trkpt lat="48.66316" lon="-2.2894">
        <ele>18</ele>
        <time>2020-06-24T10:31:32.062Z</time>
      </trkpt>
      <trkpt lat="48.66316" lon="-2.28941">
        <ele>17</ele>
        <time>2020-06-24T10:31:33.062Z</time>
      </trkpt>
      <trkpt lat="48.66317" lon="-2.28942">
        <ele>18</ele>
        <time>2020-06-24T10:31:34.062Z</time>
      </trkpt>
      <trkpt lat="48.66317" lon="-2.28943">
        <ele>18</ele>
        <time>2020-06-24T10:31:35.062Z</time>
      </trkpt>
      <trkpt lat="48.66318" lon="-2.28944">
        <ele>19</ele>
        <time>2020-06-24T10:31:36.062Z</time>
      </trkpt>
      <trkpt lat="48.66318" lon="-2.28945">
        <ele>19</ele>
        <time>2020-06-24T10:31:37.062Z</time>
      </trkpt>
      <trkpt lat="48.66319" lon="-2.28946">
        <ele>19</ele>
        <time>2020-06-24T10:31:38.062Z</time>
      </trkpt>
      <trkpt lat="48.66319" lon="-2.28947">
        <ele>20</ele>
        <time>2020-06-24T10:31:39.062Z</time>
      </trkpt>
      <trkpt lat="48.6632" lon="-2.28948">
        <ele>21</ele>
        <time>2020-06-24T10:31:40.062Z</time>
      </trkpt>
      <trkpt lat="48.66319" lon="-2.2895">
        <ele>21</ele>
        <time>2020-06-24T10:31:41.062Z</time>
      </trkpt>
      <trkpt lat="48.66319" lon="-2.28952">
        <ele>23</ele>
        <time>2020-06-24T10:31:42.062Z</time>
      </trkpt>
      <trkpt lat="48.66318" lon="-2.28953">
        <ele>24</ele>
        <time>2020-06-24T10:31:43.062Z</time>
      </trkpt>
      <trkpt lat="48.66318" lon="-2.28955">
        <ele>25</ele>
        <time>2020-06-24T10:31:44.062Z</time>
      </trkpt>
      <trkpt lat="48.66317" lon="-2.28956">
        <ele>26</ele>
        <time>2020-06-24T10:31:45.062Z</time>
      </trkpt>
      <trkpt lat="48.66317" lon="-2.28956">
        <ele>27</ele>
        <time>2020-06-24T10:31:46.062Z</time>
      </trkpt>
      <trkpt lat="48.66316" lon="-2.28957">
        <ele>27</ele>
        <time>2020-06-24T10:31:47.062Z</time>
      </trkpt>
      <trkpt lat="48.66316" lon="-2.28959">
        <ele>27</ele>
        <time>2020-06-24T10:31:48.062Z</time>
      </trkpt>
      <trkpt lat="48.66316" lon="-2.2896">
        <ele>28</ele>
        <time>2020-06-24T10:31:49.062Z</time>
      </trkpt>
      <trkpt lat="48.66315" lon="-2.28961">
        <ele>28</ele>
        <time>2020-06-24T10:31:50.062Z</time>
      </trkpt>
      <trkpt lat="48.66315" lon="-2.28963">
        <ele>28</ele>
        <time>2020-06-24T10:31:51.062Z</time>
      </trkpt>
      <trkpt lat="48.66315" lon="-2.28964">
        <ele>28</ele>
        <time>2020-06-24T10:31:52.062Z</time>
      </trkpt>
      <trkpt lat="48.66315" lon="-2.28966">
        <ele>28</ele>
        <time>2020-06-24T10:31:53.062Z</time>
      </trkpt>
      <trkpt lat="48.66314" lon="-2.28967">
        <ele>28</ele>
        <time>2020-06-24T10:31:54.062Z</time>
      </trkpt>
      <trkpt lat="48.66314" lon="-2.28969">
        <ele>27</ele>
        <time>2020-06-24T10:31:55.062Z</time>
      </trkpt>
      <trkpt lat="48.66314" lon="-2.28971">
        <ele>27</ele>
        <time>2020-06-24T10:31:56.062Z</time>
      </trkpt>
      <trkpt lat="48.66313" lon="-2.28972">
        <ele>28</ele>
        <time>2020-06-24T10:31:57.062Z</time>
      </trkpt>
      <trkpt lat="48.66313" lon="-2.28974">
        <ele>29</ele>
        <time>2020-06-24T10:31:58.062Z</time>
      </trkpt>
      <trkpt lat="48.66312" lon="-2.28975">
        <ele>29</ele>
        <time>2020-06-24T10:31:59.062Z</time>
      </trkpt>
      <trkpt lat="48.66311" lon="-2.28976">
        <ele>28</ele>
        <time>2020-06-24T10:32:00.062Z</time>
      </trkpt>
      <trkpt lat="48.66311" lon="-2.28978">
        <ele>28</ele>
        <time>2020-06-24T10:32:01.062Z</time>
      </trkpt>
      <trkpt lat="48.6631" lon="-2.28979">
        <ele>28</ele>
        <time>2020-06-24T10:32:02.062Z</time>
      </trkpt>
      <trkpt lat="48.66309" lon="-2.2898">
        <ele>28</ele>
        <time>2020-06-24T10:32:03.062Z</time>
      </trkpt>
      <trkpt lat="48.66308" lon="-2.28981">
        <ele>27</ele>
        <time>2020-06-24T10:32:04.062Z</time>
      </trkpt>
      <trkpt lat="48.66308" lon="-2.28982">
        <ele>27</ele>
        <time>2020-06-24T10:32:05.062Z</time>
      </trkpt>
      <trkpt lat="48.66307" lon="-2.28984">
        <ele>26</ele>
        <time>2020-06-24T10:32:06.062Z</time>
      </trkpt>
      <trkpt lat="48.66306" lon="-2.28985">
        <ele>25</ele>
        <time>2020-06-24T10:32:07.062Z</time>
      </trkpt>
      <trkpt lat="48.66305" lon="-2.28987">
        <ele>25</ele>
        <time>2020-06-24T10:32:08.062Z</time>
      </trkpt>
      <trkpt lat="48.66305" lon="-2.28988">
        <ele>25</ele>
        <time>2020-06-24T10:32:09.062Z</time>
      </trkpt>
      <trkpt lat="48.66304" lon="-2.28989">
        <ele>25</ele>
        <time>2020-06-24T10:32:10.062Z</time>
      </trkpt>
      <trkpt lat="48.66303" lon="-2.28991">
        <ele>25</ele>
        <time>2020-06-24T10:32:11.062Z</time>
      </trkpt>
      <trkpt lat="48.66302" lon="-2.28992">
        <ele>24</ele>
        <time>2020-06-24T10:32:12.062Z</time>
      </trkpt>
      <trkpt lat="48.66301" lon="-2.28994">
        <ele>23</ele>
        <time>2020-06-24T10:32:13.062Z</time>
      </trkpt>
      <trkpt lat="48.663" lon="-2.28996">
        <ele>23</ele>
        <time>2020-06-24T10:32:14.062Z</time>
      </trkpt>
      <trkpt lat="48.66299" lon="-2.28998">
        <ele>25</ele>
        <time>2020-06-24T10:32:15.062Z</time>
      </trkpt>
      <trkpt lat="48.66298" lon="-2.28999">
        <ele>25</ele>
        <time>2020-06-24T10:32:16.062Z</time>
      </trkpt>
      <trkpt lat="48.66296" lon="-2.29001">
        <ele>24</ele>
        <time>2020-06-24T10:32:17.062Z</time>
      </trkpt>
      <trkpt lat="48.66295" lon="-2.29002">
        <ele>25</ele>
        <time>2020-06-24T10:32:18.062Z</time>
      </trkpt>
      <trkpt lat="48.66294" lon="-2.29004">
        <ele>25</ele>
        <time>2020-06-24T10:32:19.062Z</time>
      </trkpt>
      <trkpt lat="48.66293" lon="-2.29005">
        <ele>25</ele>
        <time>2020-06-24T10:32:20.062Z</time>
      </trkpt>
      <trkpt lat="48.66292" lon="-2.29007">
        <ele>25</ele>
        <time>2020-06-24T10:32:21.062Z</time>
      </trkpt>
      <trkpt lat="48.66291" lon="-2.29008">
        <ele>25</ele>
        <time>2020-06-24T10:32:22.062Z</time>
      </trkpt>
      <trkpt lat="48.66291" lon="-2.29009">
        <ele>25</ele>
        <time>2020-06-24T10:32:23.062Z</time>
      </trkpt>
      <trkpt lat="48.6629" lon="-2.29011">
        <ele>25</ele>
        <time>2020-06-24T10:32:24.062Z</time>
      </trkpt>
      <trkpt lat="48.6629" lon="-2.29012">
        <ele>25</ele>
        <time>2020-06-24T10:32:25.062Z</time>
      </trkpt>
      <trkpt lat="48.66289" lon="-2.29013">
        <ele>25</ele>
        <time>2020-06-24T10:32:26.062Z</time>
      </trkpt>
      <trkpt lat="48.66289" lon="-2.29014">
        <ele>25</ele>
        <time>2020-06-24T10:32:27.062Z</time>
      </trkpt>
      <trkpt lat="48.66288" lon="-2.29015">
        <ele>25</ele>
        <time>2020-06-24T10:32:28.062Z</time>
      </trkpt>
      <trkpt lat="48.66288" lon="-2.29017">
        <ele>25</ele>
        <time>2020-06-24T10:32:29.062Z</time>
      </trkpt>
      <trkpt lat="48.66287" lon="-2.29018">
        <ele>25</ele>
        <time>2020-06-24T10:32:30.062Z</time>
      </trkpt>
      <trkpt lat="48.66287" lon="-2.2902">
        <ele>25</ele>
        <time>2020-06-24T10:32:31.062Z</time>
      </trkpt>
      <trkpt lat="48.66287" lon="-2.29021">
        <ele>25</ele>
        <time>2020-06-24T10:32:32.062Z</time>
      </trkpt>
      <trkpt lat="48.66286" lon="-2.29023">
        <ele>25</ele>
        <time>2020-06-24T10:32:33.062Z</time>
      </trkpt>
      <trkpt lat="48.66286" lon="-2.29024">
        <ele>24</ele>
        <time>2020-06-24T10:32:34.062Z</time>
      </trkpt>
      <trkpt lat="48.66286" lon="-2.29025">
        <ele>24</ele>
        <time>2020-06-24T10:32:35.062Z</time>
      </trkpt>
      <trkpt lat="48.66285" lon="-2.29026">
        <ele>23</ele>
        <time>2020-06-24T10:32:36.062Z</time>
      </trkpt>
      <trkpt lat="48.66285" lon="-2.29027">
        <ele>23</ele>
        <time>2020-06-24T10:32:37.062Z</time>
      </trkpt>
      <trkpt lat="48.66284" lon="-2.29029">
        <ele>24</ele>
        <time>2020-06-24T10:32:38.062Z</time>
      </trkpt>
      <trkpt lat="48.66282" lon="-2.2903">
        <ele>23</ele>
        <time>2020-06-24T10:32:39.062Z</time>
      </trkpt>
      <trkpt lat="48.66281" lon="-2.29031">
        <ele>23</ele>
        <time>2020-06-24T10:32:40.062Z</time>
      </trkpt>
      <trkpt lat="48.6628" lon="-2.29033">
        <ele>22</ele>
        <time>2020-06-24T10:32:41.062Z</time>
      </trkpt>
      <trkpt lat="48.66279" lon="-2.29034">
        <ele>21</ele>
        <time>2020-06-24T10:32:42.062Z</time>
      </trkpt>
      <trkpt lat="48.66278" lon="-2.29035">
        <ele>22</ele>
        <time>2020-06-24T10:32:43.062Z</time>
      </trkpt>
      <trkpt lat="48.66277" lon="-2.29037">
        <ele>21</ele>
        <time>2020-06-24T10:32:44.062Z</time>
      </trkpt>
      <trkpt lat="48.66276" lon="-2.29038">
        <ele>20</ele>
        <time>2020-06-24T10:32:45.062Z</time>
      </trkpt>
      <trkpt lat="48.66274" lon="-2.29039">
        <ele>20</ele>
        <time>2020-06-24T10:32:46.062Z</time>
      </trkpt>
      <trkpt lat="48.66273" lon="-2.2904">
        <ele>19</ele>
        <time>2020-06-24T10:32:47.062Z</time>
      </trkpt>
      <trkpt lat="48.66272" lon="-2.29041">
        <ele>20</ele>
        <time>2020-06-24T10:32:48.062Z</time>
      </trkpt>
      <trkpt lat="48.66271" lon="-2.29042">
        <ele>19</ele>
        <time>2020-06-24T10:32:49.062Z</time>
      </trkpt>
      <trkpt lat="48.66269" lon="-2.29043">
        <ele>20</ele>
        <time>2020-06-24T10:32:50.062Z</time>
      </trkpt>
      <trkpt lat="48.66268" lon="-2.29045">
        <ele>20</ele>
        <time>2020-06-24T10:32:51.062Z</time>
      </trkpt>
      <trkpt lat="48.66267" lon="-2.29046">
        <ele>20</ele>
        <time>2020-06-24T10:32:52.062Z</time>
      </trkpt>
      <trkpt lat="48.66265" lon="-2.29047">
        <ele>20</ele>
        <time>2020-06-24T10:32:53.062Z</time>
      </trkpt>
      <trkpt lat="48.66264" lon="-2.29048">
        <ele>20</ele>
        <time>2020-06-24T10:32:54.062Z</time>
      </trkpt>
      <trkpt lat="48.66263" lon="-2.29048">
        <ele>21</ele>
        <time>2020-06-24T10:32:55.062Z</time>
      </trkpt>
      <trkpt lat="48.66262" lon="-2.29049">
        <ele>21</ele>
        <time>2020-06-24T10:32:56.062Z</time>
      </trkpt>
      <trkpt lat="48.66261" lon="-2.2905">
        <ele>20</ele>
        <time>2020-06-24T10:32:57.062Z</time>
      </trkpt>
      <trkpt lat="48.6626" lon="-2.29051">
        <ele>20</ele>
        <time>2020-06-24T10:32:58.062Z</time>
      </trkpt>
      <trkpt lat="48.66259" lon="-2.29052">
        <ele>20</ele>
        <time>2020-06-24T10:32:59.062Z</time>
      </trkpt>
      <trkpt lat="48.66258" lon="-2.29053">
        <ele>20</ele>
        <time>2020-06-24T10:33:00.062Z</time>
      </trkpt>
      <trkpt lat="48.66257" lon="-2.29054">
        <ele>20</ele>
        <time>2020-06-24T10:33:01.062Z</time>
      </trkpt>
      <trkpt lat="48.66256" lon="-2.29056">
        <ele>20</ele>
        <time>2020-06-24T10:33:02.062Z</time>
      </trkpt>
      <trkpt lat="48.66255" lon="-2.29057">
        <ele>20</ele>
        <time>2020-06-24T10:33:03.062Z</time>
      </trkpt>
      <trkpt lat="48.66254" lon="-2.29058">
        <ele>21</ele>
        <time>2020-06-24T10:33:04.062Z</time>
      </trkpt>
      <trkpt lat="48.66253" lon="-2.29059">
        <ele>21</ele>
        <time>2020-06-24T10:33:05.062Z</time>
      </trkpt>
      <trkpt lat="48.66252" lon="-2.2906">
        <ele>21</ele>
        <time>2020-06-24T10:33:06.062Z</time>
      </trkpt>
      <trkpt lat="48.6625" lon="-2.29061">
        <ele>21</ele>
        <time>2020-06-24T10:33:07.062Z</time>
      </trkpt>
      <trkpt lat="48.66249" lon="-2.29061">
        <ele>22</ele>
        <time>2020-06-24T10:33:08.062Z</time>
      </trkpt>
      <trkpt lat="48.66248" lon="-2.29062">
        <ele>22</ele>
        <time>2020-06-24T10:33:09.062Z</time>
      </trkpt>
      <trkpt lat="48.66247" lon="-2.29063">
        <ele>22</ele>
        <time>2020-06-24T10:33:10.062Z</time>
      </trkpt>
      <trkpt lat="48.66246" lon="-2.29064">
        <ele>22</ele>
        <time>2020-06-24T10:33:11.062Z</time>
      </trkpt>
      <trkpt lat="48.66245" lon="-2.29065">
        <ele>22</ele>
        <time>2020-06-24T10:33:12.062Z</time>
      </trkpt>
      <trkpt lat="48.66244" lon="-2.29067">
        <ele>23</ele>
        <time>2020-06-24T10:33:13.062Z</time>
      </trkpt>
      <trkpt lat="48.66243" lon="-2.29068">
        <ele>23</ele>
        <time>2020-06-24T10:33:14.062Z</time>
      </trkpt>
      <trkpt lat="48.66242" lon="-2.2907">
        <ele>24</ele>
        <time>2020-06-24T10:33:15.062Z</time>
      </trkpt>
      <trkpt lat="48.66242" lon="-2.29071">
        <ele>24</ele>
        <time>2020-06-24T10:33:16.062Z</time>
      </trkpt>
      <trkpt lat="48.66241" lon="-2.29072">
        <ele>24</ele>
        <time>2020-06-24T10:33:17.062Z</time>
      </trkpt>
      <trkpt lat="48.6624" lon="-2.29072">
        <ele>25</ele>
        <time>2020-06-24T10:33:18.062Z</time>
      </trkpt>
      <trkpt lat="48.66238" lon="-2.29072">
        <ele>25</ele>
        <time>2020-06-24T10:33:19.062Z</time>
      </trkpt>
      <trkpt lat="48.66237" lon="-2.29073">
        <ele>25</ele>
        <time>2020-06-24T10:33:20.062Z</time>
      </trkpt>
      <trkpt lat="48.66236" lon="-2.29074">
        <ele>25</ele>
        <time>2020-06-24T10:33:21.062Z</time>
      </trkpt>
      <trkpt lat="48.66235" lon="-2.29075">
        <ele>25</ele>
        <time>2020-06-24T10:33:22.062Z</time>
      </trkpt>
      <trkpt lat="48.66234" lon="-2.29076">
        <ele>25</ele>
        <time>2020-06-24T10:33:23.062Z</time>
      </trkpt>
      <trkpt lat="48.66233" lon="-2.29077">
        <ele>25</ele>
        <time>2020-06-24T10:33:24.062Z</time>
      </trkpt>
      <trkpt lat="48.66232" lon="-2.29079">
        <ele>25</ele>
        <time>2020-06-24T10:33:25.062Z</time>
      </trkpt>
      <trkpt lat="48.66232" lon="-2.2908">
        <ele>25</ele>
        <time>2020-06-24T10:33:26.062Z</time>
      </trkpt>
      <trkpt lat="48.66231" lon="-2.29082">
        <ele>24</ele>
        <time>2020-06-24T10:33:27.062Z</time>
      </trkpt>
      <trkpt lat="48.6623" lon="-2.29083">
        <ele>24</ele>
        <time>2020-06-24T10:33:28.062Z</time>
      </trkpt>
      <trkpt lat="48.66229" lon="-2.29084">
        <ele>25</ele>
        <time>2020-06-24T10:33:29.062Z</time>
      </trkpt>
      <trkpt lat="48.66229" lon="-2.29086">
        <ele>25</ele>
        <time>2020-06-24T10:33:30.062Z</time>
      </trkpt>
      <trkpt lat="48.66228" lon="-2.29087">
        <ele>25</ele>
        <time>2020-06-24T10:33:31.062Z</time>
      </trkpt>
      <trkpt lat="48.66228" lon="-2.29089">
        <ele>25</ele>
        <time>2020-06-24T10:33:32.062Z</time>
      </trkpt>
      <trkpt lat="48.66228" lon="-2.2909">
        <ele>25</ele>
        <time>2020-06-24T10:33:33.062Z</time>
      </trkpt>
      <trkpt lat="48.66227" lon="-2.29092">
        <ele>26</ele>
        <time>2020-06-24T10:33:34.062Z</time>
      </trkpt>
      <trkpt lat="48.66227" lon="-2.29093">
        <ele>26</ele>
        <time>2020-06-24T10:33:35.062Z</time>
      </trkpt>
      <trkpt lat="48.66227" lon="-2.29094">
        <ele>26</ele>
        <time>2020-06-24T10:33:36.062Z</time>
      </trkpt>
      <trkpt lat="48.66226" lon="-2.29096">
        <ele>26</ele>
        <time>2020-06-24T10:33:37.062Z</time>
      </trkpt>
      <trkpt lat="48.66226" lon="-2.29097">
        <ele>27</ele>
        <time>2020-06-24T10:33:38.062Z</time>
      </trkpt>
      <trkpt lat="48.66226" lon="-2.29097">
        <ele>27</ele>
        <time>2020-06-24T10:33:39.062Z</time>
      </trkpt>
      <trkpt lat="48.66226" lon="-2.29098">
        <ele>27</ele>
        <time>2020-06-24T10:33:40.062Z</time>
      </trkpt>
      <trkpt lat="48.66226" lon="-2.29099">
        <ele>28</ele>
        <time>2020-06-24T10:33:41.062Z</time>
      </trkpt>
      <trkpt lat="48.66226" lon="-2.291">
        <ele>29</ele>
        <time>2020-06-24T10:33:42.062Z</time>
      </trkpt>
      <trkpt lat="48.66226" lon="-2.291">
        <ele>30</ele>
        <time>2020-06-24T10:33:43.062Z</time>
      </trkpt>
      <trkpt lat="48.66226" lon="-2.29101">
        <ele>30</ele>
        <time>2020-06-24T10:33:44.062Z</time>
      </trkpt>
      <trkpt lat="48.66226" lon="-2.29102">
        <ele>30</ele>
        <time>2020-06-24T10:33:45.062Z</time>
      </trkpt>
      <trkpt lat="48.66225" lon="-2.29103">
        <ele>30</ele>
        <time>2020-06-24T10:33:46.062Z</time>
      </trkpt>
      <trkpt lat="48.66224" lon="-2.29103">
        <ele>30</ele>
        <time>2020-06-24T10:33:47.062Z</time>
      </trkpt>
      <trkpt lat="48.66224" lon="-2.29104">
        <ele>31</ele>
        <time>2020-06-24T10:33:48.062Z</time>
      </trkpt>
      <trkpt lat="48.66223" lon="-2.29105">
        <ele>31</ele>
        <time>2020-06-24T10:33:49.062Z</time>
      </trkpt>
      <trkpt lat="48.66223" lon="-2.29106">
        <ele>31</ele>
        <time>2020-06-24T10:33:50.062Z</time>
      </trkpt>
      <trkpt lat="48.66222" lon="-2.29108">
        <ele>32</ele>
        <time>2020-06-24T10:33:51.062Z</time>
      </trkpt>
      <trkpt lat="48.66222" lon="-2.29109">
        <ele>32</ele>
        <time>2020-06-24T10:33:52.062Z</time>
      </trkpt>
      <trkpt lat="48.66222" lon="-2.2911">
        <ele>32</ele>
        <time>2020-06-24T10:33:53.062Z</time>
      </trkpt>
      <trkpt lat="48.66221" lon="-2.29112">
        <ele>33</ele>
        <time>2020-06-24T10:33:54.062Z</time>
      </trkpt>
      <trkpt lat="48.66221" lon="-2.29113">
        <ele>32</ele>
        <time>2020-06-24T10:33:55.062Z</time>
      </trkpt>
      <trkpt lat="48.6622" lon="-2.29115">
        <ele>33</ele>
        <time>2020-06-24T10:33:56.062Z</time>
      </trkpt>
      <trkpt lat="48.6622" lon="-2.29116">
        <ele>33</ele>
        <time>2020-06-24T10:33:57.062Z</time>
      </trkpt>
      <trkpt lat="48.66219" lon="-2.29117">
        <ele>33</ele>
        <time>2020-06-24T10:33:58.062Z</time>
      </trkpt>
      <trkpt lat="48.66219" lon="-2.29118">
        <ele>33</ele>
        <time>2020-06-24T10:33:59.062Z</time>
      </trkpt>
      <trkpt lat="48.66219" lon="-2.29118">
        <ele>34</ele>
        <time>2020-06-24T10:34:00.062Z</time>
      </trkpt>
      <trkpt lat="48.66218" lon="-2.29119">
        <ele>33</ele>
        <time>2020-06-24T10:34:01.062Z</time>
      </trkpt>
      <trkpt lat="48.66218" lon="-2.29121">
        <ele>33</ele>
        <time>2020-06-24T10:34:02.062Z</time>
      </trkpt>
      <trkpt lat="48.66218" lon="-2.29122">
        <ele>34</ele>
        <time>2020-06-24T10:34:03.062Z</time>
      </trkpt>
      <trkpt lat="48.66217" lon="-2.29124">
        <ele>34</ele>
        <time>2020-06-24T10:34:04.062Z</time>
      </trkpt>
      <trkpt lat="48.66217" lon="-2.29125">
        <ele>34</ele>
        <time>2020-06-24T10:34:05.062Z</time>
      </trkpt>
      <trkpt lat="48.66216" lon="-2.29127">
        <ele>34</ele>
        <time>2020-06-24T10:34:06.062Z</time>
      </trkpt>
      <trkpt lat="48.66216" lon="-2.29128">
        <ele>34</ele>
        <time>2020-06-24T10:34:07.062Z</time>
      </trkpt>
      <trkpt lat="48.66215" lon="-2.29129">
        <ele>34</ele>
        <time>2020-06-24T10:34:08.062Z</time>
      </trkpt>
      <trkpt lat="48.66214" lon="-2.2913">
        <ele>34</ele>
        <time>2020-06-24T10:34:09.062Z</time>
      </trkpt>
      <trkpt lat="48.66214" lon="-2.29131">
        <ele>34</ele>
        <time>2020-06-24T10:34:10.062Z</time>
      </trkpt>
      <trkpt lat="48.66214" lon="-2.29133">
        <ele>34</ele>
        <time>2020-06-24T10:34:11.062Z</time>
      </trkpt>
      <trkpt lat="48.66213" lon="-2.29134">
        <ele>33</ele>
        <time>2020-06-24T10:34:12.062Z</time>
      </trkpt>
      <trkpt lat="48.66213" lon="-2.29136">
        <ele>32</ele>
        <time>2020-06-24T10:34:13.062Z</time>
      </trkpt>
      <trkpt lat="48.66213" lon="-2.29137">
        <ele>31</ele>
        <time>2020-06-24T10:34:14.062Z</time>
      </trkpt>
      <trkpt lat="48.66213" lon="-2.29139">
        <ele>31</ele>
        <time>2020-06-24T10:34:15.062Z</time>
      </trkpt>
      <trkpt lat="48.66213" lon="-2.2914">
        <ele>31</ele>
        <time>2020-06-24T10:34:16.062Z</time>
      </trkpt>
      <trkpt lat="48.66213" lon="-2.2914">
        <ele>31</ele>
        <time>2020-06-24T10:34:17.062Z</time>
      </trkpt>
      <trkpt lat="48.66212" lon="-2.29141">
        <ele>31</ele>
        <time>2020-06-24T10:34:18.062Z</time>
      </trkpt>
      <trkpt lat="48.66212" lon="-2.29141">
        <ele>31</ele>
        <time>2020-06-24T10:34:19.062Z</time>
      </trkpt>
      <trkpt lat="48.66211" lon="-2.29142">
        <ele>32</ele>
        <time>2020-06-24T10:34:20.062Z</time>
      </trkpt>
      <trkpt lat="48.66211" lon="-2.29144">
        <ele>30</ele>
        <time>2020-06-24T10:34:21.062Z</time>
      </trkpt>
      <trkpt lat="48.6621" lon="-2.29145">
        <ele>29</ele>
        <time>2020-06-24T10:34:22.062Z</time>
      </trkpt>
      <trkpt lat="48.6621" lon="-2.29147">
        <ele>29</ele>
        <time>2020-06-24T10:34:23.062Z</time>
      </trkpt>
      <trkpt lat="48.66209" lon="-2.29148">
        <ele>29</ele>
        <time>2020-06-24T10:34:24.062Z</time>
      </trkpt>
      <trkpt lat="48.66209" lon="-2.2915">
        <ele>28</ele>
        <time>2020-06-24T10:34:25.062Z</time>
      </trkpt>
      <trkpt lat="48.66208" lon="-2.29151">
        <ele>27</ele>
        <time>2020-06-24T10:34:26.062Z</time>
      </trkpt>
      <trkpt lat="48.66207" lon="-2.29153">
        <ele>27</ele>
        <time>2020-06-24T10:34:27.062Z</time>
      </trkpt>
      <trkpt lat="48.66206" lon="-2.29154">
        <ele>28</ele>
        <time>2020-06-24T10:34:28.062Z</time>
      </trkpt>
      <trkpt lat="48.66205" lon="-2.29155">
        <ele>28</ele>
        <time>2020-06-24T10:34:29.062Z</time>
      </trkpt>
      <trkpt lat="48.66205" lon="-2.29156">
        <ele>28</ele>
        <time>2020-06-24T10:34:30.062Z</time>
      </trkpt>
      <trkpt lat="48.66204" lon="-2.29157">
        <ele>28</ele>
        <time>2020-06-24T10:34:31.062Z</time>
      </trkpt>
      <trkpt lat="48.66203" lon="-2.29158">
        <ele>28</ele>
        <time>2020-06-24T10:34:32.062Z</time>
      </trkpt>
      <trkpt lat="48.66203" lon="-2.29159">
        <ele>27</ele>
        <time>2020-06-24T10:34:33.062Z</time>
      </trkpt>
      <trkpt lat="48.66202" lon="-2.2916">
        <ele>27</ele>
        <time>2020-06-24T10:34:34.062Z</time>
      </trkpt>
      <trkpt lat="48.66201" lon="-2.29161">
        <ele>27</ele>
        <time>2020-06-24T10:34:35.062Z</time>
      </trkpt>
      <trkpt lat="48.662" lon="-2.29162">
        <ele>28</ele>
        <time>2020-06-24T10:34:36.062Z</time>
      </trkpt>
      <trkpt lat="48.66199" lon="-2.29163">
        <ele>28</ele>
        <time>2020-06-24T10:34:37.062Z</time>
      </trkpt>
      <trkpt lat="48.66197" lon="-2.29165">
        <ele>28</ele>
        <time>2020-06-24T10:34:38.062Z</time>
      </trkpt>
      <trkpt lat="48.66196" lon="-2.29166">
        <ele>28</ele>
        <time>2020-06-24T10:34:39.062Z</time>
      </trkpt>
      <trkpt lat="48.66194" lon="-2.29169">
        <ele>28</ele>
        <time>2020-06-24T10:34:40.062Z</time>
      </trkpt>
      <trkpt lat="48.66193" lon="-2.29171">
        <ele>27</ele>
        <time>2020-06-24T10:34:41.062Z</time>
      </trkpt>
      <trkpt lat="48.66191" lon="-2.29174">
        <ele>27</ele>
        <time>2020-06-24T10:34:42.062Z</time>
      </trkpt>
      <trkpt lat="48.6619" lon="-2.29175">
        <ele>28</ele>
        <time>2020-06-24T10:34:43.062Z</time>
      </trkpt>
      <trkpt lat="48.66188" lon="-2.29177">
        <ele>29</ele>
        <time>2020-06-24T10:34:44.062Z</time>
      </trkpt>
      <trkpt lat="48.66187" lon="-2.29178">
        <ele>28</ele>
        <time>2020-06-24T10:34:45.062Z</time>
      </trkpt>
      <trkpt lat="48.66186" lon="-2.2918">
        <ele>29</ele>
        <time>2020-06-24T10:34:46.062Z</time>
      </trkpt>
      <trkpt lat="48.66185" lon="-2.29182">
        <ele>29</ele>
        <time>2020-06-24T10:34:47.062Z</time>
      </trkpt>
      <trkpt lat="48.66184" lon="-2.29183">
        <ele>28</ele>
        <time>2020-06-24T10:34:48.062Z</time>
      </trkpt>
      <trkpt lat="48.66183" lon="-2.29185">
        <ele>28</ele>
        <time>2020-06-24T10:34:49.062Z</time>
      </trkpt>
      <trkpt lat="48.66182" lon="-2.29187">
        <ele>28</ele>
        <time>2020-06-24T10:34:50.062Z</time>
      </trkpt>
      <trkpt lat="48.66181" lon="-2.29188">
        <ele>28</ele>
        <time>2020-06-24T10:34:51.062Z</time>
      </trkpt>
      <trkpt lat="48.6618" lon="-2.2919">
        <ele>29</ele>
        <time>2020-06-24T10:34:52.062Z</time>
      </trkpt>
      <trkpt lat="48.6618" lon="-2.29191">
        <ele>29</ele>
        <time>2020-06-24T10:34:53.062Z</time>
      </trkpt>
      <trkpt lat="48.66179" lon="-2.29193">
        <ele>29</ele>
        <time>2020-06-24T10:34:54.062Z</time>
      </trkpt>
      <trkpt lat="48.66178" lon="-2.29195">
        <ele>29</ele>
        <time>2020-06-24T10:34:55.062Z</time>
      </trkpt>
      <trkpt lat="48.66177" lon="-2.29196">
        <ele>29</ele>
        <time>2020-06-24T10:34:56.062Z</time>
      </trkpt>
      <trkpt lat="48.66176" lon="-2.29197">
        <ele>29</ele>
        <time>2020-06-24T10:34:57.062Z</time>
      </trkpt>
      <trkpt lat="48.66175" lon="-2.29198">
        <ele>29</ele>
        <time>2020-06-24T10:34:58.062Z</time>
      </trkpt>
      <trkpt lat="48.66174" lon="-2.29199">
        <ele>29</ele>
        <time>2020-06-24T10:34:59.062Z</time>
      </trkpt>
      <trkpt lat="48.66173" lon="-2.292">
        <ele>29</ele>
        <time>2020-06-24T10:35:00.062Z</time>
      </trkpt>
      <trkpt lat="48.66173" lon="-2.29201">
        <ele>29</ele>
        <time>2020-06-24T10:35:01.062Z</time>
      </trkpt>
      <trkpt lat="48.66172" lon="-2.29203">
        <ele>29</ele>
        <time>2020-06-24T10:35:02.062Z</time>
      </trkpt>
      <trkpt lat="48.66171" lon="-2.29205">
        <ele>28</ele>
        <time>2020-06-24T10:35:03.062Z</time>
      </trkpt>
      <trkpt lat="48.66171" lon="-2.29206">
        <ele>29</ele>
        <time>2020-06-24T10:35:04.062Z</time>
      </trkpt>
      <trkpt lat="48.6617" lon="-2.29207">
        <ele>30</ele>
        <time>2020-06-24T10:35:05.062Z</time>
      </trkpt>
      <trkpt lat="48.66169" lon="-2.29208">
        <ele>30</ele>
        <time>2020-06-24T10:35:06.062Z</time>
      </trkpt>
      <trkpt lat="48.66168" lon="-2.2921">
        <ele>30</ele>
        <time>2020-06-24T10:35:07.062Z</time>
      </trkpt>
      <trkpt lat="48.66168" lon="-2.29211">
        <ele>30</ele>
        <time>2020-06-24T10:35:08.062Z</time>
      </trkpt>
      <trkpt lat="48.66167" lon="-2.29213">
        <ele>30</ele>
        <time>2020-06-24T10:35:09.062Z</time>
      </trkpt>
      <trkpt lat="48.66166" lon="-2.29214">
        <ele>30</ele>
        <time>2020-06-24T10:35:10.062Z</time>
      </trkpt>
      <trkpt lat="48.66164" lon="-2.29216">
        <ele>30</ele>
        <time>2020-06-24T10:35:11.062Z</time>
      </trkpt>
      <trkpt lat="48.66163" lon="-2.29217">
        <ele>31</ele>
        <time>2020-06-24T10:35:12.062Z</time>
      </trkpt>
      <trkpt lat="48.66162" lon="-2.29218">
        <ele>31</ele>
        <time>2020-06-24T10:35:13.062Z</time>
      </trkpt>
      <trkpt lat="48.66161" lon="-2.2922">
        <ele>31</ele>
        <time>2020-06-24T10:35:14.062Z</time>
      </trkpt>
      <trkpt lat="48.6616" lon="-2.29221">
        <ele>31</ele>
        <time>2020-06-24T10:35:15.062Z</time>
      </trkpt>
      <trkpt lat="48.66159" lon="-2.29222">
        <ele>31</ele>
        <time>2020-06-24T10:35:16.062Z</time>
      </trkpt>
      <trkpt lat="48.66159" lon="-2.29223">
        <ele>30</ele>
        <time>2020-06-24T10:35:17.062Z</time>
      </trkpt>
      <trkpt lat="48.66158" lon="-2.29225">
        <ele>30</ele>
        <time>2020-06-24T10:35:18.062Z</time>
      </trkpt>
      <trkpt lat="48.66158" lon="-2.29226">
        <ele>30</ele>
        <time>2020-06-24T10:35:19.062Z</time>
      </trkpt>
      <trkpt lat="48.66158" lon="-2.29227">
        <ele>30</ele>
        <time>2020-06-24T10:35:20.062Z</time>
      </trkpt>
      <trkpt lat="48.66157" lon="-2.29228">
        <ele>30</ele>
        <time>2020-06-24T10:35:21.062Z</time>
      </trkpt>
      <trkpt lat="48.66156" lon="-2.2923">
        <ele>30</ele>
        <time>2020-06-24T10:35:22.062Z</time>
      </trkpt>
      <trkpt lat="48.66156" lon="-2.29231">
        <ele>30</ele>
        <time>2020-06-24T10:35:23.062Z</time>
      </trkpt>
      <trkpt lat="48.66156" lon="-2.29232">
        <ele>29</ele>
        <time>2020-06-24T10:35:24.062Z</time>
      </trkpt>
      <trkpt lat="48.66156" lon="-2.29234">
        <ele>30</ele>
        <time>2020-06-24T10:35:25.062Z</time>
      </trkpt>
      <trkpt lat="48.66155" lon="-2.29236">
        <ele>29</ele>
        <time>2020-06-24T10:35:26.062Z</time>
      </trkpt>
      <trkpt lat="48.66156" lon="-2.29237">
        <ele>29</ele>
        <time>2020-06-24T10:35:27.062Z</time>
      </trkpt>
      <trkpt lat="48.66155" lon="-2.29239">
        <ele>29</ele>
        <time>2020-06-24T10:35:28.062Z</time>
      </trkpt>
      <trkpt lat="48.66155" lon="-2.29241">
        <ele>29</ele>
        <time>2020-06-24T10:35:29.062Z</time>
      </trkpt>
      <trkpt lat="48.66155" lon="-2.29243">
        <ele>28</ele>
        <time>2020-06-24T10:35:30.062Z</time>
      </trkpt>
      <trkpt lat="48.66156" lon="-2.29245">
        <ele>28</ele>
        <time>2020-06-24T10:35:31.062Z</time>
      </trkpt>
      <trkpt lat="48.66156" lon="-2.29246">
        <ele>29</ele>
        <time>2020-06-24T10:35:32.062Z</time>
      </trkpt>
      <trkpt lat="48.66155" lon="-2.29248">
        <ele>29</ele>
        <time>2020-06-24T10:35:33.062Z</time>
      </trkpt>
      <trkpt lat="48.66156" lon="-2.29248">
        <ele>30</ele>
        <time>2020-06-24T10:35:34.062Z</time>
      </trkpt>
      <trkpt lat="48.66156" lon="-2.29249">
        <ele>30</ele>
        <time>2020-06-24T10:35:35.062Z</time>
      </trkpt>
      <trkpt lat="48.66157" lon="-2.29249">
        <ele>31</ele>
        <time>2020-06-24T10:35:36.062Z</time>
      </trkpt>
      <trkpt lat="48.66157" lon="-2.29249">
        <ele>31</ele>
        <time>2020-06-24T10:35:37.062Z</time>
      </trkpt>
      <trkpt lat="48.66157" lon="-2.2925">
        <ele>33</ele>
        <time>2020-06-24T10:35:38.062Z</time>
      </trkpt>
      <trkpt lat="48.66157" lon="-2.29252">
        <ele>33</ele>
        <time>2020-06-24T10:35:39.062Z</time>
      </trkpt>
      <trkpt lat="48.66158" lon="-2.29253">
        <ele>32</ele>
        <time>2020-06-24T10:35:40.062Z</time>
      </trkpt>
      <trkpt lat="48.66158" lon="-2.29253">
        <ele>32</ele>
        <time>2020-06-24T10:35:41.062Z</time>
      </trkpt>
      <trkpt lat="48.66159" lon="-2.29254">
        <ele>31</ele>
        <time>2020-06-24T10:35:42.062Z</time>
      </trkpt>
      <trkpt lat="48.66159" lon="-2.29255">
        <ele>31</ele>
        <time>2020-06-24T10:35:43.062Z</time>
      </trkpt>
      <trkpt lat="48.6616" lon="-2.29256">
        <ele>31</ele>
        <time>2020-06-24T10:35:44.062Z</time>
      </trkpt>
      <trkpt lat="48.66161" lon="-2.29257">
        <ele>31</ele>
        <time>2020-06-24T10:35:45.062Z</time>
      </trkpt>
      <trkpt lat="48.66161" lon="-2.29258">
        <ele>31</ele>
        <time>2020-06-24T10:35:46.062Z</time>
      </trkpt>
      <trkpt lat="48.66162" lon="-2.29259">
        <ele>31</ele>
        <time>2020-06-24T10:35:47.062Z</time>
      </trkpt>
      <trkpt lat="48.66162" lon="-2.29259">
        <ele>32</ele>
        <time>2020-06-24T10:35:48.062Z</time>
      </trkpt>
      <trkpt lat="48.66163" lon="-2.2926">
        <ele>33</ele>
        <time>2020-06-24T10:35:49.062Z</time>
      </trkpt>
      <trkpt lat="48.66163" lon="-2.2926">
        <ele>34</ele>
        <time>2020-06-24T10:35:50.062Z</time>
      </trkpt>
      <trkpt lat="48.66163" lon="-2.29261">
        <ele>34</ele>
        <time>2020-06-24T10:35:51.062Z</time>
      </trkpt>
      <trkpt lat="48.66164" lon="-2.29261">
        <ele>34</ele>
        <time>2020-06-24T10:35:52.062Z</time>
      </trkpt>
      <trkpt lat="48.66164" lon="-2.29262">
        <ele>34</ele>
        <time>2020-06-24T10:35:53.062Z</time>
      </trkpt>
      <trkpt lat="48.66165" lon="-2.29263">
        <ele>35</ele>
        <time>2020-06-24T10:35:54.062Z</time>
      </trkpt>
      <trkpt lat="48.66166" lon="-2.29263">
        <ele>34</ele>
        <time>2020-06-24T10:35:55.062Z</time>
      </trkpt>
      <trkpt lat="48.66166" lon="-2.29264">
        <ele>34</ele>
        <time>2020-06-24T10:35:56.062Z</time>
      </trkpt>
      <trkpt lat="48.66167" lon="-2.29265">
        <ele>34</ele>
        <time>2020-06-24T10:35:57.062Z</time>
      </trkpt>
      <trkpt lat="48.66167" lon="-2.29265">
        <ele>34</ele>
        <time>2020-06-24T10:35:58.062Z</time>
      </trkpt>
      <trkpt lat="48.66168" lon="-2.29266">
        <ele>35</ele>
        <time>2020-06-24T10:35:59.062Z</time>
      </trkpt>
      <trkpt lat="48.66168" lon="-2.29266">
        <ele>35</ele>
        <time>2020-06-24T10:36:00.062Z</time>
      </trkpt>
      <trkpt lat="48.66169" lon="-2.29266">
        <ele>35</ele>
        <time>2020-06-24T10:36:01.062Z</time>
      </trkpt>
      <trkpt lat="48.66169" lon="-2.29266">
        <ele>36</ele>
        <time>2020-06-24T10:36:02.062Z</time>
      </trkpt>
      <trkpt lat="48.6617" lon="-2.29266">
        <ele>37</ele>
        <time>2020-06-24T10:36:03.062Z</time>
      </trkpt>
      <trkpt lat="48.6617" lon="-2.29267">
        <ele>37</ele>
        <time>2020-06-24T10:36:04.062Z</time>
      </trkpt>
      <trkpt lat="48.6617" lon="-2.29267">
        <ele>37</ele>
        <time>2020-06-24T10:36:05.062Z</time>
      </trkpt>
      <trkpt lat="48.66171" lon="-2.29268">
        <ele>38</ele>
        <time>2020-06-24T10:36:06.062Z</time>
      </trkpt>
      <trkpt lat="48.66171" lon="-2.29269">
        <ele>39</ele>
        <time>2020-06-24T10:36:07.062Z</time>
      </trkpt>
      <trkpt lat="48.66172" lon="-2.29269">
        <ele>39</ele>
        <time>2020-06-24T10:36:08.062Z</time>
      </trkpt>
      <trkpt lat="48.66172" lon="-2.2927">
        <ele>40</ele>
        <time>2020-06-24T10:36:09.062Z</time>
      </trkpt>
      <trkpt lat="48.66173" lon="-2.29272">
        <ele>40</ele>
        <time>2020-06-24T10:36:10.062Z</time>
      </trkpt>
      <trkpt lat="48.66173" lon="-2.29273">
        <ele>41</ele>
        <time>2020-06-24T10:36:11.062Z</time>
      </trkpt>
      <trkpt lat="48.66173" lon="-2.29275">
        <ele>41</ele>
        <time>2020-06-24T10:36:12.062Z</time>
      </trkpt>
      <trkpt lat="48.66174" lon="-2.29276">
        <ele>41</ele>
        <time>2020-06-24T10:36:13.062Z</time>
      </trkpt>
      <trkpt lat="48.66174" lon="-2.29277">
        <ele>40</ele>
        <time>2020-06-24T10:36:14.062Z</time>
      </trkpt>
      <trkpt lat="48.66174" lon="-2.29279">
        <ele>40</ele>
        <time>2020-06-24T10:36:15.062Z</time>
      </trkpt>
      <trkpt lat="48.66174" lon="-2.2928">
        <ele>40</ele>
        <time>2020-06-24T10:36:16.062Z</time>
      </trkpt>
      <trkpt lat="48.66174" lon="-2.29281">
        <ele>40</ele>
        <time>2020-06-24T10:36:17.062Z</time>
      </trkpt>
      <trkpt lat="48.66174" lon="-2.29282">
        <ele>40</ele>
        <time>2020-06-24T10:36:18.062Z</time>
      </trkpt>
      <trkpt lat="48.66175" lon="-2.29283">
        <ele>39</ele>
        <time>2020-06-24T10:36:19.062Z</time>
      </trkpt>
      <trkpt lat="48.66175" lon="-2.29284">
        <ele>39</ele>
        <time>2020-06-24T10:36:20.062Z</time>
      </trkpt>
      <trkpt lat="48.66175" lon="-2.29285">
        <ele>39</ele>
        <time>2020-06-24T10:36:21.062Z</time>
      </trkpt>
      <trkpt lat="48.66175" lon="-2.29286">
        <ele>38</ele>
        <time>2020-06-24T10:36:22.062Z</time>
      </trkpt>
      <trkpt lat="48.66176" lon="-2.29287">
        <ele>38</ele>
        <time>2020-06-24T10:36:23.062Z</time>
      </trkpt>
      <trkpt lat="48.66176" lon="-2.29288">
        <ele>37</ele>
        <time>2020-06-24T10:36:24.062Z</time>
      </trkpt>
      <trkpt lat="48.66176" lon="-2.2929">
        <ele>36</ele>
        <time>2020-06-24T10:36:25.062Z</time>
      </trkpt>
      <trkpt lat="48.66176" lon="-2.29292">
        <ele>35</ele>
        <time>2020-06-24T10:36:26.062Z</time>
      </trkpt>
      <trkpt lat="48.66177" lon="-2.29294">
        <ele>36</ele>
        <time>2020-06-24T10:36:27.062Z</time>
      </trkpt>
      <trkpt lat="48.66177" lon="-2.29296">
        <ele>36</ele>
        <time>2020-06-24T10:36:28.062Z</time>
      </trkpt>
      <trkpt lat="48.66177" lon="-2.29298">
        <ele>36</ele>
        <time>2020-06-24T10:36:29.062Z</time>
      </trkpt>
      <trkpt lat="48.66177" lon="-2.29299">
        <ele>36</ele>
        <time>2020-06-24T10:36:30.062Z</time>
      </trkpt>
      <trkpt lat="48.66177" lon="-2.293">
        <ele>36</ele>
        <time>2020-06-24T10:36:31.062Z</time>
      </trkpt>
      <trkpt lat="48.66177" lon="-2.29301">
        <ele>36</ele>
        <time>2020-06-24T10:36:32.062Z</time>
      </trkpt>
      <trkpt lat="48.66177" lon="-2.29302">
        <ele>35</ele>
        <time>2020-06-24T10:36:33.062Z</time>
      </trkpt>
      <trkpt lat="48.66177" lon="-2.29304">
        <ele>35</ele>
        <time>2020-06-24T10:36:34.062Z</time>
      </trkpt>
      <trkpt lat="48.66177" lon="-2.29305">
        <ele>34</ele>
        <time>2020-06-24T10:36:35.062Z</time>
      </trkpt>
      <trkpt lat="48.66177" lon="-2.29305">
        <ele>34</ele>
        <time>2020-06-24T10:36:36.062Z</time>
      </trkpt>
      <trkpt lat="48.66177" lon="-2.29306">
        <ele>34</ele>
        <time>2020-06-24T10:36:37.062Z</time>
      </trkpt>
      <trkpt lat="48.66177" lon="-2.29308">
        <ele>34</ele>
        <time>2020-06-24T10:36:38.062Z</time>
      </trkpt>
      <trkpt lat="48.66176" lon="-2.2931">
        <ele>34</ele>
        <time>2020-06-24T10:36:39.062Z</time>
      </trkpt>
      <trkpt lat="48.66176" lon="-2.29312">
        <ele>35</ele>
        <time>2020-06-24T10:36:40.062Z</time>
      </trkpt>
      <trkpt lat="48.66175" lon="-2.29314">
        <ele>36</ele>
        <time>2020-06-24T10:36:41.062Z</time>
      </trkpt>
      <trkpt lat="48.66174" lon="-2.29316">
        <ele>37</ele>
        <time>2020-06-24T10:36:42.062Z</time>
      </trkpt>
      <trkpt lat="48.66173" lon="-2.29319">
        <ele>37</ele>
        <time>2020-06-24T10:36:43.062Z</time>
      </trkpt>
      <trkpt lat="48.66172" lon="-2.29321">
        <ele>37</ele>
        <time>2020-06-24T10:36:44.062Z</time>
      </trkpt>
      <trkpt lat="48.66172" lon="-2.29323">
        <ele>36</ele>
        <time>2020-06-24T10:36:45.062Z</time>
      </trkpt>
      <trkpt lat="48.66171" lon="-2.29325">
        <ele>37</ele>
        <time>2020-06-24T10:36:46.062Z</time>
      </trkpt>
      <trkpt lat="48.66171" lon="-2.29326">
        <ele>37</ele>
        <time>2020-06-24T10:36:47.062Z</time>
      </trkpt>
      <trkpt lat="48.6617" lon="-2.29327">
        <ele>38</ele>
        <time>2020-06-24T10:36:48.062Z</time>
      </trkpt>
      <trkpt lat="48.6617" lon="-2.29329">
        <ele>39</ele>
        <time>2020-06-24T10:36:49.062Z</time>
      </trkpt>
      <trkpt lat="48.66168" lon="-2.2933">
        <ele>40</ele>
        <time>2020-06-24T10:36:50.062Z</time>
      </trkpt>
      <trkpt lat="48.66167" lon="-2.29332">
        <ele>40</ele>
        <time>2020-06-24T10:36:51.062Z</time>
      </trkpt>
      <trkpt lat="48.66166" lon="-2.29333">
        <ele>41</ele>
        <time>2020-06-24T10:36:52.062Z</time>
      </trkpt>
      <trkpt lat="48.66165" lon="-2.29335">
        <ele>41</ele>
        <time>2020-06-24T10:36:53.062Z</time>
      </trkpt>
      <trkpt lat="48.66164" lon="-2.29336">
        <ele>42</ele>
        <time>2020-06-24T10:36:54.062Z</time>
      </trkpt>
      <trkpt lat="48.66163" lon="-2.29338">
        <ele>42</ele>
        <time>2020-06-24T10:36:55.062Z</time>
      </trkpt>
      <trkpt lat="48.66162" lon="-2.29339">
        <ele>42</ele>
        <time>2020-06-24T10:36:56.062Z</time>
      </trkpt>
      <trkpt lat="48.66161" lon="-2.29341">
        <ele>42</ele>
        <time>2020-06-24T10:36:57.062Z</time>
      </trkpt>
      <trkpt lat="48.66159" lon="-2.29343">
        <ele>42</ele>
        <time>2020-06-24T10:36:58.062Z</time>
      </trkpt>
      <trkpt lat="48.66158" lon="-2.29345">
        <ele>43</ele>
        <time>2020-06-24T10:36:59.062Z</time>
      </trkpt>
      <trkpt lat="48.66156" lon="-2.29346">
        <ele>43</ele>
        <time>2020-06-24T10:37:00.062Z</time>
      </trkpt>
      <trkpt lat="48.66155" lon="-2.29348">
        <ele>43</ele>
        <time>2020-06-24T10:37:01.062Z</time>
      </trkpt>
      <trkpt lat="48.66154" lon="-2.29349">
        <ele>43</ele>
        <time>2020-06-24T10:37:02.062Z</time>
      </trkpt>
      <trkpt lat="48.66153" lon="-2.2935">
        <ele>44</ele>
        <time>2020-06-24T10:37:03.062Z</time>
      </trkpt>
      <trkpt lat="48.66152" lon="-2.29352">
        <ele>43</ele>
        <time>2020-06-24T10:37:04.062Z</time>
      </trkpt>
      <trkpt lat="48.66151" lon="-2.29353">
        <ele>42</ele>
        <time>2020-06-24T10:37:05.062Z</time>
      </trkpt>
      <trkpt lat="48.6615" lon="-2.29355">
        <ele>42</ele>
        <time>2020-06-24T10:37:06.062Z</time>
      </trkpt>
      <trkpt lat="48.66149" lon="-2.29357">
        <ele>42</ele>
        <time>2020-06-24T10:37:07.062Z</time>
      </trkpt>
      <trkpt lat="48.66148" lon="-2.29358">
        <ele>42</ele>
        <time>2020-06-24T10:37:08.062Z</time>
      </trkpt>
      <trkpt lat="48.66146" lon="-2.29359">
        <ele>41</ele>
        <time>2020-06-24T10:37:09.062Z</time>
      </trkpt>
      <trkpt lat="48.66145" lon="-2.2936">
        <ele>42</ele>
        <time>2020-06-24T10:37:10.062Z</time>
      </trkpt>
      <trkpt lat="48.66143" lon="-2.2936">
        <ele>42</ele>
        <time>2020-06-24T10:37:11.062Z</time>
      </trkpt>
      <trkpt lat="48.66142" lon="-2.29361">
        <ele>42</ele>
        <time>2020-06-24T10:37:12.062Z</time>
      </trkpt>
      <trkpt lat="48.66141" lon="-2.29362">
        <ele>42</ele>
        <time>2020-06-24T10:37:13.062Z</time>
      </trkpt>
      <trkpt lat="48.66139" lon="-2.29362">
        <ele>43</ele>
        <time>2020-06-24T10:37:14.062Z</time>
      </trkpt>
      <trkpt lat="48.66138" lon="-2.29363">
        <ele>42</ele>
        <time>2020-06-24T10:37:15.062Z</time>
      </trkpt>
      <trkpt lat="48.66137" lon="-2.29363">
        <ele>40</ele>
        <time>2020-06-24T10:37:16.062Z</time>
      </trkpt>
      <trkpt lat="48.66135" lon="-2.29362">
        <ele>39</ele>
        <time>2020-06-24T10:37:17.062Z</time>
      </trkpt>
      <trkpt lat="48.66134" lon="-2.29363">
        <ele>38</ele>
        <time>2020-06-24T10:37:18.062Z</time>
      </trkpt>
      <trkpt lat="48.66132" lon="-2.29363">
        <ele>38</ele>
        <time>2020-06-24T10:37:19.062Z</time>
      </trkpt>
      <trkpt lat="48.6613" lon="-2.29364">
        <ele>37</ele>
        <time>2020-06-24T10:37:20.062Z</time>
      </trkpt>
      <trkpt lat="48.66129" lon="-2.29364">
        <ele>37</ele>
        <time>2020-06-24T10:37:21.062Z</time>
      </trkpt>
      <trkpt lat="48.66128" lon="-2.29364">
        <ele>37</ele>
        <time>2020-06-24T10:37:22.062Z</time>
      </trkpt>
      <trkpt lat="48.66127" lon="-2.29365">
        <ele>36</ele>
        <time>2020-06-24T10:37:23.062Z</time>
      </trkpt>
      <trkpt lat="48.66126" lon="-2.29365">
        <ele>36</ele>
        <time>2020-06-24T10:37:24.062Z</time>
      </trkpt>
      <trkpt lat="48.66124" lon="-2.29366">
        <ele>36</ele>
        <time>2020-06-24T10:37:25.062Z</time>
      </trkpt>
      <trkpt lat="48.66123" lon="-2.29366">
        <ele>36</ele>
        <time>2020-06-24T10:37:26.062Z</time>
      </trkpt>
      <trkpt lat="48.66122" lon="-2.29366">
        <ele>36</ele>
        <time>2020-06-24T10:37:27.062Z</time>
      </trkpt>
      <trkpt lat="48.6612" lon="-2.29367">
        <ele>36</ele>
        <time>2020-06-24T10:37:28.062Z</time>
      </trkpt>
      <trkpt lat="48.66119" lon="-2.29367">
        <ele>35</ele>
        <time>2020-06-24T10:37:29.062Z</time>
      </trkpt>
      <trkpt lat="48.66118" lon="-2.29367">
        <ele>36</ele>
        <time>2020-06-24T10:37:30.062Z</time>
      </trkpt>
      <trkpt lat="48.66117" lon="-2.29367">
        <ele>36</ele>
        <time>2020-06-24T10:37:31.062Z</time>
      </trkpt>
      <trkpt lat="48.66115" lon="-2.29368">
        <ele>36</ele>
        <time>2020-06-24T10:37:32.062Z</time>
      </trkpt>
      <trkpt lat="48.66114" lon="-2.29369">
        <ele>36</ele>
        <time>2020-06-24T10:37:33.062Z</time>
      </trkpt>
      <trkpt lat="48.66113" lon="-2.2937">
        <ele>37</ele>
        <time>2020-06-24T10:37:34.062Z</time>
      </trkpt>
      <trkpt lat="48.66112" lon="-2.29371">
        <ele>37</ele>
        <time>2020-06-24T10:37:35.062Z</time>
      </trkpt>
      <trkpt lat="48.66111" lon="-2.29372">
        <ele>36</ele>
        <time>2020-06-24T10:37:36.062Z</time>
      </trkpt>
      <trkpt lat="48.6611" lon="-2.29373">
        <ele>36</ele>
        <time>2020-06-24T10:37:37.062Z</time>
      </trkpt>
      <trkpt lat="48.66109" lon="-2.29374">
        <ele>36</ele>
        <time>2020-06-24T10:37:38.062Z</time>
      </trkpt>
      <trkpt lat="48.66109" lon="-2.29375">
        <ele>36</ele>
        <time>2020-06-24T10:37:39.062Z</time>
      </trkpt>
      <trkpt lat="48.66108" lon="-2.29377">
        <ele>35</ele>
        <time>2020-06-24T10:37:40.062Z</time>
      </trkpt>
      <trkpt lat="48.66107" lon="-2.29378">
        <ele>35</ele>
        <time>2020-06-24T10:37:41.062Z</time>
      </trkpt>
      <trkpt lat="48.66106" lon="-2.2938">
        <ele>35</ele>
        <time>2020-06-24T10:37:42.062Z</time>
      </trkpt>
      <trkpt lat="48.66106" lon="-2.29381">
        <ele>35</ele>
        <time>2020-06-24T10:37:43.062Z</time>
      </trkpt>
      <trkpt lat="48.66105" lon="-2.29383">
        <ele>34</ele>
        <time>2020-06-24T10:37:44.062Z</time>
      </trkpt>
      <trkpt lat="48.66104" lon="-2.29384">
        <ele>34</ele>
        <time>2020-06-24T10:37:45.062Z</time>
      </trkpt>
      <trkpt lat="48.66104" lon="-2.29385">
        <ele>34</ele>
        <time>2020-06-24T10:37:46.062Z</time>
      </trkpt>
      <trkpt lat="48.66103" lon="-2.29386">
        <ele>34</ele>
        <time>2020-06-24T10:37:47.062Z</time>
      </trkpt>
      <trkpt lat="48.66103" lon="-2.29387">
        <ele>34</ele>
        <time>2020-06-24T10:37:48.062Z</time>
      </trkpt>
      <trkpt lat="48.66102" lon="-2.29388">
        <ele>33</ele>
        <time>2020-06-24T10:37:49.062Z</time>
      </trkpt>
      <trkpt lat="48.66102" lon="-2.29389">
        <ele>34</ele>
        <time>2020-06-24T10:37:50.062Z</time>
      </trkpt>
      <trkpt lat="48.66101" lon="-2.2939">
        <ele>34</ele>
        <time>2020-06-24T10:37:51.062Z</time>
      </trkpt>
      <trkpt lat="48.661" lon="-2.29391">
        <ele>35</ele>
        <time>2020-06-24T10:37:52.062Z</time>
      </trkpt>
      <trkpt lat="48.66099" lon="-2.29393">
        <ele>35</ele>
        <time>2020-06-24T10:37:53.062Z</time>
      </trkpt>
      <trkpt lat="48.66098" lon="-2.29394">
        <ele>35</ele>
        <time>2020-06-24T10:37:54.062Z</time>
      </trkpt>
      <trkpt lat="48.66097" lon="-2.29395">
        <ele>35</ele>
        <time>2020-06-24T10:37:55.062Z</time>
      </trkpt>
      <trkpt lat="48.66096" lon="-2.29397">
        <ele>36</ele>
        <time>2020-06-24T10:37:56.062Z</time>
      </trkpt>
      <trkpt lat="48.66096" lon="-2.29398">
        <ele>35</ele>
        <time>2020-06-24T10:37:57.062Z</time>
      </trkpt>
      <trkpt lat="48.66095" lon="-2.29399">
        <ele>36</ele>
        <time>2020-06-24T10:37:58.062Z</time>
      </trkpt>
      <trkpt lat="48.66095" lon="-2.294">
        <ele>36</ele>
        <time>2020-06-24T10:37:59.062Z</time>
      </trkpt>
      <trkpt lat="48.66094" lon="-2.29401">
        <ele>36</ele>
        <time>2020-06-24T10:38:00.062Z</time>
      </trkpt>
      <trkpt lat="48.66093" lon="-2.29402">
        <ele>36</ele>
        <time>2020-06-24T10:38:01.062Z</time>
      </trkpt>
      <trkpt lat="48.66093" lon="-2.29403">
        <ele>36</ele>
        <time>2020-06-24T10:38:02.062Z</time>
      </trkpt>
      <trkpt lat="48.66092" lon="-2.29404">
        <ele>35</ele>
        <time>2020-06-24T10:38:03.062Z</time>
      </trkpt>
      <trkpt lat="48.66091" lon="-2.29405">
        <ele>35</ele>
        <time>2020-06-24T10:38:04.062Z</time>
      </trkpt>
      <trkpt lat="48.6609" lon="-2.29406">
        <ele>35</ele>
        <time>2020-06-24T10:38:05.062Z</time>
      </trkpt>
      <trkpt lat="48.66089" lon="-2.29407">
        <ele>35</ele>
        <time>2020-06-24T10:38:06.062Z</time>
      </trkpt>
      <trkpt lat="48.66088" lon="-2.29408">
        <ele>34</ele>
        <time>2020-06-24T10:38:07.062Z</time>
      </trkpt>
      <trkpt lat="48.66087" lon="-2.29409">
        <ele>35</ele>
        <time>2020-06-24T10:38:08.062Z</time>
      </trkpt>
      <trkpt lat="48.66086" lon="-2.2941">
        <ele>35</ele>
        <time>2020-06-24T10:38:09.062Z</time>
      </trkpt>
      <trkpt lat="48.66085" lon="-2.29411">
        <ele>35</ele>
        <time>2020-06-24T10:38:10.062Z</time>
      </trkpt>
      <trkpt lat="48.66084" lon="-2.29412">
        <ele>35</ele>
        <time>2020-06-24T10:38:11.062Z</time>
      </trkpt>
      <trkpt lat="48.66084" lon="-2.29412">
        <ele>35</ele>
        <time>2020-06-24T10:38:12.062Z</time>
      </trkpt>
      <trkpt lat="48.66083" lon="-2.29413">
        <ele>35</ele>
        <time>2020-06-24T10:38:13.062Z</time>
      </trkpt>
      <trkpt lat="48.66082" lon="-2.29414">
        <ele>35</ele>
        <time>2020-06-24T10:38:14.062Z</time>
      </trkpt>
      <trkpt lat="48.66081" lon="-2.29416">
        <ele>36</ele>
        <time>2020-06-24T10:38:15.062Z</time>
      </trkpt>
      <trkpt lat="48.6608" lon="-2.29417">
        <ele>36</ele>
        <time>2020-06-24T10:38:16.062Z</time>
      </trkpt>
      <trkpt lat="48.66079" lon="-2.29418">
        <ele>36</ele>
        <time>2020-06-24T10:38:17.062Z</time>
      </trkpt>
      <trkpt lat="48.66078" lon="-2.29419">
        <ele>37</ele>
        <time>2020-06-24T10:38:18.062Z</time>
      </trkpt>
      <trkpt lat="48.66077" lon="-2.2942">
        <ele>37</ele>
        <time>2020-06-24T10:38:19.062Z</time>
      </trkpt>
      <trkpt lat="48.66075" lon="-2.29422">
        <ele>37</ele>
        <time>2020-06-24T10:38:20.062Z</time>
      </trkpt>
      <trkpt lat="48.66074" lon="-2.29423">
        <ele>36</ele>
        <time>2020-06-24T10:38:21.062Z</time>
      </trkpt>
      <trkpt lat="48.66073" lon="-2.29424">
        <ele>36</ele>
        <time>2020-06-24T10:38:22.062Z</time>
      </trkpt>
      <trkpt lat="48.66072" lon="-2.29425">
        <ele>36</ele>
        <time>2020-06-24T10:38:23.062Z</time>
      </trkpt>
      <trkpt lat="48.6607" lon="-2.29426">
        <ele>36</ele>
        <time>2020-06-24T10:38:24.062Z</time>
      </trkpt>
      <trkpt lat="48.66069" lon="-2.29427">
        <ele>36</ele>
        <time>2020-06-24T10:38:25.062Z</time>
      </trkpt>
      <trkpt lat="48.66068" lon="-2.29429">
        <ele>37</ele>
        <time>2020-06-24T10:38:26.062Z</time>
      </trkpt>
      <trkpt lat="48.66066" lon="-2.2943">
        <ele>37</ele>
        <time>2020-06-24T10:38:27.062Z</time>
      </trkpt>
      <trkpt lat="48.66066" lon="-2.29431">
        <ele>37</ele>
        <time>2020-06-24T10:38:28.062Z</time>
      </trkpt>
      <trkpt lat="48.66065" lon="-2.29432">
        <ele>37</ele>
        <time>2020-06-24T10:38:29.062Z</time>
      </trkpt>
      <trkpt lat="48.66065" lon="-2.29433">
        <ele>37</ele>
        <time>2020-06-24T10:38:30.062Z</time>
      </trkpt>
      <trkpt lat="48.66064" lon="-2.29434">
        <ele>38</ele>
        <time>2020-06-24T10:38:31.062Z</time>
      </trkpt>
      <trkpt lat="48.66063" lon="-2.29435">
        <ele>38</ele>
        <time>2020-06-24T10:38:32.062Z</time>
      </trkpt>
      <trkpt lat="48.66062" lon="-2.29436">
        <ele>39</ele>
        <time>2020-06-24T10:38:33.062Z</time>
      </trkpt>
      <trkpt lat="48.6606" lon="-2.29437">
        <ele>39</ele>
        <time>2020-06-24T10:38:34.062Z</time>
      </trkpt>
      <trkpt lat="48.66059" lon="-2.29438">
        <ele>39</ele>
        <time>2020-06-24T10:38:35.062Z</time>
      </trkpt>
      <trkpt lat="48.66058" lon="-2.2944">
        <ele>39</ele>
        <time>2020-06-24T10:38:36.062Z</time>
      </trkpt>
      <trkpt lat="48.66057" lon="-2.29441">
        <ele>39</ele>
        <time>2020-06-24T10:38:37.062Z</time>
      </trkpt>
      <trkpt lat="48.66056" lon="-2.29442">
        <ele>39</ele>
        <time>2020-06-24T10:38:38.062Z</time>
      </trkpt>
      <trkpt lat="48.66056" lon="-2.29443">
        <ele>39</ele>
        <time>2020-06-24T10:38:39.062Z</time>
      </trkpt>
      <trkpt lat="48.66055" lon="-2.29444">
        <ele>40</ele>
        <time>2020-06-24T10:38:40.062Z</time>
      </trkpt>
      <trkpt lat="48.66054" lon="-2.29445">
        <ele>40</ele>
        <time>2020-06-24T10:38:41.062Z</time>
      </trkpt>
      <trkpt lat="48.66053" lon="-2.29446">
        <ele>40</ele>
        <time>2020-06-24T10:38:42.062Z</time>
      </trkpt>
      <trkpt lat="48.66052" lon="-2.29448">
        <ele>40</ele>
        <time>2020-06-24T10:38:43.062Z</time>
      </trkpt>
      <trkpt lat="48.66051" lon="-2.29449">
        <ele>41</ele>
        <time>2020-06-24T10:38:44.062Z</time>
      </trkpt>
      <trkpt lat="48.66051" lon="-2.2945">
        <ele>41</ele>
        <time>2020-06-24T10:38:45.062Z</time>
      </trkpt>
      <trkpt lat="48.6605" lon="-2.29452">
        <ele>41</ele>
        <time>2020-06-24T10:38:46.062Z</time>
      </trkpt>
      <trkpt lat="48.6605" lon="-2.29453">
        <ele>41</ele>
        <time>2020-06-24T10:38:47.062Z</time>
      </trkpt>
      <trkpt lat="48.66049" lon="-2.29454">
        <ele>41</ele>
        <time>2020-06-24T10:38:48.062Z</time>
      </trkpt>
      <trkpt lat="48.66049" lon="-2.29456">
        <ele>41</ele>
        <time>2020-06-24T10:38:49.062Z</time>
      </trkpt>
      <trkpt lat="48.66049" lon="-2.29457">
        <ele>41</ele>
        <time>2020-06-24T10:38:50.062Z</time>
      </trkpt>
      <trkpt lat="48.66049" lon="-2.29459">
        <ele>42</ele>
        <time>2020-06-24T10:38:51.062Z</time>
      </trkpt>
      <trkpt lat="48.66048" lon="-2.29461">
        <ele>43</ele>
        <time>2020-06-24T10:38:52.062Z</time>
      </trkpt>
      <trkpt lat="48.66047" lon="-2.29462">
        <ele>43</ele>
        <time>2020-06-24T10:38:53.062Z</time>
      </trkpt>
      <trkpt lat="48.66047" lon="-2.29463">
        <ele>44</ele>
        <time>2020-06-24T10:38:54.062Z</time>
      </trkpt>
      <trkpt lat="48.66046" lon="-2.29464">
        <ele>44</ele>
        <time>2020-06-24T10:38:55.062Z</time>
      </trkpt>
      <trkpt lat="48.66046" lon="-2.29466">
        <ele>44</ele>
        <time>2020-06-24T10:38:56.062Z</time>
      </trkpt>
      <trkpt lat="48.66045" lon="-2.29467">
        <ele>45</ele>
        <time>2020-06-24T10:38:57.062Z</time>
      </trkpt>
      <trkpt lat="48.66045" lon="-2.29469">
        <ele>45</ele>
        <time>2020-06-24T10:38:58.062Z</time>
      </trkpt>
      <trkpt lat="48.66044" lon="-2.2947">
        <ele>45</ele>
        <time>2020-06-24T10:38:59.062Z</time>
      </trkpt>
      <trkpt lat="48.66043" lon="-2.29472">
        <ele>45</ele>
        <time>2020-06-24T10:39:00.062Z</time>
      </trkpt>
      <trkpt lat="48.66043" lon="-2.29473">
        <ele>46</ele>
        <time>2020-06-24T10:39:01.062Z</time>
      </trkpt>
      <trkpt lat="48.66043" lon="-2.29475">
        <ele>48</ele>
        <time>2020-06-24T10:39:02.062Z</time>
      </trkpt>
      <trkpt lat="48.66042" lon="-2.29476">
        <ele>48</ele>
        <time>2020-06-24T10:39:03.062Z</time>
      </trkpt>
      <trkpt lat="48.66041" lon="-2.29477">
        <ele>48</ele>
        <time>2020-06-24T10:39:04.062Z</time>
      </trkpt>
      <trkpt lat="48.6604" lon="-2.29478">
        <ele>48</ele>
        <time>2020-06-24T10:39:05.062Z</time>
      </trkpt>
      <trkpt lat="48.66038" lon="-2.29479">
        <ele>49</ele>
        <time>2020-06-24T10:39:06.062Z</time>
      </trkpt>
      <trkpt lat="48.66037" lon="-2.2948">
        <ele>49</ele>
        <time>2020-06-24T10:39:07.062Z</time>
      </trkpt>
      <trkpt lat="48.66036" lon="-2.29481">
        <ele>49</ele>
        <time>2020-06-24T10:39:08.062Z</time>
      </trkpt>
      <trkpt lat="48.66035" lon="-2.29482">
        <ele>49</ele>
        <time>2020-06-24T10:39:09.062Z</time>
      </trkpt>
      <trkpt lat="48.66034" lon="-2.29484">
        <ele>48</ele>
        <time>2020-06-24T10:39:10.062Z</time>
      </trkpt>
      <trkpt lat="48.66033" lon="-2.29485">
        <ele>49</ele>
        <time>2020-06-24T10:39:11.062Z</time>
      </trkpt>
      <trkpt lat="48.66033" lon="-2.29486">
        <ele>49</ele>
        <time>2020-06-24T10:39:12.062Z</time>
      </trkpt>
      <trkpt lat="48.66032" lon="-2.29488">
        <ele>49</ele>
        <time>2020-06-24T10:39:13.062Z</time>
      </trkpt>
      <trkpt lat="48.66031" lon="-2.29489">
        <ele>49</ele>
        <time>2020-06-24T10:39:14.062Z</time>
      </trkpt>
      <trkpt lat="48.6603" lon="-2.2949">
        <ele>49</ele>
        <time>2020-06-24T10:39:15.062Z</time>
      </trkpt>
      <trkpt lat="48.6603" lon="-2.29491">
        <ele>49</ele>
        <time>2020-06-24T10:39:16.062Z</time>
      </trkpt>
      <trkpt lat="48.66029" lon="-2.29492">
        <ele>48</ele>
        <time>2020-06-24T10:39:17.062Z</time>
      </trkpt>
      <trkpt lat="48.66028" lon="-2.29494">
        <ele>48</ele>
        <time>2020-06-24T10:39:18.062Z</time>
      </trkpt>
      <trkpt lat="48.66027" lon="-2.29495">
        <ele>48</ele>
        <time>2020-06-24T10:39:19.062Z</time>
      </trkpt>
      <trkpt lat="48.66026" lon="-2.29497">
        <ele>48</ele>
        <time>2020-06-24T10:39:20.062Z</time>
      </trkpt>
      <trkpt lat="48.66026" lon="-2.29498">
        <ele>48</ele>
        <time>2020-06-24T10:39:21.062Z</time>
      </trkpt>
      <trkpt lat="48.66025" lon="-2.29499">
        <ele>49</ele>
        <time>2020-06-24T10:39:22.062Z</time>
      </trkpt>
      <trkpt lat="48.66024" lon="-2.29501">
        <ele>48</ele>
        <time>2020-06-24T10:39:23.062Z</time>
      </trkpt>
      <trkpt lat="48.66024" lon="-2.29502">
        <ele>48</ele>
        <time>2020-06-24T10:39:24.062Z</time>
      </trkpt>
      <trkpt lat="48.66023" lon="-2.29503">
        <ele>47</ele>
        <time>2020-06-24T10:39:25.062Z</time>
      </trkpt>
      <trkpt lat="48.66023" lon="-2.29505">
        <ele>46</ele>
        <time>2020-06-24T10:39:26.062Z</time>
      </trkpt>
      <trkpt lat="48.66022" lon="-2.29506">
        <ele>46</ele>
        <time>2020-06-24T10:39:27.062Z</time>
      </trkpt>
      <trkpt lat="48.66021" lon="-2.29507">
        <ele>46</ele>
        <time>2020-06-24T10:39:28.062Z</time>
      </trkpt>
      <trkpt lat="48.6602" lon="-2.29508">
        <ele>45</ele>
        <time>2020-06-24T10:39:29.062Z</time>
      </trkpt>
      <trkpt lat="48.66019" lon="-2.29509">
        <ele>46</ele>
        <time>2020-06-24T10:39:30.062Z</time>
      </trkpt>
      <trkpt lat="48.66018" lon="-2.2951">
        <ele>46</ele>
        <time>2020-06-24T10:39:31.062Z</time>
      </trkpt>
      <trkpt lat="48.66016" lon="-2.29511">
        <ele>46</ele>
        <time>2020-06-24T10:39:32.062Z</time>
      </trkpt>
      <trkpt lat="48.66015" lon="-2.29512">
        <ele>46</ele>
        <time>2020-06-24T10:39:33.062Z</time>
      </trkpt>
      <trkpt lat="48.66014" lon="-2.29513">
        <ele>46</ele>
        <time>2020-06-24T10:39:34.062Z</time>
      </trkpt>
      <trkpt lat="48.66013" lon="-2.29514">
        <ele>45</ele>
        <time>2020-06-24T10:39:35.062Z</time>
      </trkpt>
      <trkpt lat="48.66012" lon="-2.29514">
        <ele>45</ele>
        <time>2020-06-24T10:39:36.062Z</time>
      </trkpt>
      <trkpt lat="48.66011" lon="-2.29514">
        <ele>45</ele>
        <time>2020-06-24T10:39:37.062Z</time>
      </trkpt>
      <trkpt lat="48.66009" lon="-2.29514">
        <ele>45</ele>
        <time>2020-06-24T10:39:38.062Z</time>
      </trkpt>
      <trkpt lat="48.66008" lon="-2.29514">
        <ele>45</ele>
        <time>2020-06-24T10:39:39.062Z</time>
      </trkpt>
      <trkpt lat="48.66006" lon="-2.29513">
        <ele>44</ele>
        <time>2020-06-24T10:39:40.062Z</time>
      </trkpt>
      <trkpt lat="48.66005" lon="-2.29513">
        <ele>45</ele>
        <time>2020-06-24T10:39:41.062Z</time>
      </trkpt>
      <trkpt lat="48.66003" lon="-2.29513">
        <ele>45</ele>
        <time>2020-06-24T10:39:42.062Z</time>
      </trkpt>
      <trkpt lat="48.66002" lon="-2.29513">
        <ele>45</ele>
        <time>2020-06-24T10:39:43.062Z</time>
      </trkpt>
      <trkpt lat="48.66" lon="-2.29513">
        <ele>45</ele>
        <time>2020-06-24T10:39:44.062Z</time>
      </trkpt>
      <trkpt lat="48.65999" lon="-2.29513">
        <ele>45</ele>
        <time>2020-06-24T10:39:45.062Z</time>
      </trkpt>
      <trkpt lat="48.65997" lon="-2.29513">
        <ele>45</ele>
        <time>2020-06-24T10:39:46.062Z</time>
      </trkpt>
      <trkpt lat="48.65996" lon="-2.29513">
        <ele>45</ele>
        <time>2020-06-24T10:39:47.062Z</time>
      </trkpt>
      <trkpt lat="48.65995" lon="-2.29513">
        <ele>45</ele>
        <time>2020-06-24T10:39:48.062Z</time>
      </trkpt>
      <trkpt lat="48.65994" lon="-2.29513">
        <ele>46</ele>
        <time>2020-06-24T10:39:49.062Z</time>
      </trkpt>
      <trkpt lat="48.65993" lon="-2.29513">
        <ele>47</ele>
        <time>2020-06-24T10:39:50.062Z</time>
      </trkpt>
      <trkpt lat="48.65991" lon="-2.29513">
        <ele>48</ele>
        <time>2020-06-24T10:39:51.062Z</time>
      </trkpt>
      <trkpt lat="48.65991" lon="-2.29513">
        <ele>48</ele>
        <time>2020-06-24T10:39:52.062Z</time>
      </trkpt>
      <trkpt lat="48.6599" lon="-2.29513">
        <ele>49</ele>
        <time>2020-06-24T10:39:53.062Z</time>
      </trkpt>
      <trkpt lat="48.65989" lon="-2.29513">
        <ele>50</ele>
        <time>2020-06-24T10:39:54.062Z</time>
      </trkpt>
      <trkpt lat="48.65988" lon="-2.29513">
        <ele>50</ele>
        <time>2020-06-24T10:39:55.062Z</time>
      </trkpt>
      <trkpt lat="48.65986" lon="-2.29514">
        <ele>49</ele>
        <time>2020-06-24T10:39:56.062Z</time>
      </trkpt>
      <trkpt lat="48.65985" lon="-2.29514">
        <ele>47</ele>
        <time>2020-06-24T10:39:57.062Z</time>
      </trkpt>
      <trkpt lat="48.65984" lon="-2.29514">
        <ele>47</ele>
        <time>2020-06-24T10:39:58.062Z</time>
      </trkpt>
      <trkpt lat="48.65982" lon="-2.29513">
        <ele>47</ele>
        <time>2020-06-24T10:39:59.062Z</time>
      </trkpt>
      <trkpt lat="48.65981" lon="-2.29512">
        <ele>46</ele>
        <time>2020-06-24T10:40:00.062Z</time>
      </trkpt>
      <trkpt lat="48.6598" lon="-2.29511">
        <ele>46</ele>
        <time>2020-06-24T10:40:01.062Z</time>
      </trkpt>
      <trkpt lat="48.65979" lon="-2.2951">
        <ele>46</ele>
        <time>2020-06-24T10:40:02.062Z</time>
      </trkpt>
      <trkpt lat="48.65978" lon="-2.29509">
        <ele>45</ele>
        <time>2020-06-24T10:40:03.062Z</time>
      </trkpt>
      <trkpt lat="48.65977" lon="-2.29509">
        <ele>45</ele>
        <time>2020-06-24T10:40:04.062Z</time>
      </trkpt>
      <trkpt lat="48.65975" lon="-2.29508">
        <ele>44</ele>
        <time>2020-06-24T10:40:05.062Z</time>
      </trkpt>
      <trkpt lat="48.65974" lon="-2.29507">
        <ele>44</ele>
        <time>2020-06-24T10:40:06.062Z</time>
      </trkpt>
      <trkpt lat="48.65972" lon="-2.29506">
        <ele>43</ele>
        <time>2020-06-24T10:40:07.062Z</time>
      </trkpt>
      <trkpt lat="48.6597" lon="-2.29505">
        <ele>43</ele>
        <time>2020-06-24T10:40:08.062Z</time>
      </trkpt>
      <trkpt lat="48.65969" lon="-2.29506">
        <ele>42</ele>
        <time>2020-06-24T10:40:09.062Z</time>
      </trkpt>
      <trkpt lat="48.65968" lon="-2.29506">
        <ele>43</ele>
        <time>2020-06-24T10:40:10.062Z</time>
      </trkpt>
      <trkpt lat="48.65968" lon="-2.29507">
        <ele>43</ele>
        <time>2020-06-24T10:40:11.062Z</time>
      </trkpt>
      <trkpt lat="48.65967" lon="-2.29507">
        <ele>43</ele>
        <time>2020-06-24T10:40:12.062Z</time>
      </trkpt>
      <trkpt lat="48.65966" lon="-2.29507">
        <ele>42</ele>
        <time>2020-06-24T10:40:13.062Z</time>
      </trkpt>
      <trkpt lat="48.65964" lon="-2.29507">
        <ele>42</ele>
        <time>2020-06-24T10:40:14.062Z</time>
      </trkpt>
      <trkpt lat="48.65963" lon="-2.29507">
        <ele>42</ele>
        <time>2020-06-24T10:40:15.062Z</time>
      </trkpt>
      <trkpt lat="48.65962" lon="-2.29507">
        <ele>43</ele>
        <time>2020-06-24T10:40:16.062Z</time>
      </trkpt>
      <trkpt lat="48.65961" lon="-2.29507">
        <ele>43</ele>
        <time>2020-06-24T10:40:17.062Z</time>
      </trkpt>
      <trkpt lat="48.6596" lon="-2.29506">
        <ele>43</ele>
        <time>2020-06-24T10:40:18.062Z</time>
      </trkpt>
      <trkpt lat="48.65959" lon="-2.29506">
        <ele>43</ele>
        <time>2020-06-24T10:40:19.062Z</time>
      </trkpt>
      <trkpt lat="48.65958" lon="-2.29506">
        <ele>44</ele>
        <time>2020-06-24T10:40:20.062Z</time>
      </trkpt>
      <trkpt lat="48.65956" lon="-2.29505">
        <ele>45</ele>
        <time>2020-06-24T10:40:21.062Z</time>
      </trkpt>
      <trkpt lat="48.65955" lon="-2.29505">
        <ele>45</ele>
        <time>2020-06-24T10:40:22.062Z</time>
      </trkpt>
      <trkpt lat="48.65954" lon="-2.29505">
        <ele>45</ele>
        <time>2020-06-24T10:40:23.062Z</time>
      </trkpt>
      <trkpt lat="48.65953" lon="-2.29505">
        <ele>46</ele>
        <time>2020-06-24T10:40:24.062Z</time>
      </trkpt>
      <trkpt lat="48.65951" lon="-2.29505">
        <ele>46</ele>
        <time>2020-06-24T10:40:25.062Z</time>
      </trkpt>
      <trkpt lat="48.6595" lon="-2.29505">
        <ele>46</ele>
        <time>2020-06-24T10:40:26.062Z</time>
      </trkpt>
      <trkpt lat="48.65949" lon="-2.29505">
        <ele>46</ele>
        <time>2020-06-24T10:40:27.062Z</time>
      </trkpt>
      <trkpt lat="48.65948" lon="-2.29504">
        <ele>47</ele>
        <time>2020-06-24T10:40:28.062Z</time>
      </trkpt>
      <trkpt lat="48.65947" lon="-2.29504">
        <ele>47</ele>
        <time>2020-06-24T10:40:29.062Z</time>
      </trkpt>
      <trkpt lat="48.65946" lon="-2.29504">
        <ele>47</ele>
        <time>2020-06-24T10:40:30.062Z</time>
      </trkpt>
      <trkpt lat="48.65945" lon="-2.29503">
        <ele>47</ele>
        <time>2020-06-24T10:40:31.062Z</time>
      </trkpt>
      <trkpt lat="48.65944" lon="-2.29503">
        <ele>47</ele>
        <time>2020-06-24T10:40:32.062Z</time>
      </trkpt>
      <trkpt lat="48.65943" lon="-2.29503">
        <ele>47</ele>
        <time>2020-06-24T10:40:33.062Z</time>
      </trkpt>
      <trkpt lat="48.65943" lon="-2.29503">
        <ele>47</ele>
        <time>2020-06-24T10:40:34.062Z</time>
      </trkpt>
      <trkpt lat="48.65942" lon="-2.29503">
        <ele>48</ele>
        <time>2020-06-24T10:40:35.062Z</time>
      </trkpt>
      <trkpt lat="48.65941" lon="-2.29503">
        <ele>48</ele>
        <time>2020-06-24T10:40:36.062Z</time>
      </trkpt>
      <trkpt lat="48.6594" lon="-2.29504">
        <ele>48</ele>
        <time>2020-06-24T10:40:37.062Z</time>
      </trkpt>
      <trkpt lat="48.6594" lon="-2.29505">
        <ele>47</ele>
        <time>2020-06-24T10:40:38.062Z</time>
      </trkpt>
      <trkpt lat="48.6594" lon="-2.29506">
        <ele>48</ele>
        <time>2020-06-24T10:40:39.062Z</time>
      </trkpt>
      <trkpt lat="48.6594" lon="-2.29507">
        <ele>47</ele>
        <time>2020-06-24T10:40:40.062Z</time>
      </trkpt>
      <trkpt lat="48.65939" lon="-2.29508">
        <ele>48</ele>
        <time>2020-06-24T10:40:41.062Z</time>
      </trkpt>
      <trkpt lat="48.65939" lon="-2.29509">
        <ele>48</ele>
        <time>2020-06-24T10:40:42.062Z</time>
      </trkpt>
      <trkpt lat="48.65939" lon="-2.29509">
        <ele>48</ele>
        <time>2020-06-24T10:40:43.062Z</time>
      </trkpt>
      <trkpt lat="48.65938" lon="-2.29509">
        <ele>48</ele>
        <time>2020-06-24T10:40:44.062Z</time>
      </trkpt>
      <trkpt lat="48.65938" lon="-2.29508">
        <ele>48</ele>
        <time>2020-06-24T10:40:45.062Z</time>
      </trkpt>
      <trkpt lat="48.65938" lon="-2.29507">
        <ele>48</ele>
        <time>2020-06-24T10:40:46.062Z</time>
      </trkpt>
      <trkpt lat="48.65938" lon="-2.29506">
        <ele>48</ele>
        <time>2020-06-24T10:40:47.062Z</time>
      </trkpt>
      <trkpt lat="48.65937" lon="-2.29504">
        <ele>48</ele>
        <time>2020-06-24T10:40:48.062Z</time>
      </trkpt>
      <trkpt lat="48.65937" lon="-2.29503">
        <ele>49</ele>
        <time>2020-06-24T10:40:49.062Z</time>
      </trkpt>
      <trkpt lat="48.65936" lon="-2.29502">
        <ele>48</ele>
        <time>2020-06-24T10:40:50.062Z</time>
      </trkpt>
      <trkpt lat="48.65934" lon="-2.29502">
        <ele>48</ele>
        <time>2020-06-24T10:40:51.062Z</time>
      </trkpt>
      <trkpt lat="48.65933" lon="-2.29501">
        <ele>48</ele>
        <time>2020-06-24T10:40:52.062Z</time>
      </trkpt>
      <trkpt lat="48.65932" lon="-2.295">
        <ele>48</ele>
        <time>2020-06-24T10:40:53.062Z</time>
      </trkpt>
      <trkpt lat="48.65931" lon="-2.29499">
        <ele>48</ele>
        <time>2020-06-24T10:40:54.062Z</time>
      </trkpt>
      <trkpt lat="48.6593" lon="-2.29499">
        <ele>48</ele>
        <time>2020-06-24T10:40:55.062Z</time>
      </trkpt>
      <trkpt lat="48.65929" lon="-2.29498">
        <ele>48</ele>
        <time>2020-06-24T10:40:56.062Z</time>
      </trkpt>
      <trkpt lat="48.65927" lon="-2.29498">
        <ele>48</ele>
        <time>2020-06-24T10:40:57.062Z</time>
      </trkpt>
      <trkpt lat="48.65926" lon="-2.29497">
        <ele>48</ele>
        <time>2020-06-24T10:40:58.062Z</time>
      </trkpt>
      <trkpt lat="48.65925" lon="-2.29497">
        <ele>48</ele>
        <time>2020-06-24T10:40:59.062Z</time>
      </trkpt>
      <trkpt lat="48.65924" lon="-2.29496">
        <ele>48</ele>
        <time>2020-06-24T10:41:00.062Z</time>
      </trkpt>
      <trkpt lat="48.65923" lon="-2.29496">
        <ele>48</ele>
        <time>2020-06-24T10:41:01.062Z</time>
      </trkpt>
      <trkpt lat="48.65922" lon="-2.29495">
        <ele>47</ele>
        <time>2020-06-24T10:41:02.062Z</time>
      </trkpt>
      <trkpt lat="48.65921" lon="-2.29495">
        <ele>47</ele>
        <time>2020-06-24T10:41:03.062Z</time>
      </trkpt>
      <trkpt lat="48.6592" lon="-2.29495">
        <ele>48</ele>
        <time>2020-06-24T10:41:04.062Z</time>
      </trkpt>
      <trkpt lat="48.6592" lon="-2.29495">
        <ele>48</ele>
        <time>2020-06-24T10:41:05.062Z</time>
      </trkpt>
      <trkpt lat="48.65919" lon="-2.29495">
        <ele>48</ele>
        <time>2020-06-24T10:41:06.062Z</time>
      </trkpt>
      <trkpt lat="48.65919" lon="-2.29495">
        <ele>49</ele>
        <time>2020-06-24T10:41:07.062Z</time>
      </trkpt>
      <trkpt lat="48.65918" lon="-2.29496">
        <ele>49</ele>
        <time>2020-06-24T10:41:08.062Z</time>
      </trkpt>
      <trkpt lat="48.65917" lon="-2.29496">
        <ele>49</ele>
        <time>2020-06-24T10:41:09.062Z</time>
      </trkpt>
      <trkpt lat="48.65917" lon="-2.29497">
        <ele>49</ele>
        <time>2020-06-24T10:41:10.062Z</time>
      </trkpt>
      <trkpt lat="48.65917" lon="-2.29497">
        <ele>49</ele>
        <time>2020-06-24T10:41:11.062Z</time>
      </trkpt>
      <trkpt lat="48.65917" lon="-2.29497">
        <ele>49</ele>
        <time>2020-06-24T10:41:12.062Z</time>
      </trkpt>
      <trkpt lat="48.65917" lon="-2.29497">
        <ele>49</ele>
        <time>2020-06-24T10:41:13.062Z</time>
      </trkpt>
      <trkpt lat="48.65917" lon="-2.29496">
        <ele>49</ele>
        <time>2020-06-24T10:41:14.062Z</time>
      </trkpt>
      <trkpt lat="48.65917" lon="-2.29496">
        <ele>49</ele>
        <time>2020-06-24T10:41:15.062Z</time>
      </trkpt>
      <trkpt lat="48.65917" lon="-2.29495">
        <ele>50</ele>
        <time>2020-06-24T10:41:16.062Z</time>
      </trkpt>
      <trkpt lat="48.65916" lon="-2.29495">
        <ele>50</ele>
        <time>2020-06-24T10:41:17.062Z</time>
      </trkpt>
      <trkpt lat="48.65916" lon="-2.29495">
        <ele>50</ele>
        <time>2020-06-24T10:41:18.062Z</time>
      </trkpt>
      <trkpt lat="48.65916" lon="-2.29494">
        <ele>49</ele>
        <time>2020-06-24T10:41:19.062Z</time>
      </trkpt>
      <trkpt lat="48.65916" lon="-2.29494">
        <ele>49</ele>
        <time>2020-06-24T10:41:20.062Z</time>
      </trkpt>
      <trkpt lat="48.65915" lon="-2.29493">
        <ele>49</ele>
        <time>2020-06-24T10:41:21.062Z</time>
      </trkpt>
      <trkpt lat="48.65915" lon="-2.29492">
        <ele>48</ele>
        <time>2020-06-24T10:41:22.062Z</time>
      </trkpt>
      <trkpt lat="48.65914" lon="-2.29492">
        <ele>48</ele>
        <time>2020-06-24T10:41:23.062Z</time>
      </trkpt>
      <trkpt lat="48.65913" lon="-2.29491">
        <ele>48</ele>
        <time>2020-06-24T10:41:24.062Z</time>
      </trkpt>
      <trkpt lat="48.65913" lon="-2.2949">
        <ele>49</ele>
        <time>2020-06-24T10:41:25.062Z</time>
      </trkpt>
      <trkpt lat="48.65912" lon="-2.2949">
        <ele>49</ele>
        <time>2020-06-24T10:41:26.062Z</time>
      </trkpt>
      <trkpt lat="48.65911" lon="-2.29489">
        <ele>48</ele>
        <time>2020-06-24T10:41:27.062Z</time>
      </trkpt>
      <trkpt lat="48.6591" lon="-2.29488">
        <ele>48</ele>
        <time>2020-06-24T10:41:28.062Z</time>
      </trkpt>
      <trkpt lat="48.65909" lon="-2.29488">
        <ele>48</ele>
        <time>2020-06-24T10:41:29.062Z</time>
      </trkpt>
      <trkpt lat="48.65908" lon="-2.29488">
        <ele>48</ele>
        <time>2020-06-24T10:41:30.062Z</time>
      </trkpt>
      <trkpt lat="48.65907" lon="-2.29487">
        <ele>49</ele>
        <time>2020-06-24T10:41:31.062Z</time>
      </trkpt>
      <trkpt lat="48.65907" lon="-2.29487">
        <ele>49</ele>
        <time>2020-06-24T10:41:32.062Z</time>
      </trkpt>
      <trkpt lat="48.65906" lon="-2.29486">
        <ele>49</ele>
        <time>2020-06-24T10:41:33.062Z</time>
      </trkpt>
      <trkpt lat="48.65905" lon="-2.29485">
        <ele>49</ele>
        <time>2020-06-24T10:41:34.062Z</time>
      </trkpt>
      <trkpt lat="48.65904" lon="-2.29485">
        <ele>49</ele>
        <time>2020-06-24T10:41:35.062Z</time>
      </trkpt>
      <trkpt lat="48.65904" lon="-2.29485">
        <ele>49</ele>
        <time>2020-06-24T10:41:36.062Z</time>
      </trkpt>
      <trkpt lat="48.65903" lon="-2.29485">
        <ele>49</ele>
        <time>2020-06-24T10:41:37.062Z</time>
      </trkpt>
      <trkpt lat="48.65902" lon="-2.29485">
        <ele>49</ele>
        <time>2020-06-24T10:41:38.062Z</time>
      </trkpt>
      <trkpt lat="48.65901" lon="-2.29484">
        <ele>49</ele>
        <time>2020-06-24T10:41:39.062Z</time>
      </trkpt>
      <trkpt lat="48.659" lon="-2.29483">
        <ele>49</ele>
        <time>2020-06-24T10:41:40.062Z</time>
      </trkpt>
      <trkpt lat="48.65899" lon="-2.29482">
        <ele>49</ele>
        <time>2020-06-24T10:41:41.062Z</time>
      </trkpt>
      <trkpt lat="48.65899" lon="-2.29481">
        <ele>48</ele>
        <time>2020-06-24T10:41:42.062Z</time>
      </trkpt>
      <trkpt lat="48.65898" lon="-2.29481">
        <ele>48</ele>
        <time>2020-06-24T10:41:43.062Z</time>
      </trkpt>
      <trkpt lat="48.65897" lon="-2.29479">
        <ele>47</ele>
        <time>2020-06-24T10:41:44.062Z</time>
      </trkpt>
      <trkpt lat="48.65897" lon="-2.29478">
        <ele>46</ele>
        <time>2020-06-24T10:41:45.062Z</time>
      </trkpt>
      <trkpt lat="48.65896" lon="-2.29477">
        <ele>45</ele>
        <time>2020-06-24T10:41:46.062Z</time>
      </trkpt>
      <trkpt lat="48.65895" lon="-2.29476">
        <ele>45</ele>
        <time>2020-06-24T10:41:47.062Z</time>
      </trkpt>
      <trkpt lat="48.65893" lon="-2.29475">
        <ele>45</ele>
        <time>2020-06-24T10:41:48.062Z</time>
      </trkpt>
      <trkpt lat="48.65892" lon="-2.29474">
        <ele>45</ele>
        <time>2020-06-24T10:41:49.062Z</time>
      </trkpt>
      <trkpt lat="48.65891" lon="-2.29473">
        <ele>45</ele>
        <time>2020-06-24T10:41:50.062Z</time>
      </trkpt>
      <trkpt lat="48.65891" lon="-2.29472">
        <ele>44</ele>
        <time>2020-06-24T10:41:51.062Z</time>
      </trkpt>
      <trkpt lat="48.6589" lon="-2.29471">
        <ele>44</ele>
        <time>2020-06-24T10:41:52.062Z</time>
      </trkpt>
      <trkpt lat="48.6589" lon="-2.2947">
        <ele>43</ele>
        <time>2020-06-24T10:41:53.062Z</time>
      </trkpt>
      <trkpt lat="48.65889" lon="-2.29469">
        <ele>43</ele>
        <time>2020-06-24T10:41:54.062Z</time>
      </trkpt>
      <trkpt lat="48.65888" lon="-2.29468">
        <ele>43</ele>
        <time>2020-06-24T10:41:55.062Z</time>
      </trkpt>
      <trkpt lat="48.65887" lon="-2.29466">
        <ele>43</ele>
        <time>2020-06-24T10:41:56.062Z</time>
      </trkpt>
      <trkpt lat="48.65886" lon="-2.29465">
        <ele>43</ele>
        <time>2020-06-24T10:41:57.062Z</time>
      </trkpt>
      <trkpt lat="48.65884" lon="-2.29464">
        <ele>43</ele>
        <time>2020-06-24T10:41:58.062Z</time>
      </trkpt>
      <trkpt lat="48.65883" lon="-2.29463">
        <ele>42</ele>
        <time>2020-06-24T10:41:59.062Z</time>
      </trkpt>
      <trkpt lat="48.65882" lon="-2.29462">
        <ele>42</ele>
        <time>2020-06-24T10:42:00.062Z</time>
      </trkpt>
      <trkpt lat="48.65881" lon="-2.2946">
        <ele>42</ele>
        <time>2020-06-24T10:42:01.062Z</time>
      </trkpt>
      <trkpt lat="48.6588" lon="-2.29458">
        <ele>42</ele>
        <time>2020-06-24T10:42:02.062Z</time>
      </trkpt>
      <trkpt lat="48.65879" lon="-2.29457">
        <ele>41</ele>
        <time>2020-06-24T10:42:03.062Z</time>
      </trkpt>
      <trkpt lat="48.65878" lon="-2.29456">
        <ele>41</ele>
        <time>2020-06-24T10:42:04.062Z</time>
      </trkpt>
      <trkpt lat="48.65878" lon="-2.29455">
        <ele>41</ele>
        <time>2020-06-24T10:42:05.062Z</time>
      </trkpt>
      <trkpt lat="48.65877" lon="-2.29453">
        <ele>41</ele>
        <time>2020-06-24T10:42:06.062Z</time>
      </trkpt>
      <trkpt lat="48.65876" lon="-2.29451">
        <ele>41</ele>
        <time>2020-06-24T10:42:07.062Z</time>
      </trkpt>
      <trkpt lat="48.65876" lon="-2.29449">
        <ele>41</ele>
        <time>2020-06-24T10:42:08.062Z</time>
      </trkpt>
      <trkpt lat="48.65875" lon="-2.29448">
        <ele>42</ele>
        <time>2020-06-24T10:42:09.062Z</time>
      </trkpt>
      <trkpt lat="48.65875" lon="-2.29447">
        <ele>42</ele>
        <time>2020-06-24T10:42:10.062Z</time>
      </trkpt>
      <trkpt lat="48.65874" lon="-2.29445">
        <ele>41</ele>
        <time>2020-06-24T10:42:11.062Z</time>
      </trkpt>
      <trkpt lat="48.65874" lon="-2.29444">
        <ele>41</ele>
        <time>2020-06-24T10:42:12.062Z</time>
      </trkpt>
      <trkpt lat="48.65873" lon="-2.29444">
        <ele>40</ele>
        <time>2020-06-24T10:42:13.062Z</time>
      </trkpt>
      <trkpt lat="48.65872" lon="-2.29443">
        <ele>39</ele>
        <time>2020-06-24T10:42:14.062Z</time>
      </trkpt>
      <trkpt lat="48.6587" lon="-2.29441">
        <ele>40</ele>
        <time>2020-06-24T10:42:15.062Z</time>
      </trkpt>
      <trkpt lat="48.65869" lon="-2.2944">
        <ele>39</ele>
        <time>2020-06-24T10:42:16.062Z</time>
      </trkpt>
      <trkpt lat="48.65867" lon="-2.29438">
        <ele>39</ele>
        <time>2020-06-24T10:42:17.062Z</time>
      </trkpt>
      <trkpt lat="48.65866" lon="-2.29437">
        <ele>40</ele>
        <time>2020-06-24T10:42:18.062Z</time>
      </trkpt>
      <trkpt lat="48.65864" lon="-2.29436">
        <ele>40</ele>
        <time>2020-06-24T10:42:19.062Z</time>
      </trkpt>
      <trkpt lat="48.65863" lon="-2.29435">
        <ele>40</ele>
        <time>2020-06-24T10:42:20.062Z</time>
      </trkpt>
      <trkpt lat="48.65861" lon="-2.29434">
        <ele>39</ele>
        <time>2020-06-24T10:42:21.062Z</time>
      </trkpt>
      <trkpt lat="48.6586" lon="-2.29433">
        <ele>39</ele>
        <time>2020-06-24T10:42:22.062Z</time>
      </trkpt>
      <trkpt lat="48.65859" lon="-2.29432">
        <ele>39</ele>
        <time>2020-06-24T10:42:23.062Z</time>
      </trkpt>
      <trkpt lat="48.65858" lon="-2.29431">
        <ele>38</ele>
        <time>2020-06-24T10:42:24.062Z</time>
      </trkpt>
      <trkpt lat="48.65857" lon="-2.29429">
        <ele>38</ele>
        <time>2020-06-24T10:42:25.062Z</time>
      </trkpt>
      <trkpt lat="48.65856" lon="-2.29428">
        <ele>37</ele>
        <time>2020-06-24T10:42:26.062Z</time>
      </trkpt>
      <trkpt lat="48.65855" lon="-2.29427">
        <ele>37</ele>
        <time>2020-06-24T10:42:27.062Z</time>
      </trkpt>
      <trkpt lat="48.65855" lon="-2.29426">
        <ele>37</ele>
        <time>2020-06-24T10:42:28.062Z</time>
      </trkpt>
      <trkpt lat="48.65854" lon="-2.29425">
        <ele>37</ele>
        <time>2020-06-24T10:42:29.062Z</time>
      </trkpt>
      <trkpt lat="48.65853" lon="-2.29424">
        <ele>37</ele>
        <time>2020-06-24T10:42:30.062Z</time>
      </trkpt>
      <trkpt lat="48.65852" lon="-2.29424">
        <ele>37</ele>
        <time>2020-06-24T10:42:31.062Z</time>
      </trkpt>
      <trkpt lat="48.65851" lon="-2.29425">
        <ele>37</ele>
        <time>2020-06-24T10:42:32.062Z</time>
      </trkpt>
      <trkpt lat="48.65851" lon="-2.29425">
        <ele>37</ele>
        <time>2020-06-24T10:42:33.062Z</time>
      </trkpt>
      <trkpt lat="48.6585" lon="-2.29425">
        <ele>36</ele>
        <time>2020-06-24T10:42:34.062Z</time>
      </trkpt>
      <trkpt lat="48.65849" lon="-2.29425">
        <ele>36</ele>
        <time>2020-06-24T10:42:35.062Z</time>
      </trkpt>
      <trkpt lat="48.65848" lon="-2.29426">
        <ele>36</ele>
        <time>2020-06-24T10:42:36.062Z</time>
      </trkpt>
      <trkpt lat="48.65848" lon="-2.29426">
        <ele>36</ele>
        <time>2020-06-24T10:42:37.062Z</time>
      </trkpt>
      <trkpt lat="48.65847" lon="-2.29427">
        <ele>35</ele>
        <time>2020-06-24T10:42:38.062Z</time>
      </trkpt>
      <trkpt lat="48.65846" lon="-2.29427">
        <ele>35</ele>
        <time>2020-06-24T10:42:39.062Z</time>
      </trkpt>
      <trkpt lat="48.65845" lon="-2.29426">
        <ele>35</ele>
        <time>2020-06-24T10:42:40.062Z</time>
      </trkpt>
      <trkpt lat="48.65844" lon="-2.29426">
        <ele>34</ele>
        <time>2020-06-24T10:42:41.062Z</time>
      </trkpt>
      <trkpt lat="48.65843" lon="-2.29426">
        <ele>34</ele>
        <time>2020-06-24T10:42:42.062Z</time>
      </trkpt>
      <trkpt lat="48.65843" lon="-2.29426">
        <ele>34</ele>
        <time>2020-06-24T10:42:43.062Z</time>
      </trkpt>
      <trkpt lat="48.65843" lon="-2.29426">
        <ele>34</ele>
        <time>2020-06-24T10:42:44.062Z</time>
      </trkpt>
      <trkpt lat="48.65843" lon="-2.29425">
        <ele>33</ele>
        <time>2020-06-24T10:42:45.062Z</time>
      </trkpt>
      <trkpt lat="48.65843" lon="-2.29425">
        <ele>32</ele>
        <time>2020-06-24T10:42:46.062Z</time>
      </trkpt>
      <trkpt lat="48.6584" lon="-2.29427">
        <ele>32</ele>
        <time>2020-06-24T10:42:47.065Z</time>
      </trkpt>
      <trkpt lat="48.65839" lon="-2.29428">
        <ele>32</ele>
        <time>2020-06-24T10:42:48.065Z</time>
      </trkpt>
      <trkpt lat="48.65837" lon="-2.29429">
        <ele>31</ele>
        <time>2020-06-24T10:42:49.065Z</time>
      </trkpt>
      <trkpt lat="48.65836" lon="-2.2943">
        <ele>31</ele>
        <time>2020-06-24T10:42:50.065Z</time>
      </trkpt>
      <trkpt lat="48.65835" lon="-2.2943">
        <ele>31</ele>
        <time>2020-06-24T10:42:51.065Z</time>
      </trkpt>
      <trkpt lat="48.65834" lon="-2.2943">
        <ele>30</ele>
        <time>2020-06-24T10:42:52.065Z</time>
      </trkpt>
      <trkpt lat="48.65833" lon="-2.2943">
        <ele>29</ele>
        <time>2020-06-24T10:42:53.065Z</time>
      </trkpt>
      <trkpt lat="48.65831" lon="-2.29429">
        <ele>29</ele>
        <time>2020-06-24T10:42:54.065Z</time>
      </trkpt>
      <trkpt lat="48.6583" lon="-2.29429">
        <ele>29</ele>
        <time>2020-06-24T10:42:55.065Z</time>
      </trkpt>
      <trkpt lat="48.65829" lon="-2.29429">
        <ele>30</ele>
        <time>2020-06-24T10:42:56.065Z</time>
      </trkpt>
      <trkpt lat="48.65828" lon="-2.2943">
        <ele>30</ele>
        <time>2020-06-24T10:42:57.065Z</time>
      </trkpt>
      <trkpt lat="48.65827" lon="-2.29431">
        <ele>30</ele>
        <time>2020-06-24T10:42:58.065Z</time>
      </trkpt>
      <trkpt lat="48.65826" lon="-2.29432">
        <ele>29</ele>
        <time>2020-06-24T10:42:59.065Z</time>
      </trkpt>
      <trkpt lat="48.65826" lon="-2.29432">
        <ele>28</ele>
        <time>2020-06-24T10:43:00.065Z</time>
      </trkpt>
      <trkpt lat="48.65827" lon="-2.29433">
        <ele>28</ele>
        <time>2020-06-24T10:43:01.065Z</time>
      </trkpt>
      <trkpt lat="48.65827" lon="-2.29434">
        <ele>28</ele>
        <time>2020-06-24T10:43:02.065Z</time>
      </trkpt>
      <trkpt lat="48.65827" lon="-2.29436">
        <ele>28</ele>
        <time>2020-06-24T10:43:03.065Z</time>
      </trkpt>
      <trkpt lat="48.65826" lon="-2.29437">
        <ele>28</ele>
        <time>2020-06-24T10:43:04.065Z</time>
      </trkpt>
      <trkpt lat="48.65826" lon="-2.29438">
        <ele>28</ele>
        <time>2020-06-24T10:43:05.065Z</time>
      </trkpt>
      <trkpt lat="48.65826" lon="-2.29439">
        <ele>28</ele>
        <time>2020-06-24T10:43:06.065Z</time>
      </trkpt>
      <trkpt lat="48.65826" lon="-2.2944">
        <ele>27</ele>
        <time>2020-06-24T10:43:07.065Z</time>
      </trkpt>
      <trkpt lat="48.65826" lon="-2.29442">
        <ele>27</ele>
        <time>2020-06-24T10:43:08.065Z</time>
      </trkpt>
      <trkpt lat="48.65826" lon="-2.29443">
        <ele>27</ele>
        <time>2020-06-24T10:43:09.065Z</time>
      </trkpt>
      <trkpt lat="48.65826" lon="-2.29445">
        <ele>27</ele>
        <time>2020-06-24T10:43:10.065Z</time>
      </trkpt>
      <trkpt lat="48.65826" lon="-2.29447">
        <ele>25</ele>
        <time>2020-06-24T10:43:11.065Z</time>
      </trkpt>
      <trkpt lat="48.65827" lon="-2.2945">
        <ele>24</ele>
        <time>2020-06-24T10:43:12.065Z</time>
      </trkpt>
      <trkpt lat="48.65827" lon="-2.29454">
        <ele>23</ele>
        <time>2020-06-24T10:43:13.065Z</time>
      </trkpt>
      <trkpt lat="48.65827" lon="-2.29456">
        <ele>22</ele>
        <time>2020-06-24T10:43:14.065Z</time>
      </trkpt>
      <trkpt lat="48.65827" lon="-2.29458">
        <ele>21</ele>
        <time>2020-06-24T10:43:15.065Z</time>
      </trkpt>
      <trkpt lat="48.65828" lon="-2.2946">
        <ele>20</ele>
        <time>2020-06-24T10:43:16.065Z</time>
      </trkpt>
      <trkpt lat="48.65828" lon="-2.29462">
        <ele>20</ele>
        <time>2020-06-24T10:43:17.065Z</time>
      </trkpt>
      <trkpt lat="48.65828" lon="-2.29463">
        <ele>20</ele>
        <time>2020-06-24T10:43:18.065Z</time>
      </trkpt>
      <trkpt lat="48.65827" lon="-2.29465">
        <ele>20</ele>
        <time>2020-06-24T10:43:19.065Z</time>
      </trkpt>
      <trkpt lat="48.65827" lon="-2.29467">
        <ele>20</ele>
        <time>2020-06-24T10:43:20.065Z</time>
      </trkpt>
      <trkpt lat="48.65827" lon="-2.29469">
        <ele>19</ele>
        <time>2020-06-24T10:43:21.065Z</time>
      </trkpt>
      <trkpt lat="48.65827" lon="-2.29471">
        <ele>19</ele>
        <time>2020-06-24T10:43:22.065Z</time>
      </trkpt>
      <trkpt lat="48.65828" lon="-2.29472">
        <ele>19</ele>
        <time>2020-06-24T10:43:23.065Z</time>
      </trkpt>
      <trkpt lat="48.65828" lon="-2.29474">
        <ele>18</ele>
        <time>2020-06-24T10:43:24.065Z</time>
      </trkpt>
      <trkpt lat="48.65829" lon="-2.29476">
        <ele>19</ele>
        <time>2020-06-24T10:43:25.065Z</time>
      </trkpt>
      <trkpt lat="48.65829" lon="-2.29477">
        <ele>18</ele>
        <time>2020-06-24T10:43:26.065Z</time>
      </trkpt>
      <trkpt lat="48.65829" lon="-2.29478">
        <ele>18</ele>
        <time>2020-06-24T10:43:27.065Z</time>
      </trkpt>
      <trkpt lat="48.6583" lon="-2.29479">
        <ele>17</ele>
        <time>2020-06-24T10:43:28.065Z</time>
      </trkpt>
      <trkpt lat="48.6583" lon="-2.29481">
        <ele>17</ele>
        <time>2020-06-24T10:43:29.065Z</time>
      </trkpt>
      <trkpt lat="48.65831" lon="-2.29482">
        <ele>16</ele>
        <time>2020-06-24T10:43:30.065Z</time>
      </trkpt>
      <trkpt lat="48.65832" lon="-2.29484">
        <ele>16</ele>
        <time>2020-06-24T10:43:31.065Z</time>
      </trkpt>
      <trkpt lat="48.65833" lon="-2.29485">
        <ele>16</ele>
        <time>2020-06-24T10:43:32.065Z</time>
      </trkpt>
      <trkpt lat="48.65833" lon="-2.29487">
        <ele>15</ele>
        <time>2020-06-24T10:43:33.065Z</time>
      </trkpt>
      <trkpt lat="48.65834" lon="-2.29488">
        <ele>16</ele>
        <time>2020-06-24T10:43:34.065Z</time>
      </trkpt>
      <trkpt lat="48.65835" lon="-2.29489">
        <ele>15</ele>
        <time>2020-06-24T10:43:35.065Z</time>
      </trkpt>
      <trkpt lat="48.65835" lon="-2.29491">
        <ele>15</ele>
        <time>2020-06-24T10:43:36.065Z</time>
      </trkpt>
      <trkpt lat="48.65836" lon="-2.29492">
        <ele>16</ele>
        <time>2020-06-24T10:43:37.065Z</time>
      </trkpt>
      <trkpt lat="48.65836" lon="-2.29493">
        <ele>17</ele>
        <time>2020-06-24T10:43:38.065Z</time>
      </trkpt>
      <trkpt lat="48.65836" lon="-2.29494">
        <ele>17</ele>
        <time>2020-06-24T10:43:39.065Z</time>
      </trkpt>
      <trkpt lat="48.65836" lon="-2.29495">
        <ele>17</ele>
        <time>2020-06-24T10:43:40.065Z</time>
      </trkpt>
      <trkpt lat="48.65836" lon="-2.29497">
        <ele>18</ele>
        <time>2020-06-24T10:43:41.065Z</time>
      </trkpt>
      <trkpt lat="48.65835" lon="-2.29499">
        <ele>19</ele>
        <time>2020-06-24T10:43:42.065Z</time>
      </trkpt>
      <trkpt lat="48.65835" lon="-2.29501">
        <ele>19</ele>
        <time>2020-06-24T10:43:43.065Z</time>
      </trkpt>
      <trkpt lat="48.65835" lon="-2.29503">
        <ele>19</ele>
        <time>2020-06-24T10:43:44.065Z</time>
      </trkpt>
      <trkpt lat="48.65836" lon="-2.29505">
        <ele>19</ele>
        <time>2020-06-24T10:43:45.065Z</time>
      </trkpt>
      <trkpt lat="48.65836" lon="-2.29507">
        <ele>19</ele>
        <time>2020-06-24T10:43:46.065Z</time>
      </trkpt>
      <trkpt lat="48.65836" lon="-2.29508">
        <ele>20</ele>
        <time>2020-06-24T10:43:47.065Z</time>
      </trkpt>
      <trkpt lat="48.65836" lon="-2.2951">
        <ele>20</ele>
        <time>2020-06-24T10:43:48.065Z</time>
      </trkpt>
      <trkpt lat="48.65835" lon="-2.29511">
        <ele>18</ele>
        <time>2020-06-24T10:43:49.065Z</time>
      </trkpt>
      <trkpt lat="48.65834" lon="-2.29512">
        <ele>18</ele>
        <time>2020-06-24T10:43:50.065Z</time>
      </trkpt>
      <trkpt lat="48.65833" lon="-2.29513">
        <ele>18</ele>
        <time>2020-06-24T10:43:51.065Z</time>
      </trkpt>
      <trkpt lat="48.65833" lon="-2.29514">
        <ele>18</ele>
        <time>2020-06-24T10:43:52.065Z</time>
      </trkpt>
      <trkpt lat="48.65832" lon="-2.29515">
        <ele>18</ele>
        <time>2020-06-24T10:43:53.065Z</time>
      </trkpt>
      <trkpt lat="48.65831" lon="-2.29516">
        <ele>17</ele>
        <time>2020-06-24T10:43:54.065Z</time>
      </trkpt>
      <trkpt lat="48.6583" lon="-2.29517">
        <ele>16</ele>
        <time>2020-06-24T10:43:55.065Z</time>
      </trkpt>
      <trkpt lat="48.65829" lon="-2.29518">
        <ele>16</ele>
        <time>2020-06-24T10:43:56.065Z</time>
      </trkpt>
      <trkpt lat="48.65828" lon="-2.29519">
        <ele>15</ele>
        <time>2020-06-24T10:43:57.065Z</time>
      </trkpt>
      <trkpt lat="48.65827" lon="-2.2952">
        <ele>15</ele>
        <time>2020-06-24T10:43:58.065Z</time>
      </trkpt>
      <trkpt lat="48.65826" lon="-2.29521">
        <ele>15</ele>
        <time>2020-06-24T10:43:59.065Z</time>
      </trkpt>
      <trkpt lat="48.65825" lon="-2.29522">
        <ele>15</ele>
        <time>2020-06-24T10:44:00.065Z</time>
      </trkpt>
      <trkpt lat="48.65824" lon="-2.29524">
        <ele>15</ele>
        <time>2020-06-24T10:44:01.065Z</time>
      </trkpt>
      <trkpt lat="48.65822" lon="-2.29525">
        <ele>16</ele>
        <time>2020-06-24T10:44:02.065Z</time>
      </trkpt>
      <trkpt lat="48.65822" lon="-2.29526">
        <ele>15</ele>
        <time>2020-06-24T10:44:03.065Z</time>
      </trkpt>
      <trkpt lat="48.65821" lon="-2.29528">
        <ele>15</ele>
        <time>2020-06-24T10:44:04.065Z</time>
      </trkpt>
      <trkpt lat="48.6582" lon="-2.29529">
        <ele>16</ele>
        <time>2020-06-24T10:44:05.065Z</time>
      </trkpt>
      <trkpt lat="48.6582" lon="-2.29531">
        <ele>16</ele>
        <time>2020-06-24T10:44:06.065Z</time>
      </trkpt>
      <trkpt lat="48.6582" lon="-2.29532">
        <ele>17</ele>
        <time>2020-06-24T10:44:07.065Z</time>
      </trkpt>
      <trkpt lat="48.6582" lon="-2.29533">
        <ele>17</ele>
        <time>2020-06-24T10:44:08.065Z</time>
      </trkpt>
      <trkpt lat="48.6582" lon="-2.29534">
        <ele>18</ele>
        <time>2020-06-24T10:44:09.065Z</time>
      </trkpt>
      <trkpt lat="48.6582" lon="-2.29536">
        <ele>19</ele>
        <time>2020-06-24T10:44:10.065Z</time>
      </trkpt>
      <trkpt lat="48.65819" lon="-2.29538">
        <ele>20</ele>
        <time>2020-06-24T10:44:11.065Z</time>
      </trkpt>
      <trkpt lat="48.65819" lon="-2.2954">
        <ele>21</ele>
        <time>2020-06-24T10:44:12.065Z</time>
      </trkpt>
      <trkpt lat="48.65818" lon="-2.29541">
        <ele>21</ele>
        <time>2020-06-24T10:44:13.065Z</time>
      </trkpt>
      <trkpt lat="48.65817" lon="-2.29543">
        <ele>22</ele>
        <time>2020-06-24T10:44:14.065Z</time>
      </trkpt>
      <trkpt lat="48.65817" lon="-2.29544">
        <ele>22</ele>
        <time>2020-06-24T10:44:15.065Z</time>
      </trkpt>
      <trkpt lat="48.65816" lon="-2.29545">
        <ele>23</ele>
        <time>2020-06-24T10:44:16.065Z</time>
      </trkpt>
      <trkpt lat="48.65815" lon="-2.29546">
        <ele>24</ele>
        <time>2020-06-24T10:44:17.065Z</time>
      </trkpt>
      <trkpt lat="48.65815" lon="-2.29548">
        <ele>24</ele>
        <time>2020-06-24T10:44:18.065Z</time>
      </trkpt>
      <trkpt lat="48.65814" lon="-2.29549">
        <ele>25</ele>
        <time>2020-06-24T10:44:19.065Z</time>
      </trkpt>
      <trkpt lat="48.65813" lon="-2.2955">
        <ele>25</ele>
        <time>2020-06-24T10:44:20.065Z</time>
      </trkpt>
      <trkpt lat="48.65813" lon="-2.29552">
        <ele>25</ele>
        <time>2020-06-24T10:44:21.065Z</time>
      </trkpt>
      <trkpt lat="48.65812" lon="-2.29553">
        <ele>28</ele>
        <time>2020-06-24T10:44:22.065Z</time>
      </trkpt>
      <trkpt lat="48.65812" lon="-2.29554">
        <ele>28</ele>
        <time>2020-06-24T10:44:23.065Z</time>
      </trkpt>
      <trkpt lat="48.65811" lon="-2.29555">
        <ele>28</ele>
        <time>2020-06-24T10:44:24.065Z</time>
      </trkpt>
      <trkpt lat="48.65811" lon="-2.29556">
        <ele>28</ele>
        <time>2020-06-24T10:44:25.065Z</time>
      </trkpt>
      <trkpt lat="48.65811" lon="-2.29558">
        <ele>29</ele>
        <time>2020-06-24T10:44:26.065Z</time>
      </trkpt>
      <trkpt lat="48.6581" lon="-2.2956">
        <ele>29</ele>
        <time>2020-06-24T10:44:27.065Z</time>
      </trkpt>
      <trkpt lat="48.6581" lon="-2.29562">
        <ele>29</ele>
        <time>2020-06-24T10:44:28.065Z</time>
      </trkpt>
      <trkpt lat="48.6581" lon="-2.29563">
        <ele>29</ele>
        <time>2020-06-24T10:44:29.065Z</time>
      </trkpt>
      <trkpt lat="48.65809" lon="-2.29565">
        <ele>30</ele>
        <time>2020-06-24T10:44:30.065Z</time>
      </trkpt>
      <trkpt lat="48.65809" lon="-2.29567">
        <ele>29</ele>
        <time>2020-06-24T10:44:31.065Z</time>
      </trkpt>
      <trkpt lat="48.65809" lon="-2.29568">
        <ele>30</ele>
        <time>2020-06-24T10:44:32.065Z</time>
      </trkpt>
      <trkpt lat="48.65808" lon="-2.2957">
        <ele>30</ele>
        <time>2020-06-24T10:44:33.065Z</time>
      </trkpt>
      <trkpt lat="48.65807" lon="-2.29571">
        <ele>31</ele>
        <time>2020-06-24T10:44:34.065Z</time>
      </trkpt>
      <trkpt lat="48.65806" lon="-2.29572">
        <ele>31</ele>
        <time>2020-06-24T10:44:35.065Z</time>
      </trkpt>
      <trkpt lat="48.65806" lon="-2.29573">
        <ele>31</ele>
        <time>2020-06-24T10:44:36.065Z</time>
      </trkpt>
      <trkpt lat="48.65805" lon="-2.29574">
        <ele>31</ele>
        <time>2020-06-24T10:44:37.065Z</time>
      </trkpt>
      <trkpt lat="48.65804" lon="-2.29575">
        <ele>31</ele>
        <time>2020-06-24T10:44:38.065Z</time>
      </trkpt>
      <trkpt lat="48.65804" lon="-2.29576">
        <ele>31</ele>
        <time>2020-06-24T10:44:39.065Z</time>
      </trkpt>
      <trkpt lat="48.65803" lon="-2.29577">
        <ele>31</ele>
        <time>2020-06-24T10:44:40.065Z</time>
      </trkpt>
      <trkpt lat="48.65803" lon="-2.29578">
        <ele>31</ele>
        <time>2020-06-24T10:44:41.065Z</time>
      </trkpt>
      <trkpt lat="48.65803" lon="-2.2958">
        <ele>31</ele>
        <time>2020-06-24T10:44:42.065Z</time>
      </trkpt>
      <trkpt lat="48.65803" lon="-2.29581">
        <ele>32</ele>
        <time>2020-06-24T10:44:43.065Z</time>
      </trkpt>
      <trkpt lat="48.65802" lon="-2.29582">
        <ele>32</ele>
        <time>2020-06-24T10:44:44.065Z</time>
      </trkpt>
      <trkpt lat="48.65802" lon="-2.29583">
        <ele>33</ele>
        <time>2020-06-24T10:44:45.065Z</time>
      </trkpt>
      <trkpt lat="48.65801" lon="-2.29584">
        <ele>33</ele>
        <time>2020-06-24T10:44:46.065Z</time>
      </trkpt>
      <trkpt lat="48.658" lon="-2.29585">
        <ele>33</ele>
        <time>2020-06-24T10:44:47.065Z</time>
      </trkpt>
      <trkpt lat="48.65799" lon="-2.29586">
        <ele>33</ele>
        <time>2020-06-24T10:44:48.065Z</time>
      </trkpt>
      <trkpt lat="48.65798" lon="-2.29587">
        <ele>33</ele>
        <time>2020-06-24T10:44:49.065Z</time>
      </trkpt>
      <trkpt lat="48.65797" lon="-2.29588">
        <ele>34</ele>
        <time>2020-06-24T10:44:50.065Z</time>
      </trkpt>
      <trkpt lat="48.65797" lon="-2.29589">
        <ele>34</ele>
        <time>2020-06-24T10:44:51.065Z</time>
      </trkpt>
      <trkpt lat="48.65796" lon="-2.29589">
        <ele>35</ele>
        <time>2020-06-24T10:44:52.065Z</time>
      </trkpt>
      <trkpt lat="48.65795" lon="-2.2959">
        <ele>35</ele>
        <time>2020-06-24T10:44:53.065Z</time>
      </trkpt>
      <trkpt lat="48.65794" lon="-2.2959">
        <ele>36</ele>
        <time>2020-06-24T10:44:54.065Z</time>
      </trkpt>
      <trkpt lat="48.65793" lon="-2.29591">
        <ele>37</ele>
        <time>2020-06-24T10:44:55.065Z</time>
      </trkpt>
      <trkpt lat="48.65792" lon="-2.29591">
        <ele>37</ele>
        <time>2020-06-24T10:44:56.065Z</time>
      </trkpt>
      <trkpt lat="48.6579" lon="-2.29592">
        <ele>38</ele>
        <time>2020-06-24T10:44:57.065Z</time>
      </trkpt>
      <trkpt lat="48.65789" lon="-2.29592">
        <ele>38</ele>
        <time>2020-06-24T10:44:58.065Z</time>
      </trkpt>
      <trkpt lat="48.65787" lon="-2.29592">
        <ele>38</ele>
        <time>2020-06-24T10:44:59.065Z</time>
      </trkpt>
      <trkpt lat="48.65786" lon="-2.29593">
        <ele>38</ele>
        <time>2020-06-24T10:45:00.065Z</time>
      </trkpt>
      <trkpt lat="48.65785" lon="-2.29593">
        <ele>38</ele>
        <time>2020-06-24T10:45:01.065Z</time>
      </trkpt>
      <trkpt lat="48.65785" lon="-2.29594">
        <ele>38</ele>
        <time>2020-06-24T10:45:02.065Z</time>
      </trkpt>
      <trkpt lat="48.65784" lon="-2.29595">
        <ele>38</ele>
        <time>2020-06-24T10:45:03.065Z</time>
      </trkpt>
      <trkpt lat="48.65783" lon="-2.29595">
        <ele>38</ele>
        <time>2020-06-24T10:45:04.065Z</time>
      </trkpt>
      <trkpt lat="48.65781" lon="-2.29596">
        <ele>38</ele>
        <time>2020-06-24T10:45:05.065Z</time>
      </trkpt>
      <trkpt lat="48.6578" lon="-2.29596">
        <ele>38</ele>
        <time>2020-06-24T10:45:06.065Z</time>
      </trkpt>
      <trkpt lat="48.65778" lon="-2.29597">
        <ele>37</ele>
        <time>2020-06-24T10:45:07.065Z</time>
      </trkpt>
      <trkpt lat="48.65777" lon="-2.29597">
        <ele>37</ele>
        <time>2020-06-24T10:45:08.065Z</time>
      </trkpt>
      <trkpt lat="48.65776" lon="-2.29598">
        <ele>36</ele>
        <time>2020-06-24T10:45:09.065Z</time>
      </trkpt>
      <trkpt lat="48.65775" lon="-2.29598">
        <ele>35</ele>
        <time>2020-06-24T10:45:10.065Z</time>
      </trkpt>
      <trkpt lat="48.65773" lon="-2.29599">
        <ele>34</ele>
        <time>2020-06-24T10:45:11.065Z</time>
      </trkpt>
      <trkpt lat="48.65772" lon="-2.296">
        <ele>34</ele>
        <time>2020-06-24T10:45:12.065Z</time>
      </trkpt>
      <trkpt lat="48.65771" lon="-2.296">
        <ele>35</ele>
        <time>2020-06-24T10:45:13.065Z</time>
      </trkpt>
      <trkpt lat="48.65769" lon="-2.29601">
        <ele>35</ele>
        <time>2020-06-24T10:45:14.065Z</time>
      </trkpt>
      <trkpt lat="48.65768" lon="-2.29602">
        <ele>35</ele>
        <time>2020-06-24T10:45:15.065Z</time>
      </trkpt>
      <trkpt lat="48.65767" lon="-2.29602">
        <ele>36</ele>
        <time>2020-06-24T10:45:16.065Z</time>
      </trkpt>
      <trkpt lat="48.65766" lon="-2.29603">
        <ele>36</ele>
        <time>2020-06-24T10:45:17.065Z</time>
      </trkpt>
      <trkpt lat="48.65765" lon="-2.29604">
        <ele>36</ele>
        <time>2020-06-24T10:45:18.065Z</time>
      </trkpt>
      <trkpt lat="48.65764" lon="-2.29605">
        <ele>36</ele>
        <time>2020-06-24T10:45:19.065Z</time>
      </trkpt>
      <trkpt lat="48.65764" lon="-2.29606">
        <ele>36</ele>
        <time>2020-06-24T10:45:20.065Z</time>
      </trkpt>
      <trkpt lat="48.65763" lon="-2.29607">
        <ele>36</ele>
        <time>2020-06-24T10:45:21.065Z</time>
      </trkpt>
      <trkpt lat="48.65762" lon="-2.29608">
        <ele>36</ele>
        <time>2020-06-24T10:45:22.065Z</time>
      </trkpt>
      <trkpt lat="48.65761" lon="-2.29609">
        <ele>36</ele>
        <time>2020-06-24T10:45:23.065Z</time>
      </trkpt>
      <trkpt lat="48.6576" lon="-2.2961">
        <ele>36</ele>
        <time>2020-06-24T10:45:24.065Z</time>
      </trkpt>
      <trkpt lat="48.65759" lon="-2.29611">
        <ele>37</ele>
        <time>2020-06-24T10:45:25.065Z</time>
      </trkpt>
      <trkpt lat="48.65758" lon="-2.29612">
        <ele>37</ele>
        <time>2020-06-24T10:45:26.065Z</time>
      </trkpt>
      <trkpt lat="48.65757" lon="-2.29613">
        <ele>37</ele>
        <time>2020-06-24T10:45:27.065Z</time>
      </trkpt>
      <trkpt lat="48.65756" lon="-2.29614">
        <ele>38</ele>
        <time>2020-06-24T10:45:28.065Z</time>
      </trkpt>
      <trkpt lat="48.65755" lon="-2.29615">
        <ele>38</ele>
        <time>2020-06-24T10:45:29.065Z</time>
      </trkpt>
      <trkpt lat="48.65754" lon="-2.29616">
        <ele>38</ele>
        <time>2020-06-24T10:45:30.065Z</time>
      </trkpt>
      <trkpt lat="48.65754" lon="-2.29617">
        <ele>38</ele>
        <time>2020-06-24T10:45:31.065Z</time>
      </trkpt>
      <trkpt lat="48.65753" lon="-2.29618">
        <ele>39</ele>
        <time>2020-06-24T10:45:32.065Z</time>
      </trkpt>
      <trkpt lat="48.65752" lon="-2.29619">
        <ele>39</ele>
        <time>2020-06-24T10:45:33.065Z</time>
      </trkpt>
      <trkpt lat="48.65751" lon="-2.2962">
        <ele>38</ele>
        <time>2020-06-24T10:45:34.065Z</time>
      </trkpt>
      <trkpt lat="48.6575" lon="-2.2962">
        <ele>39</ele>
        <time>2020-06-24T10:45:35.065Z</time>
      </trkpt>
      <trkpt lat="48.65749" lon="-2.29621">
        <ele>40</ele>
        <time>2020-06-24T10:45:36.065Z</time>
      </trkpt>
      <trkpt lat="48.65748" lon="-2.29622">
        <ele>40</ele>
        <time>2020-06-24T10:45:37.065Z</time>
      </trkpt>
      <trkpt lat="48.65748" lon="-2.29623">
        <ele>40</ele>
        <time>2020-06-24T10:45:38.065Z</time>
      </trkpt>
      <trkpt lat="48.65747" lon="-2.29624">
        <ele>40</ele>
        <time>2020-06-24T10:45:39.065Z</time>
      </trkpt>
      <trkpt lat="48.65746" lon="-2.29625">
        <ele>40</ele>
        <time>2020-06-24T10:45:40.065Z</time>
      </trkpt>
      <trkpt lat="48.65746" lon="-2.29626">
        <ele>41</ele>
        <time>2020-06-24T10:45:41.065Z</time>
      </trkpt>
      <trkpt lat="48.65745" lon="-2.29627">
        <ele>41</ele>
        <time>2020-06-24T10:45:42.065Z</time>
      </trkpt>
      <trkpt lat="48.65744" lon="-2.29628">
        <ele>41</ele>
        <time>2020-06-24T10:45:43.065Z</time>
      </trkpt>
      <trkpt lat="48.65743" lon="-2.29629">
        <ele>42</ele>
        <time>2020-06-24T10:45:44.065Z</time>
      </trkpt>
      <trkpt lat="48.65742" lon="-2.2963">
        <ele>42</ele>
        <time>2020-06-24T10:45:45.065Z</time>
      </trkpt>
      <trkpt lat="48.65741" lon="-2.29631">
        <ele>42</ele>
        <time>2020-06-24T10:45:46.065Z</time>
      </trkpt>
      <trkpt lat="48.65741" lon="-2.29632">
        <ele>42</ele>
        <time>2020-06-24T10:45:47.065Z</time>
      </trkpt>
      <trkpt lat="48.6574" lon="-2.29633">
        <ele>42</ele>
        <time>2020-06-24T10:45:48.065Z</time>
      </trkpt>
      <trkpt lat="48.65739" lon="-2.29634">
        <ele>41</ele>
        <time>2020-06-24T10:45:49.065Z</time>
      </trkpt>
      <trkpt lat="48.65737" lon="-2.29635">
        <ele>42</ele>
        <time>2020-06-24T10:45:50.065Z</time>
      </trkpt>
      <trkpt lat="48.65736" lon="-2.29636">
        <ele>42</ele>
        <time>2020-06-24T10:45:51.065Z</time>
      </trkpt>
      <trkpt lat="48.65735" lon="-2.29637">
        <ele>43</ele>
        <time>2020-06-24T10:45:52.065Z</time>
      </trkpt>
      <trkpt lat="48.65734" lon="-2.29638">
        <ele>43</ele>
        <time>2020-06-24T10:45:53.065Z</time>
      </trkpt>
      <trkpt lat="48.65732" lon="-2.29639">
        <ele>43</ele>
        <time>2020-06-24T10:45:54.065Z</time>
      </trkpt>
      <trkpt lat="48.65731" lon="-2.2964">
        <ele>44</ele>
        <time>2020-06-24T10:45:55.065Z</time>
      </trkpt>
      <trkpt lat="48.6573" lon="-2.29641">
        <ele>44</ele>
        <time>2020-06-24T10:45:56.065Z</time>
      </trkpt>
      <trkpt lat="48.65729" lon="-2.29642">
        <ele>43</ele>
        <time>2020-06-24T10:45:57.065Z</time>
      </trkpt>
      <trkpt lat="48.65728" lon="-2.29644">
        <ele>43</ele>
        <time>2020-06-24T10:45:58.065Z</time>
      </trkpt>
      <trkpt lat="48.65727" lon="-2.29645">
        <ele>42</ele>
        <time>2020-06-24T10:45:59.065Z</time>
      </trkpt>
      <trkpt lat="48.65726" lon="-2.29647">
        <ele>42</ele>
        <time>2020-06-24T10:46:00.065Z</time>
      </trkpt>
      <trkpt lat="48.65725" lon="-2.29648">
        <ele>41</ele>
        <time>2020-06-24T10:46:01.065Z</time>
      </trkpt>
      <trkpt lat="48.65724" lon="-2.29648">
        <ele>41</ele>
        <time>2020-06-24T10:46:02.065Z</time>
      </trkpt>
      <trkpt lat="48.65723" lon="-2.29649">
        <ele>41</ele>
        <time>2020-06-24T10:46:03.065Z</time>
      </trkpt>
      <trkpt lat="48.65722" lon="-2.29649">
        <ele>42</ele>
        <time>2020-06-24T10:46:04.065Z</time>
      </trkpt>
      <trkpt lat="48.6572" lon="-2.2965">
        <ele>42</ele>
        <time>2020-06-24T10:46:05.065Z</time>
      </trkpt>
      <trkpt lat="48.65719" lon="-2.29651">
        <ele>41</ele>
        <time>2020-06-24T10:46:06.065Z</time>
      </trkpt>
      <trkpt lat="48.65718" lon="-2.29651">
        <ele>42</ele>
        <time>2020-06-24T10:46:07.065Z</time>
      </trkpt>
      <trkpt lat="48.65717" lon="-2.29652">
        <ele>41</ele>
        <time>2020-06-24T10:46:08.065Z</time>
      </trkpt>
      <trkpt lat="48.65716" lon="-2.29652">
        <ele>41</ele>
        <time>2020-06-24T10:46:09.065Z</time>
      </trkpt>
      <trkpt lat="48.65715" lon="-2.29653">
        <ele>43</ele>
        <time>2020-06-24T10:46:10.065Z</time>
      </trkpt>
      <trkpt lat="48.65713" lon="-2.29653">
        <ele>43</ele>
        <time>2020-06-24T10:46:11.065Z</time>
      </trkpt>
      <trkpt lat="48.65711" lon="-2.29653">
        <ele>43</ele>
        <time>2020-06-24T10:46:12.065Z</time>
      </trkpt>
      <trkpt lat="48.6571" lon="-2.29654">
        <ele>44</ele>
        <time>2020-06-24T10:46:13.065Z</time>
      </trkpt>
      <trkpt lat="48.65709" lon="-2.29654">
        <ele>44</ele>
        <time>2020-06-24T10:46:14.065Z</time>
      </trkpt>
      <trkpt lat="48.65707" lon="-2.29655">
        <ele>43</ele>
        <time>2020-06-24T10:46:15.065Z</time>
      </trkpt>
      <trkpt lat="48.65706" lon="-2.29657">
        <ele>43</ele>
        <time>2020-06-24T10:46:16.065Z</time>
      </trkpt>
      <trkpt lat="48.65706" lon="-2.29657">
        <ele>43</ele>
        <time>2020-06-24T10:46:17.065Z</time>
      </trkpt>
      <trkpt lat="48.65705" lon="-2.29658">
        <ele>43</ele>
        <time>2020-06-24T10:46:18.065Z</time>
      </trkpt>
      <trkpt lat="48.65704" lon="-2.29659">
        <ele>43</ele>
        <time>2020-06-24T10:46:19.065Z</time>
      </trkpt>
      <trkpt lat="48.65703" lon="-2.29661">
        <ele>44</ele>
        <time>2020-06-24T10:46:20.065Z</time>
      </trkpt>
      <trkpt lat="48.65703" lon="-2.29662">
        <ele>43</ele>
        <time>2020-06-24T10:46:21.065Z</time>
      </trkpt>
      <trkpt lat="48.65702" lon="-2.29663">
        <ele>44</ele>
        <time>2020-06-24T10:46:22.065Z</time>
      </trkpt>
      <trkpt lat="48.65701" lon="-2.29664">
        <ele>43</ele>
        <time>2020-06-24T10:46:23.065Z</time>
      </trkpt>
      <trkpt lat="48.657" lon="-2.29664">
        <ele>42</ele>
        <time>2020-06-24T10:46:24.065Z</time>
      </trkpt>
      <trkpt lat="48.65699" lon="-2.29665">
        <ele>42</ele>
        <time>2020-06-24T10:46:25.065Z</time>
      </trkpt>
      <trkpt lat="48.65699" lon="-2.29665">
        <ele>43</ele>
        <time>2020-06-24T10:46:26.065Z</time>
      </trkpt>
      <trkpt lat="48.65698" lon="-2.29665">
        <ele>43</ele>
        <time>2020-06-24T10:46:27.065Z</time>
      </trkpt>
      <trkpt lat="48.65697" lon="-2.29666">
        <ele>42</ele>
        <time>2020-06-24T10:46:28.065Z</time>
      </trkpt>
      <trkpt lat="48.65696" lon="-2.29666">
        <ele>42</ele>
        <time>2020-06-24T10:46:29.065Z</time>
      </trkpt>
      <trkpt lat="48.65695" lon="-2.29667">
        <ele>43</ele>
        <time>2020-06-24T10:46:30.065Z</time>
      </trkpt>
      <trkpt lat="48.65694" lon="-2.29668">
        <ele>42</ele>
        <time>2020-06-24T10:46:31.065Z</time>
      </trkpt>
      <trkpt lat="48.65693" lon="-2.29669">
        <ele>44</ele>
        <time>2020-06-24T10:46:32.065Z</time>
      </trkpt>
      <trkpt lat="48.65692" lon="-2.2967">
        <ele>46</ele>
        <time>2020-06-24T10:46:33.065Z</time>
      </trkpt>
      <trkpt lat="48.6569" lon="-2.2967">
        <ele>45</ele>
        <time>2020-06-24T10:46:34.065Z</time>
      </trkpt>
      <trkpt lat="48.65688" lon="-2.2967">
        <ele>45</ele>
        <time>2020-06-24T10:46:35.065Z</time>
      </trkpt>
      <trkpt lat="48.65686" lon="-2.29671">
        <ele>45</ele>
        <time>2020-06-24T10:46:36.065Z</time>
      </trkpt>
      <trkpt lat="48.65685" lon="-2.29671">
        <ele>44</ele>
        <time>2020-06-24T10:46:37.065Z</time>
      </trkpt>
      <trkpt lat="48.65684" lon="-2.29672">
        <ele>44</ele>
        <time>2020-06-24T10:46:38.065Z</time>
      </trkpt>
      <trkpt lat="48.65683" lon="-2.29672">
        <ele>44</ele>
        <time>2020-06-24T10:46:39.065Z</time>
      </trkpt>
      <trkpt lat="48.65681" lon="-2.29673">
        <ele>44</ele>
        <time>2020-06-24T10:46:40.065Z</time>
      </trkpt>
      <trkpt lat="48.6568" lon="-2.29673">
        <ele>44</ele>
        <time>2020-06-24T10:46:41.065Z</time>
      </trkpt>
      <trkpt lat="48.65678" lon="-2.29674">
        <ele>43</ele>
        <time>2020-06-24T10:46:42.065Z</time>
      </trkpt>
      <trkpt lat="48.65677" lon="-2.29674">
        <ele>43</ele>
        <time>2020-06-24T10:46:43.065Z</time>
      </trkpt>
      <trkpt lat="48.65676" lon="-2.29675">
        <ele>43</ele>
        <time>2020-06-24T10:46:44.065Z</time>
      </trkpt>
      <trkpt lat="48.65675" lon="-2.29676">
        <ele>43</ele>
        <time>2020-06-24T10:46:45.065Z</time>
      </trkpt>
      <trkpt lat="48.65675" lon="-2.29677">
        <ele>43</ele>
        <time>2020-06-24T10:46:46.065Z</time>
      </trkpt>
      <trkpt lat="48.65674" lon="-2.29678">
        <ele>43</ele>
        <time>2020-06-24T10:46:47.065Z</time>
      </trkpt>
      <trkpt lat="48.65673" lon="-2.29679">
        <ele>43</ele>
        <time>2020-06-24T10:46:48.065Z</time>
      </trkpt>
      <trkpt lat="48.65673" lon="-2.2968">
        <ele>43</ele>
        <time>2020-06-24T10:46:49.065Z</time>
      </trkpt>
      <trkpt lat="48.65673" lon="-2.29681">
        <ele>43</ele>
        <time>2020-06-24T10:46:50.065Z</time>
      </trkpt>
      <trkpt lat="48.65672" lon="-2.29683">
        <ele>43</ele>
        <time>2020-06-24T10:46:51.065Z</time>
      </trkpt>
      <trkpt lat="48.65672" lon="-2.29684">
        <ele>44</ele>
        <time>2020-06-24T10:46:52.065Z</time>
      </trkpt>
      <trkpt lat="48.65671" lon="-2.29685">
        <ele>43</ele>
        <time>2020-06-24T10:46:53.065Z</time>
      </trkpt>
      <trkpt lat="48.65671" lon="-2.29687">
        <ele>43</ele>
        <time>2020-06-24T10:46:54.065Z</time>
      </trkpt>
      <trkpt lat="48.6567" lon="-2.29688">
        <ele>42</ele>
        <time>2020-06-24T10:46:55.065Z</time>
      </trkpt>
      <trkpt lat="48.65669" lon="-2.29688">
        <ele>42</ele>
        <time>2020-06-24T10:46:56.065Z</time>
      </trkpt>
      <trkpt lat="48.65668" lon="-2.29689">
        <ele>42</ele>
        <time>2020-06-24T10:46:57.065Z</time>
      </trkpt>
      <trkpt lat="48.65667" lon="-2.2969">
        <ele>42</ele>
        <time>2020-06-24T10:46:58.065Z</time>
      </trkpt>
      <trkpt lat="48.65666" lon="-2.29691">
        <ele>41</ele>
        <time>2020-06-24T10:46:59.065Z</time>
      </trkpt>
      <trkpt lat="48.65665" lon="-2.29692">
        <ele>41</ele>
        <time>2020-06-24T10:47:00.065Z</time>
      </trkpt>
      <trkpt lat="48.65664" lon="-2.29693">
        <ele>41</ele>
        <time>2020-06-24T10:47:01.065Z</time>
      </trkpt>
      <trkpt lat="48.65664" lon="-2.29693">
        <ele>41</ele>
        <time>2020-06-24T10:47:02.065Z</time>
      </trkpt>
      <trkpt lat="48.65663" lon="-2.29694">
        <ele>41</ele>
        <time>2020-06-24T10:47:03.065Z</time>
      </trkpt>
      <trkpt lat="48.65662" lon="-2.29695">
        <ele>41</ele>
        <time>2020-06-24T10:47:04.065Z</time>
      </trkpt>
      <trkpt lat="48.65662" lon="-2.29695">
        <ele>41</ele>
        <time>2020-06-24T10:47:05.065Z</time>
      </trkpt>
      <trkpt lat="48.65661" lon="-2.29696">
        <ele>41</ele>
        <time>2020-06-24T10:47:06.065Z</time>
      </trkpt>
      <trkpt lat="48.6566" lon="-2.29697">
        <ele>41</ele>
        <time>2020-06-24T10:47:07.065Z</time>
      </trkpt>
      <trkpt lat="48.6566" lon="-2.29698">
        <ele>40</ele>
        <time>2020-06-24T10:47:08.065Z</time>
      </trkpt>
      <trkpt lat="48.65659" lon="-2.29699">
        <ele>40</ele>
        <time>2020-06-24T10:47:09.065Z</time>
      </trkpt>
      <trkpt lat="48.65659" lon="-2.29699">
        <ele>40</ele>
        <time>2020-06-24T10:47:10.065Z</time>
      </trkpt>
      <trkpt lat="48.65658" lon="-2.297">
        <ele>40</ele>
        <time>2020-06-24T10:47:11.065Z</time>
      </trkpt>
      <trkpt lat="48.65657" lon="-2.29701">
        <ele>40</ele>
        <time>2020-06-24T10:47:12.065Z</time>
      </trkpt>
      <trkpt lat="48.65656" lon="-2.29702">
        <ele>39</ele>
        <time>2020-06-24T10:47:13.065Z</time>
      </trkpt>
      <trkpt lat="48.65656" lon="-2.29704">
        <ele>40</ele>
        <time>2020-06-24T10:47:14.065Z</time>
      </trkpt>
      <trkpt lat="48.65655" lon="-2.29705">
        <ele>40</ele>
        <time>2020-06-24T10:47:15.065Z</time>
      </trkpt>
      <trkpt lat="48.65655" lon="-2.29707">
        <ele>40</ele>
        <time>2020-06-24T10:47:16.065Z</time>
      </trkpt>
      <trkpt lat="48.65654" lon="-2.29709">
        <ele>40</ele>
        <time>2020-06-24T10:47:17.065Z</time>
      </trkpt>
      <trkpt lat="48.65654" lon="-2.2971">
        <ele>39</ele>
        <time>2020-06-24T10:47:18.065Z</time>
      </trkpt>
      <trkpt lat="48.65654" lon="-2.29712">
        <ele>39</ele>
        <time>2020-06-24T10:47:19.065Z</time>
      </trkpt>
      <trkpt lat="48.65654" lon="-2.29714">
        <ele>38</ele>
        <time>2020-06-24T10:47:20.065Z</time>
      </trkpt>
      <trkpt lat="48.65654" lon="-2.29715">
        <ele>37</ele>
        <time>2020-06-24T10:47:21.065Z</time>
      </trkpt>
      <trkpt lat="48.65654" lon="-2.29717">
        <ele>37</ele>
        <time>2020-06-24T10:47:22.065Z</time>
      </trkpt>
      <trkpt lat="48.65654" lon="-2.29718">
        <ele>37</ele>
        <time>2020-06-24T10:47:23.065Z</time>
      </trkpt>
      <trkpt lat="48.65654" lon="-2.29719">
        <ele>37</ele>
        <time>2020-06-24T10:47:24.065Z</time>
      </trkpt>
      <trkpt lat="48.65654" lon="-2.2972">
        <ele>36</ele>
        <time>2020-06-24T10:47:25.065Z</time>
      </trkpt>
      <trkpt lat="48.65654" lon="-2.29723">
        <ele>35</ele>
        <time>2020-06-24T10:47:26.065Z</time>
      </trkpt>
      <trkpt lat="48.65654" lon="-2.29724">
        <ele>35</ele>
        <time>2020-06-24T10:47:27.065Z</time>
      </trkpt>
      <trkpt lat="48.65655" lon="-2.29726">
        <ele>34</ele>
        <time>2020-06-24T10:47:28.065Z</time>
      </trkpt>
      <trkpt lat="48.65654" lon="-2.29729">
        <ele>34</ele>
        <time>2020-06-24T10:47:29.065Z</time>
      </trkpt>
      <trkpt lat="48.65654" lon="-2.29731">
        <ele>34</ele>
        <time>2020-06-24T10:47:30.065Z</time>
      </trkpt>
      <trkpt lat="48.65654" lon="-2.29733">
        <ele>34</ele>
        <time>2020-06-24T10:47:31.065Z</time>
      </trkpt>
      <trkpt lat="48.65654" lon="-2.29735">
        <ele>33</ele>
        <time>2020-06-24T10:47:32.065Z</time>
      </trkpt>
      <trkpt lat="48.65654" lon="-2.29737">
        <ele>33</ele>
        <time>2020-06-24T10:47:33.065Z</time>
      </trkpt>
      <trkpt lat="48.65655" lon="-2.29738">
        <ele>33</ele>
        <time>2020-06-24T10:47:34.065Z</time>
      </trkpt>
      <trkpt lat="48.65655" lon="-2.2974">
        <ele>33</ele>
        <time>2020-06-24T10:47:35.065Z</time>
      </trkpt>
      <trkpt lat="48.65654" lon="-2.29742">
        <ele>33</ele>
        <time>2020-06-24T10:47:36.065Z</time>
      </trkpt>
      <trkpt lat="48.65654" lon="-2.29743">
        <ele>34</ele>
        <time>2020-06-24T10:47:37.065Z</time>
      </trkpt>
      <trkpt lat="48.65654" lon="-2.29744">
        <ele>33</ele>
        <time>2020-06-24T10:47:38.065Z</time>
      </trkpt>
      <trkpt lat="48.65653" lon="-2.29746">
        <ele>35</ele>
        <time>2020-06-24T10:47:39.065Z</time>
      </trkpt>
      <trkpt lat="48.65652" lon="-2.29746">
        <ele>36</ele>
        <time>2020-06-24T10:47:40.065Z</time>
      </trkpt>
      <trkpt lat="48.65651" lon="-2.29746">
        <ele>36</ele>
        <time>2020-06-24T10:47:41.065Z</time>
      </trkpt>
      <trkpt lat="48.6565" lon="-2.29746">
        <ele>36</ele>
        <time>2020-06-24T10:47:42.065Z</time>
      </trkpt>
      <trkpt lat="48.65649" lon="-2.29746">
        <ele>36</ele>
        <time>2020-06-24T10:47:43.065Z</time>
      </trkpt>
      <trkpt lat="48.65648" lon="-2.29746">
        <ele>36</ele>
        <time>2020-06-24T10:47:44.065Z</time>
      </trkpt>
      <trkpt lat="48.65647" lon="-2.29746">
        <ele>37</ele>
        <time>2020-06-24T10:47:45.065Z</time>
      </trkpt>
      <trkpt lat="48.65646" lon="-2.29746">
        <ele>37</ele>
        <time>2020-06-24T10:47:46.065Z</time>
      </trkpt>
      <trkpt lat="48.65645" lon="-2.29746">
        <ele>38</ele>
        <time>2020-06-24T10:47:47.065Z</time>
      </trkpt>
      <trkpt lat="48.65644" lon="-2.29746">
        <ele>40</ele>
        <time>2020-06-24T10:47:48.065Z</time>
      </trkpt>
      <trkpt lat="48.65643" lon="-2.29746">
        <ele>41</ele>
        <time>2020-06-24T10:47:49.065Z</time>
      </trkpt>
      <trkpt lat="48.65642" lon="-2.29746">
        <ele>41</ele>
        <time>2020-06-24T10:47:50.065Z</time>
      </trkpt>
      <trkpt lat="48.65641" lon="-2.29746">
        <ele>42</ele>
        <time>2020-06-24T10:47:51.065Z</time>
      </trkpt>
      <trkpt lat="48.6564" lon="-2.29747">
        <ele>41</ele>
        <time>2020-06-24T10:47:52.065Z</time>
      </trkpt>
      <trkpt lat="48.6564" lon="-2.29749">
        <ele>40</ele>
        <time>2020-06-24T10:47:53.065Z</time>
      </trkpt>
      <trkpt lat="48.6564" lon="-2.2975">
        <ele>40</ele>
        <time>2020-06-24T10:47:54.065Z</time>
      </trkpt>
      <trkpt lat="48.65639" lon="-2.29751">
        <ele>40</ele>
        <time>2020-06-24T10:47:55.065Z</time>
      </trkpt>
      <trkpt lat="48.65638" lon="-2.29752">
        <ele>40</ele>
        <time>2020-06-24T10:47:56.065Z</time>
      </trkpt>
      <trkpt lat="48.65637" lon="-2.29753">
        <ele>41</ele>
        <time>2020-06-24T10:47:57.065Z</time>
      </trkpt>
      <trkpt lat="48.65636" lon="-2.29754">
        <ele>42</ele>
        <time>2020-06-24T10:47:58.065Z</time>
      </trkpt>
      <trkpt lat="48.65636" lon="-2.29755">
        <ele>43</ele>
        <time>2020-06-24T10:47:59.065Z</time>
      </trkpt>
      <trkpt lat="48.65635" lon="-2.29755">
        <ele>43</ele>
        <time>2020-06-24T10:48:00.065Z</time>
      </trkpt>
      <trkpt lat="48.65634" lon="-2.29755">
        <ele>43</ele>
        <time>2020-06-24T10:48:01.065Z</time>
      </trkpt>
      <trkpt lat="48.65634" lon="-2.29755">
        <ele>43</ele>
        <time>2020-06-24T10:48:02.065Z</time>
      </trkpt>
      <trkpt lat="48.65633" lon="-2.29755">
        <ele>43</ele>
        <time>2020-06-24T10:48:03.065Z</time>
      </trkpt>
      <trkpt lat="48.65633" lon="-2.29755">
        <ele>43</ele>
        <time>2020-06-24T10:48:04.065Z</time>
      </trkpt>
      <trkpt lat="48.65632" lon="-2.29754">
        <ele>42</ele>
        <time>2020-06-24T10:48:05.065Z</time>
      </trkpt>
      <trkpt lat="48.65631" lon="-2.29754">
        <ele>42</ele>
        <time>2020-06-24T10:48:06.065Z</time>
      </trkpt>
      <trkpt lat="48.6563" lon="-2.29754">
        <ele>43</ele>
        <time>2020-06-24T10:48:07.065Z</time>
      </trkpt>
      <trkpt lat="48.65629" lon="-2.29753">
        <ele>43</ele>
        <time>2020-06-24T10:48:08.065Z</time>
      </trkpt>
      <trkpt lat="48.65628" lon="-2.29753">
        <ele>43</ele>
        <time>2020-06-24T10:48:09.065Z</time>
      </trkpt>
      <trkpt lat="48.65627" lon="-2.29753">
        <ele>42</ele>
        <time>2020-06-24T10:48:10.065Z</time>
      </trkpt>
      <trkpt lat="48.65627" lon="-2.29754">
        <ele>41</ele>
        <time>2020-06-24T10:48:11.065Z</time>
      </trkpt>
      <trkpt lat="48.65626" lon="-2.29754">
        <ele>41</ele>
        <time>2020-06-24T10:48:12.065Z</time>
      </trkpt>
      <trkpt lat="48.65625" lon="-2.29754">
        <ele>41</ele>
        <time>2020-06-24T10:48:13.065Z</time>
      </trkpt>
      <trkpt lat="48.65624" lon="-2.29754">
        <ele>41</ele>
        <time>2020-06-24T10:48:14.065Z</time>
      </trkpt>
      <trkpt lat="48.65623" lon="-2.29755">
        <ele>41</ele>
        <time>2020-06-24T10:48:15.065Z</time>
      </trkpt>
      <trkpt lat="48.65621" lon="-2.29756">
        <ele>41</ele>
        <time>2020-06-24T10:48:16.065Z</time>
      </trkpt>
      <trkpt lat="48.65619" lon="-2.29757">
        <ele>42</ele>
        <time>2020-06-24T10:48:17.065Z</time>
      </trkpt>
      <trkpt lat="48.65618" lon="-2.29757">
        <ele>42</ele>
        <time>2020-06-24T10:48:18.065Z</time>
      </trkpt>
      <trkpt lat="48.65617" lon="-2.29758">
        <ele>42</ele>
        <time>2020-06-24T10:48:19.065Z</time>
      </trkpt>
      <trkpt lat="48.65616" lon="-2.29759">
        <ele>42</ele>
        <time>2020-06-24T10:48:20.065Z</time>
      </trkpt>
      <trkpt lat="48.65615" lon="-2.2976">
        <ele>42</ele>
        <time>2020-06-24T10:48:21.065Z</time>
      </trkpt>
      <trkpt lat="48.65613" lon="-2.2976">
        <ele>41</ele>
        <time>2020-06-24T10:48:22.065Z</time>
      </trkpt>
      <trkpt lat="48.65612" lon="-2.29761">
        <ele>41</ele>
        <time>2020-06-24T10:48:23.065Z</time>
      </trkpt>
      <trkpt lat="48.65612" lon="-2.29761">
        <ele>40</ele>
        <time>2020-06-24T10:48:24.065Z</time>
      </trkpt>
      <trkpt lat="48.65611" lon="-2.29761">
        <ele>38</ele>
        <time>2020-06-24T10:48:25.065Z</time>
      </trkpt>
      <trkpt lat="48.6561" lon="-2.29761">
        <ele>38</ele>
        <time>2020-06-24T10:48:26.065Z</time>
      </trkpt>
      <trkpt lat="48.65609" lon="-2.29762">
        <ele>37</ele>
        <time>2020-06-24T10:48:27.065Z</time>
      </trkpt>
      <trkpt lat="48.65608" lon="-2.29762">
        <ele>37</ele>
        <time>2020-06-24T10:48:28.065Z</time>
      </trkpt>
      <trkpt lat="48.65607" lon="-2.29762">
        <ele>36</ele>
        <time>2020-06-24T10:48:29.065Z</time>
      </trkpt>
      <trkpt lat="48.65606" lon="-2.29762">
        <ele>35</ele>
        <time>2020-06-24T10:48:30.065Z</time>
      </trkpt>
      <trkpt lat="48.65604" lon="-2.29762">
        <ele>35</ele>
        <time>2020-06-24T10:48:31.065Z</time>
      </trkpt>
      <trkpt lat="48.65603" lon="-2.29763">
        <ele>34</ele>
        <time>2020-06-24T10:48:32.065Z</time>
      </trkpt>
      <trkpt lat="48.65602" lon="-2.29763">
        <ele>34</ele>
        <time>2020-06-24T10:48:33.065Z</time>
      </trkpt>
      <trkpt lat="48.656" lon="-2.29764">
        <ele>34</ele>
        <time>2020-06-24T10:48:34.065Z</time>
      </trkpt>
      <trkpt lat="48.65599" lon="-2.29765">
        <ele>34</ele>
        <time>2020-06-24T10:48:35.065Z</time>
      </trkpt>
      <trkpt lat="48.65598" lon="-2.29766">
        <ele>34</ele>
        <time>2020-06-24T10:48:36.065Z</time>
      </trkpt>
      <trkpt lat="48.65597" lon="-2.29767">
        <ele>34</ele>
        <time>2020-06-24T10:48:37.065Z</time>
      </trkpt>
      <trkpt lat="48.65596" lon="-2.29768">
        <ele>35</ele>
        <time>2020-06-24T10:48:38.065Z</time>
      </trkpt>
      <trkpt lat="48.65595" lon="-2.29769">
        <ele>35</ele>
        <time>2020-06-24T10:48:39.065Z</time>
      </trkpt>
      <trkpt lat="48.65595" lon="-2.2977">
        <ele>35</ele>
        <time>2020-06-24T10:48:40.065Z</time>
      </trkpt>
      <trkpt lat="48.65594" lon="-2.29771">
        <ele>36</ele>
        <time>2020-06-24T10:48:41.065Z</time>
      </trkpt>
      <trkpt lat="48.65593" lon="-2.29772">
        <ele>37</ele>
        <time>2020-06-24T10:48:42.065Z</time>
      </trkpt>
      <trkpt lat="48.65592" lon="-2.29774">
        <ele>37</ele>
        <time>2020-06-24T10:48:43.065Z</time>
      </trkpt>
      <trkpt lat="48.65591" lon="-2.29775">
        <ele>38</ele>
        <time>2020-06-24T10:48:44.065Z</time>
      </trkpt>
      <trkpt lat="48.6559" lon="-2.29776">
        <ele>37</ele>
        <time>2020-06-24T10:48:45.065Z</time>
      </trkpt>
      <trkpt lat="48.65589" lon="-2.29778">
        <ele>37</ele>
        <time>2020-06-24T10:48:46.065Z</time>
      </trkpt>
      <trkpt lat="48.65588" lon="-2.29779">
        <ele>37</ele>
        <time>2020-06-24T10:48:47.065Z</time>
      </trkpt>
      <trkpt lat="48.65587" lon="-2.2978">
        <ele>37</ele>
        <time>2020-06-24T10:48:48.065Z</time>
      </trkpt>
      <trkpt lat="48.65586" lon="-2.29781">
        <ele>37</ele>
        <time>2020-06-24T10:48:49.065Z</time>
      </trkpt>
      <trkpt lat="48.65585" lon="-2.29783">
        <ele>37</ele>
        <time>2020-06-24T10:48:50.065Z</time>
      </trkpt>
      <trkpt lat="48.65585" lon="-2.29784">
        <ele>37</ele>
        <time>2020-06-24T10:48:51.065Z</time>
      </trkpt>
      <trkpt lat="48.65584" lon="-2.29786">
        <ele>38</ele>
        <time>2020-06-24T10:48:52.065Z</time>
      </trkpt>
      <trkpt lat="48.65584" lon="-2.29787">
        <ele>38</ele>
        <time>2020-06-24T10:48:53.065Z</time>
      </trkpt>
      <trkpt lat="48.65583" lon="-2.29788">
        <ele>38</ele>
        <time>2020-06-24T10:48:54.065Z</time>
      </trkpt>
      <trkpt lat="48.65583" lon="-2.29789">
        <ele>39</ele>
        <time>2020-06-24T10:48:55.065Z</time>
      </trkpt>
      <trkpt lat="48.65582" lon="-2.29791">
        <ele>39</ele>
        <time>2020-06-24T10:48:56.065Z</time>
      </trkpt>
      <trkpt lat="48.65582" lon="-2.29792">
        <ele>40</ele>
        <time>2020-06-24T10:48:57.065Z</time>
      </trkpt>
      <trkpt lat="48.65581" lon="-2.29793">
        <ele>41</ele>
        <time>2020-06-24T10:48:58.065Z</time>
      </trkpt>
      <trkpt lat="48.65581" lon="-2.29794">
        <ele>42</ele>
        <time>2020-06-24T10:48:59.065Z</time>
      </trkpt>
      <trkpt lat="48.6558" lon="-2.29795">
        <ele>42</ele>
        <time>2020-06-24T10:49:00.065Z</time>
      </trkpt>
      <trkpt lat="48.6558" lon="-2.29796">
        <ele>43</ele>
        <time>2020-06-24T10:49:01.065Z</time>
      </trkpt>
      <trkpt lat="48.65579" lon="-2.29797">
        <ele>44</ele>
        <time>2020-06-24T10:49:02.065Z</time>
      </trkpt>
      <trkpt lat="48.65579" lon="-2.29798">
        <ele>45</ele>
        <time>2020-06-24T10:49:03.065Z</time>
      </trkpt>
      <trkpt lat="48.65578" lon="-2.29799">
        <ele>44</ele>
        <time>2020-06-24T10:49:04.065Z</time>
      </trkpt>
      <trkpt lat="48.65578" lon="-2.29801">
        <ele>44</ele>
        <time>2020-06-24T10:49:05.065Z</time>
      </trkpt>
      <trkpt lat="48.65578" lon="-2.29803">
        <ele>43</ele>
        <time>2020-06-24T10:49:06.065Z</time>
      </trkpt>
      <trkpt lat="48.65578" lon="-2.29804">
        <ele>44</ele>
        <time>2020-06-24T10:49:07.065Z</time>
      </trkpt>
      <trkpt lat="48.65578" lon="-2.29805">
        <ele>45</ele>
        <time>2020-06-24T10:49:08.065Z</time>
      </trkpt>
      <trkpt lat="48.65578" lon="-2.29807">
        <ele>45</ele>
        <time>2020-06-24T10:49:09.065Z</time>
      </trkpt>
      <trkpt lat="48.65577" lon="-2.29808">
        <ele>44</ele>
        <time>2020-06-24T10:49:10.065Z</time>
      </trkpt>
      <trkpt lat="48.65577" lon="-2.2981">
        <ele>45</ele>
        <time>2020-06-24T10:49:11.065Z</time>
      </trkpt>
      <trkpt lat="48.65577" lon="-2.29812">
        <ele>44</ele>
        <time>2020-06-24T10:49:12.065Z</time>
      </trkpt>
      <trkpt lat="48.65577" lon="-2.29813">
        <ele>42</ele>
        <time>2020-06-24T10:49:13.065Z</time>
      </trkpt>
      <trkpt lat="48.65577" lon="-2.29815">
        <ele>41</ele>
        <time>2020-06-24T10:49:14.065Z</time>
      </trkpt>
      <trkpt lat="48.65577" lon="-2.29817">
        <ele>41</ele>
        <time>2020-06-24T10:49:15.065Z</time>
      </trkpt>
      <trkpt lat="48.65577" lon="-2.29819">
        <ele>41</ele>
        <time>2020-06-24T10:49:16.065Z</time>
      </trkpt>
      <trkpt lat="48.65577" lon="-2.2982">
        <ele>41</ele>
        <time>2020-06-24T10:49:17.065Z</time>
      </trkpt>
      <trkpt lat="48.65576" lon="-2.29822">
        <ele>40</ele>
        <time>2020-06-24T10:49:18.065Z</time>
      </trkpt>
      <trkpt lat="48.65575" lon="-2.29825">
        <ele>38</ele>
        <time>2020-06-24T10:49:19.065Z</time>
      </trkpt>
      <trkpt lat="48.65574" lon="-2.29827">
        <ele>37</ele>
        <time>2020-06-24T10:49:20.065Z</time>
      </trkpt>
      <trkpt lat="48.65574" lon="-2.2983">
        <ele>37</ele>
        <time>2020-06-24T10:49:21.065Z</time>
      </trkpt>
      <trkpt lat="48.65573" lon="-2.29832">
        <ele>37</ele>
        <time>2020-06-24T10:49:22.065Z</time>
      </trkpt>
      <trkpt lat="48.65573" lon="-2.29834">
        <ele>37</ele>
        <time>2020-06-24T10:49:23.065Z</time>
      </trkpt>
      <trkpt lat="48.65573" lon="-2.29836">
        <ele>37</ele>
        <time>2020-06-24T10:49:24.065Z</time>
      </trkpt>
      <trkpt lat="48.65573" lon="-2.29838">
        <ele>38</ele>
        <time>2020-06-24T10:49:25.065Z</time>
      </trkpt>
      <trkpt lat="48.65572" lon="-2.2984">
        <ele>38</ele>
        <time>2020-06-24T10:49:26.065Z</time>
      </trkpt>
      <trkpt lat="48.65572" lon="-2.29843">
        <ele>39</ele>
        <time>2020-06-24T10:49:27.065Z</time>
      </trkpt>
      <trkpt lat="48.65571" lon="-2.29845">
        <ele>38</ele>
        <time>2020-06-24T10:49:28.065Z</time>
      </trkpt>
      <trkpt lat="48.65571" lon="-2.29846">
        <ele>39</ele>
        <time>2020-06-24T10:49:29.065Z</time>
      </trkpt>
      <trkpt lat="48.6557" lon="-2.29848">
        <ele>40</ele>
        <time>2020-06-24T10:49:30.065Z</time>
      </trkpt>
      <trkpt lat="48.6557" lon="-2.2985">
        <ele>40</ele>
        <time>2020-06-24T10:49:31.065Z</time>
      </trkpt>
      <trkpt lat="48.6557" lon="-2.29851">
        <ele>40</ele>
        <time>2020-06-24T10:49:32.065Z</time>
      </trkpt>
      <trkpt lat="48.65569" lon="-2.29853">
        <ele>39</ele>
        <time>2020-06-24T10:49:33.065Z</time>
      </trkpt>
      <trkpt lat="48.65569" lon="-2.29855">
        <ele>39</ele>
        <time>2020-06-24T10:49:34.065Z</time>
      </trkpt>
      <trkpt lat="48.6557" lon="-2.29857">
        <ele>39</ele>
        <time>2020-06-24T10:49:35.065Z</time>
      </trkpt>
      <trkpt lat="48.65569" lon="-2.29859">
        <ele>38</ele>
        <time>2020-06-24T10:49:36.065Z</time>
      </trkpt>
      <trkpt lat="48.65569" lon="-2.29862">
        <ele>38</ele>
        <time>2020-06-24T10:49:37.065Z</time>
      </trkpt>
      <trkpt lat="48.65569" lon="-2.29864">
        <ele>38</ele>
        <time>2020-06-24T10:49:38.065Z</time>
      </trkpt>
      <trkpt lat="48.65569" lon="-2.29865">
        <ele>39</ele>
        <time>2020-06-24T10:49:39.065Z</time>
      </trkpt>
      <trkpt lat="48.65569" lon="-2.29867">
        <ele>39</ele>
        <time>2020-06-24T10:49:40.065Z</time>
      </trkpt>
      <trkpt lat="48.65568" lon="-2.29868">
        <ele>39</ele>
        <time>2020-06-24T10:49:41.065Z</time>
      </trkpt>
      <trkpt lat="48.65568" lon="-2.29869">
        <ele>39</ele>
        <time>2020-06-24T10:49:42.065Z</time>
      </trkpt>
      <trkpt lat="48.65568" lon="-2.29871">
        <ele>40</ele>
        <time>2020-06-24T10:49:43.065Z</time>
      </trkpt>
      <trkpt lat="48.65568" lon="-2.29873">
        <ele>41</ele>
        <time>2020-06-24T10:49:44.065Z</time>
      </trkpt>
      <trkpt lat="48.65568" lon="-2.29874">
        <ele>42</ele>
        <time>2020-06-24T10:49:45.065Z</time>
      </trkpt>
      <trkpt lat="48.65568" lon="-2.29876">
        <ele>42</ele>
        <time>2020-06-24T10:49:46.065Z</time>
      </trkpt>
      <trkpt lat="48.65568" lon="-2.29878">
        <ele>43</ele>
        <time>2020-06-24T10:49:47.065Z</time>
      </trkpt>
      <trkpt lat="48.65568" lon="-2.29879">
        <ele>43</ele>
        <time>2020-06-24T10:49:48.065Z</time>
      </trkpt>
      <trkpt lat="48.65568" lon="-2.29881">
        <ele>43</ele>
        <time>2020-06-24T10:49:49.065Z</time>
      </trkpt>
      <trkpt lat="48.65568" lon="-2.29883">
        <ele>43</ele>
        <time>2020-06-24T10:49:50.065Z</time>
      </trkpt>
      <trkpt lat="48.65568" lon="-2.29885">
        <ele>44</ele>
        <time>2020-06-24T10:49:51.065Z</time>
      </trkpt>
      <trkpt lat="48.65568" lon="-2.29886">
        <ele>44</ele>
        <time>2020-06-24T10:49:52.065Z</time>
      </trkpt>
      <trkpt lat="48.65568" lon="-2.29888">
        <ele>44</ele>
        <time>2020-06-24T10:49:53.065Z</time>
      </trkpt>
      <trkpt lat="48.65568" lon="-2.2989">
        <ele>45</ele>
        <time>2020-06-24T10:49:54.065Z</time>
      </trkpt>
      <trkpt lat="48.65568" lon="-2.29892">
        <ele>46</ele>
        <time>2020-06-24T10:49:55.065Z</time>
      </trkpt>
      <trkpt lat="48.65568" lon="-2.29893">
        <ele>46</ele>
        <time>2020-06-24T10:49:56.065Z</time>
      </trkpt>
      <trkpt lat="48.65568" lon="-2.29895">
        <ele>45</ele>
        <time>2020-06-24T10:49:57.065Z</time>
      </trkpt>
      <trkpt lat="48.65568" lon="-2.29898">
        <ele>45</ele>
        <time>2020-06-24T10:49:58.065Z</time>
      </trkpt>
      <trkpt lat="48.65568" lon="-2.299">
        <ele>45</ele>
        <time>2020-06-24T10:49:59.065Z</time>
      </trkpt>
      <trkpt lat="48.65569" lon="-2.29902">
        <ele>45</ele>
        <time>2020-06-24T10:50:00.065Z</time>
      </trkpt>
      <trkpt lat="48.65569" lon="-2.29904">
        <ele>45</ele>
        <time>2020-06-24T10:50:01.065Z</time>
      </trkpt>
      <trkpt lat="48.65569" lon="-2.29906">
        <ele>45</ele>
        <time>2020-06-24T10:50:02.065Z</time>
      </trkpt>
      <trkpt lat="48.65569" lon="-2.29907">
        <ele>44</ele>
        <time>2020-06-24T10:50:03.065Z</time>
      </trkpt>
      <trkpt lat="48.65569" lon="-2.29909">
        <ele>44</ele>
        <time>2020-06-24T10:50:04.065Z</time>
      </trkpt>
      <trkpt lat="48.65569" lon="-2.2991">
        <ele>45</ele>
        <time>2020-06-24T10:50:05.065Z</time>
      </trkpt>
      <trkpt lat="48.65569" lon="-2.29912">
        <ele>45</ele>
        <time>2020-06-24T10:50:06.065Z</time>
      </trkpt>
      <trkpt lat="48.65569" lon="-2.29914">
        <ele>45</ele>
        <time>2020-06-24T10:50:07.065Z</time>
      </trkpt>
      <trkpt lat="48.65569" lon="-2.29915">
        <ele>46</ele>
        <time>2020-06-24T10:50:08.065Z</time>
      </trkpt>
      <trkpt lat="48.65569" lon="-2.29917">
        <ele>46</ele>
        <time>2020-06-24T10:50:09.065Z</time>
      </trkpt>
      <trkpt lat="48.65569" lon="-2.29918">
        <ele>47</ele>
        <time>2020-06-24T10:50:10.065Z</time>
      </trkpt>
      <trkpt lat="48.65569" lon="-2.2992">
        <ele>48</ele>
        <time>2020-06-24T10:50:11.065Z</time>
      </trkpt>
      <trkpt lat="48.65569" lon="-2.29921">
        <ele>48</ele>
        <time>2020-06-24T10:50:12.065Z</time>
      </trkpt>
      <trkpt lat="48.65569" lon="-2.29922">
        <ele>48</ele>
        <time>2020-06-24T10:50:13.065Z</time>
      </trkpt>
      <trkpt lat="48.65569" lon="-2.29924">
        <ele>49</ele>
        <time>2020-06-24T10:50:14.065Z</time>
      </trkpt>
      <trkpt lat="48.65569" lon="-2.29926">
        <ele>49</ele>
        <time>2020-06-24T10:50:15.065Z</time>
      </trkpt>
      <trkpt lat="48.65569" lon="-2.29927">
        <ele>49</ele>
        <time>2020-06-24T10:50:16.065Z</time>
      </trkpt>
      <trkpt lat="48.65569" lon="-2.29929">
        <ele>48</ele>
        <time>2020-06-24T10:50:17.065Z</time>
      </trkpt>
      <trkpt lat="48.65569" lon="-2.29931">
        <ele>48</ele>
        <time>2020-06-24T10:50:18.065Z</time>
      </trkpt>
      <trkpt lat="48.6557" lon="-2.29933">
        <ele>48</ele>
        <time>2020-06-24T10:50:19.065Z</time>
      </trkpt>
      <trkpt lat="48.6557" lon="-2.29935">
        <ele>48</ele>
        <time>2020-06-24T10:50:20.065Z</time>
      </trkpt>
      <trkpt lat="48.6557" lon="-2.29937">
        <ele>48</ele>
        <time>2020-06-24T10:50:21.065Z</time>
      </trkpt>
      <trkpt lat="48.6557" lon="-2.29938">
        <ele>48</ele>
        <time>2020-06-24T10:50:22.065Z</time>
      </trkpt>
      <trkpt lat="48.6557" lon="-2.29939">
        <ele>47</ele>
        <time>2020-06-24T10:50:23.065Z</time>
      </trkpt>
      <trkpt lat="48.65571" lon="-2.2994">
        <ele>47</ele>
        <time>2020-06-24T10:50:24.065Z</time>
      </trkpt>
      <trkpt lat="48.65571" lon="-2.29941">
        <ele>47</ele>
        <time>2020-06-24T10:50:25.065Z</time>
      </trkpt>
      <trkpt lat="48.65571" lon="-2.29942">
        <ele>47</ele>
        <time>2020-06-24T10:50:26.065Z</time>
      </trkpt>
      <trkpt lat="48.6557" lon="-2.29943">
        <ele>47</ele>
        <time>2020-06-24T10:50:27.065Z</time>
      </trkpt>
      <trkpt lat="48.6557" lon="-2.29944">
        <ele>46</ele>
        <time>2020-06-24T10:50:28.065Z</time>
      </trkpt>
      <trkpt lat="48.6557" lon="-2.29945">
        <ele>46</ele>
        <time>2020-06-24T10:50:29.065Z</time>
      </trkpt>
      <trkpt lat="48.65569" lon="-2.29947">
        <ele>46</ele>
        <time>2020-06-24T10:50:30.065Z</time>
      </trkpt>
      <trkpt lat="48.65569" lon="-2.29948">
        <ele>46</ele>
        <time>2020-06-24T10:50:31.065Z</time>
      </trkpt>
      <trkpt lat="48.65568" lon="-2.29949">
        <ele>46</ele>
        <time>2020-06-24T10:50:32.065Z</time>
      </trkpt>
      <trkpt lat="48.65568" lon="-2.29949">
        <ele>45</ele>
        <time>2020-06-24T10:50:33.065Z</time>
      </trkpt>
      <trkpt lat="48.65567" lon="-2.2995">
        <ele>46</ele>
        <time>2020-06-24T10:50:34.065Z</time>
      </trkpt>
      <trkpt lat="48.65566" lon="-2.29951">
        <ele>45</ele>
        <time>2020-06-24T10:50:35.065Z</time>
      </trkpt>
      <trkpt lat="48.65565" lon="-2.29951">
        <ele>45</ele>
        <time>2020-06-24T10:50:36.065Z</time>
      </trkpt>
      <trkpt lat="48.65564" lon="-2.29952">
        <ele>46</ele>
        <time>2020-06-24T10:50:37.065Z</time>
      </trkpt>
      <trkpt lat="48.65564" lon="-2.29952">
        <ele>46</ele>
        <time>2020-06-24T10:50:38.065Z</time>
      </trkpt>
      <trkpt lat="48.65563" lon="-2.29952">
        <ele>45</ele>
        <time>2020-06-24T10:50:39.065Z</time>
      </trkpt>
      <trkpt lat="48.65562" lon="-2.29952">
        <ele>45</ele>
        <time>2020-06-24T10:50:40.065Z</time>
      </trkpt>
      <trkpt lat="48.65561" lon="-2.29952">
        <ele>45</ele>
        <time>2020-06-24T10:50:41.065Z</time>
      </trkpt>
      <trkpt lat="48.6556" lon="-2.29952">
        <ele>45</ele>
        <time>2020-06-24T10:50:42.065Z</time>
      </trkpt>
      <trkpt lat="48.6556" lon="-2.29952">
        <ele>44</ele>
        <time>2020-06-24T10:50:43.065Z</time>
      </trkpt>
      <trkpt lat="48.6556" lon="-2.29952">
        <ele>44</ele>
        <time>2020-06-24T10:50:44.065Z</time>
      </trkpt>
      <trkpt lat="48.6556" lon="-2.29952">
        <ele>44</ele>
        <time>2020-06-24T10:50:45.065Z</time>
      </trkpt>
      <trkpt lat="48.6556" lon="-2.29952">
        <ele>44</ele>
        <time>2020-06-24T10:50:46.065Z</time>
      </trkpt>
      <trkpt lat="48.65559" lon="-2.29952">
        <ele>43</ele>
        <time>2020-06-24T10:50:47.065Z</time>
      </trkpt>
      <trkpt lat="48.65559" lon="-2.29952">
        <ele>44</ele>
        <time>2020-06-24T10:50:48.065Z</time>
      </trkpt>
      <trkpt lat="48.65559" lon="-2.29953">
        <ele>44</ele>
        <time>2020-06-24T10:50:49.065Z</time>
      </trkpt>
      <trkpt lat="48.65558" lon="-2.29953">
        <ele>44</ele>
        <time>2020-06-24T10:50:50.065Z</time>
      </trkpt>
      <trkpt lat="48.65558" lon="-2.29953">
        <ele>43</ele>
        <time>2020-06-24T10:50:51.065Z</time>
      </trkpt>
      <trkpt lat="48.65558" lon="-2.29953">
        <ele>44</ele>
        <time>2020-06-24T10:50:52.065Z</time>
      </trkpt>
      <trkpt lat="48.65555" lon="-2.29949">
        <ele>43</ele>
        <time>2020-06-24T10:50:53.073Z</time>
      </trkpt>
      <trkpt lat="48.65554" lon="-2.29948">
        <ele>43</ele>
        <time>2020-06-24T10:50:54.073Z</time>
      </trkpt>
      <trkpt lat="48.65553" lon="-2.29948">
        <ele>43</ele>
        <time>2020-06-24T10:50:55.073Z</time>
      </trkpt>
      <trkpt lat="48.65553" lon="-2.29948">
        <ele>43</ele>
        <time>2020-06-24T10:50:56.073Z</time>
      </trkpt>
      <trkpt lat="48.65551" lon="-2.29948">
        <ele>44</ele>
        <time>2020-06-24T10:50:57.073Z</time>
      </trkpt>
      <trkpt lat="48.6555" lon="-2.29948">
        <ele>44</ele>
        <time>2020-06-24T10:50:58.073Z</time>
      </trkpt>
      <trkpt lat="48.65549" lon="-2.29948">
        <ele>44</ele>
        <time>2020-06-24T10:50:59.073Z</time>
      </trkpt>
      <trkpt lat="48.65548" lon="-2.29947">
        <ele>44</ele>
        <time>2020-06-24T10:51:00.073Z</time>
      </trkpt>
      <trkpt lat="48.65548" lon="-2.29947">
        <ele>45</ele>
        <time>2020-06-24T10:51:01.073Z</time>
      </trkpt>
      <trkpt lat="48.65547" lon="-2.29947">
        <ele>45</ele>
        <time>2020-06-24T10:51:02.073Z</time>
      </trkpt>
      <trkpt lat="48.65547" lon="-2.29946">
        <ele>45</ele>
        <time>2020-06-24T10:51:03.073Z</time>
      </trkpt>
      <trkpt lat="48.65546" lon="-2.29946">
        <ele>46</ele>
        <time>2020-06-24T10:51:04.073Z</time>
      </trkpt>
      <trkpt lat="48.65546" lon="-2.29946">
        <ele>46</ele>
        <time>2020-06-24T10:51:05.073Z</time>
      </trkpt>
      <trkpt lat="48.65545" lon="-2.29945">
        <ele>46</ele>
        <time>2020-06-24T10:51:06.073Z</time>
      </trkpt>
      <trkpt lat="48.65544" lon="-2.29945">
        <ele>47</ele>
        <time>2020-06-24T10:51:07.073Z</time>
      </trkpt>
      <trkpt lat="48.65543" lon="-2.29945">
        <ele>48</ele>
        <time>2020-06-24T10:51:08.073Z</time>
      </trkpt>
      <trkpt lat="48.65542" lon="-2.29945">
        <ele>47</ele>
        <time>2020-06-24T10:51:09.073Z</time>
      </trkpt>
      <trkpt lat="48.65541" lon="-2.29945">
        <ele>47</ele>
        <time>2020-06-24T10:51:10.073Z</time>
      </trkpt>
      <trkpt lat="48.6554" lon="-2.29944">
        <ele>47</ele>
        <time>2020-06-24T10:51:11.073Z</time>
      </trkpt>
      <trkpt lat="48.65539" lon="-2.29944">
        <ele>47</ele>
        <time>2020-06-24T10:51:12.073Z</time>
      </trkpt>
      <trkpt lat="48.65539" lon="-2.29943">
        <ele>47</ele>
        <time>2020-06-24T10:51:13.073Z</time>
      </trkpt>
      <trkpt lat="48.65538" lon="-2.29942">
        <ele>47</ele>
        <time>2020-06-24T10:51:14.073Z</time>
      </trkpt>
      <trkpt lat="48.65538" lon="-2.29942">
        <ele>48</ele>
        <time>2020-06-24T10:51:15.073Z</time>
      </trkpt>
      <trkpt lat="48.65537" lon="-2.29941">
        <ele>49</ele>
        <time>2020-06-24T10:51:16.073Z</time>
      </trkpt>
      <trkpt lat="48.65537" lon="-2.29941">
        <ele>50</ele>
        <time>2020-06-24T10:51:17.073Z</time>
      </trkpt>
      <trkpt lat="48.65536" lon="-2.2994">
        <ele>50</ele>
        <time>2020-06-24T10:51:18.073Z</time>
      </trkpt>
      <trkpt lat="48.65535" lon="-2.2994">
        <ele>52</ele>
        <time>2020-06-24T10:51:19.073Z</time>
      </trkpt>
      <trkpt lat="48.65533" lon="-2.2994">
        <ele>53</ele>
        <time>2020-06-24T10:51:20.073Z</time>
      </trkpt>
      <trkpt lat="48.65532" lon="-2.29939">
        <ele>54</ele>
        <time>2020-06-24T10:51:21.073Z</time>
      </trkpt>
      <trkpt lat="48.65532" lon="-2.29939">
        <ele>54</ele>
        <time>2020-06-24T10:51:22.073Z</time>
      </trkpt>
      <trkpt lat="48.65531" lon="-2.29938">
        <ele>55</ele>
        <time>2020-06-24T10:51:23.073Z</time>
      </trkpt>
      <trkpt lat="48.6553" lon="-2.29938">
        <ele>55</ele>
        <time>2020-06-24T10:51:24.073Z</time>
      </trkpt>
      <trkpt lat="48.6553" lon="-2.29937">
        <ele>56</ele>
        <time>2020-06-24T10:51:25.073Z</time>
      </trkpt>
      <trkpt lat="48.65529" lon="-2.29937">
        <ele>55</ele>
        <time>2020-06-24T10:51:26.073Z</time>
      </trkpt>
      <trkpt lat="48.65528" lon="-2.29937">
        <ele>54</ele>
        <time>2020-06-24T10:51:27.073Z</time>
      </trkpt>
      <trkpt lat="48.65527" lon="-2.29937">
        <ele>54</ele>
        <time>2020-06-24T10:51:28.073Z</time>
      </trkpt>
      <trkpt lat="48.65527" lon="-2.29937">
        <ele>54</ele>
        <time>2020-06-24T10:51:29.073Z</time>
      </trkpt>
      <trkpt lat="48.65526" lon="-2.29937">
        <ele>54</ele>
        <time>2020-06-24T10:51:30.073Z</time>
      </trkpt>
      <trkpt lat="48.65525" lon="-2.29936">
        <ele>53</ele>
        <time>2020-06-24T10:51:31.073Z</time>
      </trkpt>
      <trkpt lat="48.65524" lon="-2.29935">
        <ele>53</ele>
        <time>2020-06-24T10:51:32.073Z</time>
      </trkpt>
      <trkpt lat="48.65523" lon="-2.29934">
        <ele>53</ele>
        <time>2020-06-24T10:51:33.073Z</time>
      </trkpt>
      <trkpt lat="48.65521" lon="-2.29933">
        <ele>54</ele>
        <time>2020-06-24T10:51:34.073Z</time>
      </trkpt>
      <trkpt lat="48.6552" lon="-2.29933">
        <ele>54</ele>
        <time>2020-06-24T10:51:35.073Z</time>
      </trkpt>
      <trkpt lat="48.65519" lon="-2.29932">
        <ele>54</ele>
        <time>2020-06-24T10:51:36.073Z</time>
      </trkpt>
      <trkpt lat="48.65518" lon="-2.29931">
        <ele>54</ele>
        <time>2020-06-24T10:51:37.073Z</time>
      </trkpt>
      <trkpt lat="48.65517" lon="-2.29931">
        <ele>54</ele>
        <time>2020-06-24T10:51:38.073Z</time>
      </trkpt>
      <trkpt lat="48.65516" lon="-2.2993">
        <ele>54</ele>
        <time>2020-06-24T10:51:39.073Z</time>
      </trkpt>
      <trkpt lat="48.65514" lon="-2.2993">
        <ele>53</ele>
        <time>2020-06-24T10:51:40.073Z</time>
      </trkpt>
      <trkpt lat="48.65513" lon="-2.29929">
        <ele>54</ele>
        <time>2020-06-24T10:51:41.073Z</time>
      </trkpt>
      <trkpt lat="48.65512" lon="-2.29928">
        <ele>53</ele>
        <time>2020-06-24T10:51:42.073Z</time>
      </trkpt>
      <trkpt lat="48.65511" lon="-2.29927">
        <ele>52</ele>
        <time>2020-06-24T10:51:43.073Z</time>
      </trkpt>
      <trkpt lat="48.6551" lon="-2.29926">
        <ele>52</ele>
        <time>2020-06-24T10:51:44.073Z</time>
      </trkpt>
      <trkpt lat="48.65509" lon="-2.29925">
        <ele>52</ele>
        <time>2020-06-24T10:51:45.073Z</time>
      </trkpt>
      <trkpt lat="48.65508" lon="-2.29924">
        <ele>52</ele>
        <time>2020-06-24T10:51:46.073Z</time>
      </trkpt>
      <trkpt lat="48.65507" lon="-2.29922">
        <ele>52</ele>
        <time>2020-06-24T10:51:47.073Z</time>
      </trkpt>
      <trkpt lat="48.65506" lon="-2.29921">
        <ele>52</ele>
        <time>2020-06-24T10:51:48.073Z</time>
      </trkpt>
      <trkpt lat="48.65505" lon="-2.29919">
        <ele>51</ele>
        <time>2020-06-24T10:51:49.073Z</time>
      </trkpt>
      <trkpt lat="48.65505" lon="-2.29918">
        <ele>51</ele>
        <time>2020-06-24T10:51:50.073Z</time>
      </trkpt>
      <trkpt lat="48.65504" lon="-2.29917">
        <ele>51</ele>
        <time>2020-06-24T10:51:51.073Z</time>
      </trkpt>
      <trkpt lat="48.65503" lon="-2.29916">
        <ele>51</ele>
        <time>2020-06-24T10:51:52.073Z</time>
      </trkpt>
      <trkpt lat="48.65502" lon="-2.29916">
        <ele>51</ele>
        <time>2020-06-24T10:51:53.073Z</time>
      </trkpt>
      <trkpt lat="48.65501" lon="-2.29916">
        <ele>52</ele>
        <time>2020-06-24T10:51:54.073Z</time>
      </trkpt>
      <trkpt lat="48.655" lon="-2.29917">
        <ele>52</ele>
        <time>2020-06-24T10:51:55.073Z</time>
      </trkpt>
      <trkpt lat="48.65499" lon="-2.29917">
        <ele>52</ele>
        <time>2020-06-24T10:51:56.073Z</time>
      </trkpt>
      <trkpt lat="48.65499" lon="-2.29918">
        <ele>52</ele>
        <time>2020-06-24T10:51:57.073Z</time>
      </trkpt>
      <trkpt lat="48.65498" lon="-2.29918">
        <ele>52</ele>
        <time>2020-06-24T10:51:58.073Z</time>
      </trkpt>
      <trkpt lat="48.65497" lon="-2.29918">
        <ele>52</ele>
        <time>2020-06-24T10:51:59.073Z</time>
      </trkpt>
      <trkpt lat="48.65496" lon="-2.29918">
        <ele>51</ele>
        <time>2020-06-24T10:52:00.073Z</time>
      </trkpt>
      <trkpt lat="48.65495" lon="-2.29918">
        <ele>52</ele>
        <time>2020-06-24T10:52:01.073Z</time>
      </trkpt>
      <trkpt lat="48.65494" lon="-2.29917">
        <ele>52</ele>
        <time>2020-06-24T10:52:02.073Z</time>
      </trkpt>
      <trkpt lat="48.65493" lon="-2.29917">
        <ele>52</ele>
        <time>2020-06-24T10:52:03.073Z</time>
      </trkpt>
      <trkpt lat="48.65491" lon="-2.29916">
        <ele>51</ele>
        <time>2020-06-24T10:52:04.073Z</time>
      </trkpt>
      <trkpt lat="48.6549" lon="-2.29915">
        <ele>51</ele>
        <time>2020-06-24T10:52:05.073Z</time>
      </trkpt>
      <trkpt lat="48.6549" lon="-2.29914">
        <ele>51</ele>
        <time>2020-06-24T10:52:06.073Z</time>
      </trkpt>
      <trkpt lat="48.65489" lon="-2.29912">
        <ele>51</ele>
        <time>2020-06-24T10:52:07.073Z</time>
      </trkpt>
      <trkpt lat="48.65488" lon="-2.29912">
        <ele>51</ele>
        <time>2020-06-24T10:52:08.073Z</time>
      </trkpt>
      <trkpt lat="48.65487" lon="-2.29911">
        <ele>51</ele>
        <time>2020-06-24T10:52:09.073Z</time>
      </trkpt>
      <trkpt lat="48.65485" lon="-2.29911">
        <ele>51</ele>
        <time>2020-06-24T10:52:10.073Z</time>
      </trkpt>
      <trkpt lat="48.65485" lon="-2.2991">
        <ele>50</ele>
        <time>2020-06-24T10:52:11.073Z</time>
      </trkpt>
      <trkpt lat="48.65484" lon="-2.29909">
        <ele>50</ele>
        <time>2020-06-24T10:52:12.073Z</time>
      </trkpt>
      <trkpt lat="48.65483" lon="-2.29908">
        <ele>51</ele>
        <time>2020-06-24T10:52:13.073Z</time>
      </trkpt>
      <trkpt lat="48.65482" lon="-2.29907">
        <ele>51</ele>
        <time>2020-06-24T10:52:14.073Z</time>
      </trkpt>
      <trkpt lat="48.65481" lon="-2.29906">
        <ele>51</ele>
        <time>2020-06-24T10:52:15.073Z</time>
      </trkpt>
      <trkpt lat="48.6548" lon="-2.29905">
        <ele>51</ele>
        <time>2020-06-24T10:52:16.073Z</time>
      </trkpt>
      <trkpt lat="48.65479" lon="-2.29904">
        <ele>51</ele>
        <time>2020-06-24T10:52:17.073Z</time>
      </trkpt>
      <trkpt lat="48.65478" lon="-2.29903">
        <ele>51</ele>
        <time>2020-06-24T10:52:18.073Z</time>
      </trkpt>
      <trkpt lat="48.65478" lon="-2.29902">
        <ele>51</ele>
        <time>2020-06-24T10:52:19.073Z</time>
      </trkpt>
      <trkpt lat="48.65477" lon="-2.29901">
        <ele>51</ele>
        <time>2020-06-24T10:52:20.073Z</time>
      </trkpt>
      <trkpt lat="48.65476" lon="-2.29901">
        <ele>51</ele>
        <time>2020-06-24T10:52:21.073Z</time>
      </trkpt>
      <trkpt lat="48.65475" lon="-2.299">
        <ele>50</ele>
        <time>2020-06-24T10:52:22.073Z</time>
      </trkpt>
      <trkpt lat="48.65474" lon="-2.29899">
        <ele>51</ele>
        <time>2020-06-24T10:52:23.073Z</time>
      </trkpt>
      <trkpt lat="48.65473" lon="-2.29898">
        <ele>51</ele>
        <time>2020-06-24T10:52:24.073Z</time>
      </trkpt>
      <trkpt lat="48.65472" lon="-2.29897">
        <ele>51</ele>
        <time>2020-06-24T10:52:25.073Z</time>
      </trkpt>
      <trkpt lat="48.65471" lon="-2.29896">
        <ele>51</ele>
        <time>2020-06-24T10:52:26.073Z</time>
      </trkpt>
      <trkpt lat="48.6547" lon="-2.29894">
        <ele>51</ele>
        <time>2020-06-24T10:52:27.073Z</time>
      </trkpt>
      <trkpt lat="48.65469" lon="-2.29893">
        <ele>51</ele>
        <time>2020-06-24T10:52:28.073Z</time>
      </trkpt>
      <trkpt lat="48.65468" lon="-2.29892">
        <ele>51</ele>
        <time>2020-06-24T10:52:29.073Z</time>
      </trkpt>
      <trkpt lat="48.65467" lon="-2.29891">
        <ele>50</ele>
        <time>2020-06-24T10:52:30.073Z</time>
      </trkpt>
      <trkpt lat="48.65466" lon="-2.2989">
        <ele>50</ele>
        <time>2020-06-24T10:52:31.073Z</time>
      </trkpt>
      <trkpt lat="48.65464" lon="-2.29889">
        <ele>50</ele>
        <time>2020-06-24T10:52:32.073Z</time>
      </trkpt>
      <trkpt lat="48.65463" lon="-2.29888">
        <ele>50</ele>
        <time>2020-06-24T10:52:33.073Z</time>
      </trkpt>
      <trkpt lat="48.65462" lon="-2.29887">
        <ele>50</ele>
        <time>2020-06-24T10:52:34.073Z</time>
      </trkpt>
      <trkpt lat="48.65461" lon="-2.29885">
        <ele>50</ele>
        <time>2020-06-24T10:52:35.073Z</time>
      </trkpt>
      <trkpt lat="48.6546" lon="-2.29884">
        <ele>50</ele>
        <time>2020-06-24T10:52:36.073Z</time>
      </trkpt>
      <trkpt lat="48.65459" lon="-2.29883">
        <ele>50</ele>
        <time>2020-06-24T10:52:37.073Z</time>
      </trkpt>
      <trkpt lat="48.65458" lon="-2.29882">
        <ele>50</ele>
        <time>2020-06-24T10:52:38.073Z</time>
      </trkpt>
      <trkpt lat="48.65457" lon="-2.2988">
        <ele>50</ele>
        <time>2020-06-24T10:52:39.073Z</time>
      </trkpt>
      <trkpt lat="48.65456" lon="-2.29879">
        <ele>51</ele>
        <time>2020-06-24T10:52:40.073Z</time>
      </trkpt>
      <trkpt lat="48.65455" lon="-2.29877">
        <ele>51</ele>
        <time>2020-06-24T10:52:41.073Z</time>
      </trkpt>
      <trkpt lat="48.65454" lon="-2.29876">
        <ele>50</ele>
        <time>2020-06-24T10:52:42.073Z</time>
      </trkpt>
      <trkpt lat="48.65453" lon="-2.29874">
        <ele>50</ele>
        <time>2020-06-24T10:52:43.073Z</time>
      </trkpt>
      <trkpt lat="48.65452" lon="-2.29873">
        <ele>49</ele>
        <time>2020-06-24T10:52:44.073Z</time>
      </trkpt>
      <trkpt lat="48.65452" lon="-2.29871">
        <ele>49</ele>
        <time>2020-06-24T10:52:45.073Z</time>
      </trkpt>
      <trkpt lat="48.65451" lon="-2.2987">
        <ele>49</ele>
        <time>2020-06-24T10:52:46.073Z</time>
      </trkpt>
      <trkpt lat="48.6545" lon="-2.29868">
        <ele>48</ele>
        <time>2020-06-24T10:52:47.073Z</time>
      </trkpt>
      <trkpt lat="48.65449" lon="-2.29867">
        <ele>48</ele>
        <time>2020-06-24T10:52:48.073Z</time>
      </trkpt>
      <trkpt lat="48.65448" lon="-2.29865">
        <ele>48</ele>
        <time>2020-06-24T10:52:49.073Z</time>
      </trkpt>
      <trkpt lat="48.65447" lon="-2.29864">
        <ele>48</ele>
        <time>2020-06-24T10:52:50.073Z</time>
      </trkpt>
      <trkpt lat="48.65447" lon="-2.29862">
        <ele>48</ele>
        <time>2020-06-24T10:52:51.073Z</time>
      </trkpt>
      <trkpt lat="48.65447" lon="-2.29861">
        <ele>48</ele>
        <time>2020-06-24T10:52:52.073Z</time>
      </trkpt>
      <trkpt lat="48.65446" lon="-2.2986">
        <ele>48</ele>
        <time>2020-06-24T10:52:53.073Z</time>
      </trkpt>
      <trkpt lat="48.65446" lon="-2.29859">
        <ele>47</ele>
        <time>2020-06-24T10:52:54.073Z</time>
      </trkpt>
      <trkpt lat="48.65446" lon="-2.29858">
        <ele>46</ele>
        <time>2020-06-24T10:52:55.073Z</time>
      </trkpt>
      <trkpt lat="48.65445" lon="-2.29857">
        <ele>47</ele>
        <time>2020-06-24T10:52:56.073Z</time>
      </trkpt>
      <trkpt lat="48.65444" lon="-2.29857">
        <ele>46</ele>
        <time>2020-06-24T10:52:57.073Z</time>
      </trkpt>
      <trkpt lat="48.65444" lon="-2.29856">
        <ele>46</ele>
        <time>2020-06-24T10:52:58.073Z</time>
      </trkpt>
      <trkpt lat="48.65442" lon="-2.29855">
        <ele>46</ele>
        <time>2020-06-24T10:52:59.073Z</time>
      </trkpt>
      <trkpt lat="48.65441" lon="-2.29854">
        <ele>46</ele>
        <time>2020-06-24T10:53:00.073Z</time>
      </trkpt>
      <trkpt lat="48.6544" lon="-2.29853">
        <ele>46</ele>
        <time>2020-06-24T10:53:01.073Z</time>
      </trkpt>
      <trkpt lat="48.65438" lon="-2.29852">
        <ele>46</ele>
        <time>2020-06-24T10:53:02.073Z</time>
      </trkpt>
      <trkpt lat="48.65437" lon="-2.29852">
        <ele>46</ele>
        <time>2020-06-24T10:53:03.073Z</time>
      </trkpt>
      <trkpt lat="48.65436" lon="-2.29852">
        <ele>46</ele>
        <time>2020-06-24T10:53:04.073Z</time>
      </trkpt>
      <trkpt lat="48.65435" lon="-2.29852">
        <ele>47</ele>
        <time>2020-06-24T10:53:05.073Z</time>
      </trkpt>
      <trkpt lat="48.65434" lon="-2.29852">
        <ele>47</ele>
        <time>2020-06-24T10:53:06.073Z</time>
      </trkpt>
      <trkpt lat="48.65433" lon="-2.29853">
        <ele>47</ele>
        <time>2020-06-24T10:53:07.073Z</time>
      </trkpt>
      <trkpt lat="48.65432" lon="-2.29854">
        <ele>47</ele>
        <time>2020-06-24T10:53:08.073Z</time>
      </trkpt>
      <trkpt lat="48.6543" lon="-2.29854">
        <ele>48</ele>
        <time>2020-06-24T10:53:09.073Z</time>
      </trkpt>
      <trkpt lat="48.65429" lon="-2.29855">
        <ele>48</ele>
        <time>2020-06-24T10:53:10.073Z</time>
      </trkpt>
      <trkpt lat="48.65428" lon="-2.29855">
        <ele>48</ele>
        <time>2020-06-24T10:53:11.073Z</time>
      </trkpt>
      <trkpt lat="48.65426" lon="-2.29856">
        <ele>48</ele>
        <time>2020-06-24T10:53:12.073Z</time>
      </trkpt>
      <trkpt lat="48.65425" lon="-2.29856">
        <ele>48</ele>
        <time>2020-06-24T10:53:13.073Z</time>
      </trkpt>
      <trkpt lat="48.65424" lon="-2.29856">
        <ele>49</ele>
        <time>2020-06-24T10:53:14.073Z</time>
      </trkpt>
      <trkpt lat="48.65423" lon="-2.29856">
        <ele>49</ele>
        <time>2020-06-24T10:53:15.073Z</time>
      </trkpt>
      <trkpt lat="48.65421" lon="-2.29857">
        <ele>49</ele>
        <time>2020-06-24T10:53:16.073Z</time>
      </trkpt>
      <trkpt lat="48.6542" lon="-2.29857">
        <ele>49</ele>
        <time>2020-06-24T10:53:17.073Z</time>
      </trkpt>
      <trkpt lat="48.65419" lon="-2.29856">
        <ele>49</ele>
        <time>2020-06-24T10:53:18.073Z</time>
      </trkpt>
      <trkpt lat="48.65419" lon="-2.29856">
        <ele>49</ele>
        <time>2020-06-24T10:53:19.073Z</time>
      </trkpt>
      <trkpt lat="48.65417" lon="-2.29856">
        <ele>49</ele>
        <time>2020-06-24T10:53:20.073Z</time>
      </trkpt>
      <trkpt lat="48.65416" lon="-2.29856">
        <ele>49</ele>
        <time>2020-06-24T10:53:21.073Z</time>
      </trkpt>
      <trkpt lat="48.65415" lon="-2.29856">
        <ele>50</ele>
        <time>2020-06-24T10:53:22.073Z</time>
      </trkpt>
      <trkpt lat="48.65413" lon="-2.29856">
        <ele>50</ele>
        <time>2020-06-24T10:53:23.073Z</time>
      </trkpt>
      <trkpt lat="48.65412" lon="-2.29856">
        <ele>50</ele>
        <time>2020-06-24T10:53:24.073Z</time>
      </trkpt>
      <trkpt lat="48.65411" lon="-2.29856">
        <ele>50</ele>
        <time>2020-06-24T10:53:25.073Z</time>
      </trkpt>
      <trkpt lat="48.6541" lon="-2.29856">
        <ele>50</ele>
        <time>2020-06-24T10:53:26.073Z</time>
      </trkpt>
      <trkpt lat="48.65409" lon="-2.29856">
        <ele>50</ele>
        <time>2020-06-24T10:53:27.073Z</time>
      </trkpt>
      <trkpt lat="48.65407" lon="-2.29856">
        <ele>49</ele>
        <time>2020-06-24T10:53:28.073Z</time>
      </trkpt>
      <trkpt lat="48.65406" lon="-2.29856">
        <ele>50</ele>
        <time>2020-06-24T10:53:29.073Z</time>
      </trkpt>
      <trkpt lat="48.65405" lon="-2.29856">
        <ele>49</ele>
        <time>2020-06-24T10:53:30.073Z</time>
      </trkpt>
      <trkpt lat="48.65403" lon="-2.29856">
        <ele>49</ele>
        <time>2020-06-24T10:53:31.073Z</time>
      </trkpt>
      <trkpt lat="48.65402" lon="-2.29856">
        <ele>49</ele>
        <time>2020-06-24T10:53:32.073Z</time>
      </trkpt>
      <trkpt lat="48.65401" lon="-2.29856">
        <ele>49</ele>
        <time>2020-06-24T10:53:33.073Z</time>
      </trkpt>
      <trkpt lat="48.654" lon="-2.29856">
        <ele>49</ele>
        <time>2020-06-24T10:53:34.073Z</time>
      </trkpt>
      <trkpt lat="48.65399" lon="-2.29856">
        <ele>49</ele>
        <time>2020-06-24T10:53:35.073Z</time>
      </trkpt>
      <trkpt lat="48.65397" lon="-2.29856">
        <ele>49</ele>
        <time>2020-06-24T10:53:36.073Z</time>
      </trkpt>
      <trkpt lat="48.65396" lon="-2.29855">
        <ele>49</ele>
        <time>2020-06-24T10:53:37.073Z</time>
      </trkpt>
      <trkpt lat="48.65395" lon="-2.29855">
        <ele>49</ele>
        <time>2020-06-24T10:53:38.073Z</time>
      </trkpt>
      <trkpt lat="48.65393" lon="-2.29854">
        <ele>49</ele>
        <time>2020-06-24T10:53:39.073Z</time>
      </trkpt>
      <trkpt lat="48.65392" lon="-2.29854">
        <ele>49</ele>
        <time>2020-06-24T10:53:40.073Z</time>
      </trkpt>
      <trkpt lat="48.65391" lon="-2.29854">
        <ele>49</ele>
        <time>2020-06-24T10:53:41.073Z</time>
      </trkpt>
      <trkpt lat="48.65389" lon="-2.29854">
        <ele>49</ele>
        <time>2020-06-24T10:53:42.073Z</time>
      </trkpt>
      <trkpt lat="48.65388" lon="-2.29854">
        <ele>49</ele>
        <time>2020-06-24T10:53:43.073Z</time>
      </trkpt>
      <trkpt lat="48.65387" lon="-2.29854">
        <ele>49</ele>
        <time>2020-06-24T10:53:44.073Z</time>
      </trkpt>
      <trkpt lat="48.65386" lon="-2.29854">
        <ele>49</ele>
        <time>2020-06-24T10:53:45.073Z</time>
      </trkpt>
      <trkpt lat="48.65385" lon="-2.29855">
        <ele>49</ele>
        <time>2020-06-24T10:53:46.073Z</time>
      </trkpt>
      <trkpt lat="48.65384" lon="-2.29855">
        <ele>49</ele>
        <time>2020-06-24T10:53:47.073Z</time>
      </trkpt>
      <trkpt lat="48.65383" lon="-2.29855">
        <ele>49</ele>
        <time>2020-06-24T10:53:48.073Z</time>
      </trkpt>
      <trkpt lat="48.65382" lon="-2.29855">
        <ele>49</ele>
        <time>2020-06-24T10:53:49.073Z</time>
      </trkpt>
      <trkpt lat="48.65381" lon="-2.29855">
        <ele>49</ele>
        <time>2020-06-24T10:53:50.073Z</time>
      </trkpt>
      <trkpt lat="48.6538" lon="-2.29855">
        <ele>49</ele>
        <time>2020-06-24T10:53:51.073Z</time>
      </trkpt>
      <trkpt lat="48.65379" lon="-2.29855">
        <ele>49</ele>
        <time>2020-06-24T10:53:52.073Z</time>
      </trkpt>
      <trkpt lat="48.65377" lon="-2.29855">
        <ele>49</ele>
        <time>2020-06-24T10:53:53.073Z</time>
      </trkpt>
      <trkpt lat="48.65376" lon="-2.29855">
        <ele>49</ele>
        <time>2020-06-24T10:53:54.073Z</time>
      </trkpt>
      <trkpt lat="48.65375" lon="-2.29855">
        <ele>49</ele>
        <time>2020-06-24T10:53:55.073Z</time>
      </trkpt>
      <trkpt lat="48.65374" lon="-2.29855">
        <ele>49</ele>
        <time>2020-06-24T10:53:56.073Z</time>
      </trkpt>
      <trkpt lat="48.65373" lon="-2.29855">
        <ele>49</ele>
        <time>2020-06-24T10:53:57.073Z</time>
      </trkpt>
      <trkpt lat="48.65372" lon="-2.29855">
        <ele>49</ele>
        <time>2020-06-24T10:53:58.073Z</time>
      </trkpt>
      <trkpt lat="48.65371" lon="-2.29855">
        <ele>48</ele>
        <time>2020-06-24T10:53:59.073Z</time>
      </trkpt>
      <trkpt lat="48.6537" lon="-2.29855">
        <ele>49</ele>
        <time>2020-06-24T10:54:00.073Z</time>
      </trkpt>
      <trkpt lat="48.65368" lon="-2.29855">
        <ele>49</ele>
        <time>2020-06-24T10:54:01.073Z</time>
      </trkpt>
      <trkpt lat="48.65367" lon="-2.29855">
        <ele>49</ele>
        <time>2020-06-24T10:54:02.073Z</time>
      </trkpt>
      <trkpt lat="48.65366" lon="-2.29855">
        <ele>50</ele>
        <time>2020-06-24T10:54:03.073Z</time>
      </trkpt>
      <trkpt lat="48.65365" lon="-2.29855">
        <ele>50</ele>
        <time>2020-06-24T10:54:04.073Z</time>
      </trkpt>
      <trkpt lat="48.65364" lon="-2.29854">
        <ele>50</ele>
        <time>2020-06-24T10:54:05.073Z</time>
      </trkpt>
      <trkpt lat="48.65363" lon="-2.29854">
        <ele>51</ele>
        <time>2020-06-24T10:54:06.073Z</time>
      </trkpt>
      <trkpt lat="48.65363" lon="-2.29854">
        <ele>50</ele>
        <time>2020-06-24T10:54:07.073Z</time>
      </trkpt>
      <trkpt lat="48.65362" lon="-2.29854">
        <ele>50</ele>
        <time>2020-06-24T10:54:08.073Z</time>
      </trkpt>
      <trkpt lat="48.65361" lon="-2.29854">
        <ele>50</ele>
        <time>2020-06-24T10:54:09.073Z</time>
      </trkpt>
      <trkpt lat="48.65359" lon="-2.29854">
        <ele>50</ele>
        <time>2020-06-24T10:54:10.073Z</time>
      </trkpt>
      <trkpt lat="48.65357" lon="-2.29854">
        <ele>50</ele>
        <time>2020-06-24T10:54:11.073Z</time>
      </trkpt>
      <trkpt lat="48.65356" lon="-2.29854">
        <ele>49</ele>
        <time>2020-06-24T10:54:12.073Z</time>
      </trkpt>
      <trkpt lat="48.65354" lon="-2.29854">
        <ele>49</ele>
        <time>2020-06-24T10:54:13.073Z</time>
      </trkpt>
      <trkpt lat="48.65353" lon="-2.29854">
        <ele>51</ele>
        <time>2020-06-24T10:54:14.073Z</time>
      </trkpt>
      <trkpt lat="48.65351" lon="-2.29853">
        <ele>51</ele>
        <time>2020-06-24T10:54:15.073Z</time>
      </trkpt>
      <trkpt lat="48.6535" lon="-2.29854">
        <ele>50</ele>
        <time>2020-06-24T10:54:16.073Z</time>
      </trkpt>
      <trkpt lat="48.65348" lon="-2.29854">
        <ele>50</ele>
        <time>2020-06-24T10:54:17.073Z</time>
      </trkpt>
      <trkpt lat="48.65347" lon="-2.29854">
        <ele>50</ele>
        <time>2020-06-24T10:54:18.073Z</time>
      </trkpt>
      <trkpt lat="48.65346" lon="-2.29854">
        <ele>50</ele>
        <time>2020-06-24T10:54:19.073Z</time>
      </trkpt>
      <trkpt lat="48.65345" lon="-2.29855">
        <ele>48</ele>
        <time>2020-06-24T10:54:20.073Z</time>
      </trkpt>
      <trkpt lat="48.65344" lon="-2.29856">
        <ele>48</ele>
        <time>2020-06-24T10:54:21.073Z</time>
      </trkpt>
      <trkpt lat="48.65342" lon="-2.29857">
        <ele>49</ele>
        <time>2020-06-24T10:54:22.073Z</time>
      </trkpt>
      <trkpt lat="48.65341" lon="-2.29857">
        <ele>50</ele>
        <time>2020-06-24T10:54:23.073Z</time>
      </trkpt>
      <trkpt lat="48.65339" lon="-2.29857">
        <ele>51</ele>
        <time>2020-06-24T10:54:24.073Z</time>
      </trkpt>
      <trkpt lat="48.65338" lon="-2.29856">
        <ele>51</ele>
        <time>2020-06-24T10:54:25.073Z</time>
      </trkpt>
      <trkpt lat="48.65336" lon="-2.29856">
        <ele>51</ele>
        <time>2020-06-24T10:54:26.073Z</time>
      </trkpt>
      <trkpt lat="48.65335" lon="-2.29857">
        <ele>51</ele>
        <time>2020-06-24T10:54:27.073Z</time>
      </trkpt>
      <trkpt lat="48.65333" lon="-2.29857">
        <ele>51</ele>
        <time>2020-06-24T10:54:28.073Z</time>
      </trkpt>
      <trkpt lat="48.65332" lon="-2.29857">
        <ele>51</ele>
        <time>2020-06-24T10:54:29.073Z</time>
      </trkpt>
      <trkpt lat="48.65331" lon="-2.29857">
        <ele>51</ele>
        <time>2020-06-24T10:54:30.073Z</time>
      </trkpt>
      <trkpt lat="48.6533" lon="-2.29857">
        <ele>51</ele>
        <time>2020-06-24T10:54:31.073Z</time>
      </trkpt>
      <trkpt lat="48.65329" lon="-2.29857">
        <ele>51</ele>
        <time>2020-06-24T10:54:32.073Z</time>
      </trkpt>
      <trkpt lat="48.65328" lon="-2.29857">
        <ele>51</ele>
        <time>2020-06-24T10:54:33.073Z</time>
      </trkpt>
      <trkpt lat="48.65327" lon="-2.29857">
        <ele>51</ele>
        <time>2020-06-24T10:54:34.073Z</time>
      </trkpt>
      <trkpt lat="48.65326" lon="-2.29857">
        <ele>51</ele>
        <time>2020-06-24T10:54:35.073Z</time>
      </trkpt>
      <trkpt lat="48.65325" lon="-2.29857">
        <ele>51</ele>
        <time>2020-06-24T10:54:36.073Z</time>
      </trkpt>
      <trkpt lat="48.65324" lon="-2.29857">
        <ele>52</ele>
        <time>2020-06-24T10:54:37.073Z</time>
      </trkpt>
      <trkpt lat="48.65322" lon="-2.29857">
        <ele>52</ele>
        <time>2020-06-24T10:54:38.073Z</time>
      </trkpt>
      <trkpt lat="48.65321" lon="-2.29858">
        <ele>52</ele>
        <time>2020-06-24T10:54:39.073Z</time>
      </trkpt>
      <trkpt lat="48.6532" lon="-2.29858">
        <ele>51</ele>
        <time>2020-06-24T10:54:40.073Z</time>
      </trkpt>
      <trkpt lat="48.65319" lon="-2.29858">
        <ele>51</ele>
        <time>2020-06-24T10:54:41.073Z</time>
      </trkpt>
      <trkpt lat="48.65318" lon="-2.29858">
        <ele>51</ele>
        <time>2020-06-24T10:54:42.073Z</time>
      </trkpt>
      <trkpt lat="48.65317" lon="-2.29859">
        <ele>50</ele>
        <time>2020-06-24T10:54:43.073Z</time>
      </trkpt>
      <trkpt lat="48.65316" lon="-2.29859">
        <ele>50</ele>
        <time>2020-06-24T10:54:44.073Z</time>
      </trkpt>
      <trkpt lat="48.65315" lon="-2.2986">
        <ele>50</ele>
        <time>2020-06-24T10:54:45.073Z</time>
      </trkpt>
      <trkpt lat="48.65314" lon="-2.2986">
        <ele>50</ele>
        <time>2020-06-24T10:54:46.073Z</time>
      </trkpt>
      <trkpt lat="48.65313" lon="-2.2986">
        <ele>50</ele>
        <time>2020-06-24T10:54:47.073Z</time>
      </trkpt>
      <trkpt lat="48.65312" lon="-2.2986">
        <ele>50</ele>
        <time>2020-06-24T10:54:48.073Z</time>
      </trkpt>
      <trkpt lat="48.65312" lon="-2.29861">
        <ele>51</ele>
        <time>2020-06-24T10:54:49.073Z</time>
      </trkpt>
      <trkpt lat="48.65311" lon="-2.29861">
        <ele>51</ele>
        <time>2020-06-24T10:54:50.073Z</time>
      </trkpt>
      <trkpt lat="48.6531" lon="-2.29862">
        <ele>52</ele>
        <time>2020-06-24T10:54:51.073Z</time>
      </trkpt>
      <trkpt lat="48.65309" lon="-2.29864">
        <ele>52</ele>
        <time>2020-06-24T10:54:52.073Z</time>
      </trkpt>
      <trkpt lat="48.65309" lon="-2.29865">
        <ele>52</ele>
        <time>2020-06-24T10:54:53.073Z</time>
      </trkpt>
      <trkpt lat="48.65308" lon="-2.29866">
        <ele>52</ele>
        <time>2020-06-24T10:54:54.073Z</time>
      </trkpt>
      <trkpt lat="48.65307" lon="-2.29866">
        <ele>53</ele>
        <time>2020-06-24T10:54:55.073Z</time>
      </trkpt>
      <trkpt lat="48.65306" lon="-2.29867">
        <ele>54</ele>
        <time>2020-06-24T10:54:56.073Z</time>
      </trkpt>
      <trkpt lat="48.65305" lon="-2.29868">
        <ele>53</ele>
        <time>2020-06-24T10:54:57.073Z</time>
      </trkpt>
      <trkpt lat="48.65304" lon="-2.29868">
        <ele>53</ele>
        <time>2020-06-24T10:54:58.073Z</time>
      </trkpt>
      <trkpt lat="48.65303" lon="-2.29869">
        <ele>53</ele>
        <time>2020-06-24T10:54:59.073Z</time>
      </trkpt>
      <trkpt lat="48.65302" lon="-2.2987">
        <ele>53</ele>
        <time>2020-06-24T10:55:00.073Z</time>
      </trkpt>
      <trkpt lat="48.65301" lon="-2.29871">
        <ele>54</ele>
        <time>2020-06-24T10:55:01.073Z</time>
      </trkpt>
      <trkpt lat="48.653" lon="-2.29872">
        <ele>54</ele>
        <time>2020-06-24T10:55:02.073Z</time>
      </trkpt>
      <trkpt lat="48.65299" lon="-2.29873">
        <ele>55</ele>
        <time>2020-06-24T10:55:03.073Z</time>
      </trkpt>
      <trkpt lat="48.65298" lon="-2.29873">
        <ele>53</ele>
        <time>2020-06-24T10:55:04.073Z</time>
      </trkpt>
      <trkpt lat="48.65297" lon="-2.29874">
        <ele>54</ele>
        <time>2020-06-24T10:55:05.073Z</time>
      </trkpt>
      <trkpt lat="48.65296" lon="-2.29875">
        <ele>54</ele>
        <time>2020-06-24T10:55:06.073Z</time>
      </trkpt>
      <trkpt lat="48.65295" lon="-2.29876">
        <ele>54</ele>
        <time>2020-06-24T10:55:07.073Z</time>
      </trkpt>
      <trkpt lat="48.65294" lon="-2.29877">
        <ele>54</ele>
        <time>2020-06-24T10:55:08.073Z</time>
      </trkpt>
      <trkpt lat="48.65293" lon="-2.29878">
        <ele>55</ele>
        <time>2020-06-24T10:55:09.073Z</time>
      </trkpt>
      <trkpt lat="48.65292" lon="-2.29878">
        <ele>55</ele>
        <time>2020-06-24T10:55:10.073Z</time>
      </trkpt>
      <trkpt lat="48.65291" lon="-2.29879">
        <ele>55</ele>
        <time>2020-06-24T10:55:11.073Z</time>
      </trkpt>
      <trkpt lat="48.6529" lon="-2.2988">
        <ele>55</ele>
        <time>2020-06-24T10:55:12.073Z</time>
      </trkpt>
      <trkpt lat="48.65289" lon="-2.29881">
        <ele>56</ele>
        <time>2020-06-24T10:55:13.073Z</time>
      </trkpt>
      <trkpt lat="48.65288" lon="-2.29881">
        <ele>57</ele>
        <time>2020-06-24T10:55:14.073Z</time>
      </trkpt>
      <trkpt lat="48.65287" lon="-2.29881">
        <ele>57</ele>
        <time>2020-06-24T10:55:15.073Z</time>
      </trkpt>
      <trkpt lat="48.65286" lon="-2.29882">
        <ele>58</ele>
        <time>2020-06-24T10:55:16.073Z</time>
      </trkpt>
      <trkpt lat="48.65285" lon="-2.29882">
        <ele>58</ele>
        <time>2020-06-24T10:55:17.073Z</time>
      </trkpt>
      <trkpt lat="48.65284" lon="-2.29882">
        <ele>59</ele>
        <time>2020-06-24T10:55:18.073Z</time>
      </trkpt>
      <trkpt lat="48.65283" lon="-2.29882">
        <ele>59</ele>
        <time>2020-06-24T10:55:19.073Z</time>
      </trkpt>
      <trkpt lat="48.65282" lon="-2.29882">
        <ele>60</ele>
        <time>2020-06-24T10:55:20.073Z</time>
      </trkpt>
      <trkpt lat="48.65282" lon="-2.29882">
        <ele>61</ele>
        <time>2020-06-24T10:55:21.073Z</time>
      </trkpt>
      <trkpt lat="48.65282" lon="-2.29882">
        <ele>61</ele>
        <time>2020-06-24T10:55:22.073Z</time>
      </trkpt>
      <trkpt lat="48.65282" lon="-2.29882">
        <ele>61</ele>
        <time>2020-06-24T10:55:23.073Z</time>
      </trkpt>
      <trkpt lat="48.65281" lon="-2.29882">
        <ele>61</ele>
        <time>2020-06-24T10:55:24.073Z</time>
      </trkpt>
      <trkpt lat="48.65281" lon="-2.29882">
        <ele>61</ele>
        <time>2020-06-24T10:55:25.073Z</time>
      </trkpt>
      <trkpt lat="48.65281" lon="-2.29882">
        <ele>62</ele>
        <time>2020-06-24T10:55:26.073Z</time>
      </trkpt>
      <trkpt lat="48.65281" lon="-2.29882">
        <ele>62</ele>
        <time>2020-06-24T10:55:27.073Z</time>
      </trkpt>
      <trkpt lat="48.65274" lon="-2.29885">
        <ele>62</ele>
        <time>2020-06-24T10:55:28.081Z</time>
      </trkpt>
      <trkpt lat="48.65273" lon="-2.29886">
        <ele>62</ele>
        <time>2020-06-24T10:55:29.081Z</time>
      </trkpt>
      <trkpt lat="48.65272" lon="-2.29886">
        <ele>61</ele>
        <time>2020-06-24T10:55:30.081Z</time>
      </trkpt>
      <trkpt lat="48.65271" lon="-2.29886">
        <ele>61</ele>
        <time>2020-06-24T10:55:31.081Z</time>
      </trkpt>
      <trkpt lat="48.6527" lon="-2.29887">
        <ele>61</ele>
        <time>2020-06-24T10:55:32.081Z</time>
      </trkpt>
      <trkpt lat="48.65269" lon="-2.29887">
        <ele>60</ele>
        <time>2020-06-24T10:55:33.081Z</time>
      </trkpt>
      <trkpt lat="48.65268" lon="-2.29887">
        <ele>60</ele>
        <time>2020-06-24T10:55:34.081Z</time>
      </trkpt>
      <trkpt lat="48.65267" lon="-2.29887">
        <ele>60</ele>
        <time>2020-06-24T10:55:35.081Z</time>
      </trkpt>
      <trkpt lat="48.65267" lon="-2.29888">
        <ele>61</ele>
        <time>2020-06-24T10:55:36.081Z</time>
      </trkpt>
      <trkpt lat="48.65266" lon="-2.29888">
        <ele>60</ele>
        <time>2020-06-24T10:55:37.081Z</time>
      </trkpt>
      <trkpt lat="48.65265" lon="-2.29889">
        <ele>60</ele>
        <time>2020-06-24T10:55:38.081Z</time>
      </trkpt>
      <trkpt lat="48.65263" lon="-2.2989">
        <ele>60</ele>
        <time>2020-06-24T10:55:39.081Z</time>
      </trkpt>
      <trkpt lat="48.65263" lon="-2.29891">
        <ele>61</ele>
        <time>2020-06-24T10:55:40.081Z</time>
      </trkpt>
      <trkpt lat="48.65262" lon="-2.29892">
        <ele>61</ele>
        <time>2020-06-24T10:55:41.081Z</time>
      </trkpt>
      <trkpt lat="48.65261" lon="-2.29894">
        <ele>60</ele>
        <time>2020-06-24T10:55:42.081Z</time>
      </trkpt>
      <trkpt lat="48.6526" lon="-2.29895">
        <ele>61</ele>
        <time>2020-06-24T10:55:43.081Z</time>
      </trkpt>
      <trkpt lat="48.6526" lon="-2.29897">
        <ele>60</ele>
        <time>2020-06-24T10:55:44.081Z</time>
      </trkpt>
      <trkpt lat="48.65259" lon="-2.29898">
        <ele>60</ele>
        <time>2020-06-24T10:55:45.081Z</time>
      </trkpt>
      <trkpt lat="48.65259" lon="-2.299">
        <ele>60</ele>
        <time>2020-06-24T10:55:46.081Z</time>
      </trkpt>
      <trkpt lat="48.65259" lon="-2.29902">
        <ele>60</ele>
        <time>2020-06-24T10:55:47.081Z</time>
      </trkpt>
      <trkpt lat="48.65259" lon="-2.29903">
        <ele>61</ele>
        <time>2020-06-24T10:55:48.081Z</time>
      </trkpt>
      <trkpt lat="48.65259" lon="-2.29905">
        <ele>61</ele>
        <time>2020-06-24T10:55:49.081Z</time>
      </trkpt>
      <trkpt lat="48.65258" lon="-2.29907">
        <ele>61</ele>
        <time>2020-06-24T10:55:50.081Z</time>
      </trkpt>
      <trkpt lat="48.65258" lon="-2.29908">
        <ele>61</ele>
        <time>2020-06-24T10:55:51.081Z</time>
      </trkpt>
      <trkpt lat="48.65257" lon="-2.2991">
        <ele>62</ele>
        <time>2020-06-24T10:55:52.081Z</time>
      </trkpt>
      <trkpt lat="48.65256" lon="-2.29911">
        <ele>62</ele>
        <time>2020-06-24T10:55:53.081Z</time>
      </trkpt>
      <trkpt lat="48.65256" lon="-2.29913">
        <ele>62</ele>
        <time>2020-06-24T10:55:54.081Z</time>
      </trkpt>
      <trkpt lat="48.65255" lon="-2.29913">
        <ele>62</ele>
        <time>2020-06-24T10:55:55.081Z</time>
      </trkpt>
      <trkpt lat="48.65254" lon="-2.29913">
        <ele>61</ele>
        <time>2020-06-24T10:55:56.081Z</time>
      </trkpt>
      <trkpt lat="48.65254" lon="-2.29914">
        <ele>60</ele>
        <time>2020-06-24T10:55:57.081Z</time>
      </trkpt>
      <trkpt lat="48.65253" lon="-2.29914">
        <ele>59</ele>
        <time>2020-06-24T10:55:58.081Z</time>
      </trkpt>
      <trkpt lat="48.65252" lon="-2.29913">
        <ele>60</ele>
        <time>2020-06-24T10:55:59.081Z</time>
      </trkpt>
      <trkpt lat="48.65251" lon="-2.29913">
        <ele>59</ele>
        <time>2020-06-24T10:56:00.081Z</time>
      </trkpt>
      <trkpt lat="48.6525" lon="-2.29912">
        <ele>60</ele>
        <time>2020-06-24T10:56:01.081Z</time>
      </trkpt>
      <trkpt lat="48.65249" lon="-2.29911">
        <ele>60</ele>
        <time>2020-06-24T10:56:02.081Z</time>
      </trkpt>
      <trkpt lat="48.65249" lon="-2.2991">
        <ele>59</ele>
        <time>2020-06-24T10:56:03.081Z</time>
      </trkpt>
      <trkpt lat="48.65248" lon="-2.29909">
        <ele>59</ele>
        <time>2020-06-24T10:56:04.081Z</time>
      </trkpt>
      <trkpt lat="48.65246" lon="-2.29909">
        <ele>59</ele>
        <time>2020-06-24T10:56:05.081Z</time>
      </trkpt>
      <trkpt lat="48.65245" lon="-2.29908">
        <ele>59</ele>
        <time>2020-06-24T10:56:06.081Z</time>
      </trkpt>
      <trkpt lat="48.65244" lon="-2.29907">
        <ele>60</ele>
        <time>2020-06-24T10:56:07.081Z</time>
      </trkpt>
      <trkpt lat="48.65243" lon="-2.29905">
        <ele>60</ele>
        <time>2020-06-24T10:56:08.081Z</time>
      </trkpt>
      <trkpt lat="48.65242" lon="-2.29904">
        <ele>60</ele>
        <time>2020-06-24T10:56:09.081Z</time>
      </trkpt>
      <trkpt lat="48.65241" lon="-2.29903">
        <ele>60</ele>
        <time>2020-06-24T10:56:10.081Z</time>
      </trkpt>
      <trkpt lat="48.6524" lon="-2.29903">
        <ele>60</ele>
        <time>2020-06-24T10:56:11.081Z</time>
      </trkpt>
      <trkpt lat="48.65239" lon="-2.29902">
        <ele>59</ele>
        <time>2020-06-24T10:56:12.081Z</time>
      </trkpt>
      <trkpt lat="48.65238" lon="-2.29902">
        <ele>60</ele>
        <time>2020-06-24T10:56:13.081Z</time>
      </trkpt>
      <trkpt lat="48.65237" lon="-2.29901">
        <ele>59</ele>
        <time>2020-06-24T10:56:14.081Z</time>
      </trkpt>
      <trkpt lat="48.65235" lon="-2.29901">
        <ele>60</ele>
        <time>2020-06-24T10:56:15.081Z</time>
      </trkpt>
      <trkpt lat="48.65233" lon="-2.29901">
        <ele>60</ele>
        <time>2020-06-24T10:56:16.081Z</time>
      </trkpt>
      <trkpt lat="48.65232" lon="-2.299">
        <ele>60</ele>
        <time>2020-06-24T10:56:17.081Z</time>
      </trkpt>
      <trkpt lat="48.6523" lon="-2.299">
        <ele>60</ele>
        <time>2020-06-24T10:56:18.081Z</time>
      </trkpt>
      <trkpt lat="48.65229" lon="-2.29899">
        <ele>60</ele>
        <time>2020-06-24T10:56:19.081Z</time>
      </trkpt>
      <trkpt lat="48.65228" lon="-2.29899">
        <ele>60</ele>
        <time>2020-06-24T10:56:20.081Z</time>
      </trkpt>
      <trkpt lat="48.65226" lon="-2.29898">
        <ele>60</ele>
        <time>2020-06-24T10:56:21.081Z</time>
      </trkpt>
      <trkpt lat="48.65225" lon="-2.29898">
        <ele>59</ele>
        <time>2020-06-24T10:56:22.081Z</time>
      </trkpt>
      <trkpt lat="48.65224" lon="-2.29897">
        <ele>59</ele>
        <time>2020-06-24T10:56:23.081Z</time>
      </trkpt>
      <trkpt lat="48.65223" lon="-2.29896">
        <ele>59</ele>
        <time>2020-06-24T10:56:24.081Z</time>
      </trkpt>
      <trkpt lat="48.65221" lon="-2.29896">
        <ele>59</ele>
        <time>2020-06-24T10:56:25.081Z</time>
      </trkpt>
      <trkpt lat="48.6522" lon="-2.29895">
        <ele>58</ele>
        <time>2020-06-24T10:56:26.081Z</time>
      </trkpt>
      <trkpt lat="48.65219" lon="-2.29894">
        <ele>58</ele>
        <time>2020-06-24T10:56:27.081Z</time>
      </trkpt>
      <trkpt lat="48.65218" lon="-2.29893">
        <ele>58</ele>
        <time>2020-06-24T10:56:28.081Z</time>
      </trkpt>
      <trkpt lat="48.65217" lon="-2.29893">
        <ele>58</ele>
        <time>2020-06-24T10:56:29.081Z</time>
      </trkpt>
      <trkpt lat="48.65216" lon="-2.29893">
        <ele>58</ele>
        <time>2020-06-24T10:56:30.081Z</time>
      </trkpt>
      <trkpt lat="48.65215" lon="-2.29893">
        <ele>58</ele>
        <time>2020-06-24T10:56:31.081Z</time>
      </trkpt>
      <trkpt lat="48.65214" lon="-2.29893">
        <ele>58</ele>
        <time>2020-06-24T10:56:32.081Z</time>
      </trkpt>
      <trkpt lat="48.65213" lon="-2.29893">
        <ele>58</ele>
        <time>2020-06-24T10:56:33.081Z</time>
      </trkpt>
      <trkpt lat="48.65212" lon="-2.29894">
        <ele>58</ele>
        <time>2020-06-24T10:56:34.081Z</time>
      </trkpt>
      <trkpt lat="48.65211" lon="-2.29895">
        <ele>58</ele>
        <time>2020-06-24T10:56:35.081Z</time>
      </trkpt>
      <trkpt lat="48.6521" lon="-2.29896">
        <ele>57</ele>
        <time>2020-06-24T10:56:36.081Z</time>
      </trkpt>
      <trkpt lat="48.65209" lon="-2.29897">
        <ele>57</ele>
        <time>2020-06-24T10:56:37.081Z</time>
      </trkpt>
      <trkpt lat="48.65208" lon="-2.29898">
        <ele>57</ele>
        <time>2020-06-24T10:56:38.081Z</time>
      </trkpt>
      <trkpt lat="48.65207" lon="-2.29899">
        <ele>57</ele>
        <time>2020-06-24T10:56:39.081Z</time>
      </trkpt>
      <trkpt lat="48.65206" lon="-2.29901">
        <ele>57</ele>
        <time>2020-06-24T10:56:40.081Z</time>
      </trkpt>
      <trkpt lat="48.65205" lon="-2.29901">
        <ele>56</ele>
        <time>2020-06-24T10:56:41.081Z</time>
      </trkpt>
      <trkpt lat="48.65204" lon="-2.29901">
        <ele>56</ele>
        <time>2020-06-24T10:56:42.081Z</time>
      </trkpt>
      <trkpt lat="48.65203" lon="-2.29901">
        <ele>56</ele>
        <time>2020-06-24T10:56:43.081Z</time>
      </trkpt>
      <trkpt lat="48.65202" lon="-2.299">
        <ele>56</ele>
        <time>2020-06-24T10:56:44.081Z</time>
      </trkpt>
      <trkpt lat="48.652" lon="-2.299">
        <ele>56</ele>
        <time>2020-06-24T10:56:45.081Z</time>
      </trkpt>
      <trkpt lat="48.65199" lon="-2.29899">
        <ele>56</ele>
        <time>2020-06-24T10:56:46.081Z</time>
      </trkpt>
      <trkpt lat="48.65198" lon="-2.29899">
        <ele>56</ele>
        <time>2020-06-24T10:56:47.081Z</time>
      </trkpt>
      <trkpt lat="48.65197" lon="-2.29899">
        <ele>56</ele>
        <time>2020-06-24T10:56:48.081Z</time>
      </trkpt>
      <trkpt lat="48.65196" lon="-2.29898">
        <ele>55</ele>
        <time>2020-06-24T10:56:49.081Z</time>
      </trkpt>
      <trkpt lat="48.65195" lon="-2.29898">
        <ele>55</ele>
        <time>2020-06-24T10:56:50.081Z</time>
      </trkpt>
      <trkpt lat="48.65193" lon="-2.29898">
        <ele>55</ele>
        <time>2020-06-24T10:56:51.081Z</time>
      </trkpt>
      <trkpt lat="48.65192" lon="-2.29898">
        <ele>56</ele>
        <time>2020-06-24T10:56:52.081Z</time>
      </trkpt>
      <trkpt lat="48.65191" lon="-2.29899">
        <ele>55</ele>
        <time>2020-06-24T10:56:53.081Z</time>
      </trkpt>
      <trkpt lat="48.6519" lon="-2.299">
        <ele>55</ele>
        <time>2020-06-24T10:56:54.081Z</time>
      </trkpt>
      <trkpt lat="48.65189" lon="-2.29901">
        <ele>55</ele>
        <time>2020-06-24T10:56:55.081Z</time>
      </trkpt>
      <trkpt lat="48.65189" lon="-2.29902">
        <ele>55</ele>
        <time>2020-06-24T10:56:56.081Z</time>
      </trkpt>
      <trkpt lat="48.65189" lon="-2.29903">
        <ele>54</ele>
        <time>2020-06-24T10:56:57.081Z</time>
      </trkpt>
      <trkpt lat="48.65188" lon="-2.29905">
        <ele>54</ele>
        <time>2020-06-24T10:56:58.081Z</time>
      </trkpt>
      <trkpt lat="48.65188" lon="-2.29906">
        <ele>54</ele>
        <time>2020-06-24T10:56:59.081Z</time>
      </trkpt>
      <trkpt lat="48.65187" lon="-2.29908">
        <ele>54</ele>
        <time>2020-06-24T10:57:00.081Z</time>
      </trkpt>
      <trkpt lat="48.65186" lon="-2.29908">
        <ele>52</ele>
        <time>2020-06-24T10:57:01.081Z</time>
      </trkpt>
      <trkpt lat="48.65184" lon="-2.29908">
        <ele>52</ele>
        <time>2020-06-24T10:57:02.081Z</time>
      </trkpt>
      <trkpt lat="48.65183" lon="-2.29907">
        <ele>52</ele>
        <time>2020-06-24T10:57:03.081Z</time>
      </trkpt>
      <trkpt lat="48.65182" lon="-2.29907">
        <ele>52</ele>
        <time>2020-06-24T10:57:04.081Z</time>
      </trkpt>
      <trkpt lat="48.65181" lon="-2.29906">
        <ele>52</ele>
        <time>2020-06-24T10:57:05.081Z</time>
      </trkpt>
      <trkpt lat="48.65179" lon="-2.29905">
        <ele>52</ele>
        <time>2020-06-24T10:57:06.081Z</time>
      </trkpt>
      <trkpt lat="48.65178" lon="-2.29904">
        <ele>52</ele>
        <time>2020-06-24T10:57:07.081Z</time>
      </trkpt>
      <trkpt lat="48.65177" lon="-2.29904">
        <ele>52</ele>
        <time>2020-06-24T10:57:08.081Z</time>
      </trkpt>
      <trkpt lat="48.65175" lon="-2.29903">
        <ele>52</ele>
        <time>2020-06-24T10:57:09.081Z</time>
      </trkpt>
      <trkpt lat="48.65174" lon="-2.29902">
        <ele>52</ele>
        <time>2020-06-24T10:57:10.081Z</time>
      </trkpt>
      <trkpt lat="48.65173" lon="-2.29901">
        <ele>53</ele>
        <time>2020-06-24T10:57:11.081Z</time>
      </trkpt>
      <trkpt lat="48.65172" lon="-2.299">
        <ele>52</ele>
        <time>2020-06-24T10:57:12.081Z</time>
      </trkpt>
      <trkpt lat="48.65171" lon="-2.29899">
        <ele>52</ele>
        <time>2020-06-24T10:57:13.081Z</time>
      </trkpt>
      <trkpt lat="48.6517" lon="-2.29899">
        <ele>52</ele>
        <time>2020-06-24T10:57:14.081Z</time>
      </trkpt>
      <trkpt lat="48.65168" lon="-2.29899">
        <ele>52</ele>
        <time>2020-06-24T10:57:15.081Z</time>
      </trkpt>
      <trkpt lat="48.65167" lon="-2.29898">
        <ele>51</ele>
        <time>2020-06-24T10:57:16.081Z</time>
      </trkpt>
      <trkpt lat="48.65165" lon="-2.29898">
        <ele>51</ele>
        <time>2020-06-24T10:57:17.081Z</time>
      </trkpt>
      <trkpt lat="48.65164" lon="-2.29897">
        <ele>51</ele>
        <time>2020-06-24T10:57:18.081Z</time>
      </trkpt>
      <trkpt lat="48.65163" lon="-2.29897">
        <ele>50</ele>
        <time>2020-06-24T10:57:19.081Z</time>
      </trkpt>
      <trkpt lat="48.65161" lon="-2.29896">
        <ele>50</ele>
        <time>2020-06-24T10:57:20.081Z</time>
      </trkpt>
      <trkpt lat="48.6516" lon="-2.29896">
        <ele>49</ele>
        <time>2020-06-24T10:57:21.081Z</time>
      </trkpt>
      <trkpt lat="48.65159" lon="-2.29896">
        <ele>48</ele>
        <time>2020-06-24T10:57:22.081Z</time>
      </trkpt>
      <trkpt lat="48.65157" lon="-2.29897">
        <ele>49</ele>
        <time>2020-06-24T10:57:23.081Z</time>
      </trkpt>
      <trkpt lat="48.65156" lon="-2.29898">
        <ele>49</ele>
        <time>2020-06-24T10:57:24.081Z</time>
      </trkpt>
      <trkpt lat="48.65154" lon="-2.29899">
        <ele>49</ele>
        <time>2020-06-24T10:57:25.081Z</time>
      </trkpt>
      <trkpt lat="48.65154" lon="-2.299">
        <ele>49</ele>
        <time>2020-06-24T10:57:26.081Z</time>
      </trkpt>
      <trkpt lat="48.65153" lon="-2.29901">
        <ele>49</ele>
        <time>2020-06-24T10:57:27.081Z</time>
      </trkpt>
      <trkpt lat="48.65152" lon="-2.29902">
        <ele>49</ele>
        <time>2020-06-24T10:57:28.081Z</time>
      </trkpt>
      <trkpt lat="48.65151" lon="-2.29903">
        <ele>49</ele>
        <time>2020-06-24T10:57:29.081Z</time>
      </trkpt>
      <trkpt lat="48.65151" lon="-2.29905">
        <ele>49</ele>
        <time>2020-06-24T10:57:30.081Z</time>
      </trkpt>
      <trkpt lat="48.6515" lon="-2.29906">
        <ele>48</ele>
        <time>2020-06-24T10:57:31.081Z</time>
      </trkpt>
      <trkpt lat="48.6515" lon="-2.29907">
        <ele>48</ele>
        <time>2020-06-24T10:57:32.081Z</time>
      </trkpt>
      <trkpt lat="48.6515" lon="-2.29908">
        <ele>48</ele>
        <time>2020-06-24T10:57:33.081Z</time>
      </trkpt>
      <trkpt lat="48.6515" lon="-2.29909">
        <ele>48</ele>
        <time>2020-06-24T10:57:34.081Z</time>
      </trkpt>
      <trkpt lat="48.65149" lon="-2.2991">
        <ele>47</ele>
        <time>2020-06-24T10:57:35.081Z</time>
      </trkpt>
      <trkpt lat="48.65149" lon="-2.29912">
        <ele>47</ele>
        <time>2020-06-24T10:57:36.081Z</time>
      </trkpt>
      <trkpt lat="48.65149" lon="-2.29913">
        <ele>47</ele>
        <time>2020-06-24T10:57:37.081Z</time>
      </trkpt>
      <trkpt lat="48.65148" lon="-2.29914">
        <ele>46</ele>
        <time>2020-06-24T10:57:38.081Z</time>
      </trkpt>
      <trkpt lat="48.65147" lon="-2.29915">
        <ele>46</ele>
        <time>2020-06-24T10:57:39.081Z</time>
      </trkpt>
      <trkpt lat="48.65145" lon="-2.29916">
        <ele>46</ele>
        <time>2020-06-24T10:57:40.081Z</time>
      </trkpt>
      <trkpt lat="48.65144" lon="-2.29917">
        <ele>45</ele>
        <time>2020-06-24T10:57:41.081Z</time>
      </trkpt>
      <trkpt lat="48.65143" lon="-2.29918">
        <ele>44</ele>
        <time>2020-06-24T10:57:42.081Z</time>
      </trkpt>
      <trkpt lat="48.65143" lon="-2.2992">
        <ele>43</ele>
        <time>2020-06-24T10:57:43.081Z</time>
      </trkpt>
      <trkpt lat="48.65143" lon="-2.29921">
        <ele>43</ele>
        <time>2020-06-24T10:57:44.081Z</time>
      </trkpt>
      <trkpt lat="48.65142" lon="-2.29923">
        <ele>43</ele>
        <time>2020-06-24T10:57:45.081Z</time>
      </trkpt>
      <trkpt lat="48.65142" lon="-2.29925">
        <ele>43</ele>
        <time>2020-06-24T10:57:46.081Z</time>
      </trkpt>
      <trkpt lat="48.65143" lon="-2.29927">
        <ele>42</ele>
        <time>2020-06-24T10:57:47.081Z</time>
      </trkpt>
      <trkpt lat="48.65143" lon="-2.29929">
        <ele>43</ele>
        <time>2020-06-24T10:57:48.081Z</time>
      </trkpt>
      <trkpt lat="48.65143" lon="-2.29931">
        <ele>43</ele>
        <time>2020-06-24T10:57:49.081Z</time>
      </trkpt>
      <trkpt lat="48.65144" lon="-2.29933">
        <ele>43</ele>
        <time>2020-06-24T10:57:50.081Z</time>
      </trkpt>
      <trkpt lat="48.65145" lon="-2.29934">
        <ele>42</ele>
        <time>2020-06-24T10:57:51.081Z</time>
      </trkpt>
      <trkpt lat="48.65145" lon="-2.29936">
        <ele>42</ele>
        <time>2020-06-24T10:57:52.081Z</time>
      </trkpt>
      <trkpt lat="48.65146" lon="-2.29938">
        <ele>42</ele>
        <time>2020-06-24T10:57:53.081Z</time>
      </trkpt>
      <trkpt lat="48.65146" lon="-2.2994">
        <ele>42</ele>
        <time>2020-06-24T10:57:54.081Z</time>
      </trkpt>
      <trkpt lat="48.65147" lon="-2.29941">
        <ele>42</ele>
        <time>2020-06-24T10:57:55.081Z</time>
      </trkpt>
      <trkpt lat="48.65148" lon="-2.29943">
        <ele>42</ele>
        <time>2020-06-24T10:57:56.081Z</time>
      </trkpt>
      <trkpt lat="48.6515" lon="-2.29944">
        <ele>41</ele>
        <time>2020-06-24T10:57:57.081Z</time>
      </trkpt>
      <trkpt lat="48.6515" lon="-2.29946">
        <ele>41</ele>
        <time>2020-06-24T10:57:58.081Z</time>
      </trkpt>
      <trkpt lat="48.65151" lon="-2.29947">
        <ele>41</ele>
        <time>2020-06-24T10:57:59.081Z</time>
      </trkpt>
      <trkpt lat="48.65151" lon="-2.29948">
        <ele>41</ele>
        <time>2020-06-24T10:58:00.081Z</time>
      </trkpt>
      <trkpt lat="48.65152" lon="-2.2995">
        <ele>40</ele>
        <time>2020-06-24T10:58:01.081Z</time>
      </trkpt>
      <trkpt lat="48.65152" lon="-2.29951">
        <ele>40</ele>
        <time>2020-06-24T10:58:02.081Z</time>
      </trkpt>
      <trkpt lat="48.65152" lon="-2.29952">
        <ele>40</ele>
        <time>2020-06-24T10:58:03.081Z</time>
      </trkpt>
      <trkpt lat="48.65152" lon="-2.29953">
        <ele>39</ele>
        <time>2020-06-24T10:58:04.081Z</time>
      </trkpt>
      <trkpt lat="48.65153" lon="-2.29954">
        <ele>39</ele>
        <time>2020-06-24T10:58:05.081Z</time>
      </trkpt>
      <trkpt lat="48.65153" lon="-2.29955">
        <ele>38</ele>
        <time>2020-06-24T10:58:06.081Z</time>
      </trkpt>
      <trkpt lat="48.65152" lon="-2.29956">
        <ele>38</ele>
        <time>2020-06-24T10:58:07.081Z</time>
      </trkpt>
      <trkpt lat="48.65152" lon="-2.29957">
        <ele>37</ele>
        <time>2020-06-24T10:58:08.081Z</time>
      </trkpt>
      <trkpt lat="48.65152" lon="-2.29959">
        <ele>37</ele>
        <time>2020-06-24T10:58:09.081Z</time>
      </trkpt>
      <trkpt lat="48.65152" lon="-2.29961">
        <ele>37</ele>
        <time>2020-06-24T10:58:10.081Z</time>
      </trkpt>
      <trkpt lat="48.65153" lon="-2.29963">
        <ele>37</ele>
        <time>2020-06-24T10:58:11.081Z</time>
      </trkpt>
      <trkpt lat="48.65153" lon="-2.29965">
        <ele>37</ele>
        <time>2020-06-24T10:58:12.081Z</time>
      </trkpt>
      <trkpt lat="48.65153" lon="-2.29966">
        <ele>37</ele>
        <time>2020-06-24T10:58:13.081Z</time>
      </trkpt>
      <trkpt lat="48.65154" lon="-2.29968">
        <ele>36</ele>
        <time>2020-06-24T10:58:14.081Z</time>
      </trkpt>
      <trkpt lat="48.65154" lon="-2.2997">
        <ele>36</ele>
        <time>2020-06-24T10:58:15.081Z</time>
      </trkpt>
      <trkpt lat="48.65154" lon="-2.29972">
        <ele>36</ele>
        <time>2020-06-24T10:58:16.081Z</time>
      </trkpt>
      <trkpt lat="48.65154" lon="-2.29973">
        <ele>35</ele>
        <time>2020-06-24T10:58:17.081Z</time>
      </trkpt>
      <trkpt lat="48.65155" lon="-2.29974">
        <ele>35</ele>
        <time>2020-06-24T10:58:18.081Z</time>
      </trkpt>
      <trkpt lat="48.65155" lon="-2.29976">
        <ele>35</ele>
        <time>2020-06-24T10:58:19.081Z</time>
      </trkpt>
      <trkpt lat="48.65156" lon="-2.29977">
        <ele>34</ele>
        <time>2020-06-24T10:58:20.081Z</time>
      </trkpt>
      <trkpt lat="48.65156" lon="-2.29978">
        <ele>34</ele>
        <time>2020-06-24T10:58:21.081Z</time>
      </trkpt>
      <trkpt lat="48.65156" lon="-2.29979">
        <ele>33</ele>
        <time>2020-06-24T10:58:22.081Z</time>
      </trkpt>
      <trkpt lat="48.65156" lon="-2.29981">
        <ele>33</ele>
        <time>2020-06-24T10:58:23.081Z</time>
      </trkpt>
      <trkpt lat="48.65156" lon="-2.29983">
        <ele>33</ele>
        <time>2020-06-24T10:58:24.081Z</time>
      </trkpt>
      <trkpt lat="48.65156" lon="-2.29984">
        <ele>32</ele>
        <time>2020-06-24T10:58:25.081Z</time>
      </trkpt>
      <trkpt lat="48.65156" lon="-2.29986">
        <ele>31</ele>
        <time>2020-06-24T10:58:26.081Z</time>
      </trkpt>
      <trkpt lat="48.65157" lon="-2.29987">
        <ele>32</ele>
        <time>2020-06-24T10:58:27.081Z</time>
      </trkpt>
      <trkpt lat="48.65157" lon="-2.29989">
        <ele>31</ele>
        <time>2020-06-24T10:58:28.081Z</time>
      </trkpt>
      <trkpt lat="48.65157" lon="-2.2999">
        <ele>31</ele>
        <time>2020-06-24T10:58:29.081Z</time>
      </trkpt>
      <trkpt lat="48.65157" lon="-2.29992">
        <ele>31</ele>
        <time>2020-06-24T10:58:30.081Z</time>
      </trkpt>
      <trkpt lat="48.65157" lon="-2.29993">
        <ele>30</ele>
        <time>2020-06-24T10:58:31.081Z</time>
      </trkpt>
      <trkpt lat="48.65158" lon="-2.29994">
        <ele>29</ele>
        <time>2020-06-24T10:58:32.081Z</time>
      </trkpt>
      <trkpt lat="48.65158" lon="-2.29996">
        <ele>29</ele>
        <time>2020-06-24T10:58:33.081Z</time>
      </trkpt>
      <trkpt lat="48.65158" lon="-2.29997">
        <ele>29</ele>
        <time>2020-06-24T10:58:34.081Z</time>
      </trkpt>
      <trkpt lat="48.65159" lon="-2.29998">
        <ele>28</ele>
        <time>2020-06-24T10:58:35.081Z</time>
      </trkpt>
      <trkpt lat="48.65159" lon="-2.29999">
        <ele>27</ele>
        <time>2020-06-24T10:58:36.081Z</time>
      </trkpt>
      <trkpt lat="48.65159" lon="-2.3">
        <ele>27</ele>
        <time>2020-06-24T10:58:37.081Z</time>
      </trkpt>
      <trkpt lat="48.65159" lon="-2.30001">
        <ele>27</ele>
        <time>2020-06-24T10:58:38.081Z</time>
      </trkpt>
      <trkpt lat="48.65159" lon="-2.30002">
        <ele>26</ele>
        <time>2020-06-24T10:58:39.081Z</time>
      </trkpt>
      <trkpt lat="48.65159" lon="-2.30003">
        <ele>25</ele>
        <time>2020-06-24T10:58:40.081Z</time>
      </trkpt>
      <trkpt lat="48.6516" lon="-2.30004">
        <ele>25</ele>
        <time>2020-06-24T10:58:41.081Z</time>
      </trkpt>
      <trkpt lat="48.6516" lon="-2.30005">
        <ele>25</ele>
        <time>2020-06-24T10:58:42.081Z</time>
      </trkpt>
      <trkpt lat="48.6516" lon="-2.30006">
        <ele>25</ele>
        <time>2020-06-24T10:58:43.081Z</time>
      </trkpt>
      <trkpt lat="48.65161" lon="-2.30008">
        <ele>25</ele>
        <time>2020-06-24T10:58:44.081Z</time>
      </trkpt>
      <trkpt lat="48.65162" lon="-2.30009">
        <ele>24</ele>
        <time>2020-06-24T10:58:45.081Z</time>
      </trkpt>
      <trkpt lat="48.65162" lon="-2.30011">
        <ele>24</ele>
        <time>2020-06-24T10:58:46.081Z</time>
      </trkpt>
      <trkpt lat="48.65162" lon="-2.30012">
        <ele>24</ele>
        <time>2020-06-24T10:58:47.081Z</time>
      </trkpt>
      <trkpt lat="48.65163" lon="-2.30013">
        <ele>24</ele>
        <time>2020-06-24T10:58:48.081Z</time>
      </trkpt>
      <trkpt lat="48.65163" lon="-2.30015">
        <ele>24</ele>
        <time>2020-06-24T10:58:49.081Z</time>
      </trkpt>
      <trkpt lat="48.65162" lon="-2.30016">
        <ele>24</ele>
        <time>2020-06-24T10:58:50.081Z</time>
      </trkpt>
      <trkpt lat="48.65161" lon="-2.30017">
        <ele>24</ele>
        <time>2020-06-24T10:58:51.081Z</time>
      </trkpt>
      <trkpt lat="48.6516" lon="-2.30019">
        <ele>24</ele>
        <time>2020-06-24T10:58:52.081Z</time>
      </trkpt>
      <trkpt lat="48.65159" lon="-2.3002">
        <ele>24</ele>
        <time>2020-06-24T10:58:53.081Z</time>
      </trkpt>
      <trkpt lat="48.65158" lon="-2.30021">
        <ele>23</ele>
        <time>2020-06-24T10:58:54.081Z</time>
      </trkpt>
      <trkpt lat="48.65158" lon="-2.30022">
        <ele>23</ele>
        <time>2020-06-24T10:58:55.081Z</time>
      </trkpt>
      <trkpt lat="48.65158" lon="-2.30024">
        <ele>23</ele>
        <time>2020-06-24T10:58:56.081Z</time>
      </trkpt>
      <trkpt lat="48.65158" lon="-2.30025">
        <ele>23</ele>
        <time>2020-06-24T10:58:57.081Z</time>
      </trkpt>
      <trkpt lat="48.65157" lon="-2.30027">
        <ele>23</ele>
        <time>2020-06-24T10:58:58.081Z</time>
      </trkpt>
      <trkpt lat="48.65157" lon="-2.30028">
        <ele>23</ele>
        <time>2020-06-24T10:58:59.081Z</time>
      </trkpt>
      <trkpt lat="48.65156" lon="-2.30028">
        <ele>25</ele>
        <time>2020-06-24T10:59:00.081Z</time>
      </trkpt>
      <trkpt lat="48.65155" lon="-2.30029">
        <ele>24</ele>
        <time>2020-06-24T10:59:01.081Z</time>
      </trkpt>
      <trkpt lat="48.65154" lon="-2.30029">
        <ele>24</ele>
        <time>2020-06-24T10:59:02.081Z</time>
      </trkpt>
      <trkpt lat="48.65154" lon="-2.3003">
        <ele>23</ele>
        <time>2020-06-24T10:59:03.081Z</time>
      </trkpt>
      <trkpt lat="48.65154" lon="-2.30031">
        <ele>23</ele>
        <time>2020-06-24T10:59:04.081Z</time>
      </trkpt>
      <trkpt lat="48.65153" lon="-2.30031">
        <ele>23</ele>
        <time>2020-06-24T10:59:05.081Z</time>
      </trkpt>
      <trkpt lat="48.65153" lon="-2.30032">
        <ele>23</ele>
        <time>2020-06-24T10:59:06.081Z</time>
      </trkpt>
      <trkpt lat="48.65153" lon="-2.30032">
        <ele>23</ele>
        <time>2020-06-24T10:59:07.081Z</time>
      </trkpt>
      <trkpt lat="48.65153" lon="-2.30033">
        <ele>23</ele>
        <time>2020-06-24T10:59:08.081Z</time>
      </trkpt>
      <trkpt lat="48.65153" lon="-2.30033">
        <ele>24</ele>
        <time>2020-06-24T10:59:09.081Z</time>
      </trkpt>
      <trkpt lat="48.65153" lon="-2.30033">
        <ele>23</ele>
        <time>2020-06-24T10:59:10.081Z</time>
      </trkpt>
      <trkpt lat="48.65153" lon="-2.30032">
        <ele>23</ele>
        <time>2020-06-24T10:59:11.081Z</time>
      </trkpt>
      <trkpt lat="48.65153" lon="-2.30033">
        <ele>23</ele>
        <time>2020-06-24T10:59:12.081Z</time>
      </trkpt>
      <trkpt lat="48.65151" lon="-2.30037">
        <ele>20</ele>
        <time>2020-06-24T10:59:13.081Z</time>
      </trkpt>
      <trkpt lat="48.65149" lon="-2.30038">
        <ele>20</ele>
        <time>2020-06-24T10:59:14.081Z</time>
      </trkpt>
      <trkpt lat="48.65148" lon="-2.30038">
        <ele>20</ele>
        <time>2020-06-24T10:59:15.081Z</time>
      </trkpt>
      <trkpt lat="48.65146" lon="-2.30038">
        <ele>20</ele>
        <time>2020-06-24T10:59:16.081Z</time>
      </trkpt>
      <trkpt lat="48.65145" lon="-2.30038">
        <ele>20</ele>
        <time>2020-06-24T10:59:17.081Z</time>
      </trkpt>
      <trkpt lat="48.65144" lon="-2.30037">
        <ele>20</ele>
        <time>2020-06-24T10:59:18.081Z</time>
      </trkpt>
      <trkpt lat="48.65143" lon="-2.30037">
        <ele>19</ele>
        <time>2020-06-24T10:59:19.081Z</time>
      </trkpt>
      <trkpt lat="48.65142" lon="-2.30037">
        <ele>19</ele>
        <time>2020-06-24T10:59:20.081Z</time>
      </trkpt>
      <trkpt lat="48.65141" lon="-2.30037">
        <ele>19</ele>
        <time>2020-06-24T10:59:21.081Z</time>
      </trkpt>
      <trkpt lat="48.65139" lon="-2.30037">
        <ele>20</ele>
        <time>2020-06-24T10:59:22.081Z</time>
      </trkpt>
      <trkpt lat="48.65138" lon="-2.30037">
        <ele>19</ele>
        <time>2020-06-24T10:59:23.081Z</time>
      </trkpt>
      <trkpt lat="48.65136" lon="-2.30037">
        <ele>19</ele>
        <time>2020-06-24T10:59:24.081Z</time>
      </trkpt>
      <trkpt lat="48.65135" lon="-2.30037">
        <ele>19</ele>
        <time>2020-06-24T10:59:25.081Z</time>
      </trkpt>
      <trkpt lat="48.65134" lon="-2.30037">
        <ele>18</ele>
        <time>2020-06-24T10:59:26.081Z</time>
      </trkpt>
      <trkpt lat="48.65133" lon="-2.30036">
        <ele>18</ele>
        <time>2020-06-24T10:59:27.081Z</time>
      </trkpt>
      <trkpt lat="48.65132" lon="-2.30037">
        <ele>18</ele>
        <time>2020-06-24T10:59:28.081Z</time>
      </trkpt>
      <trkpt lat="48.65131" lon="-2.30037">
        <ele>18</ele>
        <time>2020-06-24T10:59:29.081Z</time>
      </trkpt>
      <trkpt lat="48.6513" lon="-2.30037">
        <ele>18</ele>
        <time>2020-06-24T10:59:30.081Z</time>
      </trkpt>
      <trkpt lat="48.6513" lon="-2.30037">
        <ele>18</ele>
        <time>2020-06-24T10:59:31.081Z</time>
      </trkpt>
      <trkpt lat="48.65129" lon="-2.30038">
        <ele>18</ele>
        <time>2020-06-24T10:59:32.081Z</time>
      </trkpt>
      <trkpt lat="48.65128" lon="-2.30038">
        <ele>18</ele>
        <time>2020-06-24T10:59:33.081Z</time>
      </trkpt>
      <trkpt lat="48.65127" lon="-2.30038">
        <ele>18</ele>
        <time>2020-06-24T10:59:34.081Z</time>
      </trkpt>
      <trkpt lat="48.65125" lon="-2.30038">
        <ele>18</ele>
        <time>2020-06-24T10:59:35.081Z</time>
      </trkpt>
      <trkpt lat="48.65124" lon="-2.30038">
        <ele>18</ele>
        <time>2020-06-24T10:59:36.081Z</time>
      </trkpt>
      <trkpt lat="48.65123" lon="-2.30037">
        <ele>18</ele>
        <time>2020-06-24T10:59:37.081Z</time>
      </trkpt>
      <trkpt lat="48.65122" lon="-2.30037">
        <ele>19</ele>
        <time>2020-06-24T10:59:38.081Z</time>
      </trkpt>
      <trkpt lat="48.65121" lon="-2.30036">
        <ele>19</ele>
        <time>2020-06-24T10:59:39.081Z</time>
      </trkpt>
      <trkpt lat="48.6512" lon="-2.30036">
        <ele>19</ele>
        <time>2020-06-24T10:59:40.081Z</time>
      </trkpt>
      <trkpt lat="48.65119" lon="-2.30036">
        <ele>19</ele>
        <time>2020-06-24T10:59:41.081Z</time>
      </trkpt>
      <trkpt lat="48.65118" lon="-2.30036">
        <ele>20</ele>
        <time>2020-06-24T10:59:42.081Z</time>
      </trkpt>
      <trkpt lat="48.65116" lon="-2.30036">
        <ele>20</ele>
        <time>2020-06-24T10:59:43.081Z</time>
      </trkpt>
      <trkpt lat="48.65115" lon="-2.30036">
        <ele>20</ele>
        <time>2020-06-24T10:59:44.081Z</time>
      </trkpt>
      <trkpt lat="48.65114" lon="-2.30036">
        <ele>20</ele>
        <time>2020-06-24T10:59:45.081Z</time>
      </trkpt>
      <trkpt lat="48.65113" lon="-2.30036">
        <ele>20</ele>
        <time>2020-06-24T10:59:46.081Z</time>
      </trkpt>
      <trkpt lat="48.65112" lon="-2.30035">
        <ele>20</ele>
        <time>2020-06-24T10:59:47.081Z</time>
      </trkpt>
      <trkpt lat="48.65111" lon="-2.30035">
        <ele>20</ele>
        <time>2020-06-24T10:59:48.081Z</time>
      </trkpt>
      <trkpt lat="48.6511" lon="-2.30035">
        <ele>20</ele>
        <time>2020-06-24T10:59:49.081Z</time>
      </trkpt>
      <trkpt lat="48.65109" lon="-2.30035">
        <ele>20</ele>
        <time>2020-06-24T10:59:50.081Z</time>
      </trkpt>
      <trkpt lat="48.65108" lon="-2.30035">
        <ele>20</ele>
        <time>2020-06-24T10:59:51.081Z</time>
      </trkpt>
      <trkpt lat="48.65108" lon="-2.30035">
        <ele>20</ele>
        <time>2020-06-24T10:59:52.081Z</time>
      </trkpt>
      <trkpt lat="48.65108" lon="-2.30035">
        <ele>20</ele>
        <time>2020-06-24T10:59:53.081Z</time>
      </trkpt>
      <trkpt lat="48.65107" lon="-2.30035">
        <ele>20</ele>
        <time>2020-06-24T10:59:54.081Z</time>
      </trkpt>
      <trkpt lat="48.65107" lon="-2.30035">
        <ele>20</ele>
        <time>2020-06-24T10:59:55.081Z</time>
      </trkpt>
      <trkpt lat="48.65107" lon="-2.30035">
        <ele>20</ele>
        <time>2020-06-24T10:59:56.081Z</time>
      </trkpt>
      <trkpt lat="48.65107" lon="-2.30035">
        <ele>20</ele>
        <time>2020-06-24T10:59:57.081Z</time>
      </trkpt>
      <trkpt lat="48.65106" lon="-2.30035">
        <ele>20</ele>
        <time>2020-06-24T10:59:58.081Z</time>
      </trkpt>
      <trkpt lat="48.651" lon="-2.30038">
        <ele>20</ele>
        <time>2020-06-24T10:59:59.085Z</time>
      </trkpt>
      <trkpt lat="48.65098" lon="-2.30039">
        <ele>21</ele>
        <time>2020-06-24T11:00:00.085Z</time>
      </trkpt>
      <trkpt lat="48.65097" lon="-2.30039">
        <ele>21</ele>
        <time>2020-06-24T11:00:01.085Z</time>
      </trkpt>
      <trkpt lat="48.65096" lon="-2.30039">
        <ele>22</ele>
        <time>2020-06-24T11:00:02.085Z</time>
      </trkpt>
      <trkpt lat="48.65094" lon="-2.30039">
        <ele>22</ele>
        <time>2020-06-24T11:00:03.085Z</time>
      </trkpt>
      <trkpt lat="48.65093" lon="-2.30039">
        <ele>22</ele>
        <time>2020-06-24T11:00:04.085Z</time>
      </trkpt>
      <trkpt lat="48.65091" lon="-2.3004">
        <ele>22</ele>
        <time>2020-06-24T11:00:05.085Z</time>
      </trkpt>
      <trkpt lat="48.6509" lon="-2.3004">
        <ele>22</ele>
        <time>2020-06-24T11:00:06.085Z</time>
      </trkpt>
      <trkpt lat="48.65089" lon="-2.30041">
        <ele>21</ele>
        <time>2020-06-24T11:00:07.085Z</time>
      </trkpt>
      <trkpt lat="48.65088" lon="-2.30041">
        <ele>21</ele>
        <time>2020-06-24T11:00:08.085Z</time>
      </trkpt>
      <trkpt lat="48.65087" lon="-2.30042">
        <ele>21</ele>
        <time>2020-06-24T11:00:09.085Z</time>
      </trkpt>
      <trkpt lat="48.65086" lon="-2.30043">
        <ele>22</ele>
        <time>2020-06-24T11:00:10.085Z</time>
      </trkpt>
      <trkpt lat="48.65085" lon="-2.30044">
        <ele>22</ele>
        <time>2020-06-24T11:00:11.085Z</time>
      </trkpt>
      <trkpt lat="48.65084" lon="-2.30045">
        <ele>23</ele>
        <time>2020-06-24T11:00:12.085Z</time>
      </trkpt>
      <trkpt lat="48.65083" lon="-2.30046">
        <ele>23</ele>
        <time>2020-06-24T11:00:13.085Z</time>
      </trkpt>
      <trkpt lat="48.65083" lon="-2.30047">
        <ele>23</ele>
        <time>2020-06-24T11:00:14.085Z</time>
      </trkpt>
      <trkpt lat="48.65083" lon="-2.30048">
        <ele>23</ele>
        <time>2020-06-24T11:00:15.085Z</time>
      </trkpt>
      <trkpt lat="48.65083" lon="-2.30048">
        <ele>24</ele>
        <time>2020-06-24T11:00:16.085Z</time>
      </trkpt>
      <trkpt lat="48.65083" lon="-2.30049">
        <ele>24</ele>
        <time>2020-06-24T11:00:17.085Z</time>
      </trkpt>
      <trkpt lat="48.65083" lon="-2.3005">
        <ele>25</ele>
        <time>2020-06-24T11:00:18.085Z</time>
      </trkpt>
      <trkpt lat="48.65083" lon="-2.30051">
        <ele>25</ele>
        <time>2020-06-24T11:00:19.085Z</time>
      </trkpt>
      <trkpt lat="48.65082" lon="-2.30053">
        <ele>26</ele>
        <time>2020-06-24T11:00:20.085Z</time>
      </trkpt>
      <trkpt lat="48.65082" lon="-2.30054">
        <ele>26</ele>
        <time>2020-06-24T11:00:21.085Z</time>
      </trkpt>
      <trkpt lat="48.65081" lon="-2.30055">
        <ele>26</ele>
        <time>2020-06-24T11:00:22.085Z</time>
      </trkpt>
      <trkpt lat="48.65081" lon="-2.30056">
        <ele>27</ele>
        <time>2020-06-24T11:00:23.085Z</time>
      </trkpt>
      <trkpt lat="48.65081" lon="-2.30057">
        <ele>27</ele>
        <time>2020-06-24T11:00:24.085Z</time>
      </trkpt>
      <trkpt lat="48.65081" lon="-2.30058">
        <ele>28</ele>
        <time>2020-06-24T11:00:25.085Z</time>
      </trkpt>
      <trkpt lat="48.6508" lon="-2.30059">
        <ele>28</ele>
        <time>2020-06-24T11:00:26.085Z</time>
      </trkpt>
      <trkpt lat="48.6508" lon="-2.3006">
        <ele>29</ele>
        <time>2020-06-24T11:00:27.085Z</time>
      </trkpt>
      <trkpt lat="48.6508" lon="-2.30061">
        <ele>29</ele>
        <time>2020-06-24T11:00:28.085Z</time>
      </trkpt>
      <trkpt lat="48.65079" lon="-2.30062">
        <ele>30</ele>
        <time>2020-06-24T11:00:29.085Z</time>
      </trkpt>
      <trkpt lat="48.65079" lon="-2.30063">
        <ele>30</ele>
        <time>2020-06-24T11:00:30.085Z</time>
      </trkpt>
      <trkpt lat="48.65078" lon="-2.30065">
        <ele>30</ele>
        <time>2020-06-24T11:00:31.085Z</time>
      </trkpt>
      <trkpt lat="48.65078" lon="-2.30066">
        <ele>31</ele>
        <time>2020-06-24T11:00:32.085Z</time>
      </trkpt>
      <trkpt lat="48.65077" lon="-2.30067">
        <ele>30</ele>
        <time>2020-06-24T11:00:33.085Z</time>
      </trkpt>
      <trkpt lat="48.65077" lon="-2.30067">
        <ele>30</ele>
        <time>2020-06-24T11:00:34.085Z</time>
      </trkpt>
      <trkpt lat="48.65077" lon="-2.30068">
        <ele>30</ele>
        <time>2020-06-24T11:00:35.085Z</time>
      </trkpt>
      <trkpt lat="48.65076" lon="-2.30069">
        <ele>30</ele>
        <time>2020-06-24T11:00:36.085Z</time>
      </trkpt>
      <trkpt lat="48.65076" lon="-2.3007">
        <ele>32</ele>
        <time>2020-06-24T11:00:37.085Z</time>
      </trkpt>
      <trkpt lat="48.65075" lon="-2.3007">
        <ele>32</ele>
        <time>2020-06-24T11:00:38.085Z</time>
      </trkpt>
      <trkpt lat="48.65074" lon="-2.30071">
        <ele>33</ele>
        <time>2020-06-24T11:00:39.085Z</time>
      </trkpt>
      <trkpt lat="48.65073" lon="-2.30071">
        <ele>33</ele>
        <time>2020-06-24T11:00:40.085Z</time>
      </trkpt>
      <trkpt lat="48.65072" lon="-2.30072">
        <ele>34</ele>
        <time>2020-06-24T11:00:41.085Z</time>
      </trkpt>
      <trkpt lat="48.65071" lon="-2.30072">
        <ele>34</ele>
        <time>2020-06-24T11:00:42.085Z</time>
      </trkpt>
      <trkpt lat="48.6507" lon="-2.30073">
        <ele>34</ele>
        <time>2020-06-24T11:00:43.085Z</time>
      </trkpt>
      <trkpt lat="48.65069" lon="-2.30073">
        <ele>35</ele>
        <time>2020-06-24T11:00:44.085Z</time>
      </trkpt>
      <trkpt lat="48.65069" lon="-2.30074">
        <ele>35</ele>
        <time>2020-06-24T11:00:45.085Z</time>
      </trkpt>
      <trkpt lat="48.65068" lon="-2.30074">
        <ele>36</ele>
        <time>2020-06-24T11:00:46.085Z</time>
      </trkpt>
      <trkpt lat="48.65068" lon="-2.30075">
        <ele>36</ele>
        <time>2020-06-24T11:00:47.085Z</time>
      </trkpt>
      <trkpt lat="48.65067" lon="-2.30076">
        <ele>37</ele>
        <time>2020-06-24T11:00:48.085Z</time>
      </trkpt>
      <trkpt lat="48.65066" lon="-2.30077">
        <ele>39</ele>
        <time>2020-06-24T11:00:49.085Z</time>
      </trkpt>
      <trkpt lat="48.65066" lon="-2.30077">
        <ele>39</ele>
        <time>2020-06-24T11:00:50.085Z</time>
      </trkpt>
      <trkpt lat="48.65065" lon="-2.30078">
        <ele>39</ele>
        <time>2020-06-24T11:00:51.085Z</time>
      </trkpt>
      <trkpt lat="48.65065" lon="-2.30078">
        <ele>39</ele>
        <time>2020-06-24T11:00:52.085Z</time>
      </trkpt>
      <trkpt lat="48.65065" lon="-2.30079">
        <ele>39</ele>
        <time>2020-06-24T11:00:53.085Z</time>
      </trkpt>
      <trkpt lat="48.65064" lon="-2.3008">
        <ele>40</ele>
        <time>2020-06-24T11:00:54.085Z</time>
      </trkpt>
      <trkpt lat="48.65064" lon="-2.30082">
        <ele>39</ele>
        <time>2020-06-24T11:00:55.085Z</time>
      </trkpt>
      <trkpt lat="48.65063" lon="-2.30082">
        <ele>40</ele>
        <time>2020-06-24T11:00:56.085Z</time>
      </trkpt>
      <trkpt lat="48.65063" lon="-2.30083">
        <ele>40</ele>
        <time>2020-06-24T11:00:57.085Z</time>
      </trkpt>
      <trkpt lat="48.65062" lon="-2.30084">
        <ele>38</ele>
        <time>2020-06-24T11:00:58.085Z</time>
      </trkpt>
      <trkpt lat="48.65062" lon="-2.30085">
        <ele>39</ele>
        <time>2020-06-24T11:00:59.085Z</time>
      </trkpt>
      <trkpt lat="48.65061" lon="-2.30085">
        <ele>39</ele>
        <time>2020-06-24T11:01:00.085Z</time>
      </trkpt>
      <trkpt lat="48.6506" lon="-2.30086">
        <ele>39</ele>
        <time>2020-06-24T11:01:01.085Z</time>
      </trkpt>
      <trkpt lat="48.65059" lon="-2.30086">
        <ele>39</ele>
        <time>2020-06-24T11:01:02.085Z</time>
      </trkpt>
      <trkpt lat="48.65059" lon="-2.30087">
        <ele>40</ele>
        <time>2020-06-24T11:01:03.085Z</time>
      </trkpt>
      <trkpt lat="48.65058" lon="-2.30087">
        <ele>41</ele>
        <time>2020-06-24T11:01:04.085Z</time>
      </trkpt>
      <trkpt lat="48.65057" lon="-2.30088">
        <ele>43</ele>
        <time>2020-06-24T11:01:05.085Z</time>
      </trkpt>
      <trkpt lat="48.65055" lon="-2.30088">
        <ele>43</ele>
        <time>2020-06-24T11:01:06.085Z</time>
      </trkpt>
      <trkpt lat="48.65054" lon="-2.30089">
        <ele>43</ele>
        <time>2020-06-24T11:01:07.085Z</time>
      </trkpt>
      <trkpt lat="48.65053" lon="-2.30089">
        <ele>44</ele>
        <time>2020-06-24T11:01:08.085Z</time>
      </trkpt>
      <trkpt lat="48.65051" lon="-2.3009">
        <ele>44</ele>
        <time>2020-06-24T11:01:09.085Z</time>
      </trkpt>
      <trkpt lat="48.6505" lon="-2.3009">
        <ele>43</ele>
        <time>2020-06-24T11:01:10.085Z</time>
      </trkpt>
      <trkpt lat="48.65049" lon="-2.3009">
        <ele>43</ele>
        <time>2020-06-24T11:01:11.085Z</time>
      </trkpt>
      <trkpt lat="48.65048" lon="-2.30091">
        <ele>43</ele>
        <time>2020-06-24T11:01:12.085Z</time>
      </trkpt>
      <trkpt lat="48.65047" lon="-2.30091">
        <ele>43</ele>
        <time>2020-06-24T11:01:13.085Z</time>
      </trkpt>
      <trkpt lat="48.65046" lon="-2.30091">
        <ele>43</ele>
        <time>2020-06-24T11:01:14.085Z</time>
      </trkpt>
      <trkpt lat="48.65046" lon="-2.30091">
        <ele>44</ele>
        <time>2020-06-24T11:01:15.085Z</time>
      </trkpt>
      <trkpt lat="48.65045" lon="-2.30092">
        <ele>44</ele>
        <time>2020-06-24T11:01:16.085Z</time>
      </trkpt>
      <trkpt lat="48.65044" lon="-2.30093">
        <ele>43</ele>
        <time>2020-06-24T11:01:17.085Z</time>
      </trkpt>
      <trkpt lat="48.65043" lon="-2.30093">
        <ele>44</ele>
        <time>2020-06-24T11:01:18.085Z</time>
      </trkpt>
      <trkpt lat="48.65042" lon="-2.30094">
        <ele>44</ele>
        <time>2020-06-24T11:01:19.085Z</time>
      </trkpt>
      <trkpt lat="48.65041" lon="-2.30095">
        <ele>44</ele>
        <time>2020-06-24T11:01:20.085Z</time>
      </trkpt>
      <trkpt lat="48.6504" lon="-2.30095">
        <ele>44</ele>
        <time>2020-06-24T11:01:21.085Z</time>
      </trkpt>
      <trkpt lat="48.6504" lon="-2.30096">
        <ele>44</ele>
        <time>2020-06-24T11:01:22.085Z</time>
      </trkpt>
      <trkpt lat="48.65039" lon="-2.30096">
        <ele>43</ele>
        <time>2020-06-24T11:01:23.085Z</time>
      </trkpt>
      <trkpt lat="48.65038" lon="-2.30097">
        <ele>44</ele>
        <time>2020-06-24T11:01:24.085Z</time>
      </trkpt>
      <trkpt lat="48.65037" lon="-2.30097">
        <ele>43</ele>
        <time>2020-06-24T11:01:25.085Z</time>
      </trkpt>
      <trkpt lat="48.65037" lon="-2.30098">
        <ele>42</ele>
        <time>2020-06-24T11:01:26.085Z</time>
      </trkpt>
      <trkpt lat="48.65036" lon="-2.30098">
        <ele>42</ele>
        <time>2020-06-24T11:01:27.085Z</time>
      </trkpt>
      <trkpt lat="48.65035" lon="-2.30099">
        <ele>42</ele>
        <time>2020-06-24T11:01:28.085Z</time>
      </trkpt>
      <trkpt lat="48.65034" lon="-2.30099">
        <ele>42</ele>
        <time>2020-06-24T11:01:29.085Z</time>
      </trkpt>
      <trkpt lat="48.65033" lon="-2.30099">
        <ele>43</ele>
        <time>2020-06-24T11:01:30.085Z</time>
      </trkpt>
      <trkpt lat="48.65032" lon="-2.301">
        <ele>45</ele>
        <time>2020-06-24T11:01:31.085Z</time>
      </trkpt>
      <trkpt lat="48.6503" lon="-2.301">
        <ele>45</ele>
        <time>2020-06-24T11:01:32.085Z</time>
      </trkpt>
      <trkpt lat="48.65029" lon="-2.30101">
        <ele>44</ele>
        <time>2020-06-24T11:01:33.085Z</time>
      </trkpt>
      <trkpt lat="48.65027" lon="-2.30101">
        <ele>44</ele>
        <time>2020-06-24T11:01:34.085Z</time>
      </trkpt>
      <trkpt lat="48.65026" lon="-2.30101">
        <ele>43</ele>
        <time>2020-06-24T11:01:35.085Z</time>
      </trkpt>
      <trkpt lat="48.65024" lon="-2.30101">
        <ele>42</ele>
        <time>2020-06-24T11:01:36.085Z</time>
      </trkpt>
      <trkpt lat="48.65023" lon="-2.30102">
        <ele>42</ele>
        <time>2020-06-24T11:01:37.085Z</time>
      </trkpt>
      <trkpt lat="48.65022" lon="-2.30102">
        <ele>41</ele>
        <time>2020-06-24T11:01:38.085Z</time>
      </trkpt>
      <trkpt lat="48.6502" lon="-2.30103">
        <ele>41</ele>
        <time>2020-06-24T11:01:39.085Z</time>
      </trkpt>
      <trkpt lat="48.65019" lon="-2.30104">
        <ele>40</ele>
        <time>2020-06-24T11:01:40.085Z</time>
      </trkpt>
      <trkpt lat="48.65018" lon="-2.30105">
        <ele>40</ele>
        <time>2020-06-24T11:01:41.085Z</time>
      </trkpt>
      <trkpt lat="48.65017" lon="-2.30106">
        <ele>39</ele>
        <time>2020-06-24T11:01:42.085Z</time>
      </trkpt>
      <trkpt lat="48.65016" lon="-2.30108">
        <ele>39</ele>
        <time>2020-06-24T11:01:43.085Z</time>
      </trkpt>
      <trkpt lat="48.65015" lon="-2.30109">
        <ele>39</ele>
        <time>2020-06-24T11:01:44.085Z</time>
      </trkpt>
      <trkpt lat="48.65014" lon="-2.3011">
        <ele>39</ele>
        <time>2020-06-24T11:01:45.085Z</time>
      </trkpt>
      <trkpt lat="48.65013" lon="-2.30111">
        <ele>39</ele>
        <time>2020-06-24T11:01:46.085Z</time>
      </trkpt>
      <trkpt lat="48.65013" lon="-2.30112">
        <ele>39</ele>
        <time>2020-06-24T11:01:47.085Z</time>
      </trkpt>
      <trkpt lat="48.65012" lon="-2.30113">
        <ele>40</ele>
        <time>2020-06-24T11:01:48.085Z</time>
      </trkpt>
      <trkpt lat="48.65011" lon="-2.30113">
        <ele>40</ele>
        <time>2020-06-24T11:01:49.085Z</time>
      </trkpt>
      <trkpt lat="48.65011" lon="-2.30114">
        <ele>40</ele>
        <time>2020-06-24T11:01:50.085Z</time>
      </trkpt>
      <trkpt lat="48.6501" lon="-2.30115">
        <ele>38</ele>
        <time>2020-06-24T11:01:51.085Z</time>
      </trkpt>
      <trkpt lat="48.6501" lon="-2.30117">
        <ele>38</ele>
        <time>2020-06-24T11:01:52.085Z</time>
      </trkpt>
      <trkpt lat="48.65009" lon="-2.30119">
        <ele>39</ele>
        <time>2020-06-24T11:01:53.085Z</time>
      </trkpt>
      <trkpt lat="48.65008" lon="-2.3012">
        <ele>38</ele>
        <time>2020-06-24T11:01:54.085Z</time>
      </trkpt>
      <trkpt lat="48.65007" lon="-2.30122">
        <ele>39</ele>
        <time>2020-06-24T11:01:55.085Z</time>
      </trkpt>
      <trkpt lat="48.65006" lon="-2.30123">
        <ele>40</ele>
        <time>2020-06-24T11:01:56.085Z</time>
      </trkpt>
      <trkpt lat="48.65005" lon="-2.30124">
        <ele>40</ele>
        <time>2020-06-24T11:01:57.085Z</time>
      </trkpt>
      <trkpt lat="48.65004" lon="-2.30126">
        <ele>40</ele>
        <time>2020-06-24T11:01:58.085Z</time>
      </trkpt>
      <trkpt lat="48.65004" lon="-2.30127">
        <ele>40</ele>
        <time>2020-06-24T11:01:59.085Z</time>
      </trkpt>
      <trkpt lat="48.65003" lon="-2.30128">
        <ele>40</ele>
        <time>2020-06-24T11:02:00.085Z</time>
      </trkpt>
      <trkpt lat="48.65002" lon="-2.3013">
        <ele>40</ele>
        <time>2020-06-24T11:02:01.085Z</time>
      </trkpt>
      <trkpt lat="48.65001" lon="-2.30131">
        <ele>39</ele>
        <time>2020-06-24T11:02:02.085Z</time>
      </trkpt>
      <trkpt lat="48.65" lon="-2.30132">
        <ele>39</ele>
        <time>2020-06-24T11:02:03.085Z</time>
      </trkpt>
      <trkpt lat="48.64999" lon="-2.30134">
        <ele>38</ele>
        <time>2020-06-24T11:02:04.085Z</time>
      </trkpt>
      <trkpt lat="48.64999" lon="-2.30135">
        <ele>39</ele>
        <time>2020-06-24T11:02:05.085Z</time>
      </trkpt>
      <trkpt lat="48.64998" lon="-2.30137">
        <ele>39</ele>
        <time>2020-06-24T11:02:06.085Z</time>
      </trkpt>
      <trkpt lat="48.64997" lon="-2.30138">
        <ele>40</ele>
        <time>2020-06-24T11:02:07.085Z</time>
      </trkpt>
      <trkpt lat="48.64996" lon="-2.3014">
        <ele>40</ele>
        <time>2020-06-24T11:02:08.085Z</time>
      </trkpt>
      <trkpt lat="48.64996" lon="-2.30141">
        <ele>40</ele>
        <time>2020-06-24T11:02:09.085Z</time>
      </trkpt>
      <trkpt lat="48.64995" lon="-2.30142">
        <ele>40</ele>
        <time>2020-06-24T11:02:10.085Z</time>
      </trkpt>
      <trkpt lat="48.64994" lon="-2.30144">
        <ele>40</ele>
        <time>2020-06-24T11:02:11.085Z</time>
      </trkpt>
      <trkpt lat="48.64993" lon="-2.30145">
        <ele>40</ele>
        <time>2020-06-24T11:02:12.085Z</time>
      </trkpt>
      <trkpt lat="48.64992" lon="-2.30147">
        <ele>40</ele>
        <time>2020-06-24T11:02:13.085Z</time>
      </trkpt>
      <trkpt lat="48.64991" lon="-2.30148">
        <ele>40</ele>
        <time>2020-06-24T11:02:14.085Z</time>
      </trkpt>
      <trkpt lat="48.6499" lon="-2.30149">
        <ele>40</ele>
        <time>2020-06-24T11:02:15.085Z</time>
      </trkpt>
      <trkpt lat="48.64989" lon="-2.3015">
        <ele>40</ele>
        <time>2020-06-24T11:02:16.085Z</time>
      </trkpt>
      <trkpt lat="48.64989" lon="-2.30151">
        <ele>40</ele>
        <time>2020-06-24T11:02:17.085Z</time>
      </trkpt>
      <trkpt lat="48.64988" lon="-2.30152">
        <ele>40</ele>
        <time>2020-06-24T11:02:18.085Z</time>
      </trkpt>
      <trkpt lat="48.64988" lon="-2.30153">
        <ele>41</ele>
        <time>2020-06-24T11:02:19.085Z</time>
      </trkpt>
      <trkpt lat="48.64987" lon="-2.30155">
        <ele>41</ele>
        <time>2020-06-24T11:02:20.085Z</time>
      </trkpt>
      <trkpt lat="48.64987" lon="-2.30156">
        <ele>41</ele>
        <time>2020-06-24T11:02:21.085Z</time>
      </trkpt>
      <trkpt lat="48.64986" lon="-2.30158">
        <ele>41</ele>
        <time>2020-06-24T11:02:22.085Z</time>
      </trkpt>
      <trkpt lat="48.64986" lon="-2.3016">
        <ele>41</ele>
        <time>2020-06-24T11:02:23.085Z</time>
      </trkpt>
      <trkpt lat="48.64986" lon="-2.30161">
        <ele>42</ele>
        <time>2020-06-24T11:02:24.085Z</time>
      </trkpt>
      <trkpt lat="48.64985" lon="-2.30163">
        <ele>42</ele>
        <time>2020-06-24T11:02:25.085Z</time>
      </trkpt>
      <trkpt lat="48.64984" lon="-2.30164">
        <ele>42</ele>
        <time>2020-06-24T11:02:26.085Z</time>
      </trkpt>
      <trkpt lat="48.64982" lon="-2.30166">
        <ele>42</ele>
        <time>2020-06-24T11:02:27.085Z</time>
      </trkpt>
      <trkpt lat="48.64981" lon="-2.30167">
        <ele>41</ele>
        <time>2020-06-24T11:02:28.085Z</time>
      </trkpt>
      <trkpt lat="48.6498" lon="-2.30169">
        <ele>40</ele>
        <time>2020-06-24T11:02:29.085Z</time>
      </trkpt>
      <trkpt lat="48.64979" lon="-2.30171">
        <ele>40</ele>
        <time>2020-06-24T11:02:30.085Z</time>
      </trkpt>
      <trkpt lat="48.64979" lon="-2.30172">
        <ele>39</ele>
        <time>2020-06-24T11:02:31.085Z</time>
      </trkpt>
      <trkpt lat="48.64978" lon="-2.30174">
        <ele>39</ele>
        <time>2020-06-24T11:02:32.085Z</time>
      </trkpt>
      <trkpt lat="48.64977" lon="-2.30176">
        <ele>39</ele>
        <time>2020-06-24T11:02:33.085Z</time>
      </trkpt>
      <trkpt lat="48.64976" lon="-2.30178">
        <ele>39</ele>
        <time>2020-06-24T11:02:34.085Z</time>
      </trkpt>
      <trkpt lat="48.64975" lon="-2.3018">
        <ele>38</ele>
        <time>2020-06-24T11:02:35.085Z</time>
      </trkpt>
      <trkpt lat="48.64975" lon="-2.30182">
        <ele>38</ele>
        <time>2020-06-24T11:02:36.085Z</time>
      </trkpt>
      <trkpt lat="48.64974" lon="-2.30183">
        <ele>38</ele>
        <time>2020-06-24T11:02:37.085Z</time>
      </trkpt>
      <trkpt lat="48.64974" lon="-2.30185">
        <ele>38</ele>
        <time>2020-06-24T11:02:38.085Z</time>
      </trkpt>
      <trkpt lat="48.64974" lon="-2.30187">
        <ele>39</ele>
        <time>2020-06-24T11:02:39.085Z</time>
      </trkpt>
      <trkpt lat="48.64974" lon="-2.30189">
        <ele>39</ele>
        <time>2020-06-24T11:02:40.085Z</time>
      </trkpt>
      <trkpt lat="48.64974" lon="-2.3019">
        <ele>40</ele>
        <time>2020-06-24T11:02:41.085Z</time>
      </trkpt>
      <trkpt lat="48.64973" lon="-2.30192">
        <ele>40</ele>
        <time>2020-06-24T11:02:42.085Z</time>
      </trkpt>
      <trkpt lat="48.64973" lon="-2.30194">
        <ele>40</ele>
        <time>2020-06-24T11:02:43.085Z</time>
      </trkpt>
      <trkpt lat="48.64973" lon="-2.30195">
        <ele>40</ele>
        <time>2020-06-24T11:02:44.085Z</time>
      </trkpt>
      <trkpt lat="48.64973" lon="-2.30197">
        <ele>40</ele>
        <time>2020-06-24T11:02:45.085Z</time>
      </trkpt>
      <trkpt lat="48.64973" lon="-2.30198">
        <ele>41</ele>
        <time>2020-06-24T11:02:46.085Z</time>
      </trkpt>
      <trkpt lat="48.64973" lon="-2.302">
        <ele>40</ele>
        <time>2020-06-24T11:02:47.085Z</time>
      </trkpt>
      <trkpt lat="48.64973" lon="-2.30201">
        <ele>38</ele>
        <time>2020-06-24T11:02:48.085Z</time>
      </trkpt>
      <trkpt lat="48.64972" lon="-2.30204">
        <ele>37</ele>
        <time>2020-06-24T11:02:49.085Z</time>
      </trkpt>
      <trkpt lat="48.64972" lon="-2.30206">
        <ele>37</ele>
        <time>2020-06-24T11:02:50.085Z</time>
      </trkpt>
      <trkpt lat="48.64972" lon="-2.30208">
        <ele>36</ele>
        <time>2020-06-24T11:02:51.085Z</time>
      </trkpt>
      <trkpt lat="48.64972" lon="-2.30209">
        <ele>36</ele>
        <time>2020-06-24T11:02:52.085Z</time>
      </trkpt>
      <trkpt lat="48.64972" lon="-2.30211">
        <ele>36</ele>
        <time>2020-06-24T11:02:53.085Z</time>
      </trkpt>
      <trkpt lat="48.64972" lon="-2.30212">
        <ele>36</ele>
        <time>2020-06-24T11:02:54.085Z</time>
      </trkpt>
      <trkpt lat="48.64972" lon="-2.30214">
        <ele>35</ele>
        <time>2020-06-24T11:02:55.085Z</time>
      </trkpt>
      <trkpt lat="48.64972" lon="-2.30216">
        <ele>35</ele>
        <time>2020-06-24T11:02:56.085Z</time>
      </trkpt>
      <trkpt lat="48.64972" lon="-2.30218">
        <ele>35</ele>
        <time>2020-06-24T11:02:57.085Z</time>
      </trkpt>
      <trkpt lat="48.64973" lon="-2.3022">
        <ele>34</ele>
        <time>2020-06-24T11:02:58.085Z</time>
      </trkpt>
      <trkpt lat="48.64972" lon="-2.30221">
        <ele>34</ele>
        <time>2020-06-24T11:02:59.085Z</time>
      </trkpt>
      <trkpt lat="48.64972" lon="-2.30223">
        <ele>34</ele>
        <time>2020-06-24T11:03:00.085Z</time>
      </trkpt>
      <trkpt lat="48.64971" lon="-2.30223">
        <ele>33</ele>
        <time>2020-06-24T11:03:01.085Z</time>
      </trkpt>
      <trkpt lat="48.64971" lon="-2.30224">
        <ele>33</ele>
        <time>2020-06-24T11:03:02.085Z</time>
      </trkpt>
      <trkpt lat="48.6497" lon="-2.30224">
        <ele>33</ele>
        <time>2020-06-24T11:03:03.085Z</time>
      </trkpt>
      <trkpt lat="48.64969" lon="-2.30224">
        <ele>30</ele>
        <time>2020-06-24T11:03:04.085Z</time>
      </trkpt>
      <trkpt lat="48.64968" lon="-2.30225">
        <ele>30</ele>
        <time>2020-06-24T11:03:05.085Z</time>
      </trkpt>
      <trkpt lat="48.64966" lon="-2.30225">
        <ele>31</ele>
        <time>2020-06-24T11:03:06.085Z</time>
      </trkpt>
      <trkpt lat="48.64965" lon="-2.30224">
        <ele>31</ele>
        <time>2020-06-24T11:03:07.085Z</time>
      </trkpt>
      <trkpt lat="48.64963" lon="-2.30224">
        <ele>31</ele>
        <time>2020-06-24T11:03:08.085Z</time>
      </trkpt>
      <trkpt lat="48.64962" lon="-2.30225">
        <ele>31</ele>
        <time>2020-06-24T11:03:09.085Z</time>
      </trkpt>
      <trkpt lat="48.64961" lon="-2.30225">
        <ele>31</ele>
        <time>2020-06-24T11:03:10.085Z</time>
      </trkpt>
      <trkpt lat="48.64961" lon="-2.30226">
        <ele>31</ele>
        <time>2020-06-24T11:03:11.085Z</time>
      </trkpt>
      <trkpt lat="48.64961" lon="-2.30228">
        <ele>31</ele>
        <time>2020-06-24T11:03:12.085Z</time>
      </trkpt>
      <trkpt lat="48.64961" lon="-2.30229">
        <ele>30</ele>
        <time>2020-06-24T11:03:13.085Z</time>
      </trkpt>
      <trkpt lat="48.64961" lon="-2.3023">
        <ele>30</ele>
        <time>2020-06-24T11:03:14.085Z</time>
      </trkpt>
      <trkpt lat="48.64961" lon="-2.30231">
        <ele>30</ele>
        <time>2020-06-24T11:03:15.085Z</time>
      </trkpt>
      <trkpt lat="48.64961" lon="-2.30233">
        <ele>30</ele>
        <time>2020-06-24T11:03:16.085Z</time>
      </trkpt>
      <trkpt lat="48.64961" lon="-2.30234">
        <ele>30</ele>
        <time>2020-06-24T11:03:17.085Z</time>
      </trkpt>
      <trkpt lat="48.64961" lon="-2.30235">
        <ele>30</ele>
        <time>2020-06-24T11:03:18.085Z</time>
      </trkpt>
      <trkpt lat="48.64961" lon="-2.30237">
        <ele>30</ele>
        <time>2020-06-24T11:03:19.085Z</time>
      </trkpt>
      <trkpt lat="48.64961" lon="-2.30238">
        <ele>29</ele>
        <time>2020-06-24T11:03:20.085Z</time>
      </trkpt>
      <trkpt lat="48.64961" lon="-2.30239">
        <ele>29</ele>
        <time>2020-06-24T11:03:21.085Z</time>
      </trkpt>
      <trkpt lat="48.64961" lon="-2.3024">
        <ele>28</ele>
        <time>2020-06-24T11:03:22.085Z</time>
      </trkpt>
      <trkpt lat="48.64961" lon="-2.30241">
        <ele>28</ele>
        <time>2020-06-24T11:03:23.085Z</time>
      </trkpt>
      <trkpt lat="48.64961" lon="-2.30241">
        <ele>27</ele>
        <time>2020-06-24T11:03:24.085Z</time>
      </trkpt>
      <trkpt lat="48.64961" lon="-2.30241">
        <ele>27</ele>
        <time>2020-06-24T11:03:25.085Z</time>
      </trkpt>
      <trkpt lat="48.6496" lon="-2.30241">
        <ele>26</ele>
        <time>2020-06-24T11:03:26.085Z</time>
      </trkpt>
      <trkpt lat="48.64959" lon="-2.30241">
        <ele>25</ele>
        <time>2020-06-24T11:03:27.085Z</time>
      </trkpt>
      <trkpt lat="48.64958" lon="-2.30241">
        <ele>25</ele>
        <time>2020-06-24T11:03:28.085Z</time>
      </trkpt>
      <trkpt lat="48.64956" lon="-2.30241">
        <ele>25</ele>
        <time>2020-06-24T11:03:29.085Z</time>
      </trkpt>
      <trkpt lat="48.64955" lon="-2.3024">
        <ele>25</ele>
        <time>2020-06-24T11:03:30.085Z</time>
      </trkpt>
      <trkpt lat="48.64954" lon="-2.3024">
        <ele>25</ele>
        <time>2020-06-24T11:03:31.085Z</time>
      </trkpt>
      <trkpt lat="48.64953" lon="-2.30239">
        <ele>24</ele>
        <time>2020-06-24T11:03:32.085Z</time>
      </trkpt>
      <trkpt lat="48.64953" lon="-2.30238">
        <ele>24</ele>
        <time>2020-06-24T11:03:33.085Z</time>
      </trkpt>
      <trkpt lat="48.64952" lon="-2.30238">
        <ele>22</ele>
        <time>2020-06-24T11:03:34.085Z</time>
      </trkpt>
      <trkpt lat="48.64951" lon="-2.30239">
        <ele>22</ele>
        <time>2020-06-24T11:03:35.085Z</time>
      </trkpt>
      <trkpt lat="48.6495" lon="-2.30239">
        <ele>22</ele>
        <time>2020-06-24T11:03:36.085Z</time>
      </trkpt>
      <trkpt lat="48.64949" lon="-2.30239">
        <ele>22</ele>
        <time>2020-06-24T11:03:37.085Z</time>
      </trkpt>
      <trkpt lat="48.64948" lon="-2.30239">
        <ele>23</ele>
        <time>2020-06-24T11:03:38.085Z</time>
      </trkpt>
      <trkpt lat="48.64947" lon="-2.3024">
        <ele>24</ele>
        <time>2020-06-24T11:03:39.085Z</time>
      </trkpt>
      <trkpt lat="48.64945" lon="-2.30241">
        <ele>24</ele>
        <time>2020-06-24T11:03:40.085Z</time>
      </trkpt>
      <trkpt lat="48.64944" lon="-2.30243">
        <ele>23</ele>
        <time>2020-06-24T11:03:41.085Z</time>
      </trkpt>
      <trkpt lat="48.64944" lon="-2.30244">
        <ele>22</ele>
        <time>2020-06-24T11:03:42.085Z</time>
      </trkpt>
      <trkpt lat="48.64943" lon="-2.30245">
        <ele>22</ele>
        <time>2020-06-24T11:03:43.085Z</time>
      </trkpt>
      <trkpt lat="48.64942" lon="-2.30247">
        <ele>22</ele>
        <time>2020-06-24T11:03:44.085Z</time>
      </trkpt>
      <trkpt lat="48.64942" lon="-2.30248">
        <ele>21</ele>
        <time>2020-06-24T11:03:45.085Z</time>
      </trkpt>
      <trkpt lat="48.64942" lon="-2.3025">
        <ele>21</ele>
        <time>2020-06-24T11:03:46.085Z</time>
      </trkpt>
      <trkpt lat="48.64941" lon="-2.30251">
        <ele>19</ele>
        <time>2020-06-24T11:03:47.085Z</time>
      </trkpt>
      <trkpt lat="48.64941" lon="-2.30252">
        <ele>20</ele>
        <time>2020-06-24T11:03:48.085Z</time>
      </trkpt>
      <trkpt lat="48.64941" lon="-2.30253">
        <ele>21</ele>
        <time>2020-06-24T11:03:49.085Z</time>
      </trkpt>
      <trkpt lat="48.64941" lon="-2.30255">
        <ele>21</ele>
        <time>2020-06-24T11:03:50.085Z</time>
      </trkpt>
      <trkpt lat="48.64941" lon="-2.30256">
        <ele>21</ele>
        <time>2020-06-24T11:03:51.085Z</time>
      </trkpt>
      <trkpt lat="48.64941" lon="-2.30258">
        <ele>21</ele>
        <time>2020-06-24T11:03:52.085Z</time>
      </trkpt>
      <trkpt lat="48.64941" lon="-2.30259">
        <ele>21</ele>
        <time>2020-06-24T11:03:53.085Z</time>
      </trkpt>
      <trkpt lat="48.6494" lon="-2.3026">
        <ele>20</ele>
        <time>2020-06-24T11:03:54.085Z</time>
      </trkpt>
      <trkpt lat="48.6494" lon="-2.30262">
        <ele>20</ele>
        <time>2020-06-24T11:03:55.085Z</time>
      </trkpt>
      <trkpt lat="48.6494" lon="-2.30263">
        <ele>20</ele>
        <time>2020-06-24T11:03:56.085Z</time>
      </trkpt>
      <trkpt lat="48.6494" lon="-2.30264">
        <ele>21</ele>
        <time>2020-06-24T11:03:57.085Z</time>
      </trkpt>
      <trkpt lat="48.6494" lon="-2.30266">
        <ele>20</ele>
        <time>2020-06-24T11:03:58.085Z</time>
      </trkpt>
      <trkpt lat="48.64939" lon="-2.30267">
        <ele>20</ele>
        <time>2020-06-24T11:03:59.085Z</time>
      </trkpt>
      <trkpt lat="48.64939" lon="-2.30268">
        <ele>20</ele>
        <time>2020-06-24T11:04:00.085Z</time>
      </trkpt>
      <trkpt lat="48.64939" lon="-2.30269">
        <ele>21</ele>
        <time>2020-06-24T11:04:01.085Z</time>
      </trkpt>
      <trkpt lat="48.64939" lon="-2.3027">
        <ele>22</ele>
        <time>2020-06-24T11:04:02.085Z</time>
      </trkpt>
      <trkpt lat="48.64939" lon="-2.30271">
        <ele>23</ele>
        <time>2020-06-24T11:04:03.085Z</time>
      </trkpt>
      <trkpt lat="48.64938" lon="-2.30274">
        <ele>23</ele>
        <time>2020-06-24T11:04:04.085Z</time>
      </trkpt>
      <trkpt lat="48.64938" lon="-2.30276">
        <ele>24</ele>
        <time>2020-06-24T11:04:05.085Z</time>
      </trkpt>
      <trkpt lat="48.64937" lon="-2.30278">
        <ele>24</ele>
        <time>2020-06-24T11:04:06.085Z</time>
      </trkpt>
      <trkpt lat="48.64937" lon="-2.3028">
        <ele>23</ele>
        <time>2020-06-24T11:04:07.085Z</time>
      </trkpt>
      <trkpt lat="48.64936" lon="-2.30282">
        <ele>23</ele>
        <time>2020-06-24T11:04:08.085Z</time>
      </trkpt>
      <trkpt lat="48.64936" lon="-2.30284">
        <ele>22</ele>
        <time>2020-06-24T11:04:09.085Z</time>
      </trkpt>
      <trkpt lat="48.64936" lon="-2.30285">
        <ele>22</ele>
        <time>2020-06-24T11:04:10.085Z</time>
      </trkpt>
      <trkpt lat="48.64935" lon="-2.30287">
        <ele>22</ele>
        <time>2020-06-24T11:04:11.085Z</time>
      </trkpt>
      <trkpt lat="48.64935" lon="-2.30288">
        <ele>22</ele>
        <time>2020-06-24T11:04:12.085Z</time>
      </trkpt>
      <trkpt lat="48.64934" lon="-2.30289">
        <ele>23</ele>
        <time>2020-06-24T11:04:13.085Z</time>
      </trkpt>
      <trkpt lat="48.64934" lon="-2.30291">
        <ele>24</ele>
        <time>2020-06-24T11:04:14.085Z</time>
      </trkpt>
      <trkpt lat="48.64933" lon="-2.30292">
        <ele>24</ele>
        <time>2020-06-24T11:04:15.085Z</time>
      </trkpt>
      <trkpt lat="48.64933" lon="-2.30294">
        <ele>24</ele>
        <time>2020-06-24T11:04:16.085Z</time>
      </trkpt>
      <trkpt lat="48.64932" lon="-2.30295">
        <ele>24</ele>
        <time>2020-06-24T11:04:17.085Z</time>
      </trkpt>
      <trkpt lat="48.64932" lon="-2.30297">
        <ele>25</ele>
        <time>2020-06-24T11:04:18.085Z</time>
      </trkpt>
      <trkpt lat="48.64931" lon="-2.30298">
        <ele>26</ele>
        <time>2020-06-24T11:04:19.085Z</time>
      </trkpt>
      <trkpt lat="48.64931" lon="-2.303">
        <ele>26</ele>
        <time>2020-06-24T11:04:20.085Z</time>
      </trkpt>
      <trkpt lat="48.6493" lon="-2.30302">
        <ele>26</ele>
        <time>2020-06-24T11:04:21.085Z</time>
      </trkpt>
      <trkpt lat="48.64929" lon="-2.30303">
        <ele>26</ele>
        <time>2020-06-24T11:04:22.085Z</time>
      </trkpt>
      <trkpt lat="48.64929" lon="-2.30305">
        <ele>27</ele>
        <time>2020-06-24T11:04:23.085Z</time>
      </trkpt>
      <trkpt lat="48.64928" lon="-2.30306">
        <ele>27</ele>
        <time>2020-06-24T11:04:24.085Z</time>
      </trkpt>
      <trkpt lat="48.64927" lon="-2.30306">
        <ele>27</ele>
        <time>2020-06-24T11:04:25.085Z</time>
      </trkpt>
      <trkpt lat="48.64926" lon="-2.30307">
        <ele>28</ele>
        <time>2020-06-24T11:04:26.085Z</time>
      </trkpt>
      <trkpt lat="48.64925" lon="-2.30308">
        <ele>29</ele>
        <time>2020-06-24T11:04:27.085Z</time>
      </trkpt>
      <trkpt lat="48.64923" lon="-2.30309">
        <ele>29</ele>
        <time>2020-06-24T11:04:28.085Z</time>
      </trkpt>
      <trkpt lat="48.64922" lon="-2.30309">
        <ele>30</ele>
        <time>2020-06-24T11:04:29.085Z</time>
      </trkpt>
      <trkpt lat="48.64921" lon="-2.3031">
        <ele>30</ele>
        <time>2020-06-24T11:04:30.085Z</time>
      </trkpt>
      <trkpt lat="48.6492" lon="-2.3031">
        <ele>31</ele>
        <time>2020-06-24T11:04:31.085Z</time>
      </trkpt>
      <trkpt lat="48.64919" lon="-2.30311">
        <ele>31</ele>
        <time>2020-06-24T11:04:32.085Z</time>
      </trkpt>
      <trkpt lat="48.64919" lon="-2.30311">
        <ele>32</ele>
        <time>2020-06-24T11:04:33.085Z</time>
      </trkpt>
      <trkpt lat="48.64919" lon="-2.30312">
        <ele>33</ele>
        <time>2020-06-24T11:04:34.085Z</time>
      </trkpt>
      <trkpt lat="48.64919" lon="-2.30312">
        <ele>33</ele>
        <time>2020-06-24T11:04:35.085Z</time>
      </trkpt>
      <trkpt lat="48.64919" lon="-2.30313">
        <ele>33</ele>
        <time>2020-06-24T11:04:36.085Z</time>
      </trkpt>
      <trkpt lat="48.64919" lon="-2.30313">
        <ele>34</ele>
        <time>2020-06-24T11:04:37.085Z</time>
      </trkpt>
      <trkpt lat="48.64919" lon="-2.30314">
        <ele>34</ele>
        <time>2020-06-24T11:04:38.085Z</time>
      </trkpt>
      <trkpt lat="48.64919" lon="-2.30315">
        <ele>35</ele>
        <time>2020-06-24T11:04:39.085Z</time>
      </trkpt>
      <trkpt lat="48.64919" lon="-2.30316">
        <ele>35</ele>
        <time>2020-06-24T11:04:40.085Z</time>
      </trkpt>
      <trkpt lat="48.64919" lon="-2.30318">
        <ele>35</ele>
        <time>2020-06-24T11:04:41.085Z</time>
      </trkpt>
      <trkpt lat="48.64918" lon="-2.30319">
        <ele>36</ele>
        <time>2020-06-24T11:04:42.085Z</time>
      </trkpt>
      <trkpt lat="48.64918" lon="-2.3032">
        <ele>37</ele>
        <time>2020-06-24T11:04:43.085Z</time>
      </trkpt>
      <trkpt lat="48.64917" lon="-2.30321">
        <ele>35</ele>
        <time>2020-06-24T11:04:44.085Z</time>
      </trkpt>
      <trkpt lat="48.64917" lon="-2.30323">
        <ele>36</ele>
        <time>2020-06-24T11:04:45.085Z</time>
      </trkpt>
      <trkpt lat="48.64917" lon="-2.30324">
        <ele>35</ele>
        <time>2020-06-24T11:04:46.085Z</time>
      </trkpt>
      <trkpt lat="48.64916" lon="-2.30326">
        <ele>36</ele>
        <time>2020-06-24T11:04:47.085Z</time>
      </trkpt>
      <trkpt lat="48.64915" lon="-2.30327">
        <ele>35</ele>
        <time>2020-06-24T11:04:48.085Z</time>
      </trkpt>
      <trkpt lat="48.64914" lon="-2.30328">
        <ele>34</ele>
        <time>2020-06-24T11:04:49.085Z</time>
      </trkpt>
      <trkpt lat="48.64913" lon="-2.30329">
        <ele>32</ele>
        <time>2020-06-24T11:04:50.085Z</time>
      </trkpt>
      <trkpt lat="48.64912" lon="-2.3033">
        <ele>32</ele>
        <time>2020-06-24T11:04:51.085Z</time>
      </trkpt>
      <trkpt lat="48.64911" lon="-2.3033">
        <ele>32</ele>
        <time>2020-06-24T11:04:52.085Z</time>
      </trkpt>
      <trkpt lat="48.6491" lon="-2.30331">
        <ele>32</ele>
        <time>2020-06-24T11:04:53.085Z</time>
      </trkpt>
      <trkpt lat="48.6491" lon="-2.30332">
        <ele>30</ele>
        <time>2020-06-24T11:04:54.085Z</time>
      </trkpt>
      <trkpt lat="48.64909" lon="-2.30333">
        <ele>31</ele>
        <time>2020-06-24T11:04:55.085Z</time>
      </trkpt>
      <trkpt lat="48.64908" lon="-2.30334">
        <ele>31</ele>
        <time>2020-06-24T11:04:56.085Z</time>
      </trkpt>
      <trkpt lat="48.64907" lon="-2.30334">
        <ele>31</ele>
        <time>2020-06-24T11:04:57.085Z</time>
      </trkpt>
      <trkpt lat="48.64906" lon="-2.30335">
        <ele>32</ele>
        <time>2020-06-24T11:04:58.085Z</time>
      </trkpt>
      <trkpt lat="48.64906" lon="-2.30337">
        <ele>32</ele>
        <time>2020-06-24T11:04:59.085Z</time>
      </trkpt>
      <trkpt lat="48.64905" lon="-2.30338">
        <ele>33</ele>
        <time>2020-06-24T11:05:00.085Z</time>
      </trkpt>
      <trkpt lat="48.64903" lon="-2.30338">
        <ele>34</ele>
        <time>2020-06-24T11:05:01.085Z</time>
      </trkpt>
      <trkpt lat="48.64902" lon="-2.30339">
        <ele>35</ele>
        <time>2020-06-24T11:05:02.085Z</time>
      </trkpt>
      <trkpt lat="48.64901" lon="-2.30339">
        <ele>34</ele>
        <time>2020-06-24T11:05:03.085Z</time>
      </trkpt>
      <trkpt lat="48.649" lon="-2.3034">
        <ele>33</ele>
        <time>2020-06-24T11:05:04.085Z</time>
      </trkpt>
      <trkpt lat="48.64899" lon="-2.3034">
        <ele>34</ele>
        <time>2020-06-24T11:05:05.085Z</time>
      </trkpt>
      <trkpt lat="48.64898" lon="-2.3034">
        <ele>32</ele>
        <time>2020-06-24T11:05:06.085Z</time>
      </trkpt>
      <trkpt lat="48.64897" lon="-2.30341">
        <ele>31</ele>
        <time>2020-06-24T11:05:07.085Z</time>
      </trkpt>
      <trkpt lat="48.64895" lon="-2.30341">
        <ele>31</ele>
        <time>2020-06-24T11:05:08.085Z</time>
      </trkpt>
      <trkpt lat="48.64894" lon="-2.30342">
        <ele>31</ele>
        <time>2020-06-24T11:05:09.085Z</time>
      </trkpt>
      <trkpt lat="48.64893" lon="-2.30342">
        <ele>31</ele>
        <time>2020-06-24T11:05:10.085Z</time>
      </trkpt>
      <trkpt lat="48.64892" lon="-2.30343">
        <ele>31</ele>
        <time>2020-06-24T11:05:11.085Z</time>
      </trkpt>
      <trkpt lat="48.64891" lon="-2.30344">
        <ele>31</ele>
        <time>2020-06-24T11:05:12.085Z</time>
      </trkpt>
      <trkpt lat="48.6489" lon="-2.30345">
        <ele>31</ele>
        <time>2020-06-24T11:05:13.085Z</time>
      </trkpt>
      <trkpt lat="48.64888" lon="-2.30345">
        <ele>31</ele>
        <time>2020-06-24T11:05:14.085Z</time>
      </trkpt>
      <trkpt lat="48.64887" lon="-2.30346">
        <ele>31</ele>
        <time>2020-06-24T11:05:15.085Z</time>
      </trkpt>
      <trkpt lat="48.64886" lon="-2.30346">
        <ele>31</ele>
        <time>2020-06-24T11:05:16.085Z</time>
      </trkpt>
      <trkpt lat="48.64885" lon="-2.30347">
        <ele>31</ele>
        <time>2020-06-24T11:05:17.085Z</time>
      </trkpt>
      <trkpt lat="48.64884" lon="-2.30347">
        <ele>31</ele>
        <time>2020-06-24T11:05:18.085Z</time>
      </trkpt>
      <trkpt lat="48.64883" lon="-2.30348">
        <ele>32</ele>
        <time>2020-06-24T11:05:19.085Z</time>
      </trkpt>
      <trkpt lat="48.64882" lon="-2.30348">
        <ele>31</ele>
        <time>2020-06-24T11:05:20.085Z</time>
      </trkpt>
      <trkpt lat="48.64881" lon="-2.30348">
        <ele>31</ele>
        <time>2020-06-24T11:05:21.085Z</time>
      </trkpt>
      <trkpt lat="48.6488" lon="-2.30348">
        <ele>32</ele>
        <time>2020-06-24T11:05:22.085Z</time>
      </trkpt>
      <trkpt lat="48.64879" lon="-2.30348">
        <ele>32</ele>
        <time>2020-06-24T11:05:23.085Z</time>
      </trkpt>
      <trkpt lat="48.64879" lon="-2.30349">
        <ele>32</ele>
        <time>2020-06-24T11:05:24.085Z</time>
      </trkpt>
      <trkpt lat="48.64878" lon="-2.3035">
        <ele>31</ele>
        <time>2020-06-24T11:05:25.085Z</time>
      </trkpt>
      <trkpt lat="48.64877" lon="-2.30351">
        <ele>30</ele>
        <time>2020-06-24T11:05:26.085Z</time>
      </trkpt>
      <trkpt lat="48.64877" lon="-2.30352">
        <ele>30</ele>
        <time>2020-06-24T11:05:27.085Z</time>
      </trkpt>
      <trkpt lat="48.64876" lon="-2.30353">
        <ele>31</ele>
        <time>2020-06-24T11:05:28.085Z</time>
      </trkpt>
      <trkpt lat="48.64876" lon="-2.30354">
        <ele>32</ele>
        <time>2020-06-24T11:05:29.085Z</time>
      </trkpt>
      <trkpt lat="48.64875" lon="-2.30354">
        <ele>32</ele>
        <time>2020-06-24T11:05:30.085Z</time>
      </trkpt>
      <trkpt lat="48.64875" lon="-2.30355">
        <ele>32</ele>
        <time>2020-06-24T11:05:31.085Z</time>
      </trkpt>
      <trkpt lat="48.64874" lon="-2.30355">
        <ele>32</ele>
        <time>2020-06-24T11:05:32.085Z</time>
      </trkpt>
      <trkpt lat="48.64872" lon="-2.30356">
        <ele>30</ele>
        <time>2020-06-24T11:05:33.085Z</time>
      </trkpt>
      <trkpt lat="48.64871" lon="-2.30356">
        <ele>30</ele>
        <time>2020-06-24T11:05:34.085Z</time>
      </trkpt>
      <trkpt lat="48.6487" lon="-2.30357">
        <ele>31</ele>
        <time>2020-06-24T11:05:35.085Z</time>
      </trkpt>
      <trkpt lat="48.64868" lon="-2.30358">
        <ele>32</ele>
        <time>2020-06-24T11:05:36.085Z</time>
      </trkpt>
      <trkpt lat="48.64867" lon="-2.30359">
        <ele>31</ele>
        <time>2020-06-24T11:05:37.085Z</time>
      </trkpt>
      <trkpt lat="48.64866" lon="-2.30359">
        <ele>31</ele>
        <time>2020-06-24T11:05:38.085Z</time>
      </trkpt>
      <trkpt lat="48.64865" lon="-2.30359">
        <ele>32</ele>
        <time>2020-06-24T11:05:39.085Z</time>
      </trkpt>
      <trkpt lat="48.64863" lon="-2.30359">
        <ele>32</ele>
        <time>2020-06-24T11:05:40.085Z</time>
      </trkpt>
      <trkpt lat="48.64862" lon="-2.3036">
        <ele>31</ele>
        <time>2020-06-24T11:05:41.085Z</time>
      </trkpt>
      <trkpt lat="48.64861" lon="-2.3036">
        <ele>31</ele>
        <time>2020-06-24T11:05:42.085Z</time>
      </trkpt>
      <trkpt lat="48.6486" lon="-2.30361">
        <ele>31</ele>
        <time>2020-06-24T11:05:43.085Z</time>
      </trkpt>
      <trkpt lat="48.64859" lon="-2.30361">
        <ele>30</ele>
        <time>2020-06-24T11:05:44.085Z</time>
      </trkpt>
      <trkpt lat="48.64858" lon="-2.30362">
        <ele>30</ele>
        <time>2020-06-24T11:05:45.085Z</time>
      </trkpt>
      <trkpt lat="48.64858" lon="-2.30363">
        <ele>30</ele>
        <time>2020-06-24T11:05:46.085Z</time>
      </trkpt>
      <trkpt lat="48.64857" lon="-2.30363">
        <ele>29</ele>
        <time>2020-06-24T11:05:47.085Z</time>
      </trkpt>
      <trkpt lat="48.64856" lon="-2.30364">
        <ele>30</ele>
        <time>2020-06-24T11:05:48.085Z</time>
      </trkpt>
      <trkpt lat="48.64855" lon="-2.30365">
        <ele>31</ele>
        <time>2020-06-24T11:05:49.085Z</time>
      </trkpt>
      <trkpt lat="48.64853" lon="-2.30365">
        <ele>32</ele>
        <time>2020-06-24T11:05:50.085Z</time>
      </trkpt>
      <trkpt lat="48.64852" lon="-2.30366">
        <ele>32</ele>
        <time>2020-06-24T11:05:51.085Z</time>
      </trkpt>
      <trkpt lat="48.64851" lon="-2.30367">
        <ele>33</ele>
        <time>2020-06-24T11:05:52.085Z</time>
      </trkpt>
      <trkpt lat="48.64849" lon="-2.30368">
        <ele>32</ele>
        <time>2020-06-24T11:05:53.085Z</time>
      </trkpt>
      <trkpt lat="48.64848" lon="-2.30369">
        <ele>32</ele>
        <time>2020-06-24T11:05:54.085Z</time>
      </trkpt>
      <trkpt lat="48.64846" lon="-2.3037">
        <ele>31</ele>
        <time>2020-06-24T11:05:55.085Z</time>
      </trkpt>
      <trkpt lat="48.64845" lon="-2.30372">
        <ele>31</ele>
        <time>2020-06-24T11:05:56.085Z</time>
      </trkpt>
      <trkpt lat="48.64844" lon="-2.30373">
        <ele>32</ele>
        <time>2020-06-24T11:05:57.085Z</time>
      </trkpt>
      <trkpt lat="48.64843" lon="-2.30374">
        <ele>31</ele>
        <time>2020-06-24T11:05:58.085Z</time>
      </trkpt>
      <trkpt lat="48.64842" lon="-2.30375">
        <ele>32</ele>
        <time>2020-06-24T11:05:59.085Z</time>
      </trkpt>
      <trkpt lat="48.6484" lon="-2.30376">
        <ele>32</ele>
        <time>2020-06-24T11:06:00.085Z</time>
      </trkpt>
      <trkpt lat="48.64839" lon="-2.30377">
        <ele>32</ele>
        <time>2020-06-24T11:06:01.085Z</time>
      </trkpt>
      <trkpt lat="48.64838" lon="-2.30378">
        <ele>32</ele>
        <time>2020-06-24T11:06:02.085Z</time>
      </trkpt>
      <trkpt lat="48.64836" lon="-2.30379">
        <ele>32</ele>
        <time>2020-06-24T11:06:03.085Z</time>
      </trkpt>
      <trkpt lat="48.64835" lon="-2.3038">
        <ele>32</ele>
        <time>2020-06-24T11:06:04.085Z</time>
      </trkpt>
      <trkpt lat="48.64834" lon="-2.30381">
        <ele>32</ele>
        <time>2020-06-24T11:06:05.085Z</time>
      </trkpt>
      <trkpt lat="48.64833" lon="-2.30382">
        <ele>32</ele>
        <time>2020-06-24T11:06:06.085Z</time>
      </trkpt>
      <trkpt lat="48.64831" lon="-2.30383">
        <ele>32</ele>
        <time>2020-06-24T11:06:07.085Z</time>
      </trkpt>
      <trkpt lat="48.6483" lon="-2.30383">
        <ele>32</ele>
        <time>2020-06-24T11:06:08.085Z</time>
      </trkpt>
      <trkpt lat="48.64828" lon="-2.30383">
        <ele>32</ele>
        <time>2020-06-24T11:06:09.085Z</time>
      </trkpt>
      <trkpt lat="48.64827" lon="-2.30384">
        <ele>31</ele>
        <time>2020-06-24T11:06:10.085Z</time>
      </trkpt>
      <trkpt lat="48.64827" lon="-2.30385">
        <ele>32</ele>
        <time>2020-06-24T11:06:11.085Z</time>
      </trkpt>
      <trkpt lat="48.64826" lon="-2.30386">
        <ele>32</ele>
        <time>2020-06-24T11:06:12.085Z</time>
      </trkpt>
      <trkpt lat="48.64826" lon="-2.30387">
        <ele>30</ele>
        <time>2020-06-24T11:06:13.085Z</time>
      </trkpt>
      <trkpt lat="48.64825" lon="-2.30388">
        <ele>31</ele>
        <time>2020-06-24T11:06:14.085Z</time>
      </trkpt>
      <trkpt lat="48.64825" lon="-2.30389">
        <ele>31</ele>
        <time>2020-06-24T11:06:15.085Z</time>
      </trkpt>
      <trkpt lat="48.64825" lon="-2.3039">
        <ele>31</ele>
        <time>2020-06-24T11:06:16.085Z</time>
      </trkpt>
      <trkpt lat="48.64825" lon="-2.30392">
        <ele>31</ele>
        <time>2020-06-24T11:06:17.085Z</time>
      </trkpt>
      <trkpt lat="48.64825" lon="-2.30393">
        <ele>31</ele>
        <time>2020-06-24T11:06:18.085Z</time>
      </trkpt>
      <trkpt lat="48.64824" lon="-2.30394">
        <ele>31</ele>
        <time>2020-06-24T11:06:19.085Z</time>
      </trkpt>
      <trkpt lat="48.64824" lon="-2.30395">
        <ele>31</ele>
        <time>2020-06-24T11:06:20.085Z</time>
      </trkpt>
      <trkpt lat="48.64824" lon="-2.30397">
        <ele>31</ele>
        <time>2020-06-24T11:06:21.085Z</time>
      </trkpt>
      <trkpt lat="48.64824" lon="-2.30398">
        <ele>31</ele>
        <time>2020-06-24T11:06:22.085Z</time>
      </trkpt>
      <trkpt lat="48.64823" lon="-2.30399">
        <ele>32</ele>
        <time>2020-06-24T11:06:23.085Z</time>
      </trkpt>
      <trkpt lat="48.64823" lon="-2.304">
        <ele>32</ele>
        <time>2020-06-24T11:06:24.085Z</time>
      </trkpt>
      <trkpt lat="48.64823" lon="-2.30401">
        <ele>31</ele>
        <time>2020-06-24T11:06:25.085Z</time>
      </trkpt>
      <trkpt lat="48.64822" lon="-2.30402">
        <ele>31</ele>
        <time>2020-06-24T11:06:26.085Z</time>
      </trkpt>
      <trkpt lat="48.64822" lon="-2.30402">
        <ele>31</ele>
        <time>2020-06-24T11:06:27.085Z</time>
      </trkpt>
      <trkpt lat="48.64822" lon="-2.30403">
        <ele>32</ele>
        <time>2020-06-24T11:06:28.085Z</time>
      </trkpt>
      <trkpt lat="48.64821" lon="-2.30404">
        <ele>32</ele>
        <time>2020-06-24T11:06:29.085Z</time>
      </trkpt>
      <trkpt lat="48.64821" lon="-2.30405">
        <ele>32</ele>
        <time>2020-06-24T11:06:30.085Z</time>
      </trkpt>
      <trkpt lat="48.64819" lon="-2.30406">
        <ele>32</ele>
        <time>2020-06-24T11:06:31.085Z</time>
      </trkpt>
      <trkpt lat="48.64818" lon="-2.30408">
        <ele>34</ele>
        <time>2020-06-24T11:06:32.085Z</time>
      </trkpt>
      <trkpt lat="48.64817" lon="-2.30409">
        <ele>33</ele>
        <time>2020-06-24T11:06:33.085Z</time>
      </trkpt>
      <trkpt lat="48.64816" lon="-2.30411">
        <ele>32</ele>
        <time>2020-06-24T11:06:34.085Z</time>
      </trkpt>
      <trkpt lat="48.64815" lon="-2.30413">
        <ele>34</ele>
        <time>2020-06-24T11:06:35.085Z</time>
      </trkpt>
      <trkpt lat="48.64815" lon="-2.30414">
        <ele>34</ele>
        <time>2020-06-24T11:06:36.085Z</time>
      </trkpt>
      <trkpt lat="48.64814" lon="-2.30415">
        <ele>35</ele>
        <time>2020-06-24T11:06:37.085Z</time>
      </trkpt>
      <trkpt lat="48.64813" lon="-2.30417">
        <ele>34</ele>
        <time>2020-06-24T11:06:38.085Z</time>
      </trkpt>
      <trkpt lat="48.64813" lon="-2.3042">
        <ele>33</ele>
        <time>2020-06-24T11:06:39.085Z</time>
      </trkpt>
      <trkpt lat="48.64812" lon="-2.30421">
        <ele>33</ele>
        <time>2020-06-24T11:06:40.085Z</time>
      </trkpt>
      <trkpt lat="48.64811" lon="-2.30423">
        <ele>33</ele>
        <time>2020-06-24T11:06:41.085Z</time>
      </trkpt>
      <trkpt lat="48.64811" lon="-2.30424">
        <ele>33</ele>
        <time>2020-06-24T11:06:42.085Z</time>
      </trkpt>
      <trkpt lat="48.6481" lon="-2.30425">
        <ele>32</ele>
        <time>2020-06-24T11:06:43.085Z</time>
      </trkpt>
      <trkpt lat="48.64809" lon="-2.30426">
        <ele>33</ele>
        <time>2020-06-24T11:06:44.085Z</time>
      </trkpt>
      <trkpt lat="48.64809" lon="-2.30427">
        <ele>33</ele>
        <time>2020-06-24T11:06:45.085Z</time>
      </trkpt>
      <trkpt lat="48.64808" lon="-2.30429">
        <ele>33</ele>
        <time>2020-06-24T11:06:46.085Z</time>
      </trkpt>
      <trkpt lat="48.64808" lon="-2.3043">
        <ele>33</ele>
        <time>2020-06-24T11:06:47.085Z</time>
      </trkpt>
      <trkpt lat="48.64807" lon="-2.30431">
        <ele>33</ele>
        <time>2020-06-24T11:06:48.085Z</time>
      </trkpt>
      <trkpt lat="48.64807" lon="-2.30433">
        <ele>33</ele>
        <time>2020-06-24T11:06:49.085Z</time>
      </trkpt>
      <trkpt lat="48.64806" lon="-2.30435">
        <ele>33</ele>
        <time>2020-06-24T11:06:50.085Z</time>
      </trkpt>
      <trkpt lat="48.64806" lon="-2.30437">
        <ele>33</ele>
        <time>2020-06-24T11:06:51.085Z</time>
      </trkpt>
      <trkpt lat="48.64806" lon="-2.30438">
        <ele>33</ele>
        <time>2020-06-24T11:06:52.085Z</time>
      </trkpt>
      <trkpt lat="48.64806" lon="-2.3044">
        <ele>32</ele>
        <time>2020-06-24T11:06:53.085Z</time>
      </trkpt>
      <trkpt lat="48.64806" lon="-2.30441">
        <ele>32</ele>
        <time>2020-06-24T11:06:54.085Z</time>
      </trkpt>
      <trkpt lat="48.64805" lon="-2.30442">
        <ele>32</ele>
        <time>2020-06-24T11:06:55.085Z</time>
      </trkpt>
      <trkpt lat="48.64805" lon="-2.30444">
        <ele>32</ele>
        <time>2020-06-24T11:06:56.085Z</time>
      </trkpt>
      <trkpt lat="48.64805" lon="-2.30445">
        <ele>32</ele>
        <time>2020-06-24T11:06:57.085Z</time>
      </trkpt>
      <trkpt lat="48.64805" lon="-2.30446">
        <ele>33</ele>
        <time>2020-06-24T11:06:58.085Z</time>
      </trkpt>
      <trkpt lat="48.64805" lon="-2.30447">
        <ele>32</ele>
        <time>2020-06-24T11:06:59.085Z</time>
      </trkpt>
      <trkpt lat="48.64805" lon="-2.30448">
        <ele>31</ele>
        <time>2020-06-24T11:07:00.085Z</time>
      </trkpt>
      <trkpt lat="48.64805" lon="-2.30449">
        <ele>30</ele>
        <time>2020-06-24T11:07:01.085Z</time>
      </trkpt>
      <trkpt lat="48.64804" lon="-2.30451">
        <ele>31</ele>
        <time>2020-06-24T11:07:02.085Z</time>
      </trkpt>
      <trkpt lat="48.64804" lon="-2.30452">
        <ele>30</ele>
        <time>2020-06-24T11:07:03.085Z</time>
      </trkpt>
      <trkpt lat="48.64804" lon="-2.30453">
        <ele>30</ele>
        <time>2020-06-24T11:07:04.085Z</time>
      </trkpt>
      <trkpt lat="48.64804" lon="-2.30454">
        <ele>30</ele>
        <time>2020-06-24T11:07:05.085Z</time>
      </trkpt>
      <trkpt lat="48.64804" lon="-2.30456">
        <ele>30</ele>
        <time>2020-06-24T11:07:06.085Z</time>
      </trkpt>
      <trkpt lat="48.64804" lon="-2.30457">
        <ele>30</ele>
        <time>2020-06-24T11:07:07.085Z</time>
      </trkpt>
      <trkpt lat="48.64804" lon="-2.30459">
        <ele>29</ele>
        <time>2020-06-24T11:07:08.085Z</time>
      </trkpt>
      <trkpt lat="48.64805" lon="-2.30462">
        <ele>29</ele>
        <time>2020-06-24T11:07:09.085Z</time>
      </trkpt>
      <trkpt lat="48.64805" lon="-2.30465">
        <ele>29</ele>
        <time>2020-06-24T11:07:10.085Z</time>
      </trkpt>
      <trkpt lat="48.64806" lon="-2.30467">
        <ele>29</ele>
        <time>2020-06-24T11:07:11.085Z</time>
      </trkpt>
      <trkpt lat="48.64806" lon="-2.30469">
        <ele>29</ele>
        <time>2020-06-24T11:07:12.085Z</time>
      </trkpt>
      <trkpt lat="48.64806" lon="-2.30471">
        <ele>29</ele>
        <time>2020-06-24T11:07:13.085Z</time>
      </trkpt>
      <trkpt lat="48.64807" lon="-2.30473">
        <ele>28</ele>
        <time>2020-06-24T11:07:14.085Z</time>
      </trkpt>
      <trkpt lat="48.64806" lon="-2.30475">
        <ele>28</ele>
        <time>2020-06-24T11:07:15.085Z</time>
      </trkpt>
      <trkpt lat="48.64806" lon="-2.30477">
        <ele>27</ele>
        <time>2020-06-24T11:07:16.085Z</time>
      </trkpt>
      <trkpt lat="48.64806" lon="-2.30478">
        <ele>26</ele>
        <time>2020-06-24T11:07:17.085Z</time>
      </trkpt>
      <trkpt lat="48.64805" lon="-2.30479">
        <ele>26</ele>
        <time>2020-06-24T11:07:18.085Z</time>
      </trkpt>
      <trkpt lat="48.64805" lon="-2.3048">
        <ele>27</ele>
        <time>2020-06-24T11:07:19.085Z</time>
      </trkpt>
      <trkpt lat="48.64804" lon="-2.30481">
        <ele>27</ele>
        <time>2020-06-24T11:07:20.085Z</time>
      </trkpt>
      <trkpt lat="48.64803" lon="-2.30482">
        <ele>26</ele>
        <time>2020-06-24T11:07:21.085Z</time>
      </trkpt>
      <trkpt lat="48.64802" lon="-2.30484">
        <ele>26</ele>
        <time>2020-06-24T11:07:22.085Z</time>
      </trkpt>
      <trkpt lat="48.64801" lon="-2.30485">
        <ele>26</ele>
        <time>2020-06-24T11:07:23.085Z</time>
      </trkpt>
      <trkpt lat="48.648" lon="-2.30487">
        <ele>27</ele>
        <time>2020-06-24T11:07:24.085Z</time>
      </trkpt>
      <trkpt lat="48.64799" lon="-2.30488">
        <ele>27</ele>
        <time>2020-06-24T11:07:25.085Z</time>
      </trkpt>
      <trkpt lat="48.64798" lon="-2.3049">
        <ele>26</ele>
        <time>2020-06-24T11:07:26.085Z</time>
      </trkpt>
      <trkpt lat="48.64797" lon="-2.30492">
        <ele>26</ele>
        <time>2020-06-24T11:07:27.085Z</time>
      </trkpt>
      <trkpt lat="48.64796" lon="-2.30494">
        <ele>26</ele>
        <time>2020-06-24T11:07:28.085Z</time>
      </trkpt>
      <trkpt lat="48.64795" lon="-2.30495">
        <ele>26</ele>
        <time>2020-06-24T11:07:29.085Z</time>
      </trkpt>
      <trkpt lat="48.64794" lon="-2.30496">
        <ele>26</ele>
        <time>2020-06-24T11:07:30.085Z</time>
      </trkpt>
      <trkpt lat="48.64793" lon="-2.30497">
        <ele>27</ele>
        <time>2020-06-24T11:07:31.085Z</time>
      </trkpt>
      <trkpt lat="48.64792" lon="-2.30499">
        <ele>27</ele>
        <time>2020-06-24T11:07:32.085Z</time>
      </trkpt>
      <trkpt lat="48.64791" lon="-2.305">
        <ele>28</ele>
        <time>2020-06-24T11:07:33.085Z</time>
      </trkpt>
      <trkpt lat="48.64791" lon="-2.30502">
        <ele>28</ele>
        <time>2020-06-24T11:07:34.085Z</time>
      </trkpt>
      <trkpt lat="48.6479" lon="-2.30503">
        <ele>28</ele>
        <time>2020-06-24T11:07:35.085Z</time>
      </trkpt>
      <trkpt lat="48.64789" lon="-2.30504">
        <ele>28</ele>
        <time>2020-06-24T11:07:36.085Z</time>
      </trkpt>
      <trkpt lat="48.64789" lon="-2.30505">
        <ele>28</ele>
        <time>2020-06-24T11:07:37.085Z</time>
      </trkpt>
      <trkpt lat="48.64788" lon="-2.30506">
        <ele>28</ele>
        <time>2020-06-24T11:07:38.085Z</time>
      </trkpt>
      <trkpt lat="48.64787" lon="-2.30507">
        <ele>28</ele>
        <time>2020-06-24T11:07:39.085Z</time>
      </trkpt>
      <trkpt lat="48.64786" lon="-2.30508">
        <ele>28</ele>
        <time>2020-06-24T11:07:40.085Z</time>
      </trkpt>
      <trkpt lat="48.64785" lon="-2.30509">
        <ele>28</ele>
        <time>2020-06-24T11:07:41.085Z</time>
      </trkpt>
      <trkpt lat="48.64783" lon="-2.3051">
        <ele>29</ele>
        <time>2020-06-24T11:07:42.085Z</time>
      </trkpt>
      <trkpt lat="48.64783" lon="-2.30512">
        <ele>29</ele>
        <time>2020-06-24T11:07:43.085Z</time>
      </trkpt>
      <trkpt lat="48.64782" lon="-2.30513">
        <ele>29</ele>
        <time>2020-06-24T11:07:44.085Z</time>
      </trkpt>
      <trkpt lat="48.64781" lon="-2.30514">
        <ele>29</ele>
        <time>2020-06-24T11:07:45.085Z</time>
      </trkpt>
      <trkpt lat="48.6478" lon="-2.30515">
        <ele>29</ele>
        <time>2020-06-24T11:07:46.085Z</time>
      </trkpt>
      <trkpt lat="48.64779" lon="-2.30516">
        <ele>30</ele>
        <time>2020-06-24T11:07:47.085Z</time>
      </trkpt>
      <trkpt lat="48.64778" lon="-2.30517">
        <ele>30</ele>
        <time>2020-06-24T11:07:48.085Z</time>
      </trkpt>
      <trkpt lat="48.64777" lon="-2.30518">
        <ele>30</ele>
        <time>2020-06-24T11:07:49.085Z</time>
      </trkpt>
      <trkpt lat="48.64776" lon="-2.30519">
        <ele>32</ele>
        <time>2020-06-24T11:07:50.085Z</time>
      </trkpt>
      <trkpt lat="48.64775" lon="-2.3052">
        <ele>32</ele>
        <time>2020-06-24T11:07:51.085Z</time>
      </trkpt>
      <trkpt lat="48.64774" lon="-2.30522">
        <ele>33</ele>
        <time>2020-06-24T11:07:52.085Z</time>
      </trkpt>
      <trkpt lat="48.64773" lon="-2.30523">
        <ele>34</ele>
        <time>2020-06-24T11:07:53.085Z</time>
      </trkpt>
      <trkpt lat="48.64772" lon="-2.30524">
        <ele>34</ele>
        <time>2020-06-24T11:07:54.085Z</time>
      </trkpt>
      <trkpt lat="48.64772" lon="-2.30525">
        <ele>35</ele>
        <time>2020-06-24T11:07:55.085Z</time>
      </trkpt>
      <trkpt lat="48.64771" lon="-2.30526">
        <ele>36</ele>
        <time>2020-06-24T11:07:56.085Z</time>
      </trkpt>
      <trkpt lat="48.6477" lon="-2.30527">
        <ele>35</ele>
        <time>2020-06-24T11:07:57.085Z</time>
      </trkpt>
      <trkpt lat="48.64769" lon="-2.30529">
        <ele>35</ele>
        <time>2020-06-24T11:07:58.085Z</time>
      </trkpt>
      <trkpt lat="48.64769" lon="-2.3053">
        <ele>35</ele>
        <time>2020-06-24T11:07:59.085Z</time>
      </trkpt>
      <trkpt lat="48.64768" lon="-2.3053">
        <ele>35</ele>
        <time>2020-06-24T11:08:00.085Z</time>
      </trkpt>
      <trkpt lat="48.64767" lon="-2.30531">
        <ele>36</ele>
        <time>2020-06-24T11:08:01.085Z</time>
      </trkpt>
      <trkpt lat="48.64766" lon="-2.30532">
        <ele>37</ele>
        <time>2020-06-24T11:08:02.085Z</time>
      </trkpt>
      <trkpt lat="48.64765" lon="-2.30533">
        <ele>38</ele>
        <time>2020-06-24T11:08:03.085Z</time>
      </trkpt>
      <trkpt lat="48.64765" lon="-2.30534">
        <ele>39</ele>
        <time>2020-06-24T11:08:04.085Z</time>
      </trkpt>
      <trkpt lat="48.64764" lon="-2.30536">
        <ele>39</ele>
        <time>2020-06-24T11:08:05.085Z</time>
      </trkpt>
      <trkpt lat="48.64763" lon="-2.30536">
        <ele>39</ele>
        <time>2020-06-24T11:08:06.085Z</time>
      </trkpt>
      <trkpt lat="48.64763" lon="-2.30537">
        <ele>39</ele>
        <time>2020-06-24T11:08:07.085Z</time>
      </trkpt>
      <trkpt lat="48.64762" lon="-2.30538">
        <ele>40</ele>
        <time>2020-06-24T11:08:08.085Z</time>
      </trkpt>
      <trkpt lat="48.64761" lon="-2.30539">
        <ele>41</ele>
        <time>2020-06-24T11:08:09.085Z</time>
      </trkpt>
      <trkpt lat="48.6476" lon="-2.30539">
        <ele>41</ele>
        <time>2020-06-24T11:08:10.085Z</time>
      </trkpt>
      <trkpt lat="48.64759" lon="-2.3054">
        <ele>41</ele>
        <time>2020-06-24T11:08:11.085Z</time>
      </trkpt>
      <trkpt lat="48.64758" lon="-2.30541">
        <ele>42</ele>
        <time>2020-06-24T11:08:12.085Z</time>
      </trkpt>
      <trkpt lat="48.64757" lon="-2.30542">
        <ele>42</ele>
        <time>2020-06-24T11:08:13.085Z</time>
      </trkpt>
      <trkpt lat="48.64756" lon="-2.30543">
        <ele>42</ele>
        <time>2020-06-24T11:08:14.085Z</time>
      </trkpt>
      <trkpt lat="48.64756" lon="-2.30544">
        <ele>42</ele>
        <time>2020-06-24T11:08:15.085Z</time>
      </trkpt>
      <trkpt lat="48.64755" lon="-2.30545">
        <ele>42</ele>
        <time>2020-06-24T11:08:16.085Z</time>
      </trkpt>
      <trkpt lat="48.64755" lon="-2.30547">
        <ele>42</ele>
        <time>2020-06-24T11:08:17.085Z</time>
      </trkpt>
      <trkpt lat="48.64755" lon="-2.30548">
        <ele>42</ele>
        <time>2020-06-24T11:08:18.085Z</time>
      </trkpt>
      <trkpt lat="48.64754" lon="-2.3055">
        <ele>42</ele>
        <time>2020-06-24T11:08:19.085Z</time>
      </trkpt>
      <trkpt lat="48.64753" lon="-2.30551">
        <ele>42</ele>
        <time>2020-06-24T11:08:20.085Z</time>
      </trkpt>
      <trkpt lat="48.64752" lon="-2.30553">
        <ele>41</ele>
        <time>2020-06-24T11:08:21.085Z</time>
      </trkpt>
      <trkpt lat="48.64751" lon="-2.30554">
        <ele>41</ele>
        <time>2020-06-24T11:08:22.085Z</time>
      </trkpt>
      <trkpt lat="48.6475" lon="-2.30556">
        <ele>40</ele>
        <time>2020-06-24T11:08:23.085Z</time>
      </trkpt>
      <trkpt lat="48.64749" lon="-2.30558">
        <ele>41</ele>
        <time>2020-06-24T11:08:24.085Z</time>
      </trkpt>
      <trkpt lat="48.64748" lon="-2.30559">
        <ele>40</ele>
        <time>2020-06-24T11:08:25.085Z</time>
      </trkpt>
      <trkpt lat="48.64747" lon="-2.3056">
        <ele>41</ele>
        <time>2020-06-24T11:08:26.085Z</time>
      </trkpt>
      <trkpt lat="48.64747" lon="-2.30561">
        <ele>41</ele>
        <time>2020-06-24T11:08:27.085Z</time>
      </trkpt>
      <trkpt lat="48.64746" lon="-2.30562">
        <ele>41</ele>
        <time>2020-06-24T11:08:28.085Z</time>
      </trkpt>
      <trkpt lat="48.64746" lon="-2.30563">
        <ele>42</ele>
        <time>2020-06-24T11:08:29.085Z</time>
      </trkpt>
      <trkpt lat="48.64745" lon="-2.30564">
        <ele>42</ele>
        <time>2020-06-24T11:08:30.085Z</time>
      </trkpt>
      <trkpt lat="48.64744" lon="-2.30565">
        <ele>42</ele>
        <time>2020-06-24T11:08:31.085Z</time>
      </trkpt>
      <trkpt lat="48.64743" lon="-2.30566">
        <ele>43</ele>
        <time>2020-06-24T11:08:32.085Z</time>
      </trkpt>
      <trkpt lat="48.64742" lon="-2.30567">
        <ele>42</ele>
        <time>2020-06-24T11:08:33.085Z</time>
      </trkpt>
      <trkpt lat="48.64741" lon="-2.30569">
        <ele>43</ele>
        <time>2020-06-24T11:08:34.085Z</time>
      </trkpt>
      <trkpt lat="48.6474" lon="-2.3057">
        <ele>43</ele>
        <time>2020-06-24T11:08:35.085Z</time>
      </trkpt>
      <trkpt lat="48.64739" lon="-2.30572">
        <ele>43</ele>
        <time>2020-06-24T11:08:36.085Z</time>
      </trkpt>
      <trkpt lat="48.64738" lon="-2.30573">
        <ele>43</ele>
        <time>2020-06-24T11:08:37.085Z</time>
      </trkpt>
      <trkpt lat="48.64737" lon="-2.30574">
        <ele>43</ele>
        <time>2020-06-24T11:08:38.085Z</time>
      </trkpt>
      <trkpt lat="48.64736" lon="-2.30575">
        <ele>43</ele>
        <time>2020-06-24T11:08:39.085Z</time>
      </trkpt>
      <trkpt lat="48.64735" lon="-2.30576">
        <ele>44</ele>
        <time>2020-06-24T11:08:40.085Z</time>
      </trkpt>
      <trkpt lat="48.64735" lon="-2.30577">
        <ele>44</ele>
        <time>2020-06-24T11:08:41.085Z</time>
      </trkpt>
      <trkpt lat="48.64734" lon="-2.30578">
        <ele>44</ele>
        <time>2020-06-24T11:08:42.085Z</time>
      </trkpt>
      <trkpt lat="48.64733" lon="-2.3058">
        <ele>43</ele>
        <time>2020-06-24T11:08:43.085Z</time>
      </trkpt>
      <trkpt lat="48.64733" lon="-2.3058">
        <ele>43</ele>
        <time>2020-06-24T11:08:44.085Z</time>
      </trkpt>
      <trkpt lat="48.64732" lon="-2.30581">
        <ele>44</ele>
        <time>2020-06-24T11:08:45.085Z</time>
      </trkpt>
      <trkpt lat="48.64731" lon="-2.30582">
        <ele>43</ele>
        <time>2020-06-24T11:08:46.085Z</time>
      </trkpt>
      <trkpt lat="48.64731" lon="-2.30583">
        <ele>44</ele>
        <time>2020-06-24T11:08:47.085Z</time>
      </trkpt>
      <trkpt lat="48.6473" lon="-2.30584">
        <ele>43</ele>
        <time>2020-06-24T11:08:48.085Z</time>
      </trkpt>
      <trkpt lat="48.64729" lon="-2.30585">
        <ele>43</ele>
        <time>2020-06-24T11:08:49.085Z</time>
      </trkpt>
      <trkpt lat="48.64728" lon="-2.30586">
        <ele>43</ele>
        <time>2020-06-24T11:08:50.085Z</time>
      </trkpt>
      <trkpt lat="48.64728" lon="-2.30587">
        <ele>43</ele>
        <time>2020-06-24T11:08:51.085Z</time>
      </trkpt>
      <trkpt lat="48.64727" lon="-2.30588">
        <ele>42</ele>
        <time>2020-06-24T11:08:52.085Z</time>
      </trkpt>
      <trkpt lat="48.64726" lon="-2.30588">
        <ele>42</ele>
        <time>2020-06-24T11:08:53.085Z</time>
      </trkpt>
      <trkpt lat="48.64725" lon="-2.30589">
        <ele>42</ele>
        <time>2020-06-24T11:08:54.085Z</time>
      </trkpt>
      <trkpt lat="48.64725" lon="-2.3059">
        <ele>42</ele>
        <time>2020-06-24T11:08:55.085Z</time>
      </trkpt>
      <trkpt lat="48.64724" lon="-2.30591">
        <ele>42</ele>
        <time>2020-06-24T11:08:56.085Z</time>
      </trkpt>
      <trkpt lat="48.64724" lon="-2.30592">
        <ele>42</ele>
        <time>2020-06-24T11:08:57.085Z</time>
      </trkpt>
      <trkpt lat="48.64723" lon="-2.30593">
        <ele>43</ele>
        <time>2020-06-24T11:08:58.085Z</time>
      </trkpt>
      <trkpt lat="48.64722" lon="-2.30595">
        <ele>43</ele>
        <time>2020-06-24T11:08:59.085Z</time>
      </trkpt>
      <trkpt lat="48.64721" lon="-2.30597">
        <ele>43</ele>
        <time>2020-06-24T11:09:00.085Z</time>
      </trkpt>
      <trkpt lat="48.6472" lon="-2.30598">
        <ele>43</ele>
        <time>2020-06-24T11:09:01.085Z</time>
      </trkpt>
      <trkpt lat="48.64719" lon="-2.306">
        <ele>43</ele>
        <time>2020-06-24T11:09:02.085Z</time>
      </trkpt>
      <trkpt lat="48.64718" lon="-2.30601">
        <ele>42</ele>
        <time>2020-06-24T11:09:03.085Z</time>
      </trkpt>
      <trkpt lat="48.64717" lon="-2.30602">
        <ele>42</ele>
        <time>2020-06-24T11:09:04.085Z</time>
      </trkpt>
      <trkpt lat="48.64716" lon="-2.30604">
        <ele>42</ele>
        <time>2020-06-24T11:09:05.085Z</time>
      </trkpt>
      <trkpt lat="48.64716" lon="-2.30605">
        <ele>41</ele>
        <time>2020-06-24T11:09:06.085Z</time>
      </trkpt>
      <trkpt lat="48.64715" lon="-2.30606">
        <ele>41</ele>
        <time>2020-06-24T11:09:07.085Z</time>
      </trkpt>
      <trkpt lat="48.64714" lon="-2.30608">
        <ele>41</ele>
        <time>2020-06-24T11:09:08.085Z</time>
      </trkpt>
      <trkpt lat="48.64714" lon="-2.30609">
        <ele>41</ele>
        <time>2020-06-24T11:09:09.085Z</time>
      </trkpt>
      <trkpt lat="48.64713" lon="-2.30609">
        <ele>42</ele>
        <time>2020-06-24T11:09:10.085Z</time>
      </trkpt>
      <trkpt lat="48.64711" lon="-2.3061">
        <ele>41</ele>
        <time>2020-06-24T11:09:11.085Z</time>
      </trkpt>
      <trkpt lat="48.6471" lon="-2.30611">
        <ele>40</ele>
        <time>2020-06-24T11:09:12.085Z</time>
      </trkpt>
      <trkpt lat="48.64709" lon="-2.30612">
        <ele>41</ele>
        <time>2020-06-24T11:09:13.085Z</time>
      </trkpt>
      <trkpt lat="48.64708" lon="-2.30614">
        <ele>41</ele>
        <time>2020-06-24T11:09:14.085Z</time>
      </trkpt>
      <trkpt lat="48.64707" lon="-2.30615">
        <ele>40</ele>
        <time>2020-06-24T11:09:15.085Z</time>
      </trkpt>
      <trkpt lat="48.64706" lon="-2.30617">
        <ele>41</ele>
        <time>2020-06-24T11:09:16.085Z</time>
      </trkpt>
      <trkpt lat="48.64705" lon="-2.30618">
        <ele>41</ele>
        <time>2020-06-24T11:09:17.085Z</time>
      </trkpt>
      <trkpt lat="48.64704" lon="-2.3062">
        <ele>41</ele>
        <time>2020-06-24T11:09:18.085Z</time>
      </trkpt>
      <trkpt lat="48.64704" lon="-2.30621">
        <ele>41</ele>
        <time>2020-06-24T11:09:19.085Z</time>
      </trkpt>
      <trkpt lat="48.64704" lon="-2.30623">
        <ele>41</ele>
        <time>2020-06-24T11:09:20.085Z</time>
      </trkpt>
      <trkpt lat="48.64703" lon="-2.30624">
        <ele>41</ele>
        <time>2020-06-24T11:09:21.085Z</time>
      </trkpt>
      <trkpt lat="48.64703" lon="-2.30626">
        <ele>41</ele>
        <time>2020-06-24T11:09:22.085Z</time>
      </trkpt>
      <trkpt lat="48.64702" lon="-2.30627">
        <ele>41</ele>
        <time>2020-06-24T11:09:23.085Z</time>
      </trkpt>
      <trkpt lat="48.64702" lon="-2.30629">
        <ele>41</ele>
        <time>2020-06-24T11:09:24.085Z</time>
      </trkpt>
      <trkpt lat="48.64701" lon="-2.3063">
        <ele>41</ele>
        <time>2020-06-24T11:09:25.085Z</time>
      </trkpt>
      <trkpt lat="48.64701" lon="-2.30632">
        <ele>41</ele>
        <time>2020-06-24T11:09:26.085Z</time>
      </trkpt>
      <trkpt lat="48.647" lon="-2.30634">
        <ele>40</ele>
        <time>2020-06-24T11:09:27.085Z</time>
      </trkpt>
      <trkpt lat="48.647" lon="-2.30636">
        <ele>40</ele>
        <time>2020-06-24T11:09:28.085Z</time>
      </trkpt>
      <trkpt lat="48.64699" lon="-2.30638">
        <ele>40</ele>
        <time>2020-06-24T11:09:29.085Z</time>
      </trkpt>
      <trkpt lat="48.64698" lon="-2.3064">
        <ele>40</ele>
        <time>2020-06-24T11:09:30.085Z</time>
      </trkpt>
      <trkpt lat="48.64698" lon="-2.30642">
        <ele>39</ele>
        <time>2020-06-24T11:09:31.085Z</time>
      </trkpt>
      <trkpt lat="48.64697" lon="-2.30643">
        <ele>39</ele>
        <time>2020-06-24T11:09:32.085Z</time>
      </trkpt>
      <trkpt lat="48.64696" lon="-2.30644">
        <ele>39</ele>
        <time>2020-06-24T11:09:33.085Z</time>
      </trkpt>
      <trkpt lat="48.64695" lon="-2.30644">
        <ele>38</ele>
        <time>2020-06-24T11:09:34.085Z</time>
      </trkpt>
      <trkpt lat="48.64694" lon="-2.30644">
        <ele>38</ele>
        <time>2020-06-24T11:09:35.085Z</time>
      </trkpt>
      <trkpt lat="48.64693" lon="-2.30645">
        <ele>38</ele>
        <time>2020-06-24T11:09:36.085Z</time>
      </trkpt>
      <trkpt lat="48.64693" lon="-2.30645">
        <ele>38</ele>
        <time>2020-06-24T11:09:37.085Z</time>
      </trkpt>
      <trkpt lat="48.64692" lon="-2.30646">
        <ele>38</ele>
        <time>2020-06-24T11:09:38.085Z</time>
      </trkpt>
      <trkpt lat="48.64692" lon="-2.30647">
        <ele>37</ele>
        <time>2020-06-24T11:09:39.085Z</time>
      </trkpt>
      <trkpt lat="48.64692" lon="-2.30649">
        <ele>38</ele>
        <time>2020-06-24T11:09:40.085Z</time>
      </trkpt>
      <trkpt lat="48.64692" lon="-2.30649">
        <ele>38</ele>
        <time>2020-06-24T11:09:41.085Z</time>
      </trkpt>
      <trkpt lat="48.64691" lon="-2.3065">
        <ele>38</ele>
        <time>2020-06-24T11:09:42.085Z</time>
      </trkpt>
      <trkpt lat="48.64691" lon="-2.30652">
        <ele>36</ele>
        <time>2020-06-24T11:09:43.085Z</time>
      </trkpt>
      <trkpt lat="48.6469" lon="-2.30654">
        <ele>36</ele>
        <time>2020-06-24T11:09:44.085Z</time>
      </trkpt>
      <trkpt lat="48.64689" lon="-2.30656">
        <ele>35</ele>
        <time>2020-06-24T11:09:45.085Z</time>
      </trkpt>
      <trkpt lat="48.64689" lon="-2.30657">
        <ele>35</ele>
        <time>2020-06-24T11:09:46.085Z</time>
      </trkpt>
      <trkpt lat="48.64688" lon="-2.30658">
        <ele>35</ele>
        <time>2020-06-24T11:09:47.085Z</time>
      </trkpt>
      <trkpt lat="48.64688" lon="-2.30658">
        <ele>35</ele>
        <time>2020-06-24T11:09:48.085Z</time>
      </trkpt>
      <trkpt lat="48.64688" lon="-2.30659">
        <ele>35</ele>
        <time>2020-06-24T11:09:49.085Z</time>
      </trkpt>
      <trkpt lat="48.64687" lon="-2.30659">
        <ele>35</ele>
        <time>2020-06-24T11:09:50.085Z</time>
      </trkpt>
      <trkpt lat="48.64687" lon="-2.30659">
        <ele>35</ele>
        <time>2020-06-24T11:09:51.085Z</time>
      </trkpt>
      <trkpt lat="48.64686" lon="-2.3066">
        <ele>35</ele>
        <time>2020-06-24T11:09:52.085Z</time>
      </trkpt>
      <trkpt lat="48.64686" lon="-2.3066">
        <ele>36</ele>
        <time>2020-06-24T11:09:53.085Z</time>
      </trkpt>
      <trkpt lat="48.64686" lon="-2.30661">
        <ele>36</ele>
        <time>2020-06-24T11:09:54.085Z</time>
      </trkpt>
      <trkpt lat="48.64685" lon="-2.30661">
        <ele>36</ele>
        <time>2020-06-24T11:09:55.085Z</time>
      </trkpt>
      <trkpt lat="48.64685" lon="-2.30661">
        <ele>35</ele>
        <time>2020-06-24T11:09:56.085Z</time>
      </trkpt>
      <trkpt lat="48.64684" lon="-2.30662">
        <ele>35</ele>
        <time>2020-06-24T11:09:57.085Z</time>
      </trkpt>
      <trkpt lat="48.64684" lon="-2.30662">
        <ele>35</ele>
        <time>2020-06-24T11:09:58.085Z</time>
      </trkpt>
      <trkpt lat="48.64683" lon="-2.30662">
        <ele>35</ele>
        <time>2020-06-24T11:09:59.085Z</time>
      </trkpt>
      <trkpt lat="48.64682" lon="-2.30663">
        <ele>34</ele>
        <time>2020-06-24T11:10:00.085Z</time>
      </trkpt>
      <trkpt lat="48.64682" lon="-2.30663">
        <ele>35</ele>
        <time>2020-06-24T11:10:01.085Z</time>
      </trkpt>
      <trkpt lat="48.64681" lon="-2.30664">
        <ele>34</ele>
        <time>2020-06-24T11:10:02.085Z</time>
      </trkpt>
      <trkpt lat="48.6468" lon="-2.30665">
        <ele>34</ele>
        <time>2020-06-24T11:10:03.085Z</time>
      </trkpt>
      <trkpt lat="48.6468" lon="-2.30665">
        <ele>34</ele>
        <time>2020-06-24T11:10:04.085Z</time>
      </trkpt>
      <trkpt lat="48.64679" lon="-2.30666">
        <ele>34</ele>
        <time>2020-06-24T11:10:05.085Z</time>
      </trkpt>
      <trkpt lat="48.64679" lon="-2.30668">
        <ele>34</ele>
        <time>2020-06-24T11:10:06.085Z</time>
      </trkpt>
      <trkpt lat="48.64678" lon="-2.3067">
        <ele>34</ele>
        <time>2020-06-24T11:10:07.085Z</time>
      </trkpt>
      <trkpt lat="48.64677" lon="-2.30672">
        <ele>34</ele>
        <time>2020-06-24T11:10:08.085Z</time>
      </trkpt>
      <trkpt lat="48.64676" lon="-2.30675">
        <ele>33</ele>
        <time>2020-06-24T11:10:09.085Z</time>
      </trkpt>
      <trkpt lat="48.64676" lon="-2.30677">
        <ele>33</ele>
        <time>2020-06-24T11:10:10.085Z</time>
      </trkpt>
      <trkpt lat="48.64675" lon="-2.30679">
        <ele>33</ele>
        <time>2020-06-24T11:10:11.085Z</time>
      </trkpt>
      <trkpt lat="48.64675" lon="-2.3068">
        <ele>34</ele>
        <time>2020-06-24T11:10:12.085Z</time>
      </trkpt>
      <trkpt lat="48.64674" lon="-2.30682">
        <ele>34</ele>
        <time>2020-06-24T11:10:13.085Z</time>
      </trkpt>
      <trkpt lat="48.64674" lon="-2.30683">
        <ele>33</ele>
        <time>2020-06-24T11:10:14.085Z</time>
      </trkpt>
      <trkpt lat="48.64674" lon="-2.30685">
        <ele>33</ele>
        <time>2020-06-24T11:10:15.085Z</time>
      </trkpt>
      <trkpt lat="48.64674" lon="-2.30687">
        <ele>32</ele>
        <time>2020-06-24T11:10:16.085Z</time>
      </trkpt>
      <trkpt lat="48.64674" lon="-2.30689">
        <ele>32</ele>
        <time>2020-06-24T11:10:17.085Z</time>
      </trkpt>
      <trkpt lat="48.64674" lon="-2.30691">
        <ele>32</ele>
        <time>2020-06-24T11:10:18.085Z</time>
      </trkpt>
      <trkpt lat="48.64674" lon="-2.30692">
        <ele>32</ele>
        <time>2020-06-24T11:10:19.085Z</time>
      </trkpt>
      <trkpt lat="48.64673" lon="-2.30693">
        <ele>33</ele>
        <time>2020-06-24T11:10:20.085Z</time>
      </trkpt>
      <trkpt lat="48.64673" lon="-2.30694">
        <ele>34</ele>
        <time>2020-06-24T11:10:21.085Z</time>
      </trkpt>
      <trkpt lat="48.64672" lon="-2.30695">
        <ele>36</ele>
        <time>2020-06-24T11:10:22.085Z</time>
      </trkpt>
      <trkpt lat="48.64671" lon="-2.30696">
        <ele>37</ele>
        <time>2020-06-24T11:10:23.085Z</time>
      </trkpt>
      <trkpt lat="48.64669" lon="-2.30697">
        <ele>38</ele>
        <time>2020-06-24T11:10:24.085Z</time>
      </trkpt>
      <trkpt lat="48.64668" lon="-2.30699">
        <ele>39</ele>
        <time>2020-06-24T11:10:25.085Z</time>
      </trkpt>
      <trkpt lat="48.64667" lon="-2.307">
        <ele>40</ele>
        <time>2020-06-24T11:10:26.085Z</time>
      </trkpt>
      <trkpt lat="48.64666" lon="-2.30701">
        <ele>40</ele>
        <time>2020-06-24T11:10:27.085Z</time>
      </trkpt>
      <trkpt lat="48.64665" lon="-2.30702">
        <ele>40</ele>
        <time>2020-06-24T11:10:28.085Z</time>
      </trkpt>
      <trkpt lat="48.64665" lon="-2.30703">
        <ele>40</ele>
        <time>2020-06-24T11:10:29.085Z</time>
      </trkpt>
      <trkpt lat="48.64664" lon="-2.30705">
        <ele>41</ele>
        <time>2020-06-24T11:10:30.085Z</time>
      </trkpt>
      <trkpt lat="48.64664" lon="-2.30706">
        <ele>41</ele>
        <time>2020-06-24T11:10:31.085Z</time>
      </trkpt>
      <trkpt lat="48.64663" lon="-2.30707">
        <ele>41</ele>
        <time>2020-06-24T11:10:32.085Z</time>
      </trkpt>
      <trkpt lat="48.64662" lon="-2.30708">
        <ele>41</ele>
        <time>2020-06-24T11:10:33.085Z</time>
      </trkpt>
      <trkpt lat="48.64662" lon="-2.30709">
        <ele>41</ele>
        <time>2020-06-24T11:10:34.085Z</time>
      </trkpt>
      <trkpt lat="48.64662" lon="-2.30709">
        <ele>42</ele>
        <time>2020-06-24T11:10:35.085Z</time>
      </trkpt>
      <trkpt lat="48.64661" lon="-2.3071">
        <ele>42</ele>
        <time>2020-06-24T11:10:36.085Z</time>
      </trkpt>
      <trkpt lat="48.64661" lon="-2.30711">
        <ele>41</ele>
        <time>2020-06-24T11:10:37.085Z</time>
      </trkpt>
      <trkpt lat="48.6466" lon="-2.30713">
        <ele>40</ele>
        <time>2020-06-24T11:10:38.085Z</time>
      </trkpt>
      <trkpt lat="48.64659" lon="-2.30714">
        <ele>39</ele>
        <time>2020-06-24T11:10:39.085Z</time>
      </trkpt>
      <trkpt lat="48.64658" lon="-2.30716">
        <ele>39</ele>
        <time>2020-06-24T11:10:40.085Z</time>
      </trkpt>
      <trkpt lat="48.64657" lon="-2.30717">
        <ele>40</ele>
        <time>2020-06-24T11:10:41.085Z</time>
      </trkpt>
      <trkpt lat="48.64656" lon="-2.30719">
        <ele>40</ele>
        <time>2020-06-24T11:10:42.085Z</time>
      </trkpt>
      <trkpt lat="48.64655" lon="-2.3072">
        <ele>40</ele>
        <time>2020-06-24T11:10:43.085Z</time>
      </trkpt>
      <trkpt lat="48.64654" lon="-2.30721">
        <ele>40</ele>
        <time>2020-06-24T11:10:44.085Z</time>
      </trkpt>
      <trkpt lat="48.64653" lon="-2.30722">
        <ele>40</ele>
        <time>2020-06-24T11:10:45.085Z</time>
      </trkpt>
      <trkpt lat="48.64651" lon="-2.30724">
        <ele>40</ele>
        <time>2020-06-24T11:10:46.085Z</time>
      </trkpt>
      <trkpt lat="48.6465" lon="-2.30725">
        <ele>40</ele>
        <time>2020-06-24T11:10:47.085Z</time>
      </trkpt>
      <trkpt lat="48.6465" lon="-2.30727">
        <ele>40</ele>
        <time>2020-06-24T11:10:48.085Z</time>
      </trkpt>
      <trkpt lat="48.64649" lon="-2.30728">
        <ele>41</ele>
        <time>2020-06-24T11:10:49.085Z</time>
      </trkpt>
      <trkpt lat="48.64648" lon="-2.30729">
        <ele>41</ele>
        <time>2020-06-24T11:10:50.085Z</time>
      </trkpt>
      <trkpt lat="48.64647" lon="-2.3073">
        <ele>41</ele>
        <time>2020-06-24T11:10:51.085Z</time>
      </trkpt>
      <trkpt lat="48.64647" lon="-2.30732">
        <ele>42</ele>
        <time>2020-06-24T11:10:52.085Z</time>
      </trkpt>
      <trkpt lat="48.64646" lon="-2.30733">
        <ele>42</ele>
        <time>2020-06-24T11:10:53.085Z</time>
      </trkpt>
      <trkpt lat="48.64645" lon="-2.30734">
        <ele>42</ele>
        <time>2020-06-24T11:10:54.085Z</time>
      </trkpt>
      <trkpt lat="48.64644" lon="-2.30736">
        <ele>42</ele>
        <time>2020-06-24T11:10:55.085Z</time>
      </trkpt>
      <trkpt lat="48.64643" lon="-2.30737">
        <ele>42</ele>
        <time>2020-06-24T11:10:56.085Z</time>
      </trkpt>
      <trkpt lat="48.64642" lon="-2.30739">
        <ele>42</ele>
        <time>2020-06-24T11:10:57.085Z</time>
      </trkpt>
      <trkpt lat="48.64642" lon="-2.3074">
        <ele>42</ele>
        <time>2020-06-24T11:10:58.085Z</time>
      </trkpt>
      <trkpt lat="48.64641" lon="-2.30742">
        <ele>42</ele>
        <time>2020-06-24T11:10:59.085Z</time>
      </trkpt>
      <trkpt lat="48.64641" lon="-2.30744">
        <ele>41</ele>
        <time>2020-06-24T11:11:00.085Z</time>
      </trkpt>
      <trkpt lat="48.6464" lon="-2.30745">
        <ele>42</ele>
        <time>2020-06-24T11:11:01.085Z</time>
      </trkpt>
      <trkpt lat="48.64639" lon="-2.30746">
        <ele>42</ele>
        <time>2020-06-24T11:11:02.085Z</time>
      </trkpt>
      <trkpt lat="48.64639" lon="-2.30748">
        <ele>42</ele>
        <time>2020-06-24T11:11:03.085Z</time>
      </trkpt>
      <trkpt lat="48.64638" lon="-2.30749">
        <ele>42</ele>
        <time>2020-06-24T11:11:04.085Z</time>
      </trkpt>
      <trkpt lat="48.64637" lon="-2.3075">
        <ele>42</ele>
        <time>2020-06-24T11:11:05.085Z</time>
      </trkpt>
      <trkpt lat="48.64637" lon="-2.30751">
        <ele>41</ele>
        <time>2020-06-24T11:11:06.085Z</time>
      </trkpt>
      <trkpt lat="48.64636" lon="-2.30752">
        <ele>41</ele>
        <time>2020-06-24T11:11:07.085Z</time>
      </trkpt>
      <trkpt lat="48.64636" lon="-2.30754">
        <ele>40</ele>
        <time>2020-06-24T11:11:08.085Z</time>
      </trkpt>
      <trkpt lat="48.64635" lon="-2.30755">
        <ele>40</ele>
        <time>2020-06-24T11:11:09.085Z</time>
      </trkpt>
      <trkpt lat="48.64635" lon="-2.30756">
        <ele>39</ele>
        <time>2020-06-24T11:11:10.085Z</time>
      </trkpt>
      <trkpt lat="48.64635" lon="-2.30757">
        <ele>38</ele>
        <time>2020-06-24T11:11:11.085Z</time>
      </trkpt>
      <trkpt lat="48.64635" lon="-2.30759">
        <ele>38</ele>
        <time>2020-06-24T11:11:12.085Z</time>
      </trkpt>
      <trkpt lat="48.64634" lon="-2.30759">
        <ele>37</ele>
        <time>2020-06-24T11:11:13.085Z</time>
      </trkpt>
      <trkpt lat="48.64634" lon="-2.3076">
        <ele>37</ele>
        <time>2020-06-24T11:11:14.085Z</time>
      </trkpt>
      <trkpt lat="48.64633" lon="-2.30761">
        <ele>37</ele>
        <time>2020-06-24T11:11:15.085Z</time>
      </trkpt>
      <trkpt lat="48.64633" lon="-2.30762">
        <ele>37</ele>
        <time>2020-06-24T11:11:16.085Z</time>
      </trkpt>
      <trkpt lat="48.64632" lon="-2.30763">
        <ele>38</ele>
        <time>2020-06-24T11:11:17.085Z</time>
      </trkpt>
      <trkpt lat="48.64632" lon="-2.30764">
        <ele>39</ele>
        <time>2020-06-24T11:11:18.085Z</time>
      </trkpt>
      <trkpt lat="48.64631" lon="-2.30765">
        <ele>39</ele>
        <time>2020-06-24T11:11:19.085Z</time>
      </trkpt>
      <trkpt lat="48.6463" lon="-2.30766">
        <ele>38</ele>
        <time>2020-06-24T11:11:20.085Z</time>
      </trkpt>
      <trkpt lat="48.6463" lon="-2.30767">
        <ele>38</ele>
        <time>2020-06-24T11:11:21.085Z</time>
      </trkpt>
      <trkpt lat="48.6463" lon="-2.30768">
        <ele>38</ele>
        <time>2020-06-24T11:11:22.085Z</time>
      </trkpt>
      <trkpt lat="48.64629" lon="-2.30769">
        <ele>38</ele>
        <time>2020-06-24T11:11:23.085Z</time>
      </trkpt>
      <trkpt lat="48.64628" lon="-2.30771">
        <ele>36</ele>
        <time>2020-06-24T11:11:24.085Z</time>
      </trkpt>
      <trkpt lat="48.64627" lon="-2.30773">
        <ele>36</ele>
        <time>2020-06-24T11:11:25.085Z</time>
      </trkpt>
      <trkpt lat="48.64627" lon="-2.30774">
        <ele>35</ele>
        <time>2020-06-24T11:11:26.085Z</time>
      </trkpt>
      <trkpt lat="48.64626" lon="-2.30776">
        <ele>35</ele>
        <time>2020-06-24T11:11:27.085Z</time>
      </trkpt>
      <trkpt lat="48.64625" lon="-2.30776">
        <ele>35</ele>
        <time>2020-06-24T11:11:28.085Z</time>
      </trkpt>
      <trkpt lat="48.64625" lon="-2.30777">
        <ele>35</ele>
        <time>2020-06-24T11:11:29.085Z</time>
      </trkpt>
      <trkpt lat="48.64624" lon="-2.30778">
        <ele>35</ele>
        <time>2020-06-24T11:11:30.085Z</time>
      </trkpt>
      <trkpt lat="48.64624" lon="-2.30779">
        <ele>35</ele>
        <time>2020-06-24T11:11:31.085Z</time>
      </trkpt>
      <trkpt lat="48.64623" lon="-2.30781">
        <ele>35</ele>
        <time>2020-06-24T11:11:32.085Z</time>
      </trkpt>
      <trkpt lat="48.64622" lon="-2.30782">
        <ele>35</ele>
        <time>2020-06-24T11:11:33.085Z</time>
      </trkpt>
      <trkpt lat="48.64622" lon="-2.30784">
        <ele>35</ele>
        <time>2020-06-24T11:11:34.085Z</time>
      </trkpt>
      <trkpt lat="48.64621" lon="-2.30785">
        <ele>35</ele>
        <time>2020-06-24T11:11:35.085Z</time>
      </trkpt>
      <trkpt lat="48.6462" lon="-2.30787">
        <ele>35</ele>
        <time>2020-06-24T11:11:36.085Z</time>
      </trkpt>
      <trkpt lat="48.64619" lon="-2.30788">
        <ele>34</ele>
        <time>2020-06-24T11:11:37.085Z</time>
      </trkpt>
      <trkpt lat="48.64618" lon="-2.30789">
        <ele>35</ele>
        <time>2020-06-24T11:11:38.085Z</time>
      </trkpt>
      <trkpt lat="48.64618" lon="-2.30791">
        <ele>36</ele>
        <time>2020-06-24T11:11:39.085Z</time>
      </trkpt>
      <trkpt lat="48.64617" lon="-2.30793">
        <ele>37</ele>
        <time>2020-06-24T11:11:40.085Z</time>
      </trkpt>
      <trkpt lat="48.64616" lon="-2.30794">
        <ele>38</ele>
        <time>2020-06-24T11:11:41.085Z</time>
      </trkpt>
      <trkpt lat="48.64614" lon="-2.30796">
        <ele>39</ele>
        <time>2020-06-24T11:11:42.085Z</time>
      </trkpt>
      <trkpt lat="48.64613" lon="-2.30797">
        <ele>40</ele>
        <time>2020-06-24T11:11:43.085Z</time>
      </trkpt>
      <trkpt lat="48.64612" lon="-2.30798">
        <ele>39</ele>
        <time>2020-06-24T11:11:44.085Z</time>
      </trkpt>
      <trkpt lat="48.64612" lon="-2.30799">
        <ele>39</ele>
        <time>2020-06-24T11:11:45.085Z</time>
      </trkpt>
      <trkpt lat="48.64611" lon="-2.30799">
        <ele>39</ele>
        <time>2020-06-24T11:11:46.085Z</time>
      </trkpt>
      <trkpt lat="48.6461" lon="-2.308">
        <ele>39</ele>
        <time>2020-06-24T11:11:47.085Z</time>
      </trkpt>
      <trkpt lat="48.64609" lon="-2.30801">
        <ele>42</ele>
        <time>2020-06-24T11:11:48.085Z</time>
      </trkpt>
      <trkpt lat="48.64608" lon="-2.30803">
        <ele>41</ele>
        <time>2020-06-24T11:11:49.085Z</time>
      </trkpt>
      <trkpt lat="48.64607" lon="-2.30804">
        <ele>42</ele>
        <time>2020-06-24T11:11:50.085Z</time>
      </trkpt>
      <trkpt lat="48.64606" lon="-2.30805">
        <ele>41</ele>
        <time>2020-06-24T11:11:51.085Z</time>
      </trkpt>
      <trkpt lat="48.64604" lon="-2.30807">
        <ele>42</ele>
        <time>2020-06-24T11:11:52.085Z</time>
      </trkpt>
      <trkpt lat="48.64603" lon="-2.30809">
        <ele>42</ele>
        <time>2020-06-24T11:11:53.085Z</time>
      </trkpt>
      <trkpt lat="48.64602" lon="-2.30809">
        <ele>42</ele>
        <time>2020-06-24T11:11:54.085Z</time>
      </trkpt>
      <trkpt lat="48.64601" lon="-2.3081">
        <ele>42</ele>
        <time>2020-06-24T11:11:55.085Z</time>
      </trkpt>
      <trkpt lat="48.64601" lon="-2.30811">
        <ele>42</ele>
        <time>2020-06-24T11:11:56.085Z</time>
      </trkpt>
      <trkpt lat="48.646" lon="-2.30811">
        <ele>43</ele>
        <time>2020-06-24T11:11:57.085Z</time>
      </trkpt>
      <trkpt lat="48.64599" lon="-2.30812">
        <ele>42</ele>
        <time>2020-06-24T11:11:58.085Z</time>
      </trkpt>
      <trkpt lat="48.64599" lon="-2.30813">
        <ele>42</ele>
        <time>2020-06-24T11:11:59.085Z</time>
      </trkpt>
      <trkpt lat="48.64598" lon="-2.30815">
        <ele>43</ele>
        <time>2020-06-24T11:12:00.085Z</time>
      </trkpt>
      <trkpt lat="48.64597" lon="-2.30816">
        <ele>43</ele>
        <time>2020-06-24T11:12:01.085Z</time>
      </trkpt>
      <trkpt lat="48.64596" lon="-2.30817">
        <ele>42</ele>
        <time>2020-06-24T11:12:02.085Z</time>
      </trkpt>
      <trkpt lat="48.64595" lon="-2.30818">
        <ele>42</ele>
        <time>2020-06-24T11:12:03.085Z</time>
      </trkpt>
      <trkpt lat="48.64594" lon="-2.30819">
        <ele>42</ele>
        <time>2020-06-24T11:12:04.085Z</time>
      </trkpt>
      <trkpt lat="48.64593" lon="-2.3082">
        <ele>42</ele>
        <time>2020-06-24T11:12:05.085Z</time>
      </trkpt>
      <trkpt lat="48.64593" lon="-2.30821">
        <ele>41</ele>
        <time>2020-06-24T11:12:06.085Z</time>
      </trkpt>
      <trkpt lat="48.64592" lon="-2.30822">
        <ele>41</ele>
        <time>2020-06-24T11:12:07.085Z</time>
      </trkpt>
      <trkpt lat="48.64591" lon="-2.30823">
        <ele>40</ele>
        <time>2020-06-24T11:12:08.085Z</time>
      </trkpt>
      <trkpt lat="48.6459" lon="-2.30824">
        <ele>40</ele>
        <time>2020-06-24T11:12:09.085Z</time>
      </trkpt>
      <trkpt lat="48.64589" lon="-2.30826">
        <ele>40</ele>
        <time>2020-06-24T11:12:10.085Z</time>
      </trkpt>
      <trkpt lat="48.64588" lon="-2.30827">
        <ele>39</ele>
        <time>2020-06-24T11:12:11.085Z</time>
      </trkpt>
      <trkpt lat="48.64587" lon="-2.30828">
        <ele>39</ele>
        <time>2020-06-24T11:12:12.085Z</time>
      </trkpt>
      <trkpt lat="48.64585" lon="-2.30829">
        <ele>38</ele>
        <time>2020-06-24T11:12:13.085Z</time>
      </trkpt>
      <trkpt lat="48.64584" lon="-2.30829">
        <ele>37</ele>
        <time>2020-06-24T11:12:14.085Z</time>
      </trkpt>
      <trkpt lat="48.64584" lon="-2.3083">
        <ele>37</ele>
        <time>2020-06-24T11:12:15.085Z</time>
      </trkpt>
      <trkpt lat="48.64583" lon="-2.30831">
        <ele>38</ele>
        <time>2020-06-24T11:12:16.085Z</time>
      </trkpt>
      <trkpt lat="48.64582" lon="-2.30832">
        <ele>38</ele>
        <time>2020-06-24T11:12:17.085Z</time>
      </trkpt>
      <trkpt lat="48.64581" lon="-2.30833">
        <ele>39</ele>
        <time>2020-06-24T11:12:18.085Z</time>
      </trkpt>
      <trkpt lat="48.64581" lon="-2.30835">
        <ele>38</ele>
        <time>2020-06-24T11:12:19.085Z</time>
      </trkpt>
      <trkpt lat="48.6458" lon="-2.30836">
        <ele>37</ele>
        <time>2020-06-24T11:12:20.085Z</time>
      </trkpt>
      <trkpt lat="48.6458" lon="-2.30838">
        <ele>37</ele>
        <time>2020-06-24T11:12:21.085Z</time>
      </trkpt>
      <trkpt lat="48.64579" lon="-2.30839">
        <ele>37</ele>
        <time>2020-06-24T11:12:22.085Z</time>
      </trkpt>
      <trkpt lat="48.64578" lon="-2.30841">
        <ele>36</ele>
        <time>2020-06-24T11:12:23.085Z</time>
      </trkpt>
      <trkpt lat="48.64578" lon="-2.30842">
        <ele>35</ele>
        <time>2020-06-24T11:12:24.085Z</time>
      </trkpt>
      <trkpt lat="48.64577" lon="-2.30843">
        <ele>35</ele>
        <time>2020-06-24T11:12:25.085Z</time>
      </trkpt>
      <trkpt lat="48.64577" lon="-2.30844">
        <ele>34</ele>
        <time>2020-06-24T11:12:26.085Z</time>
      </trkpt>
      <trkpt lat="48.64576" lon="-2.30844">
        <ele>34</ele>
        <time>2020-06-24T11:12:27.085Z</time>
      </trkpt>
      <trkpt lat="48.64575" lon="-2.30845">
        <ele>34</ele>
        <time>2020-06-24T11:12:28.085Z</time>
      </trkpt>
      <trkpt lat="48.64574" lon="-2.30846">
        <ele>33</ele>
        <time>2020-06-24T11:12:29.085Z</time>
      </trkpt>
      <trkpt lat="48.64573" lon="-2.30847">
        <ele>33</ele>
        <time>2020-06-24T11:12:30.085Z</time>
      </trkpt>
      <trkpt lat="48.64571" lon="-2.30848">
        <ele>33</ele>
        <time>2020-06-24T11:12:31.085Z</time>
      </trkpt>
      <trkpt lat="48.6457" lon="-2.30849">
        <ele>33</ele>
        <time>2020-06-24T11:12:32.085Z</time>
      </trkpt>
      <trkpt lat="48.6457" lon="-2.3085">
        <ele>33</ele>
        <time>2020-06-24T11:12:33.085Z</time>
      </trkpt>
      <trkpt lat="48.64569" lon="-2.30852">
        <ele>33</ele>
        <time>2020-06-24T11:12:34.085Z</time>
      </trkpt>
      <trkpt lat="48.64568" lon="-2.30853">
        <ele>31</ele>
        <time>2020-06-24T11:12:35.085Z</time>
      </trkpt>
      <trkpt lat="48.64567" lon="-2.30854">
        <ele>31</ele>
        <time>2020-06-24T11:12:36.085Z</time>
      </trkpt>
      <trkpt lat="48.64566" lon="-2.30855">
        <ele>31</ele>
        <time>2020-06-24T11:12:37.085Z</time>
      </trkpt>
      <trkpt lat="48.64564" lon="-2.30856">
        <ele>31</ele>
        <time>2020-06-24T11:12:38.085Z</time>
      </trkpt>
      <trkpt lat="48.64563" lon="-2.30856">
        <ele>30</ele>
        <time>2020-06-24T11:12:39.085Z</time>
      </trkpt>
      <trkpt lat="48.64562" lon="-2.30857">
        <ele>30</ele>
        <time>2020-06-24T11:12:40.085Z</time>
      </trkpt>
      <trkpt lat="48.6456" lon="-2.30858">
        <ele>30</ele>
        <time>2020-06-24T11:12:41.085Z</time>
      </trkpt>
      <trkpt lat="48.64559" lon="-2.30858">
        <ele>30</ele>
        <time>2020-06-24T11:12:42.085Z</time>
      </trkpt>
      <trkpt lat="48.64558" lon="-2.30859">
        <ele>30</ele>
        <time>2020-06-24T11:12:43.085Z</time>
      </trkpt>
      <trkpt lat="48.64557" lon="-2.30859">
        <ele>30</ele>
        <time>2020-06-24T11:12:44.085Z</time>
      </trkpt>
      <trkpt lat="48.64555" lon="-2.3086">
        <ele>29</ele>
        <time>2020-06-24T11:12:45.085Z</time>
      </trkpt>
      <trkpt lat="48.64554" lon="-2.30861">
        <ele>28</ele>
        <time>2020-06-24T11:12:46.085Z</time>
      </trkpt>
      <trkpt lat="48.64553" lon="-2.30861">
        <ele>29</ele>
        <time>2020-06-24T11:12:47.085Z</time>
      </trkpt>
      <trkpt lat="48.64551" lon="-2.30862">
        <ele>29</ele>
        <time>2020-06-24T11:12:48.085Z</time>
      </trkpt>
      <trkpt lat="48.64549" lon="-2.30862">
        <ele>29</ele>
        <time>2020-06-24T11:12:49.085Z</time>
      </trkpt>
      <trkpt lat="48.64548" lon="-2.30863">
        <ele>28</ele>
        <time>2020-06-24T11:12:50.085Z</time>
      </trkpt>
      <trkpt lat="48.64546" lon="-2.30864">
        <ele>28</ele>
        <time>2020-06-24T11:12:51.085Z</time>
      </trkpt>
      <trkpt lat="48.64545" lon="-2.30864">
        <ele>28</ele>
        <time>2020-06-24T11:12:52.085Z</time>
      </trkpt>
      <trkpt lat="48.64544" lon="-2.30865">
        <ele>28</ele>
        <time>2020-06-24T11:12:53.085Z</time>
      </trkpt>
      <trkpt lat="48.64542" lon="-2.30865">
        <ele>26</ele>
        <time>2020-06-24T11:12:54.085Z</time>
      </trkpt>
      <trkpt lat="48.64541" lon="-2.30864">
        <ele>25</ele>
        <time>2020-06-24T11:12:55.085Z</time>
      </trkpt>
      <trkpt lat="48.64541" lon="-2.30864">
        <ele>23</ele>
        <time>2020-06-24T11:12:56.085Z</time>
      </trkpt>
      <trkpt lat="48.6454" lon="-2.30864">
        <ele>22</ele>
        <time>2020-06-24T11:12:57.085Z</time>
      </trkpt>
      <trkpt lat="48.64539" lon="-2.30863">
        <ele>22</ele>
        <time>2020-06-24T11:12:58.085Z</time>
      </trkpt>
      <trkpt lat="48.64538" lon="-2.30863">
        <ele>21</ele>
        <time>2020-06-24T11:12:59.085Z</time>
      </trkpt>
      <trkpt lat="48.64537" lon="-2.30862">
        <ele>21</ele>
        <time>2020-06-24T11:13:00.085Z</time>
      </trkpt>
      <trkpt lat="48.64535" lon="-2.30862">
        <ele>22</ele>
        <time>2020-06-24T11:13:01.085Z</time>
      </trkpt>
      <trkpt lat="48.64534" lon="-2.30861">
        <ele>23</ele>
        <time>2020-06-24T11:13:02.085Z</time>
      </trkpt>
      <trkpt lat="48.64533" lon="-2.3086">
        <ele>23</ele>
        <time>2020-06-24T11:13:03.085Z</time>
      </trkpt>
      <trkpt lat="48.64532" lon="-2.30859">
        <ele>23</ele>
        <time>2020-06-24T11:13:04.085Z</time>
      </trkpt>
      <trkpt lat="48.6453" lon="-2.30858">
        <ele>22</ele>
        <time>2020-06-24T11:13:05.085Z</time>
      </trkpt>
      <trkpt lat="48.64529" lon="-2.30857">
        <ele>22</ele>
        <time>2020-06-24T11:13:06.085Z</time>
      </trkpt>
      <trkpt lat="48.64528" lon="-2.30856">
        <ele>22</ele>
        <time>2020-06-24T11:13:07.085Z</time>
      </trkpt>
      <trkpt lat="48.64527" lon="-2.30855">
        <ele>22</ele>
        <time>2020-06-24T11:13:08.085Z</time>
      </trkpt>
      <trkpt lat="48.64526" lon="-2.30854">
        <ele>21</ele>
        <time>2020-06-24T11:13:09.085Z</time>
      </trkpt>
      <trkpt lat="48.64525" lon="-2.30854">
        <ele>21</ele>
        <time>2020-06-24T11:13:10.085Z</time>
      </trkpt>
      <trkpt lat="48.64524" lon="-2.30853">
        <ele>21</ele>
        <time>2020-06-24T11:13:11.085Z</time>
      </trkpt>
      <trkpt lat="48.64523" lon="-2.30852">
        <ele>21</ele>
        <time>2020-06-24T11:13:12.085Z</time>
      </trkpt>
      <trkpt lat="48.64522" lon="-2.30852">
        <ele>21</ele>
        <time>2020-06-24T11:13:13.085Z</time>
      </trkpt>
      <trkpt lat="48.64521" lon="-2.30852">
        <ele>20</ele>
        <time>2020-06-24T11:13:14.085Z</time>
      </trkpt>
      <trkpt lat="48.6452" lon="-2.30852">
        <ele>20</ele>
        <time>2020-06-24T11:13:15.085Z</time>
      </trkpt>
      <trkpt lat="48.64519" lon="-2.30852">
        <ele>20</ele>
        <time>2020-06-24T11:13:16.085Z</time>
      </trkpt>
      <trkpt lat="48.64518" lon="-2.30852">
        <ele>21</ele>
        <time>2020-06-24T11:13:17.085Z</time>
      </trkpt>
      <trkpt lat="48.64517" lon="-2.30853">
        <ele>21</ele>
        <time>2020-06-24T11:13:18.085Z</time>
      </trkpt>
      <trkpt lat="48.64516" lon="-2.30854">
        <ele>21</ele>
        <time>2020-06-24T11:13:19.085Z</time>
      </trkpt>
      <trkpt lat="48.64515" lon="-2.30855">
        <ele>21</ele>
        <time>2020-06-24T11:13:20.085Z</time>
      </trkpt>
      <trkpt lat="48.64514" lon="-2.30855">
        <ele>21</ele>
        <time>2020-06-24T11:13:21.085Z</time>
      </trkpt>
      <trkpt lat="48.64513" lon="-2.30856">
        <ele>22</ele>
        <time>2020-06-24T11:13:22.085Z</time>
      </trkpt>
      <trkpt lat="48.64512" lon="-2.30857">
        <ele>22</ele>
        <time>2020-06-24T11:13:23.085Z</time>
      </trkpt>
      <trkpt lat="48.64512" lon="-2.30858">
        <ele>23</ele>
        <time>2020-06-24T11:13:24.085Z</time>
      </trkpt>
      <trkpt lat="48.64511" lon="-2.30859">
        <ele>23</ele>
        <time>2020-06-24T11:13:25.085Z</time>
      </trkpt>
      <trkpt lat="48.6451" lon="-2.3086">
        <ele>23</ele>
        <time>2020-06-24T11:13:26.085Z</time>
      </trkpt>
      <trkpt lat="48.64509" lon="-2.30861">
        <ele>24</ele>
        <time>2020-06-24T11:13:27.085Z</time>
      </trkpt>
      <trkpt lat="48.64508" lon="-2.30862">
        <ele>24</ele>
        <time>2020-06-24T11:13:28.085Z</time>
      </trkpt>
      <trkpt lat="48.64507" lon="-2.30863">
        <ele>24</ele>
        <time>2020-06-24T11:13:29.085Z</time>
      </trkpt>
      <trkpt lat="48.64506" lon="-2.30864">
        <ele>24</ele>
        <time>2020-06-24T11:13:30.085Z</time>
      </trkpt>
      <trkpt lat="48.64505" lon="-2.30865">
        <ele>25</ele>
        <time>2020-06-24T11:13:31.085Z</time>
      </trkpt>
      <trkpt lat="48.64504" lon="-2.30865">
        <ele>25</ele>
        <time>2020-06-24T11:13:32.085Z</time>
      </trkpt>
      <trkpt lat="48.64503" lon="-2.30866">
        <ele>25</ele>
        <time>2020-06-24T11:13:33.085Z</time>
      </trkpt>
      <trkpt lat="48.64502" lon="-2.30867">
        <ele>25</ele>
        <time>2020-06-24T11:13:34.085Z</time>
      </trkpt>
      <trkpt lat="48.64501" lon="-2.30868">
        <ele>25</ele>
        <time>2020-06-24T11:13:35.085Z</time>
      </trkpt>
      <trkpt lat="48.645" lon="-2.30869">
        <ele>26</ele>
        <time>2020-06-24T11:13:36.085Z</time>
      </trkpt>
      <trkpt lat="48.645" lon="-2.3087">
        <ele>25</ele>
        <time>2020-06-24T11:13:37.085Z</time>
      </trkpt>
      <trkpt lat="48.64499" lon="-2.30871">
        <ele>25</ele>
        <time>2020-06-24T11:13:38.085Z</time>
      </trkpt>
      <trkpt lat="48.64499" lon="-2.30871">
        <ele>26</ele>
        <time>2020-06-24T11:13:39.085Z</time>
      </trkpt>
      <trkpt lat="48.64498" lon="-2.30872">
        <ele>26</ele>
        <time>2020-06-24T11:13:40.085Z</time>
      </trkpt>
      <trkpt lat="48.64497" lon="-2.30873">
        <ele>27</ele>
        <time>2020-06-24T11:13:41.085Z</time>
      </trkpt>
      <trkpt lat="48.64496" lon="-2.30874">
        <ele>27</ele>
        <time>2020-06-24T11:13:42.085Z</time>
      </trkpt>
      <trkpt lat="48.64494" lon="-2.30875">
        <ele>27</ele>
        <time>2020-06-24T11:13:43.085Z</time>
      </trkpt>
      <trkpt lat="48.64493" lon="-2.30876">
        <ele>26</ele>
        <time>2020-06-24T11:13:44.085Z</time>
      </trkpt>
      <trkpt lat="48.64492" lon="-2.30877">
        <ele>27</ele>
        <time>2020-06-24T11:13:45.085Z</time>
      </trkpt>
      <trkpt lat="48.64491" lon="-2.30878">
        <ele>28</ele>
        <time>2020-06-24T11:13:46.085Z</time>
      </trkpt>
      <trkpt lat="48.64489" lon="-2.30879">
        <ele>28</ele>
        <time>2020-06-24T11:13:47.085Z</time>
      </trkpt>
      <trkpt lat="48.64488" lon="-2.30881">
        <ele>28</ele>
        <time>2020-06-24T11:13:48.085Z</time>
      </trkpt>
      <trkpt lat="48.64488" lon="-2.30883">
        <ele>27</ele>
        <time>2020-06-24T11:13:49.085Z</time>
      </trkpt>
      <trkpt lat="48.64487" lon="-2.30885">
        <ele>28</ele>
        <time>2020-06-24T11:13:50.085Z</time>
      </trkpt>
      <trkpt lat="48.64486" lon="-2.30886">
        <ele>28</ele>
        <time>2020-06-24T11:13:51.085Z</time>
      </trkpt>
      <trkpt lat="48.64485" lon="-2.30887">
        <ele>27</ele>
        <time>2020-06-24T11:13:52.085Z</time>
      </trkpt>
      <trkpt lat="48.64485" lon="-2.30888">
        <ele>26</ele>
        <time>2020-06-24T11:13:53.085Z</time>
      </trkpt>
      <trkpt lat="48.64484" lon="-2.3089">
        <ele>25</ele>
        <time>2020-06-24T11:13:54.085Z</time>
      </trkpt>
      <trkpt lat="48.64483" lon="-2.30891">
        <ele>25</ele>
        <time>2020-06-24T11:13:55.085Z</time>
      </trkpt>
      <trkpt lat="48.64482" lon="-2.30892">
        <ele>25</ele>
        <time>2020-06-24T11:13:56.085Z</time>
      </trkpt>
      <trkpt lat="48.64482" lon="-2.30893">
        <ele>27</ele>
        <time>2020-06-24T11:13:57.085Z</time>
      </trkpt>
      <trkpt lat="48.64482" lon="-2.30894">
        <ele>28</ele>
        <time>2020-06-24T11:13:58.085Z</time>
      </trkpt>
      <trkpt lat="48.64481" lon="-2.30895">
        <ele>28</ele>
        <time>2020-06-24T11:13:59.085Z</time>
      </trkpt>
      <trkpt lat="48.64481" lon="-2.30896">
        <ele>28</ele>
        <time>2020-06-24T11:14:00.085Z</time>
      </trkpt>
      <trkpt lat="48.6448" lon="-2.30897">
        <ele>30</ele>
        <time>2020-06-24T11:14:01.085Z</time>
      </trkpt>
      <trkpt lat="48.64479" lon="-2.30898">
        <ele>30</ele>
        <time>2020-06-24T11:14:02.085Z</time>
      </trkpt>
      <trkpt lat="48.64478" lon="-2.30898">
        <ele>30</ele>
        <time>2020-06-24T11:14:03.085Z</time>
      </trkpt>
      <trkpt lat="48.64477" lon="-2.30899">
        <ele>30</ele>
        <time>2020-06-24T11:14:04.085Z</time>
      </trkpt>
      <trkpt lat="48.64475" lon="-2.30901">
        <ele>28</ele>
        <time>2020-06-24T11:14:05.085Z</time>
      </trkpt>
      <trkpt lat="48.64474" lon="-2.30902">
        <ele>27</ele>
        <time>2020-06-24T11:14:06.085Z</time>
      </trkpt>
      <trkpt lat="48.64472" lon="-2.30903">
        <ele>26</ele>
        <time>2020-06-24T11:14:07.085Z</time>
      </trkpt>
      <trkpt lat="48.64471" lon="-2.30903">
        <ele>25</ele>
        <time>2020-06-24T11:14:08.085Z</time>
      </trkpt>
      <trkpt lat="48.64469" lon="-2.30904">
        <ele>24</ele>
        <time>2020-06-24T11:14:09.085Z</time>
      </trkpt>
      <trkpt lat="48.64468" lon="-2.30904">
        <ele>23</ele>
        <time>2020-06-24T11:14:10.085Z</time>
      </trkpt>
      <trkpt lat="48.64467" lon="-2.30904">
        <ele>22</ele>
        <time>2020-06-24T11:14:11.085Z</time>
      </trkpt>
      <trkpt lat="48.64466" lon="-2.30904">
        <ele>21</ele>
        <time>2020-06-24T11:14:12.085Z</time>
      </trkpt>
      <trkpt lat="48.64465" lon="-2.30905">
        <ele>20</ele>
        <time>2020-06-24T11:14:13.085Z</time>
      </trkpt>
      <trkpt lat="48.64464" lon="-2.30905">
        <ele>19</ele>
        <time>2020-06-24T11:14:14.085Z</time>
      </trkpt>
      <trkpt lat="48.64463" lon="-2.30905">
        <ele>19</ele>
        <time>2020-06-24T11:14:15.085Z</time>
      </trkpt>
      <trkpt lat="48.64462" lon="-2.30905">
        <ele>20</ele>
        <time>2020-06-24T11:14:16.085Z</time>
      </trkpt>
      <trkpt lat="48.64461" lon="-2.30905">
        <ele>19</ele>
        <time>2020-06-24T11:14:17.085Z</time>
      </trkpt>
      <trkpt lat="48.64459" lon="-2.30905">
        <ele>19</ele>
        <time>2020-06-24T11:14:18.085Z</time>
      </trkpt>
      <trkpt lat="48.64458" lon="-2.30905">
        <ele>18</ele>
        <time>2020-06-24T11:14:19.085Z</time>
      </trkpt>
      <trkpt lat="48.64457" lon="-2.30905">
        <ele>19</ele>
        <time>2020-06-24T11:14:20.085Z</time>
      </trkpt>
      <trkpt lat="48.64456" lon="-2.30906">
        <ele>19</ele>
        <time>2020-06-24T11:14:21.085Z</time>
      </trkpt>
      <trkpt lat="48.64455" lon="-2.30906">
        <ele>19</ele>
        <time>2020-06-24T11:14:22.085Z</time>
      </trkpt>
      <trkpt lat="48.64454" lon="-2.30907">
        <ele>18</ele>
        <time>2020-06-24T11:14:23.085Z</time>
      </trkpt>
      <trkpt lat="48.64453" lon="-2.30908">
        <ele>18</ele>
        <time>2020-06-24T11:14:24.085Z</time>
      </trkpt>
      <trkpt lat="48.64453" lon="-2.30909">
        <ele>18</ele>
        <time>2020-06-24T11:14:25.085Z</time>
      </trkpt>
      <trkpt lat="48.64452" lon="-2.3091">
        <ele>19</ele>
        <time>2020-06-24T11:14:26.085Z</time>
      </trkpt>
      <trkpt lat="48.64451" lon="-2.30911">
        <ele>20</ele>
        <time>2020-06-24T11:14:27.085Z</time>
      </trkpt>
      <trkpt lat="48.6445" lon="-2.30912">
        <ele>20</ele>
        <time>2020-06-24T11:14:28.085Z</time>
      </trkpt>
      <trkpt lat="48.64449" lon="-2.30913">
        <ele>19</ele>
        <time>2020-06-24T11:14:29.085Z</time>
      </trkpt>
      <trkpt lat="48.64448" lon="-2.30914">
        <ele>20</ele>
        <time>2020-06-24T11:14:30.085Z</time>
      </trkpt>
      <trkpt lat="48.64448" lon="-2.30914">
        <ele>21</ele>
        <time>2020-06-24T11:14:31.085Z</time>
      </trkpt>
      <trkpt lat="48.64447" lon="-2.30915">
        <ele>22</ele>
        <time>2020-06-24T11:14:32.085Z</time>
      </trkpt>
      <trkpt lat="48.64446" lon="-2.30916">
        <ele>21</ele>
        <time>2020-06-24T11:14:33.085Z</time>
      </trkpt>
      <trkpt lat="48.64445" lon="-2.30917">
        <ele>22</ele>
        <time>2020-06-24T11:14:34.085Z</time>
      </trkpt>
      <trkpt lat="48.64444" lon="-2.30918">
        <ele>21</ele>
        <time>2020-06-24T11:14:35.085Z</time>
      </trkpt>
      <trkpt lat="48.64443" lon="-2.30919">
        <ele>22</ele>
        <time>2020-06-24T11:14:36.085Z</time>
      </trkpt>
      <trkpt lat="48.64442" lon="-2.30919">
        <ele>22</ele>
        <time>2020-06-24T11:14:37.085Z</time>
      </trkpt>
      <trkpt lat="48.64441" lon="-2.3092">
        <ele>22</ele>
        <time>2020-06-24T11:14:38.085Z</time>
      </trkpt>
      <trkpt lat="48.6444" lon="-2.30921">
        <ele>22</ele>
        <time>2020-06-24T11:14:39.085Z</time>
      </trkpt>
      <trkpt lat="48.64439" lon="-2.30922">
        <ele>22</ele>
        <time>2020-06-24T11:14:40.085Z</time>
      </trkpt>
      <trkpt lat="48.64439" lon="-2.30923">
        <ele>22</ele>
        <time>2020-06-24T11:14:41.085Z</time>
      </trkpt>
      <trkpt lat="48.64438" lon="-2.30924">
        <ele>22</ele>
        <time>2020-06-24T11:14:42.085Z</time>
      </trkpt>
      <trkpt lat="48.64437" lon="-2.30925">
        <ele>21</ele>
        <time>2020-06-24T11:14:43.085Z</time>
      </trkpt>
      <trkpt lat="48.64437" lon="-2.30926">
        <ele>21</ele>
        <time>2020-06-24T11:14:44.085Z</time>
      </trkpt>
      <trkpt lat="48.64436" lon="-2.30927">
        <ele>21</ele>
        <time>2020-06-24T11:14:45.085Z</time>
      </trkpt>
      <trkpt lat="48.64435" lon="-2.30928">
        <ele>22</ele>
        <time>2020-06-24T11:14:46.085Z</time>
      </trkpt>
      <trkpt lat="48.64434" lon="-2.30929">
        <ele>22</ele>
        <time>2020-06-24T11:14:47.085Z</time>
      </trkpt>
      <trkpt lat="48.64433" lon="-2.3093">
        <ele>22</ele>
        <time>2020-06-24T11:14:48.085Z</time>
      </trkpt>
      <trkpt lat="48.64431" lon="-2.30931">
        <ele>21</ele>
        <time>2020-06-24T11:14:49.085Z</time>
      </trkpt>
      <trkpt lat="48.6443" lon="-2.30932">
        <ele>22</ele>
        <time>2020-06-24T11:14:50.085Z</time>
      </trkpt>
      <trkpt lat="48.64429" lon="-2.30933">
        <ele>23</ele>
        <time>2020-06-24T11:14:51.085Z</time>
      </trkpt>
      <trkpt lat="48.64428" lon="-2.30934">
        <ele>23</ele>
        <time>2020-06-24T11:14:52.085Z</time>
      </trkpt>
      <trkpt lat="48.64427" lon="-2.30935">
        <ele>23</ele>
        <time>2020-06-24T11:14:53.085Z</time>
      </trkpt>
      <trkpt lat="48.64426" lon="-2.30935">
        <ele>23</ele>
        <time>2020-06-24T11:14:54.085Z</time>
      </trkpt>
      <trkpt lat="48.64425" lon="-2.30936">
        <ele>23</ele>
        <time>2020-06-24T11:14:55.085Z</time>
      </trkpt>
      <trkpt lat="48.64424" lon="-2.30936">
        <ele>24</ele>
        <time>2020-06-24T11:14:56.085Z</time>
      </trkpt>
      <trkpt lat="48.64423" lon="-2.30937">
        <ele>24</ele>
        <time>2020-06-24T11:14:57.085Z</time>
      </trkpt>
      <trkpt lat="48.64422" lon="-2.30937">
        <ele>24</ele>
        <time>2020-06-24T11:14:58.085Z</time>
      </trkpt>
      <trkpt lat="48.64421" lon="-2.30938">
        <ele>24</ele>
        <time>2020-06-24T11:14:59.085Z</time>
      </trkpt>
      <trkpt lat="48.6442" lon="-2.30939">
        <ele>24</ele>
        <time>2020-06-24T11:15:00.085Z</time>
      </trkpt>
      <trkpt lat="48.64419" lon="-2.3094">
        <ele>24</ele>
        <time>2020-06-24T11:15:01.085Z</time>
      </trkpt>
      <trkpt lat="48.64418" lon="-2.30941">
        <ele>24</ele>
        <time>2020-06-24T11:15:02.085Z</time>
      </trkpt>
      <trkpt lat="48.64417" lon="-2.30942">
        <ele>24</ele>
        <time>2020-06-24T11:15:03.085Z</time>
      </trkpt>
      <trkpt lat="48.64417" lon="-2.30944">
        <ele>25</ele>
        <time>2020-06-24T11:15:04.085Z</time>
      </trkpt>
      <trkpt lat="48.64417" lon="-2.30945">
        <ele>27</ele>
        <time>2020-06-24T11:15:05.085Z</time>
      </trkpt>
      <trkpt lat="48.64416" lon="-2.30946">
        <ele>27</ele>
        <time>2020-06-24T11:15:06.085Z</time>
      </trkpt>
      <trkpt lat="48.64415" lon="-2.30947">
        <ele>27</ele>
        <time>2020-06-24T11:15:07.085Z</time>
      </trkpt>
      <trkpt lat="48.64415" lon="-2.30949">
        <ele>27</ele>
        <time>2020-06-24T11:15:08.085Z</time>
      </trkpt>
      <trkpt lat="48.64414" lon="-2.3095">
        <ele>28</ele>
        <time>2020-06-24T11:15:09.085Z</time>
      </trkpt>
      <trkpt lat="48.64413" lon="-2.30951">
        <ele>28</ele>
        <time>2020-06-24T11:15:10.085Z</time>
      </trkpt>
      <trkpt lat="48.64412" lon="-2.30952">
        <ele>28</ele>
        <time>2020-06-24T11:15:11.085Z</time>
      </trkpt>
      <trkpt lat="48.64411" lon="-2.30953">
        <ele>28</ele>
        <time>2020-06-24T11:15:12.085Z</time>
      </trkpt>
      <trkpt lat="48.6441" lon="-2.30954">
        <ele>27</ele>
        <time>2020-06-24T11:15:13.085Z</time>
      </trkpt>
      <trkpt lat="48.64409" lon="-2.30955">
        <ele>27</ele>
        <time>2020-06-24T11:15:14.085Z</time>
      </trkpt>
      <trkpt lat="48.64408" lon="-2.30956">
        <ele>27</ele>
        <time>2020-06-24T11:15:15.085Z</time>
      </trkpt>
      <trkpt lat="48.64407" lon="-2.30957">
        <ele>28</ele>
        <time>2020-06-24T11:15:16.085Z</time>
      </trkpt>
      <trkpt lat="48.64406" lon="-2.30958">
        <ele>28</ele>
        <time>2020-06-24T11:15:17.085Z</time>
      </trkpt>
      <trkpt lat="48.64405" lon="-2.3096">
        <ele>29</ele>
        <time>2020-06-24T11:15:18.085Z</time>
      </trkpt>
      <trkpt lat="48.64404" lon="-2.30962">
        <ele>28</ele>
        <time>2020-06-24T11:15:19.085Z</time>
      </trkpt>
      <trkpt lat="48.64402" lon="-2.30964">
        <ele>30</ele>
        <time>2020-06-24T11:15:20.085Z</time>
      </trkpt>
      <trkpt lat="48.64401" lon="-2.30966">
        <ele>29</ele>
        <time>2020-06-24T11:15:21.085Z</time>
      </trkpt>
      <trkpt lat="48.644" lon="-2.30967">
        <ele>30</ele>
        <time>2020-06-24T11:15:22.085Z</time>
      </trkpt>
      <trkpt lat="48.64399" lon="-2.30968">
        <ele>30</ele>
        <time>2020-06-24T11:15:23.085Z</time>
      </trkpt>
      <trkpt lat="48.64398" lon="-2.30969">
        <ele>30</ele>
        <time>2020-06-24T11:15:24.085Z</time>
      </trkpt>
      <trkpt lat="48.64397" lon="-2.30971">
        <ele>30</ele>
        <time>2020-06-24T11:15:25.085Z</time>
      </trkpt>
      <trkpt lat="48.64396" lon="-2.30972">
        <ele>29</ele>
        <time>2020-06-24T11:15:26.085Z</time>
      </trkpt>
      <trkpt lat="48.64395" lon="-2.30974">
        <ele>30</ele>
        <time>2020-06-24T11:15:27.085Z</time>
      </trkpt>
      <trkpt lat="48.64394" lon="-2.30974">
        <ele>29</ele>
        <time>2020-06-24T11:15:28.085Z</time>
      </trkpt>
      <trkpt lat="48.64393" lon="-2.30975">
        <ele>29</ele>
        <time>2020-06-24T11:15:29.085Z</time>
      </trkpt>
      <trkpt lat="48.64392" lon="-2.30976">
        <ele>30</ele>
        <time>2020-06-24T11:15:30.085Z</time>
      </trkpt>
      <trkpt lat="48.64391" lon="-2.30977">
        <ele>29</ele>
        <time>2020-06-24T11:15:31.085Z</time>
      </trkpt>
      <trkpt lat="48.6439" lon="-2.30978">
        <ele>29</ele>
        <time>2020-06-24T11:15:32.085Z</time>
      </trkpt>
      <trkpt lat="48.64389" lon="-2.30979">
        <ele>28</ele>
        <time>2020-06-24T11:15:33.085Z</time>
      </trkpt>
      <trkpt lat="48.64388" lon="-2.3098">
        <ele>29</ele>
        <time>2020-06-24T11:15:34.085Z</time>
      </trkpt>
      <trkpt lat="48.64387" lon="-2.3098">
        <ele>28</ele>
        <time>2020-06-24T11:15:35.085Z</time>
      </trkpt>
      <trkpt lat="48.64386" lon="-2.30981">
        <ele>27</ele>
        <time>2020-06-24T11:15:36.085Z</time>
      </trkpt>
      <trkpt lat="48.64385" lon="-2.30981">
        <ele>27</ele>
        <time>2020-06-24T11:15:37.085Z</time>
      </trkpt>
      <trkpt lat="48.64384" lon="-2.30982">
        <ele>26</ele>
        <time>2020-06-24T11:15:38.085Z</time>
      </trkpt>
      <trkpt lat="48.64384" lon="-2.30983">
        <ele>25</ele>
        <time>2020-06-24T11:15:39.085Z</time>
      </trkpt>
      <trkpt lat="48.64383" lon="-2.30983">
        <ele>25</ele>
        <time>2020-06-24T11:15:40.085Z</time>
      </trkpt>
      <trkpt lat="48.64382" lon="-2.30984">
        <ele>25</ele>
        <time>2020-06-24T11:15:41.085Z</time>
      </trkpt>
      <trkpt lat="48.64381" lon="-2.30985">
        <ele>25</ele>
        <time>2020-06-24T11:15:42.085Z</time>
      </trkpt>
      <trkpt lat="48.6438" lon="-2.30986">
        <ele>24</ele>
        <time>2020-06-24T11:15:43.085Z</time>
      </trkpt>
      <trkpt lat="48.64379" lon="-2.30987">
        <ele>25</ele>
        <time>2020-06-24T11:15:44.085Z</time>
      </trkpt>
      <trkpt lat="48.64378" lon="-2.30988">
        <ele>27</ele>
        <time>2020-06-24T11:15:45.085Z</time>
      </trkpt>
      <trkpt lat="48.64376" lon="-2.30989">
        <ele>26</ele>
        <time>2020-06-24T11:15:46.085Z</time>
      </trkpt>
      <trkpt lat="48.64374" lon="-2.3099">
        <ele>26</ele>
        <time>2020-06-24T11:15:47.085Z</time>
      </trkpt>
      <trkpt lat="48.64373" lon="-2.30991">
        <ele>26</ele>
        <time>2020-06-24T11:15:48.085Z</time>
      </trkpt>
      <trkpt lat="48.64372" lon="-2.30991">
        <ele>26</ele>
        <time>2020-06-24T11:15:49.085Z</time>
      </trkpt>
      <trkpt lat="48.64371" lon="-2.30992">
        <ele>25</ele>
        <time>2020-06-24T11:15:50.085Z</time>
      </trkpt>
      <trkpt lat="48.6437" lon="-2.30992">
        <ele>25</ele>
        <time>2020-06-24T11:15:51.085Z</time>
      </trkpt>
      <trkpt lat="48.64369" lon="-2.30993">
        <ele>24</ele>
        <time>2020-06-24T11:15:52.085Z</time>
      </trkpt>
      <trkpt lat="48.64368" lon="-2.30995">
        <ele>23</ele>
        <time>2020-06-24T11:15:53.085Z</time>
      </trkpt>
      <trkpt lat="48.64368" lon="-2.30996">
        <ele>22</ele>
        <time>2020-06-24T11:15:54.085Z</time>
      </trkpt>
      <trkpt lat="48.64367" lon="-2.30997">
        <ele>22</ele>
        <time>2020-06-24T11:15:55.085Z</time>
      </trkpt>
      <trkpt lat="48.64366" lon="-2.30998">
        <ele>22</ele>
        <time>2020-06-24T11:15:56.085Z</time>
      </trkpt>
      <trkpt lat="48.64365" lon="-2.30999">
        <ele>22</ele>
        <time>2020-06-24T11:15:57.085Z</time>
      </trkpt>
      <trkpt lat="48.64364" lon="-2.30999">
        <ele>20</ele>
        <time>2020-06-24T11:15:58.085Z</time>
      </trkpt>
      <trkpt lat="48.64363" lon="-2.31">
        <ele>20</ele>
        <time>2020-06-24T11:15:59.085Z</time>
      </trkpt>
      <trkpt lat="48.64362" lon="-2.30999">
        <ele>19</ele>
        <time>2020-06-24T11:16:00.085Z</time>
      </trkpt>
      <trkpt lat="48.64362" lon="-2.30999">
        <ele>19</ele>
        <time>2020-06-24T11:16:01.085Z</time>
      </trkpt>
      <trkpt lat="48.64362" lon="-2.30998">
        <ele>18</ele>
        <time>2020-06-24T11:16:02.085Z</time>
      </trkpt>
      <trkpt lat="48.64361" lon="-2.30998">
        <ele>19</ele>
        <time>2020-06-24T11:16:03.085Z</time>
      </trkpt>
      <trkpt lat="48.64361" lon="-2.30997">
        <ele>20</ele>
        <time>2020-06-24T11:16:04.085Z</time>
      </trkpt>
      <trkpt lat="48.6436" lon="-2.30996">
        <ele>21</ele>
        <time>2020-06-24T11:16:05.085Z</time>
      </trkpt>
      <trkpt lat="48.64359" lon="-2.30996">
        <ele>22</ele>
        <time>2020-06-24T11:16:06.085Z</time>
      </trkpt>
      <trkpt lat="48.64357" lon="-2.30996">
        <ele>22</ele>
        <time>2020-06-24T11:16:07.085Z</time>
      </trkpt>
      <trkpt lat="48.64356" lon="-2.30996">
        <ele>23</ele>
        <time>2020-06-24T11:16:08.085Z</time>
      </trkpt>
      <trkpt lat="48.64354" lon="-2.30996">
        <ele>22</ele>
        <time>2020-06-24T11:16:09.085Z</time>
      </trkpt>
      <trkpt lat="48.64353" lon="-2.30997">
        <ele>22</ele>
        <time>2020-06-24T11:16:10.085Z</time>
      </trkpt>
      <trkpt lat="48.64352" lon="-2.30997">
        <ele>21</ele>
        <time>2020-06-24T11:16:11.085Z</time>
      </trkpt>
      <trkpt lat="48.64351" lon="-2.30998">
        <ele>22</ele>
        <time>2020-06-24T11:16:12.085Z</time>
      </trkpt>
      <trkpt lat="48.6435" lon="-2.30999">
        <ele>22</ele>
        <time>2020-06-24T11:16:13.085Z</time>
      </trkpt>
      <trkpt lat="48.64349" lon="-2.31">
        <ele>21</ele>
        <time>2020-06-24T11:16:14.085Z</time>
      </trkpt>
      <trkpt lat="48.64349" lon="-2.31">
        <ele>21</ele>
        <time>2020-06-24T11:16:15.085Z</time>
      </trkpt>
      <trkpt lat="48.64348" lon="-2.31001">
        <ele>21</ele>
        <time>2020-06-24T11:16:16.085Z</time>
      </trkpt>
      <trkpt lat="48.64347" lon="-2.31003">
        <ele>20</ele>
        <time>2020-06-24T11:16:17.085Z</time>
      </trkpt>
      <trkpt lat="48.64346" lon="-2.31004">
        <ele>20</ele>
        <time>2020-06-24T11:16:18.085Z</time>
      </trkpt>
      <trkpt lat="48.64345" lon="-2.31005">
        <ele>19</ele>
        <time>2020-06-24T11:16:19.085Z</time>
      </trkpt>
      <trkpt lat="48.64345" lon="-2.31006">
        <ele>20</ele>
        <time>2020-06-24T11:16:20.085Z</time>
      </trkpt>
      <trkpt lat="48.64344" lon="-2.31006">
        <ele>19</ele>
        <time>2020-06-24T11:16:21.085Z</time>
      </trkpt>
      <trkpt lat="48.64344" lon="-2.31007">
        <ele>19</ele>
        <time>2020-06-24T11:16:22.085Z</time>
      </trkpt>
      <trkpt lat="48.64343" lon="-2.31007">
        <ele>19</ele>
        <time>2020-06-24T11:16:23.085Z</time>
      </trkpt>
      <trkpt lat="48.64342" lon="-2.31007">
        <ele>19</ele>
        <time>2020-06-24T11:16:24.085Z</time>
      </trkpt>
      <trkpt lat="48.64341" lon="-2.31008">
        <ele>19</ele>
        <time>2020-06-24T11:16:25.085Z</time>
      </trkpt>
      <trkpt lat="48.6434" lon="-2.31008">
        <ele>19</ele>
        <time>2020-06-24T11:16:26.085Z</time>
      </trkpt>
      <trkpt lat="48.64339" lon="-2.31008">
        <ele>18</ele>
        <time>2020-06-24T11:16:27.085Z</time>
      </trkpt>
      <trkpt lat="48.64338" lon="-2.31008">
        <ele>20</ele>
        <time>2020-06-24T11:16:28.085Z</time>
      </trkpt>
      <trkpt lat="48.64336" lon="-2.31008">
        <ele>18</ele>
        <time>2020-06-24T11:16:29.085Z</time>
      </trkpt>
      <trkpt lat="48.64335" lon="-2.31008">
        <ele>19</ele>
        <time>2020-06-24T11:16:30.085Z</time>
      </trkpt>
      <trkpt lat="48.64334" lon="-2.31009">
        <ele>18</ele>
        <time>2020-06-24T11:16:31.085Z</time>
      </trkpt>
      <trkpt lat="48.64333" lon="-2.31009">
        <ele>19</ele>
        <time>2020-06-24T11:16:32.085Z</time>
      </trkpt>
      <trkpt lat="48.64332" lon="-2.31009">
        <ele>20</ele>
        <time>2020-06-24T11:16:33.085Z</time>
      </trkpt>
      <trkpt lat="48.64331" lon="-2.31009">
        <ele>21</ele>
        <time>2020-06-24T11:16:34.085Z</time>
      </trkpt>
      <trkpt lat="48.64329" lon="-2.31009">
        <ele>20</ele>
        <time>2020-06-24T11:16:35.085Z</time>
      </trkpt>
      <trkpt lat="48.64329" lon="-2.31009">
        <ele>20</ele>
        <time>2020-06-24T11:16:36.085Z</time>
      </trkpt>
      <trkpt lat="48.64328" lon="-2.3101">
        <ele>20</ele>
        <time>2020-06-24T11:16:37.085Z</time>
      </trkpt>
      <trkpt lat="48.64327" lon="-2.3101">
        <ele>19</ele>
        <time>2020-06-24T11:16:38.085Z</time>
      </trkpt>
      <trkpt lat="48.64326" lon="-2.31012">
        <ele>20</ele>
        <time>2020-06-24T11:16:39.085Z</time>
      </trkpt>
      <trkpt lat="48.64325" lon="-2.31013">
        <ele>21</ele>
        <time>2020-06-24T11:16:40.085Z</time>
      </trkpt>
      <trkpt lat="48.64323" lon="-2.31014">
        <ele>22</ele>
        <time>2020-06-24T11:16:41.085Z</time>
      </trkpt>
      <trkpt lat="48.64322" lon="-2.31014">
        <ele>22</ele>
        <time>2020-06-24T11:16:42.085Z</time>
      </trkpt>
      <trkpt lat="48.64321" lon="-2.31013">
        <ele>22</ele>
        <time>2020-06-24T11:16:43.085Z</time>
      </trkpt>
      <trkpt lat="48.64321" lon="-2.31013">
        <ele>22</ele>
        <time>2020-06-24T11:16:44.085Z</time>
      </trkpt>
      <trkpt lat="48.6432" lon="-2.31013">
        <ele>22</ele>
        <time>2020-06-24T11:16:45.085Z</time>
      </trkpt>
      <trkpt lat="48.6432" lon="-2.31013">
        <ele>23</ele>
        <time>2020-06-24T11:16:46.085Z</time>
      </trkpt>
      <trkpt lat="48.64319" lon="-2.31013">
        <ele>23</ele>
        <time>2020-06-24T11:16:47.085Z</time>
      </trkpt>
      <trkpt lat="48.64318" lon="-2.31013">
        <ele>23</ele>
        <time>2020-06-24T11:16:48.085Z</time>
      </trkpt>
      <trkpt lat="48.64317" lon="-2.31013">
        <ele>23</ele>
        <time>2020-06-24T11:16:49.085Z</time>
      </trkpt>
      <trkpt lat="48.64316" lon="-2.31013">
        <ele>24</ele>
        <time>2020-06-24T11:16:50.085Z</time>
      </trkpt>
      <trkpt lat="48.64315" lon="-2.31012">
        <ele>23</ele>
        <time>2020-06-24T11:16:51.085Z</time>
      </trkpt>
      <trkpt lat="48.64315" lon="-2.31012">
        <ele>22</ele>
        <time>2020-06-24T11:16:52.085Z</time>
      </trkpt>
      <trkpt lat="48.64314" lon="-2.31012">
        <ele>22</ele>
        <time>2020-06-24T11:16:53.085Z</time>
      </trkpt>
      <trkpt lat="48.64313" lon="-2.31012">
        <ele>22</ele>
        <time>2020-06-24T11:16:54.085Z</time>
      </trkpt>
      <trkpt lat="48.64311" lon="-2.31012">
        <ele>22</ele>
        <time>2020-06-24T11:16:55.085Z</time>
      </trkpt>
      <trkpt lat="48.64311" lon="-2.31012">
        <ele>21</ele>
        <time>2020-06-24T11:16:56.085Z</time>
      </trkpt>
      <trkpt lat="48.6431" lon="-2.31013">
        <ele>21</ele>
        <time>2020-06-24T11:16:57.085Z</time>
      </trkpt>
      <trkpt lat="48.64309" lon="-2.31013">
        <ele>20</ele>
        <time>2020-06-24T11:16:58.085Z</time>
      </trkpt>
      <trkpt lat="48.64308" lon="-2.31014">
        <ele>21</ele>
        <time>2020-06-24T11:16:59.085Z</time>
      </trkpt>
      <trkpt lat="48.64308" lon="-2.31014">
        <ele>20</ele>
        <time>2020-06-24T11:17:00.085Z</time>
      </trkpt>
      <trkpt lat="48.64307" lon="-2.31014">
        <ele>19</ele>
        <time>2020-06-24T11:17:01.085Z</time>
      </trkpt>
      <trkpt lat="48.64307" lon="-2.31015">
        <ele>19</ele>
        <time>2020-06-24T11:17:02.085Z</time>
      </trkpt>
      <trkpt lat="48.64306" lon="-2.31015">
        <ele>19</ele>
        <time>2020-06-24T11:17:03.085Z</time>
      </trkpt>
      <trkpt lat="48.64305" lon="-2.31015">
        <ele>18</ele>
        <time>2020-06-24T11:17:04.085Z</time>
      </trkpt>
      <trkpt lat="48.64304" lon="-2.31015">
        <ele>18</ele>
        <time>2020-06-24T11:17:05.085Z</time>
      </trkpt>
      <trkpt lat="48.64304" lon="-2.31016">
        <ele>19</ele>
        <time>2020-06-24T11:17:06.085Z</time>
      </trkpt>
      <trkpt lat="48.64303" lon="-2.31017">
        <ele>18</ele>
        <time>2020-06-24T11:17:07.085Z</time>
      </trkpt>
      <trkpt lat="48.64302" lon="-2.31018">
        <ele>18</ele>
        <time>2020-06-24T11:17:08.085Z</time>
      </trkpt>
      <trkpt lat="48.643" lon="-2.31019">
        <ele>19</ele>
        <time>2020-06-24T11:17:09.085Z</time>
      </trkpt>
      <trkpt lat="48.64299" lon="-2.31019">
        <ele>18</ele>
        <time>2020-06-24T11:17:10.085Z</time>
      </trkpt>
      <trkpt lat="48.64297" lon="-2.31019">
        <ele>20</ele>
        <time>2020-06-24T11:17:11.085Z</time>
      </trkpt>
      <trkpt lat="48.64295" lon="-2.31019">
        <ele>21</ele>
        <time>2020-06-24T11:17:12.085Z</time>
      </trkpt>
      <trkpt lat="48.64293" lon="-2.31018">
        <ele>21</ele>
        <time>2020-06-24T11:17:13.085Z</time>
      </trkpt>
      <trkpt lat="48.64292" lon="-2.31019">
        <ele>21</ele>
        <time>2020-06-24T11:17:14.085Z</time>
      </trkpt>
      <trkpt lat="48.64291" lon="-2.31019">
        <ele>22</ele>
        <time>2020-06-24T11:17:15.085Z</time>
      </trkpt>
      <trkpt lat="48.64289" lon="-2.31019">
        <ele>22</ele>
        <time>2020-06-24T11:17:16.085Z</time>
      </trkpt>
      <trkpt lat="48.64287" lon="-2.31019">
        <ele>22</ele>
        <time>2020-06-24T11:17:17.085Z</time>
      </trkpt>
      <trkpt lat="48.64286" lon="-2.3102">
        <ele>21</ele>
        <time>2020-06-24T11:17:18.085Z</time>
      </trkpt>
      <trkpt lat="48.64285" lon="-2.31019">
        <ele>21</ele>
        <time>2020-06-24T11:17:19.085Z</time>
      </trkpt>
      <trkpt lat="48.64283" lon="-2.31019">
        <ele>21</ele>
        <time>2020-06-24T11:17:20.085Z</time>
      </trkpt>
      <trkpt lat="48.64282" lon="-2.31019">
        <ele>21</ele>
        <time>2020-06-24T11:17:21.085Z</time>
      </trkpt>
      <trkpt lat="48.64281" lon="-2.31019">
        <ele>21</ele>
        <time>2020-06-24T11:17:22.085Z</time>
      </trkpt>
      <trkpt lat="48.6428" lon="-2.3102">
        <ele>21</ele>
        <time>2020-06-24T11:17:23.085Z</time>
      </trkpt>
      <trkpt lat="48.64279" lon="-2.3102">
        <ele>22</ele>
        <time>2020-06-24T11:17:24.085Z</time>
      </trkpt>
      <trkpt lat="48.64278" lon="-2.31021">
        <ele>22</ele>
        <time>2020-06-24T11:17:25.085Z</time>
      </trkpt>
      <trkpt lat="48.64278" lon="-2.31021">
        <ele>23</ele>
        <time>2020-06-24T11:17:26.085Z</time>
      </trkpt>
      <trkpt lat="48.64277" lon="-2.31022">
        <ele>23</ele>
        <time>2020-06-24T11:17:27.085Z</time>
      </trkpt>
      <trkpt lat="48.64277" lon="-2.31023">
        <ele>24</ele>
        <time>2020-06-24T11:17:28.085Z</time>
      </trkpt>
      <trkpt lat="48.64276" lon="-2.31023">
        <ele>24</ele>
        <time>2020-06-24T11:17:29.085Z</time>
      </trkpt>
      <trkpt lat="48.64275" lon="-2.31024">
        <ele>25</ele>
        <time>2020-06-24T11:17:30.085Z</time>
      </trkpt>
      <trkpt lat="48.64275" lon="-2.31024">
        <ele>24</ele>
        <time>2020-06-24T11:17:31.085Z</time>
      </trkpt>
      <trkpt lat="48.64274" lon="-2.31025">
        <ele>25</ele>
        <time>2020-06-24T11:17:32.085Z</time>
      </trkpt>
      <trkpt lat="48.64273" lon="-2.31025">
        <ele>24</ele>
        <time>2020-06-24T11:17:33.085Z</time>
      </trkpt>
      <trkpt lat="48.64273" lon="-2.31026">
        <ele>24</ele>
        <time>2020-06-24T11:17:34.085Z</time>
      </trkpt>
      <trkpt lat="48.64272" lon="-2.31026">
        <ele>25</ele>
        <time>2020-06-24T11:17:35.085Z</time>
      </trkpt>
      <trkpt lat="48.64272" lon="-2.31026">
        <ele>26</ele>
        <time>2020-06-24T11:17:36.085Z</time>
      </trkpt>
      <trkpt lat="48.64271" lon="-2.31027">
        <ele>25</ele>
        <time>2020-06-24T11:17:37.085Z</time>
      </trkpt>
      <trkpt lat="48.64271" lon="-2.31028">
        <ele>26</ele>
        <time>2020-06-24T11:17:38.085Z</time>
      </trkpt>
      <trkpt lat="48.6427" lon="-2.31029">
        <ele>26</ele>
        <time>2020-06-24T11:17:39.085Z</time>
      </trkpt>
      <trkpt lat="48.6427" lon="-2.3103">
        <ele>26</ele>
        <time>2020-06-24T11:17:40.085Z</time>
      </trkpt>
      <trkpt lat="48.64269" lon="-2.3103">
        <ele>27</ele>
        <time>2020-06-24T11:17:41.085Z</time>
      </trkpt>
      <trkpt lat="48.64268" lon="-2.31031">
        <ele>26</ele>
        <time>2020-06-24T11:17:42.085Z</time>
      </trkpt>
      <trkpt lat="48.64268" lon="-2.31032">
        <ele>26</ele>
        <time>2020-06-24T11:17:43.085Z</time>
      </trkpt>
      <trkpt lat="48.64268" lon="-2.31033">
        <ele>26</ele>
        <time>2020-06-24T11:17:44.085Z</time>
      </trkpt>
      <trkpt lat="48.64268" lon="-2.31034">
        <ele>26</ele>
        <time>2020-06-24T11:17:45.085Z</time>
      </trkpt>
      <trkpt lat="48.64268" lon="-2.31035">
        <ele>26</ele>
        <time>2020-06-24T11:17:46.085Z</time>
      </trkpt>
      <trkpt lat="48.64268" lon="-2.31036">
        <ele>25</ele>
        <time>2020-06-24T11:17:47.085Z</time>
      </trkpt>
      <trkpt lat="48.64267" lon="-2.31036">
        <ele>25</ele>
        <time>2020-06-24T11:17:48.085Z</time>
      </trkpt>
      <trkpt lat="48.64266" lon="-2.31037">
        <ele>25</ele>
        <time>2020-06-24T11:17:49.085Z</time>
      </trkpt>
      <trkpt lat="48.64265" lon="-2.31038">
        <ele>24</ele>
        <time>2020-06-24T11:17:50.085Z</time>
      </trkpt>
      <trkpt lat="48.64265" lon="-2.31038">
        <ele>24</ele>
        <time>2020-06-24T11:17:51.085Z</time>
      </trkpt>
      <trkpt lat="48.64264" lon="-2.31039">
        <ele>24</ele>
        <time>2020-06-24T11:17:52.085Z</time>
      </trkpt>
      <trkpt lat="48.64262" lon="-2.3104">
        <ele>24</ele>
        <time>2020-06-24T11:17:53.085Z</time>
      </trkpt>
      <trkpt lat="48.6426" lon="-2.31041">
        <ele>24</ele>
        <time>2020-06-24T11:17:54.085Z</time>
      </trkpt>
      <trkpt lat="48.64258" lon="-2.31042">
        <ele>25</ele>
        <time>2020-06-24T11:17:55.085Z</time>
      </trkpt>
      <trkpt lat="48.64256" lon="-2.31042">
        <ele>25</ele>
        <time>2020-06-24T11:17:56.085Z</time>
      </trkpt>
      <trkpt lat="48.64255" lon="-2.31043">
        <ele>25</ele>
        <time>2020-06-24T11:17:57.085Z</time>
      </trkpt>
      <trkpt lat="48.64254" lon="-2.31043">
        <ele>25</ele>
        <time>2020-06-24T11:17:58.085Z</time>
      </trkpt>
      <trkpt lat="48.64252" lon="-2.31044">
        <ele>25</ele>
        <time>2020-06-24T11:17:59.085Z</time>
      </trkpt>
      <trkpt lat="48.64251" lon="-2.31044">
        <ele>26</ele>
        <time>2020-06-24T11:18:00.085Z</time>
      </trkpt>
      <trkpt lat="48.6425" lon="-2.31044">
        <ele>24</ele>
        <time>2020-06-24T11:18:01.085Z</time>
      </trkpt>
      <trkpt lat="48.6425" lon="-2.31045">
        <ele>25</ele>
        <time>2020-06-24T11:18:02.085Z</time>
      </trkpt>
      <trkpt lat="48.64249" lon="-2.31045">
        <ele>25</ele>
        <time>2020-06-24T11:18:03.085Z</time>
      </trkpt>
      <trkpt lat="48.64248" lon="-2.31046">
        <ele>25</ele>
        <time>2020-06-24T11:18:04.085Z</time>
      </trkpt>
      <trkpt lat="48.64247" lon="-2.31047">
        <ele>25</ele>
        <time>2020-06-24T11:18:05.085Z</time>
      </trkpt>
      <trkpt lat="48.64246" lon="-2.31047">
        <ele>26</ele>
        <time>2020-06-24T11:18:06.085Z</time>
      </trkpt>
      <trkpt lat="48.64245" lon="-2.31047">
        <ele>26</ele>
        <time>2020-06-24T11:18:07.085Z</time>
      </trkpt>
      <trkpt lat="48.64243" lon="-2.31048">
        <ele>25</ele>
        <time>2020-06-24T11:18:08.085Z</time>
      </trkpt>
      <trkpt lat="48.64242" lon="-2.31049">
        <ele>26</ele>
        <time>2020-06-24T11:18:09.085Z</time>
      </trkpt>
      <trkpt lat="48.64241" lon="-2.3105">
        <ele>27</ele>
        <time>2020-06-24T11:18:10.085Z</time>
      </trkpt>
      <trkpt lat="48.6424" lon="-2.31051">
        <ele>28</ele>
        <time>2020-06-24T11:18:11.085Z</time>
      </trkpt>
      <trkpt lat="48.6424" lon="-2.31052">
        <ele>27</ele>
        <time>2020-06-24T11:18:12.085Z</time>
      </trkpt>
      <trkpt lat="48.64239" lon="-2.31053">
        <ele>27</ele>
        <time>2020-06-24T11:18:13.085Z</time>
      </trkpt>
      <trkpt lat="48.64239" lon="-2.31054">
        <ele>27</ele>
        <time>2020-06-24T11:18:14.085Z</time>
      </trkpt>
      <trkpt lat="48.64239" lon="-2.31054">
        <ele>28</ele>
        <time>2020-06-24T11:18:15.085Z</time>
      </trkpt>
      <trkpt lat="48.64239" lon="-2.31055">
        <ele>28</ele>
        <time>2020-06-24T11:18:16.085Z</time>
      </trkpt>
      <trkpt lat="48.64239" lon="-2.31056">
        <ele>28</ele>
        <time>2020-06-24T11:18:17.085Z</time>
      </trkpt>
      <trkpt lat="48.64238" lon="-2.31057">
        <ele>29</ele>
        <time>2020-06-24T11:18:18.085Z</time>
      </trkpt>
      <trkpt lat="48.64238" lon="-2.31058">
        <ele>29</ele>
        <time>2020-06-24T11:18:19.085Z</time>
      </trkpt>
      <trkpt lat="48.64237" lon="-2.31059">
        <ele>29</ele>
        <time>2020-06-24T11:18:20.085Z</time>
      </trkpt>
      <trkpt lat="48.64236" lon="-2.3106">
        <ele>29</ele>
        <time>2020-06-24T11:18:21.085Z</time>
      </trkpt>
      <trkpt lat="48.64236" lon="-2.31061">
        <ele>30</ele>
        <time>2020-06-24T11:18:22.085Z</time>
      </trkpt>
      <trkpt lat="48.64235" lon="-2.31062">
        <ele>29</ele>
        <time>2020-06-24T11:18:23.085Z</time>
      </trkpt>
      <trkpt lat="48.64235" lon="-2.31063">
        <ele>29</ele>
        <time>2020-06-24T11:18:24.085Z</time>
      </trkpt>
      <trkpt lat="48.64233" lon="-2.31064">
        <ele>31</ele>
        <time>2020-06-24T11:18:25.085Z</time>
      </trkpt>
      <trkpt lat="48.64232" lon="-2.31065">
        <ele>30</ele>
        <time>2020-06-24T11:18:26.085Z</time>
      </trkpt>
      <trkpt lat="48.64231" lon="-2.31066">
        <ele>31</ele>
        <time>2020-06-24T11:18:27.085Z</time>
      </trkpt>
      <trkpt lat="48.6423" lon="-2.31066">
        <ele>31</ele>
        <time>2020-06-24T11:18:28.085Z</time>
      </trkpt>
      <trkpt lat="48.64229" lon="-2.31067">
        <ele>31</ele>
        <time>2020-06-24T11:18:29.085Z</time>
      </trkpt>
      <trkpt lat="48.64228" lon="-2.31067">
        <ele>31</ele>
        <time>2020-06-24T11:18:30.085Z</time>
      </trkpt>
      <trkpt lat="48.64227" lon="-2.31068">
        <ele>31</ele>
        <time>2020-06-24T11:18:31.085Z</time>
      </trkpt>
      <trkpt lat="48.64226" lon="-2.31068">
        <ele>30</ele>
        <time>2020-06-24T11:18:32.085Z</time>
      </trkpt>
      <trkpt lat="48.64225" lon="-2.31069">
        <ele>31</ele>
        <time>2020-06-24T11:18:33.085Z</time>
      </trkpt>
      <trkpt lat="48.64223" lon="-2.31069">
        <ele>31</ele>
        <time>2020-06-24T11:18:34.085Z</time>
      </trkpt>
      <trkpt lat="48.64222" lon="-2.31069">
        <ele>31</ele>
        <time>2020-06-24T11:18:35.085Z</time>
      </trkpt>
      <trkpt lat="48.64221" lon="-2.31069">
        <ele>31</ele>
        <time>2020-06-24T11:18:36.085Z</time>
      </trkpt>
      <trkpt lat="48.6422" lon="-2.3107">
        <ele>31</ele>
        <time>2020-06-24T11:18:37.085Z</time>
      </trkpt>
      <trkpt lat="48.6422" lon="-2.3107">
        <ele>32</ele>
        <time>2020-06-24T11:18:38.085Z</time>
      </trkpt>
      <trkpt lat="48.64219" lon="-2.31071">
        <ele>32</ele>
        <time>2020-06-24T11:18:39.085Z</time>
      </trkpt>
      <trkpt lat="48.64218" lon="-2.31072">
        <ele>30</ele>
        <time>2020-06-24T11:18:40.085Z</time>
      </trkpt>
      <trkpt lat="48.64217" lon="-2.31073">
        <ele>29</ele>
        <time>2020-06-24T11:18:41.085Z</time>
      </trkpt>
      <trkpt lat="48.64216" lon="-2.31074">
        <ele>29</ele>
        <time>2020-06-24T11:18:42.085Z</time>
      </trkpt>
      <trkpt lat="48.64215" lon="-2.31075">
        <ele>29</ele>
        <time>2020-06-24T11:18:43.085Z</time>
      </trkpt>
      <trkpt lat="48.64214" lon="-2.31075">
        <ele>28</ele>
        <time>2020-06-24T11:18:44.085Z</time>
      </trkpt>
      <trkpt lat="48.64214" lon="-2.31075">
        <ele>29</ele>
        <time>2020-06-24T11:18:45.085Z</time>
      </trkpt>
      <trkpt lat="48.64213" lon="-2.31076">
        <ele>27</ele>
        <time>2020-06-24T11:18:46.085Z</time>
      </trkpt>
      <trkpt lat="48.64212" lon="-2.31076">
        <ele>26</ele>
        <time>2020-06-24T11:18:47.085Z</time>
      </trkpt>
      <trkpt lat="48.6421" lon="-2.31075">
        <ele>25</ele>
        <time>2020-06-24T11:18:48.085Z</time>
      </trkpt>
      <trkpt lat="48.64209" lon="-2.31075">
        <ele>26</ele>
        <time>2020-06-24T11:18:49.085Z</time>
      </trkpt>
      <trkpt lat="48.64208" lon="-2.31074">
        <ele>26</ele>
        <time>2020-06-24T11:18:50.085Z</time>
      </trkpt>
      <trkpt lat="48.64207" lon="-2.31074">
        <ele>27</ele>
        <time>2020-06-24T11:18:51.085Z</time>
      </trkpt>
      <trkpt lat="48.64206" lon="-2.31073">
        <ele>26</ele>
        <time>2020-06-24T11:18:52.085Z</time>
      </trkpt>
      <trkpt lat="48.64205" lon="-2.31073">
        <ele>26</ele>
        <time>2020-06-24T11:18:53.085Z</time>
      </trkpt>
      <trkpt lat="48.64204" lon="-2.31073">
        <ele>25</ele>
        <time>2020-06-24T11:18:54.085Z</time>
      </trkpt>
      <trkpt lat="48.64203" lon="-2.31073">
        <ele>24</ele>
        <time>2020-06-24T11:18:55.085Z</time>
      </trkpt>
      <trkpt lat="48.64201" lon="-2.31072">
        <ele>26</ele>
        <time>2020-06-24T11:18:56.085Z</time>
      </trkpt>
      <trkpt lat="48.642" lon="-2.31072">
        <ele>24</ele>
        <time>2020-06-24T11:18:57.085Z</time>
      </trkpt>
      <trkpt lat="48.64199" lon="-2.31072">
        <ele>23</ele>
        <time>2020-06-24T11:18:58.085Z</time>
      </trkpt>
      <trkpt lat="48.64198" lon="-2.31072">
        <ele>23</ele>
        <time>2020-06-24T11:18:59.085Z</time>
      </trkpt>
      <trkpt lat="48.64197" lon="-2.31071">
        <ele>23</ele>
        <time>2020-06-24T11:19:00.085Z</time>
      </trkpt>
      <trkpt lat="48.64196" lon="-2.3107">
        <ele>23</ele>
        <time>2020-06-24T11:19:01.085Z</time>
      </trkpt>
      <trkpt lat="48.64195" lon="-2.3107">
        <ele>22</ele>
        <time>2020-06-24T11:19:02.085Z</time>
      </trkpt>
      <trkpt lat="48.64194" lon="-2.31069">
        <ele>21</ele>
        <time>2020-06-24T11:19:03.085Z</time>
      </trkpt>
      <trkpt lat="48.64193" lon="-2.31069">
        <ele>21</ele>
        <time>2020-06-24T11:19:04.085Z</time>
      </trkpt>
      <trkpt lat="48.64192" lon="-2.31069">
        <ele>21</ele>
        <time>2020-06-24T11:19:05.085Z</time>
      </trkpt>
      <trkpt lat="48.6419" lon="-2.31068">
        <ele>21</ele>
        <time>2020-06-24T11:19:06.085Z</time>
      </trkpt>
      <trkpt lat="48.64189" lon="-2.31067">
        <ele>20</ele>
        <time>2020-06-24T11:19:07.085Z</time>
      </trkpt>
      <trkpt lat="48.64188" lon="-2.31067">
        <ele>19</ele>
        <time>2020-06-24T11:19:08.085Z</time>
      </trkpt>
      <trkpt lat="48.64187" lon="-2.31066">
        <ele>19</ele>
        <time>2020-06-24T11:19:09.085Z</time>
      </trkpt>
      <trkpt lat="48.64186" lon="-2.31066">
        <ele>19</ele>
        <time>2020-06-24T11:19:10.085Z</time>
      </trkpt>
      <trkpt lat="48.64185" lon="-2.31065">
        <ele>19</ele>
        <time>2020-06-24T11:19:11.085Z</time>
      </trkpt>
      <trkpt lat="48.64184" lon="-2.31065">
        <ele>18</ele>
        <time>2020-06-24T11:19:12.085Z</time>
      </trkpt>
      <trkpt lat="48.64183" lon="-2.31064">
        <ele>19</ele>
        <time>2020-06-24T11:19:13.085Z</time>
      </trkpt>
      <trkpt lat="48.64182" lon="-2.31064">
        <ele>19</ele>
        <time>2020-06-24T11:19:14.085Z</time>
      </trkpt>
      <trkpt lat="48.64181" lon="-2.31062">
        <ele>18</ele>
        <time>2020-06-24T11:19:15.085Z</time>
      </trkpt>
      <trkpt lat="48.6418" lon="-2.31061">
        <ele>18</ele>
        <time>2020-06-24T11:19:16.085Z</time>
      </trkpt>
      <trkpt lat="48.64179" lon="-2.31061">
        <ele>17</ele>
        <time>2020-06-24T11:19:17.085Z</time>
      </trkpt>
      <trkpt lat="48.64178" lon="-2.3106">
        <ele>16</ele>
        <time>2020-06-24T11:19:18.085Z</time>
      </trkpt>
      <trkpt lat="48.64177" lon="-2.31059">
        <ele>16</ele>
        <time>2020-06-24T11:19:19.085Z</time>
      </trkpt>
      <trkpt lat="48.64176" lon="-2.31059">
        <ele>16</ele>
        <time>2020-06-24T11:19:20.085Z</time>
      </trkpt>
      <trkpt lat="48.64175" lon="-2.31058">
        <ele>15</ele>
        <time>2020-06-24T11:19:21.085Z</time>
      </trkpt>
      <trkpt lat="48.64175" lon="-2.31057">
        <ele>14</ele>
        <time>2020-06-24T11:19:22.085Z</time>
      </trkpt>
      <trkpt lat="48.64173" lon="-2.31057">
        <ele>15</ele>
        <time>2020-06-24T11:19:23.085Z</time>
      </trkpt>
      <trkpt lat="48.64172" lon="-2.31056">
        <ele>15</ele>
        <time>2020-06-24T11:19:24.085Z</time>
      </trkpt>
      <trkpt lat="48.64172" lon="-2.31055">
        <ele>12</ele>
        <time>2020-06-24T11:19:25.085Z</time>
      </trkpt>
      <trkpt lat="48.64172" lon="-2.31054">
        <ele>11</ele>
        <time>2020-06-24T11:19:26.085Z</time>
      </trkpt>
      <trkpt lat="48.64171" lon="-2.31053">
        <ele>11</ele>
        <time>2020-06-24T11:19:27.085Z</time>
      </trkpt>
      <trkpt lat="48.6417" lon="-2.31053">
        <ele>11</ele>
        <time>2020-06-24T11:19:28.085Z</time>
      </trkpt>
      <trkpt lat="48.64169" lon="-2.31052">
        <ele>10</ele>
        <time>2020-06-24T11:19:29.085Z</time>
      </trkpt>
      <trkpt lat="48.64168" lon="-2.31051">
        <ele>11</ele>
        <time>2020-06-24T11:19:30.085Z</time>
      </trkpt>
      <trkpt lat="48.64167" lon="-2.31051">
        <ele>11</ele>
        <time>2020-06-24T11:19:31.085Z</time>
      </trkpt>
      <trkpt lat="48.64165" lon="-2.3105">
        <ele>11</ele>
        <time>2020-06-24T11:19:32.085Z</time>
      </trkpt>
      <trkpt lat="48.64164" lon="-2.3105">
        <ele>10</ele>
        <time>2020-06-24T11:19:33.085Z</time>
      </trkpt>
      <trkpt lat="48.64163" lon="-2.31049">
        <ele>10</ele>
        <time>2020-06-24T11:19:34.085Z</time>
      </trkpt>
      <trkpt lat="48.64162" lon="-2.31049">
        <ele>10</ele>
        <time>2020-06-24T11:19:35.085Z</time>
      </trkpt>
      <trkpt lat="48.6416" lon="-2.31048">
        <ele>11</ele>
        <time>2020-06-24T11:19:36.085Z</time>
      </trkpt>
      <trkpt lat="48.64159" lon="-2.31048">
        <ele>12</ele>
        <time>2020-06-24T11:19:37.085Z</time>
      </trkpt>
      <trkpt lat="48.64157" lon="-2.31048">
        <ele>11</ele>
        <time>2020-06-24T11:19:38.085Z</time>
      </trkpt>
      <trkpt lat="48.64156" lon="-2.31047">
        <ele>12</ele>
        <time>2020-06-24T11:19:39.085Z</time>
      </trkpt>
      <trkpt lat="48.64155" lon="-2.31047">
        <ele>12</ele>
        <time>2020-06-24T11:19:40.085Z</time>
      </trkpt>
      <trkpt lat="48.64153" lon="-2.31045">
        <ele>16</ele>
        <time>2020-06-24T11:19:41.085Z</time>
      </trkpt>
      <trkpt lat="48.64151" lon="-2.31042">
        <ele>18</ele>
        <time>2020-06-24T11:19:42.085Z</time>
      </trkpt>
      <trkpt lat="48.64149" lon="-2.3104">
        <ele>19</ele>
        <time>2020-06-24T11:19:43.085Z</time>
      </trkpt>
      <trkpt lat="48.64147" lon="-2.31039">
        <ele>19</ele>
        <time>2020-06-24T11:19:44.085Z</time>
      </trkpt>
      <trkpt lat="48.64146" lon="-2.31038">
        <ele>19</ele>
        <time>2020-06-24T11:19:45.085Z</time>
      </trkpt>
      <trkpt lat="48.64144" lon="-2.31037">
        <ele>19</ele>
        <time>2020-06-24T11:19:46.085Z</time>
      </trkpt>
      <trkpt lat="48.64143" lon="-2.31036">
        <ele>19</ele>
        <time>2020-06-24T11:19:47.085Z</time>
      </trkpt>
      <trkpt lat="48.64142" lon="-2.31035">
        <ele>18</ele>
        <time>2020-06-24T11:19:48.085Z</time>
      </trkpt>
      <trkpt lat="48.64141" lon="-2.31034">
        <ele>18</ele>
        <time>2020-06-24T11:19:49.085Z</time>
      </trkpt>
      <trkpt lat="48.6414" lon="-2.31033">
        <ele>19</ele>
        <time>2020-06-24T11:19:50.085Z</time>
      </trkpt>
      <trkpt lat="48.64139" lon="-2.31032">
        <ele>19</ele>
        <time>2020-06-24T11:19:51.085Z</time>
      </trkpt>
      <trkpt lat="48.64138" lon="-2.31031">
        <ele>19</ele>
        <time>2020-06-24T11:19:52.085Z</time>
      </trkpt>
      <trkpt lat="48.64137" lon="-2.31029">
        <ele>19</ele>
        <time>2020-06-24T11:19:53.085Z</time>
      </trkpt>
      <trkpt lat="48.64136" lon="-2.31028">
        <ele>19</ele>
        <time>2020-06-24T11:19:54.085Z</time>
      </trkpt>
      <trkpt lat="48.64135" lon="-2.31026">
        <ele>18</ele>
        <time>2020-06-24T11:19:55.085Z</time>
      </trkpt>
      <trkpt lat="48.64134" lon="-2.31025">
        <ele>19</ele>
        <time>2020-06-24T11:19:56.085Z</time>
      </trkpt>
      <trkpt lat="48.64133" lon="-2.31024">
        <ele>20</ele>
        <time>2020-06-24T11:19:57.085Z</time>
      </trkpt>
      <trkpt lat="48.64132" lon="-2.31023">
        <ele>20</ele>
        <time>2020-06-24T11:19:58.085Z</time>
      </trkpt>
      <trkpt lat="48.64132" lon="-2.31022">
        <ele>20</ele>
        <time>2020-06-24T11:19:59.085Z</time>
      </trkpt>
      <trkpt lat="48.64131" lon="-2.31021">
        <ele>19</ele>
        <time>2020-06-24T11:20:00.085Z</time>
      </trkpt>
      <trkpt lat="48.6413" lon="-2.3102">
        <ele>19</ele>
        <time>2020-06-24T11:20:01.085Z</time>
      </trkpt>
      <trkpt lat="48.64129" lon="-2.31019">
        <ele>19</ele>
        <time>2020-06-24T11:20:02.085Z</time>
      </trkpt>
      <trkpt lat="48.64128" lon="-2.31018">
        <ele>19</ele>
        <time>2020-06-24T11:20:03.085Z</time>
      </trkpt>
      <trkpt lat="48.64128" lon="-2.31017">
        <ele>19</ele>
        <time>2020-06-24T11:20:04.085Z</time>
      </trkpt>
      <trkpt lat="48.64127" lon="-2.31017">
        <ele>18</ele>
        <time>2020-06-24T11:20:05.085Z</time>
      </trkpt>
      <trkpt lat="48.64126" lon="-2.31016">
        <ele>16</ele>
        <time>2020-06-24T11:20:06.085Z</time>
      </trkpt>
      <trkpt lat="48.64125" lon="-2.31015">
        <ele>15</ele>
        <time>2020-06-24T11:20:07.085Z</time>
      </trkpt>
      <trkpt lat="48.64124" lon="-2.31014">
        <ele>14</ele>
        <time>2020-06-24T11:20:08.085Z</time>
      </trkpt>
      <trkpt lat="48.64122" lon="-2.31013">
        <ele>13</ele>
        <time>2020-06-24T11:20:09.085Z</time>
      </trkpt>
      <trkpt lat="48.64122" lon="-2.31012">
        <ele>13</ele>
        <time>2020-06-24T11:20:10.085Z</time>
      </trkpt>
      <trkpt lat="48.64121" lon="-2.31011">
        <ele>11</ele>
        <time>2020-06-24T11:20:11.085Z</time>
      </trkpt>
      <trkpt lat="48.6412" lon="-2.31011">
        <ele>11</ele>
        <time>2020-06-24T11:20:12.085Z</time>
      </trkpt>
      <trkpt lat="48.64119" lon="-2.3101">
        <ele>10</ele>
        <time>2020-06-24T11:20:13.085Z</time>
      </trkpt>
      <trkpt lat="48.6412" lon="-2.31008">
        <ele>8</ele>
        <time>2020-06-24T11:20:14.085Z</time>
      </trkpt>
      <trkpt lat="48.6412" lon="-2.31007">
        <ele>7</ele>
        <time>2020-06-24T11:20:15.085Z</time>
      </trkpt>
      <trkpt lat="48.64121" lon="-2.31006">
        <ele>6</ele>
        <time>2020-06-24T11:20:16.085Z</time>
      </trkpt>
      <trkpt lat="48.64121" lon="-2.31006">
        <ele>6</ele>
        <time>2020-06-24T11:20:17.085Z</time>
      </trkpt>
      <trkpt lat="48.64121" lon="-2.31006">
        <ele>6</ele>
        <time>2020-06-24T11:20:18.085Z</time>
      </trkpt>
      <trkpt lat="48.64121" lon="-2.31007">
        <ele>5</ele>
        <time>2020-06-24T11:20:19.085Z</time>
      </trkpt>
      <trkpt lat="48.64121" lon="-2.31008">
        <ele>5</ele>
        <time>2020-06-24T11:20:20.085Z</time>
      </trkpt>
      <trkpt lat="48.64121" lon="-2.31008">
        <ele>6</ele>
        <time>2020-06-24T11:20:21.085Z</time>
      </trkpt>
      <trkpt lat="48.64121" lon="-2.31009">
        <ele>6</ele>
        <time>2020-06-24T11:20:22.085Z</time>
      </trkpt>
      <trkpt lat="48.6412" lon="-2.3101">
        <ele>6</ele>
        <time>2020-06-24T11:20:23.085Z</time>
      </trkpt>
      <trkpt lat="48.6412" lon="-2.3101">
        <ele>7</ele>
        <time>2020-06-24T11:20:24.085Z</time>
      </trkpt>
      <trkpt lat="48.6412" lon="-2.3101">
        <ele>8</ele>
        <time>2020-06-24T11:20:25.085Z</time>
      </trkpt>
      <trkpt lat="48.6412" lon="-2.31009">
        <ele>8</ele>
        <time>2020-06-24T11:20:26.085Z</time>
      </trkpt>
      <trkpt lat="48.64119" lon="-2.31009">
        <ele>7</ele>
        <time>2020-06-24T11:20:27.085Z</time>
      </trkpt>
      <trkpt lat="48.6412" lon="-2.31008">
        <ele>7</ele>
        <time>2020-06-24T11:20:28.085Z</time>
      </trkpt>
      <trkpt lat="48.6412" lon="-2.31007">
        <ele>7</ele>
        <time>2020-06-24T11:20:29.085Z</time>
      </trkpt>
      <trkpt lat="48.64121" lon="-2.31007">
        <ele>7</ele>
        <time>2020-06-24T11:20:30.085Z</time>
      </trkpt>
      <trkpt lat="48.64121" lon="-2.31006">
        <ele>6</ele>
        <time>2020-06-24T11:20:31.085Z</time>
      </trkpt>
      <trkpt lat="48.64122" lon="-2.31005">
        <ele>8</ele>
        <time>2020-06-24T11:20:32.085Z</time>
      </trkpt>
      <trkpt lat="48.64122" lon="-2.31003">
        <ele>8</ele>
        <time>2020-06-24T11:20:33.085Z</time>
      </trkpt>
      <trkpt lat="48.64122" lon="-2.31001">
        <ele>8</ele>
        <time>2020-06-24T11:20:34.085Z</time>
      </trkpt>
      <trkpt lat="48.64122" lon="-2.30999">
        <ele>8</ele>
        <time>2020-06-24T11:20:35.085Z</time>
      </trkpt>
      <trkpt lat="48.64121" lon="-2.30998">
        <ele>8</ele>
        <time>2020-06-24T11:20:36.085Z</time>
      </trkpt>
      <trkpt lat="48.64121" lon="-2.30997">
        <ele>7</ele>
        <time>2020-06-24T11:20:37.085Z</time>
      </trkpt>
      <trkpt lat="48.64121" lon="-2.30996">
        <ele>7</ele>
        <time>2020-06-24T11:20:38.085Z</time>
      </trkpt>
      <trkpt lat="48.64122" lon="-2.30994">
        <ele>8</ele>
        <time>2020-06-24T11:20:39.085Z</time>
      </trkpt>
      <trkpt lat="48.64122" lon="-2.30993">
        <ele>8</ele>
        <time>2020-06-24T11:20:40.085Z</time>
      </trkpt>
      <trkpt lat="48.64122" lon="-2.30992">
        <ele>8</ele>
        <time>2020-06-24T11:20:41.085Z</time>
      </trkpt>
      <trkpt lat="48.64123" lon="-2.3099">
        <ele>9</ele>
        <time>2020-06-24T11:20:42.085Z</time>
      </trkpt>
      <trkpt lat="48.64123" lon="-2.30989">
        <ele>9</ele>
        <time>2020-06-24T11:20:43.085Z</time>
      </trkpt>
      <trkpt lat="48.64123" lon="-2.30988">
        <ele>9</ele>
        <time>2020-06-24T11:20:44.085Z</time>
      </trkpt>
      <trkpt lat="48.64123" lon="-2.30988">
        <ele>9</ele>
        <time>2020-06-24T11:20:45.085Z</time>
      </trkpt>
      <trkpt lat="48.64123" lon="-2.30987">
        <ele>8</ele>
        <time>2020-06-24T11:20:46.085Z</time>
      </trkpt>
      <trkpt lat="48.64123" lon="-2.30985">
        <ele>8</ele>
        <time>2020-06-24T11:20:47.085Z</time>
      </trkpt>
      <trkpt lat="48.64122" lon="-2.30984">
        <ele>6</ele>
        <time>2020-06-24T11:20:48.085Z</time>
      </trkpt>
      <trkpt lat="48.64122" lon="-2.30983">
        <ele>6</ele>
        <time>2020-06-24T11:20:49.085Z</time>
      </trkpt>
      <trkpt lat="48.64121" lon="-2.30982">
        <ele>6</ele>
        <time>2020-06-24T11:20:50.085Z</time>
      </trkpt>
      <trkpt lat="48.64121" lon="-2.30982">
        <ele>6</ele>
        <time>2020-06-24T11:20:51.085Z</time>
      </trkpt>
      <trkpt lat="48.6412" lon="-2.30981">
        <ele>6</ele>
        <time>2020-06-24T11:20:52.085Z</time>
      </trkpt>
      <trkpt lat="48.6412" lon="-2.3098">
        <ele>6</ele>
        <time>2020-06-24T11:20:53.085Z</time>
      </trkpt>
      <trkpt lat="48.64119" lon="-2.30979">
        <ele>7</ele>
        <time>2020-06-24T11:20:54.085Z</time>
      </trkpt>
      <trkpt lat="48.64118" lon="-2.30978">
        <ele>6</ele>
        <time>2020-06-24T11:20:55.085Z</time>
      </trkpt>
      <trkpt lat="48.64117" lon="-2.30977">
        <ele>5</ele>
        <time>2020-06-24T11:20:56.085Z</time>
      </trkpt>
      <trkpt lat="48.64116" lon="-2.30977">
        <ele>4</ele>
        <time>2020-06-24T11:20:57.085Z</time>
      </trkpt>
      <trkpt lat="48.64115" lon="-2.30976">
        <ele>4</ele>
        <time>2020-06-24T11:20:58.085Z</time>
      </trkpt>
      <trkpt lat="48.64114" lon="-2.30975">
        <ele>5</ele>
        <time>2020-06-24T11:20:59.085Z</time>
      </trkpt>
      <trkpt lat="48.64113" lon="-2.30975">
        <ele>4</ele>
        <time>2020-06-24T11:21:00.085Z</time>
      </trkpt>
      <trkpt lat="48.64112" lon="-2.30974">
        <ele>5</ele>
        <time>2020-06-24T11:21:01.085Z</time>
      </trkpt>
      <trkpt lat="48.64111" lon="-2.30973">
        <ele>4</ele>
        <time>2020-06-24T11:21:02.085Z</time>
      </trkpt>
      <trkpt lat="48.64109" lon="-2.30973">
        <ele>3</ele>
        <time>2020-06-24T11:21:03.085Z</time>
      </trkpt>
      <trkpt lat="48.64108" lon="-2.30973">
        <ele>3</ele>
        <time>2020-06-24T11:21:04.085Z</time>
      </trkpt>
      <trkpt lat="48.64108" lon="-2.30973">
        <ele>2</ele>
        <time>2020-06-24T11:21:05.085Z</time>
      </trkpt>
      <trkpt lat="48.64107" lon="-2.30973">
        <ele>2</ele>
        <time>2020-06-24T11:21:06.085Z</time>
      </trkpt>
      <trkpt lat="48.64106" lon="-2.30972">
        <ele>3</ele>
        <time>2020-06-24T11:21:07.085Z</time>
      </trkpt>
      <trkpt lat="48.64106" lon="-2.30972">
        <ele>3</ele>
        <time>2020-06-24T11:21:08.085Z</time>
      </trkpt>
      <trkpt lat="48.64106" lon="-2.30971">
        <ele>3</ele>
        <time>2020-06-24T11:21:09.085Z</time>
      </trkpt>
      <trkpt lat="48.64106" lon="-2.30971">
        <ele>3</ele>
        <time>2020-06-24T11:21:10.085Z</time>
      </trkpt>
      <trkpt lat="48.64106" lon="-2.30971">
        <ele>3</ele>
        <time>2020-06-24T11:21:11.085Z</time>
      </trkpt>
      <trkpt lat="48.64105" lon="-2.30971">
        <ele>2</ele>
        <time>2020-06-24T11:21:12.085Z</time>
      </trkpt>
      <trkpt lat="48.64105" lon="-2.3097">
        <ele>2</ele>
        <time>2020-06-24T11:21:13.085Z</time>
      </trkpt>
      <trkpt lat="48.64105" lon="-2.3097">
        <ele>2</ele>
        <time>2020-06-24T11:21:14.085Z</time>
      </trkpt>
      <trkpt lat="48.64102" lon="-2.30968">
        <ele>4</ele>
        <time>2020-06-24T11:21:15.073Z</time>
      </trkpt>
      <trkpt lat="48.64101" lon="-2.30968">
        <ele>4</ele>
        <time>2020-06-24T11:21:16.073Z</time>
      </trkpt>
      <trkpt lat="48.64101" lon="-2.30969">
        <ele>4</ele>
        <time>2020-06-24T11:21:17.073Z</time>
      </trkpt>
      <trkpt lat="48.641" lon="-2.3097">
        <ele>4</ele>
        <time>2020-06-24T11:21:18.073Z</time>
      </trkpt>
      <trkpt lat="48.641" lon="-2.3097">
        <ele>4</ele>
        <time>2020-06-24T11:21:19.073Z</time>
      </trkpt>
      <trkpt lat="48.64099" lon="-2.30971">
        <ele>5</ele>
        <time>2020-06-24T11:21:20.073Z</time>
      </trkpt>
      <trkpt lat="48.64099" lon="-2.30971">
        <ele>4</ele>
        <time>2020-06-24T11:21:21.073Z</time>
      </trkpt>
      <trkpt lat="48.64099" lon="-2.30972">
        <ele>5</ele>
        <time>2020-06-24T11:21:22.073Z</time>
      </trkpt>
      <trkpt lat="48.64099" lon="-2.30972">
        <ele>5</ele>
        <time>2020-06-24T11:21:23.073Z</time>
      </trkpt>
      <trkpt lat="48.64098" lon="-2.30973">
        <ele>5</ele>
        <time>2020-06-24T11:21:24.073Z</time>
      </trkpt>
      <trkpt lat="48.64097" lon="-2.30974">
        <ele>5</ele>
        <time>2020-06-24T11:21:25.073Z</time>
      </trkpt>
      <trkpt lat="48.64096" lon="-2.30975">
        <ele>6</ele>
        <time>2020-06-24T11:21:26.073Z</time>
      </trkpt>
      <trkpt lat="48.64096" lon="-2.30977">
        <ele>6</ele>
        <time>2020-06-24T11:21:27.073Z</time>
      </trkpt>
      <trkpt lat="48.64095" lon="-2.30978">
        <ele>7</ele>
        <time>2020-06-24T11:21:28.073Z</time>
      </trkpt>
      <trkpt lat="48.64094" lon="-2.30979">
        <ele>7</ele>
        <time>2020-06-24T11:21:29.073Z</time>
      </trkpt>
      <trkpt lat="48.64094" lon="-2.3098">
        <ele>7</ele>
        <time>2020-06-24T11:21:30.073Z</time>
      </trkpt>
      <trkpt lat="48.64093" lon="-2.30981">
        <ele>8</ele>
        <time>2020-06-24T11:21:31.073Z</time>
      </trkpt>
      <trkpt lat="48.64093" lon="-2.30982">
        <ele>8</ele>
        <time>2020-06-24T11:21:32.073Z</time>
      </trkpt>
      <trkpt lat="48.64093" lon="-2.30983">
        <ele>9</ele>
        <time>2020-06-24T11:21:33.073Z</time>
      </trkpt>
      <trkpt lat="48.64093" lon="-2.30984">
        <ele>10</ele>
        <time>2020-06-24T11:21:34.073Z</time>
      </trkpt>
      <trkpt lat="48.64093" lon="-2.30985">
        <ele>10</ele>
        <time>2020-06-24T11:21:35.073Z</time>
      </trkpt>
      <trkpt lat="48.64093" lon="-2.30987">
        <ele>10</ele>
        <time>2020-06-24T11:21:36.073Z</time>
      </trkpt>
      <trkpt lat="48.64093" lon="-2.30988">
        <ele>11</ele>
        <time>2020-06-24T11:21:37.073Z</time>
      </trkpt>
      <trkpt lat="48.64093" lon="-2.30989">
        <ele>12</ele>
        <time>2020-06-24T11:21:38.073Z</time>
      </trkpt>
      <trkpt lat="48.64093" lon="-2.3099">
        <ele>12</ele>
        <time>2020-06-24T11:21:39.073Z</time>
      </trkpt>
      <trkpt lat="48.64093" lon="-2.30992">
        <ele>13</ele>
        <time>2020-06-24T11:21:40.073Z</time>
      </trkpt>
      <trkpt lat="48.64093" lon="-2.30993">
        <ele>13</ele>
        <time>2020-06-24T11:21:41.073Z</time>
      </trkpt>
      <trkpt lat="48.64093" lon="-2.30995">
        <ele>14</ele>
        <time>2020-06-24T11:21:42.073Z</time>
      </trkpt>
      <trkpt lat="48.64093" lon="-2.30996">
        <ele>15</ele>
        <time>2020-06-24T11:21:43.073Z</time>
      </trkpt>
      <trkpt lat="48.64093" lon="-2.30997">
        <ele>16</ele>
        <time>2020-06-24T11:21:44.073Z</time>
      </trkpt>
      <trkpt lat="48.64093" lon="-2.30999">
        <ele>17</ele>
        <time>2020-06-24T11:21:45.073Z</time>
      </trkpt>
      <trkpt lat="48.64093" lon="-2.31">
        <ele>17</ele>
        <time>2020-06-24T11:21:46.073Z</time>
      </trkpt>
      <trkpt lat="48.64093" lon="-2.31002">
        <ele>18</ele>
        <time>2020-06-24T11:21:47.073Z</time>
      </trkpt>
      <trkpt lat="48.64093" lon="-2.31003">
        <ele>19</ele>
        <time>2020-06-24T11:21:48.073Z</time>
      </trkpt>
      <trkpt lat="48.64092" lon="-2.31005">
        <ele>20</ele>
        <time>2020-06-24T11:21:49.073Z</time>
      </trkpt>
      <trkpt lat="48.64092" lon="-2.31006">
        <ele>21</ele>
        <time>2020-06-24T11:21:50.073Z</time>
      </trkpt>
      <trkpt lat="48.64092" lon="-2.31007">
        <ele>22</ele>
        <time>2020-06-24T11:21:51.073Z</time>
      </trkpt>
      <trkpt lat="48.64093" lon="-2.31009">
        <ele>22</ele>
        <time>2020-06-24T11:21:52.073Z</time>
      </trkpt>
      <trkpt lat="48.64093" lon="-2.3101">
        <ele>23</ele>
        <time>2020-06-24T11:21:53.073Z</time>
      </trkpt>
      <trkpt lat="48.64093" lon="-2.31012">
        <ele>24</ele>
        <time>2020-06-24T11:21:54.073Z</time>
      </trkpt>
      <trkpt lat="48.64092" lon="-2.31013">
        <ele>26</ele>
        <time>2020-06-24T11:21:55.073Z</time>
      </trkpt>
      <trkpt lat="48.64092" lon="-2.31014">
        <ele>27</ele>
        <time>2020-06-24T11:21:56.073Z</time>
      </trkpt>
      <trkpt lat="48.64092" lon="-2.31015">
        <ele>29</ele>
        <time>2020-06-24T11:21:57.073Z</time>
      </trkpt>
      <trkpt lat="48.64092" lon="-2.31016">
        <ele>30</ele>
        <time>2020-06-24T11:21:58.073Z</time>
      </trkpt>
      <trkpt lat="48.64091" lon="-2.31018">
        <ele>30</ele>
        <time>2020-06-24T11:21:59.073Z</time>
      </trkpt>
      <trkpt lat="48.64091" lon="-2.31019">
        <ele>31</ele>
        <time>2020-06-24T11:22:00.073Z</time>
      </trkpt>
      <trkpt lat="48.6409" lon="-2.3102">
        <ele>32</ele>
        <time>2020-06-24T11:22:01.073Z</time>
      </trkpt>
      <trkpt lat="48.6409" lon="-2.31021">
        <ele>31</ele>
        <time>2020-06-24T11:22:02.073Z</time>
      </trkpt>
      <trkpt lat="48.64089" lon="-2.31023">
        <ele>31</ele>
        <time>2020-06-24T11:22:03.073Z</time>
      </trkpt>
      <trkpt lat="48.64088" lon="-2.31025">
        <ele>32</ele>
        <time>2020-06-24T11:22:04.073Z</time>
      </trkpt>
      <trkpt lat="48.64088" lon="-2.31026">
        <ele>32</ele>
        <time>2020-06-24T11:22:05.073Z</time>
      </trkpt>
      <trkpt lat="48.64087" lon="-2.31028">
        <ele>32</ele>
        <time>2020-06-24T11:22:06.073Z</time>
      </trkpt>
      <trkpt lat="48.64086" lon="-2.31029">
        <ele>31</ele>
        <time>2020-06-24T11:22:07.073Z</time>
      </trkpt>
      <trkpt lat="48.64085" lon="-2.31031">
        <ele>32</ele>
        <time>2020-06-24T11:22:08.073Z</time>
      </trkpt>
      <trkpt lat="48.64085" lon="-2.31033">
        <ele>33</ele>
        <time>2020-06-24T11:22:09.073Z</time>
      </trkpt>
      <trkpt lat="48.64084" lon="-2.31034">
        <ele>32</ele>
        <time>2020-06-24T11:22:10.073Z</time>
      </trkpt>
      <trkpt lat="48.64083" lon="-2.31035">
        <ele>33</ele>
        <time>2020-06-24T11:22:11.073Z</time>
      </trkpt>
      <trkpt lat="48.64082" lon="-2.31036">
        <ele>33</ele>
        <time>2020-06-24T11:22:12.073Z</time>
      </trkpt>
      <trkpt lat="48.64081" lon="-2.31037">
        <ele>33</ele>
        <time>2020-06-24T11:22:13.073Z</time>
      </trkpt>
      <trkpt lat="48.6408" lon="-2.31038">
        <ele>33</ele>
        <time>2020-06-24T11:22:14.073Z</time>
      </trkpt>
      <trkpt lat="48.6408" lon="-2.3104">
        <ele>33</ele>
        <time>2020-06-24T11:22:15.073Z</time>
      </trkpt>
      <trkpt lat="48.64079" lon="-2.31041">
        <ele>34</ele>
        <time>2020-06-24T11:22:16.073Z</time>
      </trkpt>
      <trkpt lat="48.64078" lon="-2.31043">
        <ele>34</ele>
        <time>2020-06-24T11:22:17.073Z</time>
      </trkpt>
      <trkpt lat="48.64077" lon="-2.31044">
        <ele>34</ele>
        <time>2020-06-24T11:22:18.073Z</time>
      </trkpt>
      <trkpt lat="48.64076" lon="-2.31045">
        <ele>35</ele>
        <time>2020-06-24T11:22:19.073Z</time>
      </trkpt>
      <trkpt lat="48.64075" lon="-2.31046">
        <ele>35</ele>
        <time>2020-06-24T11:22:20.073Z</time>
      </trkpt>
      <trkpt lat="48.64075" lon="-2.31047">
        <ele>36</ele>
        <time>2020-06-24T11:22:21.073Z</time>
      </trkpt>
      <trkpt lat="48.64074" lon="-2.31048">
        <ele>36</ele>
        <time>2020-06-24T11:22:22.073Z</time>
      </trkpt>
      <trkpt lat="48.64073" lon="-2.31049">
        <ele>35</ele>
        <time>2020-06-24T11:22:23.073Z</time>
      </trkpt>
      <trkpt lat="48.64073" lon="-2.3105">
        <ele>35</ele>
        <time>2020-06-24T11:22:24.073Z</time>
      </trkpt>
      <trkpt lat="48.64072" lon="-2.31051">
        <ele>35</ele>
        <time>2020-06-24T11:22:25.073Z</time>
      </trkpt>
      <trkpt lat="48.64072" lon="-2.31053">
        <ele>35</ele>
        <time>2020-06-24T11:22:26.073Z</time>
      </trkpt>
      <trkpt lat="48.64071" lon="-2.31055">
        <ele>35</ele>
        <time>2020-06-24T11:22:27.073Z</time>
      </trkpt>
      <trkpt lat="48.64071" lon="-2.31056">
        <ele>34</ele>
        <time>2020-06-24T11:22:28.073Z</time>
      </trkpt>
      <trkpt lat="48.6407" lon="-2.31057">
        <ele>35</ele>
        <time>2020-06-24T11:22:29.073Z</time>
      </trkpt>
      <trkpt lat="48.64069" lon="-2.31058">
        <ele>35</ele>
        <time>2020-06-24T11:22:30.073Z</time>
      </trkpt>
      <trkpt lat="48.64068" lon="-2.31059">
        <ele>36</ele>
        <time>2020-06-24T11:22:31.073Z</time>
      </trkpt>
      <trkpt lat="48.64067" lon="-2.3106">
        <ele>35</ele>
        <time>2020-06-24T11:22:32.073Z</time>
      </trkpt>
      <trkpt lat="48.64067" lon="-2.31062">
        <ele>35</ele>
        <time>2020-06-24T11:22:33.073Z</time>
      </trkpt>
      <trkpt lat="48.64066" lon="-2.31063">
        <ele>35</ele>
        <time>2020-06-24T11:22:34.073Z</time>
      </trkpt>
      <trkpt lat="48.64064" lon="-2.31064">
        <ele>34</ele>
        <time>2020-06-24T11:22:35.073Z</time>
      </trkpt>
      <trkpt lat="48.64063" lon="-2.31066">
        <ele>34</ele>
        <time>2020-06-24T11:22:36.073Z</time>
      </trkpt>
      <trkpt lat="48.64062" lon="-2.31067">
        <ele>34</ele>
        <time>2020-06-24T11:22:37.073Z</time>
      </trkpt>
      <trkpt lat="48.64061" lon="-2.31068">
        <ele>33</ele>
        <time>2020-06-24T11:22:38.073Z</time>
      </trkpt>
      <trkpt lat="48.6406" lon="-2.3107">
        <ele>32</ele>
        <time>2020-06-24T11:22:39.073Z</time>
      </trkpt>
      <trkpt lat="48.6406" lon="-2.31071">
        <ele>32</ele>
        <time>2020-06-24T11:22:40.073Z</time>
      </trkpt>
      <trkpt lat="48.64059" lon="-2.31072">
        <ele>31</ele>
        <time>2020-06-24T11:22:41.073Z</time>
      </trkpt>
      <trkpt lat="48.64058" lon="-2.31074">
        <ele>32</ele>
        <time>2020-06-24T11:22:42.073Z</time>
      </trkpt>
      <trkpt lat="48.64057" lon="-2.31075">
        <ele>31</ele>
        <time>2020-06-24T11:22:43.073Z</time>
      </trkpt>
      <trkpt lat="48.64056" lon="-2.31076">
        <ele>32</ele>
        <time>2020-06-24T11:22:44.073Z</time>
      </trkpt>
      <trkpt lat="48.64055" lon="-2.31077">
        <ele>32</ele>
        <time>2020-06-24T11:22:45.073Z</time>
      </trkpt>
      <trkpt lat="48.64054" lon="-2.31078">
        <ele>32</ele>
        <time>2020-06-24T11:22:46.073Z</time>
      </trkpt>
      <trkpt lat="48.64054" lon="-2.3108">
        <ele>32</ele>
        <time>2020-06-24T11:22:47.073Z</time>
      </trkpt>
      <trkpt lat="48.64053" lon="-2.31081">
        <ele>33</ele>
        <time>2020-06-24T11:22:48.073Z</time>
      </trkpt>
      <trkpt lat="48.64051" lon="-2.31082">
        <ele>33</ele>
        <time>2020-06-24T11:22:49.073Z</time>
      </trkpt>
      <trkpt lat="48.6405" lon="-2.31083">
        <ele>34</ele>
        <time>2020-06-24T11:22:50.073Z</time>
      </trkpt>
      <trkpt lat="48.64049" lon="-2.31084">
        <ele>33</ele>
        <time>2020-06-24T11:22:51.073Z</time>
      </trkpt>
      <trkpt lat="48.64048" lon="-2.31085">
        <ele>32</ele>
        <time>2020-06-24T11:22:52.073Z</time>
      </trkpt>
      <trkpt lat="48.64048" lon="-2.31087">
        <ele>33</ele>
        <time>2020-06-24T11:22:53.073Z</time>
      </trkpt>
      <trkpt lat="48.64047" lon="-2.31088">
        <ele>32</ele>
        <time>2020-06-24T11:22:54.073Z</time>
      </trkpt>
      <trkpt lat="48.64046" lon="-2.3109">
        <ele>33</ele>
        <time>2020-06-24T11:22:55.073Z</time>
      </trkpt>
      <trkpt lat="48.64046" lon="-2.31091">
        <ele>34</ele>
        <time>2020-06-24T11:22:56.073Z</time>
      </trkpt>
      <trkpt lat="48.64045" lon="-2.31092">
        <ele>34</ele>
        <time>2020-06-24T11:22:57.073Z</time>
      </trkpt>
      <trkpt lat="48.64044" lon="-2.31094">
        <ele>34</ele>
        <time>2020-06-24T11:22:58.073Z</time>
      </trkpt>
      <trkpt lat="48.64043" lon="-2.31095">
        <ele>34</ele>
        <time>2020-06-24T11:22:59.073Z</time>
      </trkpt>
      <trkpt lat="48.64042" lon="-2.31096">
        <ele>34</ele>
        <time>2020-06-24T11:23:00.073Z</time>
      </trkpt>
      <trkpt lat="48.64042" lon="-2.31098">
        <ele>35</ele>
        <time>2020-06-24T11:23:01.073Z</time>
      </trkpt>
      <trkpt lat="48.64041" lon="-2.31099">
        <ele>35</ele>
        <time>2020-06-24T11:23:02.073Z</time>
      </trkpt>
      <trkpt lat="48.6404" lon="-2.311">
        <ele>35</ele>
        <time>2020-06-24T11:23:03.073Z</time>
      </trkpt>
      <trkpt lat="48.64039" lon="-2.31101">
        <ele>35</ele>
        <time>2020-06-24T11:23:04.073Z</time>
      </trkpt>
      <trkpt lat="48.64039" lon="-2.31102">
        <ele>36</ele>
        <time>2020-06-24T11:23:05.073Z</time>
      </trkpt>
      <trkpt lat="48.64038" lon="-2.31103">
        <ele>36</ele>
        <time>2020-06-24T11:23:06.073Z</time>
      </trkpt>
      <trkpt lat="48.64037" lon="-2.31104">
        <ele>36</ele>
        <time>2020-06-24T11:23:07.073Z</time>
      </trkpt>
      <trkpt lat="48.64036" lon="-2.31105">
        <ele>37</ele>
        <time>2020-06-24T11:23:08.073Z</time>
      </trkpt>
      <trkpt lat="48.64036" lon="-2.31107">
        <ele>37</ele>
        <time>2020-06-24T11:23:09.073Z</time>
      </trkpt>
      <trkpt lat="48.64035" lon="-2.31108">
        <ele>37</ele>
        <time>2020-06-24T11:23:10.073Z</time>
      </trkpt>
      <trkpt lat="48.64034" lon="-2.31109">
        <ele>38</ele>
        <time>2020-06-24T11:23:11.073Z</time>
      </trkpt>
      <trkpt lat="48.64033" lon="-2.31111">
        <ele>38</ele>
        <time>2020-06-24T11:23:12.073Z</time>
      </trkpt>
      <trkpt lat="48.64033" lon="-2.31112">
        <ele>38</ele>
        <time>2020-06-24T11:23:13.073Z</time>
      </trkpt>
      <trkpt lat="48.64032" lon="-2.31113">
        <ele>39</ele>
        <time>2020-06-24T11:23:14.073Z</time>
      </trkpt>
      <trkpt lat="48.64031" lon="-2.31114">
        <ele>39</ele>
        <time>2020-06-24T11:23:15.073Z</time>
      </trkpt>
      <trkpt lat="48.6403" lon="-2.31115">
        <ele>39</ele>
        <time>2020-06-24T11:23:16.073Z</time>
      </trkpt>
      <trkpt lat="48.6403" lon="-2.31116">
        <ele>39</ele>
        <time>2020-06-24T11:23:17.073Z</time>
      </trkpt>
      <trkpt lat="48.64029" lon="-2.31117">
        <ele>39</ele>
        <time>2020-06-24T11:23:18.073Z</time>
      </trkpt>
      <trkpt lat="48.64028" lon="-2.31118">
        <ele>39</ele>
        <time>2020-06-24T11:23:19.073Z</time>
      </trkpt>
      <trkpt lat="48.64028" lon="-2.31119">
        <ele>39</ele>
        <time>2020-06-24T11:23:20.073Z</time>
      </trkpt>
      <trkpt lat="48.64027" lon="-2.3112">
        <ele>39</ele>
        <time>2020-06-24T11:23:21.073Z</time>
      </trkpt>
      <trkpt lat="48.64026" lon="-2.31122">
        <ele>39</ele>
        <time>2020-06-24T11:23:22.073Z</time>
      </trkpt>
      <trkpt lat="48.64026" lon="-2.31123">
        <ele>39</ele>
        <time>2020-06-24T11:23:23.073Z</time>
      </trkpt>
      <trkpt lat="48.64025" lon="-2.31124">
        <ele>39</ele>
        <time>2020-06-24T11:23:24.073Z</time>
      </trkpt>
      <trkpt lat="48.64024" lon="-2.31125">
        <ele>39</ele>
        <time>2020-06-24T11:23:25.073Z</time>
      </trkpt>
      <trkpt lat="48.64024" lon="-2.31127">
        <ele>40</ele>
        <time>2020-06-24T11:23:26.073Z</time>
      </trkpt>
      <trkpt lat="48.64023" lon="-2.31129">
        <ele>40</ele>
        <time>2020-06-24T11:23:27.073Z</time>
      </trkpt>
      <trkpt lat="48.64022" lon="-2.31131">
        <ele>40</ele>
        <time>2020-06-24T11:23:28.073Z</time>
      </trkpt>
      <trkpt lat="48.64021" lon="-2.31132">
        <ele>40</ele>
        <time>2020-06-24T11:23:29.073Z</time>
      </trkpt>
      <trkpt lat="48.6402" lon="-2.31134">
        <ele>40</ele>
        <time>2020-06-24T11:23:30.073Z</time>
      </trkpt>
      <trkpt lat="48.6402" lon="-2.31135">
        <ele>39</ele>
        <time>2020-06-24T11:23:31.073Z</time>
      </trkpt>
      <trkpt lat="48.64019" lon="-2.31137">
        <ele>39</ele>
        <time>2020-06-24T11:23:32.073Z</time>
      </trkpt>
      <trkpt lat="48.64019" lon="-2.31139">
        <ele>38</ele>
        <time>2020-06-24T11:23:33.073Z</time>
      </trkpt>
      <trkpt lat="48.64019" lon="-2.31141">
        <ele>38</ele>
        <time>2020-06-24T11:23:34.073Z</time>
      </trkpt>
      <trkpt lat="48.64018" lon="-2.31143">
        <ele>38</ele>
        <time>2020-06-24T11:23:35.073Z</time>
      </trkpt>
      <trkpt lat="48.64018" lon="-2.31145">
        <ele>37</ele>
        <time>2020-06-24T11:23:36.073Z</time>
      </trkpt>
      <trkpt lat="48.64017" lon="-2.31146">
        <ele>37</ele>
        <time>2020-06-24T11:23:37.073Z</time>
      </trkpt>
      <trkpt lat="48.64017" lon="-2.31148">
        <ele>37</ele>
        <time>2020-06-24T11:23:38.073Z</time>
      </trkpt>
      <trkpt lat="48.64017" lon="-2.31149">
        <ele>37</ele>
        <time>2020-06-24T11:23:39.073Z</time>
      </trkpt>
      <trkpt lat="48.64016" lon="-2.31151">
        <ele>37</ele>
        <time>2020-06-24T11:23:40.073Z</time>
      </trkpt>
      <trkpt lat="48.64014" lon="-2.31153">
        <ele>37</ele>
        <time>2020-06-24T11:23:41.073Z</time>
      </trkpt>
      <trkpt lat="48.64013" lon="-2.31155">
        <ele>37</ele>
        <time>2020-06-24T11:23:42.073Z</time>
      </trkpt>
      <trkpt lat="48.64012" lon="-2.31157">
        <ele>37</ele>
        <time>2020-06-24T11:23:43.073Z</time>
      </trkpt>
      <trkpt lat="48.64011" lon="-2.31159">
        <ele>37</ele>
        <time>2020-06-24T11:23:44.073Z</time>
      </trkpt>
      <trkpt lat="48.64011" lon="-2.31161">
        <ele>35</ele>
        <time>2020-06-24T11:23:45.073Z</time>
      </trkpt>
      <trkpt lat="48.6401" lon="-2.31163">
        <ele>34</ele>
        <time>2020-06-24T11:23:46.073Z</time>
      </trkpt>
      <trkpt lat="48.64009" lon="-2.31165">
        <ele>36</ele>
        <time>2020-06-24T11:23:47.073Z</time>
      </trkpt>
      <trkpt lat="48.64008" lon="-2.31168">
        <ele>35</ele>
        <time>2020-06-24T11:23:48.073Z</time>
      </trkpt>
      <trkpt lat="48.64006" lon="-2.31171">
        <ele>33</ele>
        <time>2020-06-24T11:23:49.073Z</time>
      </trkpt>
      <trkpt lat="48.64005" lon="-2.31174">
        <ele>32</ele>
        <time>2020-06-24T11:23:50.073Z</time>
      </trkpt>
      <trkpt lat="48.64004" lon="-2.31176">
        <ele>30</ele>
        <time>2020-06-24T11:23:51.073Z</time>
      </trkpt>
      <trkpt lat="48.64003" lon="-2.31179">
        <ele>29</ele>
        <time>2020-06-24T11:23:52.073Z</time>
      </trkpt>
      <trkpt lat="48.64003" lon="-2.31181">
        <ele>29</ele>
        <time>2020-06-24T11:23:53.073Z</time>
      </trkpt>
      <trkpt lat="48.64002" lon="-2.31183">
        <ele>29</ele>
        <time>2020-06-24T11:23:54.073Z</time>
      </trkpt>
      <trkpt lat="48.64002" lon="-2.31184">
        <ele>29</ele>
        <time>2020-06-24T11:23:55.073Z</time>
      </trkpt>
      <trkpt lat="48.64001" lon="-2.31186">
        <ele>29</ele>
        <time>2020-06-24T11:23:56.073Z</time>
      </trkpt>
      <trkpt lat="48.64001" lon="-2.31187">
        <ele>29</ele>
        <time>2020-06-24T11:23:57.073Z</time>
      </trkpt>
      <trkpt lat="48.64" lon="-2.31189">
        <ele>29</ele>
        <time>2020-06-24T11:23:58.073Z</time>
      </trkpt>
      <trkpt lat="48.63999" lon="-2.3119">
        <ele>29</ele>
        <time>2020-06-24T11:23:59.073Z</time>
      </trkpt>
      <trkpt lat="48.63999" lon="-2.31191">
        <ele>29</ele>
        <time>2020-06-24T11:24:00.073Z</time>
      </trkpt>
      <trkpt lat="48.63999" lon="-2.31192">
        <ele>29</ele>
        <time>2020-06-24T11:24:01.073Z</time>
      </trkpt>
      <trkpt lat="48.63998" lon="-2.31194">
        <ele>29</ele>
        <time>2020-06-24T11:24:02.073Z</time>
      </trkpt>
      <trkpt lat="48.63998" lon="-2.31195">
        <ele>30</ele>
        <time>2020-06-24T11:24:03.073Z</time>
      </trkpt>
      <trkpt lat="48.63997" lon="-2.31196">
        <ele>30</ele>
        <time>2020-06-24T11:24:04.073Z</time>
      </trkpt>
      <trkpt lat="48.63997" lon="-2.31197">
        <ele>30</ele>
        <time>2020-06-24T11:24:05.073Z</time>
      </trkpt>
      <trkpt lat="48.63996" lon="-2.31198">
        <ele>30</ele>
        <time>2020-06-24T11:24:06.073Z</time>
      </trkpt>
      <trkpt lat="48.63996" lon="-2.31199">
        <ele>31</ele>
        <time>2020-06-24T11:24:07.073Z</time>
      </trkpt>
      <trkpt lat="48.63995" lon="-2.31201">
        <ele>31</ele>
        <time>2020-06-24T11:24:08.073Z</time>
      </trkpt>
      <trkpt lat="48.63994" lon="-2.31202">
        <ele>32</ele>
        <time>2020-06-24T11:24:09.073Z</time>
      </trkpt>
      <trkpt lat="48.63993" lon="-2.31203">
        <ele>32</ele>
        <time>2020-06-24T11:24:10.073Z</time>
      </trkpt>
      <trkpt lat="48.63992" lon="-2.31204">
        <ele>32</ele>
        <time>2020-06-24T11:24:11.073Z</time>
      </trkpt>
      <trkpt lat="48.63992" lon="-2.31205">
        <ele>32</ele>
        <time>2020-06-24T11:24:12.073Z</time>
      </trkpt>
      <trkpt lat="48.63991" lon="-2.31205">
        <ele>32</ele>
        <time>2020-06-24T11:24:13.073Z</time>
      </trkpt>
      <trkpt lat="48.63991" lon="-2.31206">
        <ele>32</ele>
        <time>2020-06-24T11:24:14.073Z</time>
      </trkpt>
      <trkpt lat="48.63991" lon="-2.31207">
        <ele>34</ele>
        <time>2020-06-24T11:24:15.073Z</time>
      </trkpt>
      <trkpt lat="48.63992" lon="-2.31208">
        <ele>34</ele>
        <time>2020-06-24T11:24:16.073Z</time>
      </trkpt>
      <trkpt lat="48.63992" lon="-2.31209">
        <ele>35</ele>
        <time>2020-06-24T11:24:17.073Z</time>
      </trkpt>
      <trkpt lat="48.63992" lon="-2.3121">
        <ele>36</ele>
        <time>2020-06-24T11:24:18.073Z</time>
      </trkpt>
      <trkpt lat="48.63992" lon="-2.31211">
        <ele>37</ele>
        <time>2020-06-24T11:24:19.073Z</time>
      </trkpt>
      <trkpt lat="48.63992" lon="-2.31212">
        <ele>37</ele>
        <time>2020-06-24T11:24:20.073Z</time>
      </trkpt>
      <trkpt lat="48.6399" lon="-2.31218">
        <ele>40</ele>
        <time>2020-06-24T11:24:21.077Z</time>
      </trkpt>
      <trkpt lat="48.63989" lon="-2.3122">
        <ele>40</ele>
        <time>2020-06-24T11:24:22.077Z</time>
      </trkpt>
      <trkpt lat="48.63989" lon="-2.31221">
        <ele>40</ele>
        <time>2020-06-24T11:24:23.077Z</time>
      </trkpt>
      <trkpt lat="48.63989" lon="-2.31222">
        <ele>40</ele>
        <time>2020-06-24T11:24:24.077Z</time>
      </trkpt>
      <trkpt lat="48.63988" lon="-2.31224">
        <ele>41</ele>
        <time>2020-06-24T11:24:25.077Z</time>
      </trkpt>
      <trkpt lat="48.63988" lon="-2.31225">
        <ele>41</ele>
        <time>2020-06-24T11:24:26.077Z</time>
      </trkpt>
      <trkpt lat="48.63987" lon="-2.31226">
        <ele>40</ele>
        <time>2020-06-24T11:24:27.077Z</time>
      </trkpt>
      <trkpt lat="48.63986" lon="-2.31227">
        <ele>40</ele>
        <time>2020-06-24T11:24:28.077Z</time>
      </trkpt>
      <trkpt lat="48.63986" lon="-2.31228">
        <ele>40</ele>
        <time>2020-06-24T11:24:29.077Z</time>
      </trkpt>
      <trkpt lat="48.63985" lon="-2.31229">
        <ele>40</ele>
        <time>2020-06-24T11:24:30.077Z</time>
      </trkpt>
      <trkpt lat="48.63985" lon="-2.3123">
        <ele>39</ele>
        <time>2020-06-24T11:24:31.077Z</time>
      </trkpt>
      <trkpt lat="48.63984" lon="-2.31232">
        <ele>39</ele>
        <time>2020-06-24T11:24:32.077Z</time>
      </trkpt>
      <trkpt lat="48.63984" lon="-2.31233">
        <ele>39</ele>
        <time>2020-06-24T11:24:33.077Z</time>
      </trkpt>
      <trkpt lat="48.63983" lon="-2.31234">
        <ele>38</ele>
        <time>2020-06-24T11:24:34.077Z</time>
      </trkpt>
      <trkpt lat="48.63983" lon="-2.31236">
        <ele>39</ele>
        <time>2020-06-24T11:24:35.077Z</time>
      </trkpt>
      <trkpt lat="48.63982" lon="-2.31237">
        <ele>39</ele>
        <time>2020-06-24T11:24:36.077Z</time>
      </trkpt>
      <trkpt lat="48.63982" lon="-2.31238">
        <ele>40</ele>
        <time>2020-06-24T11:24:37.077Z</time>
      </trkpt>
      <trkpt lat="48.63981" lon="-2.3124">
        <ele>40</ele>
        <time>2020-06-24T11:24:38.077Z</time>
      </trkpt>
      <trkpt lat="48.6398" lon="-2.31241">
        <ele>41</ele>
        <time>2020-06-24T11:24:39.077Z</time>
      </trkpt>
      <trkpt lat="48.63979" lon="-2.31242">
        <ele>40</ele>
        <time>2020-06-24T11:24:40.077Z</time>
      </trkpt>
      <trkpt lat="48.63979" lon="-2.31244">
        <ele>40</ele>
        <time>2020-06-24T11:24:41.077Z</time>
      </trkpt>
      <trkpt lat="48.63978" lon="-2.31246">
        <ele>39</ele>
        <time>2020-06-24T11:24:42.077Z</time>
      </trkpt>
      <trkpt lat="48.63977" lon="-2.31247">
        <ele>39</ele>
        <time>2020-06-24T11:24:43.077Z</time>
      </trkpt>
      <trkpt lat="48.63977" lon="-2.31249">
        <ele>39</ele>
        <time>2020-06-24T11:24:44.077Z</time>
      </trkpt>
      <trkpt lat="48.63976" lon="-2.3125">
        <ele>39</ele>
        <time>2020-06-24T11:24:45.077Z</time>
      </trkpt>
      <trkpt lat="48.63976" lon="-2.31251">
        <ele>40</ele>
        <time>2020-06-24T11:24:46.077Z</time>
      </trkpt>
      <trkpt lat="48.63976" lon="-2.31252">
        <ele>40</ele>
        <time>2020-06-24T11:24:47.077Z</time>
      </trkpt>
      <trkpt lat="48.63975" lon="-2.31254">
        <ele>40</ele>
        <time>2020-06-24T11:24:48.077Z</time>
      </trkpt>
      <trkpt lat="48.63974" lon="-2.31255">
        <ele>40</ele>
        <time>2020-06-24T11:24:49.077Z</time>
      </trkpt>
      <trkpt lat="48.63974" lon="-2.31257">
        <ele>39</ele>
        <time>2020-06-24T11:24:50.077Z</time>
      </trkpt>
      <trkpt lat="48.63973" lon="-2.31259">
        <ele>39</ele>
        <time>2020-06-24T11:24:51.077Z</time>
      </trkpt>
      <trkpt lat="48.63973" lon="-2.31262">
        <ele>38</ele>
        <time>2020-06-24T11:24:52.077Z</time>
      </trkpt>
      <trkpt lat="48.63973" lon="-2.31264">
        <ele>38</ele>
        <time>2020-06-24T11:24:53.077Z</time>
      </trkpt>
      <trkpt lat="48.63972" lon="-2.31266">
        <ele>38</ele>
        <time>2020-06-24T11:24:54.077Z</time>
      </trkpt>
      <trkpt lat="48.63972" lon="-2.31267">
        <ele>37</ele>
        <time>2020-06-24T11:24:55.077Z</time>
      </trkpt>
      <trkpt lat="48.63972" lon="-2.31269">
        <ele>38</ele>
        <time>2020-06-24T11:24:56.077Z</time>
      </trkpt>
      <trkpt lat="48.63972" lon="-2.3127">
        <ele>37</ele>
        <time>2020-06-24T11:24:57.077Z</time>
      </trkpt>
      <trkpt lat="48.63972" lon="-2.31271">
        <ele>37</ele>
        <time>2020-06-24T11:24:58.077Z</time>
      </trkpt>
      <trkpt lat="48.63972" lon="-2.31273">
        <ele>38</ele>
        <time>2020-06-24T11:24:59.077Z</time>
      </trkpt>
      <trkpt lat="48.63972" lon="-2.31274">
        <ele>39</ele>
        <time>2020-06-24T11:25:00.077Z</time>
      </trkpt>
      <trkpt lat="48.63971" lon="-2.31276">
        <ele>40</ele>
        <time>2020-06-24T11:25:01.077Z</time>
      </trkpt>
      <trkpt lat="48.63971" lon="-2.31277">
        <ele>39</ele>
        <time>2020-06-24T11:25:02.077Z</time>
      </trkpt>
      <trkpt lat="48.63971" lon="-2.31279">
        <ele>40</ele>
        <time>2020-06-24T11:25:03.077Z</time>
      </trkpt>
      <trkpt lat="48.63971" lon="-2.31281">
        <ele>39</ele>
        <time>2020-06-24T11:25:04.077Z</time>
      </trkpt>
      <trkpt lat="48.63971" lon="-2.31283">
        <ele>41</ele>
        <time>2020-06-24T11:25:05.077Z</time>
      </trkpt>
      <trkpt lat="48.63972" lon="-2.31286">
        <ele>42</ele>
        <time>2020-06-24T11:25:06.077Z</time>
      </trkpt>
      <trkpt lat="48.63972" lon="-2.31288">
        <ele>42</ele>
        <time>2020-06-24T11:25:07.077Z</time>
      </trkpt>
      <trkpt lat="48.63972" lon="-2.31289">
        <ele>43</ele>
        <time>2020-06-24T11:25:08.077Z</time>
      </trkpt>
      <trkpt lat="48.63972" lon="-2.31291">
        <ele>42</ele>
        <time>2020-06-24T11:25:09.077Z</time>
      </trkpt>
      <trkpt lat="48.63972" lon="-2.31292">
        <ele>42</ele>
        <time>2020-06-24T11:25:10.077Z</time>
      </trkpt>
      <trkpt lat="48.63972" lon="-2.31294">
        <ele>42</ele>
        <time>2020-06-24T11:25:11.077Z</time>
      </trkpt>
      <trkpt lat="48.63972" lon="-2.31295">
        <ele>41</ele>
        <time>2020-06-24T11:25:12.077Z</time>
      </trkpt>
      <trkpt lat="48.63972" lon="-2.31297">
        <ele>42</ele>
        <time>2020-06-24T11:25:13.077Z</time>
      </trkpt>
      <trkpt lat="48.63973" lon="-2.31298">
        <ele>42</ele>
        <time>2020-06-24T11:25:14.077Z</time>
      </trkpt>
      <trkpt lat="48.63973" lon="-2.31299">
        <ele>42</ele>
        <time>2020-06-24T11:25:15.077Z</time>
      </trkpt>
      <trkpt lat="48.63973" lon="-2.31301">
        <ele>42</ele>
        <time>2020-06-24T11:25:16.077Z</time>
      </trkpt>
      <trkpt lat="48.63973" lon="-2.31303">
        <ele>42</ele>
        <time>2020-06-24T11:25:17.077Z</time>
      </trkpt>
      <trkpt lat="48.63973" lon="-2.31305">
        <ele>43</ele>
        <time>2020-06-24T11:25:18.077Z</time>
      </trkpt>
      <trkpt lat="48.63974" lon="-2.31306">
        <ele>43</ele>
        <time>2020-06-24T11:25:19.077Z</time>
      </trkpt>
      <trkpt lat="48.63974" lon="-2.31308">
        <ele>43</ele>
        <time>2020-06-24T11:25:20.077Z</time>
      </trkpt>
      <trkpt lat="48.63974" lon="-2.31309">
        <ele>44</ele>
        <time>2020-06-24T11:25:21.077Z</time>
      </trkpt>
      <trkpt lat="48.63974" lon="-2.31311">
        <ele>45</ele>
        <time>2020-06-24T11:25:22.077Z</time>
      </trkpt>
      <trkpt lat="48.63974" lon="-2.31312">
        <ele>46</ele>
        <time>2020-06-24T11:25:23.077Z</time>
      </trkpt>
      <trkpt lat="48.63975" lon="-2.31314">
        <ele>46</ele>
        <time>2020-06-24T11:25:24.077Z</time>
      </trkpt>
      <trkpt lat="48.63975" lon="-2.31315">
        <ele>48</ele>
        <time>2020-06-24T11:25:25.077Z</time>
      </trkpt>
      <trkpt lat="48.63975" lon="-2.31316">
        <ele>48</ele>
        <time>2020-06-24T11:25:26.077Z</time>
      </trkpt>
      <trkpt lat="48.63975" lon="-2.31317">
        <ele>49</ele>
        <time>2020-06-24T11:25:27.077Z</time>
      </trkpt>
      <trkpt lat="48.63976" lon="-2.31319">
        <ele>50</ele>
        <time>2020-06-24T11:25:28.077Z</time>
      </trkpt>
      <trkpt lat="48.63976" lon="-2.31321">
        <ele>51</ele>
        <time>2020-06-24T11:25:29.077Z</time>
      </trkpt>
      <trkpt lat="48.63976" lon="-2.31323">
        <ele>51</ele>
        <time>2020-06-24T11:25:30.077Z</time>
      </trkpt>
      <trkpt lat="48.63977" lon="-2.31324">
        <ele>51</ele>
        <time>2020-06-24T11:25:31.077Z</time>
      </trkpt>
      <trkpt lat="48.63977" lon="-2.31326">
        <ele>52</ele>
        <time>2020-06-24T11:25:32.077Z</time>
      </trkpt>
      <trkpt lat="48.63978" lon="-2.31328">
        <ele>52</ele>
        <time>2020-06-24T11:25:33.077Z</time>
      </trkpt>
      <trkpt lat="48.63978" lon="-2.31329">
        <ele>52</ele>
        <time>2020-06-24T11:25:34.077Z</time>
      </trkpt>
      <trkpt lat="48.63978" lon="-2.3133">
        <ele>52</ele>
        <time>2020-06-24T11:25:35.077Z</time>
      </trkpt>
      <trkpt lat="48.63979" lon="-2.31331">
        <ele>53</ele>
        <time>2020-06-24T11:25:36.077Z</time>
      </trkpt>
      <trkpt lat="48.63979" lon="-2.31332">
        <ele>53</ele>
        <time>2020-06-24T11:25:37.077Z</time>
      </trkpt>
      <trkpt lat="48.6398" lon="-2.31334">
        <ele>53</ele>
        <time>2020-06-24T11:25:38.077Z</time>
      </trkpt>
      <trkpt lat="48.6398" lon="-2.31335">
        <ele>53</ele>
        <time>2020-06-24T11:25:39.077Z</time>
      </trkpt>
      <trkpt lat="48.63981" lon="-2.31336">
        <ele>52</ele>
        <time>2020-06-24T11:25:40.077Z</time>
      </trkpt>
      <trkpt lat="48.63981" lon="-2.31338">
        <ele>53</ele>
        <time>2020-06-24T11:25:41.077Z</time>
      </trkpt>
      <trkpt lat="48.63981" lon="-2.31339">
        <ele>53</ele>
        <time>2020-06-24T11:25:42.077Z</time>
      </trkpt>
      <trkpt lat="48.63982" lon="-2.3134">
        <ele>53</ele>
        <time>2020-06-24T11:25:43.077Z</time>
      </trkpt>
      <trkpt lat="48.63982" lon="-2.31341">
        <ele>53</ele>
        <time>2020-06-24T11:25:44.077Z</time>
      </trkpt>
      <trkpt lat="48.63982" lon="-2.31342">
        <ele>52</ele>
        <time>2020-06-24T11:25:45.077Z</time>
      </trkpt>
      <trkpt lat="48.63982" lon="-2.31343">
        <ele>52</ele>
        <time>2020-06-24T11:25:46.077Z</time>
      </trkpt>
      <trkpt lat="48.63983" lon="-2.31345">
        <ele>52</ele>
        <time>2020-06-24T11:25:47.077Z</time>
      </trkpt>
      <trkpt lat="48.63983" lon="-2.31346">
        <ele>52</ele>
        <time>2020-06-24T11:25:48.077Z</time>
      </trkpt>
      <trkpt lat="48.63983" lon="-2.31347">
        <ele>51</ele>
        <time>2020-06-24T11:25:49.077Z</time>
      </trkpt>
      <trkpt lat="48.63983" lon="-2.31348">
        <ele>50</ele>
        <time>2020-06-24T11:25:50.077Z</time>
      </trkpt>
      <trkpt lat="48.63984" lon="-2.3135">
        <ele>50</ele>
        <time>2020-06-24T11:25:51.077Z</time>
      </trkpt>
      <trkpt lat="48.63984" lon="-2.31351">
        <ele>49</ele>
        <time>2020-06-24T11:25:52.077Z</time>
      </trkpt>
      <trkpt lat="48.63984" lon="-2.31352">
        <ele>49</ele>
        <time>2020-06-24T11:25:53.077Z</time>
      </trkpt>
      <trkpt lat="48.63985" lon="-2.31354">
        <ele>50</ele>
        <time>2020-06-24T11:25:54.077Z</time>
      </trkpt>
      <trkpt lat="48.63985" lon="-2.31355">
        <ele>50</ele>
        <time>2020-06-24T11:25:55.077Z</time>
      </trkpt>
      <trkpt lat="48.63986" lon="-2.31357">
        <ele>50</ele>
        <time>2020-06-24T11:25:56.077Z</time>
      </trkpt>
      <trkpt lat="48.63986" lon="-2.31358">
        <ele>51</ele>
        <time>2020-06-24T11:25:57.077Z</time>
      </trkpt>
      <trkpt lat="48.63987" lon="-2.31359">
        <ele>51</ele>
        <time>2020-06-24T11:25:58.077Z</time>
      </trkpt>
      <trkpt lat="48.63987" lon="-2.3136">
        <ele>51</ele>
        <time>2020-06-24T11:25:59.077Z</time>
      </trkpt>
      <trkpt lat="48.63988" lon="-2.31361">
        <ele>51</ele>
        <time>2020-06-24T11:26:00.077Z</time>
      </trkpt>
      <trkpt lat="48.63988" lon="-2.31362">
        <ele>51</ele>
        <time>2020-06-24T11:26:01.077Z</time>
      </trkpt>
      <trkpt lat="48.63989" lon="-2.31363">
        <ele>52</ele>
        <time>2020-06-24T11:26:02.077Z</time>
      </trkpt>
      <trkpt lat="48.6399" lon="-2.31363">
        <ele>52</ele>
        <time>2020-06-24T11:26:03.077Z</time>
      </trkpt>
      <trkpt lat="48.63991" lon="-2.31364">
        <ele>53</ele>
        <time>2020-06-24T11:26:04.077Z</time>
      </trkpt>
      <trkpt lat="48.63992" lon="-2.31365">
        <ele>53</ele>
        <time>2020-06-24T11:26:05.077Z</time>
      </trkpt>
      <trkpt lat="48.63993" lon="-2.31366">
        <ele>53</ele>
        <time>2020-06-24T11:26:06.077Z</time>
      </trkpt>
      <trkpt lat="48.63994" lon="-2.31368">
        <ele>53</ele>
        <time>2020-06-24T11:26:07.077Z</time>
      </trkpt>
      <trkpt lat="48.63994" lon="-2.31369">
        <ele>53</ele>
        <time>2020-06-24T11:26:08.077Z</time>
      </trkpt>
      <trkpt lat="48.63995" lon="-2.3137">
        <ele>54</ele>
        <time>2020-06-24T11:26:09.077Z</time>
      </trkpt>
      <trkpt lat="48.63996" lon="-2.31371">
        <ele>54</ele>
        <time>2020-06-24T11:26:10.077Z</time>
      </trkpt>
      <trkpt lat="48.63996" lon="-2.31372">
        <ele>54</ele>
        <time>2020-06-24T11:26:11.077Z</time>
      </trkpt>
      <trkpt lat="48.63997" lon="-2.31372">
        <ele>54</ele>
        <time>2020-06-24T11:26:12.077Z</time>
      </trkpt>
      <trkpt lat="48.63997" lon="-2.31373">
        <ele>55</ele>
        <time>2020-06-24T11:26:13.077Z</time>
      </trkpt>
      <trkpt lat="48.63998" lon="-2.31373">
        <ele>56</ele>
        <time>2020-06-24T11:26:14.077Z</time>
      </trkpt>
      <trkpt lat="48.63999" lon="-2.31374">
        <ele>56</ele>
        <time>2020-06-24T11:26:15.077Z</time>
      </trkpt>
      <trkpt lat="48.63999" lon="-2.31374">
        <ele>57</ele>
        <time>2020-06-24T11:26:16.077Z</time>
      </trkpt>
      <trkpt lat="48.64" lon="-2.31375">
        <ele>59</ele>
        <time>2020-06-24T11:26:17.077Z</time>
      </trkpt>
      <trkpt lat="48.64" lon="-2.31375">
        <ele>59</ele>
        <time>2020-06-24T11:26:18.077Z</time>
      </trkpt>
      <trkpt lat="48.64001" lon="-2.31376">
        <ele>59</ele>
        <time>2020-06-24T11:26:19.077Z</time>
      </trkpt>
      <trkpt lat="48.64002" lon="-2.31377">
        <ele>60</ele>
        <time>2020-06-24T11:26:20.077Z</time>
      </trkpt>
      <trkpt lat="48.64002" lon="-2.31377">
        <ele>61</ele>
        <time>2020-06-24T11:26:21.077Z</time>
      </trkpt>
      <trkpt lat="48.64003" lon="-2.31378">
        <ele>62</ele>
        <time>2020-06-24T11:26:22.077Z</time>
      </trkpt>
      <trkpt lat="48.64003" lon="-2.31379">
        <ele>63</ele>
        <time>2020-06-24T11:26:23.077Z</time>
      </trkpt>
      <trkpt lat="48.64004" lon="-2.3138">
        <ele>64</ele>
        <time>2020-06-24T11:26:24.077Z</time>
      </trkpt>
      <trkpt lat="48.64005" lon="-2.3138">
        <ele>64</ele>
        <time>2020-06-24T11:26:25.077Z</time>
      </trkpt>
      <trkpt lat="48.64006" lon="-2.31381">
        <ele>64</ele>
        <time>2020-06-24T11:26:26.077Z</time>
      </trkpt>
      <trkpt lat="48.64007" lon="-2.31381">
        <ele>64</ele>
        <time>2020-06-24T11:26:27.077Z</time>
      </trkpt>
      <trkpt lat="48.64008" lon="-2.31381">
        <ele>63</ele>
        <time>2020-06-24T11:26:28.077Z</time>
      </trkpt>
      <trkpt lat="48.64009" lon="-2.31381">
        <ele>63</ele>
        <time>2020-06-24T11:26:29.077Z</time>
      </trkpt>
      <trkpt lat="48.64011" lon="-2.31381">
        <ele>64</ele>
        <time>2020-06-24T11:26:30.077Z</time>
      </trkpt>
      <trkpt lat="48.64012" lon="-2.31382">
        <ele>64</ele>
        <time>2020-06-24T11:26:31.077Z</time>
      </trkpt>
      <trkpt lat="48.64012" lon="-2.31383">
        <ele>64</ele>
        <time>2020-06-24T11:26:32.077Z</time>
      </trkpt>
      <trkpt lat="48.64013" lon="-2.31384">
        <ele>65</ele>
        <time>2020-06-24T11:26:33.077Z</time>
      </trkpt>
      <trkpt lat="48.64014" lon="-2.31385">
        <ele>65</ele>
        <time>2020-06-24T11:26:34.077Z</time>
      </trkpt>
      <trkpt lat="48.64015" lon="-2.31386">
        <ele>64</ele>
        <time>2020-06-24T11:26:35.077Z</time>
      </trkpt>
      <trkpt lat="48.64016" lon="-2.31387">
        <ele>64</ele>
        <time>2020-06-24T11:26:36.077Z</time>
      </trkpt>
      <trkpt lat="48.64017" lon="-2.31388">
        <ele>64</ele>
        <time>2020-06-24T11:26:37.077Z</time>
      </trkpt>
      <trkpt lat="48.64018" lon="-2.31389">
        <ele>64</ele>
        <time>2020-06-24T11:26:38.077Z</time>
      </trkpt>
      <trkpt lat="48.64019" lon="-2.3139">
        <ele>64</ele>
        <time>2020-06-24T11:26:39.077Z</time>
      </trkpt>
      <trkpt lat="48.6402" lon="-2.31391">
        <ele>64</ele>
        <time>2020-06-24T11:26:40.077Z</time>
      </trkpt>
      <trkpt lat="48.64021" lon="-2.31392">
        <ele>64</ele>
        <time>2020-06-24T11:26:41.077Z</time>
      </trkpt>
      <trkpt lat="48.64022" lon="-2.31393">
        <ele>64</ele>
        <time>2020-06-24T11:26:42.077Z</time>
      </trkpt>
      <trkpt lat="48.64023" lon="-2.31394">
        <ele>64</ele>
        <time>2020-06-24T11:26:43.077Z</time>
      </trkpt>
      <trkpt lat="48.64025" lon="-2.31394">
        <ele>63</ele>
        <time>2020-06-24T11:26:44.077Z</time>
      </trkpt>
      <trkpt lat="48.64026" lon="-2.31395">
        <ele>63</ele>
        <time>2020-06-24T11:26:45.077Z</time>
      </trkpt>
      <trkpt lat="48.64027" lon="-2.31396">
        <ele>63</ele>
        <time>2020-06-24T11:26:46.077Z</time>
      </trkpt>
      <trkpt lat="48.64028" lon="-2.31397">
        <ele>62</ele>
        <time>2020-06-24T11:26:47.077Z</time>
      </trkpt>
      <trkpt lat="48.64029" lon="-2.31398">
        <ele>62</ele>
        <time>2020-06-24T11:26:48.077Z</time>
      </trkpt>
      <trkpt lat="48.6403" lon="-2.31399">
        <ele>63</ele>
        <time>2020-06-24T11:26:49.077Z</time>
      </trkpt>
      <trkpt lat="48.64031" lon="-2.314">
        <ele>62</ele>
        <time>2020-06-24T11:26:50.077Z</time>
      </trkpt>
      <trkpt lat="48.64032" lon="-2.31402">
        <ele>60</ele>
        <time>2020-06-24T11:26:51.077Z</time>
      </trkpt>
      <trkpt lat="48.64034" lon="-2.31403">
        <ele>59</ele>
        <time>2020-06-24T11:26:52.077Z</time>
      </trkpt>
      <trkpt lat="48.64035" lon="-2.31405">
        <ele>58</ele>
        <time>2020-06-24T11:26:53.077Z</time>
      </trkpt>
      <trkpt lat="48.64037" lon="-2.31407">
        <ele>57</ele>
        <time>2020-06-24T11:26:54.077Z</time>
      </trkpt>
      <trkpt lat="48.64038" lon="-2.31409">
        <ele>56</ele>
        <time>2020-06-24T11:26:55.077Z</time>
      </trkpt>
      <trkpt lat="48.64039" lon="-2.3141">
        <ele>55</ele>
        <time>2020-06-24T11:26:56.077Z</time>
      </trkpt>
      <trkpt lat="48.6404" lon="-2.31411">
        <ele>55</ele>
        <time>2020-06-24T11:26:57.077Z</time>
      </trkpt>
      <trkpt lat="48.64041" lon="-2.31413">
        <ele>55</ele>
        <time>2020-06-24T11:26:58.077Z</time>
      </trkpt>
      <trkpt lat="48.64042" lon="-2.31415">
        <ele>54</ele>
        <time>2020-06-24T11:26:59.077Z</time>
      </trkpt>
      <trkpt lat="48.64043" lon="-2.31416">
        <ele>54</ele>
        <time>2020-06-24T11:27:00.077Z</time>
      </trkpt>
      <trkpt lat="48.64044" lon="-2.31418">
        <ele>52</ele>
        <time>2020-06-24T11:27:01.077Z</time>
      </trkpt>
      <trkpt lat="48.64044" lon="-2.31419">
        <ele>52</ele>
        <time>2020-06-24T11:27:02.077Z</time>
      </trkpt>
      <trkpt lat="48.64045" lon="-2.3142">
        <ele>51</ele>
        <time>2020-06-24T11:27:03.077Z</time>
      </trkpt>
      <trkpt lat="48.64046" lon="-2.31422">
        <ele>50</ele>
        <time>2020-06-24T11:27:04.077Z</time>
      </trkpt>
      <trkpt lat="48.64047" lon="-2.31423">
        <ele>49</ele>
        <time>2020-06-24T11:27:05.077Z</time>
      </trkpt>
      <trkpt lat="48.64048" lon="-2.31425">
        <ele>49</ele>
        <time>2020-06-24T11:27:06.077Z</time>
      </trkpt>
      <trkpt lat="48.64049" lon="-2.31426">
        <ele>48</ele>
        <time>2020-06-24T11:27:07.077Z</time>
      </trkpt>
      <trkpt lat="48.64049" lon="-2.31427">
        <ele>48</ele>
        <time>2020-06-24T11:27:08.077Z</time>
      </trkpt>
      <trkpt lat="48.6405" lon="-2.31429">
        <ele>47</ele>
        <time>2020-06-24T11:27:09.077Z</time>
      </trkpt>
      <trkpt lat="48.64051" lon="-2.3143">
        <ele>48</ele>
        <time>2020-06-24T11:27:10.077Z</time>
      </trkpt>
      <trkpt lat="48.64052" lon="-2.31431">
        <ele>47</ele>
        <time>2020-06-24T11:27:11.077Z</time>
      </trkpt>
      <trkpt lat="48.64053" lon="-2.31433">
        <ele>47</ele>
        <time>2020-06-24T11:27:12.077Z</time>
      </trkpt>
      <trkpt lat="48.64053" lon="-2.31434">
        <ele>47</ele>
        <time>2020-06-24T11:27:13.077Z</time>
      </trkpt>
      <trkpt lat="48.64054" lon="-2.31435">
        <ele>47</ele>
        <time>2020-06-24T11:27:14.077Z</time>
      </trkpt>
      <trkpt lat="48.64055" lon="-2.31436">
        <ele>47</ele>
        <time>2020-06-24T11:27:15.077Z</time>
      </trkpt>
      <trkpt lat="48.64055" lon="-2.31437">
        <ele>47</ele>
        <time>2020-06-24T11:27:16.077Z</time>
      </trkpt>
      <trkpt lat="48.64056" lon="-2.31438">
        <ele>46</ele>
        <time>2020-06-24T11:27:17.077Z</time>
      </trkpt>
      <trkpt lat="48.64057" lon="-2.31439">
        <ele>46</ele>
        <time>2020-06-24T11:27:18.077Z</time>
      </trkpt>
      <trkpt lat="48.64057" lon="-2.31439">
        <ele>46</ele>
        <time>2020-06-24T11:27:19.077Z</time>
      </trkpt>
      <trkpt lat="48.64058" lon="-2.3144">
        <ele>46</ele>
        <time>2020-06-24T11:27:20.077Z</time>
      </trkpt>
      <trkpt lat="48.64059" lon="-2.31441">
        <ele>46</ele>
        <time>2020-06-24T11:27:21.077Z</time>
      </trkpt>
      <trkpt lat="48.6406" lon="-2.31441">
        <ele>47</ele>
        <time>2020-06-24T11:27:22.077Z</time>
      </trkpt>
      <trkpt lat="48.64061" lon="-2.31442">
        <ele>46</ele>
        <time>2020-06-24T11:27:23.077Z</time>
      </trkpt>
      <trkpt lat="48.64062" lon="-2.31443">
        <ele>46</ele>
        <time>2020-06-24T11:27:24.077Z</time>
      </trkpt>
      <trkpt lat="48.64063" lon="-2.31444">
        <ele>46</ele>
        <time>2020-06-24T11:27:25.077Z</time>
      </trkpt>
      <trkpt lat="48.64064" lon="-2.31445">
        <ele>46</ele>
        <time>2020-06-24T11:27:26.077Z</time>
      </trkpt>
      <trkpt lat="48.64064" lon="-2.31446">
        <ele>46</ele>
        <time>2020-06-24T11:27:27.077Z</time>
      </trkpt>
      <trkpt lat="48.64065" lon="-2.31447">
        <ele>46</ele>
        <time>2020-06-24T11:27:28.077Z</time>
      </trkpt>
      <trkpt lat="48.64066" lon="-2.31448">
        <ele>46</ele>
        <time>2020-06-24T11:27:29.077Z</time>
      </trkpt>
      <trkpt lat="48.64067" lon="-2.3145">
        <ele>47</ele>
        <time>2020-06-24T11:27:30.077Z</time>
      </trkpt>
      <trkpt lat="48.64069" lon="-2.31451">
        <ele>48</ele>
        <time>2020-06-24T11:27:31.077Z</time>
      </trkpt>
      <trkpt lat="48.6407" lon="-2.31452">
        <ele>48</ele>
        <time>2020-06-24T11:27:32.077Z</time>
      </trkpt>
      <trkpt lat="48.64071" lon="-2.31453">
        <ele>48</ele>
        <time>2020-06-24T11:27:33.077Z</time>
      </trkpt>
      <trkpt lat="48.64072" lon="-2.31454">
        <ele>48</ele>
        <time>2020-06-24T11:27:34.077Z</time>
      </trkpt>
      <trkpt lat="48.64073" lon="-2.31455">
        <ele>49</ele>
        <time>2020-06-24T11:27:35.077Z</time>
      </trkpt>
      <trkpt lat="48.64074" lon="-2.31457">
        <ele>49</ele>
        <time>2020-06-24T11:27:36.077Z</time>
      </trkpt>
      <trkpt lat="48.64075" lon="-2.31458">
        <ele>49</ele>
        <time>2020-06-24T11:27:37.077Z</time>
      </trkpt>
      <trkpt lat="48.64076" lon="-2.3146">
        <ele>50</ele>
        <time>2020-06-24T11:27:38.077Z</time>
      </trkpt>
      <trkpt lat="48.64077" lon="-2.31461">
        <ele>50</ele>
        <time>2020-06-24T11:27:39.077Z</time>
      </trkpt>
      <trkpt lat="48.64078" lon="-2.31462">
        <ele>50</ele>
        <time>2020-06-24T11:27:40.077Z</time>
      </trkpt>
      <trkpt lat="48.64079" lon="-2.31464">
        <ele>51</ele>
        <time>2020-06-24T11:27:41.077Z</time>
      </trkpt>
      <trkpt lat="48.64079" lon="-2.31465">
        <ele>51</ele>
        <time>2020-06-24T11:27:42.077Z</time>
      </trkpt>
      <trkpt lat="48.6408" lon="-2.31466">
        <ele>51</ele>
        <time>2020-06-24T11:27:43.077Z</time>
      </trkpt>
      <trkpt lat="48.64081" lon="-2.31467">
        <ele>50</ele>
        <time>2020-06-24T11:27:44.077Z</time>
      </trkpt>
      <trkpt lat="48.64081" lon="-2.31468">
        <ele>51</ele>
        <time>2020-06-24T11:27:45.077Z</time>
      </trkpt>
      <trkpt lat="48.64082" lon="-2.31469">
        <ele>51</ele>
        <time>2020-06-24T11:27:46.077Z</time>
      </trkpt>
      <trkpt lat="48.64083" lon="-2.31469">
        <ele>51</ele>
        <time>2020-06-24T11:27:47.077Z</time>
      </trkpt>
      <trkpt lat="48.64083" lon="-2.3147">
        <ele>50</ele>
        <time>2020-06-24T11:27:48.077Z</time>
      </trkpt>
      <trkpt lat="48.64084" lon="-2.31471">
        <ele>50</ele>
        <time>2020-06-24T11:27:49.077Z</time>
      </trkpt>
      <trkpt lat="48.64084" lon="-2.31471">
        <ele>49</ele>
        <time>2020-06-24T11:27:50.077Z</time>
      </trkpt>
      <trkpt lat="48.64085" lon="-2.31472">
        <ele>49</ele>
        <time>2020-06-24T11:27:51.077Z</time>
      </trkpt>
      <trkpt lat="48.64086" lon="-2.31472">
        <ele>49</ele>
        <time>2020-06-24T11:27:52.077Z</time>
      </trkpt>
      <trkpt lat="48.64087" lon="-2.31473">
        <ele>48</ele>
        <time>2020-06-24T11:27:53.077Z</time>
      </trkpt>
      <trkpt lat="48.64087" lon="-2.31474">
        <ele>49</ele>
        <time>2020-06-24T11:27:54.077Z</time>
      </trkpt>
      <trkpt lat="48.64088" lon="-2.31475">
        <ele>49</ele>
        <time>2020-06-24T11:27:55.077Z</time>
      </trkpt>
      <trkpt lat="48.64089" lon="-2.31476">
        <ele>49</ele>
        <time>2020-06-24T11:27:56.077Z</time>
      </trkpt>
      <trkpt lat="48.6409" lon="-2.31477">
        <ele>48</ele>
        <time>2020-06-24T11:27:57.077Z</time>
      </trkpt>
      <trkpt lat="48.64091" lon="-2.31478">
        <ele>45</ele>
        <time>2020-06-24T11:27:58.077Z</time>
      </trkpt>
      <trkpt lat="48.64093" lon="-2.31479">
        <ele>44</ele>
        <time>2020-06-24T11:27:59.077Z</time>
      </trkpt>
      <trkpt lat="48.64095" lon="-2.3148">
        <ele>43</ele>
        <time>2020-06-24T11:28:00.077Z</time>
      </trkpt>
      <trkpt lat="48.64096" lon="-2.31482">
        <ele>41</ele>
        <time>2020-06-24T11:28:01.077Z</time>
      </trkpt>
      <trkpt lat="48.64098" lon="-2.31483">
        <ele>41</ele>
        <time>2020-06-24T11:28:02.077Z</time>
      </trkpt>
      <trkpt lat="48.64099" lon="-2.31485">
        <ele>41</ele>
        <time>2020-06-24T11:28:03.077Z</time>
      </trkpt>
      <trkpt lat="48.641" lon="-2.31486">
        <ele>41</ele>
        <time>2020-06-24T11:28:04.077Z</time>
      </trkpt>
      <trkpt lat="48.64102" lon="-2.31486">
        <ele>40</ele>
        <time>2020-06-24T11:28:05.077Z</time>
      </trkpt>
      <trkpt lat="48.64103" lon="-2.31486">
        <ele>40</ele>
        <time>2020-06-24T11:28:06.077Z</time>
      </trkpt>
      <trkpt lat="48.64104" lon="-2.31486">
        <ele>41</ele>
        <time>2020-06-24T11:28:07.077Z</time>
      </trkpt>
      <trkpt lat="48.64106" lon="-2.31486">
        <ele>41</ele>
        <time>2020-06-24T11:28:08.077Z</time>
      </trkpt>
      <trkpt lat="48.64107" lon="-2.31486">
        <ele>41</ele>
        <time>2020-06-24T11:28:09.077Z</time>
      </trkpt>
      <trkpt lat="48.64108" lon="-2.31486">
        <ele>41</ele>
        <time>2020-06-24T11:28:10.077Z</time>
      </trkpt>
      <trkpt lat="48.6411" lon="-2.31486">
        <ele>41</ele>
        <time>2020-06-24T11:28:11.077Z</time>
      </trkpt>
      <trkpt lat="48.64111" lon="-2.31485">
        <ele>41</ele>
        <time>2020-06-24T11:28:12.077Z</time>
      </trkpt>
      <trkpt lat="48.64113" lon="-2.31484">
        <ele>41</ele>
        <time>2020-06-24T11:28:13.077Z</time>
      </trkpt>
      <trkpt lat="48.64115" lon="-2.31484">
        <ele>41</ele>
        <time>2020-06-24T11:28:14.077Z</time>
      </trkpt>
      <trkpt lat="48.64117" lon="-2.31484">
        <ele>41</ele>
        <time>2020-06-24T11:28:15.077Z</time>
      </trkpt>
      <trkpt lat="48.64118" lon="-2.31484">
        <ele>41</ele>
        <time>2020-06-24T11:28:16.077Z</time>
      </trkpt>
      <trkpt lat="48.6412" lon="-2.31484">
        <ele>41</ele>
        <time>2020-06-24T11:28:17.077Z</time>
      </trkpt>
      <trkpt lat="48.64121" lon="-2.31483">
        <ele>41</ele>
        <time>2020-06-24T11:28:18.077Z</time>
      </trkpt>
      <trkpt lat="48.64122" lon="-2.31483">
        <ele>41</ele>
        <time>2020-06-24T11:28:19.077Z</time>
      </trkpt>
      <trkpt lat="48.64124" lon="-2.31483">
        <ele>41</ele>
        <time>2020-06-24T11:28:20.077Z</time>
      </trkpt>
      <trkpt lat="48.64125" lon="-2.31483">
        <ele>42</ele>
        <time>2020-06-24T11:28:21.077Z</time>
      </trkpt>
      <trkpt lat="48.64127" lon="-2.31483">
        <ele>44</ele>
        <time>2020-06-24T11:28:22.077Z</time>
      </trkpt>
      <trkpt lat="48.64128" lon="-2.31484">
        <ele>44</ele>
        <time>2020-06-24T11:28:23.077Z</time>
      </trkpt>
      <trkpt lat="48.64129" lon="-2.31486">
        <ele>44</ele>
        <time>2020-06-24T11:28:24.077Z</time>
      </trkpt>
      <trkpt lat="48.64131" lon="-2.31486">
        <ele>45</ele>
        <time>2020-06-24T11:28:25.077Z</time>
      </trkpt>
      <trkpt lat="48.64131" lon="-2.31488">
        <ele>45</ele>
        <time>2020-06-24T11:28:26.077Z</time>
      </trkpt>
      <trkpt lat="48.64132" lon="-2.31489">
        <ele>45</ele>
        <time>2020-06-24T11:28:27.077Z</time>
      </trkpt>
      <trkpt lat="48.64132" lon="-2.3149">
        <ele>45</ele>
        <time>2020-06-24T11:28:28.077Z</time>
      </trkpt>
      <trkpt lat="48.64133" lon="-2.31492">
        <ele>46</ele>
        <time>2020-06-24T11:28:29.077Z</time>
      </trkpt>
      <trkpt lat="48.64133" lon="-2.31493">
        <ele>47</ele>
        <time>2020-06-24T11:28:30.077Z</time>
      </trkpt>
      <trkpt lat="48.64133" lon="-2.31495">
        <ele>48</ele>
        <time>2020-06-24T11:28:31.077Z</time>
      </trkpt>
      <trkpt lat="48.64133" lon="-2.31496">
        <ele>48</ele>
        <time>2020-06-24T11:28:32.077Z</time>
      </trkpt>
      <trkpt lat="48.64134" lon="-2.31497">
        <ele>49</ele>
        <time>2020-06-24T11:28:33.077Z</time>
      </trkpt>
      <trkpt lat="48.64134" lon="-2.31498">
        <ele>49</ele>
        <time>2020-06-24T11:28:34.077Z</time>
      </trkpt>
      <trkpt lat="48.64133" lon="-2.31499">
        <ele>50</ele>
        <time>2020-06-24T11:28:35.077Z</time>
      </trkpt>
      <trkpt lat="48.64133" lon="-2.315">
        <ele>50</ele>
        <time>2020-06-24T11:28:36.077Z</time>
      </trkpt>
      <trkpt lat="48.64133" lon="-2.31501">
        <ele>51</ele>
        <time>2020-06-24T11:28:37.077Z</time>
      </trkpt>
      <trkpt lat="48.64132" lon="-2.31502">
        <ele>51</ele>
        <time>2020-06-24T11:28:38.077Z</time>
      </trkpt>
      <trkpt lat="48.64132" lon="-2.31502">
        <ele>51</ele>
        <time>2020-06-24T11:28:39.077Z</time>
      </trkpt>
      <trkpt lat="48.64131" lon="-2.31503">
        <ele>50</ele>
        <time>2020-06-24T11:28:40.077Z</time>
      </trkpt>
      <trkpt lat="48.6413" lon="-2.31504">
        <ele>50</ele>
        <time>2020-06-24T11:28:41.077Z</time>
      </trkpt>
      <trkpt lat="48.6413" lon="-2.31505">
        <ele>49</ele>
        <time>2020-06-24T11:28:42.077Z</time>
      </trkpt>
      <trkpt lat="48.64129" lon="-2.31506">
        <ele>48</ele>
        <time>2020-06-24T11:28:43.077Z</time>
      </trkpt>
      <trkpt lat="48.64129" lon="-2.31507">
        <ele>48</ele>
        <time>2020-06-24T11:28:44.077Z</time>
      </trkpt>
      <trkpt lat="48.64128" lon="-2.31508">
        <ele>48</ele>
        <time>2020-06-24T11:28:45.077Z</time>
      </trkpt>
      <trkpt lat="48.64127" lon="-2.31509">
        <ele>48</ele>
        <time>2020-06-24T11:28:46.077Z</time>
      </trkpt>
      <trkpt lat="48.64127" lon="-2.3151">
        <ele>49</ele>
        <time>2020-06-24T11:28:47.077Z</time>
      </trkpt>
      <trkpt lat="48.64126" lon="-2.31511">
        <ele>49</ele>
        <time>2020-06-24T11:28:48.077Z</time>
      </trkpt>
      <trkpt lat="48.64125" lon="-2.31513">
        <ele>48</ele>
        <time>2020-06-24T11:28:49.077Z</time>
      </trkpt>
      <trkpt lat="48.64124" lon="-2.31515">
        <ele>48</ele>
        <time>2020-06-24T11:28:50.077Z</time>
      </trkpt>
      <trkpt lat="48.64123" lon="-2.31516">
        <ele>48</ele>
        <time>2020-06-24T11:28:51.077Z</time>
      </trkpt>
      <trkpt lat="48.64122" lon="-2.31518">
        <ele>48</ele>
        <time>2020-06-24T11:28:52.077Z</time>
      </trkpt>
      <trkpt lat="48.64122" lon="-2.3152">
        <ele>47</ele>
        <time>2020-06-24T11:28:53.077Z</time>
      </trkpt>
      <trkpt lat="48.64121" lon="-2.31521">
        <ele>47</ele>
        <time>2020-06-24T11:28:54.077Z</time>
      </trkpt>
      <trkpt lat="48.6412" lon="-2.31523">
        <ele>47</ele>
        <time>2020-06-24T11:28:55.077Z</time>
      </trkpt>
      <trkpt lat="48.64119" lon="-2.31525">
        <ele>48</ele>
        <time>2020-06-24T11:28:56.077Z</time>
      </trkpt>
      <trkpt lat="48.64119" lon="-2.31526">
        <ele>48</ele>
        <time>2020-06-24T11:28:57.077Z</time>
      </trkpt>
      <trkpt lat="48.64119" lon="-2.31528">
        <ele>48</ele>
        <time>2020-06-24T11:28:58.077Z</time>
      </trkpt>
      <trkpt lat="48.64118" lon="-2.31529">
        <ele>48</ele>
        <time>2020-06-24T11:28:59.077Z</time>
      </trkpt>
      <trkpt lat="48.64118" lon="-2.31531">
        <ele>48</ele>
        <time>2020-06-24T11:29:00.077Z</time>
      </trkpt>
      <trkpt lat="48.64118" lon="-2.31533">
        <ele>47</ele>
        <time>2020-06-24T11:29:01.077Z</time>
      </trkpt>
      <trkpt lat="48.64117" lon="-2.31535">
        <ele>48</ele>
        <time>2020-06-24T11:29:02.077Z</time>
      </trkpt>
      <trkpt lat="48.64117" lon="-2.31536">
        <ele>48</ele>
        <time>2020-06-24T11:29:03.077Z</time>
      </trkpt>
      <trkpt lat="48.64117" lon="-2.31538">
        <ele>48</ele>
        <time>2020-06-24T11:29:04.077Z</time>
      </trkpt>
      <trkpt lat="48.64117" lon="-2.3154">
        <ele>48</ele>
        <time>2020-06-24T11:29:05.077Z</time>
      </trkpt>
      <trkpt lat="48.64117" lon="-2.31542">
        <ele>48</ele>
        <time>2020-06-24T11:29:06.077Z</time>
      </trkpt>
      <trkpt lat="48.64117" lon="-2.31543">
        <ele>48</ele>
        <time>2020-06-24T11:29:07.077Z</time>
      </trkpt>
      <trkpt lat="48.64117" lon="-2.31545">
        <ele>48</ele>
        <time>2020-06-24T11:29:08.077Z</time>
      </trkpt>
      <trkpt lat="48.64117" lon="-2.31546">
        <ele>47</ele>
        <time>2020-06-24T11:29:09.077Z</time>
      </trkpt>
      <trkpt lat="48.64117" lon="-2.31548">
        <ele>47</ele>
        <time>2020-06-24T11:29:10.077Z</time>
      </trkpt>
      <trkpt lat="48.64116" lon="-2.31549">
        <ele>47</ele>
        <time>2020-06-24T11:29:11.077Z</time>
      </trkpt>
      <trkpt lat="48.64116" lon="-2.31551">
        <ele>47</ele>
        <time>2020-06-24T11:29:12.077Z</time>
      </trkpt>
      <trkpt lat="48.64116" lon="-2.31553">
        <ele>47</ele>
        <time>2020-06-24T11:29:13.077Z</time>
      </trkpt>
      <trkpt lat="48.64116" lon="-2.31554">
        <ele>47</ele>
        <time>2020-06-24T11:29:14.077Z</time>
      </trkpt>
      <trkpt lat="48.64116" lon="-2.31556">
        <ele>47</ele>
        <time>2020-06-24T11:29:15.077Z</time>
      </trkpt>
      <trkpt lat="48.64116" lon="-2.31558">
        <ele>48</ele>
        <time>2020-06-24T11:29:16.077Z</time>
      </trkpt>
      <trkpt lat="48.64116" lon="-2.31559">
        <ele>48</ele>
        <time>2020-06-24T11:29:17.077Z</time>
      </trkpt>
      <trkpt lat="48.64117" lon="-2.31561">
        <ele>48</ele>
        <time>2020-06-24T11:29:18.077Z</time>
      </trkpt>
      <trkpt lat="48.64118" lon="-2.31562">
        <ele>48</ele>
        <time>2020-06-24T11:29:19.077Z</time>
      </trkpt>
      <trkpt lat="48.64119" lon="-2.31564">
        <ele>49</ele>
        <time>2020-06-24T11:29:20.077Z</time>
      </trkpt>
      <trkpt lat="48.64119" lon="-2.31565">
        <ele>49</ele>
        <time>2020-06-24T11:29:21.077Z</time>
      </trkpt>
      <trkpt lat="48.6412" lon="-2.31567">
        <ele>50</ele>
        <time>2020-06-24T11:29:22.077Z</time>
      </trkpt>
      <trkpt lat="48.6412" lon="-2.31569">
        <ele>49</ele>
        <time>2020-06-24T11:29:23.077Z</time>
      </trkpt>
      <trkpt lat="48.64121" lon="-2.3157">
        <ele>49</ele>
        <time>2020-06-24T11:29:24.077Z</time>
      </trkpt>
      <trkpt lat="48.64122" lon="-2.31572">
        <ele>50</ele>
        <time>2020-06-24T11:29:25.077Z</time>
      </trkpt>
      <trkpt lat="48.64123" lon="-2.31573">
        <ele>50</ele>
        <time>2020-06-24T11:29:26.077Z</time>
      </trkpt>
      <trkpt lat="48.64124" lon="-2.31574">
        <ele>50</ele>
        <time>2020-06-24T11:29:27.077Z</time>
      </trkpt>
      <trkpt lat="48.64125" lon="-2.31576">
        <ele>50</ele>
        <time>2020-06-24T11:29:28.077Z</time>
      </trkpt>
      <trkpt lat="48.64127" lon="-2.31577">
        <ele>50</ele>
        <time>2020-06-24T11:29:29.077Z</time>
      </trkpt>
      <trkpt lat="48.64128" lon="-2.31578">
        <ele>51</ele>
        <time>2020-06-24T11:29:30.077Z</time>
      </trkpt>
      <trkpt lat="48.64129" lon="-2.3158">
        <ele>51</ele>
        <time>2020-06-24T11:29:31.077Z</time>
      </trkpt>
      <trkpt lat="48.64131" lon="-2.31581">
        <ele>51</ele>
        <time>2020-06-24T11:29:32.077Z</time>
      </trkpt>
      <trkpt lat="48.64132" lon="-2.31583">
        <ele>52</ele>
        <time>2020-06-24T11:29:33.077Z</time>
      </trkpt>
      <trkpt lat="48.64133" lon="-2.31584">
        <ele>51</ele>
        <time>2020-06-24T11:29:34.077Z</time>
      </trkpt>
      <trkpt lat="48.64133" lon="-2.31586">
        <ele>51</ele>
        <time>2020-06-24T11:29:35.077Z</time>
      </trkpt>
      <trkpt lat="48.64134" lon="-2.31587">
        <ele>51</ele>
        <time>2020-06-24T11:29:36.077Z</time>
      </trkpt>
      <trkpt lat="48.64135" lon="-2.31589">
        <ele>51</ele>
        <time>2020-06-24T11:29:37.077Z</time>
      </trkpt>
      <trkpt lat="48.64135" lon="-2.31591">
        <ele>51</ele>
        <time>2020-06-24T11:29:38.077Z</time>
      </trkpt>
      <trkpt lat="48.64136" lon="-2.31592">
        <ele>51</ele>
        <time>2020-06-24T11:29:39.077Z</time>
      </trkpt>
      <trkpt lat="48.64137" lon="-2.31594">
        <ele>51</ele>
        <time>2020-06-24T11:29:40.077Z</time>
      </trkpt>
      <trkpt lat="48.64138" lon="-2.31595">
        <ele>51</ele>
        <time>2020-06-24T11:29:41.077Z</time>
      </trkpt>
      <trkpt lat="48.64139" lon="-2.31596">
        <ele>51</ele>
        <time>2020-06-24T11:29:42.077Z</time>
      </trkpt>
      <trkpt lat="48.6414" lon="-2.31597">
        <ele>51</ele>
        <time>2020-06-24T11:29:43.077Z</time>
      </trkpt>
      <trkpt lat="48.64141" lon="-2.31598">
        <ele>51</ele>
        <time>2020-06-24T11:29:44.077Z</time>
      </trkpt>
      <trkpt lat="48.64142" lon="-2.31599">
        <ele>51</ele>
        <time>2020-06-24T11:29:45.077Z</time>
      </trkpt>
      <trkpt lat="48.64143" lon="-2.31601">
        <ele>51</ele>
        <time>2020-06-24T11:29:46.077Z</time>
      </trkpt>
      <trkpt lat="48.64143" lon="-2.31602">
        <ele>51</ele>
        <time>2020-06-24T11:29:47.077Z</time>
      </trkpt>
      <trkpt lat="48.64144" lon="-2.31603">
        <ele>51</ele>
        <time>2020-06-24T11:29:48.077Z</time>
      </trkpt>
      <trkpt lat="48.64145" lon="-2.31604">
        <ele>50</ele>
        <time>2020-06-24T11:29:49.077Z</time>
      </trkpt>
      <trkpt lat="48.64146" lon="-2.31605">
        <ele>50</ele>
        <time>2020-06-24T11:29:50.077Z</time>
      </trkpt>
      <trkpt lat="48.64147" lon="-2.31607">
        <ele>50</ele>
        <time>2020-06-24T11:29:51.077Z</time>
      </trkpt>
      <trkpt lat="48.64148" lon="-2.31608">
        <ele>50</ele>
        <time>2020-06-24T11:29:52.077Z</time>
      </trkpt>
      <trkpt lat="48.64149" lon="-2.3161">
        <ele>50</ele>
        <time>2020-06-24T11:29:53.077Z</time>
      </trkpt>
      <trkpt lat="48.6415" lon="-2.31611">
        <ele>50</ele>
        <time>2020-06-24T11:29:54.077Z</time>
      </trkpt>
      <trkpt lat="48.6415" lon="-2.31613">
        <ele>49</ele>
        <time>2020-06-24T11:29:55.077Z</time>
      </trkpt>
      <trkpt lat="48.64151" lon="-2.31614">
        <ele>49</ele>
        <time>2020-06-24T11:29:56.077Z</time>
      </trkpt>
      <trkpt lat="48.64151" lon="-2.31615">
        <ele>49</ele>
        <time>2020-06-24T11:29:57.077Z</time>
      </trkpt>
      <trkpt lat="48.64152" lon="-2.31616">
        <ele>48</ele>
        <time>2020-06-24T11:29:58.077Z</time>
      </trkpt>
      <trkpt lat="48.64153" lon="-2.31618">
        <ele>47</ele>
        <time>2020-06-24T11:29:59.077Z</time>
      </trkpt>
      <trkpt lat="48.64154" lon="-2.3162">
        <ele>47</ele>
        <time>2020-06-24T11:30:00.077Z</time>
      </trkpt>
      <trkpt lat="48.64155" lon="-2.31621">
        <ele>46</ele>
        <time>2020-06-24T11:30:01.077Z</time>
      </trkpt>
      <trkpt lat="48.64155" lon="-2.31623">
        <ele>46</ele>
        <time>2020-06-24T11:30:02.077Z</time>
      </trkpt>
      <trkpt lat="48.64156" lon="-2.31624">
        <ele>46</ele>
        <time>2020-06-24T11:30:03.077Z</time>
      </trkpt>
      <trkpt lat="48.64157" lon="-2.31625">
        <ele>46</ele>
        <time>2020-06-24T11:30:04.077Z</time>
      </trkpt>
      <trkpt lat="48.64158" lon="-2.31627">
        <ele>47</ele>
        <time>2020-06-24T11:30:05.077Z</time>
      </trkpt>
      <trkpt lat="48.64159" lon="-2.31629">
        <ele>47</ele>
        <time>2020-06-24T11:30:06.077Z</time>
      </trkpt>
      <trkpt lat="48.6416" lon="-2.3163">
        <ele>47</ele>
        <time>2020-06-24T11:30:07.077Z</time>
      </trkpt>
      <trkpt lat="48.64161" lon="-2.31631">
        <ele>47</ele>
        <time>2020-06-24T11:30:08.077Z</time>
      </trkpt>
      <trkpt lat="48.64162" lon="-2.31632">
        <ele>48</ele>
        <time>2020-06-24T11:30:09.077Z</time>
      </trkpt>
      <trkpt lat="48.64163" lon="-2.31633">
        <ele>48</ele>
        <time>2020-06-24T11:30:10.077Z</time>
      </trkpt>
      <trkpt lat="48.64164" lon="-2.31634">
        <ele>48</ele>
        <time>2020-06-24T11:30:11.077Z</time>
      </trkpt>
      <trkpt lat="48.64166" lon="-2.31635">
        <ele>49</ele>
        <time>2020-06-24T11:30:12.077Z</time>
      </trkpt>
      <trkpt lat="48.64167" lon="-2.31636">
        <ele>49</ele>
        <time>2020-06-24T11:30:13.077Z</time>
      </trkpt>
      <trkpt lat="48.64168" lon="-2.31637">
        <ele>50</ele>
        <time>2020-06-24T11:30:14.077Z</time>
      </trkpt>
      <trkpt lat="48.64169" lon="-2.31638">
        <ele>50</ele>
        <time>2020-06-24T11:30:15.077Z</time>
      </trkpt>
      <trkpt lat="48.6417" lon="-2.31639">
        <ele>51</ele>
        <time>2020-06-24T11:30:16.077Z</time>
      </trkpt>
      <trkpt lat="48.64171" lon="-2.31641">
        <ele>51</ele>
        <time>2020-06-24T11:30:17.077Z</time>
      </trkpt>
      <trkpt lat="48.64172" lon="-2.31642">
        <ele>51</ele>
        <time>2020-06-24T11:30:18.077Z</time>
      </trkpt>
      <trkpt lat="48.64173" lon="-2.31643">
        <ele>52</ele>
        <time>2020-06-24T11:30:19.077Z</time>
      </trkpt>
      <trkpt lat="48.64174" lon="-2.31645">
        <ele>52</ele>
        <time>2020-06-24T11:30:20.077Z</time>
      </trkpt>
      <trkpt lat="48.64175" lon="-2.31646">
        <ele>53</ele>
        <time>2020-06-24T11:30:21.077Z</time>
      </trkpt>
      <trkpt lat="48.64175" lon="-2.31647">
        <ele>52</ele>
        <time>2020-06-24T11:30:22.077Z</time>
      </trkpt>
      <trkpt lat="48.64176" lon="-2.31648">
        <ele>53</ele>
        <time>2020-06-24T11:30:23.077Z</time>
      </trkpt>
      <trkpt lat="48.64177" lon="-2.31649">
        <ele>53</ele>
        <time>2020-06-24T11:30:24.077Z</time>
      </trkpt>
      <trkpt lat="48.64178" lon="-2.31651">
        <ele>54</ele>
        <time>2020-06-24T11:30:25.077Z</time>
      </trkpt>
      <trkpt lat="48.64179" lon="-2.31652">
        <ele>54</ele>
        <time>2020-06-24T11:30:26.077Z</time>
      </trkpt>
      <trkpt lat="48.64181" lon="-2.31653">
        <ele>54</ele>
        <time>2020-06-24T11:30:27.077Z</time>
      </trkpt>
      <trkpt lat="48.64182" lon="-2.31655">
        <ele>54</ele>
        <time>2020-06-24T11:30:28.077Z</time>
      </trkpt>
      <trkpt lat="48.64182" lon="-2.31656">
        <ele>53</ele>
        <time>2020-06-24T11:30:29.077Z</time>
      </trkpt>
      <trkpt lat="48.64183" lon="-2.31658">
        <ele>54</ele>
        <time>2020-06-24T11:30:30.077Z</time>
      </trkpt>
      <trkpt lat="48.64184" lon="-2.3166">
        <ele>54</ele>
        <time>2020-06-24T11:30:31.077Z</time>
      </trkpt>
      <trkpt lat="48.64185" lon="-2.31662">
        <ele>54</ele>
        <time>2020-06-24T11:30:32.077Z</time>
      </trkpt>
      <trkpt lat="48.64185" lon="-2.31664">
        <ele>53</ele>
        <time>2020-06-24T11:30:33.077Z</time>
      </trkpt>
      <trkpt lat="48.64186" lon="-2.31665">
        <ele>53</ele>
        <time>2020-06-24T11:30:34.077Z</time>
      </trkpt>
      <trkpt lat="48.64186" lon="-2.31667">
        <ele>52</ele>
        <time>2020-06-24T11:30:35.077Z</time>
      </trkpt>
      <trkpt lat="48.64187" lon="-2.31669">
        <ele>51</ele>
        <time>2020-06-24T11:30:36.077Z</time>
      </trkpt>
      <trkpt lat="48.64187" lon="-2.31671">
        <ele>51</ele>
        <time>2020-06-24T11:30:37.077Z</time>
      </trkpt>
      <trkpt lat="48.64188" lon="-2.31673">
        <ele>51</ele>
        <time>2020-06-24T11:30:38.077Z</time>
      </trkpt>
      <trkpt lat="48.64188" lon="-2.31675">
        <ele>50</ele>
        <time>2020-06-24T11:30:39.077Z</time>
      </trkpt>
      <trkpt lat="48.64188" lon="-2.31676">
        <ele>49</ele>
        <time>2020-06-24T11:30:40.077Z</time>
      </trkpt>
      <trkpt lat="48.64189" lon="-2.31678">
        <ele>48</ele>
        <time>2020-06-24T11:30:41.077Z</time>
      </trkpt>
      <trkpt lat="48.64189" lon="-2.3168">
        <ele>48</ele>
        <time>2020-06-24T11:30:42.077Z</time>
      </trkpt>
      <trkpt lat="48.64189" lon="-2.31681">
        <ele>47</ele>
        <time>2020-06-24T11:30:43.077Z</time>
      </trkpt>
      <trkpt lat="48.6419" lon="-2.31683">
        <ele>47</ele>
        <time>2020-06-24T11:30:44.077Z</time>
      </trkpt>
      <trkpt lat="48.6419" lon="-2.31685">
        <ele>47</ele>
        <time>2020-06-24T11:30:45.077Z</time>
      </trkpt>
      <trkpt lat="48.6419" lon="-2.31687">
        <ele>47</ele>
        <time>2020-06-24T11:30:46.077Z</time>
      </trkpt>
      <trkpt lat="48.64191" lon="-2.31689">
        <ele>46</ele>
        <time>2020-06-24T11:30:47.077Z</time>
      </trkpt>
      <trkpt lat="48.64192" lon="-2.3169">
        <ele>47</ele>
        <time>2020-06-24T11:30:48.077Z</time>
      </trkpt>
      <trkpt lat="48.64192" lon="-2.31692">
        <ele>46</ele>
        <time>2020-06-24T11:30:49.077Z</time>
      </trkpt>
      <trkpt lat="48.64193" lon="-2.31694">
        <ele>46</ele>
        <time>2020-06-24T11:30:50.077Z</time>
      </trkpt>
      <trkpt lat="48.64194" lon="-2.31696">
        <ele>45</ele>
        <time>2020-06-24T11:30:51.077Z</time>
      </trkpt>
      <trkpt lat="48.64194" lon="-2.31698">
        <ele>45</ele>
        <time>2020-06-24T11:30:52.077Z</time>
      </trkpt>
      <trkpt lat="48.64195" lon="-2.317">
        <ele>45</ele>
        <time>2020-06-24T11:30:53.077Z</time>
      </trkpt>
      <trkpt lat="48.64195" lon="-2.31702">
        <ele>45</ele>
        <time>2020-06-24T11:30:54.077Z</time>
      </trkpt>
      <trkpt lat="48.64195" lon="-2.31704">
        <ele>46</ele>
        <time>2020-06-24T11:30:55.077Z</time>
      </trkpt>
      <trkpt lat="48.64195" lon="-2.31705">
        <ele>46</ele>
        <time>2020-06-24T11:30:56.077Z</time>
      </trkpt>
      <trkpt lat="48.64195" lon="-2.31707">
        <ele>46</ele>
        <time>2020-06-24T11:30:57.077Z</time>
      </trkpt>
      <trkpt lat="48.64195" lon="-2.31708">
        <ele>46</ele>
        <time>2020-06-24T11:30:58.077Z</time>
      </trkpt>
      <trkpt lat="48.64195" lon="-2.3171">
        <ele>46</ele>
        <time>2020-06-24T11:30:59.077Z</time>
      </trkpt>
      <trkpt lat="48.64195" lon="-2.31712">
        <ele>46</ele>
        <time>2020-06-24T11:31:00.077Z</time>
      </trkpt>
      <trkpt lat="48.64195" lon="-2.31714">
        <ele>46</ele>
        <time>2020-06-24T11:31:01.077Z</time>
      </trkpt>
      <trkpt lat="48.64194" lon="-2.31716">
        <ele>46</ele>
        <time>2020-06-24T11:31:02.077Z</time>
      </trkpt>
      <trkpt lat="48.64194" lon="-2.31717">
        <ele>46</ele>
        <time>2020-06-24T11:31:03.077Z</time>
      </trkpt>
      <trkpt lat="48.64194" lon="-2.31719">
        <ele>47</ele>
        <time>2020-06-24T11:31:04.077Z</time>
      </trkpt>
      <trkpt lat="48.64194" lon="-2.3172">
        <ele>47</ele>
        <time>2020-06-24T11:31:05.077Z</time>
      </trkpt>
      <trkpt lat="48.64194" lon="-2.31722">
        <ele>47</ele>
        <time>2020-06-24T11:31:06.077Z</time>
      </trkpt>
      <trkpt lat="48.64194" lon="-2.31724">
        <ele>47</ele>
        <time>2020-06-24T11:31:07.077Z</time>
      </trkpt>
      <trkpt lat="48.64194" lon="-2.31726">
        <ele>47</ele>
        <time>2020-06-24T11:31:08.077Z</time>
      </trkpt>
      <trkpt lat="48.64194" lon="-2.31729">
        <ele>47</ele>
        <time>2020-06-24T11:31:09.077Z</time>
      </trkpt>
      <trkpt lat="48.64193" lon="-2.31731">
        <ele>47</ele>
        <time>2020-06-24T11:31:10.077Z</time>
      </trkpt>
      <trkpt lat="48.64193" lon="-2.31733">
        <ele>47</ele>
        <time>2020-06-24T11:31:11.077Z</time>
      </trkpt>
      <trkpt lat="48.64193" lon="-2.31735">
        <ele>47</ele>
        <time>2020-06-24T11:31:12.077Z</time>
      </trkpt>
      <trkpt lat="48.64192" lon="-2.31736">
        <ele>48</ele>
        <time>2020-06-24T11:31:13.077Z</time>
      </trkpt>
      <trkpt lat="48.64192" lon="-2.31738">
        <ele>48</ele>
        <time>2020-06-24T11:31:14.077Z</time>
      </trkpt>
      <trkpt lat="48.64192" lon="-2.3174">
        <ele>48</ele>
        <time>2020-06-24T11:31:15.077Z</time>
      </trkpt>
      <trkpt lat="48.64191" lon="-2.31742">
        <ele>48</ele>
        <time>2020-06-24T11:31:16.077Z</time>
      </trkpt>
      <trkpt lat="48.64191" lon="-2.31744">
        <ele>48</ele>
        <time>2020-06-24T11:31:17.077Z</time>
      </trkpt>
      <trkpt lat="48.64191" lon="-2.31746">
        <ele>49</ele>
        <time>2020-06-24T11:31:18.077Z</time>
      </trkpt>
      <trkpt lat="48.6419" lon="-2.31747">
        <ele>50</ele>
        <time>2020-06-24T11:31:19.077Z</time>
      </trkpt>
      <trkpt lat="48.64189" lon="-2.31749">
        <ele>50</ele>
        <time>2020-06-24T11:31:20.077Z</time>
      </trkpt>
      <trkpt lat="48.64189" lon="-2.31751">
        <ele>50</ele>
        <time>2020-06-24T11:31:21.077Z</time>
      </trkpt>
      <trkpt lat="48.64188" lon="-2.31753">
        <ele>51</ele>
        <time>2020-06-24T11:31:22.077Z</time>
      </trkpt>
      <trkpt lat="48.64188" lon="-2.31754">
        <ele>51</ele>
        <time>2020-06-24T11:31:23.077Z</time>
      </trkpt>
      <trkpt lat="48.64187" lon="-2.31756">
        <ele>51</ele>
        <time>2020-06-24T11:31:24.077Z</time>
      </trkpt>
      <trkpt lat="48.64187" lon="-2.31758">
        <ele>51</ele>
        <time>2020-06-24T11:31:25.077Z</time>
      </trkpt>
      <trkpt lat="48.64186" lon="-2.3176">
        <ele>52</ele>
        <time>2020-06-24T11:31:26.077Z</time>
      </trkpt>
      <trkpt lat="48.64185" lon="-2.31762">
        <ele>52</ele>
        <time>2020-06-24T11:31:27.077Z</time>
      </trkpt>
      <trkpt lat="48.64185" lon="-2.31763">
        <ele>52</ele>
        <time>2020-06-24T11:31:28.077Z</time>
      </trkpt>
      <trkpt lat="48.64184" lon="-2.31765">
        <ele>52</ele>
        <time>2020-06-24T11:31:29.077Z</time>
      </trkpt>
      <trkpt lat="48.64184" lon="-2.31766">
        <ele>52</ele>
        <time>2020-06-24T11:31:30.077Z</time>
      </trkpt>
      <trkpt lat="48.64183" lon="-2.31768">
        <ele>52</ele>
        <time>2020-06-24T11:31:31.077Z</time>
      </trkpt>
      <trkpt lat="48.64183" lon="-2.3177">
        <ele>52</ele>
        <time>2020-06-24T11:31:32.077Z</time>
      </trkpt>
      <trkpt lat="48.64182" lon="-2.31772">
        <ele>52</ele>
        <time>2020-06-24T11:31:33.077Z</time>
      </trkpt>
      <trkpt lat="48.64182" lon="-2.31774">
        <ele>52</ele>
        <time>2020-06-24T11:31:34.077Z</time>
      </trkpt>
      <trkpt lat="48.64181" lon="-2.31776">
        <ele>53</ele>
        <time>2020-06-24T11:31:35.077Z</time>
      </trkpt>
      <trkpt lat="48.64181" lon="-2.31778">
        <ele>53</ele>
        <time>2020-06-24T11:31:36.077Z</time>
      </trkpt>
      <trkpt lat="48.6418" lon="-2.3178">
        <ele>53</ele>
        <time>2020-06-24T11:31:37.077Z</time>
      </trkpt>
      <trkpt lat="48.6418" lon="-2.31782">
        <ele>53</ele>
        <time>2020-06-24T11:31:38.077Z</time>
      </trkpt>
      <trkpt lat="48.64179" lon="-2.31784">
        <ele>53</ele>
        <time>2020-06-24T11:31:39.077Z</time>
      </trkpt>
      <trkpt lat="48.64179" lon="-2.31786">
        <ele>53</ele>
        <time>2020-06-24T11:31:40.077Z</time>
      </trkpt>
      <trkpt lat="48.64179" lon="-2.31788">
        <ele>53</ele>
        <time>2020-06-24T11:31:41.077Z</time>
      </trkpt>
      <trkpt lat="48.64178" lon="-2.3179">
        <ele>53</ele>
        <time>2020-06-24T11:31:42.077Z</time>
      </trkpt>
      <trkpt lat="48.64178" lon="-2.31792">
        <ele>53</ele>
        <time>2020-06-24T11:31:43.077Z</time>
      </trkpt>
      <trkpt lat="48.64178" lon="-2.31794">
        <ele>54</ele>
        <time>2020-06-24T11:31:44.077Z</time>
      </trkpt>
      <trkpt lat="48.64178" lon="-2.31796">
        <ele>54</ele>
        <time>2020-06-24T11:31:45.077Z</time>
      </trkpt>
      <trkpt lat="48.64178" lon="-2.31798">
        <ele>54</ele>
        <time>2020-06-24T11:31:46.077Z</time>
      </trkpt>
      <trkpt lat="48.64177" lon="-2.31799">
        <ele>54</ele>
        <time>2020-06-24T11:31:47.077Z</time>
      </trkpt>
      <trkpt lat="48.64177" lon="-2.31801">
        <ele>54</ele>
        <time>2020-06-24T11:31:48.077Z</time>
      </trkpt>
      <trkpt lat="48.64177" lon="-2.31803">
        <ele>54</ele>
        <time>2020-06-24T11:31:49.077Z</time>
      </trkpt>
      <trkpt lat="48.64177" lon="-2.31804">
        <ele>54</ele>
        <time>2020-06-24T11:31:50.077Z</time>
      </trkpt>
      <trkpt lat="48.64177" lon="-2.31806">
        <ele>54</ele>
        <time>2020-06-24T11:31:51.077Z</time>
      </trkpt>
      <trkpt lat="48.64176" lon="-2.31808">
        <ele>54</ele>
        <time>2020-06-24T11:31:52.077Z</time>
      </trkpt>
      <trkpt lat="48.64176" lon="-2.31809">
        <ele>54</ele>
        <time>2020-06-24T11:31:53.077Z</time>
      </trkpt>
      <trkpt lat="48.64176" lon="-2.31811">
        <ele>54</ele>
        <time>2020-06-24T11:31:54.077Z</time>
      </trkpt>
      <trkpt lat="48.64175" lon="-2.31813">
        <ele>54</ele>
        <time>2020-06-24T11:31:55.077Z</time>
      </trkpt>
      <trkpt lat="48.64175" lon="-2.31815">
        <ele>53</ele>
        <time>2020-06-24T11:31:56.077Z</time>
      </trkpt>
      <trkpt lat="48.64175" lon="-2.31817">
        <ele>53</ele>
        <time>2020-06-24T11:31:57.077Z</time>
      </trkpt>
      <trkpt lat="48.64174" lon="-2.31818">
        <ele>53</ele>
        <time>2020-06-24T11:31:58.077Z</time>
      </trkpt>
      <trkpt lat="48.64174" lon="-2.3182">
        <ele>53</ele>
        <time>2020-06-24T11:31:59.077Z</time>
      </trkpt>
      <trkpt lat="48.64174" lon="-2.31822">
        <ele>53</ele>
        <time>2020-06-24T11:32:00.077Z</time>
      </trkpt>
      <trkpt lat="48.64174" lon="-2.31824">
        <ele>53</ele>
        <time>2020-06-24T11:32:01.077Z</time>
      </trkpt>
      <trkpt lat="48.64173" lon="-2.31826">
        <ele>53</ele>
        <time>2020-06-24T11:32:02.077Z</time>
      </trkpt>
      <trkpt lat="48.64173" lon="-2.31828">
        <ele>53</ele>
        <time>2020-06-24T11:32:03.077Z</time>
      </trkpt>
      <trkpt lat="48.64173" lon="-2.3183">
        <ele>53</ele>
        <time>2020-06-24T11:32:04.077Z</time>
      </trkpt>
      <trkpt lat="48.64173" lon="-2.31832">
        <ele>54</ele>
        <time>2020-06-24T11:32:05.077Z</time>
      </trkpt>
      <trkpt lat="48.64173" lon="-2.31833">
        <ele>55</ele>
        <time>2020-06-24T11:32:06.077Z</time>
      </trkpt>
      <trkpt lat="48.64172" lon="-2.31835">
        <ele>55</ele>
        <time>2020-06-24T11:32:07.077Z</time>
      </trkpt>
      <trkpt lat="48.64172" lon="-2.31837">
        <ele>55</ele>
        <time>2020-06-24T11:32:08.077Z</time>
      </trkpt>
      <trkpt lat="48.64172" lon="-2.31839">
        <ele>55</ele>
        <time>2020-06-24T11:32:09.077Z</time>
      </trkpt>
      <trkpt lat="48.64172" lon="-2.3184">
        <ele>55</ele>
        <time>2020-06-24T11:32:10.077Z</time>
      </trkpt>
      <trkpt lat="48.64172" lon="-2.31842">
        <ele>55</ele>
        <time>2020-06-24T11:32:11.077Z</time>
      </trkpt>
      <trkpt lat="48.64172" lon="-2.31843">
        <ele>55</ele>
        <time>2020-06-24T11:32:12.077Z</time>
      </trkpt>
      <trkpt lat="48.64172" lon="-2.31843">
        <ele>54</ele>
        <time>2020-06-24T11:32:13.077Z</time>
      </trkpt>
      <trkpt lat="48.64172" lon="-2.31843">
        <ele>54</ele>
        <time>2020-06-24T11:32:14.077Z</time>
      </trkpt>
      <trkpt lat="48.64172" lon="-2.31843">
        <ele>55</ele>
        <time>2020-06-24T11:32:15.077Z</time>
      </trkpt>
      <trkpt lat="48.64173" lon="-2.31844">
        <ele>55</ele>
        <time>2020-06-24T11:32:16.077Z</time>
      </trkpt>
      <trkpt lat="48.64173" lon="-2.31845">
        <ele>55</ele>
        <time>2020-06-24T11:32:17.077Z</time>
      </trkpt>
      <trkpt lat="48.64174" lon="-2.31846">
        <ele>55</ele>
        <time>2020-06-24T11:32:18.077Z</time>
      </trkpt>
      <trkpt lat="48.64174" lon="-2.31847">
        <ele>55</ele>
        <time>2020-06-24T11:32:19.077Z</time>
      </trkpt>
      <trkpt lat="48.64174" lon="-2.31848">
        <ele>56</ele>
        <time>2020-06-24T11:32:20.077Z</time>
      </trkpt>
      <trkpt lat="48.64175" lon="-2.31849">
        <ele>55</ele>
        <time>2020-06-24T11:32:21.077Z</time>
      </trkpt>
      <trkpt lat="48.64175" lon="-2.31851">
        <ele>56</ele>
        <time>2020-06-24T11:32:22.077Z</time>
      </trkpt>
      <trkpt lat="48.64175" lon="-2.31852">
        <ele>57</ele>
        <time>2020-06-24T11:32:23.077Z</time>
      </trkpt>
      <trkpt lat="48.64175" lon="-2.31854">
        <ele>57</ele>
        <time>2020-06-24T11:32:24.077Z</time>
      </trkpt>
      <trkpt lat="48.64175" lon="-2.31856">
        <ele>56</ele>
        <time>2020-06-24T11:32:25.077Z</time>
      </trkpt>
      <trkpt lat="48.64175" lon="-2.31857">
        <ele>56</ele>
        <time>2020-06-24T11:32:26.077Z</time>
      </trkpt>
      <trkpt lat="48.64175" lon="-2.31859">
        <ele>56</ele>
        <time>2020-06-24T11:32:27.077Z</time>
      </trkpt>
      <trkpt lat="48.64175" lon="-2.3186">
        <ele>56</ele>
        <time>2020-06-24T11:32:28.077Z</time>
      </trkpt>
      <trkpt lat="48.64176" lon="-2.31861">
        <ele>56</ele>
        <time>2020-06-24T11:32:29.077Z</time>
      </trkpt>
      <trkpt lat="48.64176" lon="-2.31862">
        <ele>56</ele>
        <time>2020-06-24T11:32:30.077Z</time>
      </trkpt>
      <trkpt lat="48.64177" lon="-2.31863">
        <ele>56</ele>
        <time>2020-06-24T11:32:31.077Z</time>
      </trkpt>
      <trkpt lat="48.64178" lon="-2.31864">
        <ele>56</ele>
        <time>2020-06-24T11:32:32.077Z</time>
      </trkpt>
      <trkpt lat="48.64179" lon="-2.31866">
        <ele>56</ele>
        <time>2020-06-24T11:32:33.077Z</time>
      </trkpt>
      <trkpt lat="48.6418" lon="-2.31867">
        <ele>56</ele>
        <time>2020-06-24T11:32:34.077Z</time>
      </trkpt>
      <trkpt lat="48.64181" lon="-2.31868">
        <ele>56</ele>
        <time>2020-06-24T11:32:35.077Z</time>
      </trkpt>
      <trkpt lat="48.64182" lon="-2.31869">
        <ele>55</ele>
        <time>2020-06-24T11:32:36.077Z</time>
      </trkpt>
      <trkpt lat="48.64182" lon="-2.31871">
        <ele>56</ele>
        <time>2020-06-24T11:32:37.077Z</time>
      </trkpt>
      <trkpt lat="48.64183" lon="-2.31872">
        <ele>56</ele>
        <time>2020-06-24T11:32:38.077Z</time>
      </trkpt>
      <trkpt lat="48.64184" lon="-2.31873">
        <ele>56</ele>
        <time>2020-06-24T11:32:39.077Z</time>
      </trkpt>
      <trkpt lat="48.64185" lon="-2.31875">
        <ele>56</ele>
        <time>2020-06-24T11:32:40.077Z</time>
      </trkpt>
      <trkpt lat="48.64186" lon="-2.31876">
        <ele>56</ele>
        <time>2020-06-24T11:32:41.077Z</time>
      </trkpt>
      <trkpt lat="48.64187" lon="-2.31877">
        <ele>56</ele>
        <time>2020-06-24T11:32:42.077Z</time>
      </trkpt>
      <trkpt lat="48.64187" lon="-2.31878">
        <ele>57</ele>
        <time>2020-06-24T11:32:43.077Z</time>
      </trkpt>
      <trkpt lat="48.64188" lon="-2.3188">
        <ele>57</ele>
        <time>2020-06-24T11:32:44.077Z</time>
      </trkpt>
      <trkpt lat="48.64189" lon="-2.31881">
        <ele>57</ele>
        <time>2020-06-24T11:32:45.077Z</time>
      </trkpt>
      <trkpt lat="48.6419" lon="-2.31882">
        <ele>57</ele>
        <time>2020-06-24T11:32:46.077Z</time>
      </trkpt>
      <trkpt lat="48.64191" lon="-2.31884">
        <ele>57</ele>
        <time>2020-06-24T11:32:47.077Z</time>
      </trkpt>
      <trkpt lat="48.64191" lon="-2.31885">
        <ele>57</ele>
        <time>2020-06-24T11:32:48.077Z</time>
      </trkpt>
      <trkpt lat="48.64192" lon="-2.31886">
        <ele>56</ele>
        <time>2020-06-24T11:32:49.077Z</time>
      </trkpt>
      <trkpt lat="48.64193" lon="-2.31887">
        <ele>56</ele>
        <time>2020-06-24T11:32:50.077Z</time>
      </trkpt>
      <trkpt lat="48.64194" lon="-2.31888">
        <ele>56</ele>
        <time>2020-06-24T11:32:51.077Z</time>
      </trkpt>
      <trkpt lat="48.64194" lon="-2.3189">
        <ele>56</ele>
        <time>2020-06-24T11:32:52.077Z</time>
      </trkpt>
      <trkpt lat="48.64195" lon="-2.31891">
        <ele>56</ele>
        <time>2020-06-24T11:32:53.077Z</time>
      </trkpt>
      <trkpt lat="48.64196" lon="-2.31892">
        <ele>55</ele>
        <time>2020-06-24T11:32:54.077Z</time>
      </trkpt>
      <trkpt lat="48.64197" lon="-2.31893">
        <ele>56</ele>
        <time>2020-06-24T11:32:55.077Z</time>
      </trkpt>
      <trkpt lat="48.64198" lon="-2.31895">
        <ele>55</ele>
        <time>2020-06-24T11:32:56.077Z</time>
      </trkpt>
      <trkpt lat="48.64199" lon="-2.31896">
        <ele>55</ele>
        <time>2020-06-24T11:32:57.077Z</time>
      </trkpt>
      <trkpt lat="48.642" lon="-2.31897">
        <ele>54</ele>
        <time>2020-06-24T11:32:58.077Z</time>
      </trkpt>
      <trkpt lat="48.64201" lon="-2.31898">
        <ele>54</ele>
        <time>2020-06-24T11:32:59.077Z</time>
      </trkpt>
      <trkpt lat="48.64202" lon="-2.31899">
        <ele>54</ele>
        <time>2020-06-24T11:33:00.077Z</time>
      </trkpt>
      <trkpt lat="48.64203" lon="-2.319">
        <ele>54</ele>
        <time>2020-06-24T11:33:01.077Z</time>
      </trkpt>
      <trkpt lat="48.64204" lon="-2.31901">
        <ele>54</ele>
        <time>2020-06-24T11:33:02.077Z</time>
      </trkpt>
      <trkpt lat="48.64204" lon="-2.31902">
        <ele>54</ele>
        <time>2020-06-24T11:33:03.077Z</time>
      </trkpt>
      <trkpt lat="48.64205" lon="-2.31903">
        <ele>54</ele>
        <time>2020-06-24T11:33:04.077Z</time>
      </trkpt>
      <trkpt lat="48.64206" lon="-2.31904">
        <ele>55</ele>
        <time>2020-06-24T11:33:05.077Z</time>
      </trkpt>
      <trkpt lat="48.64207" lon="-2.31904">
        <ele>54</ele>
        <time>2020-06-24T11:33:06.077Z</time>
      </trkpt>
      <trkpt lat="48.64208" lon="-2.31905">
        <ele>53</ele>
        <time>2020-06-24T11:33:07.077Z</time>
      </trkpt>
      <trkpt lat="48.64209" lon="-2.31906">
        <ele>53</ele>
        <time>2020-06-24T11:33:08.077Z</time>
      </trkpt>
      <trkpt lat="48.6421" lon="-2.31907">
        <ele>53</ele>
        <time>2020-06-24T11:33:09.077Z</time>
      </trkpt>
      <trkpt lat="48.64211" lon="-2.31908">
        <ele>53</ele>
        <time>2020-06-24T11:33:10.077Z</time>
      </trkpt>
      <trkpt lat="48.64212" lon="-2.31909">
        <ele>53</ele>
        <time>2020-06-24T11:33:11.077Z</time>
      </trkpt>
      <trkpt lat="48.64213" lon="-2.3191">
        <ele>52</ele>
        <time>2020-06-24T11:33:12.077Z</time>
      </trkpt>
      <trkpt lat="48.64214" lon="-2.31911">
        <ele>53</ele>
        <time>2020-06-24T11:33:13.077Z</time>
      </trkpt>
      <trkpt lat="48.64215" lon="-2.31911">
        <ele>53</ele>
        <time>2020-06-24T11:33:14.077Z</time>
      </trkpt>
      <trkpt lat="48.64216" lon="-2.31912">
        <ele>53</ele>
        <time>2020-06-24T11:33:15.077Z</time>
      </trkpt>
      <trkpt lat="48.64217" lon="-2.31913">
        <ele>54</ele>
        <time>2020-06-24T11:33:16.077Z</time>
      </trkpt>
      <trkpt lat="48.64218" lon="-2.31914">
        <ele>53</ele>
        <time>2020-06-24T11:33:17.077Z</time>
      </trkpt>
      <trkpt lat="48.64219" lon="-2.31914">
        <ele>53</ele>
        <time>2020-06-24T11:33:18.077Z</time>
      </trkpt>
      <trkpt lat="48.6422" lon="-2.31915">
        <ele>53</ele>
        <time>2020-06-24T11:33:19.077Z</time>
      </trkpt>
      <trkpt lat="48.64221" lon="-2.31916">
        <ele>53</ele>
        <time>2020-06-24T11:33:20.077Z</time>
      </trkpt>
      <trkpt lat="48.64222" lon="-2.31916">
        <ele>53</ele>
        <time>2020-06-24T11:33:21.077Z</time>
      </trkpt>
      <trkpt lat="48.64222" lon="-2.31916">
        <ele>54</ele>
        <time>2020-06-24T11:33:22.077Z</time>
      </trkpt>
      <trkpt lat="48.64224" lon="-2.31917">
        <ele>54</ele>
        <time>2020-06-24T11:33:23.077Z</time>
      </trkpt>
      <trkpt lat="48.64225" lon="-2.31917">
        <ele>54</ele>
        <time>2020-06-24T11:33:24.077Z</time>
      </trkpt>
      <trkpt lat="48.64225" lon="-2.31917">
        <ele>55</ele>
        <time>2020-06-24T11:33:25.077Z</time>
      </trkpt>
      <trkpt lat="48.64226" lon="-2.31918">
        <ele>55</ele>
        <time>2020-06-24T11:33:26.077Z</time>
      </trkpt>
      <trkpt lat="48.64227" lon="-2.31919">
        <ele>54</ele>
        <time>2020-06-24T11:33:27.077Z</time>
      </trkpt>
      <trkpt lat="48.64229" lon="-2.31919">
        <ele>54</ele>
        <time>2020-06-24T11:33:28.077Z</time>
      </trkpt>
      <trkpt lat="48.6423" lon="-2.3192">
        <ele>54</ele>
        <time>2020-06-24T11:33:29.077Z</time>
      </trkpt>
      <trkpt lat="48.64231" lon="-2.31921">
        <ele>55</ele>
        <time>2020-06-24T11:33:30.077Z</time>
      </trkpt>
      <trkpt lat="48.64232" lon="-2.31921">
        <ele>55</ele>
        <time>2020-06-24T11:33:31.077Z</time>
      </trkpt>
      <trkpt lat="48.64233" lon="-2.31921">
        <ele>55</ele>
        <time>2020-06-24T11:33:32.077Z</time>
      </trkpt>
      <trkpt lat="48.64234" lon="-2.31922">
        <ele>55</ele>
        <time>2020-06-24T11:33:33.077Z</time>
      </trkpt>
      <trkpt lat="48.64235" lon="-2.31922">
        <ele>55</ele>
        <time>2020-06-24T11:33:34.077Z</time>
      </trkpt>
      <trkpt lat="48.64236" lon="-2.31923">
        <ele>55</ele>
        <time>2020-06-24T11:33:35.077Z</time>
      </trkpt>
      <trkpt lat="48.64237" lon="-2.31923">
        <ele>55</ele>
        <time>2020-06-24T11:33:36.077Z</time>
      </trkpt>
      <trkpt lat="48.64238" lon="-2.31924">
        <ele>55</ele>
        <time>2020-06-24T11:33:37.077Z</time>
      </trkpt>
      <trkpt lat="48.64239" lon="-2.31924">
        <ele>55</ele>
        <time>2020-06-24T11:33:38.077Z</time>
      </trkpt>
      <trkpt lat="48.6424" lon="-2.31925">
        <ele>55</ele>
        <time>2020-06-24T11:33:39.077Z</time>
      </trkpt>
      <trkpt lat="48.64241" lon="-2.31925">
        <ele>55</ele>
        <time>2020-06-24T11:33:40.077Z</time>
      </trkpt>
      <trkpt lat="48.64242" lon="-2.31926">
        <ele>56</ele>
        <time>2020-06-24T11:33:41.077Z</time>
      </trkpt>
      <trkpt lat="48.64243" lon="-2.31926">
        <ele>55</ele>
        <time>2020-06-24T11:33:42.077Z</time>
      </trkpt>
      <trkpt lat="48.64244" lon="-2.31926">
        <ele>56</ele>
        <time>2020-06-24T11:33:43.077Z</time>
      </trkpt>
      <trkpt lat="48.64245" lon="-2.31926">
        <ele>56</ele>
        <time>2020-06-24T11:33:44.077Z</time>
      </trkpt>
      <trkpt lat="48.64246" lon="-2.31927">
        <ele>56</ele>
        <time>2020-06-24T11:33:45.077Z</time>
      </trkpt>
      <trkpt lat="48.64247" lon="-2.31927">
        <ele>56</ele>
        <time>2020-06-24T11:33:46.077Z</time>
      </trkpt>
      <trkpt lat="48.64248" lon="-2.31927">
        <ele>55</ele>
        <time>2020-06-24T11:33:47.077Z</time>
      </trkpt>
      <trkpt lat="48.64249" lon="-2.31927">
        <ele>55</ele>
        <time>2020-06-24T11:33:48.077Z</time>
      </trkpt>
      <trkpt lat="48.6425" lon="-2.31928">
        <ele>55</ele>
        <time>2020-06-24T11:33:49.077Z</time>
      </trkpt>
      <trkpt lat="48.64251" lon="-2.31928">
        <ele>54</ele>
        <time>2020-06-24T11:33:50.077Z</time>
      </trkpt>
      <trkpt lat="48.64252" lon="-2.31928">
        <ele>54</ele>
        <time>2020-06-24T11:33:51.077Z</time>
      </trkpt>
      <trkpt lat="48.64253" lon="-2.31929">
        <ele>54</ele>
        <time>2020-06-24T11:33:52.077Z</time>
      </trkpt>
      <trkpt lat="48.64254" lon="-2.31929">
        <ele>54</ele>
        <time>2020-06-24T11:33:53.077Z</time>
      </trkpt>
      <trkpt lat="48.64255" lon="-2.3193">
        <ele>54</ele>
        <time>2020-06-24T11:33:54.077Z</time>
      </trkpt>
      <trkpt lat="48.64257" lon="-2.31931">
        <ele>54</ele>
        <time>2020-06-24T11:33:55.077Z</time>
      </trkpt>
      <trkpt lat="48.64258" lon="-2.31932">
        <ele>53</ele>
        <time>2020-06-24T11:33:56.077Z</time>
      </trkpt>
      <trkpt lat="48.64259" lon="-2.31933">
        <ele>53</ele>
        <time>2020-06-24T11:33:57.077Z</time>
      </trkpt>
      <trkpt lat="48.6426" lon="-2.31934">
        <ele>53</ele>
        <time>2020-06-24T11:33:58.077Z</time>
      </trkpt>
      <trkpt lat="48.64261" lon="-2.31935">
        <ele>53</ele>
        <time>2020-06-24T11:33:59.077Z</time>
      </trkpt>
      <trkpt lat="48.64262" lon="-2.31936">
        <ele>53</ele>
        <time>2020-06-24T11:34:00.077Z</time>
      </trkpt>
      <trkpt lat="48.64263" lon="-2.31936">
        <ele>53</ele>
        <time>2020-06-24T11:34:01.077Z</time>
      </trkpt>
      <trkpt lat="48.64264" lon="-2.31937">
        <ele>53</ele>
        <time>2020-06-24T11:34:02.077Z</time>
      </trkpt>
      <trkpt lat="48.64265" lon="-2.31938">
        <ele>53</ele>
        <time>2020-06-24T11:34:03.077Z</time>
      </trkpt>
      <trkpt lat="48.64266" lon="-2.31939">
        <ele>53</ele>
        <time>2020-06-24T11:34:04.077Z</time>
      </trkpt>
      <trkpt lat="48.64266" lon="-2.3194">
        <ele>53</ele>
        <time>2020-06-24T11:34:05.077Z</time>
      </trkpt>
      <trkpt lat="48.64267" lon="-2.31941">
        <ele>53</ele>
        <time>2020-06-24T11:34:06.077Z</time>
      </trkpt>
      <trkpt lat="48.64268" lon="-2.31942">
        <ele>52</ele>
        <time>2020-06-24T11:34:07.077Z</time>
      </trkpt>
      <trkpt lat="48.64269" lon="-2.31943">
        <ele>51</ele>
        <time>2020-06-24T11:34:08.077Z</time>
      </trkpt>
      <trkpt lat="48.64269" lon="-2.31943">
        <ele>50</ele>
        <time>2020-06-24T11:34:09.077Z</time>
      </trkpt>
      <trkpt lat="48.64269" lon="-2.31943">
        <ele>50</ele>
        <time>2020-06-24T11:34:10.077Z</time>
      </trkpt>
      <trkpt lat="48.64269" lon="-2.31943">
        <ele>50</ele>
        <time>2020-06-24T11:34:11.077Z</time>
      </trkpt>
      <trkpt lat="48.64269" lon="-2.31943">
        <ele>51</ele>
        <time>2020-06-24T11:34:12.077Z</time>
      </trkpt>
      <trkpt lat="48.6427" lon="-2.31943">
        <ele>51</ele>
        <time>2020-06-24T11:34:13.077Z</time>
      </trkpt>
      <trkpt lat="48.6427" lon="-2.31944">
        <ele>51</ele>
        <time>2020-06-24T11:34:14.077Z</time>
      </trkpt>
      <trkpt lat="48.6427" lon="-2.31944">
        <ele>51</ele>
        <time>2020-06-24T11:34:15.077Z</time>
      </trkpt>
      <trkpt lat="48.64276" lon="-2.31947">
        <ele>54</ele>
        <time>2020-06-24T11:34:16.081Z</time>
      </trkpt>
      <trkpt lat="48.64277" lon="-2.31948">
        <ele>53</ele>
        <time>2020-06-24T11:34:17.081Z</time>
      </trkpt>
      <trkpt lat="48.64278" lon="-2.31949">
        <ele>53</ele>
        <time>2020-06-24T11:34:18.081Z</time>
      </trkpt>
      <trkpt lat="48.64279" lon="-2.3195">
        <ele>53</ele>
        <time>2020-06-24T11:34:19.081Z</time>
      </trkpt>
      <trkpt lat="48.6428" lon="-2.31951">
        <ele>53</ele>
        <time>2020-06-24T11:34:20.081Z</time>
      </trkpt>
      <trkpt lat="48.64281" lon="-2.31952">
        <ele>53</ele>
        <time>2020-06-24T11:34:21.081Z</time>
      </trkpt>
      <trkpt lat="48.64282" lon="-2.31953">
        <ele>54</ele>
        <time>2020-06-24T11:34:22.081Z</time>
      </trkpt>
      <trkpt lat="48.64283" lon="-2.31955">
        <ele>54</ele>
        <time>2020-06-24T11:34:23.081Z</time>
      </trkpt>
      <trkpt lat="48.64283" lon="-2.31956">
        <ele>53</ele>
        <time>2020-06-24T11:34:24.081Z</time>
      </trkpt>
      <trkpt lat="48.64284" lon="-2.31957">
        <ele>53</ele>
        <time>2020-06-24T11:34:25.081Z</time>
      </trkpt>
      <trkpt lat="48.64285" lon="-2.31958">
        <ele>53</ele>
        <time>2020-06-24T11:34:26.081Z</time>
      </trkpt>
      <trkpt lat="48.64286" lon="-2.31959">
        <ele>53</ele>
        <time>2020-06-24T11:34:27.081Z</time>
      </trkpt>
      <trkpt lat="48.64287" lon="-2.3196">
        <ele>54</ele>
        <time>2020-06-24T11:34:28.081Z</time>
      </trkpt>
      <trkpt lat="48.64288" lon="-2.31961">
        <ele>55</ele>
        <time>2020-06-24T11:34:29.081Z</time>
      </trkpt>
      <trkpt lat="48.64289" lon="-2.31962">
        <ele>55</ele>
        <time>2020-06-24T11:34:30.081Z</time>
      </trkpt>
      <trkpt lat="48.6429" lon="-2.31962">
        <ele>55</ele>
        <time>2020-06-24T11:34:31.081Z</time>
      </trkpt>
      <trkpt lat="48.64291" lon="-2.31963">
        <ele>55</ele>
        <time>2020-06-24T11:34:32.081Z</time>
      </trkpt>
      <trkpt lat="48.64292" lon="-2.31964">
        <ele>55</ele>
        <time>2020-06-24T11:34:33.081Z</time>
      </trkpt>
      <trkpt lat="48.64293" lon="-2.31965">
        <ele>54</ele>
        <time>2020-06-24T11:34:34.081Z</time>
      </trkpt>
      <trkpt lat="48.64294" lon="-2.31966">
        <ele>54</ele>
        <time>2020-06-24T11:34:35.081Z</time>
      </trkpt>
      <trkpt lat="48.64295" lon="-2.31967">
        <ele>54</ele>
        <time>2020-06-24T11:34:36.081Z</time>
      </trkpt>
      <trkpt lat="48.64296" lon="-2.31968">
        <ele>53</ele>
        <time>2020-06-24T11:34:37.081Z</time>
      </trkpt>
      <trkpt lat="48.64297" lon="-2.31969">
        <ele>53</ele>
        <time>2020-06-24T11:34:38.081Z</time>
      </trkpt>
      <trkpt lat="48.64298" lon="-2.3197">
        <ele>53</ele>
        <time>2020-06-24T11:34:39.081Z</time>
      </trkpt>
      <trkpt lat="48.64299" lon="-2.31971">
        <ele>53</ele>
        <time>2020-06-24T11:34:40.081Z</time>
      </trkpt>
      <trkpt lat="48.643" lon="-2.31972">
        <ele>53</ele>
        <time>2020-06-24T11:34:41.081Z</time>
      </trkpt>
      <trkpt lat="48.64301" lon="-2.31973">
        <ele>53</ele>
        <time>2020-06-24T11:34:42.081Z</time>
      </trkpt>
      <trkpt lat="48.64303" lon="-2.31974">
        <ele>54</ele>
        <time>2020-06-24T11:34:43.081Z</time>
      </trkpt>
      <trkpt lat="48.64304" lon="-2.31975">
        <ele>54</ele>
        <time>2020-06-24T11:34:44.081Z</time>
      </trkpt>
      <trkpt lat="48.64305" lon="-2.31976">
        <ele>54</ele>
        <time>2020-06-24T11:34:45.081Z</time>
      </trkpt>
      <trkpt lat="48.64306" lon="-2.31977">
        <ele>54</ele>
        <time>2020-06-24T11:34:46.081Z</time>
      </trkpt>
      <trkpt lat="48.64308" lon="-2.31978">
        <ele>55</ele>
        <time>2020-06-24T11:34:47.081Z</time>
      </trkpt>
      <trkpt lat="48.64309" lon="-2.31979">
        <ele>54</ele>
        <time>2020-06-24T11:34:48.081Z</time>
      </trkpt>
      <trkpt lat="48.6431" lon="-2.3198">
        <ele>54</ele>
        <time>2020-06-24T11:34:49.081Z</time>
      </trkpt>
      <trkpt lat="48.64311" lon="-2.31981">
        <ele>54</ele>
        <time>2020-06-24T11:34:50.081Z</time>
      </trkpt>
      <trkpt lat="48.64312" lon="-2.31982">
        <ele>54</ele>
        <time>2020-06-24T11:34:51.081Z</time>
      </trkpt>
      <trkpt lat="48.64313" lon="-2.31983">
        <ele>55</ele>
        <time>2020-06-24T11:34:52.081Z</time>
      </trkpt>
      <trkpt lat="48.64314" lon="-2.31984">
        <ele>55</ele>
        <time>2020-06-24T11:34:53.081Z</time>
      </trkpt>
      <trkpt lat="48.64316" lon="-2.31985">
        <ele>57</ele>
        <time>2020-06-24T11:34:54.081Z</time>
      </trkpt>
      <trkpt lat="48.64318" lon="-2.31986">
        <ele>57</ele>
        <time>2020-06-24T11:34:55.081Z</time>
      </trkpt>
      <trkpt lat="48.6432" lon="-2.31987">
        <ele>57</ele>
        <time>2020-06-24T11:34:56.081Z</time>
      </trkpt>
      <trkpt lat="48.64321" lon="-2.31988">
        <ele>57</ele>
        <time>2020-06-24T11:34:57.081Z</time>
      </trkpt>
      <trkpt lat="48.64322" lon="-2.31989">
        <ele>57</ele>
        <time>2020-06-24T11:34:58.081Z</time>
      </trkpt>
      <trkpt lat="48.64323" lon="-2.3199">
        <ele>58</ele>
        <time>2020-06-24T11:34:59.081Z</time>
      </trkpt>
      <trkpt lat="48.64325" lon="-2.31991">
        <ele>57</ele>
        <time>2020-06-24T11:35:00.081Z</time>
      </trkpt>
      <trkpt lat="48.64326" lon="-2.31992">
        <ele>58</ele>
        <time>2020-06-24T11:35:01.081Z</time>
      </trkpt>
      <trkpt lat="48.64327" lon="-2.31993">
        <ele>58</ele>
        <time>2020-06-24T11:35:02.081Z</time>
      </trkpt>
      <trkpt lat="48.64328" lon="-2.31993">
        <ele>58</ele>
        <time>2020-06-24T11:35:03.081Z</time>
      </trkpt>
      <trkpt lat="48.6433" lon="-2.31994">
        <ele>57</ele>
        <time>2020-06-24T11:35:04.081Z</time>
      </trkpt>
      <trkpt lat="48.64331" lon="-2.31995">
        <ele>57</ele>
        <time>2020-06-24T11:35:05.081Z</time>
      </trkpt>
      <trkpt lat="48.64332" lon="-2.31996">
        <ele>57</ele>
        <time>2020-06-24T11:35:06.081Z</time>
      </trkpt>
      <trkpt lat="48.64333" lon="-2.31997">
        <ele>57</ele>
        <time>2020-06-24T11:35:07.081Z</time>
      </trkpt>
      <trkpt lat="48.64334" lon="-2.31998">
        <ele>56</ele>
        <time>2020-06-24T11:35:08.081Z</time>
      </trkpt>
      <trkpt lat="48.64335" lon="-2.31999">
        <ele>56</ele>
        <time>2020-06-24T11:35:09.081Z</time>
      </trkpt>
      <trkpt lat="48.64336" lon="-2.32">
        <ele>56</ele>
        <time>2020-06-24T11:35:10.081Z</time>
      </trkpt>
      <trkpt lat="48.64337" lon="-2.32001">
        <ele>56</ele>
        <time>2020-06-24T11:35:11.081Z</time>
      </trkpt>
      <trkpt lat="48.64338" lon="-2.32002">
        <ele>56</ele>
        <time>2020-06-24T11:35:12.081Z</time>
      </trkpt>
      <trkpt lat="48.6434" lon="-2.32003">
        <ele>56</ele>
        <time>2020-06-24T11:35:13.081Z</time>
      </trkpt>
      <trkpt lat="48.64341" lon="-2.32004">
        <ele>56</ele>
        <time>2020-06-24T11:35:14.081Z</time>
      </trkpt>
      <trkpt lat="48.64342" lon="-2.32005">
        <ele>57</ele>
        <time>2020-06-24T11:35:15.081Z</time>
      </trkpt>
      <trkpt lat="48.64343" lon="-2.32006">
        <ele>57</ele>
        <time>2020-06-24T11:35:16.081Z</time>
      </trkpt>
      <trkpt lat="48.64344" lon="-2.32007">
        <ele>57</ele>
        <time>2020-06-24T11:35:17.081Z</time>
      </trkpt>
      <trkpt lat="48.64345" lon="-2.32009">
        <ele>57</ele>
        <time>2020-06-24T11:35:18.081Z</time>
      </trkpt>
      <trkpt lat="48.64347" lon="-2.3201">
        <ele>57</ele>
        <time>2020-06-24T11:35:19.081Z</time>
      </trkpt>
      <trkpt lat="48.64348" lon="-2.32011">
        <ele>57</ele>
        <time>2020-06-24T11:35:20.081Z</time>
      </trkpt>
      <trkpt lat="48.64349" lon="-2.32012">
        <ele>58</ele>
        <time>2020-06-24T11:35:21.081Z</time>
      </trkpt>
      <trkpt lat="48.6435" lon="-2.32013">
        <ele>57</ele>
        <time>2020-06-24T11:35:22.081Z</time>
      </trkpt>
      <trkpt lat="48.64351" lon="-2.32014">
        <ele>58</ele>
        <time>2020-06-24T11:35:23.081Z</time>
      </trkpt>
      <trkpt lat="48.64352" lon="-2.32015">
        <ele>58</ele>
        <time>2020-06-24T11:35:24.081Z</time>
      </trkpt>
      <trkpt lat="48.64353" lon="-2.32016">
        <ele>58</ele>
        <time>2020-06-24T11:35:25.081Z</time>
      </trkpt>
      <trkpt lat="48.64354" lon="-2.32017">
        <ele>58</ele>
        <time>2020-06-24T11:35:26.081Z</time>
      </trkpt>
      <trkpt lat="48.64355" lon="-2.32018">
        <ele>59</ele>
        <time>2020-06-24T11:35:27.081Z</time>
      </trkpt>
      <trkpt lat="48.64356" lon="-2.3202">
        <ele>58</ele>
        <time>2020-06-24T11:35:28.081Z</time>
      </trkpt>
      <trkpt lat="48.64357" lon="-2.32022">
        <ele>58</ele>
        <time>2020-06-24T11:35:29.081Z</time>
      </trkpt>
      <trkpt lat="48.64358" lon="-2.32023">
        <ele>58</ele>
        <time>2020-06-24T11:35:30.081Z</time>
      </trkpt>
      <trkpt lat="48.64358" lon="-2.32025">
        <ele>58</ele>
        <time>2020-06-24T11:35:31.081Z</time>
      </trkpt>
      <trkpt lat="48.64359" lon="-2.32026">
        <ele>58</ele>
        <time>2020-06-24T11:35:32.081Z</time>
      </trkpt>
      <trkpt lat="48.6436" lon="-2.32028">
        <ele>58</ele>
        <time>2020-06-24T11:35:33.081Z</time>
      </trkpt>
      <trkpt lat="48.64361" lon="-2.32029">
        <ele>58</ele>
        <time>2020-06-24T11:35:34.081Z</time>
      </trkpt>
      <trkpt lat="48.64361" lon="-2.3203">
        <ele>58</ele>
        <time>2020-06-24T11:35:35.081Z</time>
      </trkpt>
      <trkpt lat="48.64362" lon="-2.32031">
        <ele>57</ele>
        <time>2020-06-24T11:35:36.081Z</time>
      </trkpt>
      <trkpt lat="48.64363" lon="-2.32033">
        <ele>58</ele>
        <time>2020-06-24T11:35:37.081Z</time>
      </trkpt>
      <trkpt lat="48.64364" lon="-2.32034">
        <ele>57</ele>
        <time>2020-06-24T11:35:38.081Z</time>
      </trkpt>
      <trkpt lat="48.64365" lon="-2.32036">
        <ele>58</ele>
        <time>2020-06-24T11:35:39.081Z</time>
      </trkpt>
      <trkpt lat="48.64366" lon="-2.32038">
        <ele>58</ele>
        <time>2020-06-24T11:35:40.081Z</time>
      </trkpt>
      <trkpt lat="48.64367" lon="-2.32039">
        <ele>58</ele>
        <time>2020-06-24T11:35:41.081Z</time>
      </trkpt>
      <trkpt lat="48.64368" lon="-2.32041">
        <ele>58</ele>
        <time>2020-06-24T11:35:42.081Z</time>
      </trkpt>
      <trkpt lat="48.64369" lon="-2.32042">
        <ele>59</ele>
        <time>2020-06-24T11:35:43.081Z</time>
      </trkpt>
      <trkpt lat="48.6437" lon="-2.32044">
        <ele>59</ele>
        <time>2020-06-24T11:35:44.081Z</time>
      </trkpt>
      <trkpt lat="48.64371" lon="-2.32046">
        <ele>59</ele>
        <time>2020-06-24T11:35:45.081Z</time>
      </trkpt>
      <trkpt lat="48.64372" lon="-2.32047">
        <ele>59</ele>
        <time>2020-06-24T11:35:46.081Z</time>
      </trkpt>
      <trkpt lat="48.64373" lon="-2.32049">
        <ele>59</ele>
        <time>2020-06-24T11:35:47.081Z</time>
      </trkpt>
      <trkpt lat="48.64375" lon="-2.3205">
        <ele>59</ele>
        <time>2020-06-24T11:35:48.081Z</time>
      </trkpt>
      <trkpt lat="48.64376" lon="-2.32052">
        <ele>59</ele>
        <time>2020-06-24T11:35:49.081Z</time>
      </trkpt>
      <trkpt lat="48.64377" lon="-2.32054">
        <ele>60</ele>
        <time>2020-06-24T11:35:50.081Z</time>
      </trkpt>
      <trkpt lat="48.64378" lon="-2.32055">
        <ele>60</ele>
        <time>2020-06-24T11:35:51.081Z</time>
      </trkpt>
      <trkpt lat="48.64379" lon="-2.32057">
        <ele>60</ele>
        <time>2020-06-24T11:35:52.081Z</time>
      </trkpt>
      <trkpt lat="48.6438" lon="-2.32059">
        <ele>59</ele>
        <time>2020-06-24T11:35:53.081Z</time>
      </trkpt>
      <trkpt lat="48.64381" lon="-2.3206">
        <ele>59</ele>
        <time>2020-06-24T11:35:54.081Z</time>
      </trkpt>
      <trkpt lat="48.64382" lon="-2.32062">
        <ele>59</ele>
        <time>2020-06-24T11:35:55.081Z</time>
      </trkpt>
      <trkpt lat="48.64383" lon="-2.32063">
        <ele>59</ele>
        <time>2020-06-24T11:35:56.081Z</time>
      </trkpt>
      <trkpt lat="48.64383" lon="-2.32065">
        <ele>59</ele>
        <time>2020-06-24T11:35:57.081Z</time>
      </trkpt>
      <trkpt lat="48.64384" lon="-2.32067">
        <ele>60</ele>
        <time>2020-06-24T11:35:58.081Z</time>
      </trkpt>
      <trkpt lat="48.64384" lon="-2.32068">
        <ele>60</ele>
        <time>2020-06-24T11:35:59.081Z</time>
      </trkpt>
      <trkpt lat="48.64385" lon="-2.3207">
        <ele>59</ele>
        <time>2020-06-24T11:36:00.081Z</time>
      </trkpt>
      <trkpt lat="48.64386" lon="-2.32072">
        <ele>59</ele>
        <time>2020-06-24T11:36:01.081Z</time>
      </trkpt>
      <trkpt lat="48.64387" lon="-2.32073">
        <ele>59</ele>
        <time>2020-06-24T11:36:02.081Z</time>
      </trkpt>
      <trkpt lat="48.64388" lon="-2.32074">
        <ele>59</ele>
        <time>2020-06-24T11:36:03.081Z</time>
      </trkpt>
      <trkpt lat="48.64389" lon="-2.32076">
        <ele>58</ele>
        <time>2020-06-24T11:36:04.081Z</time>
      </trkpt>
      <trkpt lat="48.6439" lon="-2.32077">
        <ele>58</ele>
        <time>2020-06-24T11:36:05.081Z</time>
      </trkpt>
      <trkpt lat="48.64391" lon="-2.32079">
        <ele>58</ele>
        <time>2020-06-24T11:36:06.081Z</time>
      </trkpt>
      <trkpt lat="48.64392" lon="-2.3208">
        <ele>58</ele>
        <time>2020-06-24T11:36:07.081Z</time>
      </trkpt>
      <trkpt lat="48.64393" lon="-2.32082">
        <ele>57</ele>
        <time>2020-06-24T11:36:08.081Z</time>
      </trkpt>
      <trkpt lat="48.64394" lon="-2.32083">
        <ele>57</ele>
        <time>2020-06-24T11:36:09.081Z</time>
      </trkpt>
      <trkpt lat="48.64394" lon="-2.32085">
        <ele>57</ele>
        <time>2020-06-24T11:36:10.081Z</time>
      </trkpt>
      <trkpt lat="48.64395" lon="-2.32088">
        <ele>56</ele>
        <time>2020-06-24T11:36:11.081Z</time>
      </trkpt>
      <trkpt lat="48.64396" lon="-2.3209">
        <ele>56</ele>
        <time>2020-06-24T11:36:12.081Z</time>
      </trkpt>
      <trkpt lat="48.64396" lon="-2.32092">
        <ele>56</ele>
        <time>2020-06-24T11:36:13.081Z</time>
      </trkpt>
      <trkpt lat="48.64397" lon="-2.32093">
        <ele>56</ele>
        <time>2020-06-24T11:36:14.081Z</time>
      </trkpt>
      <trkpt lat="48.64398" lon="-2.32095">
        <ele>55</ele>
        <time>2020-06-24T11:36:15.081Z</time>
      </trkpt>
      <trkpt lat="48.64399" lon="-2.32097">
        <ele>55</ele>
        <time>2020-06-24T11:36:16.081Z</time>
      </trkpt>
      <trkpt lat="48.64399" lon="-2.32098">
        <ele>55</ele>
        <time>2020-06-24T11:36:17.081Z</time>
      </trkpt>
      <trkpt lat="48.644" lon="-2.321">
        <ele>56</ele>
        <time>2020-06-24T11:36:18.081Z</time>
      </trkpt>
      <trkpt lat="48.64401" lon="-2.32101">
        <ele>55</ele>
        <time>2020-06-24T11:36:19.081Z</time>
      </trkpt>
      <trkpt lat="48.64401" lon="-2.32103">
        <ele>55</ele>
        <time>2020-06-24T11:36:20.081Z</time>
      </trkpt>
      <trkpt lat="48.64402" lon="-2.32104">
        <ele>55</ele>
        <time>2020-06-24T11:36:21.081Z</time>
      </trkpt>
      <trkpt lat="48.64402" lon="-2.32106">
        <ele>55</ele>
        <time>2020-06-24T11:36:22.081Z</time>
      </trkpt>
      <trkpt lat="48.64403" lon="-2.32108">
        <ele>55</ele>
        <time>2020-06-24T11:36:23.081Z</time>
      </trkpt>
      <trkpt lat="48.64403" lon="-2.32109">
        <ele>55</ele>
        <time>2020-06-24T11:36:24.081Z</time>
      </trkpt>
      <trkpt lat="48.64404" lon="-2.32111">
        <ele>55</ele>
        <time>2020-06-24T11:36:25.081Z</time>
      </trkpt>
      <trkpt lat="48.64405" lon="-2.32112">
        <ele>55</ele>
        <time>2020-06-24T11:36:26.081Z</time>
      </trkpt>
      <trkpt lat="48.64405" lon="-2.32114">
        <ele>55</ele>
        <time>2020-06-24T11:36:27.081Z</time>
      </trkpt>
      <trkpt lat="48.64406" lon="-2.32115">
        <ele>55</ele>
        <time>2020-06-24T11:36:28.081Z</time>
      </trkpt>
      <trkpt lat="48.64406" lon="-2.32116">
        <ele>55</ele>
        <time>2020-06-24T11:36:29.081Z</time>
      </trkpt>
      <trkpt lat="48.64407" lon="-2.32118">
        <ele>55</ele>
        <time>2020-06-24T11:36:30.081Z</time>
      </trkpt>
      <trkpt lat="48.64408" lon="-2.3212">
        <ele>55</ele>
        <time>2020-06-24T11:36:31.081Z</time>
      </trkpt>
      <trkpt lat="48.64409" lon="-2.32121">
        <ele>55</ele>
        <time>2020-06-24T11:36:32.081Z</time>
      </trkpt>
      <trkpt lat="48.6441" lon="-2.32123">
        <ele>55</ele>
        <time>2020-06-24T11:36:33.081Z</time>
      </trkpt>
      <trkpt lat="48.64411" lon="-2.32125">
        <ele>55</ele>
        <time>2020-06-24T11:36:34.081Z</time>
      </trkpt>
      <trkpt lat="48.64412" lon="-2.32127">
        <ele>54</ele>
        <time>2020-06-24T11:36:35.081Z</time>
      </trkpt>
      <trkpt lat="48.64413" lon="-2.32128">
        <ele>54</ele>
        <time>2020-06-24T11:36:36.081Z</time>
      </trkpt>
      <trkpt lat="48.64413" lon="-2.3213">
        <ele>53</ele>
        <time>2020-06-24T11:36:37.081Z</time>
      </trkpt>
      <trkpt lat="48.64414" lon="-2.32132">
        <ele>53</ele>
        <time>2020-06-24T11:36:38.081Z</time>
      </trkpt>
      <trkpt lat="48.64414" lon="-2.32133">
        <ele>53</ele>
        <time>2020-06-24T11:36:39.081Z</time>
      </trkpt>
      <trkpt lat="48.64415" lon="-2.32135">
        <ele>53</ele>
        <time>2020-06-24T11:36:40.081Z</time>
      </trkpt>
      <trkpt lat="48.64416" lon="-2.32137">
        <ele>53</ele>
        <time>2020-06-24T11:36:41.081Z</time>
      </trkpt>
      <trkpt lat="48.64416" lon="-2.32138">
        <ele>53</ele>
        <time>2020-06-24T11:36:42.081Z</time>
      </trkpt>
      <trkpt lat="48.64417" lon="-2.3214">
        <ele>54</ele>
        <time>2020-06-24T11:36:43.081Z</time>
      </trkpt>
      <trkpt lat="48.64417" lon="-2.32142">
        <ele>54</ele>
        <time>2020-06-24T11:36:44.081Z</time>
      </trkpt>
      <trkpt lat="48.64418" lon="-2.32143">
        <ele>54</ele>
        <time>2020-06-24T11:36:45.081Z</time>
      </trkpt>
      <trkpt lat="48.64419" lon="-2.32145">
        <ele>54</ele>
        <time>2020-06-24T11:36:46.081Z</time>
      </trkpt>
      <trkpt lat="48.6442" lon="-2.32147">
        <ele>54</ele>
        <time>2020-06-24T11:36:47.081Z</time>
      </trkpt>
      <trkpt lat="48.6442" lon="-2.32149">
        <ele>54</ele>
        <time>2020-06-24T11:36:48.081Z</time>
      </trkpt>
      <trkpt lat="48.64421" lon="-2.3215">
        <ele>54</ele>
        <time>2020-06-24T11:36:49.081Z</time>
      </trkpt>
      <trkpt lat="48.64422" lon="-2.32152">
        <ele>54</ele>
        <time>2020-06-24T11:36:50.081Z</time>
      </trkpt>
      <trkpt lat="48.64423" lon="-2.32154">
        <ele>54</ele>
        <time>2020-06-24T11:36:51.081Z</time>
      </trkpt>
      <trkpt lat="48.64424" lon="-2.32156">
        <ele>54</ele>
        <time>2020-06-24T11:36:52.081Z</time>
      </trkpt>
      <trkpt lat="48.64424" lon="-2.32158">
        <ele>54</ele>
        <time>2020-06-24T11:36:53.081Z</time>
      </trkpt>
      <trkpt lat="48.64425" lon="-2.3216">
        <ele>54</ele>
        <time>2020-06-24T11:36:54.081Z</time>
      </trkpt>
      <trkpt lat="48.64426" lon="-2.32162">
        <ele>54</ele>
        <time>2020-06-24T11:36:55.081Z</time>
      </trkpt>
      <trkpt lat="48.64426" lon="-2.32163">
        <ele>53</ele>
        <time>2020-06-24T11:36:56.081Z</time>
      </trkpt>
      <trkpt lat="48.64427" lon="-2.32165">
        <ele>54</ele>
        <time>2020-06-24T11:36:57.081Z</time>
      </trkpt>
      <trkpt lat="48.64428" lon="-2.32167">
        <ele>54</ele>
        <time>2020-06-24T11:36:58.081Z</time>
      </trkpt>
      <trkpt lat="48.64428" lon="-2.32169">
        <ele>54</ele>
        <time>2020-06-24T11:36:59.081Z</time>
      </trkpt>
      <trkpt lat="48.64428" lon="-2.32171">
        <ele>54</ele>
        <time>2020-06-24T11:37:00.081Z</time>
      </trkpt>
      <trkpt lat="48.64429" lon="-2.32173">
        <ele>54</ele>
        <time>2020-06-24T11:37:01.081Z</time>
      </trkpt>
      <trkpt lat="48.64429" lon="-2.32175">
        <ele>54</ele>
        <time>2020-06-24T11:37:02.081Z</time>
      </trkpt>
      <trkpt lat="48.6443" lon="-2.32177">
        <ele>54</ele>
        <time>2020-06-24T11:37:03.081Z</time>
      </trkpt>
      <trkpt lat="48.64431" lon="-2.32179">
        <ele>54</ele>
        <time>2020-06-24T11:37:04.081Z</time>
      </trkpt>
      <trkpt lat="48.64432" lon="-2.3218">
        <ele>54</ele>
        <time>2020-06-24T11:37:05.081Z</time>
      </trkpt>
      <trkpt lat="48.64432" lon="-2.32182">
        <ele>54</ele>
        <time>2020-06-24T11:37:06.081Z</time>
      </trkpt>
      <trkpt lat="48.64433" lon="-2.32184">
        <ele>54</ele>
        <time>2020-06-24T11:37:07.081Z</time>
      </trkpt>
      <trkpt lat="48.64433" lon="-2.32185">
        <ele>54</ele>
        <time>2020-06-24T11:37:08.081Z</time>
      </trkpt>
      <trkpt lat="48.64434" lon="-2.32187">
        <ele>54</ele>
        <time>2020-06-24T11:37:09.081Z</time>
      </trkpt>
      <trkpt lat="48.64435" lon="-2.32188">
        <ele>54</ele>
        <time>2020-06-24T11:37:10.081Z</time>
      </trkpt>
      <trkpt lat="48.64435" lon="-2.3219">
        <ele>54</ele>
        <time>2020-06-24T11:37:11.081Z</time>
      </trkpt>
      <trkpt lat="48.64436" lon="-2.32192">
        <ele>54</ele>
        <time>2020-06-24T11:37:12.081Z</time>
      </trkpt>
      <trkpt lat="48.64437" lon="-2.32194">
        <ele>54</ele>
        <time>2020-06-24T11:37:13.081Z</time>
      </trkpt>
      <trkpt lat="48.64438" lon="-2.32196">
        <ele>54</ele>
        <time>2020-06-24T11:37:14.081Z</time>
      </trkpt>
      <trkpt lat="48.64438" lon="-2.32197">
        <ele>54</ele>
        <time>2020-06-24T11:37:15.081Z</time>
      </trkpt>
      <trkpt lat="48.64439" lon="-2.32199">
        <ele>54</ele>
        <time>2020-06-24T11:37:16.081Z</time>
      </trkpt>
      <trkpt lat="48.6444" lon="-2.32201">
        <ele>54</ele>
        <time>2020-06-24T11:37:17.081Z</time>
      </trkpt>
      <trkpt lat="48.64441" lon="-2.32202">
        <ele>54</ele>
        <time>2020-06-24T11:37:18.081Z</time>
      </trkpt>
      <trkpt lat="48.64441" lon="-2.32204">
        <ele>54</ele>
        <time>2020-06-24T11:37:19.081Z</time>
      </trkpt>
      <trkpt lat="48.64442" lon="-2.32206">
        <ele>54</ele>
        <time>2020-06-24T11:37:20.081Z</time>
      </trkpt>
      <trkpt lat="48.64442" lon="-2.32207">
        <ele>55</ele>
        <time>2020-06-24T11:37:21.081Z</time>
      </trkpt>
      <trkpt lat="48.64443" lon="-2.32209">
        <ele>55</ele>
        <time>2020-06-24T11:37:22.081Z</time>
      </trkpt>
      <trkpt lat="48.64443" lon="-2.32211">
        <ele>55</ele>
        <time>2020-06-24T11:37:23.081Z</time>
      </trkpt>
      <trkpt lat="48.64444" lon="-2.32213">
        <ele>55</ele>
        <time>2020-06-24T11:37:24.081Z</time>
      </trkpt>
      <trkpt lat="48.64445" lon="-2.32215">
        <ele>55</ele>
        <time>2020-06-24T11:37:25.081Z</time>
      </trkpt>
      <trkpt lat="48.64446" lon="-2.32217">
        <ele>55</ele>
        <time>2020-06-24T11:37:26.081Z</time>
      </trkpt>
      <trkpt lat="48.64447" lon="-2.32219">
        <ele>56</ele>
        <time>2020-06-24T11:37:27.081Z</time>
      </trkpt>
      <trkpt lat="48.64448" lon="-2.32221">
        <ele>56</ele>
        <time>2020-06-24T11:37:28.081Z</time>
      </trkpt>
      <trkpt lat="48.64449" lon="-2.32223">
        <ele>56</ele>
        <time>2020-06-24T11:37:29.081Z</time>
      </trkpt>
      <trkpt lat="48.6445" lon="-2.32225">
        <ele>57</ele>
        <time>2020-06-24T11:37:30.081Z</time>
      </trkpt>
      <trkpt lat="48.64451" lon="-2.32227">
        <ele>57</ele>
        <time>2020-06-24T11:37:31.081Z</time>
      </trkpt>
      <trkpt lat="48.64452" lon="-2.32229">
        <ele>57</ele>
        <time>2020-06-24T11:37:32.081Z</time>
      </trkpt>
      <trkpt lat="48.64453" lon="-2.32231">
        <ele>57</ele>
        <time>2020-06-24T11:37:33.081Z</time>
      </trkpt>
      <trkpt lat="48.64455" lon="-2.32233">
        <ele>57</ele>
        <time>2020-06-24T11:37:34.081Z</time>
      </trkpt>
      <trkpt lat="48.64456" lon="-2.32234">
        <ele>57</ele>
        <time>2020-06-24T11:37:35.081Z</time>
      </trkpt>
      <trkpt lat="48.64457" lon="-2.32236">
        <ele>57</ele>
        <time>2020-06-24T11:37:36.081Z</time>
      </trkpt>
      <trkpt lat="48.64458" lon="-2.32238">
        <ele>57</ele>
        <time>2020-06-24T11:37:37.081Z</time>
      </trkpt>
      <trkpt lat="48.64459" lon="-2.3224">
        <ele>56</ele>
        <time>2020-06-24T11:37:38.081Z</time>
      </trkpt>
      <trkpt lat="48.64459" lon="-2.32242">
        <ele>56</ele>
        <time>2020-06-24T11:37:39.081Z</time>
      </trkpt>
      <trkpt lat="48.6446" lon="-2.32243">
        <ele>56</ele>
        <time>2020-06-24T11:37:40.081Z</time>
      </trkpt>
      <trkpt lat="48.64461" lon="-2.32244">
        <ele>56</ele>
        <time>2020-06-24T11:37:41.081Z</time>
      </trkpt>
      <trkpt lat="48.64462" lon="-2.32246">
        <ele>56</ele>
        <time>2020-06-24T11:37:42.081Z</time>
      </trkpt>
      <trkpt lat="48.64464" lon="-2.32247">
        <ele>57</ele>
        <time>2020-06-24T11:37:43.081Z</time>
      </trkpt>
      <trkpt lat="48.64465" lon="-2.32249">
        <ele>57</ele>
        <time>2020-06-24T11:37:44.081Z</time>
      </trkpt>
      <trkpt lat="48.64466" lon="-2.3225">
        <ele>57</ele>
        <time>2020-06-24T11:37:45.081Z</time>
      </trkpt>
      <trkpt lat="48.64467" lon="-2.32251">
        <ele>57</ele>
        <time>2020-06-24T11:37:46.081Z</time>
      </trkpt>
      <trkpt lat="48.64468" lon="-2.32252">
        <ele>57</ele>
        <time>2020-06-24T11:37:47.081Z</time>
      </trkpt>
      <trkpt lat="48.64469" lon="-2.32254">
        <ele>57</ele>
        <time>2020-06-24T11:37:48.081Z</time>
      </trkpt>
      <trkpt lat="48.6447" lon="-2.32255">
        <ele>57</ele>
        <time>2020-06-24T11:37:49.081Z</time>
      </trkpt>
      <trkpt lat="48.64472" lon="-2.32256">
        <ele>57</ele>
        <time>2020-06-24T11:37:50.081Z</time>
      </trkpt>
      <trkpt lat="48.64473" lon="-2.32257">
        <ele>57</ele>
        <time>2020-06-24T11:37:51.081Z</time>
      </trkpt>
      <trkpt lat="48.64474" lon="-2.32258">
        <ele>57</ele>
        <time>2020-06-24T11:37:52.081Z</time>
      </trkpt>
      <trkpt lat="48.64475" lon="-2.32259">
        <ele>56</ele>
        <time>2020-06-24T11:37:53.081Z</time>
      </trkpt>
      <trkpt lat="48.64477" lon="-2.3226">
        <ele>56</ele>
        <time>2020-06-24T11:37:54.081Z</time>
      </trkpt>
      <trkpt lat="48.64478" lon="-2.32261">
        <ele>56</ele>
        <time>2020-06-24T11:37:55.081Z</time>
      </trkpt>
      <trkpt lat="48.64479" lon="-2.32262">
        <ele>56</ele>
        <time>2020-06-24T11:37:56.081Z</time>
      </trkpt>
      <trkpt lat="48.6448" lon="-2.32263">
        <ele>56</ele>
        <time>2020-06-24T11:37:57.081Z</time>
      </trkpt>
      <trkpt lat="48.64482" lon="-2.32265">
        <ele>56</ele>
        <time>2020-06-24T11:37:58.081Z</time>
      </trkpt>
      <trkpt lat="48.64483" lon="-2.32266">
        <ele>56</ele>
        <time>2020-06-24T11:37:59.081Z</time>
      </trkpt>
      <trkpt lat="48.64484" lon="-2.32267">
        <ele>56</ele>
        <time>2020-06-24T11:38:00.081Z</time>
      </trkpt>
      <trkpt lat="48.64485" lon="-2.32268">
        <ele>56</ele>
        <time>2020-06-24T11:38:01.081Z</time>
      </trkpt>
      <trkpt lat="48.64486" lon="-2.32269">
        <ele>56</ele>
        <time>2020-06-24T11:38:02.081Z</time>
      </trkpt>
      <trkpt lat="48.64487" lon="-2.3227">
        <ele>56</ele>
        <time>2020-06-24T11:38:03.081Z</time>
      </trkpt>
      <trkpt lat="48.64489" lon="-2.32271">
        <ele>56</ele>
        <time>2020-06-24T11:38:04.081Z</time>
      </trkpt>
      <trkpt lat="48.6449" lon="-2.32272">
        <ele>56</ele>
        <time>2020-06-24T11:38:05.081Z</time>
      </trkpt>
      <trkpt lat="48.64491" lon="-2.32273">
        <ele>56</ele>
        <time>2020-06-24T11:38:06.081Z</time>
      </trkpt>
      <trkpt lat="48.64492" lon="-2.32275">
        <ele>56</ele>
        <time>2020-06-24T11:38:07.081Z</time>
      </trkpt>
      <trkpt lat="48.64493" lon="-2.32276">
        <ele>56</ele>
        <time>2020-06-24T11:38:08.081Z</time>
      </trkpt>
      <trkpt lat="48.64494" lon="-2.32277">
        <ele>56</ele>
        <time>2020-06-24T11:38:09.081Z</time>
      </trkpt>
      <trkpt lat="48.64495" lon="-2.32278">
        <ele>56</ele>
        <time>2020-06-24T11:38:10.081Z</time>
      </trkpt>
      <trkpt lat="48.64497" lon="-2.32279">
        <ele>56</ele>
        <time>2020-06-24T11:38:11.081Z</time>
      </trkpt>
      <trkpt lat="48.64498" lon="-2.3228">
        <ele>56</ele>
        <time>2020-06-24T11:38:12.081Z</time>
      </trkpt>
      <trkpt lat="48.64499" lon="-2.32282">
        <ele>56</ele>
        <time>2020-06-24T11:38:13.081Z</time>
      </trkpt>
      <trkpt lat="48.645" lon="-2.32283">
        <ele>56</ele>
        <time>2020-06-24T11:38:14.081Z</time>
      </trkpt>
      <trkpt lat="48.64501" lon="-2.32284">
        <ele>56</ele>
        <time>2020-06-24T11:38:15.081Z</time>
      </trkpt>
      <trkpt lat="48.64502" lon="-2.32285">
        <ele>56</ele>
        <time>2020-06-24T11:38:16.081Z</time>
      </trkpt>
      <trkpt lat="48.64503" lon="-2.32286">
        <ele>56</ele>
        <time>2020-06-24T11:38:17.081Z</time>
      </trkpt>
      <trkpt lat="48.64504" lon="-2.32287">
        <ele>56</ele>
        <time>2020-06-24T11:38:18.081Z</time>
      </trkpt>
      <trkpt lat="48.64505" lon="-2.32289">
        <ele>56</ele>
        <time>2020-06-24T11:38:19.081Z</time>
      </trkpt>
      <trkpt lat="48.64506" lon="-2.3229">
        <ele>57</ele>
        <time>2020-06-24T11:38:20.081Z</time>
      </trkpt>
      <trkpt lat="48.64507" lon="-2.32291">
        <ele>57</ele>
        <time>2020-06-24T11:38:21.081Z</time>
      </trkpt>
      <trkpt lat="48.64509" lon="-2.32293">
        <ele>57</ele>
        <time>2020-06-24T11:38:22.081Z</time>
      </trkpt>
      <trkpt lat="48.6451" lon="-2.32294">
        <ele>57</ele>
        <time>2020-06-24T11:38:23.081Z</time>
      </trkpt>
      <trkpt lat="48.64511" lon="-2.32296">
        <ele>58</ele>
        <time>2020-06-24T11:38:24.081Z</time>
      </trkpt>
      <trkpt lat="48.64512" lon="-2.32297">
        <ele>58</ele>
        <time>2020-06-24T11:38:25.081Z</time>
      </trkpt>
      <trkpt lat="48.64513" lon="-2.32299">
        <ele>59</ele>
        <time>2020-06-24T11:38:26.081Z</time>
      </trkpt>
      <trkpt lat="48.64514" lon="-2.323">
        <ele>59</ele>
        <time>2020-06-24T11:38:27.081Z</time>
      </trkpt>
      <trkpt lat="48.64515" lon="-2.32302">
        <ele>59</ele>
        <time>2020-06-24T11:38:28.081Z</time>
      </trkpt>
      <trkpt lat="48.64516" lon="-2.32304">
        <ele>59</ele>
        <time>2020-06-24T11:38:29.081Z</time>
      </trkpt>
      <trkpt lat="48.64517" lon="-2.32305">
        <ele>59</ele>
        <time>2020-06-24T11:38:30.081Z</time>
      </trkpt>
      <trkpt lat="48.64517" lon="-2.32307">
        <ele>58</ele>
        <time>2020-06-24T11:38:31.081Z</time>
      </trkpt>
      <trkpt lat="48.64518" lon="-2.32309">
        <ele>59</ele>
        <time>2020-06-24T11:38:32.081Z</time>
      </trkpt>
      <trkpt lat="48.64519" lon="-2.3231">
        <ele>59</ele>
        <time>2020-06-24T11:38:33.081Z</time>
      </trkpt>
      <trkpt lat="48.6452" lon="-2.32312">
        <ele>59</ele>
        <time>2020-06-24T11:38:34.081Z</time>
      </trkpt>
      <trkpt lat="48.64521" lon="-2.32313">
        <ele>59</ele>
        <time>2020-06-24T11:38:35.081Z</time>
      </trkpt>
      <trkpt lat="48.64522" lon="-2.32315">
        <ele>59</ele>
        <time>2020-06-24T11:38:36.081Z</time>
      </trkpt>
      <trkpt lat="48.64523" lon="-2.32316">
        <ele>60</ele>
        <time>2020-06-24T11:38:37.081Z</time>
      </trkpt>
      <trkpt lat="48.64524" lon="-2.32317">
        <ele>60</ele>
        <time>2020-06-24T11:38:38.081Z</time>
      </trkpt>
      <trkpt lat="48.64524" lon="-2.32318">
        <ele>59</ele>
        <time>2020-06-24T11:38:39.081Z</time>
      </trkpt>
      <trkpt lat="48.64525" lon="-2.3232">
        <ele>59</ele>
        <time>2020-06-24T11:38:40.081Z</time>
      </trkpt>
      <trkpt lat="48.64526" lon="-2.32321">
        <ele>60</ele>
        <time>2020-06-24T11:38:41.081Z</time>
      </trkpt>
      <trkpt lat="48.64527" lon="-2.32322">
        <ele>60</ele>
        <time>2020-06-24T11:38:42.081Z</time>
      </trkpt>
      <trkpt lat="48.64529" lon="-2.32324">
        <ele>60</ele>
        <time>2020-06-24T11:38:43.081Z</time>
      </trkpt>
      <trkpt lat="48.6453" lon="-2.32325">
        <ele>60</ele>
        <time>2020-06-24T11:38:44.081Z</time>
      </trkpt>
      <trkpt lat="48.64531" lon="-2.32326">
        <ele>60</ele>
        <time>2020-06-24T11:38:45.081Z</time>
      </trkpt>
      <trkpt lat="48.64532" lon="-2.32327">
        <ele>60</ele>
        <time>2020-06-24T11:38:46.081Z</time>
      </trkpt>
      <trkpt lat="48.64533" lon="-2.32329">
        <ele>60</ele>
        <time>2020-06-24T11:38:47.081Z</time>
      </trkpt>
      <trkpt lat="48.64533" lon="-2.3233">
        <ele>61</ele>
        <time>2020-06-24T11:38:48.081Z</time>
      </trkpt>
      <trkpt lat="48.64533" lon="-2.32332">
        <ele>60</ele>
        <time>2020-06-24T11:38:49.081Z</time>
      </trkpt>
      <trkpt lat="48.64533" lon="-2.32334">
        <ele>59</ele>
        <time>2020-06-24T11:38:50.081Z</time>
      </trkpt>
      <trkpt lat="48.64532" lon="-2.32337">
        <ele>59</ele>
        <time>2020-06-24T11:38:51.081Z</time>
      </trkpt>
      <trkpt lat="48.64532" lon="-2.32338">
        <ele>59</ele>
        <time>2020-06-24T11:38:52.081Z</time>
      </trkpt>
      <trkpt lat="48.64531" lon="-2.3234">
        <ele>59</ele>
        <time>2020-06-24T11:38:53.081Z</time>
      </trkpt>
      <trkpt lat="48.64531" lon="-2.32342">
        <ele>59</ele>
        <time>2020-06-24T11:38:54.081Z</time>
      </trkpt>
      <trkpt lat="48.6453" lon="-2.32344">
        <ele>58</ele>
        <time>2020-06-24T11:38:55.081Z</time>
      </trkpt>
      <trkpt lat="48.6453" lon="-2.32346">
        <ele>58</ele>
        <time>2020-06-24T11:38:56.081Z</time>
      </trkpt>
      <trkpt lat="48.64529" lon="-2.32347">
        <ele>58</ele>
        <time>2020-06-24T11:38:57.081Z</time>
      </trkpt>
      <trkpt lat="48.64529" lon="-2.32349">
        <ele>58</ele>
        <time>2020-06-24T11:38:58.081Z</time>
      </trkpt>
      <trkpt lat="48.64528" lon="-2.32351">
        <ele>58</ele>
        <time>2020-06-24T11:38:59.081Z</time>
      </trkpt>
      <trkpt lat="48.64528" lon="-2.32353">
        <ele>58</ele>
        <time>2020-06-24T11:39:00.081Z</time>
      </trkpt>
      <trkpt lat="48.64527" lon="-2.32354">
        <ele>58</ele>
        <time>2020-06-24T11:39:01.081Z</time>
      </trkpt>
      <trkpt lat="48.64526" lon="-2.32356">
        <ele>58</ele>
        <time>2020-06-24T11:39:02.081Z</time>
      </trkpt>
      <trkpt lat="48.64526" lon="-2.32358">
        <ele>57</ele>
        <time>2020-06-24T11:39:03.081Z</time>
      </trkpt>
      <trkpt lat="48.64525" lon="-2.32359">
        <ele>57</ele>
        <time>2020-06-24T11:39:04.081Z</time>
      </trkpt>
      <trkpt lat="48.64525" lon="-2.32361">
        <ele>57</ele>
        <time>2020-06-24T11:39:05.081Z</time>
      </trkpt>
      <trkpt lat="48.64524" lon="-2.32363">
        <ele>57</ele>
        <time>2020-06-24T11:39:06.081Z</time>
      </trkpt>
      <trkpt lat="48.64524" lon="-2.32364">
        <ele>56</ele>
        <time>2020-06-24T11:39:07.081Z</time>
      </trkpt>
      <trkpt lat="48.64523" lon="-2.32366">
        <ele>56</ele>
        <time>2020-06-24T11:39:08.081Z</time>
      </trkpt>
      <trkpt lat="48.64523" lon="-2.32368">
        <ele>56</ele>
        <time>2020-06-24T11:39:09.081Z</time>
      </trkpt>
      <trkpt lat="48.64523" lon="-2.3237">
        <ele>56</ele>
        <time>2020-06-24T11:39:10.081Z</time>
      </trkpt>
      <trkpt lat="48.64522" lon="-2.32373">
        <ele>55</ele>
        <time>2020-06-24T11:39:11.081Z</time>
      </trkpt>
      <trkpt lat="48.64521" lon="-2.32375">
        <ele>55</ele>
        <time>2020-06-24T11:39:12.081Z</time>
      </trkpt>
      <trkpt lat="48.64521" lon="-2.32377">
        <ele>54</ele>
        <time>2020-06-24T11:39:13.081Z</time>
      </trkpt>
      <trkpt lat="48.64521" lon="-2.32379">
        <ele>54</ele>
        <time>2020-06-24T11:39:14.081Z</time>
      </trkpt>
      <trkpt lat="48.6452" lon="-2.32381">
        <ele>55</ele>
        <time>2020-06-24T11:39:15.081Z</time>
      </trkpt>
      <trkpt lat="48.6452" lon="-2.32383">
        <ele>54</ele>
        <time>2020-06-24T11:39:16.081Z</time>
      </trkpt>
      <trkpt lat="48.6452" lon="-2.32385">
        <ele>54</ele>
        <time>2020-06-24T11:39:17.081Z</time>
      </trkpt>
      <trkpt lat="48.64519" lon="-2.32387">
        <ele>54</ele>
        <time>2020-06-24T11:39:18.081Z</time>
      </trkpt>
      <trkpt lat="48.64519" lon="-2.32389">
        <ele>54</ele>
        <time>2020-06-24T11:39:19.081Z</time>
      </trkpt>
      <trkpt lat="48.64519" lon="-2.32391">
        <ele>54</ele>
        <time>2020-06-24T11:39:20.081Z</time>
      </trkpt>
      <trkpt lat="48.64519" lon="-2.32393">
        <ele>54</ele>
        <time>2020-06-24T11:39:21.081Z</time>
      </trkpt>
      <trkpt lat="48.64519" lon="-2.32395">
        <ele>54</ele>
        <time>2020-06-24T11:39:22.081Z</time>
      </trkpt>
      <trkpt lat="48.64519" lon="-2.32397">
        <ele>54</ele>
        <time>2020-06-24T11:39:23.081Z</time>
      </trkpt>
      <trkpt lat="48.64519" lon="-2.32399">
        <ele>54</ele>
        <time>2020-06-24T11:39:24.081Z</time>
      </trkpt>
      <trkpt lat="48.64519" lon="-2.32401">
        <ele>55</ele>
        <time>2020-06-24T11:39:25.081Z</time>
      </trkpt>
      <trkpt lat="48.64519" lon="-2.32403">
        <ele>55</ele>
        <time>2020-06-24T11:39:26.081Z</time>
      </trkpt>
      <trkpt lat="48.64519" lon="-2.32406">
        <ele>55</ele>
        <time>2020-06-24T11:39:27.081Z</time>
      </trkpt>
      <trkpt lat="48.64519" lon="-2.32408">
        <ele>55</ele>
        <time>2020-06-24T11:39:28.081Z</time>
      </trkpt>
      <trkpt lat="48.64518" lon="-2.3241">
        <ele>55</ele>
        <time>2020-06-24T11:39:29.081Z</time>
      </trkpt>
      <trkpt lat="48.64518" lon="-2.32412">
        <ele>55</ele>
        <time>2020-06-24T11:39:30.081Z</time>
      </trkpt>
      <trkpt lat="48.64518" lon="-2.32414">
        <ele>55</ele>
        <time>2020-06-24T11:39:31.081Z</time>
      </trkpt>
      <trkpt lat="48.64518" lon="-2.32416">
        <ele>55</ele>
        <time>2020-06-24T11:39:32.081Z</time>
      </trkpt>
      <trkpt lat="48.64517" lon="-2.32418">
        <ele>55</ele>
        <time>2020-06-24T11:39:33.081Z</time>
      </trkpt>
      <trkpt lat="48.64517" lon="-2.3242">
        <ele>55</ele>
        <time>2020-06-24T11:39:34.081Z</time>
      </trkpt>
      <trkpt lat="48.64517" lon="-2.32422">
        <ele>55</ele>
        <time>2020-06-24T11:39:35.081Z</time>
      </trkpt>
      <trkpt lat="48.64516" lon="-2.32424">
        <ele>55</ele>
        <time>2020-06-24T11:39:36.081Z</time>
      </trkpt>
      <trkpt lat="48.64516" lon="-2.32427">
        <ele>55</ele>
        <time>2020-06-24T11:39:37.081Z</time>
      </trkpt>
      <trkpt lat="48.64515" lon="-2.32429">
        <ele>56</ele>
        <time>2020-06-24T11:39:38.081Z</time>
      </trkpt>
      <trkpt lat="48.64515" lon="-2.32431">
        <ele>55</ele>
        <time>2020-06-24T11:39:39.081Z</time>
      </trkpt>
      <trkpt lat="48.64515" lon="-2.32433">
        <ele>55</ele>
        <time>2020-06-24T11:39:40.081Z</time>
      </trkpt>
      <trkpt lat="48.64514" lon="-2.32435">
        <ele>55</ele>
        <time>2020-06-24T11:39:41.081Z</time>
      </trkpt>
      <trkpt lat="48.64514" lon="-2.32437">
        <ele>55</ele>
        <time>2020-06-24T11:39:42.081Z</time>
      </trkpt>
      <trkpt lat="48.64514" lon="-2.32439">
        <ele>56</ele>
        <time>2020-06-24T11:39:43.081Z</time>
      </trkpt>
      <trkpt lat="48.64514" lon="-2.32441">
        <ele>56</ele>
        <time>2020-06-24T11:39:44.081Z</time>
      </trkpt>
      <trkpt lat="48.64514" lon="-2.32443">
        <ele>56</ele>
        <time>2020-06-24T11:39:45.081Z</time>
      </trkpt>
      <trkpt lat="48.64515" lon="-2.32444">
        <ele>56</ele>
        <time>2020-06-24T11:39:46.081Z</time>
      </trkpt>
      <trkpt lat="48.64515" lon="-2.32446">
        <ele>56</ele>
        <time>2020-06-24T11:39:47.081Z</time>
      </trkpt>
      <trkpt lat="48.64515" lon="-2.32448">
        <ele>56</ele>
        <time>2020-06-24T11:39:48.081Z</time>
      </trkpt>
      <trkpt lat="48.64516" lon="-2.3245">
        <ele>56</ele>
        <time>2020-06-24T11:39:49.081Z</time>
      </trkpt>
      <trkpt lat="48.64516" lon="-2.32452">
        <ele>56</ele>
        <time>2020-06-24T11:39:50.081Z</time>
      </trkpt>
      <trkpt lat="48.64517" lon="-2.32454">
        <ele>56</ele>
        <time>2020-06-24T11:39:51.081Z</time>
      </trkpt>
      <trkpt lat="48.64518" lon="-2.32455">
        <ele>56</ele>
        <time>2020-06-24T11:39:52.081Z</time>
      </trkpt>
      <trkpt lat="48.64519" lon="-2.32457">
        <ele>56</ele>
        <time>2020-06-24T11:39:53.081Z</time>
      </trkpt>
      <trkpt lat="48.6452" lon="-2.32459">
        <ele>56</ele>
        <time>2020-06-24T11:39:54.081Z</time>
      </trkpt>
      <trkpt lat="48.6452" lon="-2.32461">
        <ele>56</ele>
        <time>2020-06-24T11:39:55.081Z</time>
      </trkpt>
      <trkpt lat="48.64521" lon="-2.32462">
        <ele>57</ele>
        <time>2020-06-24T11:39:56.081Z</time>
      </trkpt>
      <trkpt lat="48.64522" lon="-2.32464">
        <ele>57</ele>
        <time>2020-06-24T11:39:57.081Z</time>
      </trkpt>
      <trkpt lat="48.64522" lon="-2.32466">
        <ele>57</ele>
        <time>2020-06-24T11:39:58.081Z</time>
      </trkpt>
      <trkpt lat="48.64523" lon="-2.32468">
        <ele>57</ele>
        <time>2020-06-24T11:39:59.081Z</time>
      </trkpt>
      <trkpt lat="48.64524" lon="-2.3247">
        <ele>57</ele>
        <time>2020-06-24T11:40:00.081Z</time>
      </trkpt>
      <trkpt lat="48.64524" lon="-2.32472">
        <ele>57</ele>
        <time>2020-06-24T11:40:01.081Z</time>
      </trkpt>
      <trkpt lat="48.64525" lon="-2.32474">
        <ele>57</ele>
        <time>2020-06-24T11:40:02.081Z</time>
      </trkpt>
      <trkpt lat="48.64526" lon="-2.32475">
        <ele>57</ele>
        <time>2020-06-24T11:40:03.081Z</time>
      </trkpt>
      <trkpt lat="48.64526" lon="-2.32477">
        <ele>57</ele>
        <time>2020-06-24T11:40:04.081Z</time>
      </trkpt>
      <trkpt lat="48.64527" lon="-2.32479">
        <ele>57</ele>
        <time>2020-06-24T11:40:05.081Z</time>
      </trkpt>
      <trkpt lat="48.64528" lon="-2.32481">
        <ele>57</ele>
        <time>2020-06-24T11:40:06.081Z</time>
      </trkpt>
      <trkpt lat="48.64529" lon="-2.32483">
        <ele>57</ele>
        <time>2020-06-24T11:40:07.081Z</time>
      </trkpt>
      <trkpt lat="48.64529" lon="-2.32484">
        <ele>57</ele>
        <time>2020-06-24T11:40:08.081Z</time>
      </trkpt>
      <trkpt lat="48.6453" lon="-2.32486">
        <ele>57</ele>
        <time>2020-06-24T11:40:09.081Z</time>
      </trkpt>
      <trkpt lat="48.64531" lon="-2.32488">
        <ele>58</ele>
        <time>2020-06-24T11:40:10.081Z</time>
      </trkpt>
      <trkpt lat="48.64531" lon="-2.3249">
        <ele>58</ele>
        <time>2020-06-24T11:40:11.081Z</time>
      </trkpt>
      <trkpt lat="48.64532" lon="-2.32491">
        <ele>58</ele>
        <time>2020-06-24T11:40:12.081Z</time>
      </trkpt>
      <trkpt lat="48.64533" lon="-2.32493">
        <ele>58</ele>
        <time>2020-06-24T11:40:13.081Z</time>
      </trkpt>
      <trkpt lat="48.64533" lon="-2.32495">
        <ele>58</ele>
        <time>2020-06-24T11:40:14.081Z</time>
      </trkpt>
      <trkpt lat="48.64534" lon="-2.32497">
        <ele>59</ele>
        <time>2020-06-24T11:40:15.081Z</time>
      </trkpt>
      <trkpt lat="48.64534" lon="-2.32498">
        <ele>59</ele>
        <time>2020-06-24T11:40:16.081Z</time>
      </trkpt>
      <trkpt lat="48.64535" lon="-2.325">
        <ele>59</ele>
        <time>2020-06-24T11:40:17.081Z</time>
      </trkpt>
      <trkpt lat="48.64536" lon="-2.32502">
        <ele>59</ele>
        <time>2020-06-24T11:40:18.081Z</time>
      </trkpt>
      <trkpt lat="48.64536" lon="-2.32504">
        <ele>59</ele>
        <time>2020-06-24T11:40:19.081Z</time>
      </trkpt>
      <trkpt lat="48.64537" lon="-2.32505">
        <ele>59</ele>
        <time>2020-06-24T11:40:20.081Z</time>
      </trkpt>
      <trkpt lat="48.64537" lon="-2.32507">
        <ele>59</ele>
        <time>2020-06-24T11:40:21.081Z</time>
      </trkpt>
      <trkpt lat="48.64538" lon="-2.32509">
        <ele>59</ele>
        <time>2020-06-24T11:40:22.081Z</time>
      </trkpt>
      <trkpt lat="48.64539" lon="-2.3251">
        <ele>59</ele>
        <time>2020-06-24T11:40:23.081Z</time>
      </trkpt>
      <trkpt lat="48.64539" lon="-2.32512">
        <ele>59</ele>
        <time>2020-06-24T11:40:24.081Z</time>
      </trkpt>
      <trkpt lat="48.6454" lon="-2.32514">
        <ele>59</ele>
        <time>2020-06-24T11:40:25.081Z</time>
      </trkpt>
      <trkpt lat="48.6454" lon="-2.32515">
        <ele>59</ele>
        <time>2020-06-24T11:40:26.081Z</time>
      </trkpt>
      <trkpt lat="48.64541" lon="-2.32517">
        <ele>59</ele>
        <time>2020-06-24T11:40:27.081Z</time>
      </trkpt>
      <trkpt lat="48.64541" lon="-2.32518">
        <ele>59</ele>
        <time>2020-06-24T11:40:28.081Z</time>
      </trkpt>
      <trkpt lat="48.64541" lon="-2.3252">
        <ele>59</ele>
        <time>2020-06-24T11:40:29.081Z</time>
      </trkpt>
      <trkpt lat="48.64541" lon="-2.32522">
        <ele>59</ele>
        <time>2020-06-24T11:40:30.081Z</time>
      </trkpt>
      <trkpt lat="48.64541" lon="-2.32524">
        <ele>59</ele>
        <time>2020-06-24T11:40:31.081Z</time>
      </trkpt>
      <trkpt lat="48.64542" lon="-2.32526">
        <ele>59</ele>
        <time>2020-06-24T11:40:32.081Z</time>
      </trkpt>
      <trkpt lat="48.64542" lon="-2.32528">
        <ele>59</ele>
        <time>2020-06-24T11:40:33.081Z</time>
      </trkpt>
      <trkpt lat="48.64542" lon="-2.3253">
        <ele>59</ele>
        <time>2020-06-24T11:40:34.081Z</time>
      </trkpt>
      <trkpt lat="48.64543" lon="-2.32532">
        <ele>59</ele>
        <time>2020-06-24T11:40:35.081Z</time>
      </trkpt>
      <trkpt lat="48.64543" lon="-2.32534">
        <ele>59</ele>
        <time>2020-06-24T11:40:36.081Z</time>
      </trkpt>
      <trkpt lat="48.64544" lon="-2.32536">
        <ele>58</ele>
        <time>2020-06-24T11:40:37.081Z</time>
      </trkpt>
      <trkpt lat="48.64544" lon="-2.32537">
        <ele>58</ele>
        <time>2020-06-24T11:40:38.081Z</time>
      </trkpt>
      <trkpt lat="48.64545" lon="-2.32539">
        <ele>58</ele>
        <time>2020-06-24T11:40:39.081Z</time>
      </trkpt>
      <trkpt lat="48.64545" lon="-2.32541">
        <ele>58</ele>
        <time>2020-06-24T11:40:40.081Z</time>
      </trkpt>
      <trkpt lat="48.64546" lon="-2.32543">
        <ele>58</ele>
        <time>2020-06-24T11:40:41.081Z</time>
      </trkpt>
      <trkpt lat="48.64546" lon="-2.32545">
        <ele>58</ele>
        <time>2020-06-24T11:40:42.081Z</time>
      </trkpt>
      <trkpt lat="48.64547" lon="-2.32548">
        <ele>58</ele>
        <time>2020-06-24T11:40:43.081Z</time>
      </trkpt>
      <trkpt lat="48.64547" lon="-2.3255">
        <ele>58</ele>
        <time>2020-06-24T11:40:44.081Z</time>
      </trkpt>
      <trkpt lat="48.64547" lon="-2.32551">
        <ele>57</ele>
        <time>2020-06-24T11:40:45.081Z</time>
      </trkpt>
      <trkpt lat="48.64548" lon="-2.32553">
        <ele>57</ele>
        <time>2020-06-24T11:40:46.081Z</time>
      </trkpt>
      <trkpt lat="48.64548" lon="-2.32555">
        <ele>57</ele>
        <time>2020-06-24T11:40:47.081Z</time>
      </trkpt>
      <trkpt lat="48.64548" lon="-2.32557">
        <ele>56</ele>
        <time>2020-06-24T11:40:48.081Z</time>
      </trkpt>
      <trkpt lat="48.64548" lon="-2.32559">
        <ele>56</ele>
        <time>2020-06-24T11:40:49.081Z</time>
      </trkpt>
      <trkpt lat="48.64549" lon="-2.32561">
        <ele>56</ele>
        <time>2020-06-24T11:40:50.081Z</time>
      </trkpt>
      <trkpt lat="48.64549" lon="-2.32562">
        <ele>56</ele>
        <time>2020-06-24T11:40:51.081Z</time>
      </trkpt>
      <trkpt lat="48.64549" lon="-2.32564">
        <ele>56</ele>
        <time>2020-06-24T11:40:52.081Z</time>
      </trkpt>
      <trkpt lat="48.6455" lon="-2.32566">
        <ele>56</ele>
        <time>2020-06-24T11:40:53.081Z</time>
      </trkpt>
      <trkpt lat="48.6455" lon="-2.32568">
        <ele>56</ele>
        <time>2020-06-24T11:40:54.081Z</time>
      </trkpt>
      <trkpt lat="48.64551" lon="-2.3257">
        <ele>56</ele>
        <time>2020-06-24T11:40:55.081Z</time>
      </trkpt>
      <trkpt lat="48.64551" lon="-2.32571">
        <ele>56</ele>
        <time>2020-06-24T11:40:56.081Z</time>
      </trkpt>
      <trkpt lat="48.64551" lon="-2.32573">
        <ele>56</ele>
        <time>2020-06-24T11:40:57.081Z</time>
      </trkpt>
      <trkpt lat="48.64552" lon="-2.32575">
        <ele>56</ele>
        <time>2020-06-24T11:40:58.081Z</time>
      </trkpt>
      <trkpt lat="48.64553" lon="-2.32577">
        <ele>56</ele>
        <time>2020-06-24T11:40:59.081Z</time>
      </trkpt>
      <trkpt lat="48.64553" lon="-2.32578">
        <ele>56</ele>
        <time>2020-06-24T11:41:00.081Z</time>
      </trkpt>
      <trkpt lat="48.64553" lon="-2.3258">
        <ele>55</ele>
        <time>2020-06-24T11:41:01.081Z</time>
      </trkpt>
      <trkpt lat="48.64554" lon="-2.32582">
        <ele>55</ele>
        <time>2020-06-24T11:41:02.081Z</time>
      </trkpt>
      <trkpt lat="48.64554" lon="-2.32584">
        <ele>55</ele>
        <time>2020-06-24T11:41:03.081Z</time>
      </trkpt>
      <trkpt lat="48.64554" lon="-2.32586">
        <ele>55</ele>
        <time>2020-06-24T11:41:04.081Z</time>
      </trkpt>
      <trkpt lat="48.64554" lon="-2.32587">
        <ele>54</ele>
        <time>2020-06-24T11:41:05.081Z</time>
      </trkpt>
      <trkpt lat="48.64554" lon="-2.32589">
        <ele>54</ele>
        <time>2020-06-24T11:41:06.081Z</time>
      </trkpt>
      <trkpt lat="48.64555" lon="-2.32591">
        <ele>54</ele>
        <time>2020-06-24T11:41:07.081Z</time>
      </trkpt>
      <trkpt lat="48.64555" lon="-2.32593">
        <ele>53</ele>
        <time>2020-06-24T11:41:08.081Z</time>
      </trkpt>
      <trkpt lat="48.64554" lon="-2.32595">
        <ele>53</ele>
        <time>2020-06-24T11:41:09.081Z</time>
      </trkpt>
      <trkpt lat="48.64554" lon="-2.32596">
        <ele>52</ele>
        <time>2020-06-24T11:41:10.081Z</time>
      </trkpt>
      <trkpt lat="48.64554" lon="-2.32598">
        <ele>52</ele>
        <time>2020-06-24T11:41:11.081Z</time>
      </trkpt>
      <trkpt lat="48.64555" lon="-2.326">
        <ele>52</ele>
        <time>2020-06-24T11:41:12.081Z</time>
      </trkpt>
      <trkpt lat="48.64555" lon="-2.32602">
        <ele>52</ele>
        <time>2020-06-24T11:41:13.081Z</time>
      </trkpt>
      <trkpt lat="48.64555" lon="-2.32604">
        <ele>51</ele>
        <time>2020-06-24T11:41:14.081Z</time>
      </trkpt>
      <trkpt lat="48.64555" lon="-2.32605">
        <ele>51</ele>
        <time>2020-06-24T11:41:15.081Z</time>
      </trkpt>
      <trkpt lat="48.64555" lon="-2.32607">
        <ele>50</ele>
        <time>2020-06-24T11:41:16.081Z</time>
      </trkpt>
      <trkpt lat="48.64555" lon="-2.32609">
        <ele>50</ele>
        <time>2020-06-24T11:41:17.081Z</time>
      </trkpt>
      <trkpt lat="48.64556" lon="-2.32611">
        <ele>51</ele>
        <time>2020-06-24T11:41:18.081Z</time>
      </trkpt>
      <trkpt lat="48.64557" lon="-2.32614">
        <ele>53</ele>
        <time>2020-06-24T11:41:19.081Z</time>
      </trkpt>
      <trkpt lat="48.64558" lon="-2.32616">
        <ele>54</ele>
        <time>2020-06-24T11:41:20.081Z</time>
      </trkpt>
      <trkpt lat="48.64559" lon="-2.32619">
        <ele>54</ele>
        <time>2020-06-24T11:41:21.081Z</time>
      </trkpt>
      <trkpt lat="48.6456" lon="-2.32621">
        <ele>55</ele>
        <time>2020-06-24T11:41:22.081Z</time>
      </trkpt>
      <trkpt lat="48.64561" lon="-2.32623">
        <ele>55</ele>
        <time>2020-06-24T11:41:23.081Z</time>
      </trkpt>
      <trkpt lat="48.64561" lon="-2.32625">
        <ele>55</ele>
        <time>2020-06-24T11:41:24.081Z</time>
      </trkpt>
      <trkpt lat="48.64561" lon="-2.32627">
        <ele>55</ele>
        <time>2020-06-24T11:41:25.081Z</time>
      </trkpt>
      <trkpt lat="48.64562" lon="-2.32629">
        <ele>55</ele>
        <time>2020-06-24T11:41:26.081Z</time>
      </trkpt>
      <trkpt lat="48.64562" lon="-2.32631">
        <ele>55</ele>
        <time>2020-06-24T11:41:27.081Z</time>
      </trkpt>
      <trkpt lat="48.64563" lon="-2.32633">
        <ele>55</ele>
        <time>2020-06-24T11:41:28.081Z</time>
      </trkpt>
      <trkpt lat="48.64563" lon="-2.32635">
        <ele>55</ele>
        <time>2020-06-24T11:41:29.081Z</time>
      </trkpt>
      <trkpt lat="48.64563" lon="-2.32637">
        <ele>55</ele>
        <time>2020-06-24T11:41:30.081Z</time>
      </trkpt>
      <trkpt lat="48.64563" lon="-2.32639">
        <ele>55</ele>
        <time>2020-06-24T11:41:31.081Z</time>
      </trkpt>
      <trkpt lat="48.64564" lon="-2.32641">
        <ele>55</ele>
        <time>2020-06-24T11:41:32.081Z</time>
      </trkpt>
      <trkpt lat="48.64564" lon="-2.32643">
        <ele>54</ele>
        <time>2020-06-24T11:41:33.081Z</time>
      </trkpt>
      <trkpt lat="48.64564" lon="-2.32645">
        <ele>54</ele>
        <time>2020-06-24T11:41:34.081Z</time>
      </trkpt>
      <trkpt lat="48.64564" lon="-2.32647">
        <ele>54</ele>
        <time>2020-06-24T11:41:35.081Z</time>
      </trkpt>
      <trkpt lat="48.64564" lon="-2.3265">
        <ele>54</ele>
        <time>2020-06-24T11:41:36.081Z</time>
      </trkpt>
      <trkpt lat="48.64564" lon="-2.32652">
        <ele>54</ele>
        <time>2020-06-24T11:41:37.081Z</time>
      </trkpt>
      <trkpt lat="48.64564" lon="-2.32654">
        <ele>54</ele>
        <time>2020-06-24T11:41:38.081Z</time>
      </trkpt>
      <trkpt lat="48.64564" lon="-2.32656">
        <ele>54</ele>
        <time>2020-06-24T11:41:39.081Z</time>
      </trkpt>
      <trkpt lat="48.64564" lon="-2.32658">
        <ele>54</ele>
        <time>2020-06-24T11:41:40.081Z</time>
      </trkpt>
      <trkpt lat="48.64564" lon="-2.3266">
        <ele>54</ele>
        <time>2020-06-24T11:41:41.081Z</time>
      </trkpt>
      <trkpt lat="48.64564" lon="-2.32662">
        <ele>54</ele>
        <time>2020-06-24T11:41:42.081Z</time>
      </trkpt>
      <trkpt lat="48.64564" lon="-2.32664">
        <ele>54</ele>
        <time>2020-06-24T11:41:43.081Z</time>
      </trkpt>
      <trkpt lat="48.64563" lon="-2.32666">
        <ele>54</ele>
        <time>2020-06-24T11:41:44.081Z</time>
      </trkpt>
      <trkpt lat="48.64563" lon="-2.32668">
        <ele>54</ele>
        <time>2020-06-24T11:41:45.081Z</time>
      </trkpt>
      <trkpt lat="48.64563" lon="-2.3267">
        <ele>54</ele>
        <time>2020-06-24T11:41:46.081Z</time>
      </trkpt>
      <trkpt lat="48.64563" lon="-2.32672">
        <ele>54</ele>
        <time>2020-06-24T11:41:47.081Z</time>
      </trkpt>
      <trkpt lat="48.64563" lon="-2.32673">
        <ele>54</ele>
        <time>2020-06-24T11:41:48.081Z</time>
      </trkpt>
      <trkpt lat="48.64562" lon="-2.32676">
        <ele>54</ele>
        <time>2020-06-24T11:41:49.081Z</time>
      </trkpt>
      <trkpt lat="48.64562" lon="-2.32678">
        <ele>54</ele>
        <time>2020-06-24T11:41:50.081Z</time>
      </trkpt>
      <trkpt lat="48.64563" lon="-2.3268">
        <ele>54</ele>
        <time>2020-06-24T11:41:51.081Z</time>
      </trkpt>
      <trkpt lat="48.64563" lon="-2.32682">
        <ele>55</ele>
        <time>2020-06-24T11:41:52.081Z</time>
      </trkpt>
      <trkpt lat="48.64564" lon="-2.32684">
        <ele>54</ele>
        <time>2020-06-24T11:41:53.081Z</time>
      </trkpt>
      <trkpt lat="48.64564" lon="-2.32686">
        <ele>54</ele>
        <time>2020-06-24T11:41:54.081Z</time>
      </trkpt>
      <trkpt lat="48.64564" lon="-2.32688">
        <ele>55</ele>
        <time>2020-06-24T11:41:55.081Z</time>
      </trkpt>
      <trkpt lat="48.64564" lon="-2.3269">
        <ele>54</ele>
        <time>2020-06-24T11:41:56.081Z</time>
      </trkpt>
      <trkpt lat="48.64564" lon="-2.32692">
        <ele>54</ele>
        <time>2020-06-24T11:41:57.081Z</time>
      </trkpt>
      <trkpt lat="48.64564" lon="-2.32694">
        <ele>54</ele>
        <time>2020-06-24T11:41:58.081Z</time>
      </trkpt>
      <trkpt lat="48.64564" lon="-2.32696">
        <ele>54</ele>
        <time>2020-06-24T11:41:59.081Z</time>
      </trkpt>
      <trkpt lat="48.64564" lon="-2.32699">
        <ele>54</ele>
        <time>2020-06-24T11:42:00.081Z</time>
      </trkpt>
      <trkpt lat="48.64564" lon="-2.32701">
        <ele>53</ele>
        <time>2020-06-24T11:42:01.081Z</time>
      </trkpt>
      <trkpt lat="48.64564" lon="-2.32703">
        <ele>54</ele>
        <time>2020-06-24T11:42:02.081Z</time>
      </trkpt>
      <trkpt lat="48.64564" lon="-2.32705">
        <ele>53</ele>
        <time>2020-06-24T11:42:03.081Z</time>
      </trkpt>
      <trkpt lat="48.64564" lon="-2.32708">
        <ele>54</ele>
        <time>2020-06-24T11:42:04.081Z</time>
      </trkpt>
      <trkpt lat="48.64564" lon="-2.3271">
        <ele>54</ele>
        <time>2020-06-24T11:42:05.081Z</time>
      </trkpt>
      <trkpt lat="48.64564" lon="-2.32712">
        <ele>54</ele>
        <time>2020-06-24T11:42:06.081Z</time>
      </trkpt>
      <trkpt lat="48.64565" lon="-2.32714">
        <ele>54</ele>
        <time>2020-06-24T11:42:07.081Z</time>
      </trkpt>
      <trkpt lat="48.64565" lon="-2.32716">
        <ele>54</ele>
        <time>2020-06-24T11:42:08.081Z</time>
      </trkpt>
      <trkpt lat="48.64565" lon="-2.32718">
        <ele>54</ele>
        <time>2020-06-24T11:42:09.081Z</time>
      </trkpt>
      <trkpt lat="48.64565" lon="-2.3272">
        <ele>54</ele>
        <time>2020-06-24T11:42:10.081Z</time>
      </trkpt>
      <trkpt lat="48.64565" lon="-2.32722">
        <ele>54</ele>
        <time>2020-06-24T11:42:11.081Z</time>
      </trkpt>
      <trkpt lat="48.64565" lon="-2.32724">
        <ele>54</ele>
        <time>2020-06-24T11:42:12.081Z</time>
      </trkpt>
      <trkpt lat="48.64564" lon="-2.32727">
        <ele>54</ele>
        <time>2020-06-24T11:42:13.081Z</time>
      </trkpt>
      <trkpt lat="48.64564" lon="-2.32729">
        <ele>54</ele>
        <time>2020-06-24T11:42:14.081Z</time>
      </trkpt>
      <trkpt lat="48.64564" lon="-2.32731">
        <ele>54</ele>
        <time>2020-06-24T11:42:15.081Z</time>
      </trkpt>
      <trkpt lat="48.64565" lon="-2.32733">
        <ele>54</ele>
        <time>2020-06-24T11:42:16.081Z</time>
      </trkpt>
      <trkpt lat="48.64565" lon="-2.32735">
        <ele>54</ele>
        <time>2020-06-24T11:42:17.081Z</time>
      </trkpt>
      <trkpt lat="48.64565" lon="-2.32737">
        <ele>54</ele>
        <time>2020-06-24T11:42:18.081Z</time>
      </trkpt>
      <trkpt lat="48.64565" lon="-2.32739">
        <ele>55</ele>
        <time>2020-06-24T11:42:19.081Z</time>
      </trkpt>
      <trkpt lat="48.64565" lon="-2.32742">
        <ele>55</ele>
        <time>2020-06-24T11:42:20.081Z</time>
      </trkpt>
      <trkpt lat="48.64565" lon="-2.32744">
        <ele>55</ele>
        <time>2020-06-24T11:42:21.081Z</time>
      </trkpt>
      <trkpt lat="48.64565" lon="-2.32746">
        <ele>55</ele>
        <time>2020-06-24T11:42:22.081Z</time>
      </trkpt>
      <trkpt lat="48.64566" lon="-2.32748">
        <ele>55</ele>
        <time>2020-06-24T11:42:23.081Z</time>
      </trkpt>
      <trkpt lat="48.64566" lon="-2.3275">
        <ele>55</ele>
        <time>2020-06-24T11:42:24.081Z</time>
      </trkpt>
      <trkpt lat="48.64566" lon="-2.32752">
        <ele>55</ele>
        <time>2020-06-24T11:42:25.081Z</time>
      </trkpt>
      <trkpt lat="48.64566" lon="-2.32755">
        <ele>55</ele>
        <time>2020-06-24T11:42:26.081Z</time>
      </trkpt>
      <trkpt lat="48.64566" lon="-2.32757">
        <ele>55</ele>
        <time>2020-06-24T11:42:27.081Z</time>
      </trkpt>
      <trkpt lat="48.64566" lon="-2.32759">
        <ele>55</ele>
        <time>2020-06-24T11:42:28.081Z</time>
      </trkpt>
      <trkpt lat="48.64566" lon="-2.32761">
        <ele>55</ele>
        <time>2020-06-24T11:42:29.081Z</time>
      </trkpt>
      <trkpt lat="48.64566" lon="-2.32763">
        <ele>55</ele>
        <time>2020-06-24T11:42:30.081Z</time>
      </trkpt>
      <trkpt lat="48.64566" lon="-2.32765">
        <ele>56</ele>
        <time>2020-06-24T11:42:31.081Z</time>
      </trkpt>
      <trkpt lat="48.64567" lon="-2.32767">
        <ele>56</ele>
        <time>2020-06-24T11:42:32.081Z</time>
      </trkpt>
      <trkpt lat="48.64567" lon="-2.32769">
        <ele>56</ele>
        <time>2020-06-24T11:42:33.081Z</time>
      </trkpt>
      <trkpt lat="48.64567" lon="-2.32771">
        <ele>55</ele>
        <time>2020-06-24T11:42:34.081Z</time>
      </trkpt>
      <trkpt lat="48.64567" lon="-2.32773">
        <ele>55</ele>
        <time>2020-06-24T11:42:35.081Z</time>
      </trkpt>
      <trkpt lat="48.64567" lon="-2.32775">
        <ele>55</ele>
        <time>2020-06-24T11:42:36.081Z</time>
      </trkpt>
      <trkpt lat="48.64567" lon="-2.32777">
        <ele>55</ele>
        <time>2020-06-24T11:42:37.081Z</time>
      </trkpt>
      <trkpt lat="48.64567" lon="-2.32779">
        <ele>55</ele>
        <time>2020-06-24T11:42:38.081Z</time>
      </trkpt>
      <trkpt lat="48.64567" lon="-2.32781">
        <ele>55</ele>
        <time>2020-06-24T11:42:39.081Z</time>
      </trkpt>
      <trkpt lat="48.64567" lon="-2.32783">
        <ele>55</ele>
        <time>2020-06-24T11:42:40.081Z</time>
      </trkpt>
      <trkpt lat="48.64567" lon="-2.32785">
        <ele>55</ele>
        <time>2020-06-24T11:42:41.081Z</time>
      </trkpt>
      <trkpt lat="48.64567" lon="-2.32787">
        <ele>55</ele>
        <time>2020-06-24T11:42:42.081Z</time>
      </trkpt>
      <trkpt lat="48.64567" lon="-2.32789">
        <ele>55</ele>
        <time>2020-06-24T11:42:43.081Z</time>
      </trkpt>
      <trkpt lat="48.64567" lon="-2.32791">
        <ele>55</ele>
        <time>2020-06-24T11:42:44.081Z</time>
      </trkpt>
      <trkpt lat="48.64567" lon="-2.32793">
        <ele>54</ele>
        <time>2020-06-24T11:42:45.081Z</time>
      </trkpt>
      <trkpt lat="48.64567" lon="-2.32795">
        <ele>54</ele>
        <time>2020-06-24T11:42:46.081Z</time>
      </trkpt>
      <trkpt lat="48.64567" lon="-2.32797">
        <ele>54</ele>
        <time>2020-06-24T11:42:47.081Z</time>
      </trkpt>
      <trkpt lat="48.64567" lon="-2.32799">
        <ele>54</ele>
        <time>2020-06-24T11:42:48.081Z</time>
      </trkpt>
      <trkpt lat="48.64567" lon="-2.32801">
        <ele>54</ele>
        <time>2020-06-24T11:42:49.081Z</time>
      </trkpt>
      <trkpt lat="48.64567" lon="-2.32803">
        <ele>55</ele>
        <time>2020-06-24T11:42:50.081Z</time>
      </trkpt>
      <trkpt lat="48.64567" lon="-2.32805">
        <ele>55</ele>
        <time>2020-06-24T11:42:51.081Z</time>
      </trkpt>
      <trkpt lat="48.64568" lon="-2.32807">
        <ele>55</ele>
        <time>2020-06-24T11:42:52.081Z</time>
      </trkpt>
      <trkpt lat="48.64568" lon="-2.32809">
        <ele>54</ele>
        <time>2020-06-24T11:42:53.081Z</time>
      </trkpt>
      <trkpt lat="48.64568" lon="-2.32811">
        <ele>55</ele>
        <time>2020-06-24T11:42:54.081Z</time>
      </trkpt>
      <trkpt lat="48.64568" lon="-2.32813">
        <ele>55</ele>
        <time>2020-06-24T11:42:55.081Z</time>
      </trkpt>
      <trkpt lat="48.64568" lon="-2.32815">
        <ele>55</ele>
        <time>2020-06-24T11:42:56.081Z</time>
      </trkpt>
      <trkpt lat="48.64568" lon="-2.32818">
        <ele>55</ele>
        <time>2020-06-24T11:42:57.081Z</time>
      </trkpt>
      <trkpt lat="48.64569" lon="-2.3282">
        <ele>56</ele>
        <time>2020-06-24T11:42:58.081Z</time>
      </trkpt>
      <trkpt lat="48.64569" lon="-2.32822">
        <ele>56</ele>
        <time>2020-06-24T11:42:59.081Z</time>
      </trkpt>
      <trkpt lat="48.64569" lon="-2.32824">
        <ele>56</ele>
        <time>2020-06-24T11:43:00.081Z</time>
      </trkpt>
      <trkpt lat="48.64569" lon="-2.32826">
        <ele>56</ele>
        <time>2020-06-24T11:43:01.081Z</time>
      </trkpt>
      <trkpt lat="48.64569" lon="-2.32828">
        <ele>56</ele>
        <time>2020-06-24T11:43:02.081Z</time>
      </trkpt>
      <trkpt lat="48.64569" lon="-2.32831">
        <ele>56</ele>
        <time>2020-06-24T11:43:03.081Z</time>
      </trkpt>
      <trkpt lat="48.64569" lon="-2.32833">
        <ele>56</ele>
        <time>2020-06-24T11:43:04.081Z</time>
      </trkpt>
      <trkpt lat="48.64569" lon="-2.32835">
        <ele>56</ele>
        <time>2020-06-24T11:43:05.081Z</time>
      </trkpt>
      <trkpt lat="48.64569" lon="-2.32837">
        <ele>55</ele>
        <time>2020-06-24T11:43:06.081Z</time>
      </trkpt>
      <trkpt lat="48.64569" lon="-2.32839">
        <ele>55</ele>
        <time>2020-06-24T11:43:07.081Z</time>
      </trkpt>
      <trkpt lat="48.64568" lon="-2.32841">
        <ele>55</ele>
        <time>2020-06-24T11:43:08.081Z</time>
      </trkpt>
      <trkpt lat="48.64568" lon="-2.32843">
        <ele>55</ele>
        <time>2020-06-24T11:43:09.081Z</time>
      </trkpt>
      <trkpt lat="48.64568" lon="-2.32845">
        <ele>55</ele>
        <time>2020-06-24T11:43:10.081Z</time>
      </trkpt>
      <trkpt lat="48.64568" lon="-2.32847">
        <ele>55</ele>
        <time>2020-06-24T11:43:11.081Z</time>
      </trkpt>
      <trkpt lat="48.64568" lon="-2.32848">
        <ele>54</ele>
        <time>2020-06-24T11:43:12.081Z</time>
      </trkpt>
      <trkpt lat="48.64568" lon="-2.32849">
        <ele>54</ele>
        <time>2020-06-24T11:43:13.081Z</time>
      </trkpt>
      <trkpt lat="48.64568" lon="-2.32849">
        <ele>55</ele>
        <time>2020-06-24T11:43:14.081Z</time>
      </trkpt>
      <trkpt lat="48.64568" lon="-2.32849">
        <ele>55</ele>
        <time>2020-06-24T11:43:15.081Z</time>
      </trkpt>
      <trkpt lat="48.64568" lon="-2.3285">
        <ele>55</ele>
        <time>2020-06-24T11:43:16.081Z</time>
      </trkpt>
      <trkpt lat="48.64568" lon="-2.3285">
        <ele>54</ele>
        <time>2020-06-24T11:43:17.081Z</time>
      </trkpt>
      <trkpt lat="48.64568" lon="-2.3285">
        <ele>54</ele>
        <time>2020-06-24T11:43:18.081Z</time>
      </trkpt>
      <trkpt lat="48.64568" lon="-2.3285">
        <ele>54</ele>
        <time>2020-06-24T11:43:19.081Z</time>
      </trkpt>
      <trkpt lat="48.64571" lon="-2.32857">
        <ele>55</ele>
        <time>2020-06-24T11:43:20.081Z</time>
      </trkpt>
      <trkpt lat="48.64571" lon="-2.32859">
        <ele>55</ele>
        <time>2020-06-24T11:43:21.081Z</time>
      </trkpt>
      <trkpt lat="48.64571" lon="-2.32861">
        <ele>55</ele>
        <time>2020-06-24T11:43:22.081Z</time>
      </trkpt>
      <trkpt lat="48.64571" lon="-2.32863">
        <ele>55</ele>
        <time>2020-06-24T11:43:23.081Z</time>
      </trkpt>
      <trkpt lat="48.64571" lon="-2.32865">
        <ele>55</ele>
        <time>2020-06-24T11:43:24.081Z</time>
      </trkpt>
      <trkpt lat="48.64571" lon="-2.32867">
        <ele>55</ele>
        <time>2020-06-24T11:43:25.081Z</time>
      </trkpt>
      <trkpt lat="48.64571" lon="-2.32869">
        <ele>54</ele>
        <time>2020-06-24T11:43:26.081Z</time>
      </trkpt>
      <trkpt lat="48.6457" lon="-2.32871">
        <ele>54</ele>
        <time>2020-06-24T11:43:27.081Z</time>
      </trkpt>
      <trkpt lat="48.6457" lon="-2.32872">
        <ele>54</ele>
        <time>2020-06-24T11:43:28.081Z</time>
      </trkpt>
      <trkpt lat="48.6457" lon="-2.32874">
        <ele>54</ele>
        <time>2020-06-24T11:43:29.081Z</time>
      </trkpt>
      <trkpt lat="48.6457" lon="-2.32877">
        <ele>54</ele>
        <time>2020-06-24T11:43:30.081Z</time>
      </trkpt>
      <trkpt lat="48.6457" lon="-2.32879">
        <ele>54</ele>
        <time>2020-06-24T11:43:31.081Z</time>
      </trkpt>
      <trkpt lat="48.6457" lon="-2.32881">
        <ele>53</ele>
        <time>2020-06-24T11:43:32.081Z</time>
      </trkpt>
      <trkpt lat="48.6457" lon="-2.32883">
        <ele>54</ele>
        <time>2020-06-24T11:43:33.081Z</time>
      </trkpt>
      <trkpt lat="48.6457" lon="-2.32885">
        <ele>54</ele>
        <time>2020-06-24T11:43:34.081Z</time>
      </trkpt>
      <trkpt lat="48.6457" lon="-2.32886">
        <ele>53</ele>
        <time>2020-06-24T11:43:35.081Z</time>
      </trkpt>
      <trkpt lat="48.64569" lon="-2.32886">
        <ele>53</ele>
        <time>2020-06-24T11:43:36.081Z</time>
      </trkpt>
      <trkpt lat="48.64569" lon="-2.32887">
        <ele>53</ele>
        <time>2020-06-24T11:43:37.081Z</time>
      </trkpt>
      <trkpt lat="48.64569" lon="-2.32889">
        <ele>53</ele>
        <time>2020-06-24T11:43:38.081Z</time>
      </trkpt>
      <trkpt lat="48.64569" lon="-2.3289">
        <ele>53</ele>
        <time>2020-06-24T11:43:39.081Z</time>
      </trkpt>
      <trkpt lat="48.64569" lon="-2.32892">
        <ele>52</ele>
        <time>2020-06-24T11:43:40.081Z</time>
      </trkpt>
      <trkpt lat="48.64569" lon="-2.32894">
        <ele>53</ele>
        <time>2020-06-24T11:43:41.081Z</time>
      </trkpt>
      <trkpt lat="48.64569" lon="-2.32896">
        <ele>53</ele>
        <time>2020-06-24T11:43:42.081Z</time>
      </trkpt>
      <trkpt lat="48.64569" lon="-2.32899">
        <ele>54</ele>
        <time>2020-06-24T11:43:43.081Z</time>
      </trkpt>
      <trkpt lat="48.64569" lon="-2.32901">
        <ele>54</ele>
        <time>2020-06-24T11:43:44.081Z</time>
      </trkpt>
      <trkpt lat="48.64569" lon="-2.32903">
        <ele>54</ele>
        <time>2020-06-24T11:43:45.081Z</time>
      </trkpt>
      <trkpt lat="48.6457" lon="-2.32905">
        <ele>54</ele>
        <time>2020-06-24T11:43:46.081Z</time>
      </trkpt>
      <trkpt lat="48.6457" lon="-2.32907">
        <ele>54</ele>
        <time>2020-06-24T11:43:47.081Z</time>
      </trkpt>
      <trkpt lat="48.6457" lon="-2.32909">
        <ele>55</ele>
        <time>2020-06-24T11:43:48.081Z</time>
      </trkpt>
      <trkpt lat="48.6457" lon="-2.32911">
        <ele>55</ele>
        <time>2020-06-24T11:43:49.081Z</time>
      </trkpt>
      <trkpt lat="48.64571" lon="-2.32913">
        <ele>55</ele>
        <time>2020-06-24T11:43:50.081Z</time>
      </trkpt>
      <trkpt lat="48.64571" lon="-2.32915">
        <ele>55</ele>
        <time>2020-06-24T11:43:51.081Z</time>
      </trkpt>
      <trkpt lat="48.64571" lon="-2.32917">
        <ele>54</ele>
        <time>2020-06-24T11:43:52.081Z</time>
      </trkpt>
      <trkpt lat="48.64571" lon="-2.32919">
        <ele>54</ele>
        <time>2020-06-24T11:43:53.081Z</time>
      </trkpt>
      <trkpt lat="48.64571" lon="-2.32921">
        <ele>54</ele>
        <time>2020-06-24T11:43:54.081Z</time>
      </trkpt>
      <trkpt lat="48.64571" lon="-2.32924">
        <ele>54</ele>
        <time>2020-06-24T11:43:55.081Z</time>
      </trkpt>
      <trkpt lat="48.64571" lon="-2.32926">
        <ele>54</ele>
        <time>2020-06-24T11:43:56.081Z</time>
      </trkpt>
      <trkpt lat="48.64571" lon="-2.32928">
        <ele>54</ele>
        <time>2020-06-24T11:43:57.081Z</time>
      </trkpt>
      <trkpt lat="48.64571" lon="-2.3293">
        <ele>54</ele>
        <time>2020-06-24T11:43:58.081Z</time>
      </trkpt>
      <trkpt lat="48.64571" lon="-2.32932">
        <ele>53</ele>
        <time>2020-06-24T11:43:59.081Z</time>
      </trkpt>
      <trkpt lat="48.64571" lon="-2.32933">
        <ele>53</ele>
        <time>2020-06-24T11:44:00.081Z</time>
      </trkpt>
      <trkpt lat="48.64571" lon="-2.32935">
        <ele>53</ele>
        <time>2020-06-24T11:44:01.081Z</time>
      </trkpt>
      <trkpt lat="48.64571" lon="-2.32937">
        <ele>52</ele>
        <time>2020-06-24T11:44:02.081Z</time>
      </trkpt>
      <trkpt lat="48.64571" lon="-2.3294">
        <ele>52</ele>
        <time>2020-06-24T11:44:03.081Z</time>
      </trkpt>
      <trkpt lat="48.64572" lon="-2.32942">
        <ele>52</ele>
        <time>2020-06-24T11:44:04.081Z</time>
      </trkpt>
      <trkpt lat="48.64572" lon="-2.32944">
        <ele>52</ele>
        <time>2020-06-24T11:44:05.081Z</time>
      </trkpt>
      <trkpt lat="48.64572" lon="-2.32946">
        <ele>52</ele>
        <time>2020-06-24T11:44:06.081Z</time>
      </trkpt>
      <trkpt lat="48.64572" lon="-2.32948">
        <ele>52</ele>
        <time>2020-06-24T11:44:07.081Z</time>
      </trkpt>
      <trkpt lat="48.64572" lon="-2.3295">
        <ele>52</ele>
        <time>2020-06-24T11:44:08.081Z</time>
      </trkpt>
      <trkpt lat="48.64572" lon="-2.32952">
        <ele>52</ele>
        <time>2020-06-24T11:44:09.081Z</time>
      </trkpt>
      <trkpt lat="48.64572" lon="-2.32954">
        <ele>52</ele>
        <time>2020-06-24T11:44:10.081Z</time>
      </trkpt>
      <trkpt lat="48.64572" lon="-2.32956">
        <ele>51</ele>
        <time>2020-06-24T11:44:11.081Z</time>
      </trkpt>
      <trkpt lat="48.64572" lon="-2.32958">
        <ele>51</ele>
        <time>2020-06-24T11:44:12.081Z</time>
      </trkpt>
      <trkpt lat="48.64572" lon="-2.3296">
        <ele>51</ele>
        <time>2020-06-24T11:44:13.081Z</time>
      </trkpt>
      <trkpt lat="48.64572" lon="-2.32962">
        <ele>51</ele>
        <time>2020-06-24T11:44:14.081Z</time>
      </trkpt>
      <trkpt lat="48.64571" lon="-2.32965">
        <ele>51</ele>
        <time>2020-06-24T11:44:15.081Z</time>
      </trkpt>
      <trkpt lat="48.64571" lon="-2.32967">
        <ele>51</ele>
        <time>2020-06-24T11:44:16.081Z</time>
      </trkpt>
      <trkpt lat="48.64571" lon="-2.32969">
        <ele>51</ele>
        <time>2020-06-24T11:44:17.081Z</time>
      </trkpt>
      <trkpt lat="48.64571" lon="-2.32971">
        <ele>51</ele>
        <time>2020-06-24T11:44:18.081Z</time>
      </trkpt>
      <trkpt lat="48.64571" lon="-2.32973">
        <ele>51</ele>
        <time>2020-06-24T11:44:19.081Z</time>
      </trkpt>
      <trkpt lat="48.64571" lon="-2.32976">
        <ele>51</ele>
        <time>2020-06-24T11:44:20.081Z</time>
      </trkpt>
      <trkpt lat="48.6457" lon="-2.32978">
        <ele>51</ele>
        <time>2020-06-24T11:44:21.081Z</time>
      </trkpt>
      <trkpt lat="48.6457" lon="-2.3298">
        <ele>51</ele>
        <time>2020-06-24T11:44:22.081Z</time>
      </trkpt>
      <trkpt lat="48.6457" lon="-2.32982">
        <ele>51</ele>
        <time>2020-06-24T11:44:23.081Z</time>
      </trkpt>
      <trkpt lat="48.6457" lon="-2.32983">
        <ele>51</ele>
        <time>2020-06-24T11:44:24.081Z</time>
      </trkpt>
      <trkpt lat="48.64569" lon="-2.32985">
        <ele>51</ele>
        <time>2020-06-24T11:44:25.081Z</time>
      </trkpt>
      <trkpt lat="48.64569" lon="-2.32988">
        <ele>51</ele>
        <time>2020-06-24T11:44:26.081Z</time>
      </trkpt>
      <trkpt lat="48.64569" lon="-2.3299">
        <ele>51</ele>
        <time>2020-06-24T11:44:27.081Z</time>
      </trkpt>
      <trkpt lat="48.64568" lon="-2.32992">
        <ele>51</ele>
        <time>2020-06-24T11:44:28.081Z</time>
      </trkpt>
      <trkpt lat="48.64568" lon="-2.32994">
        <ele>51</ele>
        <time>2020-06-24T11:44:29.081Z</time>
      </trkpt>
      <trkpt lat="48.64568" lon="-2.32996">
        <ele>52</ele>
        <time>2020-06-24T11:44:30.081Z</time>
      </trkpt>
      <trkpt lat="48.64568" lon="-2.32998">
        <ele>52</ele>
        <time>2020-06-24T11:44:31.081Z</time>
      </trkpt>
      <trkpt lat="48.64568" lon="-2.33">
        <ele>52</ele>
        <time>2020-06-24T11:44:32.081Z</time>
      </trkpt>
      <trkpt lat="48.64567" lon="-2.33002">
        <ele>52</ele>
        <time>2020-06-24T11:44:33.081Z</time>
      </trkpt>
      <trkpt lat="48.64567" lon="-2.33004">
        <ele>52</ele>
        <time>2020-06-24T11:44:34.081Z</time>
      </trkpt>
      <trkpt lat="48.64567" lon="-2.33006">
        <ele>52</ele>
        <time>2020-06-24T11:44:35.081Z</time>
      </trkpt>
      <trkpt lat="48.64567" lon="-2.33008">
        <ele>52</ele>
        <time>2020-06-24T11:44:36.081Z</time>
      </trkpt>
      <trkpt lat="48.64566" lon="-2.3301">
        <ele>51</ele>
        <time>2020-06-24T11:44:37.081Z</time>
      </trkpt>
      <trkpt lat="48.64566" lon="-2.33013">
        <ele>51</ele>
        <time>2020-06-24T11:44:38.081Z</time>
      </trkpt>
      <trkpt lat="48.64565" lon="-2.33015">
        <ele>51</ele>
        <time>2020-06-24T11:44:39.081Z</time>
      </trkpt>
      <trkpt lat="48.64565" lon="-2.33017">
        <ele>51</ele>
        <time>2020-06-24T11:44:40.081Z</time>
      </trkpt>
      <trkpt lat="48.64565" lon="-2.33019">
        <ele>51</ele>
        <time>2020-06-24T11:44:41.081Z</time>
      </trkpt>
      <trkpt lat="48.64565" lon="-2.3302">
        <ele>51</ele>
        <time>2020-06-24T11:44:42.081Z</time>
      </trkpt>
      <trkpt lat="48.64565" lon="-2.33022">
        <ele>51</ele>
        <time>2020-06-24T11:44:43.081Z</time>
      </trkpt>
      <trkpt lat="48.64565" lon="-2.33024">
        <ele>51</ele>
        <time>2020-06-24T11:44:44.081Z</time>
      </trkpt>
      <trkpt lat="48.64565" lon="-2.33026">
        <ele>50</ele>
        <time>2020-06-24T11:44:45.081Z</time>
      </trkpt>
      <trkpt lat="48.64564" lon="-2.33027">
        <ele>50</ele>
        <time>2020-06-24T11:44:46.081Z</time>
      </trkpt>
      <trkpt lat="48.64564" lon="-2.3303">
        <ele>50</ele>
        <time>2020-06-24T11:44:47.081Z</time>
      </trkpt>
      <trkpt lat="48.64564" lon="-2.33032">
        <ele>50</ele>
        <time>2020-06-24T11:44:48.081Z</time>
      </trkpt>
      <trkpt lat="48.64564" lon="-2.33034">
        <ele>50</ele>
        <time>2020-06-24T11:44:49.081Z</time>
      </trkpt>
      <trkpt lat="48.64564" lon="-2.33036">
        <ele>50</ele>
        <time>2020-06-24T11:44:50.081Z</time>
      </trkpt>
      <trkpt lat="48.64564" lon="-2.33038">
        <ele>49</ele>
        <time>2020-06-24T11:44:51.081Z</time>
      </trkpt>
      <trkpt lat="48.64563" lon="-2.3304">
        <ele>49</ele>
        <time>2020-06-24T11:44:52.081Z</time>
      </trkpt>
      <trkpt lat="48.64563" lon="-2.33042">
        <ele>49</ele>
        <time>2020-06-24T11:44:53.081Z</time>
      </trkpt>
      <trkpt lat="48.64563" lon="-2.33044">
        <ele>48</ele>
        <time>2020-06-24T11:44:54.081Z</time>
      </trkpt>
      <trkpt lat="48.64563" lon="-2.33046">
        <ele>48</ele>
        <time>2020-06-24T11:44:55.081Z</time>
      </trkpt>
      <trkpt lat="48.64562" lon="-2.33048">
        <ele>46</ele>
        <time>2020-06-24T11:44:56.081Z</time>
      </trkpt>
      <trkpt lat="48.64561" lon="-2.3305">
        <ele>45</ele>
        <time>2020-06-24T11:44:57.081Z</time>
      </trkpt>
      <trkpt lat="48.64561" lon="-2.33052">
        <ele>45</ele>
        <time>2020-06-24T11:44:58.081Z</time>
      </trkpt>
      <trkpt lat="48.64561" lon="-2.33054">
        <ele>45</ele>
        <time>2020-06-24T11:44:59.081Z</time>
      </trkpt>
      <trkpt lat="48.64561" lon="-2.33056">
        <ele>45</ele>
        <time>2020-06-24T11:45:00.081Z</time>
      </trkpt>
      <trkpt lat="48.6456" lon="-2.33058">
        <ele>44</ele>
        <time>2020-06-24T11:45:01.081Z</time>
      </trkpt>
      <trkpt lat="48.6456" lon="-2.3306">
        <ele>44</ele>
        <time>2020-06-24T11:45:02.081Z</time>
      </trkpt>
      <trkpt lat="48.6456" lon="-2.33062">
        <ele>44</ele>
        <time>2020-06-24T11:45:03.081Z</time>
      </trkpt>
      <trkpt lat="48.6456" lon="-2.33064">
        <ele>44</ele>
        <time>2020-06-24T11:45:04.081Z</time>
      </trkpt>
      <trkpt lat="48.64559" lon="-2.33065">
        <ele>44</ele>
        <time>2020-06-24T11:45:05.081Z</time>
      </trkpt>
      <trkpt lat="48.64559" lon="-2.33067">
        <ele>44</ele>
        <time>2020-06-24T11:45:06.081Z</time>
      </trkpt>
      <trkpt lat="48.64558" lon="-2.33069">
        <ele>44</ele>
        <time>2020-06-24T11:45:07.081Z</time>
      </trkpt>
      <trkpt lat="48.64558" lon="-2.33071">
        <ele>44</ele>
        <time>2020-06-24T11:45:08.081Z</time>
      </trkpt>
      <trkpt lat="48.64558" lon="-2.33073">
        <ele>44</ele>
        <time>2020-06-24T11:45:09.081Z</time>
      </trkpt>
      <trkpt lat="48.64557" lon="-2.33075">
        <ele>44</ele>
        <time>2020-06-24T11:45:10.081Z</time>
      </trkpt>
      <trkpt lat="48.64557" lon="-2.33076">
        <ele>44</ele>
        <time>2020-06-24T11:45:11.081Z</time>
      </trkpt>
      <trkpt lat="48.64556" lon="-2.33078">
        <ele>44</ele>
        <time>2020-06-24T11:45:12.081Z</time>
      </trkpt>
      <trkpt lat="48.64556" lon="-2.3308">
        <ele>45</ele>
        <time>2020-06-24T11:45:13.081Z</time>
      </trkpt>
      <trkpt lat="48.64555" lon="-2.33082">
        <ele>45</ele>
        <time>2020-06-24T11:45:14.081Z</time>
      </trkpt>
      <trkpt lat="48.64555" lon="-2.33083">
        <ele>45</ele>
        <time>2020-06-24T11:45:15.081Z</time>
      </trkpt>
      <trkpt lat="48.64554" lon="-2.33085">
        <ele>46</ele>
        <time>2020-06-24T11:45:16.081Z</time>
      </trkpt>
      <trkpt lat="48.64554" lon="-2.33087">
        <ele>46</ele>
        <time>2020-06-24T11:45:17.081Z</time>
      </trkpt>
      <trkpt lat="48.64554" lon="-2.3309">
        <ele>47</ele>
        <time>2020-06-24T11:45:18.081Z</time>
      </trkpt>
      <trkpt lat="48.64553" lon="-2.33093">
        <ele>48</ele>
        <time>2020-06-24T11:45:19.081Z</time>
      </trkpt>
      <trkpt lat="48.64553" lon="-2.33095">
        <ele>48</ele>
        <time>2020-06-24T11:45:20.081Z</time>
      </trkpt>
      <trkpt lat="48.64552" lon="-2.33098">
        <ele>48</ele>
        <time>2020-06-24T11:45:21.081Z</time>
      </trkpt>
      <trkpt lat="48.64552" lon="-2.331">
        <ele>49</ele>
        <time>2020-06-24T11:45:22.081Z</time>
      </trkpt>
      <trkpt lat="48.64551" lon="-2.33102">
        <ele>49</ele>
        <time>2020-06-24T11:45:23.081Z</time>
      </trkpt>
      <trkpt lat="48.64551" lon="-2.33103">
        <ele>48</ele>
        <time>2020-06-24T11:45:24.081Z</time>
      </trkpt>
      <trkpt lat="48.6455" lon="-2.33105">
        <ele>49</ele>
        <time>2020-06-24T11:45:25.081Z</time>
      </trkpt>
      <trkpt lat="48.6455" lon="-2.33107">
        <ele>49</ele>
        <time>2020-06-24T11:45:26.081Z</time>
      </trkpt>
      <trkpt lat="48.64549" lon="-2.33109">
        <ele>50</ele>
        <time>2020-06-24T11:45:27.081Z</time>
      </trkpt>
      <trkpt lat="48.64549" lon="-2.3311">
        <ele>50</ele>
        <time>2020-06-24T11:45:28.081Z</time>
      </trkpt>
      <trkpt lat="48.64549" lon="-2.33112">
        <ele>50</ele>
        <time>2020-06-24T11:45:29.081Z</time>
      </trkpt>
      <trkpt lat="48.64548" lon="-2.33114">
        <ele>51</ele>
        <time>2020-06-24T11:45:30.081Z</time>
      </trkpt>
      <trkpt lat="48.64548" lon="-2.33116">
        <ele>51</ele>
        <time>2020-06-24T11:45:31.081Z</time>
      </trkpt>
      <trkpt lat="48.64547" lon="-2.33118">
        <ele>51</ele>
        <time>2020-06-24T11:45:32.081Z</time>
      </trkpt>
      <trkpt lat="48.64546" lon="-2.33119">
        <ele>51</ele>
        <time>2020-06-24T11:45:33.081Z</time>
      </trkpt>
      <trkpt lat="48.64546" lon="-2.33121">
        <ele>51</ele>
        <time>2020-06-24T11:45:34.081Z</time>
      </trkpt>
      <trkpt lat="48.64545" lon="-2.33122">
        <ele>51</ele>
        <time>2020-06-24T11:45:35.081Z</time>
      </trkpt>
      <trkpt lat="48.64544" lon="-2.33124">
        <ele>51</ele>
        <time>2020-06-24T11:45:36.081Z</time>
      </trkpt>
      <trkpt lat="48.64544" lon="-2.33126">
        <ele>51</ele>
        <time>2020-06-24T11:45:37.081Z</time>
      </trkpt>
      <trkpt lat="48.64543" lon="-2.33128">
        <ele>51</ele>
        <time>2020-06-24T11:45:38.081Z</time>
      </trkpt>
      <trkpt lat="48.64542" lon="-2.3313">
        <ele>51</ele>
        <time>2020-06-24T11:45:39.081Z</time>
      </trkpt>
      <trkpt lat="48.64541" lon="-2.33132">
        <ele>51</ele>
        <time>2020-06-24T11:45:40.081Z</time>
      </trkpt>
      <trkpt lat="48.64541" lon="-2.33134">
        <ele>51</ele>
        <time>2020-06-24T11:45:41.081Z</time>
      </trkpt>
      <trkpt lat="48.6454" lon="-2.33135">
        <ele>51</ele>
        <time>2020-06-24T11:45:42.081Z</time>
      </trkpt>
      <trkpt lat="48.64539" lon="-2.33137">
        <ele>51</ele>
        <time>2020-06-24T11:45:43.081Z</time>
      </trkpt>
      <trkpt lat="48.64538" lon="-2.33139">
        <ele>51</ele>
        <time>2020-06-24T11:45:44.081Z</time>
      </trkpt>
      <trkpt lat="48.64537" lon="-2.3314">
        <ele>52</ele>
        <time>2020-06-24T11:45:45.081Z</time>
      </trkpt>
      <trkpt lat="48.64537" lon="-2.33142">
        <ele>52</ele>
        <time>2020-06-24T11:45:46.081Z</time>
      </trkpt>
      <trkpt lat="48.64536" lon="-2.33143">
        <ele>52</ele>
        <time>2020-06-24T11:45:47.081Z</time>
      </trkpt>
      <trkpt lat="48.64535" lon="-2.33144">
        <ele>52</ele>
        <time>2020-06-24T11:45:48.081Z</time>
      </trkpt>
      <trkpt lat="48.64534" lon="-2.33146">
        <ele>52</ele>
        <time>2020-06-24T11:45:49.081Z</time>
      </trkpt>
      <trkpt lat="48.64533" lon="-2.33147">
        <ele>53</ele>
        <time>2020-06-24T11:45:50.081Z</time>
      </trkpt>
      <trkpt lat="48.64532" lon="-2.33149">
        <ele>53</ele>
        <time>2020-06-24T11:45:51.081Z</time>
      </trkpt>
      <trkpt lat="48.64531" lon="-2.3315">
        <ele>54</ele>
        <time>2020-06-24T11:45:52.081Z</time>
      </trkpt>
      <trkpt lat="48.64531" lon="-2.33152">
        <ele>54</ele>
        <time>2020-06-24T11:45:53.081Z</time>
      </trkpt>
      <trkpt lat="48.6453" lon="-2.33154">
        <ele>54</ele>
        <time>2020-06-24T11:45:54.081Z</time>
      </trkpt>
      <trkpt lat="48.64529" lon="-2.33155">
        <ele>54</ele>
        <time>2020-06-24T11:45:55.081Z</time>
      </trkpt>
      <trkpt lat="48.64528" lon="-2.33157">
        <ele>54</ele>
        <time>2020-06-24T11:45:56.081Z</time>
      </trkpt>
      <trkpt lat="48.64527" lon="-2.33158">
        <ele>54</ele>
        <time>2020-06-24T11:45:57.081Z</time>
      </trkpt>
      <trkpt lat="48.64526" lon="-2.33159">
        <ele>54</ele>
        <time>2020-06-24T11:45:58.081Z</time>
      </trkpt>
      <trkpt lat="48.64526" lon="-2.33161">
        <ele>54</ele>
        <time>2020-06-24T11:45:59.081Z</time>
      </trkpt>
      <trkpt lat="48.64525" lon="-2.33162">
        <ele>53</ele>
        <time>2020-06-24T11:46:00.081Z</time>
      </trkpt>
      <trkpt lat="48.64524" lon="-2.33164">
        <ele>53</ele>
        <time>2020-06-24T11:46:01.081Z</time>
      </trkpt>
      <trkpt lat="48.64523" lon="-2.33165">
        <ele>53</ele>
        <time>2020-06-24T11:46:02.081Z</time>
      </trkpt>
      <trkpt lat="48.64522" lon="-2.33167">
        <ele>53</ele>
        <time>2020-06-24T11:46:03.081Z</time>
      </trkpt>
      <trkpt lat="48.64521" lon="-2.33168">
        <ele>53</ele>
        <time>2020-06-24T11:46:04.081Z</time>
      </trkpt>
      <trkpt lat="48.64521" lon="-2.33169">
        <ele>54</ele>
        <time>2020-06-24T11:46:05.081Z</time>
      </trkpt>
      <trkpt lat="48.6452" lon="-2.33171">
        <ele>53</ele>
        <time>2020-06-24T11:46:06.081Z</time>
      </trkpt>
      <trkpt lat="48.64519" lon="-2.33172">
        <ele>53</ele>
        <time>2020-06-24T11:46:07.081Z</time>
      </trkpt>
      <trkpt lat="48.64518" lon="-2.33174">
        <ele>54</ele>
        <time>2020-06-24T11:46:08.081Z</time>
      </trkpt>
      <trkpt lat="48.64517" lon="-2.33175">
        <ele>53</ele>
        <time>2020-06-24T11:46:09.081Z</time>
      </trkpt>
      <trkpt lat="48.64516" lon="-2.33177">
        <ele>53</ele>
        <time>2020-06-24T11:46:10.081Z</time>
      </trkpt>
      <trkpt lat="48.64516" lon="-2.33178">
        <ele>53</ele>
        <time>2020-06-24T11:46:11.081Z</time>
      </trkpt>
      <trkpt lat="48.64515" lon="-2.33179">
        <ele>52</ele>
        <time>2020-06-24T11:46:12.081Z</time>
      </trkpt>
      <trkpt lat="48.64515" lon="-2.3318">
        <ele>52</ele>
        <time>2020-06-24T11:46:13.081Z</time>
      </trkpt>
      <trkpt lat="48.64514" lon="-2.33181">
        <ele>52</ele>
        <time>2020-06-24T11:46:14.081Z</time>
      </trkpt>
      <trkpt lat="48.64514" lon="-2.33183">
        <ele>52</ele>
        <time>2020-06-24T11:46:15.081Z</time>
      </trkpt>
      <trkpt lat="48.64513" lon="-2.33185">
        <ele>53</ele>
        <time>2020-06-24T11:46:16.081Z</time>
      </trkpt>
      <trkpt lat="48.64512" lon="-2.33188">
        <ele>53</ele>
        <time>2020-06-24T11:46:17.081Z</time>
      </trkpt>
      <trkpt lat="48.64511" lon="-2.33191">
        <ele>53</ele>
        <time>2020-06-24T11:46:18.081Z</time>
      </trkpt>
      <trkpt lat="48.64511" lon="-2.33193">
        <ele>53</ele>
        <time>2020-06-24T11:46:19.081Z</time>
      </trkpt>
      <trkpt lat="48.6451" lon="-2.33196">
        <ele>53</ele>
        <time>2020-06-24T11:46:20.081Z</time>
      </trkpt>
      <trkpt lat="48.6451" lon="-2.33197">
        <ele>53</ele>
        <time>2020-06-24T11:46:21.081Z</time>
      </trkpt>
      <trkpt lat="48.6451" lon="-2.33199">
        <ele>53</ele>
        <time>2020-06-24T11:46:22.081Z</time>
      </trkpt>
      <trkpt lat="48.64509" lon="-2.33201">
        <ele>53</ele>
        <time>2020-06-24T11:46:23.081Z</time>
      </trkpt>
      <trkpt lat="48.64508" lon="-2.33202">
        <ele>53</ele>
        <time>2020-06-24T11:46:24.081Z</time>
      </trkpt>
      <trkpt lat="48.64508" lon="-2.33204">
        <ele>53</ele>
        <time>2020-06-24T11:46:25.081Z</time>
      </trkpt>
      <trkpt lat="48.64507" lon="-2.33205">
        <ele>53</ele>
        <time>2020-06-24T11:46:26.081Z</time>
      </trkpt>
      <trkpt lat="48.64506" lon="-2.33207">
        <ele>52</ele>
        <time>2020-06-24T11:46:27.081Z</time>
      </trkpt>
      <trkpt lat="48.64505" lon="-2.33209">
        <ele>50</ele>
        <time>2020-06-24T11:46:28.081Z</time>
      </trkpt>
      <trkpt lat="48.64504" lon="-2.33212">
        <ele>50</ele>
        <time>2020-06-24T11:46:29.081Z</time>
      </trkpt>
      <trkpt lat="48.64502" lon="-2.33214">
        <ele>49</ele>
        <time>2020-06-24T11:46:30.081Z</time>
      </trkpt>
      <trkpt lat="48.64501" lon="-2.33216">
        <ele>49</ele>
        <time>2020-06-24T11:46:31.081Z</time>
      </trkpt>
      <trkpt lat="48.645" lon="-2.33218">
        <ele>48</ele>
        <time>2020-06-24T11:46:32.081Z</time>
      </trkpt>
      <trkpt lat="48.64499" lon="-2.33219">
        <ele>48</ele>
        <time>2020-06-24T11:46:33.081Z</time>
      </trkpt>
      <trkpt lat="48.64498" lon="-2.3322">
        <ele>47</ele>
        <time>2020-06-24T11:46:34.081Z</time>
      </trkpt>
      <trkpt lat="48.64497" lon="-2.33222">
        <ele>48</ele>
        <time>2020-06-24T11:46:35.081Z</time>
      </trkpt>
      <trkpt lat="48.64496" lon="-2.33223">
        <ele>47</ele>
        <time>2020-06-24T11:46:36.081Z</time>
      </trkpt>
      <trkpt lat="48.64495" lon="-2.33225">
        <ele>47</ele>
        <time>2020-06-24T11:46:37.081Z</time>
      </trkpt>
      <trkpt lat="48.64494" lon="-2.33227">
        <ele>48</ele>
        <time>2020-06-24T11:46:38.081Z</time>
      </trkpt>
      <trkpt lat="48.64493" lon="-2.33228">
        <ele>49</ele>
        <time>2020-06-24T11:46:39.081Z</time>
      </trkpt>
      <trkpt lat="48.64492" lon="-2.3323">
        <ele>48</ele>
        <time>2020-06-24T11:46:40.081Z</time>
      </trkpt>
      <trkpt lat="48.64491" lon="-2.33232">
        <ele>48</ele>
        <time>2020-06-24T11:46:41.081Z</time>
      </trkpt>
      <trkpt lat="48.6449" lon="-2.33234">
        <ele>48</ele>
        <time>2020-06-24T11:46:42.081Z</time>
      </trkpt>
      <trkpt lat="48.64489" lon="-2.33235">
        <ele>48</ele>
        <time>2020-06-24T11:46:43.081Z</time>
      </trkpt>
      <trkpt lat="48.64488" lon="-2.33237">
        <ele>48</ele>
        <time>2020-06-24T11:46:44.081Z</time>
      </trkpt>
      <trkpt lat="48.64487" lon="-2.33238">
        <ele>48</ele>
        <time>2020-06-24T11:46:45.081Z</time>
      </trkpt>
      <trkpt lat="48.64487" lon="-2.3324">
        <ele>49</ele>
        <time>2020-06-24T11:46:46.081Z</time>
      </trkpt>
      <trkpt lat="48.64486" lon="-2.33241">
        <ele>49</ele>
        <time>2020-06-24T11:46:47.081Z</time>
      </trkpt>
      <trkpt lat="48.64486" lon="-2.33243">
        <ele>50</ele>
        <time>2020-06-24T11:46:48.081Z</time>
      </trkpt>
      <trkpt lat="48.64485" lon="-2.33244">
        <ele>50</ele>
        <time>2020-06-24T11:46:49.081Z</time>
      </trkpt>
      <trkpt lat="48.64484" lon="-2.33245">
        <ele>50</ele>
        <time>2020-06-24T11:46:50.081Z</time>
      </trkpt>
      <trkpt lat="48.64483" lon="-2.33247">
        <ele>50</ele>
        <time>2020-06-24T11:46:51.081Z</time>
      </trkpt>
      <trkpt lat="48.64483" lon="-2.33248">
        <ele>51</ele>
        <time>2020-06-24T11:46:52.081Z</time>
      </trkpt>
      <trkpt lat="48.64482" lon="-2.3325">
        <ele>51</ele>
        <time>2020-06-24T11:46:53.081Z</time>
      </trkpt>
      <trkpt lat="48.64482" lon="-2.33252">
        <ele>51</ele>
        <time>2020-06-24T11:46:54.081Z</time>
      </trkpt>
      <trkpt lat="48.64481" lon="-2.33253">
        <ele>51</ele>
        <time>2020-06-24T11:46:55.081Z</time>
      </trkpt>
      <trkpt lat="48.64481" lon="-2.33255">
        <ele>51</ele>
        <time>2020-06-24T11:46:56.081Z</time>
      </trkpt>
      <trkpt lat="48.64481" lon="-2.33257">
        <ele>51</ele>
        <time>2020-06-24T11:46:57.081Z</time>
      </trkpt>
      <trkpt lat="48.64481" lon="-2.33258">
        <ele>52</ele>
        <time>2020-06-24T11:46:58.081Z</time>
      </trkpt>
      <trkpt lat="48.64481" lon="-2.3326">
        <ele>52</ele>
        <time>2020-06-24T11:46:59.081Z</time>
      </trkpt>
      <trkpt lat="48.64481" lon="-2.33262">
        <ele>52</ele>
        <time>2020-06-24T11:47:00.081Z</time>
      </trkpt>
      <trkpt lat="48.64481" lon="-2.33264">
        <ele>53</ele>
        <time>2020-06-24T11:47:01.081Z</time>
      </trkpt>
      <trkpt lat="48.64481" lon="-2.33265">
        <ele>53</ele>
        <time>2020-06-24T11:47:02.081Z</time>
      </trkpt>
      <trkpt lat="48.64482" lon="-2.33267">
        <ele>53</ele>
        <time>2020-06-24T11:47:03.081Z</time>
      </trkpt>
      <trkpt lat="48.64482" lon="-2.33269">
        <ele>53</ele>
        <time>2020-06-24T11:47:04.081Z</time>
      </trkpt>
      <trkpt lat="48.64482" lon="-2.3327">
        <ele>54</ele>
        <time>2020-06-24T11:47:05.081Z</time>
      </trkpt>
      <trkpt lat="48.64482" lon="-2.33272">
        <ele>54</ele>
        <time>2020-06-24T11:47:06.081Z</time>
      </trkpt>
      <trkpt lat="48.64482" lon="-2.33273">
        <ele>54</ele>
        <time>2020-06-24T11:47:07.081Z</time>
      </trkpt>
      <trkpt lat="48.64483" lon="-2.33275">
        <ele>54</ele>
        <time>2020-06-24T11:47:08.081Z</time>
      </trkpt>
      <trkpt lat="48.64484" lon="-2.33276">
        <ele>54</ele>
        <time>2020-06-24T11:47:09.081Z</time>
      </trkpt>
      <trkpt lat="48.64485" lon="-2.33278">
        <ele>54</ele>
        <time>2020-06-24T11:47:10.081Z</time>
      </trkpt>
      <trkpt lat="48.64485" lon="-2.33279">
        <ele>55</ele>
        <time>2020-06-24T11:47:11.081Z</time>
      </trkpt>
      <trkpt lat="48.64487" lon="-2.3328">
        <ele>55</ele>
        <time>2020-06-24T11:47:12.081Z</time>
      </trkpt>
      <trkpt lat="48.64488" lon="-2.33281">
        <ele>55</ele>
        <time>2020-06-24T11:47:13.081Z</time>
      </trkpt>
      <trkpt lat="48.64489" lon="-2.33282">
        <ele>54</ele>
        <time>2020-06-24T11:47:14.081Z</time>
      </trkpt>
      <trkpt lat="48.6449" lon="-2.33283">
        <ele>54</ele>
        <time>2020-06-24T11:47:15.081Z</time>
      </trkpt>
      <trkpt lat="48.64492" lon="-2.33284">
        <ele>54</ele>
        <time>2020-06-24T11:47:16.081Z</time>
      </trkpt>
      <trkpt lat="48.64493" lon="-2.33285">
        <ele>54</ele>
        <time>2020-06-24T11:47:17.081Z</time>
      </trkpt>
      <trkpt lat="48.64493" lon="-2.33287">
        <ele>54</ele>
        <time>2020-06-24T11:47:18.081Z</time>
      </trkpt>
      <trkpt lat="48.64494" lon="-2.33288">
        <ele>54</ele>
        <time>2020-06-24T11:47:19.081Z</time>
      </trkpt>
      <trkpt lat="48.64495" lon="-2.33289">
        <ele>55</ele>
        <time>2020-06-24T11:47:20.081Z</time>
      </trkpt>
      <trkpt lat="48.64496" lon="-2.33291">
        <ele>55</ele>
        <time>2020-06-24T11:47:21.081Z</time>
      </trkpt>
      <trkpt lat="48.64497" lon="-2.33292">
        <ele>55</ele>
        <time>2020-06-24T11:47:22.081Z</time>
      </trkpt>
      <trkpt lat="48.64498" lon="-2.33293">
        <ele>55</ele>
        <time>2020-06-24T11:47:23.081Z</time>
      </trkpt>
      <trkpt lat="48.64499" lon="-2.33294">
        <ele>55</ele>
        <time>2020-06-24T11:47:24.081Z</time>
      </trkpt>
      <trkpt lat="48.64499" lon="-2.33296">
        <ele>55</ele>
        <time>2020-06-24T11:47:25.081Z</time>
      </trkpt>
      <trkpt lat="48.645" lon="-2.33297">
        <ele>55</ele>
        <time>2020-06-24T11:47:26.081Z</time>
      </trkpt>
      <trkpt lat="48.64501" lon="-2.33298">
        <ele>56</ele>
        <time>2020-06-24T11:47:27.081Z</time>
      </trkpt>
      <trkpt lat="48.64502" lon="-2.333">
        <ele>56</ele>
        <time>2020-06-24T11:47:28.081Z</time>
      </trkpt>
      <trkpt lat="48.64502" lon="-2.33301">
        <ele>56</ele>
        <time>2020-06-24T11:47:29.081Z</time>
      </trkpt>
      <trkpt lat="48.64503" lon="-2.33303">
        <ele>55</ele>
        <time>2020-06-24T11:47:30.081Z</time>
      </trkpt>
      <trkpt lat="48.64504" lon="-2.33305">
        <ele>55</ele>
        <time>2020-06-24T11:47:31.081Z</time>
      </trkpt>
      <trkpt lat="48.64505" lon="-2.33306">
        <ele>56</ele>
        <time>2020-06-24T11:47:32.081Z</time>
      </trkpt>
      <trkpt lat="48.64505" lon="-2.33308">
        <ele>56</ele>
        <time>2020-06-24T11:47:33.081Z</time>
      </trkpt>
      <trkpt lat="48.64506" lon="-2.33309">
        <ele>56</ele>
        <time>2020-06-24T11:47:34.081Z</time>
      </trkpt>
      <trkpt lat="48.64507" lon="-2.33311">
        <ele>56</ele>
        <time>2020-06-24T11:47:35.081Z</time>
      </trkpt>
      <trkpt lat="48.64507" lon="-2.33313">
        <ele>55</ele>
        <time>2020-06-24T11:47:36.081Z</time>
      </trkpt>
      <trkpt lat="48.64508" lon="-2.33314">
        <ele>55</ele>
        <time>2020-06-24T11:47:37.081Z</time>
      </trkpt>
      <trkpt lat="48.64509" lon="-2.33315">
        <ele>56</ele>
        <time>2020-06-24T11:47:38.081Z</time>
      </trkpt>
      <trkpt lat="48.6451" lon="-2.33317">
        <ele>56</ele>
        <time>2020-06-24T11:47:39.081Z</time>
      </trkpt>
      <trkpt lat="48.64511" lon="-2.33318">
        <ele>56</ele>
        <time>2020-06-24T11:47:40.081Z</time>
      </trkpt>
      <trkpt lat="48.64512" lon="-2.3332">
        <ele>56</ele>
        <time>2020-06-24T11:47:41.081Z</time>
      </trkpt>
      <trkpt lat="48.64513" lon="-2.33322">
        <ele>56</ele>
        <time>2020-06-24T11:47:42.081Z</time>
      </trkpt>
      <trkpt lat="48.64513" lon="-2.33323">
        <ele>56</ele>
        <time>2020-06-24T11:47:43.081Z</time>
      </trkpt>
      <trkpt lat="48.64514" lon="-2.33325">
        <ele>56</ele>
        <time>2020-06-24T11:47:44.081Z</time>
      </trkpt>
      <trkpt lat="48.64515" lon="-2.33327">
        <ele>56</ele>
        <time>2020-06-24T11:47:45.081Z</time>
      </trkpt>
      <trkpt lat="48.64517" lon="-2.33328">
        <ele>56</ele>
        <time>2020-06-24T11:47:46.081Z</time>
      </trkpt>
      <trkpt lat="48.64517" lon="-2.3333">
        <ele>55</ele>
        <time>2020-06-24T11:47:47.081Z</time>
      </trkpt>
      <trkpt lat="48.64519" lon="-2.33331">
        <ele>55</ele>
        <time>2020-06-24T11:47:48.081Z</time>
      </trkpt>
      <trkpt lat="48.64519" lon="-2.33332">
        <ele>55</ele>
        <time>2020-06-24T11:47:49.081Z</time>
      </trkpt>
      <trkpt lat="48.6452" lon="-2.33334">
        <ele>55</ele>
        <time>2020-06-24T11:47:50.081Z</time>
      </trkpt>
      <trkpt lat="48.64521" lon="-2.33336">
        <ele>55</ele>
        <time>2020-06-24T11:47:51.081Z</time>
      </trkpt>
      <trkpt lat="48.64522" lon="-2.33337">
        <ele>54</ele>
        <time>2020-06-24T11:47:52.081Z</time>
      </trkpt>
      <trkpt lat="48.64523" lon="-2.33339">
        <ele>54</ele>
        <time>2020-06-24T11:47:53.081Z</time>
      </trkpt>
      <trkpt lat="48.64524" lon="-2.3334">
        <ele>54</ele>
        <time>2020-06-24T11:47:54.081Z</time>
      </trkpt>
      <trkpt lat="48.64525" lon="-2.33342">
        <ele>54</ele>
        <time>2020-06-24T11:47:55.081Z</time>
      </trkpt>
      <trkpt lat="48.64526" lon="-2.33343">
        <ele>54</ele>
        <time>2020-06-24T11:47:56.081Z</time>
      </trkpt>
      <trkpt lat="48.64527" lon="-2.33345">
        <ele>54</ele>
        <time>2020-06-24T11:47:57.081Z</time>
      </trkpt>
      <trkpt lat="48.64528" lon="-2.33346">
        <ele>55</ele>
        <time>2020-06-24T11:47:58.081Z</time>
      </trkpt>
      <trkpt lat="48.64529" lon="-2.33347">
        <ele>55</ele>
        <time>2020-06-24T11:47:59.081Z</time>
      </trkpt>
      <trkpt lat="48.6453" lon="-2.33348">
        <ele>55</ele>
        <time>2020-06-24T11:48:00.081Z</time>
      </trkpt>
      <trkpt lat="48.64531" lon="-2.33349">
        <ele>55</ele>
        <time>2020-06-24T11:48:01.081Z</time>
      </trkpt>
      <trkpt lat="48.64532" lon="-2.3335">
        <ele>55</ele>
        <time>2020-06-24T11:48:02.081Z</time>
      </trkpt>
      <trkpt lat="48.64533" lon="-2.33352">
        <ele>55</ele>
        <time>2020-06-24T11:48:03.081Z</time>
      </trkpt>
      <trkpt lat="48.64534" lon="-2.33353">
        <ele>55</ele>
        <time>2020-06-24T11:48:04.081Z</time>
      </trkpt>
      <trkpt lat="48.64535" lon="-2.33354">
        <ele>55</ele>
        <time>2020-06-24T11:48:05.081Z</time>
      </trkpt>
      <trkpt lat="48.64537" lon="-2.33355">
        <ele>55</ele>
        <time>2020-06-24T11:48:06.081Z</time>
      </trkpt>
      <trkpt lat="48.64538" lon="-2.33356">
        <ele>54</ele>
        <time>2020-06-24T11:48:07.081Z</time>
      </trkpt>
      <trkpt lat="48.64539" lon="-2.33357">
        <ele>54</ele>
        <time>2020-06-24T11:48:08.081Z</time>
      </trkpt>
      <trkpt lat="48.6454" lon="-2.33358">
        <ele>54</ele>
        <time>2020-06-24T11:48:09.081Z</time>
      </trkpt>
      <trkpt lat="48.64542" lon="-2.33359">
        <ele>54</ele>
        <time>2020-06-24T11:48:10.081Z</time>
      </trkpt>
      <trkpt lat="48.64543" lon="-2.3336">
        <ele>55</ele>
        <time>2020-06-24T11:48:11.081Z</time>
      </trkpt>
      <trkpt lat="48.64544" lon="-2.33361">
        <ele>55</ele>
        <time>2020-06-24T11:48:12.081Z</time>
      </trkpt>
      <trkpt lat="48.64545" lon="-2.33362">
        <ele>54</ele>
        <time>2020-06-24T11:48:13.081Z</time>
      </trkpt>
      <trkpt lat="48.64546" lon="-2.33364">
        <ele>54</ele>
        <time>2020-06-24T11:48:14.081Z</time>
      </trkpt>
      <trkpt lat="48.64547" lon="-2.33365">
        <ele>54</ele>
        <time>2020-06-24T11:48:15.081Z</time>
      </trkpt>
      <trkpt lat="48.64548" lon="-2.33366">
        <ele>54</ele>
        <time>2020-06-24T11:48:16.081Z</time>
      </trkpt>
      <trkpt lat="48.6455" lon="-2.33367">
        <ele>53</ele>
        <time>2020-06-24T11:48:17.081Z</time>
      </trkpt>
      <trkpt lat="48.64551" lon="-2.33368">
        <ele>53</ele>
        <time>2020-06-24T11:48:18.081Z</time>
      </trkpt>
      <trkpt lat="48.64552" lon="-2.33369">
        <ele>53</ele>
        <time>2020-06-24T11:48:19.081Z</time>
      </trkpt>
      <trkpt lat="48.64553" lon="-2.3337">
        <ele>53</ele>
        <time>2020-06-24T11:48:20.081Z</time>
      </trkpt>
      <trkpt lat="48.64554" lon="-2.33372">
        <ele>53</ele>
        <time>2020-06-24T11:48:21.081Z</time>
      </trkpt>
      <trkpt lat="48.64555" lon="-2.33373">
        <ele>53</ele>
        <time>2020-06-24T11:48:22.081Z</time>
      </trkpt>
      <trkpt lat="48.64556" lon="-2.33374">
        <ele>53</ele>
        <time>2020-06-24T11:48:23.081Z</time>
      </trkpt>
      <trkpt lat="48.64557" lon="-2.33376">
        <ele>53</ele>
        <time>2020-06-24T11:48:24.081Z</time>
      </trkpt>
      <trkpt lat="48.64558" lon="-2.33377">
        <ele>54</ele>
        <time>2020-06-24T11:48:25.081Z</time>
      </trkpt>
      <trkpt lat="48.64559" lon="-2.33378">
        <ele>54</ele>
        <time>2020-06-24T11:48:26.081Z</time>
      </trkpt>
      <trkpt lat="48.6456" lon="-2.33379">
        <ele>54</ele>
        <time>2020-06-24T11:48:27.081Z</time>
      </trkpt>
      <trkpt lat="48.64561" lon="-2.3338">
        <ele>54</ele>
        <time>2020-06-24T11:48:28.081Z</time>
      </trkpt>
      <trkpt lat="48.64562" lon="-2.33381">
        <ele>54</ele>
        <time>2020-06-24T11:48:29.081Z</time>
      </trkpt>
      <trkpt lat="48.64563" lon="-2.33382">
        <ele>54</ele>
        <time>2020-06-24T11:48:30.081Z</time>
      </trkpt>
      <trkpt lat="48.64564" lon="-2.33384">
        <ele>54</ele>
        <time>2020-06-24T11:48:31.081Z</time>
      </trkpt>
      <trkpt lat="48.64565" lon="-2.33385">
        <ele>54</ele>
        <time>2020-06-24T11:48:32.081Z</time>
      </trkpt>
      <trkpt lat="48.64565" lon="-2.33386">
        <ele>54</ele>
        <time>2020-06-24T11:48:33.081Z</time>
      </trkpt>
      <trkpt lat="48.64566" lon="-2.33387">
        <ele>55</ele>
        <time>2020-06-24T11:48:34.081Z</time>
      </trkpt>
      <trkpt lat="48.64567" lon="-2.33388">
        <ele>55</ele>
        <time>2020-06-24T11:48:35.081Z</time>
      </trkpt>
      <trkpt lat="48.64568" lon="-2.33389">
        <ele>54</ele>
        <time>2020-06-24T11:48:36.081Z</time>
      </trkpt>
      <trkpt lat="48.6457" lon="-2.3339">
        <ele>54</ele>
        <time>2020-06-24T11:48:37.081Z</time>
      </trkpt>
      <trkpt lat="48.64571" lon="-2.33391">
        <ele>54</ele>
        <time>2020-06-24T11:48:38.081Z</time>
      </trkpt>
      <trkpt lat="48.64572" lon="-2.33392">
        <ele>54</ele>
        <time>2020-06-24T11:48:39.081Z</time>
      </trkpt>
      <trkpt lat="48.64573" lon="-2.33392">
        <ele>54</ele>
        <time>2020-06-24T11:48:40.081Z</time>
      </trkpt>
      <trkpt lat="48.64574" lon="-2.33393">
        <ele>53</ele>
        <time>2020-06-24T11:48:41.081Z</time>
      </trkpt>
      <trkpt lat="48.64576" lon="-2.33394">
        <ele>53</ele>
        <time>2020-06-24T11:48:42.081Z</time>
      </trkpt>
      <trkpt lat="48.64577" lon="-2.33394">
        <ele>53</ele>
        <time>2020-06-24T11:48:43.081Z</time>
      </trkpt>
      <trkpt lat="48.64578" lon="-2.33395">
        <ele>52</ele>
        <time>2020-06-24T11:48:44.081Z</time>
      </trkpt>
      <trkpt lat="48.64579" lon="-2.33397">
        <ele>51</ele>
        <time>2020-06-24T11:48:45.081Z</time>
      </trkpt>
      <trkpt lat="48.6458" lon="-2.33397">
        <ele>51</ele>
        <time>2020-06-24T11:48:46.081Z</time>
      </trkpt>
      <trkpt lat="48.64581" lon="-2.33399">
        <ele>52</ele>
        <time>2020-06-24T11:48:47.081Z</time>
      </trkpt>
      <trkpt lat="48.64582" lon="-2.334">
        <ele>52</ele>
        <time>2020-06-24T11:48:48.081Z</time>
      </trkpt>
      <trkpt lat="48.64583" lon="-2.33402">
        <ele>52</ele>
        <time>2020-06-24T11:48:49.081Z</time>
      </trkpt>
      <trkpt lat="48.64583" lon="-2.33403">
        <ele>52</ele>
        <time>2020-06-24T11:48:50.081Z</time>
      </trkpt>
      <trkpt lat="48.64585" lon="-2.33404">
        <ele>53</ele>
        <time>2020-06-24T11:48:51.081Z</time>
      </trkpt>
      <trkpt lat="48.64586" lon="-2.33406">
        <ele>53</ele>
        <time>2020-06-24T11:48:52.081Z</time>
      </trkpt>
      <trkpt lat="48.64587" lon="-2.33407">
        <ele>53</ele>
        <time>2020-06-24T11:48:53.081Z</time>
      </trkpt>
      <trkpt lat="48.64588" lon="-2.33408">
        <ele>53</ele>
        <time>2020-06-24T11:48:54.081Z</time>
      </trkpt>
      <trkpt lat="48.64589" lon="-2.3341">
        <ele>53</ele>
        <time>2020-06-24T11:48:55.081Z</time>
      </trkpt>
      <trkpt lat="48.64591" lon="-2.33411">
        <ele>53</ele>
        <time>2020-06-24T11:48:56.081Z</time>
      </trkpt>
      <trkpt lat="48.64592" lon="-2.33413">
        <ele>53</ele>
        <time>2020-06-24T11:48:57.081Z</time>
      </trkpt>
      <trkpt lat="48.64593" lon="-2.33415">
        <ele>53</ele>
        <time>2020-06-24T11:48:58.081Z</time>
      </trkpt>
      <trkpt lat="48.64594" lon="-2.33416">
        <ele>53</ele>
        <time>2020-06-24T11:48:59.081Z</time>
      </trkpt>
      <trkpt lat="48.64595" lon="-2.33418">
        <ele>53</ele>
        <time>2020-06-24T11:49:00.081Z</time>
      </trkpt>
      <trkpt lat="48.64596" lon="-2.33419">
        <ele>53</ele>
        <time>2020-06-24T11:49:01.081Z</time>
      </trkpt>
      <trkpt lat="48.64597" lon="-2.33421">
        <ele>54</ele>
        <time>2020-06-24T11:49:02.081Z</time>
      </trkpt>
      <trkpt lat="48.64598" lon="-2.33422">
        <ele>54</ele>
        <time>2020-06-24T11:49:03.081Z</time>
      </trkpt>
      <trkpt lat="48.64599" lon="-2.33423">
        <ele>54</ele>
        <time>2020-06-24T11:49:04.081Z</time>
      </trkpt>
      <trkpt lat="48.64599" lon="-2.33425">
        <ele>53</ele>
        <time>2020-06-24T11:49:05.081Z</time>
      </trkpt>
      <trkpt lat="48.646" lon="-2.33426">
        <ele>53</ele>
        <time>2020-06-24T11:49:06.081Z</time>
      </trkpt>
      <trkpt lat="48.64601" lon="-2.33427">
        <ele>53</ele>
        <time>2020-06-24T11:49:07.081Z</time>
      </trkpt>
      <trkpt lat="48.64602" lon="-2.33428">
        <ele>53</ele>
        <time>2020-06-24T11:49:08.081Z</time>
      </trkpt>
      <trkpt lat="48.64603" lon="-2.33429">
        <ele>53</ele>
        <time>2020-06-24T11:49:09.081Z</time>
      </trkpt>
      <trkpt lat="48.64604" lon="-2.3343">
        <ele>53</ele>
        <time>2020-06-24T11:49:10.081Z</time>
      </trkpt>
      <trkpt lat="48.64605" lon="-2.33432">
        <ele>53</ele>
        <time>2020-06-24T11:49:11.081Z</time>
      </trkpt>
      <trkpt lat="48.64606" lon="-2.33433">
        <ele>53</ele>
        <time>2020-06-24T11:49:12.081Z</time>
      </trkpt>
      <trkpt lat="48.64607" lon="-2.33434">
        <ele>52</ele>
        <time>2020-06-24T11:49:13.081Z</time>
      </trkpt>
      <trkpt lat="48.64608" lon="-2.33435">
        <ele>53</ele>
        <time>2020-06-24T11:49:14.081Z</time>
      </trkpt>
      <trkpt lat="48.64609" lon="-2.33437">
        <ele>53</ele>
        <time>2020-06-24T11:49:15.081Z</time>
      </trkpt>
      <trkpt lat="48.6461" lon="-2.33439">
        <ele>52</ele>
        <time>2020-06-24T11:49:16.081Z</time>
      </trkpt>
      <trkpt lat="48.64611" lon="-2.3344">
        <ele>53</ele>
        <time>2020-06-24T11:49:17.081Z</time>
      </trkpt>
      <trkpt lat="48.64612" lon="-2.33442">
        <ele>53</ele>
        <time>2020-06-24T11:49:18.081Z</time>
      </trkpt>
      <trkpt lat="48.64613" lon="-2.33443">
        <ele>53</ele>
        <time>2020-06-24T11:49:19.081Z</time>
      </trkpt>
      <trkpt lat="48.64614" lon="-2.33445">
        <ele>53</ele>
        <time>2020-06-24T11:49:20.081Z</time>
      </trkpt>
      <trkpt lat="48.64615" lon="-2.33446">
        <ele>54</ele>
        <time>2020-06-24T11:49:21.081Z</time>
      </trkpt>
      <trkpt lat="48.64616" lon="-2.33447">
        <ele>54</ele>
        <time>2020-06-24T11:49:22.081Z</time>
      </trkpt>
      <trkpt lat="48.64617" lon="-2.33449">
        <ele>54</ele>
        <time>2020-06-24T11:49:23.081Z</time>
      </trkpt>
      <trkpt lat="48.64618" lon="-2.3345">
        <ele>54</ele>
        <time>2020-06-24T11:49:24.081Z</time>
      </trkpt>
      <trkpt lat="48.64619" lon="-2.33451">
        <ele>54</ele>
        <time>2020-06-24T11:49:25.081Z</time>
      </trkpt>
      <trkpt lat="48.6462" lon="-2.33453">
        <ele>54</ele>
        <time>2020-06-24T11:49:26.081Z</time>
      </trkpt>
      <trkpt lat="48.64621" lon="-2.33454">
        <ele>55</ele>
        <time>2020-06-24T11:49:27.081Z</time>
      </trkpt>
      <trkpt lat="48.64622" lon="-2.33456">
        <ele>55</ele>
        <time>2020-06-24T11:49:28.081Z</time>
      </trkpt>
      <trkpt lat="48.64623" lon="-2.33457">
        <ele>55</ele>
        <time>2020-06-24T11:49:29.081Z</time>
      </trkpt>
      <trkpt lat="48.64624" lon="-2.33458">
        <ele>55</ele>
        <time>2020-06-24T11:49:30.081Z</time>
      </trkpt>
      <trkpt lat="48.64625" lon="-2.3346">
        <ele>54</ele>
        <time>2020-06-24T11:49:31.081Z</time>
      </trkpt>
      <trkpt lat="48.64626" lon="-2.33461">
        <ele>54</ele>
        <time>2020-06-24T11:49:32.081Z</time>
      </trkpt>
      <trkpt lat="48.64627" lon="-2.33462">
        <ele>54</ele>
        <time>2020-06-24T11:49:33.081Z</time>
      </trkpt>
      <trkpt lat="48.64628" lon="-2.33463">
        <ele>54</ele>
        <time>2020-06-24T11:49:34.081Z</time>
      </trkpt>
      <trkpt lat="48.64629" lon="-2.33464">
        <ele>54</ele>
        <time>2020-06-24T11:49:35.081Z</time>
      </trkpt>
      <trkpt lat="48.6463" lon="-2.33465">
        <ele>54</ele>
        <time>2020-06-24T11:49:36.081Z</time>
      </trkpt>
      <trkpt lat="48.64631" lon="-2.33467">
        <ele>55</ele>
        <time>2020-06-24T11:49:37.081Z</time>
      </trkpt>
      <trkpt lat="48.64632" lon="-2.33468">
        <ele>55</ele>
        <time>2020-06-24T11:49:38.081Z</time>
      </trkpt>
      <trkpt lat="48.64633" lon="-2.33469">
        <ele>55</ele>
        <time>2020-06-24T11:49:39.081Z</time>
      </trkpt>
      <trkpt lat="48.64634" lon="-2.33471">
        <ele>55</ele>
        <time>2020-06-24T11:49:40.081Z</time>
      </trkpt>
      <trkpt lat="48.64635" lon="-2.33472">
        <ele>55</ele>
        <time>2020-06-24T11:49:41.081Z</time>
      </trkpt>
      <trkpt lat="48.64636" lon="-2.33474">
        <ele>56</ele>
        <time>2020-06-24T11:49:42.081Z</time>
      </trkpt>
      <trkpt lat="48.64637" lon="-2.33475">
        <ele>56</ele>
        <time>2020-06-24T11:49:43.081Z</time>
      </trkpt>
      <trkpt lat="48.64639" lon="-2.33477">
        <ele>56</ele>
        <time>2020-06-24T11:49:44.081Z</time>
      </trkpt>
      <trkpt lat="48.6464" lon="-2.33478">
        <ele>55</ele>
        <time>2020-06-24T11:49:45.081Z</time>
      </trkpt>
      <trkpt lat="48.64641" lon="-2.33479">
        <ele>56</ele>
        <time>2020-06-24T11:49:46.081Z</time>
      </trkpt>
      <trkpt lat="48.64642" lon="-2.33481">
        <ele>56</ele>
        <time>2020-06-24T11:49:47.081Z</time>
      </trkpt>
      <trkpt lat="48.64643" lon="-2.33482">
        <ele>56</ele>
        <time>2020-06-24T11:49:48.081Z</time>
      </trkpt>
      <trkpt lat="48.64644" lon="-2.33484">
        <ele>56</ele>
        <time>2020-06-24T11:49:49.081Z</time>
      </trkpt>
      <trkpt lat="48.64645" lon="-2.33486">
        <ele>56</ele>
        <time>2020-06-24T11:49:50.081Z</time>
      </trkpt>
      <trkpt lat="48.64646" lon="-2.33487">
        <ele>56</ele>
        <time>2020-06-24T11:49:51.081Z</time>
      </trkpt>
      <trkpt lat="48.64647" lon="-2.33489">
        <ele>56</ele>
        <time>2020-06-24T11:49:52.081Z</time>
      </trkpt>
      <trkpt lat="48.64648" lon="-2.3349">
        <ele>57</ele>
        <time>2020-06-24T11:49:53.081Z</time>
      </trkpt>
      <trkpt lat="48.64649" lon="-2.33491">
        <ele>57</ele>
        <time>2020-06-24T11:49:54.081Z</time>
      </trkpt>
      <trkpt lat="48.6465" lon="-2.33492">
        <ele>57</ele>
        <time>2020-06-24T11:49:55.081Z</time>
      </trkpt>
      <trkpt lat="48.64651" lon="-2.33493">
        <ele>56</ele>
        <time>2020-06-24T11:49:56.081Z</time>
      </trkpt>
      <trkpt lat="48.64652" lon="-2.33494">
        <ele>56</ele>
        <time>2020-06-24T11:49:57.081Z</time>
      </trkpt>
      <trkpt lat="48.64653" lon="-2.33496">
        <ele>56</ele>
        <time>2020-06-24T11:49:58.081Z</time>
      </trkpt>
      <trkpt lat="48.64655" lon="-2.33497">
        <ele>56</ele>
        <time>2020-06-24T11:49:59.081Z</time>
      </trkpt>
      <trkpt lat="48.64656" lon="-2.33498">
        <ele>57</ele>
        <time>2020-06-24T11:50:00.081Z</time>
      </trkpt>
      <trkpt lat="48.64656" lon="-2.33499">
        <ele>57</ele>
        <time>2020-06-24T11:50:01.081Z</time>
      </trkpt>
      <trkpt lat="48.64657" lon="-2.33501">
        <ele>57</ele>
        <time>2020-06-24T11:50:02.081Z</time>
      </trkpt>
      <trkpt lat="48.64658" lon="-2.33502">
        <ele>57</ele>
        <time>2020-06-24T11:50:03.081Z</time>
      </trkpt>
      <trkpt lat="48.64659" lon="-2.33503">
        <ele>57</ele>
        <time>2020-06-24T11:50:04.081Z</time>
      </trkpt>
      <trkpt lat="48.6466" lon="-2.33505">
        <ele>57</ele>
        <time>2020-06-24T11:50:05.081Z</time>
      </trkpt>
      <trkpt lat="48.64661" lon="-2.33506">
        <ele>57</ele>
        <time>2020-06-24T11:50:06.081Z</time>
      </trkpt>
      <trkpt lat="48.64662" lon="-2.33507">
        <ele>57</ele>
        <time>2020-06-24T11:50:07.081Z</time>
      </trkpt>
      <trkpt lat="48.64663" lon="-2.33508">
        <ele>57</ele>
        <time>2020-06-24T11:50:08.081Z</time>
      </trkpt>
      <trkpt lat="48.64665" lon="-2.33509">
        <ele>57</ele>
        <time>2020-06-24T11:50:09.081Z</time>
      </trkpt>
      <trkpt lat="48.64666" lon="-2.33511">
        <ele>56</ele>
        <time>2020-06-24T11:50:10.081Z</time>
      </trkpt>
      <trkpt lat="48.64667" lon="-2.33512">
        <ele>56</ele>
        <time>2020-06-24T11:50:11.081Z</time>
      </trkpt>
      <trkpt lat="48.64668" lon="-2.33513">
        <ele>56</ele>
        <time>2020-06-24T11:50:12.081Z</time>
      </trkpt>
      <trkpt lat="48.6467" lon="-2.33514">
        <ele>55</ele>
        <time>2020-06-24T11:50:13.081Z</time>
      </trkpt>
      <trkpt lat="48.64671" lon="-2.33515">
        <ele>55</ele>
        <time>2020-06-24T11:50:14.081Z</time>
      </trkpt>
      <trkpt lat="48.64672" lon="-2.33516">
        <ele>55</ele>
        <time>2020-06-24T11:50:15.081Z</time>
      </trkpt>
      <trkpt lat="48.64673" lon="-2.33517">
        <ele>56</ele>
        <time>2020-06-24T11:50:16.081Z</time>
      </trkpt>
      <trkpt lat="48.64675" lon="-2.33518">
        <ele>56</ele>
        <time>2020-06-24T11:50:17.081Z</time>
      </trkpt>
      <trkpt lat="48.64676" lon="-2.33519">
        <ele>56</ele>
        <time>2020-06-24T11:50:18.081Z</time>
      </trkpt>
      <trkpt lat="48.64678" lon="-2.3352">
        <ele>56</ele>
        <time>2020-06-24T11:50:19.081Z</time>
      </trkpt>
      <trkpt lat="48.64679" lon="-2.3352">
        <ele>56</ele>
        <time>2020-06-24T11:50:20.081Z</time>
      </trkpt>
      <trkpt lat="48.6468" lon="-2.33521">
        <ele>56</ele>
        <time>2020-06-24T11:50:21.081Z</time>
      </trkpt>
      <trkpt lat="48.64682" lon="-2.33522">
        <ele>57</ele>
        <time>2020-06-24T11:50:22.081Z</time>
      </trkpt>
      <trkpt lat="48.64683" lon="-2.33523">
        <ele>56</ele>
        <time>2020-06-24T11:50:23.081Z</time>
      </trkpt>
      <trkpt lat="48.64684" lon="-2.33524">
        <ele>57</ele>
        <time>2020-06-24T11:50:24.081Z</time>
      </trkpt>
      <trkpt lat="48.64685" lon="-2.33525">
        <ele>57</ele>
        <time>2020-06-24T11:50:25.081Z</time>
      </trkpt>
      <trkpt lat="48.64687" lon="-2.33526">
        <ele>57</ele>
        <time>2020-06-24T11:50:26.081Z</time>
      </trkpt>
      <trkpt lat="48.64688" lon="-2.33527">
        <ele>57</ele>
        <time>2020-06-24T11:50:27.081Z</time>
      </trkpt>
      <trkpt lat="48.64689" lon="-2.33528">
        <ele>57</ele>
        <time>2020-06-24T11:50:28.081Z</time>
      </trkpt>
      <trkpt lat="48.64691" lon="-2.33528">
        <ele>57</ele>
        <time>2020-06-24T11:50:29.081Z</time>
      </trkpt>
      <trkpt lat="48.64693" lon="-2.33529">
        <ele>57</ele>
        <time>2020-06-24T11:50:30.081Z</time>
      </trkpt>
      <trkpt lat="48.64694" lon="-2.33529">
        <ele>56</ele>
        <time>2020-06-24T11:50:31.081Z</time>
      </trkpt>
      <trkpt lat="48.64695" lon="-2.3353">
        <ele>56</ele>
        <time>2020-06-24T11:50:32.081Z</time>
      </trkpt>
      <trkpt lat="48.64697" lon="-2.33531">
        <ele>56</ele>
        <time>2020-06-24T11:50:33.081Z</time>
      </trkpt>
      <trkpt lat="48.64698" lon="-2.33531">
        <ele>56</ele>
        <time>2020-06-24T11:50:34.081Z</time>
      </trkpt>
      <trkpt lat="48.647" lon="-2.33532">
        <ele>55</ele>
        <time>2020-06-24T11:50:35.081Z</time>
      </trkpt>
      <trkpt lat="48.64701" lon="-2.33533">
        <ele>55</ele>
        <time>2020-06-24T11:50:36.081Z</time>
      </trkpt>
      <trkpt lat="48.64702" lon="-2.33534">
        <ele>55</ele>
        <time>2020-06-24T11:50:37.081Z</time>
      </trkpt>
      <trkpt lat="48.64703" lon="-2.33535">
        <ele>55</ele>
        <time>2020-06-24T11:50:38.081Z</time>
      </trkpt>
      <trkpt lat="48.64705" lon="-2.33536">
        <ele>55</ele>
        <time>2020-06-24T11:50:39.081Z</time>
      </trkpt>
      <trkpt lat="48.64706" lon="-2.33536">
        <ele>55</ele>
        <time>2020-06-24T11:50:40.081Z</time>
      </trkpt>
      <trkpt lat="48.64707" lon="-2.33537">
        <ele>56</ele>
        <time>2020-06-24T11:50:41.081Z</time>
      </trkpt>
      <trkpt lat="48.64709" lon="-2.33538">
        <ele>56</ele>
        <time>2020-06-24T11:50:42.081Z</time>
      </trkpt>
      <trkpt lat="48.6471" lon="-2.33538">
        <ele>56</ele>
        <time>2020-06-24T11:50:43.081Z</time>
      </trkpt>
      <trkpt lat="48.64711" lon="-2.33539">
        <ele>55</ele>
        <time>2020-06-24T11:50:44.081Z</time>
      </trkpt>
      <trkpt lat="48.64713" lon="-2.3354">
        <ele>55</ele>
        <time>2020-06-24T11:50:45.081Z</time>
      </trkpt>
      <trkpt lat="48.64714" lon="-2.3354">
        <ele>54</ele>
        <time>2020-06-24T11:50:46.081Z</time>
      </trkpt>
      <trkpt lat="48.64715" lon="-2.33541">
        <ele>55</ele>
        <time>2020-06-24T11:50:47.081Z</time>
      </trkpt>
      <trkpt lat="48.64716" lon="-2.33541">
        <ele>54</ele>
        <time>2020-06-24T11:50:48.081Z</time>
      </trkpt>
      <trkpt lat="48.64718" lon="-2.33542">
        <ele>55</ele>
        <time>2020-06-24T11:50:49.081Z</time>
      </trkpt>
      <trkpt lat="48.64719" lon="-2.33543">
        <ele>55</ele>
        <time>2020-06-24T11:50:50.081Z</time>
      </trkpt>
      <trkpt lat="48.6472" lon="-2.33543">
        <ele>55</ele>
        <time>2020-06-24T11:50:51.081Z</time>
      </trkpt>
      <trkpt lat="48.64722" lon="-2.33544">
        <ele>55</ele>
        <time>2020-06-24T11:50:52.081Z</time>
      </trkpt>
      <trkpt lat="48.64723" lon="-2.33544">
        <ele>55</ele>
        <time>2020-06-24T11:50:53.081Z</time>
      </trkpt>
      <trkpt lat="48.64724" lon="-2.33545">
        <ele>55</ele>
        <time>2020-06-24T11:50:54.081Z</time>
      </trkpt>
      <trkpt lat="48.64725" lon="-2.33546">
        <ele>54</ele>
        <time>2020-06-24T11:50:55.081Z</time>
      </trkpt>
      <trkpt lat="48.64727" lon="-2.33546">
        <ele>54</ele>
        <time>2020-06-24T11:50:56.081Z</time>
      </trkpt>
      <trkpt lat="48.64728" lon="-2.33547">
        <ele>54</ele>
        <time>2020-06-24T11:50:57.081Z</time>
      </trkpt>
      <trkpt lat="48.6473" lon="-2.33547">
        <ele>54</ele>
        <time>2020-06-24T11:50:58.081Z</time>
      </trkpt>
      <trkpt lat="48.64731" lon="-2.33548">
        <ele>54</ele>
        <time>2020-06-24T11:50:59.081Z</time>
      </trkpt>
      <trkpt lat="48.64732" lon="-2.33548">
        <ele>54</ele>
        <time>2020-06-24T11:51:00.081Z</time>
      </trkpt>
      <trkpt lat="48.64733" lon="-2.33548">
        <ele>54</ele>
        <time>2020-06-24T11:51:01.081Z</time>
      </trkpt>
      <trkpt lat="48.64734" lon="-2.33548">
        <ele>54</ele>
        <time>2020-06-24T11:51:02.081Z</time>
      </trkpt>
      <trkpt lat="48.64736" lon="-2.33548">
        <ele>54</ele>
        <time>2020-06-24T11:51:03.081Z</time>
      </trkpt>
      <trkpt lat="48.64737" lon="-2.33548">
        <ele>53</ele>
        <time>2020-06-24T11:51:04.081Z</time>
      </trkpt>
      <trkpt lat="48.64738" lon="-2.33549">
        <ele>53</ele>
        <time>2020-06-24T11:51:05.081Z</time>
      </trkpt>
      <trkpt lat="48.6474" lon="-2.33549">
        <ele>53</ele>
        <time>2020-06-24T11:51:06.081Z</time>
      </trkpt>
      <trkpt lat="48.64741" lon="-2.33549">
        <ele>53</ele>
        <time>2020-06-24T11:51:07.081Z</time>
      </trkpt>
      <trkpt lat="48.64742" lon="-2.33549">
        <ele>53</ele>
        <time>2020-06-24T11:51:08.081Z</time>
      </trkpt>
      <trkpt lat="48.64744" lon="-2.3355">
        <ele>53</ele>
        <time>2020-06-24T11:51:09.081Z</time>
      </trkpt>
      <trkpt lat="48.64745" lon="-2.3355">
        <ele>53</ele>
        <time>2020-06-24T11:51:10.081Z</time>
      </trkpt>
      <trkpt lat="48.64746" lon="-2.3355">
        <ele>52</ele>
        <time>2020-06-24T11:51:11.081Z</time>
      </trkpt>
      <trkpt lat="48.64748" lon="-2.3355">
        <ele>52</ele>
        <time>2020-06-24T11:51:12.081Z</time>
      </trkpt>
      <trkpt lat="48.64749" lon="-2.3355">
        <ele>52</ele>
        <time>2020-06-24T11:51:13.081Z</time>
      </trkpt>
      <trkpt lat="48.6475" lon="-2.33551">
        <ele>52</ele>
        <time>2020-06-24T11:51:14.081Z</time>
      </trkpt>
      <trkpt lat="48.64752" lon="-2.33551">
        <ele>53</ele>
        <time>2020-06-24T11:51:15.081Z</time>
      </trkpt>
      <trkpt lat="48.64753" lon="-2.33551">
        <ele>53</ele>
        <time>2020-06-24T11:51:16.081Z</time>
      </trkpt>
      <trkpt lat="48.64755" lon="-2.33551">
        <ele>53</ele>
        <time>2020-06-24T11:51:17.081Z</time>
      </trkpt>
      <trkpt lat="48.64756" lon="-2.33551">
        <ele>53</ele>
        <time>2020-06-24T11:51:18.081Z</time>
      </trkpt>
      <trkpt lat="48.64757" lon="-2.33552">
        <ele>53</ele>
        <time>2020-06-24T11:51:19.081Z</time>
      </trkpt>
      <trkpt lat="48.64758" lon="-2.33552">
        <ele>53</ele>
        <time>2020-06-24T11:51:20.081Z</time>
      </trkpt>
      <trkpt lat="48.6476" lon="-2.33553">
        <ele>53</ele>
        <time>2020-06-24T11:51:21.081Z</time>
      </trkpt>
      <trkpt lat="48.64761" lon="-2.33553">
        <ele>53</ele>
        <time>2020-06-24T11:51:22.081Z</time>
      </trkpt>
      <trkpt lat="48.64762" lon="-2.33554">
        <ele>52</ele>
        <time>2020-06-24T11:51:23.081Z</time>
      </trkpt>
      <trkpt lat="48.64763" lon="-2.33555">
        <ele>52</ele>
        <time>2020-06-24T11:51:24.081Z</time>
      </trkpt>
      <trkpt lat="48.64764" lon="-2.33556">
        <ele>52</ele>
        <time>2020-06-24T11:51:25.081Z</time>
      </trkpt>
      <trkpt lat="48.64766" lon="-2.33557">
        <ele>52</ele>
        <time>2020-06-24T11:51:26.081Z</time>
      </trkpt>
      <trkpt lat="48.64767" lon="-2.33558">
        <ele>52</ele>
        <time>2020-06-24T11:51:27.081Z</time>
      </trkpt>
      <trkpt lat="48.64769" lon="-2.33559">
        <ele>52</ele>
        <time>2020-06-24T11:51:28.081Z</time>
      </trkpt>
      <trkpt lat="48.6477" lon="-2.3356">
        <ele>52</ele>
        <time>2020-06-24T11:51:29.081Z</time>
      </trkpt>
      <trkpt lat="48.64771" lon="-2.33561">
        <ele>52</ele>
        <time>2020-06-24T11:51:30.081Z</time>
      </trkpt>
      <trkpt lat="48.64773" lon="-2.33562">
        <ele>52</ele>
        <time>2020-06-24T11:51:31.081Z</time>
      </trkpt>
      <trkpt lat="48.64774" lon="-2.33563">
        <ele>52</ele>
        <time>2020-06-24T11:51:32.081Z</time>
      </trkpt>
      <trkpt lat="48.64775" lon="-2.33564">
        <ele>52</ele>
        <time>2020-06-24T11:51:33.081Z</time>
      </trkpt>
      <trkpt lat="48.64776" lon="-2.33564">
        <ele>52</ele>
        <time>2020-06-24T11:51:34.081Z</time>
      </trkpt>
      <trkpt lat="48.64778" lon="-2.33565">
        <ele>52</ele>
        <time>2020-06-24T11:51:35.081Z</time>
      </trkpt>
      <trkpt lat="48.64779" lon="-2.33566">
        <ele>51</ele>
        <time>2020-06-24T11:51:36.081Z</time>
      </trkpt>
      <trkpt lat="48.6478" lon="-2.33566">
        <ele>51</ele>
        <time>2020-06-24T11:51:37.081Z</time>
      </trkpt>
      <trkpt lat="48.64781" lon="-2.33567">
        <ele>51</ele>
        <time>2020-06-24T11:51:38.081Z</time>
      </trkpt>
      <trkpt lat="48.64783" lon="-2.33568">
        <ele>51</ele>
        <time>2020-06-24T11:51:39.081Z</time>
      </trkpt>
      <trkpt lat="48.64784" lon="-2.33568">
        <ele>51</ele>
        <time>2020-06-24T11:51:40.081Z</time>
      </trkpt>
      <trkpt lat="48.64785" lon="-2.33569">
        <ele>51</ele>
        <time>2020-06-24T11:51:41.081Z</time>
      </trkpt>
      <trkpt lat="48.64786" lon="-2.3357">
        <ele>51</ele>
        <time>2020-06-24T11:51:42.081Z</time>
      </trkpt>
      <trkpt lat="48.64788" lon="-2.33571">
        <ele>51</ele>
        <time>2020-06-24T11:51:43.081Z</time>
      </trkpt>
      <trkpt lat="48.64789" lon="-2.33572">
        <ele>51</ele>
        <time>2020-06-24T11:51:44.081Z</time>
      </trkpt>
      <trkpt lat="48.6479" lon="-2.33573">
        <ele>51</ele>
        <time>2020-06-24T11:51:45.081Z</time>
      </trkpt>
      <trkpt lat="48.64792" lon="-2.33574">
        <ele>51</ele>
        <time>2020-06-24T11:51:46.081Z</time>
      </trkpt>
      <trkpt lat="48.64793" lon="-2.33575">
        <ele>52</ele>
        <time>2020-06-24T11:51:47.081Z</time>
      </trkpt>
      <trkpt lat="48.64794" lon="-2.33575">
        <ele>52</ele>
        <time>2020-06-24T11:51:48.081Z</time>
      </trkpt>
      <trkpt lat="48.64796" lon="-2.33576">
        <ele>52</ele>
        <time>2020-06-24T11:51:49.081Z</time>
      </trkpt>
      <trkpt lat="48.64797" lon="-2.33577">
        <ele>52</ele>
        <time>2020-06-24T11:51:50.081Z</time>
      </trkpt>
      <trkpt lat="48.64798" lon="-2.33578">
        <ele>52</ele>
        <time>2020-06-24T11:51:51.081Z</time>
      </trkpt>
      <trkpt lat="48.648" lon="-2.33579">
        <ele>52</ele>
        <time>2020-06-24T11:51:52.081Z</time>
      </trkpt>
      <trkpt lat="48.64801" lon="-2.3358">
        <ele>52</ele>
        <time>2020-06-24T11:51:53.081Z</time>
      </trkpt>
      <trkpt lat="48.64803" lon="-2.33581">
        <ele>52</ele>
        <time>2020-06-24T11:51:54.081Z</time>
      </trkpt>
      <trkpt lat="48.64804" lon="-2.33582">
        <ele>53</ele>
        <time>2020-06-24T11:51:55.081Z</time>
      </trkpt>
      <trkpt lat="48.64806" lon="-2.33583">
        <ele>53</ele>
        <time>2020-06-24T11:51:56.081Z</time>
      </trkpt>
      <trkpt lat="48.64807" lon="-2.33584">
        <ele>53</ele>
        <time>2020-06-24T11:51:57.081Z</time>
      </trkpt>
      <trkpt lat="48.64808" lon="-2.33585">
        <ele>53</ele>
        <time>2020-06-24T11:51:58.081Z</time>
      </trkpt>
      <trkpt lat="48.6481" lon="-2.33586">
        <ele>53</ele>
        <time>2020-06-24T11:51:59.081Z</time>
      </trkpt>
      <trkpt lat="48.64811" lon="-2.33587">
        <ele>53</ele>
        <time>2020-06-24T11:52:00.081Z</time>
      </trkpt>
      <trkpt lat="48.64812" lon="-2.33588">
        <ele>53</ele>
        <time>2020-06-24T11:52:01.081Z</time>
      </trkpt>
      <trkpt lat="48.64814" lon="-2.33589">
        <ele>53</ele>
        <time>2020-06-24T11:52:02.081Z</time>
      </trkpt>
      <trkpt lat="48.64815" lon="-2.3359">
        <ele>53</ele>
        <time>2020-06-24T11:52:03.081Z</time>
      </trkpt>
      <trkpt lat="48.64816" lon="-2.33591">
        <ele>53</ele>
        <time>2020-06-24T11:52:04.081Z</time>
      </trkpt>
      <trkpt lat="48.64817" lon="-2.33591">
        <ele>53</ele>
        <time>2020-06-24T11:52:05.081Z</time>
      </trkpt>
      <trkpt lat="48.64818" lon="-2.33592">
        <ele>53</ele>
        <time>2020-06-24T11:52:06.081Z</time>
      </trkpt>
      <trkpt lat="48.6482" lon="-2.33593">
        <ele>53</ele>
        <time>2020-06-24T11:52:07.081Z</time>
      </trkpt>
      <trkpt lat="48.64821" lon="-2.33594">
        <ele>53</ele>
        <time>2020-06-24T11:52:08.081Z</time>
      </trkpt>
      <trkpt lat="48.64822" lon="-2.33595">
        <ele>53</ele>
        <time>2020-06-24T11:52:09.081Z</time>
      </trkpt>
      <trkpt lat="48.64823" lon="-2.33596">
        <ele>52</ele>
        <time>2020-06-24T11:52:10.081Z</time>
      </trkpt>
      <trkpt lat="48.64824" lon="-2.33596">
        <ele>52</ele>
        <time>2020-06-24T11:52:11.081Z</time>
      </trkpt>
      <trkpt lat="48.64826" lon="-2.33597">
        <ele>52</ele>
        <time>2020-06-24T11:52:12.081Z</time>
      </trkpt>
      <trkpt lat="48.64827" lon="-2.33598">
        <ele>53</ele>
        <time>2020-06-24T11:52:13.081Z</time>
      </trkpt>
      <trkpt lat="48.64828" lon="-2.33599">
        <ele>52</ele>
        <time>2020-06-24T11:52:14.081Z</time>
      </trkpt>
      <trkpt lat="48.64829" lon="-2.336">
        <ele>52</ele>
        <time>2020-06-24T11:52:15.081Z</time>
      </trkpt>
      <trkpt lat="48.6483" lon="-2.33601">
        <ele>52</ele>
        <time>2020-06-24T11:52:16.081Z</time>
      </trkpt>
      <trkpt lat="48.64832" lon="-2.33602">
        <ele>52</ele>
        <time>2020-06-24T11:52:17.081Z</time>
      </trkpt>
      <trkpt lat="48.64833" lon="-2.33603">
        <ele>52</ele>
        <time>2020-06-24T11:52:18.081Z</time>
      </trkpt>
      <trkpt lat="48.64834" lon="-2.33604">
        <ele>52</ele>
        <time>2020-06-24T11:52:19.081Z</time>
      </trkpt>
      <trkpt lat="48.64835" lon="-2.33605">
        <ele>52</ele>
        <time>2020-06-24T11:52:20.081Z</time>
      </trkpt>
      <trkpt lat="48.64837" lon="-2.33607">
        <ele>52</ele>
        <time>2020-06-24T11:52:21.081Z</time>
      </trkpt>
      <trkpt lat="48.64838" lon="-2.33608">
        <ele>52</ele>
        <time>2020-06-24T11:52:22.081Z</time>
      </trkpt>
      <trkpt lat="48.64839" lon="-2.33609">
        <ele>51</ele>
        <time>2020-06-24T11:52:23.081Z</time>
      </trkpt>
      <trkpt lat="48.64841" lon="-2.3361">
        <ele>52</ele>
        <time>2020-06-24T11:52:24.081Z</time>
      </trkpt>
      <trkpt lat="48.64842" lon="-2.33612">
        <ele>51</ele>
        <time>2020-06-24T11:52:25.081Z</time>
      </trkpt>
      <trkpt lat="48.64843" lon="-2.33613">
        <ele>51</ele>
        <time>2020-06-24T11:52:26.081Z</time>
      </trkpt>
      <trkpt lat="48.64844" lon="-2.33614">
        <ele>51</ele>
        <time>2020-06-24T11:52:27.081Z</time>
      </trkpt>
      <trkpt lat="48.64846" lon="-2.33616">
        <ele>51</ele>
        <time>2020-06-24T11:52:28.081Z</time>
      </trkpt>
      <trkpt lat="48.64847" lon="-2.33617">
        <ele>51</ele>
        <time>2020-06-24T11:52:29.081Z</time>
      </trkpt>
      <trkpt lat="48.64848" lon="-2.33619">
        <ele>51</ele>
        <time>2020-06-24T11:52:30.081Z</time>
      </trkpt>
      <trkpt lat="48.64849" lon="-2.3362">
        <ele>51</ele>
        <time>2020-06-24T11:52:31.081Z</time>
      </trkpt>
      <trkpt lat="48.6485" lon="-2.33622">
        <ele>51</ele>
        <time>2020-06-24T11:52:32.081Z</time>
      </trkpt>
      <trkpt lat="48.64851" lon="-2.33623">
        <ele>51</ele>
        <time>2020-06-24T11:52:33.081Z</time>
      </trkpt>
      <trkpt lat="48.64852" lon="-2.33624">
        <ele>51</ele>
        <time>2020-06-24T11:52:34.081Z</time>
      </trkpt>
      <trkpt lat="48.64853" lon="-2.33625">
        <ele>51</ele>
        <time>2020-06-24T11:52:35.081Z</time>
      </trkpt>
      <trkpt lat="48.64854" lon="-2.33627">
        <ele>51</ele>
        <time>2020-06-24T11:52:36.081Z</time>
      </trkpt>
      <trkpt lat="48.64855" lon="-2.33628">
        <ele>51</ele>
        <time>2020-06-24T11:52:37.081Z</time>
      </trkpt>
      <trkpt lat="48.64856" lon="-2.33629">
        <ele>51</ele>
        <time>2020-06-24T11:52:38.081Z</time>
      </trkpt>
      <trkpt lat="48.64857" lon="-2.3363">
        <ele>50</ele>
        <time>2020-06-24T11:52:39.081Z</time>
      </trkpt>
      <trkpt lat="48.64858" lon="-2.33632">
        <ele>50</ele>
        <time>2020-06-24T11:52:40.081Z</time>
      </trkpt>
      <trkpt lat="48.64859" lon="-2.33633">
        <ele>50</ele>
        <time>2020-06-24T11:52:41.081Z</time>
      </trkpt>
      <trkpt lat="48.6486" lon="-2.33634">
        <ele>50</ele>
        <time>2020-06-24T11:52:42.081Z</time>
      </trkpt>
      <trkpt lat="48.64861" lon="-2.33635">
        <ele>50</ele>
        <time>2020-06-24T11:52:43.081Z</time>
      </trkpt>
      <trkpt lat="48.64862" lon="-2.33637">
        <ele>50</ele>
        <time>2020-06-24T11:52:44.081Z</time>
      </trkpt>
      <trkpt lat="48.64863" lon="-2.33638">
        <ele>50</ele>
        <time>2020-06-24T11:52:45.081Z</time>
      </trkpt>
      <trkpt lat="48.64864" lon="-2.33638">
        <ele>51</ele>
        <time>2020-06-24T11:52:46.081Z</time>
      </trkpt>
      <trkpt lat="48.64865" lon="-2.33639">
        <ele>51</ele>
        <time>2020-06-24T11:52:47.081Z</time>
      </trkpt>
      <trkpt lat="48.64866" lon="-2.3364">
        <ele>51</ele>
        <time>2020-06-24T11:52:48.081Z</time>
      </trkpt>
      <trkpt lat="48.64868" lon="-2.33641">
        <ele>50</ele>
        <time>2020-06-24T11:52:49.081Z</time>
      </trkpt>
      <trkpt lat="48.64869" lon="-2.33641">
        <ele>49</ele>
        <time>2020-06-24T11:52:50.081Z</time>
      </trkpt>
      <trkpt lat="48.64871" lon="-2.33641">
        <ele>49</ele>
        <time>2020-06-24T11:52:51.081Z</time>
      </trkpt>
      <trkpt lat="48.64872" lon="-2.33642">
        <ele>50</ele>
        <time>2020-06-24T11:52:52.081Z</time>
      </trkpt>
      <trkpt lat="48.64873" lon="-2.33642">
        <ele>49</ele>
        <time>2020-06-24T11:52:53.081Z</time>
      </trkpt>
      <trkpt lat="48.64875" lon="-2.33642">
        <ele>49</ele>
        <time>2020-06-24T11:52:54.081Z</time>
      </trkpt>
      <trkpt lat="48.64876" lon="-2.33642">
        <ele>49</ele>
        <time>2020-06-24T11:52:55.081Z</time>
      </trkpt>
      <trkpt lat="48.64878" lon="-2.33642">
        <ele>49</ele>
        <time>2020-06-24T11:52:56.081Z</time>
      </trkpt>
      <trkpt lat="48.64879" lon="-2.33642">
        <ele>49</ele>
        <time>2020-06-24T11:52:57.081Z</time>
      </trkpt>
      <trkpt lat="48.6488" lon="-2.33642">
        <ele>48</ele>
        <time>2020-06-24T11:52:58.081Z</time>
      </trkpt>
      <trkpt lat="48.64881" lon="-2.33642">
        <ele>47</ele>
        <time>2020-06-24T11:52:59.081Z</time>
      </trkpt>
      <trkpt lat="48.64883" lon="-2.33642">
        <ele>47</ele>
        <time>2020-06-24T11:53:00.081Z</time>
      </trkpt>
      <trkpt lat="48.64884" lon="-2.33641">
        <ele>46</ele>
        <time>2020-06-24T11:53:01.081Z</time>
      </trkpt>
      <trkpt lat="48.64886" lon="-2.3364">
        <ele>47</ele>
        <time>2020-06-24T11:53:02.081Z</time>
      </trkpt>
      <trkpt lat="48.64887" lon="-2.3364">
        <ele>46</ele>
        <time>2020-06-24T11:53:03.081Z</time>
      </trkpt>
      <trkpt lat="48.64888" lon="-2.33639">
        <ele>47</ele>
        <time>2020-06-24T11:53:04.081Z</time>
      </trkpt>
      <trkpt lat="48.6489" lon="-2.33638">
        <ele>46</ele>
        <time>2020-06-24T11:53:05.081Z</time>
      </trkpt>
      <trkpt lat="48.64891" lon="-2.33637">
        <ele>46</ele>
        <time>2020-06-24T11:53:06.081Z</time>
      </trkpt>
      <trkpt lat="48.64892" lon="-2.33636">
        <ele>46</ele>
        <time>2020-06-24T11:53:07.081Z</time>
      </trkpt>
      <trkpt lat="48.64893" lon="-2.33636">
        <ele>46</ele>
        <time>2020-06-24T11:53:08.081Z</time>
      </trkpt>
      <trkpt lat="48.64895" lon="-2.33635">
        <ele>46</ele>
        <time>2020-06-24T11:53:09.081Z</time>
      </trkpt>
      <trkpt lat="48.64896" lon="-2.33634">
        <ele>46</ele>
        <time>2020-06-24T11:53:10.081Z</time>
      </trkpt>
      <trkpt lat="48.64897" lon="-2.33633">
        <ele>46</ele>
        <time>2020-06-24T11:53:11.081Z</time>
      </trkpt>
      <trkpt lat="48.64899" lon="-2.33632">
        <ele>46</ele>
        <time>2020-06-24T11:53:12.081Z</time>
      </trkpt>
      <trkpt lat="48.649" lon="-2.33631">
        <ele>47</ele>
        <time>2020-06-24T11:53:13.081Z</time>
      </trkpt>
      <trkpt lat="48.64902" lon="-2.3363">
        <ele>47</ele>
        <time>2020-06-24T11:53:14.081Z</time>
      </trkpt>
      <trkpt lat="48.64903" lon="-2.33629">
        <ele>47</ele>
        <time>2020-06-24T11:53:15.081Z</time>
      </trkpt>
      <trkpt lat="48.64904" lon="-2.33629">
        <ele>48</ele>
        <time>2020-06-24T11:53:16.081Z</time>
      </trkpt>
      <trkpt lat="48.64906" lon="-2.33628">
        <ele>48</ele>
        <time>2020-06-24T11:53:17.081Z</time>
      </trkpt>
      <trkpt lat="48.64907" lon="-2.33627">
        <ele>48</ele>
        <time>2020-06-24T11:53:18.081Z</time>
      </trkpt>
      <trkpt lat="48.64908" lon="-2.33626">
        <ele>49</ele>
        <time>2020-06-24T11:53:19.081Z</time>
      </trkpt>
      <trkpt lat="48.6491" lon="-2.33625">
        <ele>49</ele>
        <time>2020-06-24T11:53:20.081Z</time>
      </trkpt>
      <trkpt lat="48.64911" lon="-2.33624">
        <ele>49</ele>
        <time>2020-06-24T11:53:21.081Z</time>
      </trkpt>
      <trkpt lat="48.64913" lon="-2.33623">
        <ele>49</ele>
        <time>2020-06-24T11:53:22.081Z</time>
      </trkpt>
      <trkpt lat="48.64914" lon="-2.33622">
        <ele>49</ele>
        <time>2020-06-24T11:53:23.081Z</time>
      </trkpt>
      <trkpt lat="48.64916" lon="-2.33622">
        <ele>49</ele>
        <time>2020-06-24T11:53:24.081Z</time>
      </trkpt>
      <trkpt lat="48.64917" lon="-2.33621">
        <ele>49</ele>
        <time>2020-06-24T11:53:25.081Z</time>
      </trkpt>
      <trkpt lat="48.64919" lon="-2.33621">
        <ele>49</ele>
        <time>2020-06-24T11:53:26.081Z</time>
      </trkpt>
      <trkpt lat="48.6492" lon="-2.3362">
        <ele>49</ele>
        <time>2020-06-24T11:53:27.081Z</time>
      </trkpt>
      <trkpt lat="48.64922" lon="-2.3362">
        <ele>48</ele>
        <time>2020-06-24T11:53:28.081Z</time>
      </trkpt>
      <trkpt lat="48.64923" lon="-2.3362">
        <ele>48</ele>
        <time>2020-06-24T11:53:29.081Z</time>
      </trkpt>
      <trkpt lat="48.64925" lon="-2.3362">
        <ele>48</ele>
        <time>2020-06-24T11:53:30.081Z</time>
      </trkpt>
      <trkpt lat="48.64926" lon="-2.3362">
        <ele>48</ele>
        <time>2020-06-24T11:53:31.081Z</time>
      </trkpt>
      <trkpt lat="48.64928" lon="-2.3362">
        <ele>48</ele>
        <time>2020-06-24T11:53:32.081Z</time>
      </trkpt>
      <trkpt lat="48.64929" lon="-2.33621">
        <ele>48</ele>
        <time>2020-06-24T11:53:33.081Z</time>
      </trkpt>
      <trkpt lat="48.64931" lon="-2.33621">
        <ele>49</ele>
        <time>2020-06-24T11:53:34.081Z</time>
      </trkpt>
      <trkpt lat="48.64932" lon="-2.33621">
        <ele>49</ele>
        <time>2020-06-24T11:53:35.081Z</time>
      </trkpt>
      <trkpt lat="48.64933" lon="-2.33621">
        <ele>49</ele>
        <time>2020-06-24T11:53:36.081Z</time>
      </trkpt>
      <trkpt lat="48.64935" lon="-2.33622">
        <ele>49</ele>
        <time>2020-06-24T11:53:37.081Z</time>
      </trkpt>
      <trkpt lat="48.64936" lon="-2.33622">
        <ele>48</ele>
        <time>2020-06-24T11:53:38.081Z</time>
      </trkpt>
      <trkpt lat="48.64937" lon="-2.33623">
        <ele>48</ele>
        <time>2020-06-24T11:53:39.081Z</time>
      </trkpt>
      <trkpt lat="48.64938" lon="-2.33624">
        <ele>48</ele>
        <time>2020-06-24T11:53:40.081Z</time>
      </trkpt>
      <trkpt lat="48.64939" lon="-2.33625">
        <ele>48</ele>
        <time>2020-06-24T11:53:41.081Z</time>
      </trkpt>
      <trkpt lat="48.64941" lon="-2.33626">
        <ele>48</ele>
        <time>2020-06-24T11:53:42.081Z</time>
      </trkpt>
      <trkpt lat="48.64942" lon="-2.33627">
        <ele>48</ele>
        <time>2020-06-24T11:53:43.081Z</time>
      </trkpt>
      <trkpt lat="48.64943" lon="-2.33628">
        <ele>48</ele>
        <time>2020-06-24T11:53:44.081Z</time>
      </trkpt>
      <trkpt lat="48.64944" lon="-2.33629">
        <ele>48</ele>
        <time>2020-06-24T11:53:45.081Z</time>
      </trkpt>
      <trkpt lat="48.64945" lon="-2.33631">
        <ele>49</ele>
        <time>2020-06-24T11:53:46.081Z</time>
      </trkpt>
      <trkpt lat="48.64946" lon="-2.33632">
        <ele>48</ele>
        <time>2020-06-24T11:53:47.081Z</time>
      </trkpt>
      <trkpt lat="48.64947" lon="-2.33634">
        <ele>48</ele>
        <time>2020-06-24T11:53:48.081Z</time>
      </trkpt>
      <trkpt lat="48.64948" lon="-2.33635">
        <ele>48</ele>
        <time>2020-06-24T11:53:49.081Z</time>
      </trkpt>
      <trkpt lat="48.64949" lon="-2.33636">
        <ele>48</ele>
        <time>2020-06-24T11:53:50.081Z</time>
      </trkpt>
      <trkpt lat="48.6495" lon="-2.33637">
        <ele>49</ele>
        <time>2020-06-24T11:53:51.081Z</time>
      </trkpt>
      <trkpt lat="48.64951" lon="-2.33639">
        <ele>49</ele>
        <time>2020-06-24T11:53:52.081Z</time>
      </trkpt>
      <trkpt lat="48.64952" lon="-2.3364">
        <ele>49</ele>
        <time>2020-06-24T11:53:53.081Z</time>
      </trkpt>
      <trkpt lat="48.64953" lon="-2.33641">
        <ele>50</ele>
        <time>2020-06-24T11:53:54.081Z</time>
      </trkpt>
      <trkpt lat="48.64954" lon="-2.33642">
        <ele>50</ele>
        <time>2020-06-24T11:53:55.081Z</time>
      </trkpt>
      <trkpt lat="48.64955" lon="-2.33644">
        <ele>49</ele>
        <time>2020-06-24T11:53:56.081Z</time>
      </trkpt>
      <trkpt lat="48.64956" lon="-2.33645">
        <ele>49</ele>
        <time>2020-06-24T11:53:57.081Z</time>
      </trkpt>
      <trkpt lat="48.64957" lon="-2.33647">
        <ele>49</ele>
        <time>2020-06-24T11:53:58.081Z</time>
      </trkpt>
      <trkpt lat="48.64958" lon="-2.33648">
        <ele>49</ele>
        <time>2020-06-24T11:53:59.081Z</time>
      </trkpt>
      <trkpt lat="48.64959" lon="-2.3365">
        <ele>49</ele>
        <time>2020-06-24T11:54:00.081Z</time>
      </trkpt>
      <trkpt lat="48.6496" lon="-2.33651">
        <ele>48</ele>
        <time>2020-06-24T11:54:01.081Z</time>
      </trkpt>
      <trkpt lat="48.64961" lon="-2.33652">
        <ele>48</ele>
        <time>2020-06-24T11:54:02.081Z</time>
      </trkpt>
      <trkpt lat="48.64962" lon="-2.33654">
        <ele>48</ele>
        <time>2020-06-24T11:54:03.081Z</time>
      </trkpt>
      <trkpt lat="48.64963" lon="-2.33655">
        <ele>48</ele>
        <time>2020-06-24T11:54:04.081Z</time>
      </trkpt>
      <trkpt lat="48.64964" lon="-2.33656">
        <ele>48</ele>
        <time>2020-06-24T11:54:05.081Z</time>
      </trkpt>
      <trkpt lat="48.64965" lon="-2.33658">
        <ele>48</ele>
        <time>2020-06-24T11:54:06.081Z</time>
      </trkpt>
      <trkpt lat="48.64966" lon="-2.33659">
        <ele>48</ele>
        <time>2020-06-24T11:54:07.081Z</time>
      </trkpt>
      <trkpt lat="48.64967" lon="-2.33661">
        <ele>47</ele>
        <time>2020-06-24T11:54:08.081Z</time>
      </trkpt>
      <trkpt lat="48.64968" lon="-2.33663">
        <ele>47</ele>
        <time>2020-06-24T11:54:09.081Z</time>
      </trkpt>
      <trkpt lat="48.64969" lon="-2.33664">
        <ele>47</ele>
        <time>2020-06-24T11:54:10.081Z</time>
      </trkpt>
      <trkpt lat="48.6497" lon="-2.33666">
        <ele>47</ele>
        <time>2020-06-24T11:54:11.081Z</time>
      </trkpt>
      <trkpt lat="48.64971" lon="-2.33667">
        <ele>48</ele>
        <time>2020-06-24T11:54:12.081Z</time>
      </trkpt>
      <trkpt lat="48.64972" lon="-2.33668">
        <ele>47</ele>
        <time>2020-06-24T11:54:13.081Z</time>
      </trkpt>
      <trkpt lat="48.64973" lon="-2.3367">
        <ele>47</ele>
        <time>2020-06-24T11:54:14.081Z</time>
      </trkpt>
      <trkpt lat="48.64974" lon="-2.33671">
        <ele>47</ele>
        <time>2020-06-24T11:54:15.081Z</time>
      </trkpt>
      <trkpt lat="48.64975" lon="-2.33672">
        <ele>48</ele>
        <time>2020-06-24T11:54:16.081Z</time>
      </trkpt>
      <trkpt lat="48.64976" lon="-2.33674">
        <ele>47</ele>
        <time>2020-06-24T11:54:17.081Z</time>
      </trkpt>
      <trkpt lat="48.64977" lon="-2.33675">
        <ele>48</ele>
        <time>2020-06-24T11:54:18.081Z</time>
      </trkpt>
      <trkpt lat="48.64978" lon="-2.33677">
        <ele>47</ele>
        <time>2020-06-24T11:54:19.081Z</time>
      </trkpt>
      <trkpt lat="48.64979" lon="-2.33678">
        <ele>48</ele>
        <time>2020-06-24T11:54:20.081Z</time>
      </trkpt>
      <trkpt lat="48.6498" lon="-2.3368">
        <ele>48</ele>
        <time>2020-06-24T11:54:21.081Z</time>
      </trkpt>
      <trkpt lat="48.64981" lon="-2.33681">
        <ele>48</ele>
        <time>2020-06-24T11:54:22.081Z</time>
      </trkpt>
      <trkpt lat="48.64982" lon="-2.33682">
        <ele>48</ele>
        <time>2020-06-24T11:54:23.081Z</time>
      </trkpt>
      <trkpt lat="48.64984" lon="-2.33684">
        <ele>48</ele>
        <time>2020-06-24T11:54:24.081Z</time>
      </trkpt>
      <trkpt lat="48.64985" lon="-2.33685">
        <ele>48</ele>
        <time>2020-06-24T11:54:25.081Z</time>
      </trkpt>
      <trkpt lat="48.64986" lon="-2.33686">
        <ele>48</ele>
        <time>2020-06-24T11:54:26.081Z</time>
      </trkpt>
      <trkpt lat="48.64987" lon="-2.33687">
        <ele>48</ele>
        <time>2020-06-24T11:54:27.081Z</time>
      </trkpt>
      <trkpt lat="48.64988" lon="-2.33689">
        <ele>48</ele>
        <time>2020-06-24T11:54:28.081Z</time>
      </trkpt>
      <trkpt lat="48.64989" lon="-2.3369">
        <ele>48</ele>
        <time>2020-06-24T11:54:29.081Z</time>
      </trkpt>
      <trkpt lat="48.6499" lon="-2.33691">
        <ele>48</ele>
        <time>2020-06-24T11:54:30.081Z</time>
      </trkpt>
      <trkpt lat="48.64991" lon="-2.33692">
        <ele>48</ele>
        <time>2020-06-24T11:54:31.081Z</time>
      </trkpt>
      <trkpt lat="48.64992" lon="-2.33693">
        <ele>48</ele>
        <time>2020-06-24T11:54:32.081Z</time>
      </trkpt>
      <trkpt lat="48.64993" lon="-2.33695">
        <ele>48</ele>
        <time>2020-06-24T11:54:33.081Z</time>
      </trkpt>
      <trkpt lat="48.64994" lon="-2.33696">
        <ele>47</ele>
        <time>2020-06-24T11:54:34.081Z</time>
      </trkpt>
      <trkpt lat="48.64995" lon="-2.33697">
        <ele>48</ele>
        <time>2020-06-24T11:54:35.081Z</time>
      </trkpt>
      <trkpt lat="48.64997" lon="-2.33698">
        <ele>48</ele>
        <time>2020-06-24T11:54:36.081Z</time>
      </trkpt>
      <trkpt lat="48.64998" lon="-2.337">
        <ele>48</ele>
        <time>2020-06-24T11:54:37.081Z</time>
      </trkpt>
      <trkpt lat="48.64999" lon="-2.33701">
        <ele>48</ele>
        <time>2020-06-24T11:54:38.081Z</time>
      </trkpt>
      <trkpt lat="48.65" lon="-2.33703">
        <ele>48</ele>
        <time>2020-06-24T11:54:39.081Z</time>
      </trkpt>
      <trkpt lat="48.65001" lon="-2.33704">
        <ele>48</ele>
        <time>2020-06-24T11:54:40.081Z</time>
      </trkpt>
      <trkpt lat="48.65002" lon="-2.33705">
        <ele>48</ele>
        <time>2020-06-24T11:54:41.081Z</time>
      </trkpt>
      <trkpt lat="48.65003" lon="-2.33707">
        <ele>48</ele>
        <time>2020-06-24T11:54:42.081Z</time>
      </trkpt>
      <trkpt lat="48.65004" lon="-2.33709">
        <ele>48</ele>
        <time>2020-06-24T11:54:43.081Z</time>
      </trkpt>
      <trkpt lat="48.65005" lon="-2.33711">
        <ele>48</ele>
        <time>2020-06-24T11:54:44.081Z</time>
      </trkpt>
      <trkpt lat="48.65005" lon="-2.33712">
        <ele>48</ele>
        <time>2020-06-24T11:54:45.081Z</time>
      </trkpt>
      <trkpt lat="48.65006" lon="-2.33714">
        <ele>48</ele>
        <time>2020-06-24T11:54:46.081Z</time>
      </trkpt>
      <trkpt lat="48.65007" lon="-2.33716">
        <ele>48</ele>
        <time>2020-06-24T11:54:47.081Z</time>
      </trkpt>
      <trkpt lat="48.65007" lon="-2.33718">
        <ele>48</ele>
        <time>2020-06-24T11:54:48.081Z</time>
      </trkpt>
      <trkpt lat="48.65008" lon="-2.3372">
        <ele>48</ele>
        <time>2020-06-24T11:54:49.081Z</time>
      </trkpt>
      <trkpt lat="48.65008" lon="-2.33722">
        <ele>47</ele>
        <time>2020-06-24T11:54:50.081Z</time>
      </trkpt>
      <trkpt lat="48.65009" lon="-2.33724">
        <ele>48</ele>
        <time>2020-06-24T11:54:51.081Z</time>
      </trkpt>
      <trkpt lat="48.65009" lon="-2.33726">
        <ele>48</ele>
        <time>2020-06-24T11:54:52.081Z</time>
      </trkpt>
      <trkpt lat="48.65009" lon="-2.33729">
        <ele>48</ele>
        <time>2020-06-24T11:54:53.081Z</time>
      </trkpt>
      <trkpt lat="48.65009" lon="-2.33731">
        <ele>47</ele>
        <time>2020-06-24T11:54:54.081Z</time>
      </trkpt>
      <trkpt lat="48.65009" lon="-2.33732">
        <ele>47</ele>
        <time>2020-06-24T11:54:55.081Z</time>
      </trkpt>
      <trkpt lat="48.65009" lon="-2.33734">
        <ele>47</ele>
        <time>2020-06-24T11:54:56.081Z</time>
      </trkpt>
      <trkpt lat="48.65009" lon="-2.33737">
        <ele>47</ele>
        <time>2020-06-24T11:54:57.081Z</time>
      </trkpt>
      <trkpt lat="48.65009" lon="-2.33739">
        <ele>47</ele>
        <time>2020-06-24T11:54:58.081Z</time>
      </trkpt>
      <trkpt lat="48.65009" lon="-2.33741">
        <ele>47</ele>
        <time>2020-06-24T11:54:59.081Z</time>
      </trkpt>
      <trkpt lat="48.65009" lon="-2.33743">
        <ele>47</ele>
        <time>2020-06-24T11:55:00.081Z</time>
      </trkpt>
      <trkpt lat="48.65009" lon="-2.33745">
        <ele>47</ele>
        <time>2020-06-24T11:55:01.081Z</time>
      </trkpt>
      <trkpt lat="48.65008" lon="-2.33748">
        <ele>47</ele>
        <time>2020-06-24T11:55:02.081Z</time>
      </trkpt>
      <trkpt lat="48.65008" lon="-2.3375">
        <ele>47</ele>
        <time>2020-06-24T11:55:03.081Z</time>
      </trkpt>
      <trkpt lat="48.65008" lon="-2.33752">
        <ele>47</ele>
        <time>2020-06-24T11:55:04.081Z</time>
      </trkpt>
      <trkpt lat="48.65008" lon="-2.33754">
        <ele>47</ele>
        <time>2020-06-24T11:55:05.081Z</time>
      </trkpt>
      <trkpt lat="48.65008" lon="-2.33756">
        <ele>47</ele>
        <time>2020-06-24T11:55:06.081Z</time>
      </trkpt>
      <trkpt lat="48.65008" lon="-2.33758">
        <ele>47</ele>
        <time>2020-06-24T11:55:07.081Z</time>
      </trkpt>
      <trkpt lat="48.65008" lon="-2.3376">
        <ele>47</ele>
        <time>2020-06-24T11:55:08.081Z</time>
      </trkpt>
      <trkpt lat="48.65008" lon="-2.33762">
        <ele>47</ele>
        <time>2020-06-24T11:55:09.081Z</time>
      </trkpt>
      <trkpt lat="48.65008" lon="-2.33764">
        <ele>47</ele>
        <time>2020-06-24T11:55:10.081Z</time>
      </trkpt>
      <trkpt lat="48.65007" lon="-2.33766">
        <ele>47</ele>
        <time>2020-06-24T11:55:11.081Z</time>
      </trkpt>
      <trkpt lat="48.65007" lon="-2.33768">
        <ele>47</ele>
        <time>2020-06-24T11:55:12.081Z</time>
      </trkpt>
      <trkpt lat="48.65007" lon="-2.33771">
        <ele>47</ele>
        <time>2020-06-24T11:55:13.081Z</time>
      </trkpt>
      <trkpt lat="48.65007" lon="-2.33773">
        <ele>47</ele>
        <time>2020-06-24T11:55:14.081Z</time>
      </trkpt>
      <trkpt lat="48.65006" lon="-2.33775">
        <ele>47</ele>
        <time>2020-06-24T11:55:15.081Z</time>
      </trkpt>
      <trkpt lat="48.65006" lon="-2.33777">
        <ele>47</ele>
        <time>2020-06-24T11:55:16.081Z</time>
      </trkpt>
      <trkpt lat="48.65006" lon="-2.33779">
        <ele>48</ele>
        <time>2020-06-24T11:55:17.081Z</time>
      </trkpt>
      <trkpt lat="48.65005" lon="-2.33781">
        <ele>48</ele>
        <time>2020-06-24T11:55:18.081Z</time>
      </trkpt>
      <trkpt lat="48.65005" lon="-2.33783">
        <ele>47</ele>
        <time>2020-06-24T11:55:19.081Z</time>
      </trkpt>
      <trkpt lat="48.65005" lon="-2.33785">
        <ele>47</ele>
        <time>2020-06-24T11:55:20.081Z</time>
      </trkpt>
      <trkpt lat="48.65005" lon="-2.33787">
        <ele>47</ele>
        <time>2020-06-24T11:55:21.081Z</time>
      </trkpt>
      <trkpt lat="48.65004" lon="-2.33789">
        <ele>48</ele>
        <time>2020-06-24T11:55:22.081Z</time>
      </trkpt>
      <trkpt lat="48.65004" lon="-2.33791">
        <ele>47</ele>
        <time>2020-06-24T11:55:23.081Z</time>
      </trkpt>
      <trkpt lat="48.65004" lon="-2.33793">
        <ele>48</ele>
        <time>2020-06-24T11:55:24.081Z</time>
      </trkpt>
      <trkpt lat="48.65003" lon="-2.33795">
        <ele>48</ele>
        <time>2020-06-24T11:55:25.081Z</time>
      </trkpt>
      <trkpt lat="48.65003" lon="-2.33797">
        <ele>47</ele>
        <time>2020-06-24T11:55:26.081Z</time>
      </trkpt>
      <trkpt lat="48.65003" lon="-2.33799">
        <ele>47</ele>
        <time>2020-06-24T11:55:27.081Z</time>
      </trkpt>
      <trkpt lat="48.65002" lon="-2.33801">
        <ele>47</ele>
        <time>2020-06-24T11:55:28.081Z</time>
      </trkpt>
      <trkpt lat="48.65002" lon="-2.33803">
        <ele>47</ele>
        <time>2020-06-24T11:55:29.081Z</time>
      </trkpt>
      <trkpt lat="48.65001" lon="-2.33805">
        <ele>47</ele>
        <time>2020-06-24T11:55:30.081Z</time>
      </trkpt>
      <trkpt lat="48.65001" lon="-2.33806">
        <ele>46</ele>
        <time>2020-06-24T11:55:31.081Z</time>
      </trkpt>
      <trkpt lat="48.65" lon="-2.33808">
        <ele>46</ele>
        <time>2020-06-24T11:55:32.081Z</time>
      </trkpt>
      <trkpt lat="48.65" lon="-2.3381">
        <ele>46</ele>
        <time>2020-06-24T11:55:33.081Z</time>
      </trkpt>
      <trkpt lat="48.64999" lon="-2.33812">
        <ele>46</ele>
        <time>2020-06-24T11:55:34.081Z</time>
      </trkpt>
      <trkpt lat="48.64998" lon="-2.33814">
        <ele>45</ele>
        <time>2020-06-24T11:55:35.081Z</time>
      </trkpt>
      <trkpt lat="48.64998" lon="-2.33816">
        <ele>45</ele>
        <time>2020-06-24T11:55:36.081Z</time>
      </trkpt>
      <trkpt lat="48.64997" lon="-2.33818">
        <ele>45</ele>
        <time>2020-06-24T11:55:37.081Z</time>
      </trkpt>
      <trkpt lat="48.64997" lon="-2.3382">
        <ele>45</ele>
        <time>2020-06-24T11:55:38.081Z</time>
      </trkpt>
      <trkpt lat="48.64996" lon="-2.33822">
        <ele>45</ele>
        <time>2020-06-24T11:55:39.081Z</time>
      </trkpt>
      <trkpt lat="48.64996" lon="-2.33824">
        <ele>45</ele>
        <time>2020-06-24T11:55:40.081Z</time>
      </trkpt>
      <trkpt lat="48.64995" lon="-2.33827">
        <ele>45</ele>
        <time>2020-06-24T11:55:41.081Z</time>
      </trkpt>
      <trkpt lat="48.64994" lon="-2.33829">
        <ele>45</ele>
        <time>2020-06-24T11:55:42.081Z</time>
      </trkpt>
      <trkpt lat="48.64994" lon="-2.33831">
        <ele>45</ele>
        <time>2020-06-24T11:55:43.081Z</time>
      </trkpt>
      <trkpt lat="48.64993" lon="-2.33833">
        <ele>45</ele>
        <time>2020-06-24T11:55:44.081Z</time>
      </trkpt>
      <trkpt lat="48.64993" lon="-2.33836">
        <ele>45</ele>
        <time>2020-06-24T11:55:45.081Z</time>
      </trkpt>
      <trkpt lat="48.64992" lon="-2.33838">
        <ele>45</ele>
        <time>2020-06-24T11:55:46.081Z</time>
      </trkpt>
      <trkpt lat="48.64992" lon="-2.3384">
        <ele>45</ele>
        <time>2020-06-24T11:55:47.081Z</time>
      </trkpt>
      <trkpt lat="48.64991" lon="-2.33842">
        <ele>45</ele>
        <time>2020-06-24T11:55:48.081Z</time>
      </trkpt>
      <trkpt lat="48.64991" lon="-2.33844">
        <ele>45</ele>
        <time>2020-06-24T11:55:49.081Z</time>
      </trkpt>
      <trkpt lat="48.64991" lon="-2.33846">
        <ele>45</ele>
        <time>2020-06-24T11:55:50.081Z</time>
      </trkpt>
      <trkpt lat="48.6499" lon="-2.33848">
        <ele>45</ele>
        <time>2020-06-24T11:55:51.081Z</time>
      </trkpt>
      <trkpt lat="48.6499" lon="-2.3385">
        <ele>45</ele>
        <time>2020-06-24T11:55:52.081Z</time>
      </trkpt>
      <trkpt lat="48.6499" lon="-2.33852">
        <ele>45</ele>
        <time>2020-06-24T11:55:53.081Z</time>
      </trkpt>
      <trkpt lat="48.64989" lon="-2.33854">
        <ele>45</ele>
        <time>2020-06-24T11:55:54.081Z</time>
      </trkpt>
      <trkpt lat="48.64989" lon="-2.33856">
        <ele>44</ele>
        <time>2020-06-24T11:55:55.081Z</time>
      </trkpt>
      <trkpt lat="48.64988" lon="-2.33858">
        <ele>44</ele>
        <time>2020-06-24T11:55:56.081Z</time>
      </trkpt>
      <trkpt lat="48.64988" lon="-2.3386">
        <ele>44</ele>
        <time>2020-06-24T11:55:57.081Z</time>
      </trkpt>
      <trkpt lat="48.64987" lon="-2.33862">
        <ele>44</ele>
        <time>2020-06-24T11:55:58.081Z</time>
      </trkpt>
      <trkpt lat="48.64987" lon="-2.33864">
        <ele>44</ele>
        <time>2020-06-24T11:55:59.081Z</time>
      </trkpt>
      <trkpt lat="48.64986" lon="-2.33866">
        <ele>44</ele>
        <time>2020-06-24T11:56:00.081Z</time>
      </trkpt>
      <trkpt lat="48.64986" lon="-2.33868">
        <ele>44</ele>
        <time>2020-06-24T11:56:01.081Z</time>
      </trkpt>
      <trkpt lat="48.64985" lon="-2.3387">
        <ele>44</ele>
        <time>2020-06-24T11:56:02.081Z</time>
      </trkpt>
      <trkpt lat="48.64985" lon="-2.33872">
        <ele>44</ele>
        <time>2020-06-24T11:56:03.081Z</time>
      </trkpt>
      <trkpt lat="48.64985" lon="-2.33874">
        <ele>44</ele>
        <time>2020-06-24T11:56:04.081Z</time>
      </trkpt>
      <trkpt lat="48.64984" lon="-2.33876">
        <ele>44</ele>
        <time>2020-06-24T11:56:05.081Z</time>
      </trkpt>
      <trkpt lat="48.64984" lon="-2.33878">
        <ele>44</ele>
        <time>2020-06-24T11:56:06.081Z</time>
      </trkpt>
      <trkpt lat="48.64984" lon="-2.3388">
        <ele>44</ele>
        <time>2020-06-24T11:56:07.081Z</time>
      </trkpt>
      <trkpt lat="48.64984" lon="-2.33882">
        <ele>43</ele>
        <time>2020-06-24T11:56:08.081Z</time>
      </trkpt>
      <trkpt lat="48.64983" lon="-2.33884">
        <ele>44</ele>
        <time>2020-06-24T11:56:09.081Z</time>
      </trkpt>
      <trkpt lat="48.64983" lon="-2.33886">
        <ele>44</ele>
        <time>2020-06-24T11:56:10.081Z</time>
      </trkpt>
      <trkpt lat="48.64983" lon="-2.33889">
        <ele>44</ele>
        <time>2020-06-24T11:56:11.081Z</time>
      </trkpt>
      <trkpt lat="48.64982" lon="-2.33891">
        <ele>44</ele>
        <time>2020-06-24T11:56:12.081Z</time>
      </trkpt>
      <trkpt lat="48.64982" lon="-2.33893">
        <ele>44</ele>
        <time>2020-06-24T11:56:13.081Z</time>
      </trkpt>
      <trkpt lat="48.64981" lon="-2.33895">
        <ele>44</ele>
        <time>2020-06-24T11:56:14.081Z</time>
      </trkpt>
      <trkpt lat="48.64981" lon="-2.33897">
        <ele>43</ele>
        <time>2020-06-24T11:56:15.081Z</time>
      </trkpt>
      <trkpt lat="48.6498" lon="-2.33899">
        <ele>43</ele>
        <time>2020-06-24T11:56:16.081Z</time>
      </trkpt>
      <trkpt lat="48.6498" lon="-2.33901">
        <ele>43</ele>
        <time>2020-06-24T11:56:17.081Z</time>
      </trkpt>
      <trkpt lat="48.6498" lon="-2.33903">
        <ele>43</ele>
        <time>2020-06-24T11:56:18.081Z</time>
      </trkpt>
      <trkpt lat="48.64979" lon="-2.33905">
        <ele>43</ele>
        <time>2020-06-24T11:56:19.081Z</time>
      </trkpt>
      <trkpt lat="48.64978" lon="-2.33907">
        <ele>43</ele>
        <time>2020-06-24T11:56:20.081Z</time>
      </trkpt>
      <trkpt lat="48.64978" lon="-2.33909">
        <ele>43</ele>
        <time>2020-06-24T11:56:21.081Z</time>
      </trkpt>
      <trkpt lat="48.64977" lon="-2.33911">
        <ele>43</ele>
        <time>2020-06-24T11:56:22.081Z</time>
      </trkpt>
      <trkpt lat="48.64976" lon="-2.33912">
        <ele>43</ele>
        <time>2020-06-24T11:56:23.081Z</time>
      </trkpt>
      <trkpt lat="48.64976" lon="-2.33914">
        <ele>42</ele>
        <time>2020-06-24T11:56:24.081Z</time>
      </trkpt>
      <trkpt lat="48.64976" lon="-2.33916">
        <ele>43</ele>
        <time>2020-06-24T11:56:25.081Z</time>
      </trkpt>
      <trkpt lat="48.64975" lon="-2.33918">
        <ele>44</ele>
        <time>2020-06-24T11:56:26.081Z</time>
      </trkpt>
      <trkpt lat="48.64975" lon="-2.3392">
        <ele>43</ele>
        <time>2020-06-24T11:56:27.081Z</time>
      </trkpt>
      <trkpt lat="48.64975" lon="-2.33922">
        <ele>43</ele>
        <time>2020-06-24T11:56:28.081Z</time>
      </trkpt>
      <trkpt lat="48.64975" lon="-2.33924">
        <ele>43</ele>
        <time>2020-06-24T11:56:29.081Z</time>
      </trkpt>
      <trkpt lat="48.64975" lon="-2.33926">
        <ele>43</ele>
        <time>2020-06-24T11:56:30.081Z</time>
      </trkpt>
      <trkpt lat="48.64975" lon="-2.33928">
        <ele>44</ele>
        <time>2020-06-24T11:56:31.081Z</time>
      </trkpt>
      <trkpt lat="48.64975" lon="-2.3393">
        <ele>44</ele>
        <time>2020-06-24T11:56:32.081Z</time>
      </trkpt>
      <trkpt lat="48.64974" lon="-2.33933">
        <ele>44</ele>
        <time>2020-06-24T11:56:33.081Z</time>
      </trkpt>
      <trkpt lat="48.64974" lon="-2.33934">
        <ele>44</ele>
        <time>2020-06-24T11:56:34.081Z</time>
      </trkpt>
      <trkpt lat="48.64973" lon="-2.33936">
        <ele>44</ele>
        <time>2020-06-24T11:56:35.081Z</time>
      </trkpt>
      <trkpt lat="48.64972" lon="-2.33938">
        <ele>44</ele>
        <time>2020-06-24T11:56:36.081Z</time>
      </trkpt>
      <trkpt lat="48.64971" lon="-2.33939">
        <ele>44</ele>
        <time>2020-06-24T11:56:37.081Z</time>
      </trkpt>
      <trkpt lat="48.6497" lon="-2.33941">
        <ele>44</ele>
        <time>2020-06-24T11:56:38.081Z</time>
      </trkpt>
      <trkpt lat="48.64969" lon="-2.33942">
        <ele>44</ele>
        <time>2020-06-24T11:56:39.081Z</time>
      </trkpt>
      <trkpt lat="48.64968" lon="-2.33943">
        <ele>44</ele>
        <time>2020-06-24T11:56:40.081Z</time>
      </trkpt>
      <trkpt lat="48.64967" lon="-2.33944">
        <ele>44</ele>
        <time>2020-06-24T11:56:41.081Z</time>
      </trkpt>
      <trkpt lat="48.64966" lon="-2.33945">
        <ele>43</ele>
        <time>2020-06-24T11:56:42.081Z</time>
      </trkpt>
      <trkpt lat="48.64965" lon="-2.33946">
        <ele>44</ele>
        <time>2020-06-24T11:56:43.081Z</time>
      </trkpt>
      <trkpt lat="48.64964" lon="-2.33947">
        <ele>43</ele>
        <time>2020-06-24T11:56:44.081Z</time>
      </trkpt>
      <trkpt lat="48.64963" lon="-2.33949">
        <ele>43</ele>
        <time>2020-06-24T11:56:45.081Z</time>
      </trkpt>
      <trkpt lat="48.64962" lon="-2.3395">
        <ele>44</ele>
        <time>2020-06-24T11:56:46.081Z</time>
      </trkpt>
      <trkpt lat="48.64961" lon="-2.33951">
        <ele>44</ele>
        <time>2020-06-24T11:56:47.081Z</time>
      </trkpt>
      <trkpt lat="48.6496" lon="-2.33952">
        <ele>43</ele>
        <time>2020-06-24T11:56:48.081Z</time>
      </trkpt>
      <trkpt lat="48.64959" lon="-2.33953">
        <ele>43</ele>
        <time>2020-06-24T11:56:49.081Z</time>
      </trkpt>
      <trkpt lat="48.64958" lon="-2.33954">
        <ele>43</ele>
        <time>2020-06-24T11:56:50.081Z</time>
      </trkpt>
      <trkpt lat="48.64957" lon="-2.33955">
        <ele>43</ele>
        <time>2020-06-24T11:56:51.081Z</time>
      </trkpt>
      <trkpt lat="48.64956" lon="-2.33956">
        <ele>43</ele>
        <time>2020-06-24T11:56:52.081Z</time>
      </trkpt>
      <trkpt lat="48.64955" lon="-2.33958">
        <ele>43</ele>
        <time>2020-06-24T11:56:53.081Z</time>
      </trkpt>
      <trkpt lat="48.64954" lon="-2.33959">
        <ele>44</ele>
        <time>2020-06-24T11:56:54.081Z</time>
      </trkpt>
      <trkpt lat="48.64953" lon="-2.33961">
        <ele>44</ele>
        <time>2020-06-24T11:56:55.081Z</time>
      </trkpt>
      <trkpt lat="48.64952" lon="-2.33963">
        <ele>44</ele>
        <time>2020-06-24T11:56:56.081Z</time>
      </trkpt>
      <trkpt lat="48.64952" lon="-2.33965">
        <ele>43</ele>
        <time>2020-06-24T11:56:57.081Z</time>
      </trkpt>
      <trkpt lat="48.64951" lon="-2.33967">
        <ele>43</ele>
        <time>2020-06-24T11:56:58.081Z</time>
      </trkpt>
      <trkpt lat="48.64951" lon="-2.33969">
        <ele>42</ele>
        <time>2020-06-24T11:56:59.081Z</time>
      </trkpt>
      <trkpt lat="48.6495" lon="-2.3397">
        <ele>43</ele>
        <time>2020-06-24T11:57:00.081Z</time>
      </trkpt>
      <trkpt lat="48.6495" lon="-2.33972">
        <ele>43</ele>
        <time>2020-06-24T11:57:01.081Z</time>
      </trkpt>
      <trkpt lat="48.6495" lon="-2.33974">
        <ele>43</ele>
        <time>2020-06-24T11:57:02.081Z</time>
      </trkpt>
      <trkpt lat="48.64951" lon="-2.33976">
        <ele>43</ele>
        <time>2020-06-24T11:57:03.081Z</time>
      </trkpt>
      <trkpt lat="48.64951" lon="-2.33978">
        <ele>42</ele>
        <time>2020-06-24T11:57:04.081Z</time>
      </trkpt>
      <trkpt lat="48.64952" lon="-2.33979">
        <ele>42</ele>
        <time>2020-06-24T11:57:05.081Z</time>
      </trkpt>
      <trkpt lat="48.64952" lon="-2.33981">
        <ele>42</ele>
        <time>2020-06-24T11:57:06.081Z</time>
      </trkpt>
      <trkpt lat="48.64953" lon="-2.33983">
        <ele>42</ele>
        <time>2020-06-24T11:57:07.081Z</time>
      </trkpt>
      <trkpt lat="48.64953" lon="-2.33984">
        <ele>42</ele>
        <time>2020-06-24T11:57:08.081Z</time>
      </trkpt>
      <trkpt lat="48.64954" lon="-2.33986">
        <ele>42</ele>
        <time>2020-06-24T11:57:09.081Z</time>
      </trkpt>
      <trkpt lat="48.64955" lon="-2.33987">
        <ele>42</ele>
        <time>2020-06-24T11:57:10.081Z</time>
      </trkpt>
      <trkpt lat="48.64956" lon="-2.33988">
        <ele>42</ele>
        <time>2020-06-24T11:57:11.081Z</time>
      </trkpt>
      <trkpt lat="48.64957" lon="-2.33989">
        <ele>42</ele>
        <time>2020-06-24T11:57:12.081Z</time>
      </trkpt>
      <trkpt lat="48.64958" lon="-2.33991">
        <ele>41</ele>
        <time>2020-06-24T11:57:13.081Z</time>
      </trkpt>
      <trkpt lat="48.64959" lon="-2.33992">
        <ele>41</ele>
        <time>2020-06-24T11:57:14.081Z</time>
      </trkpt>
      <trkpt lat="48.6496" lon="-2.33993">
        <ele>41</ele>
        <time>2020-06-24T11:57:15.081Z</time>
      </trkpt>
      <trkpt lat="48.64961" lon="-2.33994">
        <ele>41</ele>
        <time>2020-06-24T11:57:16.081Z</time>
      </trkpt>
      <trkpt lat="48.64962" lon="-2.33995">
        <ele>41</ele>
        <time>2020-06-24T11:57:17.081Z</time>
      </trkpt>
      <trkpt lat="48.64963" lon="-2.33996">
        <ele>40</ele>
        <time>2020-06-24T11:57:18.081Z</time>
      </trkpt>
      <trkpt lat="48.64964" lon="-2.33998">
        <ele>41</ele>
        <time>2020-06-24T11:57:19.081Z</time>
      </trkpt>
      <trkpt lat="48.64966" lon="-2.33999">
        <ele>41</ele>
        <time>2020-06-24T11:57:20.081Z</time>
      </trkpt>
      <trkpt lat="48.64967" lon="-2.34">
        <ele>41</ele>
        <time>2020-06-24T11:57:21.081Z</time>
      </trkpt>
      <trkpt lat="48.64968" lon="-2.34001">
        <ele>41</ele>
        <time>2020-06-24T11:57:22.081Z</time>
      </trkpt>
      <trkpt lat="48.64969" lon="-2.34003">
        <ele>41</ele>
        <time>2020-06-24T11:57:23.081Z</time>
      </trkpt>
      <trkpt lat="48.6497" lon="-2.34004">
        <ele>41</ele>
        <time>2020-06-24T11:57:24.081Z</time>
      </trkpt>
      <trkpt lat="48.64972" lon="-2.34005">
        <ele>42</ele>
        <time>2020-06-24T11:57:25.081Z</time>
      </trkpt>
      <trkpt lat="48.64973" lon="-2.34007">
        <ele>41</ele>
        <time>2020-06-24T11:57:26.081Z</time>
      </trkpt>
      <trkpt lat="48.64974" lon="-2.34008">
        <ele>41</ele>
        <time>2020-06-24T11:57:27.081Z</time>
      </trkpt>
      <trkpt lat="48.64975" lon="-2.34009">
        <ele>41</ele>
        <time>2020-06-24T11:57:28.081Z</time>
      </trkpt>
      <trkpt lat="48.64976" lon="-2.3401">
        <ele>41</ele>
        <time>2020-06-24T11:57:29.081Z</time>
      </trkpt>
      <trkpt lat="48.64978" lon="-2.34011">
        <ele>41</ele>
        <time>2020-06-24T11:57:30.081Z</time>
      </trkpt>
      <trkpt lat="48.64979" lon="-2.34013">
        <ele>41</ele>
        <time>2020-06-24T11:57:31.081Z</time>
      </trkpt>
      <trkpt lat="48.6498" lon="-2.34014">
        <ele>42</ele>
        <time>2020-06-24T11:57:32.081Z</time>
      </trkpt>
      <trkpt lat="48.64981" lon="-2.34015">
        <ele>42</ele>
        <time>2020-06-24T11:57:33.081Z</time>
      </trkpt>
      <trkpt lat="48.64982" lon="-2.34016">
        <ele>42</ele>
        <time>2020-06-24T11:57:34.081Z</time>
      </trkpt>
      <trkpt lat="48.64983" lon="-2.34018">
        <ele>42</ele>
        <time>2020-06-24T11:57:35.081Z</time>
      </trkpt>
      <trkpt lat="48.64985" lon="-2.34019">
        <ele>42</ele>
        <time>2020-06-24T11:57:36.081Z</time>
      </trkpt>
      <trkpt lat="48.64986" lon="-2.3402">
        <ele>42</ele>
        <time>2020-06-24T11:57:37.081Z</time>
      </trkpt>
      <trkpt lat="48.64987" lon="-2.34021">
        <ele>42</ele>
        <time>2020-06-24T11:57:38.081Z</time>
      </trkpt>
      <trkpt lat="48.64988" lon="-2.34023">
        <ele>42</ele>
        <time>2020-06-24T11:57:39.081Z</time>
      </trkpt>
      <trkpt lat="48.64989" lon="-2.34024">
        <ele>42</ele>
        <time>2020-06-24T11:57:40.081Z</time>
      </trkpt>
      <trkpt lat="48.6499" lon="-2.34025">
        <ele>42</ele>
        <time>2020-06-24T11:57:41.081Z</time>
      </trkpt>
      <trkpt lat="48.64992" lon="-2.34026">
        <ele>42</ele>
        <time>2020-06-24T11:57:42.081Z</time>
      </trkpt>
      <trkpt lat="48.64993" lon="-2.34027">
        <ele>42</ele>
        <time>2020-06-24T11:57:43.081Z</time>
      </trkpt>
      <trkpt lat="48.64994" lon="-2.34029">
        <ele>42</ele>
        <time>2020-06-24T11:57:44.081Z</time>
      </trkpt>
      <trkpt lat="48.64995" lon="-2.3403">
        <ele>42</ele>
        <time>2020-06-24T11:57:45.081Z</time>
      </trkpt>
      <trkpt lat="48.64996" lon="-2.34031">
        <ele>42</ele>
        <time>2020-06-24T11:57:46.081Z</time>
      </trkpt>
      <trkpt lat="48.64998" lon="-2.34032">
        <ele>42</ele>
        <time>2020-06-24T11:57:47.081Z</time>
      </trkpt>
      <trkpt lat="48.64999" lon="-2.34033">
        <ele>42</ele>
        <time>2020-06-24T11:57:48.081Z</time>
      </trkpt>
      <trkpt lat="48.65" lon="-2.34035">
        <ele>42</ele>
        <time>2020-06-24T11:57:49.081Z</time>
      </trkpt>
      <trkpt lat="48.65001" lon="-2.34036">
        <ele>42</ele>
        <time>2020-06-24T11:57:50.081Z</time>
      </trkpt>
      <trkpt lat="48.65002" lon="-2.34037">
        <ele>42</ele>
        <time>2020-06-24T11:57:51.081Z</time>
      </trkpt>
      <trkpt lat="48.65003" lon="-2.34038">
        <ele>42</ele>
        <time>2020-06-24T11:57:52.081Z</time>
      </trkpt>
      <trkpt lat="48.65004" lon="-2.34039">
        <ele>42</ele>
        <time>2020-06-24T11:57:53.081Z</time>
      </trkpt>
      <trkpt lat="48.65005" lon="-2.3404">
        <ele>42</ele>
        <time>2020-06-24T11:57:54.081Z</time>
      </trkpt>
      <trkpt lat="48.65007" lon="-2.34042">
        <ele>42</ele>
        <time>2020-06-24T11:57:55.081Z</time>
      </trkpt>
      <trkpt lat="48.65008" lon="-2.34043">
        <ele>42</ele>
        <time>2020-06-24T11:57:56.081Z</time>
      </trkpt>
      <trkpt lat="48.65009" lon="-2.34044">
        <ele>42</ele>
        <time>2020-06-24T11:57:57.081Z</time>
      </trkpt>
      <trkpt lat="48.6501" lon="-2.34045">
        <ele>42</ele>
        <time>2020-06-24T11:57:58.081Z</time>
      </trkpt>
      <trkpt lat="48.65011" lon="-2.34047">
        <ele>42</ele>
        <time>2020-06-24T11:57:59.081Z</time>
      </trkpt>
      <trkpt lat="48.65012" lon="-2.34048">
        <ele>42</ele>
        <time>2020-06-24T11:58:00.081Z</time>
      </trkpt>
      <trkpt lat="48.65013" lon="-2.34049">
        <ele>43</ele>
        <time>2020-06-24T11:58:01.081Z</time>
      </trkpt>
      <trkpt lat="48.65014" lon="-2.3405">
        <ele>43</ele>
        <time>2020-06-24T11:58:02.081Z</time>
      </trkpt>
      <trkpt lat="48.65015" lon="-2.34052">
        <ele>42</ele>
        <time>2020-06-24T11:58:03.081Z</time>
      </trkpt>
      <trkpt lat="48.65017" lon="-2.34053">
        <ele>43</ele>
        <time>2020-06-24T11:58:04.081Z</time>
      </trkpt>
      <trkpt lat="48.65018" lon="-2.34054">
        <ele>42</ele>
        <time>2020-06-24T11:58:05.081Z</time>
      </trkpt>
      <trkpt lat="48.65019" lon="-2.34055">
        <ele>42</ele>
        <time>2020-06-24T11:58:06.081Z</time>
      </trkpt>
      <trkpt lat="48.6502" lon="-2.34056">
        <ele>42</ele>
        <time>2020-06-24T11:58:07.081Z</time>
      </trkpt>
      <trkpt lat="48.65021" lon="-2.34058">
        <ele>42</ele>
        <time>2020-06-24T11:58:08.081Z</time>
      </trkpt>
      <trkpt lat="48.65022" lon="-2.34059">
        <ele>42</ele>
        <time>2020-06-24T11:58:09.081Z</time>
      </trkpt>
      <trkpt lat="48.65024" lon="-2.3406">
        <ele>42</ele>
        <time>2020-06-24T11:58:10.081Z</time>
      </trkpt>
      <trkpt lat="48.65025" lon="-2.34061">
        <ele>42</ele>
        <time>2020-06-24T11:58:11.081Z</time>
      </trkpt>
      <trkpt lat="48.65026" lon="-2.34062">
        <ele>42</ele>
        <time>2020-06-24T11:58:12.081Z</time>
      </trkpt>
      <trkpt lat="48.65027" lon="-2.34064">
        <ele>42</ele>
        <time>2020-06-24T11:58:13.081Z</time>
      </trkpt>
      <trkpt lat="48.65028" lon="-2.34065">
        <ele>42</ele>
        <time>2020-06-24T11:58:14.081Z</time>
      </trkpt>
      <trkpt lat="48.65029" lon="-2.34066">
        <ele>42</ele>
        <time>2020-06-24T11:58:15.081Z</time>
      </trkpt>
      <trkpt lat="48.6503" lon="-2.34067">
        <ele>42</ele>
        <time>2020-06-24T11:58:16.081Z</time>
      </trkpt>
      <trkpt lat="48.65032" lon="-2.34068">
        <ele>42</ele>
        <time>2020-06-24T11:58:17.081Z</time>
      </trkpt>
      <trkpt lat="48.65033" lon="-2.3407">
        <ele>42</ele>
        <time>2020-06-24T11:58:18.081Z</time>
      </trkpt>
      <trkpt lat="48.65034" lon="-2.34071">
        <ele>42</ele>
        <time>2020-06-24T11:58:19.081Z</time>
      </trkpt>
      <trkpt lat="48.65035" lon="-2.34072">
        <ele>42</ele>
        <time>2020-06-24T11:58:20.081Z</time>
      </trkpt>
      <trkpt lat="48.65036" lon="-2.34074">
        <ele>42</ele>
        <time>2020-06-24T11:58:21.081Z</time>
      </trkpt>
      <trkpt lat="48.65037" lon="-2.34075">
        <ele>42</ele>
        <time>2020-06-24T11:58:22.081Z</time>
      </trkpt>
      <trkpt lat="48.65038" lon="-2.34077">
        <ele>42</ele>
        <time>2020-06-24T11:58:23.081Z</time>
      </trkpt>
      <trkpt lat="48.65039" lon="-2.34079">
        <ele>42</ele>
        <time>2020-06-24T11:58:24.081Z</time>
      </trkpt>
      <trkpt lat="48.65039" lon="-2.34081">
        <ele>41</ele>
        <time>2020-06-24T11:58:25.081Z</time>
      </trkpt>
      <trkpt lat="48.65039" lon="-2.34083">
        <ele>42</ele>
        <time>2020-06-24T11:58:26.081Z</time>
      </trkpt>
      <trkpt lat="48.65039" lon="-2.34086">
        <ele>42</ele>
        <time>2020-06-24T11:58:27.081Z</time>
      </trkpt>
      <trkpt lat="48.65039" lon="-2.34088">
        <ele>42</ele>
        <time>2020-06-24T11:58:28.081Z</time>
      </trkpt>
      <trkpt lat="48.65039" lon="-2.3409">
        <ele>42</ele>
        <time>2020-06-24T11:58:29.081Z</time>
      </trkpt>
      <trkpt lat="48.65039" lon="-2.34092">
        <ele>42</ele>
        <time>2020-06-24T11:58:30.081Z</time>
      </trkpt>
      <trkpt lat="48.65039" lon="-2.34094">
        <ele>42</ele>
        <time>2020-06-24T11:58:31.081Z</time>
      </trkpt>
      <trkpt lat="48.65038" lon="-2.34096">
        <ele>42</ele>
        <time>2020-06-24T11:58:32.081Z</time>
      </trkpt>
      <trkpt lat="48.65038" lon="-2.34098">
        <ele>42</ele>
        <time>2020-06-24T11:58:33.081Z</time>
      </trkpt>
      <trkpt lat="48.65037" lon="-2.341">
        <ele>42</ele>
        <time>2020-06-24T11:58:34.081Z</time>
      </trkpt>
      <trkpt lat="48.65037" lon="-2.34102">
        <ele>41</ele>
        <time>2020-06-24T11:58:35.081Z</time>
      </trkpt>
      <trkpt lat="48.65036" lon="-2.34104">
        <ele>42</ele>
        <time>2020-06-24T11:58:36.081Z</time>
      </trkpt>
      <trkpt lat="48.65036" lon="-2.34106">
        <ele>42</ele>
        <time>2020-06-24T11:58:37.081Z</time>
      </trkpt>
      <trkpt lat="48.65036" lon="-2.34108">
        <ele>42</ele>
        <time>2020-06-24T11:58:38.081Z</time>
      </trkpt>
      <trkpt lat="48.65035" lon="-2.3411">
        <ele>42</ele>
        <time>2020-06-24T11:58:39.081Z</time>
      </trkpt>
      <trkpt lat="48.65035" lon="-2.34112">
        <ele>42</ele>
        <time>2020-06-24T11:58:40.081Z</time>
      </trkpt>
      <trkpt lat="48.65035" lon="-2.34114">
        <ele>42</ele>
        <time>2020-06-24T11:58:41.081Z</time>
      </trkpt>
      <trkpt lat="48.65034" lon="-2.34116">
        <ele>42</ele>
        <time>2020-06-24T11:58:42.081Z</time>
      </trkpt>
      <trkpt lat="48.65034" lon="-2.34118">
        <ele>41</ele>
        <time>2020-06-24T11:58:43.081Z</time>
      </trkpt>
      <trkpt lat="48.65033" lon="-2.3412">
        <ele>41</ele>
        <time>2020-06-24T11:58:44.081Z</time>
      </trkpt>
      <trkpt lat="48.65033" lon="-2.34122">
        <ele>41</ele>
        <time>2020-06-24T11:58:45.081Z</time>
      </trkpt>
      <trkpt lat="48.65033" lon="-2.34124">
        <ele>41</ele>
        <time>2020-06-24T11:58:46.081Z</time>
      </trkpt>
      <trkpt lat="48.65032" lon="-2.34126">
        <ele>41</ele>
        <time>2020-06-24T11:58:47.081Z</time>
      </trkpt>
      <trkpt lat="48.65032" lon="-2.34127">
        <ele>41</ele>
        <time>2020-06-24T11:58:48.081Z</time>
      </trkpt>
      <trkpt lat="48.65031" lon="-2.34129">
        <ele>41</ele>
        <time>2020-06-24T11:58:49.081Z</time>
      </trkpt>
      <trkpt lat="48.65031" lon="-2.34131">
        <ele>41</ele>
        <time>2020-06-24T11:58:50.081Z</time>
      </trkpt>
      <trkpt lat="48.6503" lon="-2.34133">
        <ele>41</ele>
        <time>2020-06-24T11:58:51.081Z</time>
      </trkpt>
      <trkpt lat="48.6503" lon="-2.34135">
        <ele>41</ele>
        <time>2020-06-24T11:58:52.081Z</time>
      </trkpt>
      <trkpt lat="48.6503" lon="-2.34136">
        <ele>41</ele>
        <time>2020-06-24T11:58:53.081Z</time>
      </trkpt>
      <trkpt lat="48.6503" lon="-2.34138">
        <ele>41</ele>
        <time>2020-06-24T11:58:54.081Z</time>
      </trkpt>
      <trkpt lat="48.65029" lon="-2.3414">
        <ele>41</ele>
        <time>2020-06-24T11:58:55.081Z</time>
      </trkpt>
      <trkpt lat="48.65029" lon="-2.34142">
        <ele>41</ele>
        <time>2020-06-24T11:58:56.081Z</time>
      </trkpt>
      <trkpt lat="48.65029" lon="-2.34144">
        <ele>40</ele>
        <time>2020-06-24T11:58:57.081Z</time>
      </trkpt>
      <trkpt lat="48.65028" lon="-2.34146">
        <ele>40</ele>
        <time>2020-06-24T11:58:58.081Z</time>
      </trkpt>
      <trkpt lat="48.65028" lon="-2.34148">
        <ele>40</ele>
        <time>2020-06-24T11:58:59.081Z</time>
      </trkpt>
      <trkpt lat="48.65027" lon="-2.3415">
        <ele>41</ele>
        <time>2020-06-24T11:59:00.081Z</time>
      </trkpt>
      <trkpt lat="48.65027" lon="-2.34152">
        <ele>41</ele>
        <time>2020-06-24T11:59:01.081Z</time>
      </trkpt>
      <trkpt lat="48.65026" lon="-2.34154">
        <ele>40</ele>
        <time>2020-06-24T11:59:02.081Z</time>
      </trkpt>
      <trkpt lat="48.65026" lon="-2.34156">
        <ele>40</ele>
        <time>2020-06-24T11:59:03.081Z</time>
      </trkpt>
      <trkpt lat="48.65025" lon="-2.34158">
        <ele>41</ele>
        <time>2020-06-24T11:59:04.081Z</time>
      </trkpt>
      <trkpt lat="48.65025" lon="-2.3416">
        <ele>41</ele>
        <time>2020-06-24T11:59:05.081Z</time>
      </trkpt>
      <trkpt lat="48.65024" lon="-2.34162">
        <ele>41</ele>
        <time>2020-06-24T11:59:06.081Z</time>
      </trkpt>
      <trkpt lat="48.65024" lon="-2.34164">
        <ele>41</ele>
        <time>2020-06-24T11:59:07.081Z</time>
      </trkpt>
      <trkpt lat="48.65023" lon="-2.34166">
        <ele>41</ele>
        <time>2020-06-24T11:59:08.081Z</time>
      </trkpt>
      <trkpt lat="48.65023" lon="-2.34168">
        <ele>41</ele>
        <time>2020-06-24T11:59:09.081Z</time>
      </trkpt>
      <trkpt lat="48.65022" lon="-2.3417">
        <ele>41</ele>
        <time>2020-06-24T11:59:10.081Z</time>
      </trkpt>
      <trkpt lat="48.65022" lon="-2.34172">
        <ele>41</ele>
        <time>2020-06-24T11:59:11.081Z</time>
      </trkpt>
      <trkpt lat="48.65021" lon="-2.34174">
        <ele>41</ele>
        <time>2020-06-24T11:59:12.081Z</time>
      </trkpt>
      <trkpt lat="48.65021" lon="-2.34176">
        <ele>41</ele>
        <time>2020-06-24T11:59:13.081Z</time>
      </trkpt>
      <trkpt lat="48.6502" lon="-2.34178">
        <ele>41</ele>
        <time>2020-06-24T11:59:14.081Z</time>
      </trkpt>
      <trkpt lat="48.6502" lon="-2.3418">
        <ele>41</ele>
        <time>2020-06-24T11:59:15.081Z</time>
      </trkpt>
      <trkpt lat="48.65019" lon="-2.34182">
        <ele>41</ele>
        <time>2020-06-24T11:59:16.081Z</time>
      </trkpt>
      <trkpt lat="48.65019" lon="-2.34184">
        <ele>41</ele>
        <time>2020-06-24T11:59:17.081Z</time>
      </trkpt>
      <trkpt lat="48.65018" lon="-2.34186">
        <ele>41</ele>
        <time>2020-06-24T11:59:18.081Z</time>
      </trkpt>
      <trkpt lat="48.65017" lon="-2.34189">
        <ele>41</ele>
        <time>2020-06-24T11:59:19.081Z</time>
      </trkpt>
      <trkpt lat="48.65017" lon="-2.34191">
        <ele>42</ele>
        <time>2020-06-24T11:59:20.081Z</time>
      </trkpt>
      <trkpt lat="48.65016" lon="-2.34193">
        <ele>41</ele>
        <time>2020-06-24T11:59:21.081Z</time>
      </trkpt>
      <trkpt lat="48.65016" lon="-2.34195">
        <ele>42</ele>
        <time>2020-06-24T11:59:22.081Z</time>
      </trkpt>
      <trkpt lat="48.65015" lon="-2.34196">
        <ele>42</ele>
        <time>2020-06-24T11:59:23.081Z</time>
      </trkpt>
      <trkpt lat="48.65015" lon="-2.34198">
        <ele>42</ele>
        <time>2020-06-24T11:59:24.081Z</time>
      </trkpt>
      <trkpt lat="48.65014" lon="-2.342">
        <ele>42</ele>
        <time>2020-06-24T11:59:25.081Z</time>
      </trkpt>
      <trkpt lat="48.65014" lon="-2.34203">
        <ele>42</ele>
        <time>2020-06-24T11:59:26.081Z</time>
      </trkpt>
      <trkpt lat="48.65013" lon="-2.34205">
        <ele>42</ele>
        <time>2020-06-24T11:59:27.081Z</time>
      </trkpt>
      <trkpt lat="48.65012" lon="-2.34207">
        <ele>43</ele>
        <time>2020-06-24T11:59:28.081Z</time>
      </trkpt>
      <trkpt lat="48.65012" lon="-2.34209">
        <ele>43</ele>
        <time>2020-06-24T11:59:29.081Z</time>
      </trkpt>
      <trkpt lat="48.65011" lon="-2.34211">
        <ele>43</ele>
        <time>2020-06-24T11:59:30.081Z</time>
      </trkpt>
      <trkpt lat="48.65011" lon="-2.34213">
        <ele>43</ele>
        <time>2020-06-24T11:59:31.081Z</time>
      </trkpt>
      <trkpt lat="48.6501" lon="-2.34215">
        <ele>43</ele>
        <time>2020-06-24T11:59:32.081Z</time>
      </trkpt>
      <trkpt lat="48.6501" lon="-2.34217">
        <ele>43</ele>
        <time>2020-06-24T11:59:33.081Z</time>
      </trkpt>
      <trkpt lat="48.65009" lon="-2.3422">
        <ele>43</ele>
        <time>2020-06-24T11:59:34.081Z</time>
      </trkpt>
      <trkpt lat="48.65009" lon="-2.34222">
        <ele>43</ele>
        <time>2020-06-24T11:59:35.081Z</time>
      </trkpt>
      <trkpt lat="48.65008" lon="-2.34224">
        <ele>43</ele>
        <time>2020-06-24T11:59:36.081Z</time>
      </trkpt>
      <trkpt lat="48.65007" lon="-2.34226">
        <ele>43</ele>
        <time>2020-06-24T11:59:37.081Z</time>
      </trkpt>
      <trkpt lat="48.65007" lon="-2.34228">
        <ele>43</ele>
        <time>2020-06-24T11:59:38.081Z</time>
      </trkpt>
      <trkpt lat="48.65006" lon="-2.3423">
        <ele>43</ele>
        <time>2020-06-24T11:59:39.081Z</time>
      </trkpt>
      <trkpt lat="48.65006" lon="-2.34232">
        <ele>43</ele>
        <time>2020-06-24T11:59:40.081Z</time>
      </trkpt>
      <trkpt lat="48.65005" lon="-2.34234">
        <ele>43</ele>
        <time>2020-06-24T11:59:41.081Z</time>
      </trkpt>
      <trkpt lat="48.65005" lon="-2.34236">
        <ele>43</ele>
        <time>2020-06-24T11:59:42.081Z</time>
      </trkpt>
      <trkpt lat="48.65004" lon="-2.34238">
        <ele>43</ele>
        <time>2020-06-24T11:59:43.081Z</time>
      </trkpt>
      <trkpt lat="48.65003" lon="-2.3424">
        <ele>43</ele>
        <time>2020-06-24T11:59:44.081Z</time>
      </trkpt>
      <trkpt lat="48.65003" lon="-2.34243">
        <ele>43</ele>
        <time>2020-06-24T11:59:45.081Z</time>
      </trkpt>
      <trkpt lat="48.65002" lon="-2.34245">
        <ele>43</ele>
        <time>2020-06-24T11:59:46.081Z</time>
      </trkpt>
      <trkpt lat="48.65002" lon="-2.34247">
        <ele>43</ele>
        <time>2020-06-24T11:59:47.081Z</time>
      </trkpt>
      <trkpt lat="48.65001" lon="-2.34249">
        <ele>43</ele>
        <time>2020-06-24T11:59:48.081Z</time>
      </trkpt>
      <trkpt lat="48.65001" lon="-2.34251">
        <ele>44</ele>
        <time>2020-06-24T11:59:49.081Z</time>
      </trkpt>
      <trkpt lat="48.65" lon="-2.34253">
        <ele>43</ele>
        <time>2020-06-24T11:59:50.081Z</time>
      </trkpt>
      <trkpt lat="48.65" lon="-2.34255">
        <ele>43</ele>
        <time>2020-06-24T11:59:51.081Z</time>
      </trkpt>
      <trkpt lat="48.64999" lon="-2.34257">
        <ele>43</ele>
        <time>2020-06-24T11:59:52.081Z</time>
      </trkpt>
      <trkpt lat="48.64998" lon="-2.34259">
        <ele>44</ele>
        <time>2020-06-24T11:59:53.081Z</time>
      </trkpt>
      <trkpt lat="48.64998" lon="-2.34261">
        <ele>44</ele>
        <time>2020-06-24T11:59:54.081Z</time>
      </trkpt>
      <trkpt lat="48.64997" lon="-2.34264">
        <ele>44</ele>
        <time>2020-06-24T11:59:55.081Z</time>
      </trkpt>
      <trkpt lat="48.64997" lon="-2.34266">
        <ele>44</ele>
        <time>2020-06-24T11:59:56.081Z</time>
      </trkpt>
      <trkpt lat="48.64996" lon="-2.34268">
        <ele>44</ele>
        <time>2020-06-24T11:59:57.081Z</time>
      </trkpt>
      <trkpt lat="48.64995" lon="-2.3427">
        <ele>44</ele>
        <time>2020-06-24T11:59:58.081Z</time>
      </trkpt>
      <trkpt lat="48.64995" lon="-2.34272">
        <ele>44</ele>
        <time>2020-06-24T11:59:59.081Z</time>
      </trkpt>
      <trkpt lat="48.64994" lon="-2.34274">
        <ele>44</ele>
        <time>2020-06-24T12:00:00.081Z</time>
      </trkpt>
      <trkpt lat="48.64994" lon="-2.34276">
        <ele>44</ele>
        <time>2020-06-24T12:00:01.081Z</time>
      </trkpt>
      <trkpt lat="48.64993" lon="-2.34278">
        <ele>44</ele>
        <time>2020-06-24T12:00:02.081Z</time>
      </trkpt>
      <trkpt lat="48.64993" lon="-2.3428">
        <ele>44</ele>
        <time>2020-06-24T12:00:03.081Z</time>
      </trkpt>
      <trkpt lat="48.64992" lon="-2.34282">
        <ele>44</ele>
        <time>2020-06-24T12:00:04.081Z</time>
      </trkpt>
      <trkpt lat="48.64992" lon="-2.34284">
        <ele>44</ele>
        <time>2020-06-24T12:00:05.081Z</time>
      </trkpt>
      <trkpt lat="48.64991" lon="-2.34286">
        <ele>44</ele>
        <time>2020-06-24T12:00:06.081Z</time>
      </trkpt>
      <trkpt lat="48.64991" lon="-2.34288">
        <ele>45</ele>
        <time>2020-06-24T12:00:07.081Z</time>
      </trkpt>
      <trkpt lat="48.6499" lon="-2.3429">
        <ele>45</ele>
        <time>2020-06-24T12:00:08.081Z</time>
      </trkpt>
      <trkpt lat="48.6499" lon="-2.34293">
        <ele>45</ele>
        <time>2020-06-24T12:00:09.081Z</time>
      </trkpt>
      <trkpt lat="48.64989" lon="-2.34295">
        <ele>44</ele>
        <time>2020-06-24T12:00:10.081Z</time>
      </trkpt>
      <trkpt lat="48.64988" lon="-2.34297">
        <ele>44</ele>
        <time>2020-06-24T12:00:11.081Z</time>
      </trkpt>
      <trkpt lat="48.64988" lon="-2.34299">
        <ele>44</ele>
        <time>2020-06-24T12:00:12.081Z</time>
      </trkpt>
      <trkpt lat="48.64987" lon="-2.34301">
        <ele>44</ele>
        <time>2020-06-24T12:00:13.081Z</time>
      </trkpt>
      <trkpt lat="48.64986" lon="-2.34303">
        <ele>44</ele>
        <time>2020-06-24T12:00:14.081Z</time>
      </trkpt>
      <trkpt lat="48.64986" lon="-2.34305">
        <ele>44</ele>
        <time>2020-06-24T12:00:15.081Z</time>
      </trkpt>
      <trkpt lat="48.64985" lon="-2.34307">
        <ele>44</ele>
        <time>2020-06-24T12:00:16.081Z</time>
      </trkpt>
      <trkpt lat="48.64984" lon="-2.34309">
        <ele>44</ele>
        <time>2020-06-24T12:00:17.081Z</time>
      </trkpt>
      <trkpt lat="48.64984" lon="-2.34311">
        <ele>44</ele>
        <time>2020-06-24T12:00:18.081Z</time>
      </trkpt>
      <trkpt lat="48.64983" lon="-2.34313">
        <ele>44</ele>
        <time>2020-06-24T12:00:19.081Z</time>
      </trkpt>
      <trkpt lat="48.64983" lon="-2.34315">
        <ele>44</ele>
        <time>2020-06-24T12:00:20.081Z</time>
      </trkpt>
      <trkpt lat="48.64982" lon="-2.34317">
        <ele>44</ele>
        <time>2020-06-24T12:00:21.081Z</time>
      </trkpt>
      <trkpt lat="48.64982" lon="-2.34319">
        <ele>44</ele>
        <time>2020-06-24T12:00:22.081Z</time>
      </trkpt>
      <trkpt lat="48.64981" lon="-2.34321">
        <ele>44</ele>
        <time>2020-06-24T12:00:23.081Z</time>
      </trkpt>
      <trkpt lat="48.64981" lon="-2.34323">
        <ele>44</ele>
        <time>2020-06-24T12:00:24.081Z</time>
      </trkpt>
      <trkpt lat="48.6498" lon="-2.34324">
        <ele>44</ele>
        <time>2020-06-24T12:00:25.081Z</time>
      </trkpt>
      <trkpt lat="48.64979" lon="-2.34326">
        <ele>44</ele>
        <time>2020-06-24T12:00:26.081Z</time>
      </trkpt>
      <trkpt lat="48.64979" lon="-2.34328">
        <ele>44</ele>
        <time>2020-06-24T12:00:27.081Z</time>
      </trkpt>
      <trkpt lat="48.64978" lon="-2.34331">
        <ele>44</ele>
        <time>2020-06-24T12:00:28.081Z</time>
      </trkpt>
      <trkpt lat="48.64977" lon="-2.34333">
        <ele>44</ele>
        <time>2020-06-24T12:00:29.081Z</time>
      </trkpt>
      <trkpt lat="48.64977" lon="-2.34335">
        <ele>44</ele>
        <time>2020-06-24T12:00:30.081Z</time>
      </trkpt>
      <trkpt lat="48.64976" lon="-2.34337">
        <ele>44</ele>
        <time>2020-06-24T12:00:31.081Z</time>
      </trkpt>
      <trkpt lat="48.64976" lon="-2.34339">
        <ele>44</ele>
        <time>2020-06-24T12:00:32.081Z</time>
      </trkpt>
      <trkpt lat="48.64975" lon="-2.34341">
        <ele>44</ele>
        <time>2020-06-24T12:00:33.081Z</time>
      </trkpt>
      <trkpt lat="48.64974" lon="-2.34343">
        <ele>44</ele>
        <time>2020-06-24T12:00:34.081Z</time>
      </trkpt>
      <trkpt lat="48.64974" lon="-2.34345">
        <ele>44</ele>
        <time>2020-06-24T12:00:35.081Z</time>
      </trkpt>
      <trkpt lat="48.64973" lon="-2.34347">
        <ele>44</ele>
        <time>2020-06-24T12:00:36.081Z</time>
      </trkpt>
      <trkpt lat="48.64973" lon="-2.34349">
        <ele>44</ele>
        <time>2020-06-24T12:00:37.081Z</time>
      </trkpt>
      <trkpt lat="48.64972" lon="-2.34351">
        <ele>44</ele>
        <time>2020-06-24T12:00:38.081Z</time>
      </trkpt>
      <trkpt lat="48.64971" lon="-2.34353">
        <ele>44</ele>
        <time>2020-06-24T12:00:39.081Z</time>
      </trkpt>
      <trkpt lat="48.64971" lon="-2.34355">
        <ele>44</ele>
        <time>2020-06-24T12:00:40.081Z</time>
      </trkpt>
      <trkpt lat="48.6497" lon="-2.34357">
        <ele>43</ele>
        <time>2020-06-24T12:00:41.081Z</time>
      </trkpt>
      <trkpt lat="48.6497" lon="-2.34359">
        <ele>44</ele>
        <time>2020-06-24T12:00:42.081Z</time>
      </trkpt>
      <trkpt lat="48.64969" lon="-2.34361">
        <ele>44</ele>
        <time>2020-06-24T12:00:43.081Z</time>
      </trkpt>
      <trkpt lat="48.64969" lon="-2.34363">
        <ele>44</ele>
        <time>2020-06-24T12:00:44.081Z</time>
      </trkpt>
      <trkpt lat="48.64968" lon="-2.34365">
        <ele>44</ele>
        <time>2020-06-24T12:00:45.081Z</time>
      </trkpt>
      <trkpt lat="48.64968" lon="-2.34367">
        <ele>43</ele>
        <time>2020-06-24T12:00:46.081Z</time>
      </trkpt>
      <trkpt lat="48.64967" lon="-2.34369">
        <ele>44</ele>
        <time>2020-06-24T12:00:47.081Z</time>
      </trkpt>
      <trkpt lat="48.64967" lon="-2.34371">
        <ele>43</ele>
        <time>2020-06-24T12:00:48.081Z</time>
      </trkpt>
      <trkpt lat="48.64966" lon="-2.34373">
        <ele>44</ele>
        <time>2020-06-24T12:00:49.081Z</time>
      </trkpt>
      <trkpt lat="48.64965" lon="-2.34375">
        <ele>44</ele>
        <time>2020-06-24T12:00:50.081Z</time>
      </trkpt>
      <trkpt lat="48.64965" lon="-2.34377">
        <ele>44</ele>
        <time>2020-06-24T12:00:51.081Z</time>
      </trkpt>
      <trkpt lat="48.64964" lon="-2.34379">
        <ele>44</ele>
        <time>2020-06-24T12:00:52.081Z</time>
      </trkpt>
      <trkpt lat="48.64964" lon="-2.34381">
        <ele>44</ele>
        <time>2020-06-24T12:00:53.081Z</time>
      </trkpt>
      <trkpt lat="48.64963" lon="-2.34383">
        <ele>44</ele>
        <time>2020-06-24T12:00:54.081Z</time>
      </trkpt>
      <trkpt lat="48.64963" lon="-2.34385">
        <ele>44</ele>
        <time>2020-06-24T12:00:55.081Z</time>
      </trkpt>
      <trkpt lat="48.64962" lon="-2.34387">
        <ele>44</ele>
        <time>2020-06-24T12:00:56.081Z</time>
      </trkpt>
      <trkpt lat="48.64962" lon="-2.34389">
        <ele>44</ele>
        <time>2020-06-24T12:00:57.081Z</time>
      </trkpt>
      <trkpt lat="48.64961" lon="-2.34391">
        <ele>44</ele>
        <time>2020-06-24T12:00:58.081Z</time>
      </trkpt>
      <trkpt lat="48.6496" lon="-2.34393">
        <ele>44</ele>
        <time>2020-06-24T12:00:59.081Z</time>
      </trkpt>
      <trkpt lat="48.6496" lon="-2.34395">
        <ele>44</ele>
        <time>2020-06-24T12:01:00.081Z</time>
      </trkpt>
      <trkpt lat="48.64959" lon="-2.34397">
        <ele>43</ele>
        <time>2020-06-24T12:01:01.081Z</time>
      </trkpt>
      <trkpt lat="48.64959" lon="-2.34399">
        <ele>44</ele>
        <time>2020-06-24T12:01:02.081Z</time>
      </trkpt>
      <trkpt lat="48.64958" lon="-2.34401">
        <ele>44</ele>
        <time>2020-06-24T12:01:03.081Z</time>
      </trkpt>
      <trkpt lat="48.64958" lon="-2.34403">
        <ele>44</ele>
        <time>2020-06-24T12:01:04.081Z</time>
      </trkpt>
      <trkpt lat="48.64957" lon="-2.34405">
        <ele>44</ele>
        <time>2020-06-24T12:01:05.081Z</time>
      </trkpt>
      <trkpt lat="48.64957" lon="-2.34407">
        <ele>44</ele>
        <time>2020-06-24T12:01:06.081Z</time>
      </trkpt>
      <trkpt lat="48.64956" lon="-2.34409">
        <ele>44</ele>
        <time>2020-06-24T12:01:07.081Z</time>
      </trkpt>
      <trkpt lat="48.64956" lon="-2.34411">
        <ele>44</ele>
        <time>2020-06-24T12:01:08.081Z</time>
      </trkpt>
      <trkpt lat="48.64955" lon="-2.34413">
        <ele>44</ele>
        <time>2020-06-24T12:01:09.081Z</time>
      </trkpt>
      <trkpt lat="48.64954" lon="-2.34415">
        <ele>43</ele>
        <time>2020-06-24T12:01:10.081Z</time>
      </trkpt>
      <trkpt lat="48.64954" lon="-2.34417">
        <ele>43</ele>
        <time>2020-06-24T12:01:11.081Z</time>
      </trkpt>
      <trkpt lat="48.64953" lon="-2.34419">
        <ele>43</ele>
        <time>2020-06-24T12:01:12.081Z</time>
      </trkpt>
      <trkpt lat="48.64953" lon="-2.34421">
        <ele>43</ele>
        <time>2020-06-24T12:01:13.081Z</time>
      </trkpt>
      <trkpt lat="48.64952" lon="-2.34423">
        <ele>43</ele>
        <time>2020-06-24T12:01:14.081Z</time>
      </trkpt>
      <trkpt lat="48.64951" lon="-2.34425">
        <ele>43</ele>
        <time>2020-06-24T12:01:15.081Z</time>
      </trkpt>
      <trkpt lat="48.64951" lon="-2.34427">
        <ele>43</ele>
        <time>2020-06-24T12:01:16.081Z</time>
      </trkpt>
      <trkpt lat="48.6495" lon="-2.34429">
        <ele>43</ele>
        <time>2020-06-24T12:01:17.081Z</time>
      </trkpt>
      <trkpt lat="48.6495" lon="-2.34431">
        <ele>43</ele>
        <time>2020-06-24T12:01:18.081Z</time>
      </trkpt>
      <trkpt lat="48.64949" lon="-2.34433">
        <ele>44</ele>
        <time>2020-06-24T12:01:19.081Z</time>
      </trkpt>
      <trkpt lat="48.64949" lon="-2.34435">
        <ele>43</ele>
        <time>2020-06-24T12:01:20.081Z</time>
      </trkpt>
      <trkpt lat="48.64948" lon="-2.34438">
        <ele>43</ele>
        <time>2020-06-24T12:01:21.081Z</time>
      </trkpt>
      <trkpt lat="48.64948" lon="-2.34439">
        <ele>43</ele>
        <time>2020-06-24T12:01:22.081Z</time>
      </trkpt>
      <trkpt lat="48.64947" lon="-2.34441">
        <ele>43</ele>
        <time>2020-06-24T12:01:23.081Z</time>
      </trkpt>
      <trkpt lat="48.64947" lon="-2.34443">
        <ele>43</ele>
        <time>2020-06-24T12:01:24.081Z</time>
      </trkpt>
      <trkpt lat="48.64946" lon="-2.34445">
        <ele>43</ele>
        <time>2020-06-24T12:01:25.081Z</time>
      </trkpt>
      <trkpt lat="48.64946" lon="-2.34447">
        <ele>43</ele>
        <time>2020-06-24T12:01:26.081Z</time>
      </trkpt>
      <trkpt lat="48.64945" lon="-2.34449">
        <ele>43</ele>
        <time>2020-06-24T12:01:27.081Z</time>
      </trkpt>
      <trkpt lat="48.64945" lon="-2.34451">
        <ele>43</ele>
        <time>2020-06-24T12:01:28.081Z</time>
      </trkpt>
      <trkpt lat="48.64944" lon="-2.34453">
        <ele>43</ele>
        <time>2020-06-24T12:01:29.081Z</time>
      </trkpt>
      <trkpt lat="48.64943" lon="-2.34455">
        <ele>43</ele>
        <time>2020-06-24T12:01:30.081Z</time>
      </trkpt>
      <trkpt lat="48.64943" lon="-2.34457">
        <ele>43</ele>
        <time>2020-06-24T12:01:31.081Z</time>
      </trkpt>
      <trkpt lat="48.64942" lon="-2.34459">
        <ele>43</ele>
        <time>2020-06-24T12:01:32.081Z</time>
      </trkpt>
      <trkpt lat="48.64942" lon="-2.34461">
        <ele>43</ele>
        <time>2020-06-24T12:01:33.081Z</time>
      </trkpt>
      <trkpt lat="48.64941" lon="-2.34463">
        <ele>43</ele>
        <time>2020-06-24T12:01:34.081Z</time>
      </trkpt>
      <trkpt lat="48.6494" lon="-2.34465">
        <ele>43</ele>
        <time>2020-06-24T12:01:35.081Z</time>
      </trkpt>
      <trkpt lat="48.6494" lon="-2.34467">
        <ele>43</ele>
        <time>2020-06-24T12:01:36.081Z</time>
      </trkpt>
      <trkpt lat="48.64939" lon="-2.34469">
        <ele>43</ele>
        <time>2020-06-24T12:01:37.081Z</time>
      </trkpt>
      <trkpt lat="48.64939" lon="-2.34471">
        <ele>43</ele>
        <time>2020-06-24T12:01:38.081Z</time>
      </trkpt>
      <trkpt lat="48.64938" lon="-2.34473">
        <ele>43</ele>
        <time>2020-06-24T12:01:39.081Z</time>
      </trkpt>
      <trkpt lat="48.64937" lon="-2.34475">
        <ele>43</ele>
        <time>2020-06-24T12:01:40.081Z</time>
      </trkpt>
      <trkpt lat="48.64937" lon="-2.34477">
        <ele>43</ele>
        <time>2020-06-24T12:01:41.081Z</time>
      </trkpt>
      <trkpt lat="48.64937" lon="-2.34479">
        <ele>43</ele>
        <time>2020-06-24T12:01:42.081Z</time>
      </trkpt>
      <trkpt lat="48.64936" lon="-2.34481">
        <ele>43</ele>
        <time>2020-06-24T12:01:43.081Z</time>
      </trkpt>
      <trkpt lat="48.64936" lon="-2.34483">
        <ele>43</ele>
        <time>2020-06-24T12:01:44.081Z</time>
      </trkpt>
      <trkpt lat="48.64935" lon="-2.34485">
        <ele>43</ele>
        <time>2020-06-24T12:01:45.081Z</time>
      </trkpt>
      <trkpt lat="48.64935" lon="-2.34487">
        <ele>43</ele>
        <time>2020-06-24T12:01:46.081Z</time>
      </trkpt>
      <trkpt lat="48.64934" lon="-2.34489">
        <ele>43</ele>
        <time>2020-06-24T12:01:47.081Z</time>
      </trkpt>
      <trkpt lat="48.64934" lon="-2.34491">
        <ele>43</ele>
        <time>2020-06-24T12:01:48.081Z</time>
      </trkpt>
      <trkpt lat="48.64933" lon="-2.34493">
        <ele>43</ele>
        <time>2020-06-24T12:01:49.081Z</time>
      </trkpt>
      <trkpt lat="48.64933" lon="-2.34495">
        <ele>43</ele>
        <time>2020-06-24T12:01:50.081Z</time>
      </trkpt>
      <trkpt lat="48.64932" lon="-2.34497">
        <ele>43</ele>
        <time>2020-06-24T12:01:51.081Z</time>
      </trkpt>
      <trkpt lat="48.64932" lon="-2.34499">
        <ele>43</ele>
        <time>2020-06-24T12:01:52.081Z</time>
      </trkpt>
      <trkpt lat="48.64931" lon="-2.34501">
        <ele>44</ele>
        <time>2020-06-24T12:01:53.081Z</time>
      </trkpt>
      <trkpt lat="48.64931" lon="-2.34503">
        <ele>44</ele>
        <time>2020-06-24T12:01:54.081Z</time>
      </trkpt>
      <trkpt lat="48.6493" lon="-2.34505">
        <ele>44</ele>
        <time>2020-06-24T12:01:55.081Z</time>
      </trkpt>
      <trkpt lat="48.64929" lon="-2.34507">
        <ele>43</ele>
        <time>2020-06-24T12:01:56.081Z</time>
      </trkpt>
      <trkpt lat="48.64929" lon="-2.34509">
        <ele>44</ele>
        <time>2020-06-24T12:01:57.081Z</time>
      </trkpt>
      <trkpt lat="48.64928" lon="-2.34511">
        <ele>43</ele>
        <time>2020-06-24T12:01:58.081Z</time>
      </trkpt>
      <trkpt lat="48.64928" lon="-2.34513">
        <ele>43</ele>
        <time>2020-06-24T12:01:59.081Z</time>
      </trkpt>
      <trkpt lat="48.64927" lon="-2.34515">
        <ele>43</ele>
        <time>2020-06-24T12:02:00.081Z</time>
      </trkpt>
      <trkpt lat="48.64926" lon="-2.34517">
        <ele>43</ele>
        <time>2020-06-24T12:02:01.081Z</time>
      </trkpt>
      <trkpt lat="48.64926" lon="-2.34519">
        <ele>43</ele>
        <time>2020-06-24T12:02:02.081Z</time>
      </trkpt>
      <trkpt lat="48.64925" lon="-2.34521">
        <ele>43</ele>
        <time>2020-06-24T12:02:03.081Z</time>
      </trkpt>
      <trkpt lat="48.64925" lon="-2.34523">
        <ele>44</ele>
        <time>2020-06-24T12:02:04.081Z</time>
      </trkpt>
      <trkpt lat="48.64924" lon="-2.34525">
        <ele>44</ele>
        <time>2020-06-24T12:02:05.081Z</time>
      </trkpt>
      <trkpt lat="48.64924" lon="-2.34527">
        <ele>44</ele>
        <time>2020-06-24T12:02:06.081Z</time>
      </trkpt>
      <trkpt lat="48.64923" lon="-2.34529">
        <ele>44</ele>
        <time>2020-06-24T12:02:07.081Z</time>
      </trkpt>
      <trkpt lat="48.64923" lon="-2.34531">
        <ele>44</ele>
        <time>2020-06-24T12:02:08.081Z</time>
      </trkpt>
      <trkpt lat="48.64922" lon="-2.34533">
        <ele>44</ele>
        <time>2020-06-24T12:02:09.081Z</time>
      </trkpt>
      <trkpt lat="48.64922" lon="-2.34535">
        <ele>44</ele>
        <time>2020-06-24T12:02:10.081Z</time>
      </trkpt>
      <trkpt lat="48.64921" lon="-2.34537">
        <ele>44</ele>
        <time>2020-06-24T12:02:11.081Z</time>
      </trkpt>
      <trkpt lat="48.64921" lon="-2.34539">
        <ele>43</ele>
        <time>2020-06-24T12:02:12.081Z</time>
      </trkpt>
      <trkpt lat="48.6492" lon="-2.34541">
        <ele>43</ele>
        <time>2020-06-24T12:02:13.081Z</time>
      </trkpt>
      <trkpt lat="48.64919" lon="-2.34543">
        <ele>43</ele>
        <time>2020-06-24T12:02:14.081Z</time>
      </trkpt>
      <trkpt lat="48.64919" lon="-2.34545">
        <ele>43</ele>
        <time>2020-06-24T12:02:15.081Z</time>
      </trkpt>
      <trkpt lat="48.64918" lon="-2.34547">
        <ele>43</ele>
        <time>2020-06-24T12:02:16.081Z</time>
      </trkpt>
      <trkpt lat="48.64918" lon="-2.34549">
        <ele>43</ele>
        <time>2020-06-24T12:02:17.081Z</time>
      </trkpt>
      <trkpt lat="48.64917" lon="-2.34551">
        <ele>43</ele>
        <time>2020-06-24T12:02:18.081Z</time>
      </trkpt>
      <trkpt lat="48.64917" lon="-2.34552">
        <ele>43</ele>
        <time>2020-06-24T12:02:19.081Z</time>
      </trkpt>
      <trkpt lat="48.64916" lon="-2.34554">
        <ele>43</ele>
        <time>2020-06-24T12:02:20.081Z</time>
      </trkpt>
      <trkpt lat="48.64915" lon="-2.34556">
        <ele>43</ele>
        <time>2020-06-24T12:02:21.081Z</time>
      </trkpt>
      <trkpt lat="48.64915" lon="-2.34558">
        <ele>42</ele>
        <time>2020-06-24T12:02:22.081Z</time>
      </trkpt>
      <trkpt lat="48.64914" lon="-2.3456">
        <ele>42</ele>
        <time>2020-06-24T12:02:23.081Z</time>
      </trkpt>
      <trkpt lat="48.64913" lon="-2.34562">
        <ele>42</ele>
        <time>2020-06-24T12:02:24.081Z</time>
      </trkpt>
      <trkpt lat="48.64913" lon="-2.34564">
        <ele>42</ele>
        <time>2020-06-24T12:02:25.081Z</time>
      </trkpt>
      <trkpt lat="48.64912" lon="-2.34566">
        <ele>42</ele>
        <time>2020-06-24T12:02:26.081Z</time>
      </trkpt>
      <trkpt lat="48.64911" lon="-2.34568">
        <ele>42</ele>
        <time>2020-06-24T12:02:27.081Z</time>
      </trkpt>
      <trkpt lat="48.64911" lon="-2.3457">
        <ele>42</ele>
        <time>2020-06-24T12:02:28.081Z</time>
      </trkpt>
      <trkpt lat="48.64911" lon="-2.34572">
        <ele>42</ele>
        <time>2020-06-24T12:02:29.081Z</time>
      </trkpt>
      <trkpt lat="48.6491" lon="-2.34574">
        <ele>42</ele>
        <time>2020-06-24T12:02:30.081Z</time>
      </trkpt>
      <trkpt lat="48.6491" lon="-2.34576">
        <ele>42</ele>
        <time>2020-06-24T12:02:31.081Z</time>
      </trkpt>
      <trkpt lat="48.64909" lon="-2.34578">
        <ele>42</ele>
        <time>2020-06-24T12:02:32.081Z</time>
      </trkpt>
      <trkpt lat="48.64908" lon="-2.3458">
        <ele>42</ele>
        <time>2020-06-24T12:02:33.081Z</time>
      </trkpt>
      <trkpt lat="48.64908" lon="-2.34582">
        <ele>42</ele>
        <time>2020-06-24T12:02:34.081Z</time>
      </trkpt>
      <trkpt lat="48.64907" lon="-2.34584">
        <ele>42</ele>
        <time>2020-06-24T12:02:35.081Z</time>
      </trkpt>
      <trkpt lat="48.64906" lon="-2.34587">
        <ele>42</ele>
        <time>2020-06-24T12:02:36.081Z</time>
      </trkpt>
      <trkpt lat="48.64906" lon="-2.34589">
        <ele>42</ele>
        <time>2020-06-24T12:02:37.081Z</time>
      </trkpt>
      <trkpt lat="48.64905" lon="-2.34591">
        <ele>42</ele>
        <time>2020-06-24T12:02:38.081Z</time>
      </trkpt>
      <trkpt lat="48.64904" lon="-2.34593">
        <ele>42</ele>
        <time>2020-06-24T12:02:39.081Z</time>
      </trkpt>
      <trkpt lat="48.64904" lon="-2.34595">
        <ele>42</ele>
        <time>2020-06-24T12:02:40.081Z</time>
      </trkpt>
      <trkpt lat="48.64903" lon="-2.34597">
        <ele>42</ele>
        <time>2020-06-24T12:02:41.081Z</time>
      </trkpt>
      <trkpt lat="48.64903" lon="-2.34599">
        <ele>42</ele>
        <time>2020-06-24T12:02:42.081Z</time>
      </trkpt>
      <trkpt lat="48.64902" lon="-2.34601">
        <ele>42</ele>
        <time>2020-06-24T12:02:43.081Z</time>
      </trkpt>
      <trkpt lat="48.64902" lon="-2.34603">
        <ele>42</ele>
        <time>2020-06-24T12:02:44.081Z</time>
      </trkpt>
      <trkpt lat="48.64901" lon="-2.34605">
        <ele>42</ele>
        <time>2020-06-24T12:02:45.081Z</time>
      </trkpt>
      <trkpt lat="48.64901" lon="-2.34607">
        <ele>41</ele>
        <time>2020-06-24T12:02:46.081Z</time>
      </trkpt>
      <trkpt lat="48.64901" lon="-2.34608">
        <ele>41</ele>
        <time>2020-06-24T12:02:47.081Z</time>
      </trkpt>
      <trkpt lat="48.649" lon="-2.3461">
        <ele>41</ele>
        <time>2020-06-24T12:02:48.081Z</time>
      </trkpt>
      <trkpt lat="48.649" lon="-2.34612">
        <ele>41</ele>
        <time>2020-06-24T12:02:49.081Z</time>
      </trkpt>
      <trkpt lat="48.64899" lon="-2.34614">
        <ele>42</ele>
        <time>2020-06-24T12:02:50.081Z</time>
      </trkpt>
      <trkpt lat="48.64899" lon="-2.34616">
        <ele>42</ele>
        <time>2020-06-24T12:02:51.081Z</time>
      </trkpt>
      <trkpt lat="48.64898" lon="-2.34617">
        <ele>42</ele>
        <time>2020-06-24T12:02:52.081Z</time>
      </trkpt>
      <trkpt lat="48.64897" lon="-2.34619">
        <ele>42</ele>
        <time>2020-06-24T12:02:53.081Z</time>
      </trkpt>
      <trkpt lat="48.64897" lon="-2.34621">
        <ele>42</ele>
        <time>2020-06-24T12:02:54.081Z</time>
      </trkpt>
      <trkpt lat="48.64897" lon="-2.34623">
        <ele>43</ele>
        <time>2020-06-24T12:02:55.081Z</time>
      </trkpt>
      <trkpt lat="48.64896" lon="-2.34625">
        <ele>43</ele>
        <time>2020-06-24T12:02:56.081Z</time>
      </trkpt>
      <trkpt lat="48.64896" lon="-2.34627">
        <ele>42</ele>
        <time>2020-06-24T12:02:57.081Z</time>
      </trkpt>
      <trkpt lat="48.64895" lon="-2.34629">
        <ele>42</ele>
        <time>2020-06-24T12:02:58.081Z</time>
      </trkpt>
      <trkpt lat="48.64894" lon="-2.34632">
        <ele>43</ele>
        <time>2020-06-24T12:02:59.081Z</time>
      </trkpt>
      <trkpt lat="48.64894" lon="-2.34634">
        <ele>42</ele>
        <time>2020-06-24T12:03:00.081Z</time>
      </trkpt>
      <trkpt lat="48.64893" lon="-2.34636">
        <ele>43</ele>
        <time>2020-06-24T12:03:01.081Z</time>
      </trkpt>
      <trkpt lat="48.64893" lon="-2.34638">
        <ele>42</ele>
        <time>2020-06-24T12:03:02.081Z</time>
      </trkpt>
      <trkpt lat="48.64892" lon="-2.3464">
        <ele>42</ele>
        <time>2020-06-24T12:03:03.081Z</time>
      </trkpt>
      <trkpt lat="48.64892" lon="-2.34642">
        <ele>42</ele>
        <time>2020-06-24T12:03:04.081Z</time>
      </trkpt>
      <trkpt lat="48.64891" lon="-2.34644">
        <ele>42</ele>
        <time>2020-06-24T12:03:05.081Z</time>
      </trkpt>
      <trkpt lat="48.64891" lon="-2.34646">
        <ele>42</ele>
        <time>2020-06-24T12:03:06.081Z</time>
      </trkpt>
      <trkpt lat="48.6489" lon="-2.34648">
        <ele>42</ele>
        <time>2020-06-24T12:03:07.081Z</time>
      </trkpt>
      <trkpt lat="48.6489" lon="-2.3465">
        <ele>42</ele>
        <time>2020-06-24T12:03:08.081Z</time>
      </trkpt>
      <trkpt lat="48.64889" lon="-2.34652">
        <ele>42</ele>
        <time>2020-06-24T12:03:09.081Z</time>
      </trkpt>
      <trkpt lat="48.64889" lon="-2.34654">
        <ele>42</ele>
        <time>2020-06-24T12:03:10.081Z</time>
      </trkpt>
      <trkpt lat="48.64888" lon="-2.34656">
        <ele>42</ele>
        <time>2020-06-24T12:03:11.081Z</time>
      </trkpt>
      <trkpt lat="48.64887" lon="-2.34657">
        <ele>42</ele>
        <time>2020-06-24T12:03:12.081Z</time>
      </trkpt>
      <trkpt lat="48.64887" lon="-2.34659">
        <ele>42</ele>
        <time>2020-06-24T12:03:13.081Z</time>
      </trkpt>
      <trkpt lat="48.64886" lon="-2.34661">
        <ele>41</ele>
        <time>2020-06-24T12:03:14.081Z</time>
      </trkpt>
      <trkpt lat="48.64885" lon="-2.34663">
        <ele>41</ele>
        <time>2020-06-24T12:03:15.081Z</time>
      </trkpt>
      <trkpt lat="48.64885" lon="-2.34665">
        <ele>41</ele>
        <time>2020-06-24T12:03:16.081Z</time>
      </trkpt>
      <trkpt lat="48.64884" lon="-2.34667">
        <ele>42</ele>
        <time>2020-06-24T12:03:17.081Z</time>
      </trkpt>
      <trkpt lat="48.64884" lon="-2.34669">
        <ele>42</ele>
        <time>2020-06-24T12:03:18.081Z</time>
      </trkpt>
      <trkpt lat="48.64883" lon="-2.34671">
        <ele>41</ele>
        <time>2020-06-24T12:03:19.081Z</time>
      </trkpt>
      <trkpt lat="48.64883" lon="-2.34673">
        <ele>41</ele>
        <time>2020-06-24T12:03:20.081Z</time>
      </trkpt>
      <trkpt lat="48.64882" lon="-2.34675">
        <ele>42</ele>
        <time>2020-06-24T12:03:21.081Z</time>
      </trkpt>
      <trkpt lat="48.64882" lon="-2.34677">
        <ele>42</ele>
        <time>2020-06-24T12:03:22.081Z</time>
      </trkpt>
      <trkpt lat="48.64881" lon="-2.34678">
        <ele>41</ele>
        <time>2020-06-24T12:03:23.081Z</time>
      </trkpt>
      <trkpt lat="48.64881" lon="-2.3468">
        <ele>42</ele>
        <time>2020-06-24T12:03:24.081Z</time>
      </trkpt>
      <trkpt lat="48.6488" lon="-2.34682">
        <ele>42</ele>
        <time>2020-06-24T12:03:25.081Z</time>
      </trkpt>
      <trkpt lat="48.6488" lon="-2.34684">
        <ele>42</ele>
        <time>2020-06-24T12:03:26.081Z</time>
      </trkpt>
      <trkpt lat="48.64879" lon="-2.34685">
        <ele>42</ele>
        <time>2020-06-24T12:03:27.081Z</time>
      </trkpt>
      <trkpt lat="48.64879" lon="-2.34687">
        <ele>42</ele>
        <time>2020-06-24T12:03:28.081Z</time>
      </trkpt>
      <trkpt lat="48.64879" lon="-2.34689">
        <ele>43</ele>
        <time>2020-06-24T12:03:29.081Z</time>
      </trkpt>
      <trkpt lat="48.64878" lon="-2.34691">
        <ele>43</ele>
        <time>2020-06-24T12:03:30.081Z</time>
      </trkpt>
      <trkpt lat="48.64878" lon="-2.34693">
        <ele>43</ele>
        <time>2020-06-24T12:03:31.081Z</time>
      </trkpt>
      <trkpt lat="48.64878" lon="-2.34695">
        <ele>43</ele>
        <time>2020-06-24T12:03:32.081Z</time>
      </trkpt>
      <trkpt lat="48.64877" lon="-2.34696">
        <ele>43</ele>
        <time>2020-06-24T12:03:33.081Z</time>
      </trkpt>
      <trkpt lat="48.64877" lon="-2.34698">
        <ele>42</ele>
        <time>2020-06-24T12:03:34.081Z</time>
      </trkpt>
      <trkpt lat="48.64876" lon="-2.347">
        <ele>42</ele>
        <time>2020-06-24T12:03:35.081Z</time>
      </trkpt>
      <trkpt lat="48.64875" lon="-2.34701">
        <ele>42</ele>
        <time>2020-06-24T12:03:36.081Z</time>
      </trkpt>
      <trkpt lat="48.64874" lon="-2.34703">
        <ele>42</ele>
        <time>2020-06-24T12:03:37.081Z</time>
      </trkpt>
      <trkpt lat="48.64874" lon="-2.34705">
        <ele>42</ele>
        <time>2020-06-24T12:03:38.081Z</time>
      </trkpt>
      <trkpt lat="48.64873" lon="-2.34707">
        <ele>42</ele>
        <time>2020-06-24T12:03:39.081Z</time>
      </trkpt>
      <trkpt lat="48.64873" lon="-2.34709">
        <ele>42</ele>
        <time>2020-06-24T12:03:40.081Z</time>
      </trkpt>
      <trkpt lat="48.64872" lon="-2.34711">
        <ele>42</ele>
        <time>2020-06-24T12:03:41.081Z</time>
      </trkpt>
      <trkpt lat="48.64871" lon="-2.34713">
        <ele>42</ele>
        <time>2020-06-24T12:03:42.081Z</time>
      </trkpt>
      <trkpt lat="48.64871" lon="-2.34715">
        <ele>41</ele>
        <time>2020-06-24T12:03:43.081Z</time>
      </trkpt>
      <trkpt lat="48.6487" lon="-2.34717">
        <ele>41</ele>
        <time>2020-06-24T12:03:44.081Z</time>
      </trkpt>
      <trkpt lat="48.6487" lon="-2.34718">
        <ele>41</ele>
        <time>2020-06-24T12:03:45.081Z</time>
      </trkpt>
      <trkpt lat="48.64869" lon="-2.3472">
        <ele>40</ele>
        <time>2020-06-24T12:03:46.081Z</time>
      </trkpt>
      <trkpt lat="48.64868" lon="-2.34722">
        <ele>40</ele>
        <time>2020-06-24T12:03:47.081Z</time>
      </trkpt>
      <trkpt lat="48.64868" lon="-2.34725">
        <ele>40</ele>
        <time>2020-06-24T12:03:48.081Z</time>
      </trkpt>
      <trkpt lat="48.64867" lon="-2.34726">
        <ele>40</ele>
        <time>2020-06-24T12:03:49.081Z</time>
      </trkpt>
      <trkpt lat="48.64866" lon="-2.34728">
        <ele>40</ele>
        <time>2020-06-24T12:03:50.081Z</time>
      </trkpt>
      <trkpt lat="48.64865" lon="-2.3473">
        <ele>40</ele>
        <time>2020-06-24T12:03:51.081Z</time>
      </trkpt>
      <trkpt lat="48.64865" lon="-2.34732">
        <ele>41</ele>
        <time>2020-06-24T12:03:52.081Z</time>
      </trkpt>
      <trkpt lat="48.64865" lon="-2.34735">
        <ele>41</ele>
        <time>2020-06-24T12:03:53.081Z</time>
      </trkpt>
      <trkpt lat="48.64864" lon="-2.34738">
        <ele>40</ele>
        <time>2020-06-24T12:03:54.081Z</time>
      </trkpt>
      <trkpt lat="48.64864" lon="-2.3474">
        <ele>39</ele>
        <time>2020-06-24T12:03:55.081Z</time>
      </trkpt>
      <trkpt lat="48.64863" lon="-2.34742">
        <ele>40</ele>
        <time>2020-06-24T12:03:56.081Z</time>
      </trkpt>
      <trkpt lat="48.64863" lon="-2.34744">
        <ele>39</ele>
        <time>2020-06-24T12:03:57.081Z</time>
      </trkpt>
      <trkpt lat="48.64862" lon="-2.34746">
        <ele>40</ele>
        <time>2020-06-24T12:03:58.081Z</time>
      </trkpt>
      <trkpt lat="48.64862" lon="-2.34748">
        <ele>40</ele>
        <time>2020-06-24T12:03:59.081Z</time>
      </trkpt>
      <trkpt lat="48.64861" lon="-2.3475">
        <ele>40</ele>
        <time>2020-06-24T12:04:00.081Z</time>
      </trkpt>
      <trkpt lat="48.64861" lon="-2.34752">
        <ele>40</ele>
        <time>2020-06-24T12:04:01.081Z</time>
      </trkpt>
      <trkpt lat="48.6486" lon="-2.34754">
        <ele>40</ele>
        <time>2020-06-24T12:04:02.081Z</time>
      </trkpt>
      <trkpt lat="48.64859" lon="-2.34756">
        <ele>40</ele>
        <time>2020-06-24T12:04:03.081Z</time>
      </trkpt>
      <trkpt lat="48.64859" lon="-2.34758">
        <ele>41</ele>
        <time>2020-06-24T12:04:04.081Z</time>
      </trkpt>
      <trkpt lat="48.64858" lon="-2.3476">
        <ele>41</ele>
        <time>2020-06-24T12:04:05.081Z</time>
      </trkpt>
      <trkpt lat="48.64858" lon="-2.34762">
        <ele>41</ele>
        <time>2020-06-24T12:04:06.081Z</time>
      </trkpt>
      <trkpt lat="48.64857" lon="-2.34764">
        <ele>40</ele>
        <time>2020-06-24T12:04:07.081Z</time>
      </trkpt>
      <trkpt lat="48.64856" lon="-2.34766">
        <ele>40</ele>
        <time>2020-06-24T12:04:08.081Z</time>
      </trkpt>
      <trkpt lat="48.64856" lon="-2.34768">
        <ele>40</ele>
        <time>2020-06-24T12:04:09.081Z</time>
      </trkpt>
      <trkpt lat="48.64855" lon="-2.3477">
        <ele>41</ele>
        <time>2020-06-24T12:04:10.081Z</time>
      </trkpt>
      <trkpt lat="48.64855" lon="-2.34772">
        <ele>41</ele>
        <time>2020-06-24T12:04:11.081Z</time>
      </trkpt>
      <trkpt lat="48.64854" lon="-2.34774">
        <ele>41</ele>
        <time>2020-06-24T12:04:12.081Z</time>
      </trkpt>
      <trkpt lat="48.64854" lon="-2.34776">
        <ele>42</ele>
        <time>2020-06-24T12:04:13.081Z</time>
      </trkpt>
      <trkpt lat="48.64853" lon="-2.34778">
        <ele>42</ele>
        <time>2020-06-24T12:04:14.081Z</time>
      </trkpt>
      <trkpt lat="48.64853" lon="-2.34779">
        <ele>42</ele>
        <time>2020-06-24T12:04:15.081Z</time>
      </trkpt>
      <trkpt lat="48.64852" lon="-2.34781">
        <ele>42</ele>
        <time>2020-06-24T12:04:16.081Z</time>
      </trkpt>
      <trkpt lat="48.64851" lon="-2.34783">
        <ele>43</ele>
        <time>2020-06-24T12:04:17.081Z</time>
      </trkpt>
      <trkpt lat="48.64851" lon="-2.34785">
        <ele>43</ele>
        <time>2020-06-24T12:04:18.081Z</time>
      </trkpt>
      <trkpt lat="48.6485" lon="-2.34787">
        <ele>43</ele>
        <time>2020-06-24T12:04:19.081Z</time>
      </trkpt>
      <trkpt lat="48.6485" lon="-2.34789">
        <ele>43</ele>
        <time>2020-06-24T12:04:20.081Z</time>
      </trkpt>
      <trkpt lat="48.64849" lon="-2.3479">
        <ele>43</ele>
        <time>2020-06-24T12:04:21.081Z</time>
      </trkpt>
      <trkpt lat="48.64848" lon="-2.34792">
        <ele>43</ele>
        <time>2020-06-24T12:04:22.081Z</time>
      </trkpt>
      <trkpt lat="48.64848" lon="-2.34794">
        <ele>43</ele>
        <time>2020-06-24T12:04:23.081Z</time>
      </trkpt>
      <trkpt lat="48.64847" lon="-2.34796">
        <ele>43</ele>
        <time>2020-06-24T12:04:24.081Z</time>
      </trkpt>
      <trkpt lat="48.64847" lon="-2.34798">
        <ele>41</ele>
        <time>2020-06-24T12:04:25.081Z</time>
      </trkpt>
      <trkpt lat="48.64847" lon="-2.348">
        <ele>41</ele>
        <time>2020-06-24T12:04:26.081Z</time>
      </trkpt>
      <trkpt lat="48.64846" lon="-2.34802">
        <ele>41</ele>
        <time>2020-06-24T12:04:27.081Z</time>
      </trkpt>
      <trkpt lat="48.64846" lon="-2.34804">
        <ele>41</ele>
        <time>2020-06-24T12:04:28.081Z</time>
      </trkpt>
      <trkpt lat="48.64845" lon="-2.34805">
        <ele>41</ele>
        <time>2020-06-24T12:04:29.081Z</time>
      </trkpt>
      <trkpt lat="48.64845" lon="-2.34807">
        <ele>41</ele>
        <time>2020-06-24T12:04:30.081Z</time>
      </trkpt>
      <trkpt lat="48.64845" lon="-2.34809">
        <ele>41</ele>
        <time>2020-06-24T12:04:31.081Z</time>
      </trkpt>
      <trkpt lat="48.64844" lon="-2.3481">
        <ele>40</ele>
        <time>2020-06-24T12:04:32.081Z</time>
      </trkpt>
      <trkpt lat="48.64844" lon="-2.34812">
        <ele>40</ele>
        <time>2020-06-24T12:04:33.081Z</time>
      </trkpt>
      <trkpt lat="48.64844" lon="-2.34813">
        <ele>40</ele>
        <time>2020-06-24T12:04:34.081Z</time>
      </trkpt>
      <trkpt lat="48.64844" lon="-2.34815">
        <ele>40</ele>
        <time>2020-06-24T12:04:35.081Z</time>
      </trkpt>
      <trkpt lat="48.64844" lon="-2.34817">
        <ele>40</ele>
        <time>2020-06-24T12:04:36.081Z</time>
      </trkpt>
      <trkpt lat="48.64844" lon="-2.3482">
        <ele>41</ele>
        <time>2020-06-24T12:04:37.081Z</time>
      </trkpt>
      <trkpt lat="48.64843" lon="-2.34822">
        <ele>41</ele>
        <time>2020-06-24T12:04:38.081Z</time>
      </trkpt>
      <trkpt lat="48.64843" lon="-2.34824">
        <ele>42</ele>
        <time>2020-06-24T12:04:39.081Z</time>
      </trkpt>
      <trkpt lat="48.64842" lon="-2.34826">
        <ele>41</ele>
        <time>2020-06-24T12:04:40.081Z</time>
      </trkpt>
      <trkpt lat="48.64842" lon="-2.34828">
        <ele>42</ele>
        <time>2020-06-24T12:04:41.081Z</time>
      </trkpt>
      <trkpt lat="48.64841" lon="-2.3483">
        <ele>42</ele>
        <time>2020-06-24T12:04:42.081Z</time>
      </trkpt>
      <trkpt lat="48.64841" lon="-2.34832">
        <ele>42</ele>
        <time>2020-06-24T12:04:43.081Z</time>
      </trkpt>
      <trkpt lat="48.6484" lon="-2.34833">
        <ele>42</ele>
        <time>2020-06-24T12:04:44.081Z</time>
      </trkpt>
      <trkpt lat="48.6484" lon="-2.34835">
        <ele>43</ele>
        <time>2020-06-24T12:04:45.081Z</time>
      </trkpt>
      <trkpt lat="48.64839" lon="-2.34837">
        <ele>43</ele>
        <time>2020-06-24T12:04:46.081Z</time>
      </trkpt>
      <trkpt lat="48.64838" lon="-2.34839">
        <ele>43</ele>
        <time>2020-06-24T12:04:47.081Z</time>
      </trkpt>
      <trkpt lat="48.64838" lon="-2.3484">
        <ele>44</ele>
        <time>2020-06-24T12:04:48.081Z</time>
      </trkpt>
      <trkpt lat="48.64837" lon="-2.34842">
        <ele>45</ele>
        <time>2020-06-24T12:04:49.081Z</time>
      </trkpt>
      <trkpt lat="48.64836" lon="-2.34844">
        <ele>45</ele>
        <time>2020-06-24T12:04:50.081Z</time>
      </trkpt>
      <trkpt lat="48.64835" lon="-2.34846">
        <ele>45</ele>
        <time>2020-06-24T12:04:51.081Z</time>
      </trkpt>
      <trkpt lat="48.64834" lon="-2.34848">
        <ele>46</ele>
        <time>2020-06-24T12:04:52.081Z</time>
      </trkpt>
      <trkpt lat="48.64833" lon="-2.3485">
        <ele>45</ele>
        <time>2020-06-24T12:04:53.081Z</time>
      </trkpt>
      <trkpt lat="48.64832" lon="-2.34852">
        <ele>45</ele>
        <time>2020-06-24T12:04:54.081Z</time>
      </trkpt>
      <trkpt lat="48.64832" lon="-2.34854">
        <ele>46</ele>
        <time>2020-06-24T12:04:55.081Z</time>
      </trkpt>
      <trkpt lat="48.64831" lon="-2.34857">
        <ele>46</ele>
        <time>2020-06-24T12:04:56.081Z</time>
      </trkpt>
      <trkpt lat="48.6483" lon="-2.34859">
        <ele>46</ele>
        <time>2020-06-24T12:04:57.081Z</time>
      </trkpt>
      <trkpt lat="48.6483" lon="-2.34861">
        <ele>46</ele>
        <time>2020-06-24T12:04:58.081Z</time>
      </trkpt>
      <trkpt lat="48.6483" lon="-2.34863">
        <ele>45</ele>
        <time>2020-06-24T12:04:59.081Z</time>
      </trkpt>
      <trkpt lat="48.6483" lon="-2.34866">
        <ele>44</ele>
        <time>2020-06-24T12:05:00.081Z</time>
      </trkpt>
      <trkpt lat="48.6483" lon="-2.34869">
        <ele>43</ele>
        <time>2020-06-24T12:05:01.081Z</time>
      </trkpt>
      <trkpt lat="48.64829" lon="-2.34871">
        <ele>43</ele>
        <time>2020-06-24T12:05:02.081Z</time>
      </trkpt>
      <trkpt lat="48.64829" lon="-2.34874">
        <ele>43</ele>
        <time>2020-06-24T12:05:03.081Z</time>
      </trkpt>
      <trkpt lat="48.64829" lon="-2.34876">
        <ele>42</ele>
        <time>2020-06-24T12:05:04.081Z</time>
      </trkpt>
      <trkpt lat="48.64829" lon="-2.34878">
        <ele>42</ele>
        <time>2020-06-24T12:05:05.081Z</time>
      </trkpt>
      <trkpt lat="48.64828" lon="-2.34879">
        <ele>41</ele>
        <time>2020-06-24T12:05:06.081Z</time>
      </trkpt>
      <trkpt lat="48.64828" lon="-2.34881">
        <ele>40</ele>
        <time>2020-06-24T12:05:07.081Z</time>
      </trkpt>
      <trkpt lat="48.64827" lon="-2.34883">
        <ele>40</ele>
        <time>2020-06-24T12:05:08.081Z</time>
      </trkpt>
      <trkpt lat="48.64827" lon="-2.34885">
        <ele>40</ele>
        <time>2020-06-24T12:05:09.081Z</time>
      </trkpt>
      <trkpt lat="48.64826" lon="-2.34887">
        <ele>40</ele>
        <time>2020-06-24T12:05:10.081Z</time>
      </trkpt>
      <trkpt lat="48.64825" lon="-2.3489">
        <ele>40</ele>
        <time>2020-06-24T12:05:11.081Z</time>
      </trkpt>
      <trkpt lat="48.64825" lon="-2.34892">
        <ele>40</ele>
        <time>2020-06-24T12:05:12.081Z</time>
      </trkpt>
      <trkpt lat="48.64824" lon="-2.34894">
        <ele>40</ele>
        <time>2020-06-24T12:05:13.081Z</time>
      </trkpt>
      <trkpt lat="48.64823" lon="-2.34897">
        <ele>40</ele>
        <time>2020-06-24T12:05:14.081Z</time>
      </trkpt>
      <trkpt lat="48.64822" lon="-2.34899">
        <ele>40</ele>
        <time>2020-06-24T12:05:15.081Z</time>
      </trkpt>
      <trkpt lat="48.64822" lon="-2.34901">
        <ele>40</ele>
        <time>2020-06-24T12:05:16.081Z</time>
      </trkpt>
      <trkpt lat="48.64821" lon="-2.34903">
        <ele>40</ele>
        <time>2020-06-24T12:05:17.081Z</time>
      </trkpt>
      <trkpt lat="48.6482" lon="-2.34905">
        <ele>40</ele>
        <time>2020-06-24T12:05:18.081Z</time>
      </trkpt>
      <trkpt lat="48.6482" lon="-2.34906">
        <ele>40</ele>
        <time>2020-06-24T12:05:19.081Z</time>
      </trkpt>
      <trkpt lat="48.64819" lon="-2.34907">
        <ele>40</ele>
        <time>2020-06-24T12:05:20.081Z</time>
      </trkpt>
      <trkpt lat="48.64819" lon="-2.34909">
        <ele>39</ele>
        <time>2020-06-24T12:05:21.081Z</time>
      </trkpt>
      <trkpt lat="48.64818" lon="-2.34911">
        <ele>39</ele>
        <time>2020-06-24T12:05:22.081Z</time>
      </trkpt>
      <trkpt lat="48.64818" lon="-2.34913">
        <ele>39</ele>
        <time>2020-06-24T12:05:23.081Z</time>
      </trkpt>
      <trkpt lat="48.64818" lon="-2.34915">
        <ele>39</ele>
        <time>2020-06-24T12:05:24.081Z</time>
      </trkpt>
      <trkpt lat="48.64817" lon="-2.34917">
        <ele>39</ele>
        <time>2020-06-24T12:05:25.081Z</time>
      </trkpt>
      <trkpt lat="48.64817" lon="-2.34919">
        <ele>38</ele>
        <time>2020-06-24T12:05:26.081Z</time>
      </trkpt>
      <trkpt lat="48.64816" lon="-2.34921">
        <ele>38</ele>
        <time>2020-06-24T12:05:27.081Z</time>
      </trkpt>
      <trkpt lat="48.64816" lon="-2.34923">
        <ele>38</ele>
        <time>2020-06-24T12:05:28.081Z</time>
      </trkpt>
      <trkpt lat="48.64816" lon="-2.34925">
        <ele>37</ele>
        <time>2020-06-24T12:05:29.081Z</time>
      </trkpt>
      <trkpt lat="48.64816" lon="-2.34927">
        <ele>37</ele>
        <time>2020-06-24T12:05:30.081Z</time>
      </trkpt>
      <trkpt lat="48.64816" lon="-2.34928">
        <ele>36</ele>
        <time>2020-06-24T12:05:31.081Z</time>
      </trkpt>
      <trkpt lat="48.64817" lon="-2.3493">
        <ele>36</ele>
        <time>2020-06-24T12:05:32.081Z</time>
      </trkpt>
      <trkpt lat="48.64818" lon="-2.34932">
        <ele>37</ele>
        <time>2020-06-24T12:05:33.081Z</time>
      </trkpt>
      <trkpt lat="48.64819" lon="-2.34933">
        <ele>37</ele>
        <time>2020-06-24T12:05:34.081Z</time>
      </trkpt>
      <trkpt lat="48.6482" lon="-2.34935">
        <ele>37</ele>
        <time>2020-06-24T12:05:35.081Z</time>
      </trkpt>
      <trkpt lat="48.64821" lon="-2.34935">
        <ele>37</ele>
        <time>2020-06-24T12:05:36.081Z</time>
      </trkpt>
      <trkpt lat="48.64822" lon="-2.34936">
        <ele>37</ele>
        <time>2020-06-24T12:05:37.081Z</time>
      </trkpt>
      <trkpt lat="48.64823" lon="-2.34937">
        <ele>37</ele>
        <time>2020-06-24T12:05:38.081Z</time>
      </trkpt>
      <trkpt lat="48.64825" lon="-2.34937">
        <ele>37</ele>
        <time>2020-06-24T12:05:39.081Z</time>
      </trkpt>
      <trkpt lat="48.64826" lon="-2.34938">
        <ele>37</ele>
        <time>2020-06-24T12:05:40.081Z</time>
      </trkpt>
      <trkpt lat="48.64827" lon="-2.34939">
        <ele>36</ele>
        <time>2020-06-24T12:05:41.081Z</time>
      </trkpt>
      <trkpt lat="48.64828" lon="-2.34939">
        <ele>36</ele>
        <time>2020-06-24T12:05:42.081Z</time>
      </trkpt>
      <trkpt lat="48.64829" lon="-2.3494">
        <ele>36</ele>
        <time>2020-06-24T12:05:43.081Z</time>
      </trkpt>
      <trkpt lat="48.6483" lon="-2.3494">
        <ele>36</ele>
        <time>2020-06-24T12:05:44.081Z</time>
      </trkpt>
      <trkpt lat="48.64831" lon="-2.34941">
        <ele>36</ele>
        <time>2020-06-24T12:05:45.081Z</time>
      </trkpt>
      <trkpt lat="48.64832" lon="-2.34941">
        <ele>35</ele>
        <time>2020-06-24T12:05:46.081Z</time>
      </trkpt>
      <trkpt lat="48.64834" lon="-2.34942">
        <ele>35</ele>
        <time>2020-06-24T12:05:47.081Z</time>
      </trkpt>
      <trkpt lat="48.64835" lon="-2.34942">
        <ele>35</ele>
        <time>2020-06-24T12:05:48.081Z</time>
      </trkpt>
      <trkpt lat="48.64836" lon="-2.34943">
        <ele>35</ele>
        <time>2020-06-24T12:05:49.081Z</time>
      </trkpt>
      <trkpt lat="48.64837" lon="-2.34943">
        <ele>35</ele>
        <time>2020-06-24T12:05:50.081Z</time>
      </trkpt>
      <trkpt lat="48.64838" lon="-2.34944">
        <ele>34</ele>
        <time>2020-06-24T12:05:51.081Z</time>
      </trkpt>
      <trkpt lat="48.6484" lon="-2.34944">
        <ele>34</ele>
        <time>2020-06-24T12:05:52.081Z</time>
      </trkpt>
      <trkpt lat="48.64841" lon="-2.34945">
        <ele>35</ele>
        <time>2020-06-24T12:05:53.081Z</time>
      </trkpt>
      <trkpt lat="48.64842" lon="-2.34945">
        <ele>35</ele>
        <time>2020-06-24T12:05:54.081Z</time>
      </trkpt>
      <trkpt lat="48.64843" lon="-2.34946">
        <ele>35</ele>
        <time>2020-06-24T12:05:55.081Z</time>
      </trkpt>
      <trkpt lat="48.64845" lon="-2.34946">
        <ele>35</ele>
        <time>2020-06-24T12:05:56.081Z</time>
      </trkpt>
      <trkpt lat="48.64846" lon="-2.34947">
        <ele>35</ele>
        <time>2020-06-24T12:05:57.081Z</time>
      </trkpt>
      <trkpt lat="48.64847" lon="-2.34948">
        <ele>36</ele>
        <time>2020-06-24T12:05:58.081Z</time>
      </trkpt>
      <trkpt lat="48.64849" lon="-2.34948">
        <ele>36</ele>
        <time>2020-06-24T12:05:59.081Z</time>
      </trkpt>
      <trkpt lat="48.6485" lon="-2.34949">
        <ele>36</ele>
        <time>2020-06-24T12:06:00.081Z</time>
      </trkpt>
      <trkpt lat="48.64851" lon="-2.34949">
        <ele>36</ele>
        <time>2020-06-24T12:06:01.081Z</time>
      </trkpt>
      <trkpt lat="48.64853" lon="-2.3495">
        <ele>36</ele>
        <time>2020-06-24T12:06:02.081Z</time>
      </trkpt>
      <trkpt lat="48.64854" lon="-2.3495">
        <ele>36</ele>
        <time>2020-06-24T12:06:03.081Z</time>
      </trkpt>
      <trkpt lat="48.64856" lon="-2.34951">
        <ele>35</ele>
        <time>2020-06-24T12:06:04.081Z</time>
      </trkpt>
      <trkpt lat="48.64857" lon="-2.34951">
        <ele>35</ele>
        <time>2020-06-24T12:06:05.081Z</time>
      </trkpt>
      <trkpt lat="48.64859" lon="-2.34952">
        <ele>35</ele>
        <time>2020-06-24T12:06:06.081Z</time>
      </trkpt>
      <trkpt lat="48.6486" lon="-2.34952">
        <ele>35</ele>
        <time>2020-06-24T12:06:07.081Z</time>
      </trkpt>
      <trkpt lat="48.64861" lon="-2.34953">
        <ele>35</ele>
        <time>2020-06-24T12:06:08.081Z</time>
      </trkpt>
      <trkpt lat="48.64862" lon="-2.34954">
        <ele>34</ele>
        <time>2020-06-24T12:06:09.081Z</time>
      </trkpt>
      <trkpt lat="48.64863" lon="-2.34955">
        <ele>34</ele>
        <time>2020-06-24T12:06:10.081Z</time>
      </trkpt>
      <trkpt lat="48.64863" lon="-2.34957">
        <ele>34</ele>
        <time>2020-06-24T12:06:11.081Z</time>
      </trkpt>
      <trkpt lat="48.64862" lon="-2.34957">
        <ele>34</ele>
        <time>2020-06-24T12:06:12.081Z</time>
      </trkpt>
      <trkpt lat="48.64863" lon="-2.34958">
        <ele>34</ele>
        <time>2020-06-24T12:06:13.081Z</time>
      </trkpt>
      <trkpt lat="48.64863" lon="-2.34959">
        <ele>34</ele>
        <time>2020-06-24T12:06:14.081Z</time>
      </trkpt>
      <trkpt lat="48.64864" lon="-2.34959">
        <ele>34</ele>
        <time>2020-06-24T12:06:15.081Z</time>
      </trkpt>
      <trkpt lat="48.64865" lon="-2.3496">
        <ele>35</ele>
        <time>2020-06-24T12:06:16.081Z</time>
      </trkpt>
      <trkpt lat="48.64867" lon="-2.3496">
        <ele>36</ele>
        <time>2020-06-24T12:06:17.081Z</time>
      </trkpt>
      <trkpt lat="48.64868" lon="-2.34961">
        <ele>36</ele>
        <time>2020-06-24T12:06:18.081Z</time>
      </trkpt>
      <trkpt lat="48.64869" lon="-2.34961">
        <ele>36</ele>
        <time>2020-06-24T12:06:19.081Z</time>
      </trkpt>
      <trkpt lat="48.6487" lon="-2.34962">
        <ele>36</ele>
        <time>2020-06-24T12:06:20.081Z</time>
      </trkpt>
      <trkpt lat="48.64872" lon="-2.34963">
        <ele>36</ele>
        <time>2020-06-24T12:06:21.081Z</time>
      </trkpt>
      <trkpt lat="48.64873" lon="-2.34964">
        <ele>36</ele>
        <time>2020-06-24T12:06:22.081Z</time>
      </trkpt>
      <trkpt lat="48.64874" lon="-2.34966">
        <ele>36</ele>
        <time>2020-06-24T12:06:23.081Z</time>
      </trkpt>
      <trkpt lat="48.64875" lon="-2.34967">
        <ele>37</ele>
        <time>2020-06-24T12:06:24.081Z</time>
      </trkpt>
      <trkpt lat="48.64877" lon="-2.34969">
        <ele>36</ele>
        <time>2020-06-24T12:06:25.081Z</time>
      </trkpt>
      <trkpt lat="48.64878" lon="-2.34971">
        <ele>37</ele>
        <time>2020-06-24T12:06:26.081Z</time>
      </trkpt>
      <trkpt lat="48.64879" lon="-2.34973">
        <ele>37</ele>
        <time>2020-06-24T12:06:27.081Z</time>
      </trkpt>
      <trkpt lat="48.6488" lon="-2.34975">
        <ele>37</ele>
        <time>2020-06-24T12:06:28.081Z</time>
      </trkpt>
      <trkpt lat="48.64881" lon="-2.34977">
        <ele>38</ele>
        <time>2020-06-24T12:06:29.081Z</time>
      </trkpt>
      <trkpt lat="48.64882" lon="-2.34979">
        <ele>38</ele>
        <time>2020-06-24T12:06:30.081Z</time>
      </trkpt>
      <trkpt lat="48.64882" lon="-2.34982">
        <ele>38</ele>
        <time>2020-06-24T12:06:31.081Z</time>
      </trkpt>
      <trkpt lat="48.64882" lon="-2.34984">
        <ele>38</ele>
        <time>2020-06-24T12:06:32.081Z</time>
      </trkpt>
      <trkpt lat="48.64882" lon="-2.34986">
        <ele>38</ele>
        <time>2020-06-24T12:06:33.081Z</time>
      </trkpt>
      <trkpt lat="48.64883" lon="-2.34989">
        <ele>38</ele>
        <time>2020-06-24T12:06:34.081Z</time>
      </trkpt>
      <trkpt lat="48.64883" lon="-2.34991">
        <ele>38</ele>
        <time>2020-06-24T12:06:35.081Z</time>
      </trkpt>
      <trkpt lat="48.64883" lon="-2.34993">
        <ele>39</ele>
        <time>2020-06-24T12:06:36.081Z</time>
      </trkpt>
      <trkpt lat="48.64883" lon="-2.34995">
        <ele>38</ele>
        <time>2020-06-24T12:06:37.081Z</time>
      </trkpt>
      <trkpt lat="48.64884" lon="-2.34997">
        <ele>38</ele>
        <time>2020-06-24T12:06:38.081Z</time>
      </trkpt>
      <trkpt lat="48.64884" lon="-2.34999">
        <ele>38</ele>
        <time>2020-06-24T12:06:39.081Z</time>
      </trkpt>
      <trkpt lat="48.64884" lon="-2.35001">
        <ele>38</ele>
        <time>2020-06-24T12:06:40.081Z</time>
      </trkpt>
      <trkpt lat="48.64884" lon="-2.35003">
        <ele>38</ele>
        <time>2020-06-24T12:06:41.081Z</time>
      </trkpt>
      <trkpt lat="48.64884" lon="-2.35005">
        <ele>39</ele>
        <time>2020-06-24T12:06:42.081Z</time>
      </trkpt>
      <trkpt lat="48.64884" lon="-2.35007">
        <ele>39</ele>
        <time>2020-06-24T12:06:43.081Z</time>
      </trkpt>
      <trkpt lat="48.64884" lon="-2.35008">
        <ele>39</ele>
        <time>2020-06-24T12:06:44.081Z</time>
      </trkpt>
      <trkpt lat="48.64885" lon="-2.3501">
        <ele>39</ele>
        <time>2020-06-24T12:06:45.081Z</time>
      </trkpt>
      <trkpt lat="48.64885" lon="-2.35012">
        <ele>38</ele>
        <time>2020-06-24T12:06:46.081Z</time>
      </trkpt>
      <trkpt lat="48.64885" lon="-2.35014">
        <ele>38</ele>
        <time>2020-06-24T12:06:47.081Z</time>
      </trkpt>
      <trkpt lat="48.64885" lon="-2.35016">
        <ele>38</ele>
        <time>2020-06-24T12:06:48.081Z</time>
      </trkpt>
      <trkpt lat="48.64885" lon="-2.35018">
        <ele>38</ele>
        <time>2020-06-24T12:06:49.081Z</time>
      </trkpt>
      <trkpt lat="48.64885" lon="-2.35019">
        <ele>38</ele>
        <time>2020-06-24T12:06:50.081Z</time>
      </trkpt>
      <trkpt lat="48.64885" lon="-2.35021">
        <ele>39</ele>
        <time>2020-06-24T12:06:51.081Z</time>
      </trkpt>
      <trkpt lat="48.64886" lon="-2.35023">
        <ele>39</ele>
        <time>2020-06-24T12:06:52.081Z</time>
      </trkpt>
      <trkpt lat="48.64886" lon="-2.35025">
        <ele>39</ele>
        <time>2020-06-24T12:06:53.081Z</time>
      </trkpt>
      <trkpt lat="48.64887" lon="-2.35027">
        <ele>39</ele>
        <time>2020-06-24T12:06:54.081Z</time>
      </trkpt>
      <trkpt lat="48.64887" lon="-2.35029">
        <ele>39</ele>
        <time>2020-06-24T12:06:55.081Z</time>
      </trkpt>
      <trkpt lat="48.64888" lon="-2.3503">
        <ele>40</ele>
        <time>2020-06-24T12:06:56.081Z</time>
      </trkpt>
      <trkpt lat="48.64888" lon="-2.35032">
        <ele>40</ele>
        <time>2020-06-24T12:06:57.081Z</time>
      </trkpt>
      <trkpt lat="48.64889" lon="-2.35034">
        <ele>40</ele>
        <time>2020-06-24T12:06:58.081Z</time>
      </trkpt>
      <trkpt lat="48.6489" lon="-2.35035">
        <ele>40</ele>
        <time>2020-06-24T12:06:59.081Z</time>
      </trkpt>
      <trkpt lat="48.64891" lon="-2.35037">
        <ele>40</ele>
        <time>2020-06-24T12:07:00.081Z</time>
      </trkpt>
      <trkpt lat="48.64892" lon="-2.35039">
        <ele>39</ele>
        <time>2020-06-24T12:07:01.081Z</time>
      </trkpt>
      <trkpt lat="48.64892" lon="-2.3504">
        <ele>39</ele>
        <time>2020-06-24T12:07:02.081Z</time>
      </trkpt>
      <trkpt lat="48.64893" lon="-2.35042">
        <ele>39</ele>
        <time>2020-06-24T12:07:03.081Z</time>
      </trkpt>
      <trkpt lat="48.64894" lon="-2.35043">
        <ele>39</ele>
        <time>2020-06-24T12:07:04.081Z</time>
      </trkpt>
      <trkpt lat="48.64896" lon="-2.35045">
        <ele>39</ele>
        <time>2020-06-24T12:07:05.081Z</time>
      </trkpt>
      <trkpt lat="48.64897" lon="-2.35046">
        <ele>38</ele>
        <time>2020-06-24T12:07:06.081Z</time>
      </trkpt>
      <trkpt lat="48.64898" lon="-2.35047">
        <ele>37</ele>
        <time>2020-06-24T12:07:07.081Z</time>
      </trkpt>
      <trkpt lat="48.64899" lon="-2.35049">
        <ele>37</ele>
        <time>2020-06-24T12:07:08.081Z</time>
      </trkpt>
      <trkpt lat="48.649" lon="-2.3505">
        <ele>36</ele>
        <time>2020-06-24T12:07:09.081Z</time>
      </trkpt>
      <trkpt lat="48.64901" lon="-2.35051">
        <ele>36</ele>
        <time>2020-06-24T12:07:10.081Z</time>
      </trkpt>
      <trkpt lat="48.64902" lon="-2.35052">
        <ele>35</ele>
        <time>2020-06-24T12:07:11.081Z</time>
      </trkpt>
      <trkpt lat="48.64903" lon="-2.35053">
        <ele>34</ele>
        <time>2020-06-24T12:07:12.081Z</time>
      </trkpt>
      <trkpt lat="48.64904" lon="-2.35054">
        <ele>35</ele>
        <time>2020-06-24T12:07:13.081Z</time>
      </trkpt>
      <trkpt lat="48.64905" lon="-2.35055">
        <ele>35</ele>
        <time>2020-06-24T12:07:14.081Z</time>
      </trkpt>
      <trkpt lat="48.64907" lon="-2.35056">
        <ele>35</ele>
        <time>2020-06-24T12:07:15.081Z</time>
      </trkpt>
      <trkpt lat="48.64908" lon="-2.35058">
        <ele>35</ele>
        <time>2020-06-24T12:07:16.081Z</time>
      </trkpt>
      <trkpt lat="48.64909" lon="-2.35059">
        <ele>35</ele>
        <time>2020-06-24T12:07:17.081Z</time>
      </trkpt>
      <trkpt lat="48.6491" lon="-2.3506">
        <ele>35</ele>
        <time>2020-06-24T12:07:18.081Z</time>
      </trkpt>
      <trkpt lat="48.64911" lon="-2.35061">
        <ele>35</ele>
        <time>2020-06-24T12:07:19.081Z</time>
      </trkpt>
      <trkpt lat="48.64913" lon="-2.35062">
        <ele>35</ele>
        <time>2020-06-24T12:07:20.081Z</time>
      </trkpt>
      <trkpt lat="48.64914" lon="-2.35063">
        <ele>35</ele>
        <time>2020-06-24T12:07:21.081Z</time>
      </trkpt>
      <trkpt lat="48.64916" lon="-2.35064">
        <ele>36</ele>
        <time>2020-06-24T12:07:22.081Z</time>
      </trkpt>
      <trkpt lat="48.64917" lon="-2.35065">
        <ele>36</ele>
        <time>2020-06-24T12:07:23.081Z</time>
      </trkpt>
      <trkpt lat="48.64918" lon="-2.35065">
        <ele>35</ele>
        <time>2020-06-24T12:07:24.081Z</time>
      </trkpt>
      <trkpt lat="48.6492" lon="-2.35066">
        <ele>36</ele>
        <time>2020-06-24T12:07:25.081Z</time>
      </trkpt>
      <trkpt lat="48.64921" lon="-2.35067">
        <ele>36</ele>
        <time>2020-06-24T12:07:26.081Z</time>
      </trkpt>
      <trkpt lat="48.64922" lon="-2.35068">
        <ele>36</ele>
        <time>2020-06-24T12:07:27.081Z</time>
      </trkpt>
      <trkpt lat="48.64923" lon="-2.35068">
        <ele>37</ele>
        <time>2020-06-24T12:07:28.081Z</time>
      </trkpt>
      <trkpt lat="48.64924" lon="-2.35069">
        <ele>37</ele>
        <time>2020-06-24T12:07:29.081Z</time>
      </trkpt>
      <trkpt lat="48.64926" lon="-2.35069">
        <ele>38</ele>
        <time>2020-06-24T12:07:30.081Z</time>
      </trkpt>
      <trkpt lat="48.64927" lon="-2.35069">
        <ele>38</ele>
        <time>2020-06-24T12:07:31.081Z</time>
      </trkpt>
      <trkpt lat="48.64929" lon="-2.35069">
        <ele>39</ele>
        <time>2020-06-24T12:07:32.081Z</time>
      </trkpt>
      <trkpt lat="48.6493" lon="-2.3507">
        <ele>39</ele>
        <time>2020-06-24T12:07:33.081Z</time>
      </trkpt>
      <trkpt lat="48.64932" lon="-2.3507">
        <ele>39</ele>
        <time>2020-06-24T12:07:34.081Z</time>
      </trkpt>
      <trkpt lat="48.64933" lon="-2.3507">
        <ele>40</ele>
        <time>2020-06-24T12:07:35.081Z</time>
      </trkpt>
      <trkpt lat="48.64935" lon="-2.3507">
        <ele>40</ele>
        <time>2020-06-24T12:07:36.081Z</time>
      </trkpt>
      <trkpt lat="48.64936" lon="-2.3507">
        <ele>40</ele>
        <time>2020-06-24T12:07:37.081Z</time>
      </trkpt>
      <trkpt lat="48.64938" lon="-2.35069">
        <ele>40</ele>
        <time>2020-06-24T12:07:38.081Z</time>
      </trkpt>
      <trkpt lat="48.6494" lon="-2.35069">
        <ele>40</ele>
        <time>2020-06-24T12:07:39.081Z</time>
      </trkpt>
      <trkpt lat="48.64941" lon="-2.35069">
        <ele>41</ele>
        <time>2020-06-24T12:07:40.081Z</time>
      </trkpt>
      <trkpt lat="48.64943" lon="-2.35069">
        <ele>41</ele>
        <time>2020-06-24T12:07:41.081Z</time>
      </trkpt>
      <trkpt lat="48.64944" lon="-2.35069">
        <ele>41</ele>
        <time>2020-06-24T12:07:42.081Z</time>
      </trkpt>
      <trkpt lat="48.64945" lon="-2.35069">
        <ele>41</ele>
        <time>2020-06-24T12:07:43.081Z</time>
      </trkpt>
      <trkpt lat="48.64947" lon="-2.35068">
        <ele>41</ele>
        <time>2020-06-24T12:07:44.081Z</time>
      </trkpt>
      <trkpt lat="48.64948" lon="-2.35068">
        <ele>40</ele>
        <time>2020-06-24T12:07:45.081Z</time>
      </trkpt>
      <trkpt lat="48.64949" lon="-2.35068">
        <ele>41</ele>
        <time>2020-06-24T12:07:46.081Z</time>
      </trkpt>
      <trkpt lat="48.64951" lon="-2.35068">
        <ele>41</ele>
        <time>2020-06-24T12:07:47.081Z</time>
      </trkpt>
      <trkpt lat="48.64952" lon="-2.35068">
        <ele>40</ele>
        <time>2020-06-24T12:07:48.081Z</time>
      </trkpt>
      <trkpt lat="48.64954" lon="-2.35069">
        <ele>40</ele>
        <time>2020-06-24T12:07:49.081Z</time>
      </trkpt>
      <trkpt lat="48.64955" lon="-2.3507">
        <ele>39</ele>
        <time>2020-06-24T12:07:50.081Z</time>
      </trkpt>
      <trkpt lat="48.64957" lon="-2.3507">
        <ele>39</ele>
        <time>2020-06-24T12:07:51.081Z</time>
      </trkpt>
      <trkpt lat="48.64959" lon="-2.35071">
        <ele>39</ele>
        <time>2020-06-24T12:07:52.081Z</time>
      </trkpt>
      <trkpt lat="48.6496" lon="-2.35071">
        <ele>39</ele>
        <time>2020-06-24T12:07:53.081Z</time>
      </trkpt>
      <trkpt lat="48.64962" lon="-2.35071">
        <ele>39</ele>
        <time>2020-06-24T12:07:54.081Z</time>
      </trkpt>
      <trkpt lat="48.64963" lon="-2.35071">
        <ele>39</ele>
        <time>2020-06-24T12:07:55.081Z</time>
      </trkpt>
      <trkpt lat="48.64965" lon="-2.35071">
        <ele>39</ele>
        <time>2020-06-24T12:07:56.081Z</time>
      </trkpt>
      <trkpt lat="48.64966" lon="-2.35071">
        <ele>39</ele>
        <time>2020-06-24T12:07:57.081Z</time>
      </trkpt>
      <trkpt lat="48.64968" lon="-2.3507">
        <ele>39</ele>
        <time>2020-06-24T12:07:58.081Z</time>
      </trkpt>
      <trkpt lat="48.64969" lon="-2.3507">
        <ele>39</ele>
        <time>2020-06-24T12:07:59.081Z</time>
      </trkpt>
      <trkpt lat="48.6497" lon="-2.3507">
        <ele>39</ele>
        <time>2020-06-24T12:08:00.081Z</time>
      </trkpt>
      <trkpt lat="48.64972" lon="-2.3507">
        <ele>39</ele>
        <time>2020-06-24T12:08:01.081Z</time>
      </trkpt>
      <trkpt lat="48.64973" lon="-2.35071">
        <ele>39</ele>
        <time>2020-06-24T12:08:02.081Z</time>
      </trkpt>
      <trkpt lat="48.64974" lon="-2.35072">
        <ele>39</ele>
        <time>2020-06-24T12:08:03.081Z</time>
      </trkpt>
      <trkpt lat="48.64976" lon="-2.35073">
        <ele>38</ele>
        <time>2020-06-24T12:08:04.081Z</time>
      </trkpt>
      <trkpt lat="48.64977" lon="-2.35075">
        <ele>38</ele>
        <time>2020-06-24T12:08:05.081Z</time>
      </trkpt>
      <trkpt lat="48.64978" lon="-2.35078">
        <ele>37</ele>
        <time>2020-06-24T12:08:06.081Z</time>
      </trkpt>
      <trkpt lat="48.64978" lon="-2.3508">
        <ele>37</ele>
        <time>2020-06-24T12:08:07.081Z</time>
      </trkpt>
      <trkpt lat="48.64979" lon="-2.35082">
        <ele>37</ele>
        <time>2020-06-24T12:08:08.081Z</time>
      </trkpt>
      <trkpt lat="48.64979" lon="-2.35084">
        <ele>37</ele>
        <time>2020-06-24T12:08:09.081Z</time>
      </trkpt>
      <trkpt lat="48.6498" lon="-2.35086">
        <ele>37</ele>
        <time>2020-06-24T12:08:10.081Z</time>
      </trkpt>
      <trkpt lat="48.6498" lon="-2.35088">
        <ele>37</ele>
        <time>2020-06-24T12:08:11.081Z</time>
      </trkpt>
      <trkpt lat="48.6498" lon="-2.3509">
        <ele>36</ele>
        <time>2020-06-24T12:08:12.081Z</time>
      </trkpt>
      <trkpt lat="48.6498" lon="-2.35092">
        <ele>36</ele>
        <time>2020-06-24T12:08:13.081Z</time>
      </trkpt>
      <trkpt lat="48.6498" lon="-2.35094">
        <ele>36</ele>
        <time>2020-06-24T12:08:14.081Z</time>
      </trkpt>
      <trkpt lat="48.6498" lon="-2.35096">
        <ele>36</ele>
        <time>2020-06-24T12:08:15.081Z</time>
      </trkpt>
      <trkpt lat="48.64981" lon="-2.35098">
        <ele>36</ele>
        <time>2020-06-24T12:08:16.081Z</time>
      </trkpt>
      <trkpt lat="48.64981" lon="-2.351">
        <ele>36</ele>
        <time>2020-06-24T12:08:17.081Z</time>
      </trkpt>
      <trkpt lat="48.64981" lon="-2.35103">
        <ele>36</ele>
        <time>2020-06-24T12:08:18.081Z</time>
      </trkpt>
      <trkpt lat="48.64981" lon="-2.35105">
        <ele>37</ele>
        <time>2020-06-24T12:08:19.081Z</time>
      </trkpt>
      <trkpt lat="48.64982" lon="-2.35107">
        <ele>37</ele>
        <time>2020-06-24T12:08:20.081Z</time>
      </trkpt>
      <trkpt lat="48.64982" lon="-2.3511">
        <ele>37</ele>
        <time>2020-06-24T12:08:21.081Z</time>
      </trkpt>
      <trkpt lat="48.64982" lon="-2.35112">
        <ele>37</ele>
        <time>2020-06-24T12:08:22.081Z</time>
      </trkpt>
      <trkpt lat="48.64983" lon="-2.35114">
        <ele>37</ele>
        <time>2020-06-24T12:08:23.081Z</time>
      </trkpt>
      <trkpt lat="48.64983" lon="-2.35116">
        <ele>37</ele>
        <time>2020-06-24T12:08:24.081Z</time>
      </trkpt>
      <trkpt lat="48.64984" lon="-2.35118">
        <ele>37</ele>
        <time>2020-06-24T12:08:25.081Z</time>
      </trkpt>
      <trkpt lat="48.64984" lon="-2.3512">
        <ele>37</ele>
        <time>2020-06-24T12:08:26.081Z</time>
      </trkpt>
      <trkpt lat="48.64985" lon="-2.35122">
        <ele>36</ele>
        <time>2020-06-24T12:08:27.081Z</time>
      </trkpt>
      <trkpt lat="48.64986" lon="-2.35124">
        <ele>37</ele>
        <time>2020-06-24T12:08:28.081Z</time>
      </trkpt>
      <trkpt lat="48.64986" lon="-2.35126">
        <ele>36</ele>
        <time>2020-06-24T12:08:29.081Z</time>
      </trkpt>
      <trkpt lat="48.64987" lon="-2.35128">
        <ele>36</ele>
        <time>2020-06-24T12:08:30.081Z</time>
      </trkpt>
      <trkpt lat="48.64988" lon="-2.3513">
        <ele>35</ele>
        <time>2020-06-24T12:08:31.081Z</time>
      </trkpt>
      <trkpt lat="48.64989" lon="-2.35131">
        <ele>35</ele>
        <time>2020-06-24T12:08:32.081Z</time>
      </trkpt>
      <trkpt lat="48.6499" lon="-2.35133">
        <ele>35</ele>
        <time>2020-06-24T12:08:33.081Z</time>
      </trkpt>
      <trkpt lat="48.6499" lon="-2.35135">
        <ele>35</ele>
        <time>2020-06-24T12:08:34.081Z</time>
      </trkpt>
      <trkpt lat="48.64991" lon="-2.35136">
        <ele>35</ele>
        <time>2020-06-24T12:08:35.081Z</time>
      </trkpt>
      <trkpt lat="48.64992" lon="-2.35138">
        <ele>35</ele>
        <time>2020-06-24T12:08:36.081Z</time>
      </trkpt>
      <trkpt lat="48.64993" lon="-2.3514">
        <ele>35</ele>
        <time>2020-06-24T12:08:37.081Z</time>
      </trkpt>
      <trkpt lat="48.64994" lon="-2.35142">
        <ele>35</ele>
        <time>2020-06-24T12:08:38.081Z</time>
      </trkpt>
      <trkpt lat="48.64995" lon="-2.35144">
        <ele>35</ele>
        <time>2020-06-24T12:08:39.081Z</time>
      </trkpt>
      <trkpt lat="48.64996" lon="-2.35146">
        <ele>35</ele>
        <time>2020-06-24T12:08:40.081Z</time>
      </trkpt>
      <trkpt lat="48.64997" lon="-2.35148">
        <ele>35</ele>
        <time>2020-06-24T12:08:41.081Z</time>
      </trkpt>
      <trkpt lat="48.64997" lon="-2.3515">
        <ele>35</ele>
        <time>2020-06-24T12:08:42.081Z</time>
      </trkpt>
      <trkpt lat="48.64998" lon="-2.35152">
        <ele>35</ele>
        <time>2020-06-24T12:08:43.081Z</time>
      </trkpt>
      <trkpt lat="48.64999" lon="-2.35154">
        <ele>35</ele>
        <time>2020-06-24T12:08:44.081Z</time>
      </trkpt>
      <trkpt lat="48.64999" lon="-2.35156">
        <ele>35</ele>
        <time>2020-06-24T12:08:45.081Z</time>
      </trkpt>
      <trkpt lat="48.65" lon="-2.35158">
        <ele>34</ele>
        <time>2020-06-24T12:08:46.081Z</time>
      </trkpt>
      <trkpt lat="48.65001" lon="-2.3516">
        <ele>35</ele>
        <time>2020-06-24T12:08:47.081Z</time>
      </trkpt>
      <trkpt lat="48.65002" lon="-2.35161">
        <ele>35</ele>
        <time>2020-06-24T12:08:48.081Z</time>
      </trkpt>
      <trkpt lat="48.65003" lon="-2.35163">
        <ele>35</ele>
        <time>2020-06-24T12:08:49.081Z</time>
      </trkpt>
      <trkpt lat="48.65003" lon="-2.35165">
        <ele>35</ele>
        <time>2020-06-24T12:08:50.081Z</time>
      </trkpt>
      <trkpt lat="48.65004" lon="-2.35167">
        <ele>35</ele>
        <time>2020-06-24T12:08:51.081Z</time>
      </trkpt>
      <trkpt lat="48.65005" lon="-2.35169">
        <ele>35</ele>
        <time>2020-06-24T12:08:52.081Z</time>
      </trkpt>
      <trkpt lat="48.65006" lon="-2.3517">
        <ele>34</ele>
        <time>2020-06-24T12:08:53.081Z</time>
      </trkpt>
      <trkpt lat="48.65006" lon="-2.35171">
        <ele>34</ele>
        <time>2020-06-24T12:08:54.081Z</time>
      </trkpt>
      <trkpt lat="48.65007" lon="-2.35173">
        <ele>34</ele>
        <time>2020-06-24T12:08:55.081Z</time>
      </trkpt>
      <trkpt lat="48.65008" lon="-2.35174">
        <ele>34</ele>
        <time>2020-06-24T12:08:56.081Z</time>
      </trkpt>
      <trkpt lat="48.65009" lon="-2.35176">
        <ele>34</ele>
        <time>2020-06-24T12:08:57.081Z</time>
      </trkpt>
      <trkpt lat="48.6501" lon="-2.35178">
        <ele>33</ele>
        <time>2020-06-24T12:08:58.081Z</time>
      </trkpt>
      <trkpt lat="48.6501" lon="-2.35179">
        <ele>33</ele>
        <time>2020-06-24T12:08:59.081Z</time>
      </trkpt>
      <trkpt lat="48.65011" lon="-2.35181">
        <ele>33</ele>
        <time>2020-06-24T12:09:00.081Z</time>
      </trkpt>
      <trkpt lat="48.65012" lon="-2.35183">
        <ele>33</ele>
        <time>2020-06-24T12:09:01.081Z</time>
      </trkpt>
      <trkpt lat="48.65012" lon="-2.35185">
        <ele>33</ele>
        <time>2020-06-24T12:09:02.081Z</time>
      </trkpt>
      <trkpt lat="48.65013" lon="-2.35187">
        <ele>32</ele>
        <time>2020-06-24T12:09:03.081Z</time>
      </trkpt>
      <trkpt lat="48.65013" lon="-2.35189">
        <ele>32</ele>
        <time>2020-06-24T12:09:04.081Z</time>
      </trkpt>
      <trkpt lat="48.65014" lon="-2.35191">
        <ele>32</ele>
        <time>2020-06-24T12:09:05.081Z</time>
      </trkpt>
      <trkpt lat="48.65015" lon="-2.35192">
        <ele>32</ele>
        <time>2020-06-24T12:09:06.081Z</time>
      </trkpt>
      <trkpt lat="48.65015" lon="-2.35194">
        <ele>32</ele>
        <time>2020-06-24T12:09:07.081Z</time>
      </trkpt>
      <trkpt lat="48.65016" lon="-2.35196">
        <ele>32</ele>
        <time>2020-06-24T12:09:08.081Z</time>
      </trkpt>
      <trkpt lat="48.65017" lon="-2.35198">
        <ele>32</ele>
        <time>2020-06-24T12:09:09.081Z</time>
      </trkpt>
      <trkpt lat="48.65017" lon="-2.35199">
        <ele>32</ele>
        <time>2020-06-24T12:09:10.081Z</time>
      </trkpt>
      <trkpt lat="48.65018" lon="-2.35201">
        <ele>32</ele>
        <time>2020-06-24T12:09:11.081Z</time>
      </trkpt>
      <trkpt lat="48.65019" lon="-2.35203">
        <ele>32</ele>
        <time>2020-06-24T12:09:12.081Z</time>
      </trkpt>
      <trkpt lat="48.65019" lon="-2.35205">
        <ele>32</ele>
        <time>2020-06-24T12:09:13.081Z</time>
      </trkpt>
      <trkpt lat="48.6502" lon="-2.35207">
        <ele>32</ele>
        <time>2020-06-24T12:09:14.081Z</time>
      </trkpt>
      <trkpt lat="48.6502" lon="-2.35209">
        <ele>32</ele>
        <time>2020-06-24T12:09:15.081Z</time>
      </trkpt>
      <trkpt lat="48.65021" lon="-2.35211">
        <ele>32</ele>
        <time>2020-06-24T12:09:16.081Z</time>
      </trkpt>
      <trkpt lat="48.65021" lon="-2.35213">
        <ele>32</ele>
        <time>2020-06-24T12:09:17.081Z</time>
      </trkpt>
      <trkpt lat="48.65022" lon="-2.35215">
        <ele>32</ele>
        <time>2020-06-24T12:09:18.081Z</time>
      </trkpt>
      <trkpt lat="48.65022" lon="-2.35217">
        <ele>32</ele>
        <time>2020-06-24T12:09:19.081Z</time>
      </trkpt>
      <trkpt lat="48.65022" lon="-2.35219">
        <ele>32</ele>
        <time>2020-06-24T12:09:20.081Z</time>
      </trkpt>
      <trkpt lat="48.65023" lon="-2.3522">
        <ele>32</ele>
        <time>2020-06-24T12:09:21.081Z</time>
      </trkpt>
      <trkpt lat="48.65023" lon="-2.35222">
        <ele>32</ele>
        <time>2020-06-24T12:09:22.081Z</time>
      </trkpt>
      <trkpt lat="48.65024" lon="-2.35224">
        <ele>32</ele>
        <time>2020-06-24T12:09:23.081Z</time>
      </trkpt>
      <trkpt lat="48.65024" lon="-2.35226">
        <ele>32</ele>
        <time>2020-06-24T12:09:24.081Z</time>
      </trkpt>
      <trkpt lat="48.65024" lon="-2.35228">
        <ele>32</ele>
        <time>2020-06-24T12:09:25.081Z</time>
      </trkpt>
      <trkpt lat="48.65025" lon="-2.3523">
        <ele>32</ele>
        <time>2020-06-24T12:09:26.081Z</time>
      </trkpt>
      <trkpt lat="48.65025" lon="-2.35232">
        <ele>32</ele>
        <time>2020-06-24T12:09:27.081Z</time>
      </trkpt>
      <trkpt lat="48.65026" lon="-2.35234">
        <ele>32</ele>
        <time>2020-06-24T12:09:28.081Z</time>
      </trkpt>
      <trkpt lat="48.65026" lon="-2.35235">
        <ele>32</ele>
        <time>2020-06-24T12:09:29.081Z</time>
      </trkpt>
      <trkpt lat="48.65026" lon="-2.35237">
        <ele>32</ele>
        <time>2020-06-24T12:09:30.081Z</time>
      </trkpt>
      <trkpt lat="48.65026" lon="-2.35239">
        <ele>32</ele>
        <time>2020-06-24T12:09:31.081Z</time>
      </trkpt>
      <trkpt lat="48.65027" lon="-2.35241">
        <ele>32</ele>
        <time>2020-06-24T12:09:32.081Z</time>
      </trkpt>
      <trkpt lat="48.65027" lon="-2.35243">
        <ele>32</ele>
        <time>2020-06-24T12:09:33.081Z</time>
      </trkpt>
      <trkpt lat="48.65027" lon="-2.35244">
        <ele>32</ele>
        <time>2020-06-24T12:09:34.081Z</time>
      </trkpt>
      <trkpt lat="48.65027" lon="-2.35245">
        <ele>31</ele>
        <time>2020-06-24T12:09:35.081Z</time>
      </trkpt>
      <trkpt lat="48.65027" lon="-2.35246">
        <ele>32</ele>
        <time>2020-06-24T12:09:36.081Z</time>
      </trkpt>
      <trkpt lat="48.65027" lon="-2.35248">
        <ele>32</ele>
        <time>2020-06-24T12:09:37.081Z</time>
      </trkpt>
      <trkpt lat="48.65027" lon="-2.35249">
        <ele>31</ele>
        <time>2020-06-24T12:09:38.081Z</time>
      </trkpt>
      <trkpt lat="48.65027" lon="-2.3525">
        <ele>31</ele>
        <time>2020-06-24T12:09:39.081Z</time>
      </trkpt>
      <trkpt lat="48.65027" lon="-2.35251">
        <ele>32</ele>
        <time>2020-06-24T12:09:40.081Z</time>
      </trkpt>
      <trkpt lat="48.65027" lon="-2.35251">
        <ele>32</ele>
        <time>2020-06-24T12:09:41.081Z</time>
      </trkpt>
      <trkpt lat="48.65027" lon="-2.35251">
        <ele>32</ele>
        <time>2020-06-24T12:09:42.081Z</time>
      </trkpt>
      <trkpt lat="48.65027" lon="-2.35252">
        <ele>32</ele>
        <time>2020-06-24T12:09:43.081Z</time>
      </trkpt>
      <trkpt lat="48.65027" lon="-2.35252">
        <ele>32</ele>
        <time>2020-06-24T12:09:44.081Z</time>
      </trkpt>
      <trkpt lat="48.65027" lon="-2.35252">
        <ele>32</ele>
        <time>2020-06-24T12:09:45.081Z</time>
      </trkpt>
      <trkpt lat="48.65027" lon="-2.35252">
        <ele>32</ele>
        <time>2020-06-24T12:09:46.081Z</time>
      </trkpt>
      <trkpt lat="48.65027" lon="-2.35252">
        <ele>32</ele>
        <time>2020-06-24T12:09:47.081Z</time>
      </trkpt>
      <trkpt lat="48.65027" lon="-2.35252">
        <ele>32</ele>
        <time>2020-06-24T12:09:48.081Z</time>
      </trkpt>
      <trkpt lat="48.65027" lon="-2.35253">
        <ele>32</ele>
        <time>2020-06-24T12:09:49.081Z</time>
      </trkpt>
      <trkpt lat="48.65028" lon="-2.35255">
        <ele>32</ele>
        <time>2020-06-24T12:09:50.081Z</time>
      </trkpt>
      <trkpt lat="48.65028" lon="-2.35257">
        <ele>31</ele>
        <time>2020-06-24T12:09:51.081Z</time>
      </trkpt>
      <trkpt lat="48.65028" lon="-2.35258">
        <ele>31</ele>
        <time>2020-06-24T12:09:52.081Z</time>
      </trkpt>
      <trkpt lat="48.65028" lon="-2.3526">
        <ele>31</ele>
        <time>2020-06-24T12:09:53.081Z</time>
      </trkpt>
      <trkpt lat="48.65028" lon="-2.35262">
        <ele>31</ele>
        <time>2020-06-24T12:09:54.081Z</time>
      </trkpt>
      <trkpt lat="48.65029" lon="-2.35264">
        <ele>31</ele>
        <time>2020-06-24T12:09:55.081Z</time>
      </trkpt>
      <trkpt lat="48.65029" lon="-2.35266">
        <ele>31</ele>
        <time>2020-06-24T12:09:56.081Z</time>
      </trkpt>
      <trkpt lat="48.65029" lon="-2.35268">
        <ele>31</ele>
        <time>2020-06-24T12:09:57.081Z</time>
      </trkpt>
      <trkpt lat="48.65029" lon="-2.35271">
        <ele>31</ele>
        <time>2020-06-24T12:09:58.081Z</time>
      </trkpt>
      <trkpt lat="48.65029" lon="-2.35273">
        <ele>31</ele>
        <time>2020-06-24T12:09:59.081Z</time>
      </trkpt>
      <trkpt lat="48.6503" lon="-2.35275">
        <ele>32</ele>
        <time>2020-06-24T12:10:00.081Z</time>
      </trkpt>
      <trkpt lat="48.6503" lon="-2.35277">
        <ele>32</ele>
        <time>2020-06-24T12:10:01.081Z</time>
      </trkpt>
      <trkpt lat="48.6503" lon="-2.35279">
        <ele>32</ele>
        <time>2020-06-24T12:10:02.081Z</time>
      </trkpt>
      <trkpt lat="48.65031" lon="-2.35281">
        <ele>32</ele>
        <time>2020-06-24T12:10:03.081Z</time>
      </trkpt>
      <trkpt lat="48.65031" lon="-2.35283">
        <ele>32</ele>
        <time>2020-06-24T12:10:04.081Z</time>
      </trkpt>
      <trkpt lat="48.65031" lon="-2.35285">
        <ele>32</ele>
        <time>2020-06-24T12:10:05.081Z</time>
      </trkpt>
      <trkpt lat="48.65032" lon="-2.35287">
        <ele>32</ele>
        <time>2020-06-24T12:10:06.081Z</time>
      </trkpt>
      <trkpt lat="48.65032" lon="-2.35289">
        <ele>32</ele>
        <time>2020-06-24T12:10:07.081Z</time>
      </trkpt>
      <trkpt lat="48.65032" lon="-2.35291">
        <ele>32</ele>
        <time>2020-06-24T12:10:08.081Z</time>
      </trkpt>
      <trkpt lat="48.65032" lon="-2.35293">
        <ele>31</ele>
        <time>2020-06-24T12:10:09.081Z</time>
      </trkpt>
      <trkpt lat="48.65032" lon="-2.35295">
        <ele>31</ele>
        <time>2020-06-24T12:10:10.081Z</time>
      </trkpt>
      <trkpt lat="48.65032" lon="-2.35297">
        <ele>31</ele>
        <time>2020-06-24T12:10:11.081Z</time>
      </trkpt>
      <trkpt lat="48.65032" lon="-2.35299">
        <ele>31</ele>
        <time>2020-06-24T12:10:12.081Z</time>
      </trkpt>
      <trkpt lat="48.65032" lon="-2.35301">
        <ele>31</ele>
        <time>2020-06-24T12:10:13.081Z</time>
      </trkpt>
      <trkpt lat="48.65032" lon="-2.35303">
        <ele>31</ele>
        <time>2020-06-24T12:10:14.081Z</time>
      </trkpt>
      <trkpt lat="48.65033" lon="-2.35305">
        <ele>31</ele>
        <time>2020-06-24T12:10:15.081Z</time>
      </trkpt>
      <trkpt lat="48.65033" lon="-2.35307">
        <ele>31</ele>
        <time>2020-06-24T12:10:16.081Z</time>
      </trkpt>
      <trkpt lat="48.65033" lon="-2.35309">
        <ele>31</ele>
        <time>2020-06-24T12:10:17.081Z</time>
      </trkpt>
      <trkpt lat="48.65033" lon="-2.35311">
        <ele>31</ele>
        <time>2020-06-24T12:10:18.081Z</time>
      </trkpt>
      <trkpt lat="48.65033" lon="-2.35313">
        <ele>31</ele>
        <time>2020-06-24T12:10:19.081Z</time>
      </trkpt>
      <trkpt lat="48.65033" lon="-2.35315">
        <ele>30</ele>
        <time>2020-06-24T12:10:20.081Z</time>
      </trkpt>
      <trkpt lat="48.65034" lon="-2.35318">
        <ele>31</ele>
        <time>2020-06-24T12:10:21.081Z</time>
      </trkpt>
      <trkpt lat="48.65034" lon="-2.3532">
        <ele>31</ele>
        <time>2020-06-24T12:10:22.081Z</time>
      </trkpt>
      <trkpt lat="48.65035" lon="-2.35321">
        <ele>31</ele>
        <time>2020-06-24T12:10:23.081Z</time>
      </trkpt>
      <trkpt lat="48.65035" lon="-2.35323">
        <ele>31</ele>
        <time>2020-06-24T12:10:24.081Z</time>
      </trkpt>
      <trkpt lat="48.65035" lon="-2.35325">
        <ele>31</ele>
        <time>2020-06-24T12:10:25.081Z</time>
      </trkpt>
      <trkpt lat="48.65036" lon="-2.35327">
        <ele>31</ele>
        <time>2020-06-24T12:10:26.081Z</time>
      </trkpt>
      <trkpt lat="48.65036" lon="-2.35329">
        <ele>31</ele>
        <time>2020-06-24T12:10:27.081Z</time>
      </trkpt>
      <trkpt lat="48.65036" lon="-2.35331">
        <ele>31</ele>
        <time>2020-06-24T12:10:28.081Z</time>
      </trkpt>
      <trkpt lat="48.65036" lon="-2.35333">
        <ele>31</ele>
        <time>2020-06-24T12:10:29.081Z</time>
      </trkpt>
      <trkpt lat="48.65036" lon="-2.35335">
        <ele>30</ele>
        <time>2020-06-24T12:10:30.081Z</time>
      </trkpt>
      <trkpt lat="48.65037" lon="-2.35338">
        <ele>31</ele>
        <time>2020-06-24T12:10:31.081Z</time>
      </trkpt>
      <trkpt lat="48.65037" lon="-2.3534">
        <ele>31</ele>
        <time>2020-06-24T12:10:32.081Z</time>
      </trkpt>
      <trkpt lat="48.65037" lon="-2.35342">
        <ele>31</ele>
        <time>2020-06-24T12:10:33.081Z</time>
      </trkpt>
      <trkpt lat="48.65038" lon="-2.35344">
        <ele>31</ele>
        <time>2020-06-24T12:10:34.081Z</time>
      </trkpt>
      <trkpt lat="48.65038" lon="-2.35346">
        <ele>31</ele>
        <time>2020-06-24T12:10:35.081Z</time>
      </trkpt>
      <trkpt lat="48.65038" lon="-2.35348">
        <ele>31</ele>
        <time>2020-06-24T12:10:36.081Z</time>
      </trkpt>
      <trkpt lat="48.65039" lon="-2.3535">
        <ele>31</ele>
        <time>2020-06-24T12:10:37.081Z</time>
      </trkpt>
      <trkpt lat="48.65039" lon="-2.35352">
        <ele>31</ele>
        <time>2020-06-24T12:10:38.081Z</time>
      </trkpt>
      <trkpt lat="48.65039" lon="-2.35354">
        <ele>31</ele>
        <time>2020-06-24T12:10:39.081Z</time>
      </trkpt>
      <trkpt lat="48.65039" lon="-2.35356">
        <ele>31</ele>
        <time>2020-06-24T12:10:40.081Z</time>
      </trkpt>
      <trkpt lat="48.6504" lon="-2.35358">
        <ele>32</ele>
        <time>2020-06-24T12:10:41.081Z</time>
      </trkpt>
      <trkpt lat="48.6504" lon="-2.3536">
        <ele>32</ele>
        <time>2020-06-24T12:10:42.081Z</time>
      </trkpt>
      <trkpt lat="48.6504" lon="-2.35362">
        <ele>32</ele>
        <time>2020-06-24T12:10:43.081Z</time>
      </trkpt>
      <trkpt lat="48.6504" lon="-2.35364">
        <ele>32</ele>
        <time>2020-06-24T12:10:44.081Z</time>
      </trkpt>
      <trkpt lat="48.65041" lon="-2.35366">
        <ele>32</ele>
        <time>2020-06-24T12:10:45.081Z</time>
      </trkpt>
      <trkpt lat="48.65041" lon="-2.35368">
        <ele>32</ele>
        <time>2020-06-24T12:10:46.081Z</time>
      </trkpt>
      <trkpt lat="48.65042" lon="-2.3537">
        <ele>32</ele>
        <time>2020-06-24T12:10:47.081Z</time>
      </trkpt>
      <trkpt lat="48.65042" lon="-2.35372">
        <ele>32</ele>
        <time>2020-06-24T12:10:48.081Z</time>
      </trkpt>
      <trkpt lat="48.65042" lon="-2.35374">
        <ele>32</ele>
        <time>2020-06-24T12:10:49.081Z</time>
      </trkpt>
      <trkpt lat="48.65043" lon="-2.35375">
        <ele>32</ele>
        <time>2020-06-24T12:10:50.081Z</time>
      </trkpt>
      <trkpt lat="48.65042" lon="-2.35376">
        <ele>32</ele>
        <time>2020-06-24T12:10:51.081Z</time>
      </trkpt>
      <trkpt lat="48.65042" lon="-2.35376">
        <ele>32</ele>
        <time>2020-06-24T12:10:52.081Z</time>
      </trkpt>
      <trkpt lat="48.65042" lon="-2.35376">
        <ele>32</ele>
        <time>2020-06-24T12:10:53.081Z</time>
      </trkpt>
      <trkpt lat="48.65044" lon="-2.3538">
        <ele>32</ele>
        <time>2020-06-24T12:10:54.077Z</time>
      </trkpt>
      <trkpt lat="48.65044" lon="-2.35381">
        <ele>32</ele>
        <time>2020-06-24T12:10:55.077Z</time>
      </trkpt>
      <trkpt lat="48.65044" lon="-2.35382">
        <ele>32</ele>
        <time>2020-06-24T12:10:56.077Z</time>
      </trkpt>
      <trkpt lat="48.65045" lon="-2.35384">
        <ele>32</ele>
        <time>2020-06-24T12:10:57.077Z</time>
      </trkpt>
      <trkpt lat="48.65045" lon="-2.35386">
        <ele>32</ele>
        <time>2020-06-24T12:10:58.077Z</time>
      </trkpt>
      <trkpt lat="48.65046" lon="-2.35387">
        <ele>32</ele>
        <time>2020-06-24T12:10:59.077Z</time>
      </trkpt>
      <trkpt lat="48.65046" lon="-2.35389">
        <ele>32</ele>
        <time>2020-06-24T12:11:00.077Z</time>
      </trkpt>
      <trkpt lat="48.65047" lon="-2.35391">
        <ele>33</ele>
        <time>2020-06-24T12:11:01.077Z</time>
      </trkpt>
      <trkpt lat="48.65048" lon="-2.35393">
        <ele>33</ele>
        <time>2020-06-24T12:11:02.077Z</time>
      </trkpt>
      <trkpt lat="48.65048" lon="-2.35394">
        <ele>33</ele>
        <time>2020-06-24T12:11:03.077Z</time>
      </trkpt>
      <trkpt lat="48.65049" lon="-2.35396">
        <ele>32</ele>
        <time>2020-06-24T12:11:04.077Z</time>
      </trkpt>
      <trkpt lat="48.65049" lon="-2.35398">
        <ele>32</ele>
        <time>2020-06-24T12:11:05.077Z</time>
      </trkpt>
      <trkpt lat="48.65049" lon="-2.354">
        <ele>32</ele>
        <time>2020-06-24T12:11:06.077Z</time>
      </trkpt>
      <trkpt lat="48.6505" lon="-2.35402">
        <ele>32</ele>
        <time>2020-06-24T12:11:07.077Z</time>
      </trkpt>
      <trkpt lat="48.6505" lon="-2.35403">
        <ele>32</ele>
        <time>2020-06-24T12:11:08.077Z</time>
      </trkpt>
      <trkpt lat="48.65051" lon="-2.35405">
        <ele>32</ele>
        <time>2020-06-24T12:11:09.077Z</time>
      </trkpt>
      <trkpt lat="48.65051" lon="-2.35407">
        <ele>32</ele>
        <time>2020-06-24T12:11:10.077Z</time>
      </trkpt>
      <trkpt lat="48.65052" lon="-2.35409">
        <ele>32</ele>
        <time>2020-06-24T12:11:11.077Z</time>
      </trkpt>
      <trkpt lat="48.65052" lon="-2.35411">
        <ele>31</ele>
        <time>2020-06-24T12:11:12.077Z</time>
      </trkpt>
      <trkpt lat="48.65052" lon="-2.35413">
        <ele>31</ele>
        <time>2020-06-24T12:11:13.077Z</time>
      </trkpt>
      <trkpt lat="48.65052" lon="-2.35415">
        <ele>32</ele>
        <time>2020-06-24T12:11:14.077Z</time>
      </trkpt>
      <trkpt lat="48.65053" lon="-2.35417">
        <ele>32</ele>
        <time>2020-06-24T12:11:15.077Z</time>
      </trkpt>
      <trkpt lat="48.65053" lon="-2.35419">
        <ele>32</ele>
        <time>2020-06-24T12:11:16.077Z</time>
      </trkpt>
      <trkpt lat="48.65053" lon="-2.35421">
        <ele>32</ele>
        <time>2020-06-24T12:11:17.077Z</time>
      </trkpt>
      <trkpt lat="48.65053" lon="-2.35423">
        <ele>32</ele>
        <time>2020-06-24T12:11:18.077Z</time>
      </trkpt>
      <trkpt lat="48.65053" lon="-2.35424">
        <ele>32</ele>
        <time>2020-06-24T12:11:19.077Z</time>
      </trkpt>
      <trkpt lat="48.65054" lon="-2.35426">
        <ele>32</ele>
        <time>2020-06-24T12:11:20.077Z</time>
      </trkpt>
      <trkpt lat="48.65054" lon="-2.35428">
        <ele>32</ele>
        <time>2020-06-24T12:11:21.077Z</time>
      </trkpt>
      <trkpt lat="48.65053" lon="-2.3543">
        <ele>32</ele>
        <time>2020-06-24T12:11:22.077Z</time>
      </trkpt>
      <trkpt lat="48.65053" lon="-2.35432">
        <ele>33</ele>
        <time>2020-06-24T12:11:23.077Z</time>
      </trkpt>
      <trkpt lat="48.65053" lon="-2.35434">
        <ele>33</ele>
        <time>2020-06-24T12:11:24.077Z</time>
      </trkpt>
      <trkpt lat="48.65053" lon="-2.35436">
        <ele>33</ele>
        <time>2020-06-24T12:11:25.077Z</time>
      </trkpt>
      <trkpt lat="48.65053" lon="-2.35438">
        <ele>33</ele>
        <time>2020-06-24T12:11:26.077Z</time>
      </trkpt>
      <trkpt lat="48.65053" lon="-2.3544">
        <ele>33</ele>
        <time>2020-06-24T12:11:27.077Z</time>
      </trkpt>
      <trkpt lat="48.65053" lon="-2.35442">
        <ele>33</ele>
        <time>2020-06-24T12:11:28.077Z</time>
      </trkpt>
      <trkpt lat="48.65053" lon="-2.35444">
        <ele>33</ele>
        <time>2020-06-24T12:11:29.077Z</time>
      </trkpt>
      <trkpt lat="48.65053" lon="-2.35446">
        <ele>33</ele>
        <time>2020-06-24T12:11:30.077Z</time>
      </trkpt>
      <trkpt lat="48.65054" lon="-2.35448">
        <ele>33</ele>
        <time>2020-06-24T12:11:31.077Z</time>
      </trkpt>
      <trkpt lat="48.65054" lon="-2.35449">
        <ele>33</ele>
        <time>2020-06-24T12:11:32.077Z</time>
      </trkpt>
      <trkpt lat="48.65055" lon="-2.35451">
        <ele>33</ele>
        <time>2020-06-24T12:11:33.077Z</time>
      </trkpt>
      <trkpt lat="48.65055" lon="-2.35453">
        <ele>33</ele>
        <time>2020-06-24T12:11:34.077Z</time>
      </trkpt>
      <trkpt lat="48.65055" lon="-2.35455">
        <ele>33</ele>
        <time>2020-06-24T12:11:35.077Z</time>
      </trkpt>
      <trkpt lat="48.65055" lon="-2.35456">
        <ele>33</ele>
        <time>2020-06-24T12:11:36.077Z</time>
      </trkpt>
      <trkpt lat="48.65056" lon="-2.35458">
        <ele>33</ele>
        <time>2020-06-24T12:11:37.077Z</time>
      </trkpt>
      <trkpt lat="48.65056" lon="-2.3546">
        <ele>33</ele>
        <time>2020-06-24T12:11:38.077Z</time>
      </trkpt>
      <trkpt lat="48.65056" lon="-2.35461">
        <ele>33</ele>
        <time>2020-06-24T12:11:39.077Z</time>
      </trkpt>
      <trkpt lat="48.65057" lon="-2.35463">
        <ele>34</ele>
        <time>2020-06-24T12:11:40.077Z</time>
      </trkpt>
      <trkpt lat="48.65058" lon="-2.35465">
        <ele>34</ele>
        <time>2020-06-24T12:11:41.077Z</time>
      </trkpt>
      <trkpt lat="48.65058" lon="-2.35467">
        <ele>34</ele>
        <time>2020-06-24T12:11:42.077Z</time>
      </trkpt>
      <trkpt lat="48.65059" lon="-2.35469">
        <ele>34</ele>
        <time>2020-06-24T12:11:43.077Z</time>
      </trkpt>
      <trkpt lat="48.6506" lon="-2.35471">
        <ele>34</ele>
        <time>2020-06-24T12:11:44.077Z</time>
      </trkpt>
      <trkpt lat="48.65061" lon="-2.35472">
        <ele>34</ele>
        <time>2020-06-24T12:11:45.077Z</time>
      </trkpt>
      <trkpt lat="48.65062" lon="-2.35474">
        <ele>34</ele>
        <time>2020-06-24T12:11:46.077Z</time>
      </trkpt>
      <trkpt lat="48.65063" lon="-2.35475">
        <ele>35</ele>
        <time>2020-06-24T12:11:47.077Z</time>
      </trkpt>
      <trkpt lat="48.65064" lon="-2.35476">
        <ele>35</ele>
        <time>2020-06-24T12:11:48.077Z</time>
      </trkpt>
      <trkpt lat="48.65065" lon="-2.35478">
        <ele>35</ele>
        <time>2020-06-24T12:11:49.077Z</time>
      </trkpt>
      <trkpt lat="48.65066" lon="-2.35479">
        <ele>35</ele>
        <time>2020-06-24T12:11:50.077Z</time>
      </trkpt>
      <trkpt lat="48.65067" lon="-2.35481">
        <ele>36</ele>
        <time>2020-06-24T12:11:51.077Z</time>
      </trkpt>
      <trkpt lat="48.65068" lon="-2.35482">
        <ele>36</ele>
        <time>2020-06-24T12:11:52.077Z</time>
      </trkpt>
      <trkpt lat="48.65069" lon="-2.35483">
        <ele>36</ele>
        <time>2020-06-24T12:11:53.077Z</time>
      </trkpt>
      <trkpt lat="48.6507" lon="-2.35485">
        <ele>36</ele>
        <time>2020-06-24T12:11:54.077Z</time>
      </trkpt>
      <trkpt lat="48.65071" lon="-2.35486">
        <ele>36</ele>
        <time>2020-06-24T12:11:55.077Z</time>
      </trkpt>
      <trkpt lat="48.65073" lon="-2.35487">
        <ele>36</ele>
        <time>2020-06-24T12:11:56.077Z</time>
      </trkpt>
      <trkpt lat="48.65074" lon="-2.35488">
        <ele>36</ele>
        <time>2020-06-24T12:11:57.077Z</time>
      </trkpt>
      <trkpt lat="48.65075" lon="-2.3549">
        <ele>36</ele>
        <time>2020-06-24T12:11:58.077Z</time>
      </trkpt>
      <trkpt lat="48.65076" lon="-2.35491">
        <ele>36</ele>
        <time>2020-06-24T12:11:59.077Z</time>
      </trkpt>
      <trkpt lat="48.65077" lon="-2.35492">
        <ele>36</ele>
        <time>2020-06-24T12:12:00.077Z</time>
      </trkpt>
      <trkpt lat="48.65077" lon="-2.35493">
        <ele>36</ele>
        <time>2020-06-24T12:12:01.077Z</time>
      </trkpt>
      <trkpt lat="48.65078" lon="-2.35495">
        <ele>36</ele>
        <time>2020-06-24T12:12:02.077Z</time>
      </trkpt>
      <trkpt lat="48.6508" lon="-2.35495">
        <ele>36</ele>
        <time>2020-06-24T12:12:03.077Z</time>
      </trkpt>
      <trkpt lat="48.65081" lon="-2.35496">
        <ele>36</ele>
        <time>2020-06-24T12:12:04.077Z</time>
      </trkpt>
      <trkpt lat="48.65082" lon="-2.35498">
        <ele>36</ele>
        <time>2020-06-24T12:12:05.077Z</time>
      </trkpt>
      <trkpt lat="48.65083" lon="-2.35499">
        <ele>36</ele>
        <time>2020-06-24T12:12:06.077Z</time>
      </trkpt>
      <trkpt lat="48.65085" lon="-2.355">
        <ele>36</ele>
        <time>2020-06-24T12:12:07.077Z</time>
      </trkpt>
      <trkpt lat="48.65086" lon="-2.35501">
        <ele>36</ele>
        <time>2020-06-24T12:12:08.077Z</time>
      </trkpt>
      <trkpt lat="48.65087" lon="-2.35502">
        <ele>36</ele>
        <time>2020-06-24T12:12:09.077Z</time>
      </trkpt>
      <trkpt lat="48.65089" lon="-2.35503">
        <ele>36</ele>
        <time>2020-06-24T12:12:10.077Z</time>
      </trkpt>
      <trkpt lat="48.6509" lon="-2.35504">
        <ele>36</ele>
        <time>2020-06-24T12:12:11.077Z</time>
      </trkpt>
      <trkpt lat="48.65091" lon="-2.35506">
        <ele>36</ele>
        <time>2020-06-24T12:12:12.077Z</time>
      </trkpt>
      <trkpt lat="48.65092" lon="-2.35507">
        <ele>36</ele>
        <time>2020-06-24T12:12:13.077Z</time>
      </trkpt>
      <trkpt lat="48.65093" lon="-2.35508">
        <ele>36</ele>
        <time>2020-06-24T12:12:14.077Z</time>
      </trkpt>
      <trkpt lat="48.65094" lon="-2.3551">
        <ele>36</ele>
        <time>2020-06-24T12:12:15.077Z</time>
      </trkpt>
      <trkpt lat="48.65095" lon="-2.35512">
        <ele>36</ele>
        <time>2020-06-24T12:12:16.077Z</time>
      </trkpt>
      <trkpt lat="48.65096" lon="-2.35513">
        <ele>36</ele>
        <time>2020-06-24T12:12:17.077Z</time>
      </trkpt>
      <trkpt lat="48.65097" lon="-2.35515">
        <ele>36</ele>
        <time>2020-06-24T12:12:18.077Z</time>
      </trkpt>
      <trkpt lat="48.65097" lon="-2.35516">
        <ele>36</ele>
        <time>2020-06-24T12:12:19.077Z</time>
      </trkpt>
      <trkpt lat="48.65098" lon="-2.35517">
        <ele>36</ele>
        <time>2020-06-24T12:12:20.077Z</time>
      </trkpt>
      <trkpt lat="48.65099" lon="-2.35518">
        <ele>36</ele>
        <time>2020-06-24T12:12:21.077Z</time>
      </trkpt>
      <trkpt lat="48.651" lon="-2.3552">
        <ele>36</ele>
        <time>2020-06-24T12:12:22.077Z</time>
      </trkpt>
      <trkpt lat="48.65101" lon="-2.35521">
        <ele>36</ele>
        <time>2020-06-24T12:12:23.077Z</time>
      </trkpt>
      <trkpt lat="48.65102" lon="-2.35522">
        <ele>36</ele>
        <time>2020-06-24T12:12:24.077Z</time>
      </trkpt>
      <trkpt lat="48.65104" lon="-2.35523">
        <ele>36</ele>
        <time>2020-06-24T12:12:25.077Z</time>
      </trkpt>
      <trkpt lat="48.65105" lon="-2.35525">
        <ele>36</ele>
        <time>2020-06-24T12:12:26.077Z</time>
      </trkpt>
      <trkpt lat="48.65106" lon="-2.35526">
        <ele>36</ele>
        <time>2020-06-24T12:12:27.077Z</time>
      </trkpt>
      <trkpt lat="48.65107" lon="-2.35528">
        <ele>36</ele>
        <time>2020-06-24T12:12:28.077Z</time>
      </trkpt>
      <trkpt lat="48.65108" lon="-2.35529">
        <ele>36</ele>
        <time>2020-06-24T12:12:29.077Z</time>
      </trkpt>
      <trkpt lat="48.65109" lon="-2.35531">
        <ele>36</ele>
        <time>2020-06-24T12:12:30.077Z</time>
      </trkpt>
      <trkpt lat="48.6511" lon="-2.35532">
        <ele>37</ele>
        <time>2020-06-24T12:12:31.077Z</time>
      </trkpt>
      <trkpt lat="48.65111" lon="-2.35533">
        <ele>36</ele>
        <time>2020-06-24T12:12:32.077Z</time>
      </trkpt>
      <trkpt lat="48.65112" lon="-2.35535">
        <ele>36</ele>
        <time>2020-06-24T12:12:33.077Z</time>
      </trkpt>
      <trkpt lat="48.65113" lon="-2.35536">
        <ele>37</ele>
        <time>2020-06-24T12:12:34.077Z</time>
      </trkpt>
      <trkpt lat="48.65114" lon="-2.35538">
        <ele>37</ele>
        <time>2020-06-24T12:12:35.077Z</time>
      </trkpt>
      <trkpt lat="48.65115" lon="-2.35539">
        <ele>37</ele>
        <time>2020-06-24T12:12:36.077Z</time>
      </trkpt>
      <trkpt lat="48.65116" lon="-2.3554">
        <ele>37</ele>
        <time>2020-06-24T12:12:37.077Z</time>
      </trkpt>
      <trkpt lat="48.65117" lon="-2.35542">
        <ele>37</ele>
        <time>2020-06-24T12:12:38.077Z</time>
      </trkpt>
      <trkpt lat="48.65118" lon="-2.35543">
        <ele>37</ele>
        <time>2020-06-24T12:12:39.077Z</time>
      </trkpt>
      <trkpt lat="48.65119" lon="-2.35545">
        <ele>37</ele>
        <time>2020-06-24T12:12:40.077Z</time>
      </trkpt>
      <trkpt lat="48.65121" lon="-2.35546">
        <ele>37</ele>
        <time>2020-06-24T12:12:41.077Z</time>
      </trkpt>
      <trkpt lat="48.65122" lon="-2.35548">
        <ele>38</ele>
        <time>2020-06-24T12:12:42.077Z</time>
      </trkpt>
      <trkpt lat="48.65123" lon="-2.35549">
        <ele>38</ele>
        <time>2020-06-24T12:12:43.077Z</time>
      </trkpt>
      <trkpt lat="48.65124" lon="-2.35551">
        <ele>38</ele>
        <time>2020-06-24T12:12:44.077Z</time>
      </trkpt>
      <trkpt lat="48.65125" lon="-2.35552">
        <ele>38</ele>
        <time>2020-06-24T12:12:45.077Z</time>
      </trkpt>
      <trkpt lat="48.65126" lon="-2.35553">
        <ele>38</ele>
        <time>2020-06-24T12:12:46.077Z</time>
      </trkpt>
      <trkpt lat="48.65127" lon="-2.35555">
        <ele>38</ele>
        <time>2020-06-24T12:12:47.077Z</time>
      </trkpt>
      <trkpt lat="48.65128" lon="-2.35556">
        <ele>38</ele>
        <time>2020-06-24T12:12:48.077Z</time>
      </trkpt>
      <trkpt lat="48.65129" lon="-2.35558">
        <ele>38</ele>
        <time>2020-06-24T12:12:49.077Z</time>
      </trkpt>
      <trkpt lat="48.65131" lon="-2.35559">
        <ele>37</ele>
        <time>2020-06-24T12:12:50.077Z</time>
      </trkpt>
      <trkpt lat="48.65132" lon="-2.3556">
        <ele>37</ele>
        <time>2020-06-24T12:12:51.077Z</time>
      </trkpt>
      <trkpt lat="48.65133" lon="-2.35561">
        <ele>37</ele>
        <time>2020-06-24T12:12:52.077Z</time>
      </trkpt>
      <trkpt lat="48.65134" lon="-2.35562">
        <ele>38</ele>
        <time>2020-06-24T12:12:53.077Z</time>
      </trkpt>
      <trkpt lat="48.65135" lon="-2.35563">
        <ele>38</ele>
        <time>2020-06-24T12:12:54.077Z</time>
      </trkpt>
      <trkpt lat="48.65136" lon="-2.35565">
        <ele>37</ele>
        <time>2020-06-24T12:12:55.077Z</time>
      </trkpt>
      <trkpt lat="48.65137" lon="-2.35566">
        <ele>37</ele>
        <time>2020-06-24T12:12:56.077Z</time>
      </trkpt>
      <trkpt lat="48.65138" lon="-2.35567">
        <ele>37</ele>
        <time>2020-06-24T12:12:57.077Z</time>
      </trkpt>
      <trkpt lat="48.65139" lon="-2.35569">
        <ele>37</ele>
        <time>2020-06-24T12:12:58.077Z</time>
      </trkpt>
      <trkpt lat="48.6514" lon="-2.3557">
        <ele>37</ele>
        <time>2020-06-24T12:12:59.077Z</time>
      </trkpt>
      <trkpt lat="48.65141" lon="-2.35571">
        <ele>37</ele>
        <time>2020-06-24T12:13:00.077Z</time>
      </trkpt>
      <trkpt lat="48.65142" lon="-2.35573">
        <ele>38</ele>
        <time>2020-06-24T12:13:01.077Z</time>
      </trkpt>
      <trkpt lat="48.65143" lon="-2.35574">
        <ele>37</ele>
        <time>2020-06-24T12:13:02.077Z</time>
      </trkpt>
      <trkpt lat="48.65144" lon="-2.35576">
        <ele>37</ele>
        <time>2020-06-24T12:13:03.077Z</time>
      </trkpt>
      <trkpt lat="48.65145" lon="-2.35578">
        <ele>37</ele>
        <time>2020-06-24T12:13:04.077Z</time>
      </trkpt>
      <trkpt lat="48.65145" lon="-2.3558">
        <ele>37</ele>
        <time>2020-06-24T12:13:05.077Z</time>
      </trkpt>
      <trkpt lat="48.65145" lon="-2.35582">
        <ele>37</ele>
        <time>2020-06-24T12:13:06.077Z</time>
      </trkpt>
      <trkpt lat="48.65145" lon="-2.35584">
        <ele>37</ele>
        <time>2020-06-24T12:13:07.077Z</time>
      </trkpt>
      <trkpt lat="48.65146" lon="-2.35586">
        <ele>37</ele>
        <time>2020-06-24T12:13:08.077Z</time>
      </trkpt>
      <trkpt lat="48.65146" lon="-2.35588">
        <ele>38</ele>
        <time>2020-06-24T12:13:09.077Z</time>
      </trkpt>
      <trkpt lat="48.65146" lon="-2.3559">
        <ele>38</ele>
        <time>2020-06-24T12:13:10.077Z</time>
      </trkpt>
      <trkpt lat="48.65147" lon="-2.35592">
        <ele>37</ele>
        <time>2020-06-24T12:13:11.077Z</time>
      </trkpt>
      <trkpt lat="48.65147" lon="-2.35594">
        <ele>37</ele>
        <time>2020-06-24T12:13:12.077Z</time>
      </trkpt>
      <trkpt lat="48.65147" lon="-2.35596">
        <ele>38</ele>
        <time>2020-06-24T12:13:13.077Z</time>
      </trkpt>
      <trkpt lat="48.65148" lon="-2.35598">
        <ele>38</ele>
        <time>2020-06-24T12:13:14.077Z</time>
      </trkpt>
      <trkpt lat="48.65148" lon="-2.356">
        <ele>38</ele>
        <time>2020-06-24T12:13:15.077Z</time>
      </trkpt>
      <trkpt lat="48.65148" lon="-2.35602">
        <ele>38</ele>
        <time>2020-06-24T12:13:16.077Z</time>
      </trkpt>
      <trkpt lat="48.65149" lon="-2.35604">
        <ele>38</ele>
        <time>2020-06-24T12:13:17.077Z</time>
      </trkpt>
      <trkpt lat="48.65149" lon="-2.35606">
        <ele>38</ele>
        <time>2020-06-24T12:13:18.077Z</time>
      </trkpt>
      <trkpt lat="48.6515" lon="-2.35607">
        <ele>38</ele>
        <time>2020-06-24T12:13:19.077Z</time>
      </trkpt>
      <trkpt lat="48.65151" lon="-2.35609">
        <ele>38</ele>
        <time>2020-06-24T12:13:20.077Z</time>
      </trkpt>
      <trkpt lat="48.65152" lon="-2.35611">
        <ele>38</ele>
        <time>2020-06-24T12:13:21.077Z</time>
      </trkpt>
      <trkpt lat="48.65152" lon="-2.35613">
        <ele>38</ele>
        <time>2020-06-24T12:13:22.077Z</time>
      </trkpt>
      <trkpt lat="48.65153" lon="-2.35615">
        <ele>38</ele>
        <time>2020-06-24T12:13:23.077Z</time>
      </trkpt>
      <trkpt lat="48.65153" lon="-2.35617">
        <ele>39</ele>
        <time>2020-06-24T12:13:24.077Z</time>
      </trkpt>
      <trkpt lat="48.65153" lon="-2.35619">
        <ele>39</ele>
        <time>2020-06-24T12:13:25.077Z</time>
      </trkpt>
      <trkpt lat="48.65153" lon="-2.3562">
        <ele>38</ele>
        <time>2020-06-24T12:13:26.077Z</time>
      </trkpt>
      <trkpt lat="48.65154" lon="-2.35622">
        <ele>38</ele>
        <time>2020-06-24T12:13:27.077Z</time>
      </trkpt>
      <trkpt lat="48.65154" lon="-2.35624">
        <ele>38</ele>
        <time>2020-06-24T12:13:28.077Z</time>
      </trkpt>
      <trkpt lat="48.65154" lon="-2.35626">
        <ele>38</ele>
        <time>2020-06-24T12:13:29.077Z</time>
      </trkpt>
      <trkpt lat="48.65155" lon="-2.35628">
        <ele>38</ele>
        <time>2020-06-24T12:13:30.077Z</time>
      </trkpt>
      <trkpt lat="48.65155" lon="-2.3563">
        <ele>38</ele>
        <time>2020-06-24T12:13:31.077Z</time>
      </trkpt>
      <trkpt lat="48.65155" lon="-2.35632">
        <ele>38</ele>
        <time>2020-06-24T12:13:32.077Z</time>
      </trkpt>
      <trkpt lat="48.65156" lon="-2.35634">
        <ele>38</ele>
        <time>2020-06-24T12:13:33.077Z</time>
      </trkpt>
      <trkpt lat="48.65156" lon="-2.35636">
        <ele>38</ele>
        <time>2020-06-24T12:13:34.077Z</time>
      </trkpt>
      <trkpt lat="48.65157" lon="-2.35638">
        <ele>38</ele>
        <time>2020-06-24T12:13:35.077Z</time>
      </trkpt>
      <trkpt lat="48.65158" lon="-2.35639">
        <ele>38</ele>
        <time>2020-06-24T12:13:36.077Z</time>
      </trkpt>
      <trkpt lat="48.65159" lon="-2.35641">
        <ele>38</ele>
        <time>2020-06-24T12:13:37.077Z</time>
      </trkpt>
      <trkpt lat="48.6516" lon="-2.35643">
        <ele>38</ele>
        <time>2020-06-24T12:13:38.077Z</time>
      </trkpt>
      <trkpt lat="48.65161" lon="-2.35644">
        <ele>38</ele>
        <time>2020-06-24T12:13:39.077Z</time>
      </trkpt>
      <trkpt lat="48.65162" lon="-2.35646">
        <ele>38</ele>
        <time>2020-06-24T12:13:40.077Z</time>
      </trkpt>
      <trkpt lat="48.65163" lon="-2.35647">
        <ele>38</ele>
        <time>2020-06-24T12:13:41.077Z</time>
      </trkpt>
      <trkpt lat="48.65163" lon="-2.35649">
        <ele>38</ele>
        <time>2020-06-24T12:13:42.077Z</time>
      </trkpt>
      <trkpt lat="48.65164" lon="-2.35651">
        <ele>38</ele>
        <time>2020-06-24T12:13:43.077Z</time>
      </trkpt>
      <trkpt lat="48.65164" lon="-2.35653">
        <ele>37</ele>
        <time>2020-06-24T12:13:44.077Z</time>
      </trkpt>
      <trkpt lat="48.65165" lon="-2.35655">
        <ele>37</ele>
        <time>2020-06-24T12:13:45.077Z</time>
      </trkpt>
      <trkpt lat="48.65166" lon="-2.35656">
        <ele>37</ele>
        <time>2020-06-24T12:13:46.077Z</time>
      </trkpt>
      <trkpt lat="48.65167" lon="-2.35658">
        <ele>38</ele>
        <time>2020-06-24T12:13:47.077Z</time>
      </trkpt>
      <trkpt lat="48.65168" lon="-2.3566">
        <ele>38</ele>
        <time>2020-06-24T12:13:48.077Z</time>
      </trkpt>
      <trkpt lat="48.65169" lon="-2.35661">
        <ele>38</ele>
        <time>2020-06-24T12:13:49.077Z</time>
      </trkpt>
      <trkpt lat="48.6517" lon="-2.35663">
        <ele>38</ele>
        <time>2020-06-24T12:13:50.077Z</time>
      </trkpt>
      <trkpt lat="48.65171" lon="-2.35665">
        <ele>37</ele>
        <time>2020-06-24T12:13:51.077Z</time>
      </trkpt>
      <trkpt lat="48.65171" lon="-2.35666">
        <ele>37</ele>
        <time>2020-06-24T12:13:52.077Z</time>
      </trkpt>
      <trkpt lat="48.65172" lon="-2.35668">
        <ele>37</ele>
        <time>2020-06-24T12:13:53.077Z</time>
      </trkpt>
      <trkpt lat="48.65173" lon="-2.3567">
        <ele>37</ele>
        <time>2020-06-24T12:13:54.077Z</time>
      </trkpt>
      <trkpt lat="48.65173" lon="-2.35671">
        <ele>37</ele>
        <time>2020-06-24T12:13:55.077Z</time>
      </trkpt>
      <trkpt lat="48.65174" lon="-2.35673">
        <ele>37</ele>
        <time>2020-06-24T12:13:56.077Z</time>
      </trkpt>
      <trkpt lat="48.65174" lon="-2.35675">
        <ele>37</ele>
        <time>2020-06-24T12:13:57.077Z</time>
      </trkpt>
      <trkpt lat="48.65175" lon="-2.35677">
        <ele>37</ele>
        <time>2020-06-24T12:13:58.077Z</time>
      </trkpt>
      <trkpt lat="48.65176" lon="-2.35678">
        <ele>37</ele>
        <time>2020-06-24T12:13:59.077Z</time>
      </trkpt>
      <trkpt lat="48.65177" lon="-2.3568">
        <ele>37</ele>
        <time>2020-06-24T12:14:00.077Z</time>
      </trkpt>
      <trkpt lat="48.65178" lon="-2.35681">
        <ele>37</ele>
        <time>2020-06-24T12:14:01.077Z</time>
      </trkpt>
      <trkpt lat="48.65178" lon="-2.35683">
        <ele>37</ele>
        <time>2020-06-24T12:14:02.077Z</time>
      </trkpt>
      <trkpt lat="48.65179" lon="-2.35684">
        <ele>37</ele>
        <time>2020-06-24T12:14:03.077Z</time>
      </trkpt>
      <trkpt lat="48.6518" lon="-2.35685">
        <ele>37</ele>
        <time>2020-06-24T12:14:04.077Z</time>
      </trkpt>
      <trkpt lat="48.65181" lon="-2.35687">
        <ele>38</ele>
        <time>2020-06-24T12:14:05.077Z</time>
      </trkpt>
      <trkpt lat="48.65182" lon="-2.35688">
        <ele>38</ele>
        <time>2020-06-24T12:14:06.077Z</time>
      </trkpt>
      <trkpt lat="48.65184" lon="-2.35689">
        <ele>38</ele>
        <time>2020-06-24T12:14:07.077Z</time>
      </trkpt>
      <trkpt lat="48.65185" lon="-2.35691">
        <ele>37</ele>
        <time>2020-06-24T12:14:08.077Z</time>
      </trkpt>
      <trkpt lat="48.65186" lon="-2.35692">
        <ele>38</ele>
        <time>2020-06-24T12:14:09.077Z</time>
      </trkpt>
      <trkpt lat="48.65187" lon="-2.35693">
        <ele>38</ele>
        <time>2020-06-24T12:14:10.077Z</time>
      </trkpt>
      <trkpt lat="48.65188" lon="-2.35694">
        <ele>38</ele>
        <time>2020-06-24T12:14:11.077Z</time>
      </trkpt>
      <trkpt lat="48.65189" lon="-2.35696">
        <ele>37</ele>
        <time>2020-06-24T12:14:12.077Z</time>
      </trkpt>
      <trkpt lat="48.6519" lon="-2.35697">
        <ele>37</ele>
        <time>2020-06-24T12:14:13.077Z</time>
      </trkpt>
      <trkpt lat="48.65192" lon="-2.35698">
        <ele>37</ele>
        <time>2020-06-24T12:14:14.077Z</time>
      </trkpt>
      <trkpt lat="48.65193" lon="-2.35698">
        <ele>37</ele>
        <time>2020-06-24T12:14:15.077Z</time>
      </trkpt>
      <trkpt lat="48.65194" lon="-2.35699">
        <ele>37</ele>
        <time>2020-06-24T12:14:16.077Z</time>
      </trkpt>
      <trkpt lat="48.65195" lon="-2.357">
        <ele>36</ele>
        <time>2020-06-24T12:14:17.077Z</time>
      </trkpt>
      <trkpt lat="48.65197" lon="-2.357">
        <ele>37</ele>
        <time>2020-06-24T12:14:18.077Z</time>
      </trkpt>
      <trkpt lat="48.65198" lon="-2.357">
        <ele>36</ele>
        <time>2020-06-24T12:14:19.077Z</time>
      </trkpt>
      <trkpt lat="48.652" lon="-2.357">
        <ele>36</ele>
        <time>2020-06-24T12:14:20.077Z</time>
      </trkpt>
      <trkpt lat="48.65201" lon="-2.35701">
        <ele>36</ele>
        <time>2020-06-24T12:14:21.077Z</time>
      </trkpt>
      <trkpt lat="48.65202" lon="-2.357">
        <ele>37</ele>
        <time>2020-06-24T12:14:22.077Z</time>
      </trkpt>
      <trkpt lat="48.65203" lon="-2.357">
        <ele>37</ele>
        <time>2020-06-24T12:14:23.077Z</time>
      </trkpt>
      <trkpt lat="48.65205" lon="-2.357">
        <ele>37</ele>
        <time>2020-06-24T12:14:24.077Z</time>
      </trkpt>
      <trkpt lat="48.65206" lon="-2.357">
        <ele>37</ele>
        <time>2020-06-24T12:14:25.077Z</time>
      </trkpt>
      <trkpt lat="48.65207" lon="-2.357">
        <ele>37</ele>
        <time>2020-06-24T12:14:26.077Z</time>
      </trkpt>
      <trkpt lat="48.65208" lon="-2.35699">
        <ele>37</ele>
        <time>2020-06-24T12:14:27.077Z</time>
      </trkpt>
      <trkpt lat="48.6521" lon="-2.35699">
        <ele>37</ele>
        <time>2020-06-24T12:14:28.077Z</time>
      </trkpt>
      <trkpt lat="48.65211" lon="-2.35699">
        <ele>37</ele>
        <time>2020-06-24T12:14:29.077Z</time>
      </trkpt>
      <trkpt lat="48.65212" lon="-2.35699">
        <ele>37</ele>
        <time>2020-06-24T12:14:30.077Z</time>
      </trkpt>
      <trkpt lat="48.65213" lon="-2.35699">
        <ele>38</ele>
        <time>2020-06-24T12:14:31.077Z</time>
      </trkpt>
      <trkpt lat="48.65215" lon="-2.35699">
        <ele>37</ele>
        <time>2020-06-24T12:14:32.077Z</time>
      </trkpt>
      <trkpt lat="48.65216" lon="-2.357">
        <ele>37</ele>
        <time>2020-06-24T12:14:33.077Z</time>
      </trkpt>
      <trkpt lat="48.65218" lon="-2.35701">
        <ele>37</ele>
        <time>2020-06-24T12:14:34.077Z</time>
      </trkpt>
      <trkpt lat="48.65219" lon="-2.35702">
        <ele>37</ele>
        <time>2020-06-24T12:14:35.077Z</time>
      </trkpt>
      <trkpt lat="48.6522" lon="-2.35703">
        <ele>37</ele>
        <time>2020-06-24T12:14:36.077Z</time>
      </trkpt>
      <trkpt lat="48.65221" lon="-2.35703">
        <ele>37</ele>
        <time>2020-06-24T12:14:37.077Z</time>
      </trkpt>
      <trkpt lat="48.65222" lon="-2.35703">
        <ele>37</ele>
        <time>2020-06-24T12:14:38.077Z</time>
      </trkpt>
      <trkpt lat="48.65224" lon="-2.35703">
        <ele>36</ele>
        <time>2020-06-24T12:14:39.077Z</time>
      </trkpt>
      <trkpt lat="48.65225" lon="-2.35703">
        <ele>36</ele>
        <time>2020-06-24T12:14:40.077Z</time>
      </trkpt>
      <trkpt lat="48.65226" lon="-2.35703">
        <ele>36</ele>
        <time>2020-06-24T12:14:41.077Z</time>
      </trkpt>
      <trkpt lat="48.65228" lon="-2.35704">
        <ele>36</ele>
        <time>2020-06-24T12:14:42.077Z</time>
      </trkpt>
      <trkpt lat="48.65229" lon="-2.35703">
        <ele>36</ele>
        <time>2020-06-24T12:14:43.077Z</time>
      </trkpt>
      <trkpt lat="48.6523" lon="-2.35703">
        <ele>36</ele>
        <time>2020-06-24T12:14:44.077Z</time>
      </trkpt>
      <trkpt lat="48.65231" lon="-2.35703">
        <ele>36</ele>
        <time>2020-06-24T12:14:45.077Z</time>
      </trkpt>
      <trkpt lat="48.65233" lon="-2.35703">
        <ele>36</ele>
        <time>2020-06-24T12:14:46.077Z</time>
      </trkpt>
      <trkpt lat="48.65234" lon="-2.35702">
        <ele>36</ele>
        <time>2020-06-24T12:14:47.077Z</time>
      </trkpt>
      <trkpt lat="48.65236" lon="-2.35701">
        <ele>35</ele>
        <time>2020-06-24T12:14:48.077Z</time>
      </trkpt>
      <trkpt lat="48.65237" lon="-2.35701">
        <ele>35</ele>
        <time>2020-06-24T12:14:49.077Z</time>
      </trkpt>
      <trkpt lat="48.65238" lon="-2.357">
        <ele>35</ele>
        <time>2020-06-24T12:14:50.077Z</time>
      </trkpt>
      <trkpt lat="48.6524" lon="-2.357">
        <ele>35</ele>
        <time>2020-06-24T12:14:51.077Z</time>
      </trkpt>
      <trkpt lat="48.65241" lon="-2.35699">
        <ele>35</ele>
        <time>2020-06-24T12:14:52.077Z</time>
      </trkpt>
      <trkpt lat="48.65243" lon="-2.35699">
        <ele>35</ele>
        <time>2020-06-24T12:14:53.077Z</time>
      </trkpt>
      <trkpt lat="48.65244" lon="-2.35699">
        <ele>35</ele>
        <time>2020-06-24T12:14:54.077Z</time>
      </trkpt>
      <trkpt lat="48.65245" lon="-2.35699">
        <ele>35</ele>
        <time>2020-06-24T12:14:55.077Z</time>
      </trkpt>
      <trkpt lat="48.65247" lon="-2.35699">
        <ele>35</ele>
        <time>2020-06-24T12:14:56.077Z</time>
      </trkpt>
      <trkpt lat="48.65248" lon="-2.35699">
        <ele>35</ele>
        <time>2020-06-24T12:14:57.077Z</time>
      </trkpt>
      <trkpt lat="48.6525" lon="-2.35699">
        <ele>34</ele>
        <time>2020-06-24T12:14:58.077Z</time>
      </trkpt>
      <trkpt lat="48.65251" lon="-2.35699">
        <ele>34</ele>
        <time>2020-06-24T12:14:59.077Z</time>
      </trkpt>
      <trkpt lat="48.65253" lon="-2.35699">
        <ele>34</ele>
        <time>2020-06-24T12:15:00.077Z</time>
      </trkpt>
      <trkpt lat="48.65254" lon="-2.35699">
        <ele>33</ele>
        <time>2020-06-24T12:15:01.077Z</time>
      </trkpt>
      <trkpt lat="48.65256" lon="-2.35699">
        <ele>33</ele>
        <time>2020-06-24T12:15:02.077Z</time>
      </trkpt>
      <trkpt lat="48.65257" lon="-2.357">
        <ele>33</ele>
        <time>2020-06-24T12:15:03.077Z</time>
      </trkpt>
      <trkpt lat="48.65258" lon="-2.357">
        <ele>33</ele>
        <time>2020-06-24T12:15:04.077Z</time>
      </trkpt>
      <trkpt lat="48.6526" lon="-2.357">
        <ele>33</ele>
        <time>2020-06-24T12:15:05.077Z</time>
      </trkpt>
      <trkpt lat="48.65261" lon="-2.35701">
        <ele>33</ele>
        <time>2020-06-24T12:15:06.077Z</time>
      </trkpt>
      <trkpt lat="48.65263" lon="-2.35701">
        <ele>33</ele>
        <time>2020-06-24T12:15:07.077Z</time>
      </trkpt>
      <trkpt lat="48.65264" lon="-2.35701">
        <ele>33</ele>
        <time>2020-06-24T12:15:08.077Z</time>
      </trkpt>
      <trkpt lat="48.65265" lon="-2.35702">
        <ele>33</ele>
        <time>2020-06-24T12:15:09.077Z</time>
      </trkpt>
      <trkpt lat="48.65267" lon="-2.35703">
        <ele>33</ele>
        <time>2020-06-24T12:15:10.077Z</time>
      </trkpt>
      <trkpt lat="48.65268" lon="-2.35703">
        <ele>33</ele>
        <time>2020-06-24T12:15:11.077Z</time>
      </trkpt>
      <trkpt lat="48.65269" lon="-2.35704">
        <ele>33</ele>
        <time>2020-06-24T12:15:12.077Z</time>
      </trkpt>
      <trkpt lat="48.6527" lon="-2.35704">
        <ele>33</ele>
        <time>2020-06-24T12:15:13.077Z</time>
      </trkpt>
      <trkpt lat="48.65272" lon="-2.35705">
        <ele>32</ele>
        <time>2020-06-24T12:15:14.077Z</time>
      </trkpt>
      <trkpt lat="48.65273" lon="-2.35706">
        <ele>32</ele>
        <time>2020-06-24T12:15:15.077Z</time>
      </trkpt>
      <trkpt lat="48.65275" lon="-2.35706">
        <ele>32</ele>
        <time>2020-06-24T12:15:16.077Z</time>
      </trkpt>
      <trkpt lat="48.65276" lon="-2.35707">
        <ele>32</ele>
        <time>2020-06-24T12:15:17.077Z</time>
      </trkpt>
      <trkpt lat="48.65278" lon="-2.35708">
        <ele>32</ele>
        <time>2020-06-24T12:15:18.077Z</time>
      </trkpt>
      <trkpt lat="48.65279" lon="-2.35708">
        <ele>32</ele>
        <time>2020-06-24T12:15:19.077Z</time>
      </trkpt>
      <trkpt lat="48.6528" lon="-2.35709">
        <ele>32</ele>
        <time>2020-06-24T12:15:20.077Z</time>
      </trkpt>
      <trkpt lat="48.65282" lon="-2.3571">
        <ele>32</ele>
        <time>2020-06-24T12:15:21.077Z</time>
      </trkpt>
      <trkpt lat="48.65283" lon="-2.35711">
        <ele>32</ele>
        <time>2020-06-24T12:15:22.077Z</time>
      </trkpt>
      <trkpt lat="48.65284" lon="-2.35712">
        <ele>33</ele>
        <time>2020-06-24T12:15:23.077Z</time>
      </trkpt>
      <trkpt lat="48.65285" lon="-2.35713">
        <ele>32</ele>
        <time>2020-06-24T12:15:24.077Z</time>
      </trkpt>
      <trkpt lat="48.65287" lon="-2.35713">
        <ele>32</ele>
        <time>2020-06-24T12:15:25.077Z</time>
      </trkpt>
      <trkpt lat="48.65288" lon="-2.35714">
        <ele>32</ele>
        <time>2020-06-24T12:15:26.077Z</time>
      </trkpt>
      <trkpt lat="48.65289" lon="-2.35715">
        <ele>32</ele>
        <time>2020-06-24T12:15:27.077Z</time>
      </trkpt>
      <trkpt lat="48.6529" lon="-2.35715">
        <ele>32</ele>
        <time>2020-06-24T12:15:28.077Z</time>
      </trkpt>
      <trkpt lat="48.65291" lon="-2.35716">
        <ele>32</ele>
        <time>2020-06-24T12:15:29.077Z</time>
      </trkpt>
      <trkpt lat="48.65293" lon="-2.35717">
        <ele>32</ele>
        <time>2020-06-24T12:15:30.077Z</time>
      </trkpt>
      <trkpt lat="48.65294" lon="-2.35718">
        <ele>31</ele>
        <time>2020-06-24T12:15:31.077Z</time>
      </trkpt>
      <trkpt lat="48.65295" lon="-2.35718">
        <ele>31</ele>
        <time>2020-06-24T12:15:32.077Z</time>
      </trkpt>
      <trkpt lat="48.65296" lon="-2.35719">
        <ele>31</ele>
        <time>2020-06-24T12:15:33.077Z</time>
      </trkpt>
      <trkpt lat="48.65297" lon="-2.3572">
        <ele>31</ele>
        <time>2020-06-24T12:15:34.077Z</time>
      </trkpt>
      <trkpt lat="48.65298" lon="-2.35721">
        <ele>31</ele>
        <time>2020-06-24T12:15:35.077Z</time>
      </trkpt>
      <trkpt lat="48.653" lon="-2.35722">
        <ele>31</ele>
        <time>2020-06-24T12:15:36.077Z</time>
      </trkpt>
      <trkpt lat="48.65301" lon="-2.35723">
        <ele>30</ele>
        <time>2020-06-24T12:15:37.077Z</time>
      </trkpt>
      <trkpt lat="48.65302" lon="-2.35723">
        <ele>30</ele>
        <time>2020-06-24T12:15:38.077Z</time>
      </trkpt>
      <trkpt lat="48.65303" lon="-2.35724">
        <ele>30</ele>
        <time>2020-06-24T12:15:39.077Z</time>
      </trkpt>
      <trkpt lat="48.65305" lon="-2.35725">
        <ele>30</ele>
        <time>2020-06-24T12:15:40.077Z</time>
      </trkpt>
      <trkpt lat="48.65306" lon="-2.35726">
        <ele>30</ele>
        <time>2020-06-24T12:15:41.077Z</time>
      </trkpt>
      <trkpt lat="48.65307" lon="-2.35726">
        <ele>30</ele>
        <time>2020-06-24T12:15:42.077Z</time>
      </trkpt>
      <trkpt lat="48.65308" lon="-2.35727">
        <ele>29</ele>
        <time>2020-06-24T12:15:43.077Z</time>
      </trkpt>
      <trkpt lat="48.65309" lon="-2.35728">
        <ele>29</ele>
        <time>2020-06-24T12:15:44.077Z</time>
      </trkpt>
      <trkpt lat="48.6531" lon="-2.3573">
        <ele>29</ele>
        <time>2020-06-24T12:15:45.077Z</time>
      </trkpt>
      <trkpt lat="48.65311" lon="-2.35731">
        <ele>30</ele>
        <time>2020-06-24T12:15:46.077Z</time>
      </trkpt>
      <trkpt lat="48.65312" lon="-2.35733">
        <ele>30</ele>
        <time>2020-06-24T12:15:47.077Z</time>
      </trkpt>
      <trkpt lat="48.65312" lon="-2.35735">
        <ele>30</ele>
        <time>2020-06-24T12:15:48.077Z</time>
      </trkpt>
      <trkpt lat="48.65313" lon="-2.35737">
        <ele>29</ele>
        <time>2020-06-24T12:15:49.077Z</time>
      </trkpt>
      <trkpt lat="48.65313" lon="-2.35739">
        <ele>29</ele>
        <time>2020-06-24T12:15:50.077Z</time>
      </trkpt>
      <trkpt lat="48.65313" lon="-2.3574">
        <ele>30</ele>
        <time>2020-06-24T12:15:51.077Z</time>
      </trkpt>
      <trkpt lat="48.65314" lon="-2.35742">
        <ele>29</ele>
        <time>2020-06-24T12:15:52.077Z</time>
      </trkpt>
      <trkpt lat="48.65314" lon="-2.35744">
        <ele>30</ele>
        <time>2020-06-24T12:15:53.077Z</time>
      </trkpt>
      <trkpt lat="48.65314" lon="-2.35745">
        <ele>29</ele>
        <time>2020-06-24T12:15:54.077Z</time>
      </trkpt>
      <trkpt lat="48.65314" lon="-2.35747">
        <ele>29</ele>
        <time>2020-06-24T12:15:55.077Z</time>
      </trkpt>
      <trkpt lat="48.65314" lon="-2.35748">
        <ele>29</ele>
        <time>2020-06-24T12:15:56.077Z</time>
      </trkpt>
      <trkpt lat="48.65314" lon="-2.35749">
        <ele>29</ele>
        <time>2020-06-24T12:15:57.077Z</time>
      </trkpt>
      <trkpt lat="48.65314" lon="-2.3575">
        <ele>30</ele>
        <time>2020-06-24T12:15:58.077Z</time>
      </trkpt>
      <trkpt lat="48.65313" lon="-2.35752">
        <ele>29</ele>
        <time>2020-06-24T12:15:59.077Z</time>
      </trkpt>
      <trkpt lat="48.65312" lon="-2.35753">
        <ele>29</ele>
        <time>2020-06-24T12:16:00.077Z</time>
      </trkpt>
      <trkpt lat="48.65312" lon="-2.35755">
        <ele>29</ele>
        <time>2020-06-24T12:16:01.077Z</time>
      </trkpt>
      <trkpt lat="48.65311" lon="-2.35756">
        <ele>30</ele>
        <time>2020-06-24T12:16:02.077Z</time>
      </trkpt>
      <trkpt lat="48.6531" lon="-2.35758">
        <ele>30</ele>
        <time>2020-06-24T12:16:03.077Z</time>
      </trkpt>
      <trkpt lat="48.6531" lon="-2.35759">
        <ele>30</ele>
        <time>2020-06-24T12:16:04.077Z</time>
      </trkpt>
      <trkpt lat="48.65308" lon="-2.35761">
        <ele>30</ele>
        <time>2020-06-24T12:16:05.077Z</time>
      </trkpt>
      <trkpt lat="48.65307" lon="-2.35762">
        <ele>30</ele>
        <time>2020-06-24T12:16:06.077Z</time>
      </trkpt>
      <trkpt lat="48.65306" lon="-2.35764">
        <ele>30</ele>
        <time>2020-06-24T12:16:07.077Z</time>
      </trkpt>
      <trkpt lat="48.65305" lon="-2.35765">
        <ele>30</ele>
        <time>2020-06-24T12:16:08.077Z</time>
      </trkpt>
      <trkpt lat="48.65304" lon="-2.35766">
        <ele>31</ele>
        <time>2020-06-24T12:16:09.077Z</time>
      </trkpt>
      <trkpt lat="48.65303" lon="-2.35768">
        <ele>31</ele>
        <time>2020-06-24T12:16:10.077Z</time>
      </trkpt>
      <trkpt lat="48.65302" lon="-2.35769">
        <ele>31</ele>
        <time>2020-06-24T12:16:11.077Z</time>
      </trkpt>
      <trkpt lat="48.65301" lon="-2.3577">
        <ele>31</ele>
        <time>2020-06-24T12:16:12.077Z</time>
      </trkpt>
      <trkpt lat="48.653" lon="-2.35771">
        <ele>30</ele>
        <time>2020-06-24T12:16:13.077Z</time>
      </trkpt>
      <trkpt lat="48.65299" lon="-2.35772">
        <ele>31</ele>
        <time>2020-06-24T12:16:14.077Z</time>
      </trkpt>
      <trkpt lat="48.65298" lon="-2.35774">
        <ele>31</ele>
        <time>2020-06-24T12:16:15.077Z</time>
      </trkpt>
      <trkpt lat="48.65297" lon="-2.35775">
        <ele>31</ele>
        <time>2020-06-24T12:16:16.077Z</time>
      </trkpt>
      <trkpt lat="48.65296" lon="-2.35777">
        <ele>31</ele>
        <time>2020-06-24T12:16:17.077Z</time>
      </trkpt>
      <trkpt lat="48.65295" lon="-2.35778">
        <ele>31</ele>
        <time>2020-06-24T12:16:18.077Z</time>
      </trkpt>
      <trkpt lat="48.65294" lon="-2.35779">
        <ele>31</ele>
        <time>2020-06-24T12:16:19.077Z</time>
      </trkpt>
      <trkpt lat="48.65292" lon="-2.3578">
        <ele>31</ele>
        <time>2020-06-24T12:16:20.077Z</time>
      </trkpt>
      <trkpt lat="48.65291" lon="-2.35781">
        <ele>31</ele>
        <time>2020-06-24T12:16:21.077Z</time>
      </trkpt>
      <trkpt lat="48.6529" lon="-2.35782">
        <ele>31</ele>
        <time>2020-06-24T12:16:22.077Z</time>
      </trkpt>
      <trkpt lat="48.65289" lon="-2.35782">
        <ele>31</ele>
        <time>2020-06-24T12:16:23.077Z</time>
      </trkpt>
      <trkpt lat="48.65287" lon="-2.35783">
        <ele>31</ele>
        <time>2020-06-24T12:16:24.077Z</time>
      </trkpt>
      <trkpt lat="48.65286" lon="-2.35784">
        <ele>31</ele>
        <time>2020-06-24T12:16:25.077Z</time>
      </trkpt>
      <trkpt lat="48.65285" lon="-2.35786">
        <ele>31</ele>
        <time>2020-06-24T12:16:26.077Z</time>
      </trkpt>
      <trkpt lat="48.65284" lon="-2.35787">
        <ele>31</ele>
        <time>2020-06-24T12:16:27.077Z</time>
      </trkpt>
      <trkpt lat="48.65283" lon="-2.35788">
        <ele>31</ele>
        <time>2020-06-24T12:16:28.077Z</time>
      </trkpt>
      <trkpt lat="48.65282" lon="-2.35789">
        <ele>31</ele>
        <time>2020-06-24T12:16:29.077Z</time>
      </trkpt>
      <trkpt lat="48.6528" lon="-2.3579">
        <ele>31</ele>
        <time>2020-06-24T12:16:30.077Z</time>
      </trkpt>
      <trkpt lat="48.65279" lon="-2.35792">
        <ele>31</ele>
        <time>2020-06-24T12:16:31.077Z</time>
      </trkpt>
      <trkpt lat="48.65278" lon="-2.35793">
        <ele>31</ele>
        <time>2020-06-24T12:16:32.077Z</time>
      </trkpt>
      <trkpt lat="48.65277" lon="-2.35794">
        <ele>31</ele>
        <time>2020-06-24T12:16:33.077Z</time>
      </trkpt>
      <trkpt lat="48.65276" lon="-2.35796">
        <ele>31</ele>
        <time>2020-06-24T12:16:34.077Z</time>
      </trkpt>
      <trkpt lat="48.65275" lon="-2.35797">
        <ele>31</ele>
        <time>2020-06-24T12:16:35.077Z</time>
      </trkpt>
      <trkpt lat="48.65274" lon="-2.35799">
        <ele>31</ele>
        <time>2020-06-24T12:16:36.077Z</time>
      </trkpt>
      <trkpt lat="48.65273" lon="-2.358">
        <ele>31</ele>
        <time>2020-06-24T12:16:37.077Z</time>
      </trkpt>
      <trkpt lat="48.65272" lon="-2.35802">
        <ele>31</ele>
        <time>2020-06-24T12:16:38.077Z</time>
      </trkpt>
      <trkpt lat="48.65271" lon="-2.35803">
        <ele>31</ele>
        <time>2020-06-24T12:16:39.077Z</time>
      </trkpt>
      <trkpt lat="48.6527" lon="-2.35805">
        <ele>31</ele>
        <time>2020-06-24T12:16:40.077Z</time>
      </trkpt>
      <trkpt lat="48.65269" lon="-2.35806">
        <ele>31</ele>
        <time>2020-06-24T12:16:41.077Z</time>
      </trkpt>
      <trkpt lat="48.65268" lon="-2.35808">
        <ele>31</ele>
        <time>2020-06-24T12:16:42.077Z</time>
      </trkpt>
      <trkpt lat="48.65267" lon="-2.3581">
        <ele>32</ele>
        <time>2020-06-24T12:16:43.077Z</time>
      </trkpt>
      <trkpt lat="48.65266" lon="-2.35811">
        <ele>31</ele>
        <time>2020-06-24T12:16:44.077Z</time>
      </trkpt>
      <trkpt lat="48.65265" lon="-2.35813">
        <ele>32</ele>
        <time>2020-06-24T12:16:45.077Z</time>
      </trkpt>
      <trkpt lat="48.65264" lon="-2.35814">
        <ele>32</ele>
        <time>2020-06-24T12:16:46.077Z</time>
      </trkpt>
      <trkpt lat="48.65264" lon="-2.35815">
        <ele>32</ele>
        <time>2020-06-24T12:16:47.077Z</time>
      </trkpt>
      <trkpt lat="48.65263" lon="-2.35817">
        <ele>32</ele>
        <time>2020-06-24T12:16:48.077Z</time>
      </trkpt>
      <trkpt lat="48.65262" lon="-2.35818">
        <ele>32</ele>
        <time>2020-06-24T12:16:49.077Z</time>
      </trkpt>
      <trkpt lat="48.65261" lon="-2.3582">
        <ele>32</ele>
        <time>2020-06-24T12:16:50.077Z</time>
      </trkpt>
      <trkpt lat="48.6526" lon="-2.35821">
        <ele>32</ele>
        <time>2020-06-24T12:16:51.077Z</time>
      </trkpt>
      <trkpt lat="48.65259" lon="-2.35823">
        <ele>32</ele>
        <time>2020-06-24T12:16:52.077Z</time>
      </trkpt>
      <trkpt lat="48.65258" lon="-2.35824">
        <ele>32</ele>
        <time>2020-06-24T12:16:53.077Z</time>
      </trkpt>
      <trkpt lat="48.65257" lon="-2.35826">
        <ele>32</ele>
        <time>2020-06-24T12:16:54.077Z</time>
      </trkpt>
      <trkpt lat="48.65256" lon="-2.35827">
        <ele>32</ele>
        <time>2020-06-24T12:16:55.077Z</time>
      </trkpt>
      <trkpt lat="48.65255" lon="-2.35829">
        <ele>33</ele>
        <time>2020-06-24T12:16:56.077Z</time>
      </trkpt>
      <trkpt lat="48.65254" lon="-2.3583">
        <ele>32</ele>
        <time>2020-06-24T12:16:57.077Z</time>
      </trkpt>
      <trkpt lat="48.65253" lon="-2.35831">
        <ele>32</ele>
        <time>2020-06-24T12:16:58.077Z</time>
      </trkpt>
      <trkpt lat="48.65253" lon="-2.35833">
        <ele>32</ele>
        <time>2020-06-24T12:16:59.077Z</time>
      </trkpt>
      <trkpt lat="48.65252" lon="-2.35834">
        <ele>33</ele>
        <time>2020-06-24T12:17:00.077Z</time>
      </trkpt>
      <trkpt lat="48.65251" lon="-2.35836">
        <ele>32</ele>
        <time>2020-06-24T12:17:01.077Z</time>
      </trkpt>
      <trkpt lat="48.6525" lon="-2.35838">
        <ele>32</ele>
        <time>2020-06-24T12:17:02.077Z</time>
      </trkpt>
      <trkpt lat="48.65249" lon="-2.35839">
        <ele>33</ele>
        <time>2020-06-24T12:17:03.077Z</time>
      </trkpt>
      <trkpt lat="48.65248" lon="-2.35841">
        <ele>33</ele>
        <time>2020-06-24T12:17:04.077Z</time>
      </trkpt>
      <trkpt lat="48.65247" lon="-2.35842">
        <ele>33</ele>
        <time>2020-06-24T12:17:05.077Z</time>
      </trkpt>
      <trkpt lat="48.65246" lon="-2.35844">
        <ele>33</ele>
        <time>2020-06-24T12:17:06.077Z</time>
      </trkpt>
      <trkpt lat="48.65245" lon="-2.35845">
        <ele>33</ele>
        <time>2020-06-24T12:17:07.077Z</time>
      </trkpt>
      <trkpt lat="48.65244" lon="-2.35847">
        <ele>33</ele>
        <time>2020-06-24T12:17:08.077Z</time>
      </trkpt>
      <trkpt lat="48.65243" lon="-2.35849">
        <ele>34</ele>
        <time>2020-06-24T12:17:09.077Z</time>
      </trkpt>
      <trkpt lat="48.65242" lon="-2.3585">
        <ele>34</ele>
        <time>2020-06-24T12:17:10.077Z</time>
      </trkpt>
      <trkpt lat="48.65241" lon="-2.35852">
        <ele>34</ele>
        <time>2020-06-24T12:17:11.077Z</time>
      </trkpt>
      <trkpt lat="48.6524" lon="-2.35854">
        <ele>34</ele>
        <time>2020-06-24T12:17:12.077Z</time>
      </trkpt>
      <trkpt lat="48.6524" lon="-2.35855">
        <ele>34</ele>
        <time>2020-06-24T12:17:13.077Z</time>
      </trkpt>
      <trkpt lat="48.65239" lon="-2.35857">
        <ele>35</ele>
        <time>2020-06-24T12:17:14.077Z</time>
      </trkpt>
      <trkpt lat="48.65238" lon="-2.35859">
        <ele>35</ele>
        <time>2020-06-24T12:17:15.077Z</time>
      </trkpt>
      <trkpt lat="48.65238" lon="-2.35861">
        <ele>35</ele>
        <time>2020-06-24T12:17:16.077Z</time>
      </trkpt>
      <trkpt lat="48.65237" lon="-2.35863">
        <ele>35</ele>
        <time>2020-06-24T12:17:17.077Z</time>
      </trkpt>
      <trkpt lat="48.65236" lon="-2.35865">
        <ele>35</ele>
        <time>2020-06-24T12:17:18.077Z</time>
      </trkpt>
      <trkpt lat="48.65235" lon="-2.35866">
        <ele>35</ele>
        <time>2020-06-24T12:17:19.077Z</time>
      </trkpt>
      <trkpt lat="48.65234" lon="-2.35868">
        <ele>35</ele>
        <time>2020-06-24T12:17:20.077Z</time>
      </trkpt>
      <trkpt lat="48.65233" lon="-2.35869">
        <ele>36</ele>
        <time>2020-06-24T12:17:21.077Z</time>
      </trkpt>
      <trkpt lat="48.65232" lon="-2.35871">
        <ele>37</ele>
        <time>2020-06-24T12:17:22.077Z</time>
      </trkpt>
      <trkpt lat="48.65231" lon="-2.35873">
        <ele>37</ele>
        <time>2020-06-24T12:17:23.077Z</time>
      </trkpt>
      <trkpt lat="48.6523" lon="-2.35875">
        <ele>37</ele>
        <time>2020-06-24T12:17:24.077Z</time>
      </trkpt>
      <trkpt lat="48.65229" lon="-2.35877">
        <ele>37</ele>
        <time>2020-06-24T12:17:25.077Z</time>
      </trkpt>
      <trkpt lat="48.65228" lon="-2.35878">
        <ele>37</ele>
        <time>2020-06-24T12:17:26.077Z</time>
      </trkpt>
      <trkpt lat="48.65227" lon="-2.3588">
        <ele>37</ele>
        <time>2020-06-24T12:17:27.077Z</time>
      </trkpt>
      <trkpt lat="48.65226" lon="-2.35882">
        <ele>37</ele>
        <time>2020-06-24T12:17:28.077Z</time>
      </trkpt>
      <trkpt lat="48.65225" lon="-2.35883">
        <ele>37</ele>
        <time>2020-06-24T12:17:29.077Z</time>
      </trkpt>
      <trkpt lat="48.65225" lon="-2.35885">
        <ele>37</ele>
        <time>2020-06-24T12:17:30.077Z</time>
      </trkpt>
      <trkpt lat="48.65224" lon="-2.35887">
        <ele>37</ele>
        <time>2020-06-24T12:17:31.077Z</time>
      </trkpt>
      <trkpt lat="48.65223" lon="-2.35888">
        <ele>38</ele>
        <time>2020-06-24T12:17:32.077Z</time>
      </trkpt>
      <trkpt lat="48.65222" lon="-2.3589">
        <ele>38</ele>
        <time>2020-06-24T12:17:33.077Z</time>
      </trkpt>
      <trkpt lat="48.65221" lon="-2.35892">
        <ele>38</ele>
        <time>2020-06-24T12:17:34.077Z</time>
      </trkpt>
      <trkpt lat="48.6522" lon="-2.35894">
        <ele>38</ele>
        <time>2020-06-24T12:17:35.077Z</time>
      </trkpt>
      <trkpt lat="48.6522" lon="-2.35895">
        <ele>38</ele>
        <time>2020-06-24T12:17:36.077Z</time>
      </trkpt>
      <trkpt lat="48.65219" lon="-2.35897">
        <ele>38</ele>
        <time>2020-06-24T12:17:37.077Z</time>
      </trkpt>
      <trkpt lat="48.65218" lon="-2.35898">
        <ele>38</ele>
        <time>2020-06-24T12:17:38.077Z</time>
      </trkpt>
      <trkpt lat="48.65217" lon="-2.35899">
        <ele>38</ele>
        <time>2020-06-24T12:17:39.077Z</time>
      </trkpt>
      <trkpt lat="48.65217" lon="-2.35901">
        <ele>38</ele>
        <time>2020-06-24T12:17:40.077Z</time>
      </trkpt>
      <trkpt lat="48.65216" lon="-2.35902">
        <ele>38</ele>
        <time>2020-06-24T12:17:41.077Z</time>
      </trkpt>
      <trkpt lat="48.65215" lon="-2.35904">
        <ele>39</ele>
        <time>2020-06-24T12:17:42.077Z</time>
      </trkpt>
      <trkpt lat="48.65214" lon="-2.35906">
        <ele>39</ele>
        <time>2020-06-24T12:17:43.077Z</time>
      </trkpt>
      <trkpt lat="48.65213" lon="-2.35907">
        <ele>39</ele>
        <time>2020-06-24T12:17:44.077Z</time>
      </trkpt>
      <trkpt lat="48.65213" lon="-2.35909">
        <ele>39</ele>
        <time>2020-06-24T12:17:45.077Z</time>
      </trkpt>
      <trkpt lat="48.65212" lon="-2.35911">
        <ele>39</ele>
        <time>2020-06-24T12:17:46.077Z</time>
      </trkpt>
      <trkpt lat="48.65211" lon="-2.35912">
        <ele>39</ele>
        <time>2020-06-24T12:17:47.077Z</time>
      </trkpt>
      <trkpt lat="48.6521" lon="-2.35914">
        <ele>40</ele>
        <time>2020-06-24T12:17:48.077Z</time>
      </trkpt>
      <trkpt lat="48.65209" lon="-2.35916">
        <ele>40</ele>
        <time>2020-06-24T12:17:49.077Z</time>
      </trkpt>
      <trkpt lat="48.65209" lon="-2.35917">
        <ele>40</ele>
        <time>2020-06-24T12:17:50.077Z</time>
      </trkpt>
      <trkpt lat="48.65208" lon="-2.35919">
        <ele>39</ele>
        <time>2020-06-24T12:17:51.077Z</time>
      </trkpt>
      <trkpt lat="48.65207" lon="-2.3592">
        <ele>39</ele>
        <time>2020-06-24T12:17:52.077Z</time>
      </trkpt>
      <trkpt lat="48.65206" lon="-2.35921">
        <ele>39</ele>
        <time>2020-06-24T12:17:53.077Z</time>
      </trkpt>
      <trkpt lat="48.65205" lon="-2.35923">
        <ele>40</ele>
        <time>2020-06-24T12:17:54.077Z</time>
      </trkpt>
      <trkpt lat="48.65204" lon="-2.35925">
        <ele>40</ele>
        <time>2020-06-24T12:17:55.077Z</time>
      </trkpt>
      <trkpt lat="48.65203" lon="-2.35926">
        <ele>40</ele>
        <time>2020-06-24T12:17:56.077Z</time>
      </trkpt>
      <trkpt lat="48.65202" lon="-2.35928">
        <ele>40</ele>
        <time>2020-06-24T12:17:57.077Z</time>
      </trkpt>
      <trkpt lat="48.65202" lon="-2.35929">
        <ele>41</ele>
        <time>2020-06-24T12:17:58.077Z</time>
      </trkpt>
      <trkpt lat="48.65201" lon="-2.35931">
        <ele>41</ele>
        <time>2020-06-24T12:17:59.077Z</time>
      </trkpt>
      <trkpt lat="48.652" lon="-2.35932">
        <ele>41</ele>
        <time>2020-06-24T12:18:00.077Z</time>
      </trkpt>
      <trkpt lat="48.65199" lon="-2.35934">
        <ele>42</ele>
        <time>2020-06-24T12:18:01.077Z</time>
      </trkpt>
      <trkpt lat="48.65198" lon="-2.35935">
        <ele>42</ele>
        <time>2020-06-24T12:18:02.077Z</time>
      </trkpt>
      <trkpt lat="48.65197" lon="-2.35937">
        <ele>42</ele>
        <time>2020-06-24T12:18:03.077Z</time>
      </trkpt>
      <trkpt lat="48.65197" lon="-2.35938">
        <ele>43</ele>
        <time>2020-06-24T12:18:04.077Z</time>
      </trkpt>
      <trkpt lat="48.65196" lon="-2.3594">
        <ele>43</ele>
        <time>2020-06-24T12:18:05.077Z</time>
      </trkpt>
      <trkpt lat="48.65195" lon="-2.35941">
        <ele>43</ele>
        <time>2020-06-24T12:18:06.077Z</time>
      </trkpt>
      <trkpt lat="48.65194" lon="-2.35943">
        <ele>43</ele>
        <time>2020-06-24T12:18:07.077Z</time>
      </trkpt>
      <trkpt lat="48.65193" lon="-2.35944">
        <ele>43</ele>
        <time>2020-06-24T12:18:08.077Z</time>
      </trkpt>
      <trkpt lat="48.65193" lon="-2.35945">
        <ele>43</ele>
        <time>2020-06-24T12:18:09.077Z</time>
      </trkpt>
      <trkpt lat="48.65192" lon="-2.35947">
        <ele>43</ele>
        <time>2020-06-24T12:18:10.077Z</time>
      </trkpt>
      <trkpt lat="48.65191" lon="-2.35949">
        <ele>43</ele>
        <time>2020-06-24T12:18:11.077Z</time>
      </trkpt>
      <trkpt lat="48.6519" lon="-2.3595">
        <ele>43</ele>
        <time>2020-06-24T12:18:12.077Z</time>
      </trkpt>
      <trkpt lat="48.6519" lon="-2.35952">
        <ele>43</ele>
        <time>2020-06-24T12:18:13.077Z</time>
      </trkpt>
      <trkpt lat="48.65189" lon="-2.35953">
        <ele>43</ele>
        <time>2020-06-24T12:18:14.077Z</time>
      </trkpt>
      <trkpt lat="48.65188" lon="-2.35955">
        <ele>43</ele>
        <time>2020-06-24T12:18:15.077Z</time>
      </trkpt>
      <trkpt lat="48.65188" lon="-2.35957">
        <ele>43</ele>
        <time>2020-06-24T12:18:16.077Z</time>
      </trkpt>
      <trkpt lat="48.65187" lon="-2.35959">
        <ele>43</ele>
        <time>2020-06-24T12:18:17.077Z</time>
      </trkpt>
      <trkpt lat="48.65187" lon="-2.35961">
        <ele>43</ele>
        <time>2020-06-24T12:18:18.077Z</time>
      </trkpt>
      <trkpt lat="48.65187" lon="-2.35963">
        <ele>43</ele>
        <time>2020-06-24T12:18:19.077Z</time>
      </trkpt>
      <trkpt lat="48.65187" lon="-2.35965">
        <ele>42</ele>
        <time>2020-06-24T12:18:20.077Z</time>
      </trkpt>
      <trkpt lat="48.65187" lon="-2.35966">
        <ele>42</ele>
        <time>2020-06-24T12:18:21.077Z</time>
      </trkpt>
      <trkpt lat="48.65187" lon="-2.35968">
        <ele>43</ele>
        <time>2020-06-24T12:18:22.077Z</time>
      </trkpt>
      <trkpt lat="48.65188" lon="-2.3597">
        <ele>42</ele>
        <time>2020-06-24T12:18:23.077Z</time>
      </trkpt>
      <trkpt lat="48.65188" lon="-2.35971">
        <ele>42</ele>
        <time>2020-06-24T12:18:24.077Z</time>
      </trkpt>
      <trkpt lat="48.65189" lon="-2.35973">
        <ele>42</ele>
        <time>2020-06-24T12:18:25.077Z</time>
      </trkpt>
      <trkpt lat="48.6519" lon="-2.35974">
        <ele>43</ele>
        <time>2020-06-24T12:18:26.077Z</time>
      </trkpt>
      <trkpt lat="48.65191" lon="-2.35976">
        <ele>44</ele>
        <time>2020-06-24T12:18:27.077Z</time>
      </trkpt>
      <trkpt lat="48.65193" lon="-2.35977">
        <ele>44</ele>
        <time>2020-06-24T12:18:28.077Z</time>
      </trkpt>
      <trkpt lat="48.65194" lon="-2.35979">
        <ele>44</ele>
        <time>2020-06-24T12:18:29.077Z</time>
      </trkpt>
      <trkpt lat="48.65195" lon="-2.3598">
        <ele>44</ele>
        <time>2020-06-24T12:18:30.077Z</time>
      </trkpt>
      <trkpt lat="48.65196" lon="-2.35981">
        <ele>44</ele>
        <time>2020-06-24T12:18:31.077Z</time>
      </trkpt>
      <trkpt lat="48.65197" lon="-2.35982">
        <ele>45</ele>
        <time>2020-06-24T12:18:32.077Z</time>
      </trkpt>
      <trkpt lat="48.65198" lon="-2.35983">
        <ele>45</ele>
        <time>2020-06-24T12:18:33.077Z</time>
      </trkpt>
      <trkpt lat="48.652" lon="-2.35983">
        <ele>45</ele>
        <time>2020-06-24T12:18:34.077Z</time>
      </trkpt>
      <trkpt lat="48.65201" lon="-2.35983">
        <ele>45</ele>
        <time>2020-06-24T12:18:35.077Z</time>
      </trkpt>
      <trkpt lat="48.65202" lon="-2.35984">
        <ele>45</ele>
        <time>2020-06-24T12:18:36.077Z</time>
      </trkpt>
      <trkpt lat="48.65204" lon="-2.35984">
        <ele>45</ele>
        <time>2020-06-24T12:18:37.077Z</time>
      </trkpt>
      <trkpt lat="48.65205" lon="-2.35985">
        <ele>46</ele>
        <time>2020-06-24T12:18:38.077Z</time>
      </trkpt>
      <trkpt lat="48.65206" lon="-2.35986">
        <ele>46</ele>
        <time>2020-06-24T12:18:39.077Z</time>
      </trkpt>
      <trkpt lat="48.65207" lon="-2.35986">
        <ele>46</ele>
        <time>2020-06-24T12:18:40.077Z</time>
      </trkpt>
      <trkpt lat="48.65208" lon="-2.35987">
        <ele>46</ele>
        <time>2020-06-24T12:18:41.077Z</time>
      </trkpt>
      <trkpt lat="48.6521" lon="-2.35988">
        <ele>46</ele>
        <time>2020-06-24T12:18:42.077Z</time>
      </trkpt>
      <trkpt lat="48.65211" lon="-2.35989">
        <ele>47</ele>
        <time>2020-06-24T12:18:43.077Z</time>
      </trkpt>
      <trkpt lat="48.65212" lon="-2.3599">
        <ele>47</ele>
        <time>2020-06-24T12:18:44.077Z</time>
      </trkpt>
      <trkpt lat="48.65213" lon="-2.35991">
        <ele>47</ele>
        <time>2020-06-24T12:18:45.077Z</time>
      </trkpt>
      <trkpt lat="48.65214" lon="-2.35991">
        <ele>47</ele>
        <time>2020-06-24T12:18:46.077Z</time>
      </trkpt>
      <trkpt lat="48.65216" lon="-2.35992">
        <ele>47</ele>
        <time>2020-06-24T12:18:47.077Z</time>
      </trkpt>
      <trkpt lat="48.65217" lon="-2.35993">
        <ele>47</ele>
        <time>2020-06-24T12:18:48.077Z</time>
      </trkpt>
      <trkpt lat="48.65218" lon="-2.35994">
        <ele>47</ele>
        <time>2020-06-24T12:18:49.077Z</time>
      </trkpt>
      <trkpt lat="48.6522" lon="-2.35995">
        <ele>47</ele>
        <time>2020-06-24T12:18:50.077Z</time>
      </trkpt>
      <trkpt lat="48.65221" lon="-2.35996">
        <ele>48</ele>
        <time>2020-06-24T12:18:51.077Z</time>
      </trkpt>
      <trkpt lat="48.65222" lon="-2.35997">
        <ele>48</ele>
        <time>2020-06-24T12:18:52.077Z</time>
      </trkpt>
      <trkpt lat="48.65223" lon="-2.35999">
        <ele>48</ele>
        <time>2020-06-24T12:18:53.077Z</time>
      </trkpt>
      <trkpt lat="48.65224" lon="-2.36">
        <ele>48</ele>
        <time>2020-06-24T12:18:54.077Z</time>
      </trkpt>
      <trkpt lat="48.65225" lon="-2.36002">
        <ele>48</ele>
        <time>2020-06-24T12:18:55.077Z</time>
      </trkpt>
      <trkpt lat="48.65226" lon="-2.36004">
        <ele>48</ele>
        <time>2020-06-24T12:18:56.077Z</time>
      </trkpt>
      <trkpt lat="48.65227" lon="-2.36006">
        <ele>48</ele>
        <time>2020-06-24T12:18:57.077Z</time>
      </trkpt>
      <trkpt lat="48.65228" lon="-2.36008">
        <ele>49</ele>
        <time>2020-06-24T12:18:58.077Z</time>
      </trkpt>
      <trkpt lat="48.65229" lon="-2.3601">
        <ele>49</ele>
        <time>2020-06-24T12:18:59.077Z</time>
      </trkpt>
      <trkpt lat="48.6523" lon="-2.36012">
        <ele>49</ele>
        <time>2020-06-24T12:19:00.077Z</time>
      </trkpt>
      <trkpt lat="48.65231" lon="-2.36014">
        <ele>49</ele>
        <time>2020-06-24T12:19:01.077Z</time>
      </trkpt>
      <trkpt lat="48.65232" lon="-2.36015">
        <ele>48</ele>
        <time>2020-06-24T12:19:02.077Z</time>
      </trkpt>
      <trkpt lat="48.65232" lon="-2.36017">
        <ele>49</ele>
        <time>2020-06-24T12:19:03.077Z</time>
      </trkpt>
      <trkpt lat="48.65233" lon="-2.36019">
        <ele>48</ele>
        <time>2020-06-24T12:19:04.077Z</time>
      </trkpt>
      <trkpt lat="48.65233" lon="-2.36021">
        <ele>48</ele>
        <time>2020-06-24T12:19:05.077Z</time>
      </trkpt>
      <trkpt lat="48.65234" lon="-2.36023">
        <ele>48</ele>
        <time>2020-06-24T12:19:06.077Z</time>
      </trkpt>
      <trkpt lat="48.65234" lon="-2.36025">
        <ele>48</ele>
        <time>2020-06-24T12:19:07.077Z</time>
      </trkpt>
      <trkpt lat="48.65234" lon="-2.36027">
        <ele>48</ele>
        <time>2020-06-24T12:19:08.077Z</time>
      </trkpt>
      <trkpt lat="48.65234" lon="-2.36029">
        <ele>48</ele>
        <time>2020-06-24T12:19:09.077Z</time>
      </trkpt>
      <trkpt lat="48.65234" lon="-2.36032">
        <ele>48</ele>
        <time>2020-06-24T12:19:10.077Z</time>
      </trkpt>
      <trkpt lat="48.65234" lon="-2.36034">
        <ele>48</ele>
        <time>2020-06-24T12:19:11.077Z</time>
      </trkpt>
      <trkpt lat="48.65234" lon="-2.36036">
        <ele>48</ele>
        <time>2020-06-24T12:19:12.077Z</time>
      </trkpt>
      <trkpt lat="48.65234" lon="-2.36038">
        <ele>48</ele>
        <time>2020-06-24T12:19:13.077Z</time>
      </trkpt>
      <trkpt lat="48.65234" lon="-2.3604">
        <ele>48</ele>
        <time>2020-06-24T12:19:14.077Z</time>
      </trkpt>
      <trkpt lat="48.65234" lon="-2.36042">
        <ele>48</ele>
        <time>2020-06-24T12:19:15.077Z</time>
      </trkpt>
      <trkpt lat="48.65234" lon="-2.36044">
        <ele>47</ele>
        <time>2020-06-24T12:19:16.077Z</time>
      </trkpt>
      <trkpt lat="48.65234" lon="-2.36046">
        <ele>47</ele>
        <time>2020-06-24T12:19:17.077Z</time>
      </trkpt>
      <trkpt lat="48.65233" lon="-2.36049">
        <ele>47</ele>
        <time>2020-06-24T12:19:18.077Z</time>
      </trkpt>
      <trkpt lat="48.65233" lon="-2.36051">
        <ele>47</ele>
        <time>2020-06-24T12:19:19.077Z</time>
      </trkpt>
      <trkpt lat="48.65233" lon="-2.36053">
        <ele>47</ele>
        <time>2020-06-24T12:19:20.077Z</time>
      </trkpt>
      <trkpt lat="48.65233" lon="-2.36055">
        <ele>47</ele>
        <time>2020-06-24T12:19:21.077Z</time>
      </trkpt>
      <trkpt lat="48.65233" lon="-2.36057">
        <ele>47</ele>
        <time>2020-06-24T12:19:22.077Z</time>
      </trkpt>
      <trkpt lat="48.65233" lon="-2.3606">
        <ele>47</ele>
        <time>2020-06-24T12:19:23.077Z</time>
      </trkpt>
      <trkpt lat="48.65233" lon="-2.36062">
        <ele>47</ele>
        <time>2020-06-24T12:19:24.077Z</time>
      </trkpt>
      <trkpt lat="48.65232" lon="-2.36064">
        <ele>47</ele>
        <time>2020-06-24T12:19:25.077Z</time>
      </trkpt>
      <trkpt lat="48.65232" lon="-2.36066">
        <ele>47</ele>
        <time>2020-06-24T12:19:26.077Z</time>
      </trkpt>
      <trkpt lat="48.65232" lon="-2.36068">
        <ele>47</ele>
        <time>2020-06-24T12:19:27.077Z</time>
      </trkpt>
      <trkpt lat="48.65232" lon="-2.3607">
        <ele>47</ele>
        <time>2020-06-24T12:19:28.077Z</time>
      </trkpt>
      <trkpt lat="48.65232" lon="-2.36072">
        <ele>47</ele>
        <time>2020-06-24T12:19:29.077Z</time>
      </trkpt>
      <trkpt lat="48.65232" lon="-2.36075">
        <ele>47</ele>
        <time>2020-06-24T12:19:30.077Z</time>
      </trkpt>
      <trkpt lat="48.65231" lon="-2.36077">
        <ele>47</ele>
        <time>2020-06-24T12:19:31.077Z</time>
      </trkpt>
      <trkpt lat="48.65231" lon="-2.36079">
        <ele>47</ele>
        <time>2020-06-24T12:19:32.077Z</time>
      </trkpt>
      <trkpt lat="48.6523" lon="-2.36081">
        <ele>47</ele>
        <time>2020-06-24T12:19:33.077Z</time>
      </trkpt>
      <trkpt lat="48.6523" lon="-2.36083">
        <ele>47</ele>
        <time>2020-06-24T12:19:34.077Z</time>
      </trkpt>
      <trkpt lat="48.6523" lon="-2.36086">
        <ele>48</ele>
        <time>2020-06-24T12:19:35.077Z</time>
      </trkpt>
      <trkpt lat="48.65229" lon="-2.36088">
        <ele>47</ele>
        <time>2020-06-24T12:19:36.077Z</time>
      </trkpt>
      <trkpt lat="48.65229" lon="-2.3609">
        <ele>47</ele>
        <time>2020-06-24T12:19:37.077Z</time>
      </trkpt>
      <trkpt lat="48.65228" lon="-2.36092">
        <ele>47</ele>
        <time>2020-06-24T12:19:38.077Z</time>
      </trkpt>
      <trkpt lat="48.65228" lon="-2.36094">
        <ele>47</ele>
        <time>2020-06-24T12:19:39.077Z</time>
      </trkpt>
      <trkpt lat="48.65227" lon="-2.36096">
        <ele>47</ele>
        <time>2020-06-24T12:19:40.077Z</time>
      </trkpt>
      <trkpt lat="48.65227" lon="-2.36098">
        <ele>47</ele>
        <time>2020-06-24T12:19:41.077Z</time>
      </trkpt>
      <trkpt lat="48.65226" lon="-2.361">
        <ele>47</ele>
        <time>2020-06-24T12:19:42.077Z</time>
      </trkpt>
      <trkpt lat="48.65226" lon="-2.36102">
        <ele>47</ele>
        <time>2020-06-24T12:19:43.077Z</time>
      </trkpt>
      <trkpt lat="48.65225" lon="-2.36103">
        <ele>48</ele>
        <time>2020-06-24T12:19:44.077Z</time>
      </trkpt>
      <trkpt lat="48.65225" lon="-2.36105">
        <ele>48</ele>
        <time>2020-06-24T12:19:45.077Z</time>
      </trkpt>
      <trkpt lat="48.65224" lon="-2.36107">
        <ele>48</ele>
        <time>2020-06-24T12:19:46.077Z</time>
      </trkpt>
      <trkpt lat="48.65224" lon="-2.36109">
        <ele>48</ele>
        <time>2020-06-24T12:19:47.077Z</time>
      </trkpt>
      <trkpt lat="48.65223" lon="-2.36111">
        <ele>48</ele>
        <time>2020-06-24T12:19:48.077Z</time>
      </trkpt>
      <trkpt lat="48.65223" lon="-2.36113">
        <ele>48</ele>
        <time>2020-06-24T12:19:49.077Z</time>
      </trkpt>
      <trkpt lat="48.65222" lon="-2.36115">
        <ele>48</ele>
        <time>2020-06-24T12:19:50.077Z</time>
      </trkpt>
      <trkpt lat="48.65222" lon="-2.36117">
        <ele>48</ele>
        <time>2020-06-24T12:19:51.077Z</time>
      </trkpt>
      <trkpt lat="48.65221" lon="-2.36119">
        <ele>48</ele>
        <time>2020-06-24T12:19:52.077Z</time>
      </trkpt>
      <trkpt lat="48.65221" lon="-2.36121">
        <ele>48</ele>
        <time>2020-06-24T12:19:53.077Z</time>
      </trkpt>
      <trkpt lat="48.6522" lon="-2.36123">
        <ele>48</ele>
        <time>2020-06-24T12:19:54.077Z</time>
      </trkpt>
      <trkpt lat="48.6522" lon="-2.36125">
        <ele>49</ele>
        <time>2020-06-24T12:19:55.077Z</time>
      </trkpt>
      <trkpt lat="48.65219" lon="-2.36126">
        <ele>49</ele>
        <time>2020-06-24T12:19:56.077Z</time>
      </trkpt>
      <trkpt lat="48.65219" lon="-2.36128">
        <ele>49</ele>
        <time>2020-06-24T12:19:57.077Z</time>
      </trkpt>
      <trkpt lat="48.65218" lon="-2.3613">
        <ele>49</ele>
        <time>2020-06-24T12:19:58.077Z</time>
      </trkpt>
      <trkpt lat="48.65218" lon="-2.36132">
        <ele>49</ele>
        <time>2020-06-24T12:19:59.077Z</time>
      </trkpt>
      <trkpt lat="48.65217" lon="-2.36134">
        <ele>49</ele>
        <time>2020-06-24T12:20:00.077Z</time>
      </trkpt>
      <trkpt lat="48.65216" lon="-2.36136">
        <ele>49</ele>
        <time>2020-06-24T12:20:01.077Z</time>
      </trkpt>
      <trkpt lat="48.65216" lon="-2.36138">
        <ele>49</ele>
        <time>2020-06-24T12:20:02.077Z</time>
      </trkpt>
      <trkpt lat="48.65215" lon="-2.36139">
        <ele>49</ele>
        <time>2020-06-24T12:20:03.077Z</time>
      </trkpt>
      <trkpt lat="48.65215" lon="-2.36141">
        <ele>49</ele>
        <time>2020-06-24T12:20:04.077Z</time>
      </trkpt>
      <trkpt lat="48.65214" lon="-2.36143">
        <ele>50</ele>
        <time>2020-06-24T12:20:05.077Z</time>
      </trkpt>
      <trkpt lat="48.65214" lon="-2.36145">
        <ele>50</ele>
        <time>2020-06-24T12:20:06.077Z</time>
      </trkpt>
      <trkpt lat="48.65214" lon="-2.36147">
        <ele>50</ele>
        <time>2020-06-24T12:20:07.077Z</time>
      </trkpt>
      <trkpt lat="48.65214" lon="-2.36149">
        <ele>49</ele>
        <time>2020-06-24T12:20:08.077Z</time>
      </trkpt>
      <trkpt lat="48.65214" lon="-2.36151">
        <ele>49</ele>
        <time>2020-06-24T12:20:09.077Z</time>
      </trkpt>
      <trkpt lat="48.65214" lon="-2.36153">
        <ele>49</ele>
        <time>2020-06-24T12:20:10.077Z</time>
      </trkpt>
      <trkpt lat="48.65214" lon="-2.36156">
        <ele>49</ele>
        <time>2020-06-24T12:20:11.077Z</time>
      </trkpt>
      <trkpt lat="48.65214" lon="-2.36158">
        <ele>49</ele>
        <time>2020-06-24T12:20:12.077Z</time>
      </trkpt>
      <trkpt lat="48.65214" lon="-2.3616">
        <ele>49</ele>
        <time>2020-06-24T12:20:13.077Z</time>
      </trkpt>
      <trkpt lat="48.65214" lon="-2.36162">
        <ele>49</ele>
        <time>2020-06-24T12:20:14.077Z</time>
      </trkpt>
      <trkpt lat="48.65214" lon="-2.36164">
        <ele>49</ele>
        <time>2020-06-24T12:20:15.077Z</time>
      </trkpt>
      <trkpt lat="48.65214" lon="-2.36166">
        <ele>48</ele>
        <time>2020-06-24T12:20:16.077Z</time>
      </trkpt>
      <trkpt lat="48.65215" lon="-2.36168">
        <ele>48</ele>
        <time>2020-06-24T12:20:17.077Z</time>
      </trkpt>
      <trkpt lat="48.65215" lon="-2.3617">
        <ele>48</ele>
        <time>2020-06-24T12:20:18.077Z</time>
      </trkpt>
      <trkpt lat="48.65214" lon="-2.36172">
        <ele>48</ele>
        <time>2020-06-24T12:20:19.077Z</time>
      </trkpt>
      <trkpt lat="48.65214" lon="-2.36174">
        <ele>49</ele>
        <time>2020-06-24T12:20:20.077Z</time>
      </trkpt>
      <trkpt lat="48.65214" lon="-2.36176">
        <ele>48</ele>
        <time>2020-06-24T12:20:21.077Z</time>
      </trkpt>
      <trkpt lat="48.65214" lon="-2.36178">
        <ele>49</ele>
        <time>2020-06-24T12:20:22.077Z</time>
      </trkpt>
      <trkpt lat="48.65214" lon="-2.3618">
        <ele>49</ele>
        <time>2020-06-24T12:20:23.077Z</time>
      </trkpt>
      <trkpt lat="48.65214" lon="-2.36181">
        <ele>48</ele>
        <time>2020-06-24T12:20:24.077Z</time>
      </trkpt>
      <trkpt lat="48.65215" lon="-2.36182">
        <ele>48</ele>
        <time>2020-06-24T12:20:25.077Z</time>
      </trkpt>
      <trkpt lat="48.65216" lon="-2.36183">
        <ele>48</ele>
        <time>2020-06-24T12:20:26.077Z</time>
      </trkpt>
      <trkpt lat="48.65217" lon="-2.36184">
        <ele>48</ele>
        <time>2020-06-24T12:20:27.077Z</time>
      </trkpt>
      <trkpt lat="48.65218" lon="-2.36184">
        <ele>48</ele>
        <time>2020-06-24T12:20:28.077Z</time>
      </trkpt>
      <trkpt lat="48.65219" lon="-2.36184">
        <ele>48</ele>
        <time>2020-06-24T12:20:29.077Z</time>
      </trkpt>
      <trkpt lat="48.6522" lon="-2.36184">
        <ele>48</ele>
        <time>2020-06-24T12:20:30.077Z</time>
      </trkpt>
      <trkpt lat="48.65221" lon="-2.36183">
        <ele>48</ele>
        <time>2020-06-24T12:20:31.077Z</time>
      </trkpt>
      <trkpt lat="48.65223" lon="-2.36182">
        <ele>48</ele>
        <time>2020-06-24T12:20:32.077Z</time>
      </trkpt>
      <trkpt lat="48.65224" lon="-2.36181">
        <ele>48</ele>
        <time>2020-06-24T12:20:33.077Z</time>
      </trkpt>
      <trkpt lat="48.65225" lon="-2.3618">
        <ele>48</ele>
        <time>2020-06-24T12:20:34.077Z</time>
      </trkpt>
      <trkpt lat="48.65226" lon="-2.36179">
        <ele>48</ele>
        <time>2020-06-24T12:20:35.077Z</time>
      </trkpt>
      <trkpt lat="48.65227" lon="-2.36178">
        <ele>47</ele>
        <time>2020-06-24T12:20:36.077Z</time>
      </trkpt>
      <trkpt lat="48.65228" lon="-2.36177">
        <ele>48</ele>
        <time>2020-06-24T12:20:37.077Z</time>
      </trkpt>
      <trkpt lat="48.6523" lon="-2.36176">
        <ele>48</ele>
        <time>2020-06-24T12:20:38.077Z</time>
      </trkpt>
      <trkpt lat="48.65231" lon="-2.36175">
        <ele>48</ele>
        <time>2020-06-24T12:20:39.077Z</time>
      </trkpt>
      <trkpt lat="48.65233" lon="-2.36175">
        <ele>48</ele>
        <time>2020-06-24T12:20:40.077Z</time>
      </trkpt>
      <trkpt lat="48.65234" lon="-2.36174">
        <ele>48</ele>
        <time>2020-06-24T12:20:41.077Z</time>
      </trkpt>
      <trkpt lat="48.65236" lon="-2.36174">
        <ele>48</ele>
        <time>2020-06-24T12:20:42.077Z</time>
      </trkpt>
      <trkpt lat="48.65237" lon="-2.36173">
        <ele>47</ele>
        <time>2020-06-24T12:20:43.077Z</time>
      </trkpt>
      <trkpt lat="48.65239" lon="-2.36173">
        <ele>47</ele>
        <time>2020-06-24T12:20:44.077Z</time>
      </trkpt>
      <trkpt lat="48.6524" lon="-2.36172">
        <ele>47</ele>
        <time>2020-06-24T12:20:45.077Z</time>
      </trkpt>
      <trkpt lat="48.65241" lon="-2.36172">
        <ele>47</ele>
        <time>2020-06-24T12:20:46.077Z</time>
      </trkpt>
      <trkpt lat="48.65243" lon="-2.36172">
        <ele>46</ele>
        <time>2020-06-24T12:20:47.077Z</time>
      </trkpt>
      <trkpt lat="48.65244" lon="-2.36172">
        <ele>46</ele>
        <time>2020-06-24T12:20:48.077Z</time>
      </trkpt>
      <trkpt lat="48.65246" lon="-2.36172">
        <ele>45</ele>
        <time>2020-06-24T12:20:49.077Z</time>
      </trkpt>
      <trkpt lat="48.65247" lon="-2.36172">
        <ele>45</ele>
        <time>2020-06-24T12:20:50.077Z</time>
      </trkpt>
      <trkpt lat="48.65248" lon="-2.36172">
        <ele>45</ele>
        <time>2020-06-24T12:20:51.077Z</time>
      </trkpt>
      <trkpt lat="48.6525" lon="-2.36173">
        <ele>45</ele>
        <time>2020-06-24T12:20:52.077Z</time>
      </trkpt>
      <trkpt lat="48.65251" lon="-2.36173">
        <ele>45</ele>
        <time>2020-06-24T12:20:53.077Z</time>
      </trkpt>
      <trkpt lat="48.65253" lon="-2.36174">
        <ele>45</ele>
        <time>2020-06-24T12:20:54.077Z</time>
      </trkpt>
      <trkpt lat="48.65254" lon="-2.36175">
        <ele>44</ele>
        <time>2020-06-24T12:20:55.077Z</time>
      </trkpt>
      <trkpt lat="48.65256" lon="-2.36176">
        <ele>44</ele>
        <time>2020-06-24T12:20:56.077Z</time>
      </trkpt>
      <trkpt lat="48.65257" lon="-2.36177">
        <ele>44</ele>
        <time>2020-06-24T12:20:57.077Z</time>
      </trkpt>
      <trkpt lat="48.65259" lon="-2.36179">
        <ele>44</ele>
        <time>2020-06-24T12:20:58.077Z</time>
      </trkpt>
      <trkpt lat="48.6526" lon="-2.3618">
        <ele>44</ele>
        <time>2020-06-24T12:20:59.077Z</time>
      </trkpt>
      <trkpt lat="48.65261" lon="-2.36182">
        <ele>45</ele>
        <time>2020-06-24T12:21:00.077Z</time>
      </trkpt>
      <trkpt lat="48.65263" lon="-2.36184">
        <ele>45</ele>
        <time>2020-06-24T12:21:01.077Z</time>
      </trkpt>
      <trkpt lat="48.65264" lon="-2.36185">
        <ele>45</ele>
        <time>2020-06-24T12:21:02.077Z</time>
      </trkpt>
      <trkpt lat="48.65265" lon="-2.36187">
        <ele>45</ele>
        <time>2020-06-24T12:21:03.077Z</time>
      </trkpt>
      <trkpt lat="48.65266" lon="-2.36189">
        <ele>45</ele>
        <time>2020-06-24T12:21:04.077Z</time>
      </trkpt>
      <trkpt lat="48.65267" lon="-2.36191">
        <ele>45</ele>
        <time>2020-06-24T12:21:05.077Z</time>
      </trkpt>
      <trkpt lat="48.65268" lon="-2.36192">
        <ele>45</ele>
        <time>2020-06-24T12:21:06.077Z</time>
      </trkpt>
      <trkpt lat="48.65268" lon="-2.36194">
        <ele>45</ele>
        <time>2020-06-24T12:21:07.077Z</time>
      </trkpt>
      <trkpt lat="48.65269" lon="-2.36196">
        <ele>45</ele>
        <time>2020-06-24T12:21:08.077Z</time>
      </trkpt>
      <trkpt lat="48.65269" lon="-2.36198">
        <ele>45</ele>
        <time>2020-06-24T12:21:09.077Z</time>
      </trkpt>
      <trkpt lat="48.65269" lon="-2.362">
        <ele>44</ele>
        <time>2020-06-24T12:21:10.077Z</time>
      </trkpt>
      <trkpt lat="48.6527" lon="-2.36202">
        <ele>44</ele>
        <time>2020-06-24T12:21:11.077Z</time>
      </trkpt>
      <trkpt lat="48.6527" lon="-2.36205">
        <ele>44</ele>
        <time>2020-06-24T12:21:12.077Z</time>
      </trkpt>
      <trkpt lat="48.65271" lon="-2.36207">
        <ele>44</ele>
        <time>2020-06-24T12:21:13.077Z</time>
      </trkpt>
      <trkpt lat="48.65271" lon="-2.36209">
        <ele>44</ele>
        <time>2020-06-24T12:21:14.077Z</time>
      </trkpt>
      <trkpt lat="48.65271" lon="-2.36211">
        <ele>44</ele>
        <time>2020-06-24T12:21:15.077Z</time>
      </trkpt>
      <trkpt lat="48.65272" lon="-2.36213">
        <ele>44</ele>
        <time>2020-06-24T12:21:16.077Z</time>
      </trkpt>
      <trkpt lat="48.65273" lon="-2.36215">
        <ele>43</ele>
        <time>2020-06-24T12:21:17.077Z</time>
      </trkpt>
      <trkpt lat="48.65273" lon="-2.36217">
        <ele>43</ele>
        <time>2020-06-24T12:21:18.077Z</time>
      </trkpt>
      <trkpt lat="48.65274" lon="-2.36219">
        <ele>43</ele>
        <time>2020-06-24T12:21:19.077Z</time>
      </trkpt>
      <trkpt lat="48.65274" lon="-2.36221">
        <ele>43</ele>
        <time>2020-06-24T12:21:20.077Z</time>
      </trkpt>
      <trkpt lat="48.65274" lon="-2.36223">
        <ele>43</ele>
        <time>2020-06-24T12:21:21.077Z</time>
      </trkpt>
      <trkpt lat="48.65275" lon="-2.36225">
        <ele>43</ele>
        <time>2020-06-24T12:21:22.077Z</time>
      </trkpt>
      <trkpt lat="48.65275" lon="-2.36227">
        <ele>43</ele>
        <time>2020-06-24T12:21:23.077Z</time>
      </trkpt>
      <trkpt lat="48.65275" lon="-2.36229">
        <ele>43</ele>
        <time>2020-06-24T12:21:24.077Z</time>
      </trkpt>
      <trkpt lat="48.65276" lon="-2.36231">
        <ele>43</ele>
        <time>2020-06-24T12:21:25.077Z</time>
      </trkpt>
      <trkpt lat="48.65276" lon="-2.36233">
        <ele>42</ele>
        <time>2020-06-24T12:21:26.077Z</time>
      </trkpt>
      <trkpt lat="48.65277" lon="-2.36236">
        <ele>42</ele>
        <time>2020-06-24T12:21:27.077Z</time>
      </trkpt>
      <trkpt lat="48.65277" lon="-2.36238">
        <ele>42</ele>
        <time>2020-06-24T12:21:28.077Z</time>
      </trkpt>
      <trkpt lat="48.65278" lon="-2.3624">
        <ele>42</ele>
        <time>2020-06-24T12:21:29.077Z</time>
      </trkpt>
      <trkpt lat="48.65278" lon="-2.36242">
        <ele>42</ele>
        <time>2020-06-24T12:21:30.077Z</time>
      </trkpt>
      <trkpt lat="48.65278" lon="-2.36244">
        <ele>42</ele>
        <time>2020-06-24T12:21:31.077Z</time>
      </trkpt>
      <trkpt lat="48.65279" lon="-2.36246">
        <ele>42</ele>
        <time>2020-06-24T12:21:32.077Z</time>
      </trkpt>
      <trkpt lat="48.65279" lon="-2.36248">
        <ele>42</ele>
        <time>2020-06-24T12:21:33.077Z</time>
      </trkpt>
      <trkpt lat="48.65279" lon="-2.3625">
        <ele>42</ele>
        <time>2020-06-24T12:21:34.077Z</time>
      </trkpt>
      <trkpt lat="48.6528" lon="-2.36252">
        <ele>42</ele>
        <time>2020-06-24T12:21:35.077Z</time>
      </trkpt>
      <trkpt lat="48.6528" lon="-2.36254">
        <ele>42</ele>
        <time>2020-06-24T12:21:36.077Z</time>
      </trkpt>
      <trkpt lat="48.65281" lon="-2.36256">
        <ele>42</ele>
        <time>2020-06-24T12:21:37.077Z</time>
      </trkpt>
      <trkpt lat="48.65281" lon="-2.36258">
        <ele>42</ele>
        <time>2020-06-24T12:21:38.077Z</time>
      </trkpt>
      <trkpt lat="48.65282" lon="-2.3626">
        <ele>41</ele>
        <time>2020-06-24T12:21:39.077Z</time>
      </trkpt>
      <trkpt lat="48.65282" lon="-2.36262">
        <ele>41</ele>
        <time>2020-06-24T12:21:40.077Z</time>
      </trkpt>
      <trkpt lat="48.65282" lon="-2.36264">
        <ele>41</ele>
        <time>2020-06-24T12:21:41.077Z</time>
      </trkpt>
      <trkpt lat="48.65282" lon="-2.36266">
        <ele>40</ele>
        <time>2020-06-24T12:21:42.077Z</time>
      </trkpt>
      <trkpt lat="48.65283" lon="-2.36268">
        <ele>41</ele>
        <time>2020-06-24T12:21:43.077Z</time>
      </trkpt>
      <trkpt lat="48.65284" lon="-2.3627">
        <ele>40</ele>
        <time>2020-06-24T12:21:44.077Z</time>
      </trkpt>
      <trkpt lat="48.65284" lon="-2.36273">
        <ele>41</ele>
        <time>2020-06-24T12:21:45.077Z</time>
      </trkpt>
      <trkpt lat="48.65285" lon="-2.36275">
        <ele>41</ele>
        <time>2020-06-24T12:21:46.077Z</time>
      </trkpt>
      <trkpt lat="48.65285" lon="-2.36277">
        <ele>40</ele>
        <time>2020-06-24T12:21:47.077Z</time>
      </trkpt>
      <trkpt lat="48.65285" lon="-2.36279">
        <ele>40</ele>
        <time>2020-06-24T12:21:48.077Z</time>
      </trkpt>
      <trkpt lat="48.65286" lon="-2.36281">
        <ele>40</ele>
        <time>2020-06-24T12:21:49.077Z</time>
      </trkpt>
      <trkpt lat="48.65286" lon="-2.36282">
        <ele>40</ele>
        <time>2020-06-24T12:21:50.077Z</time>
      </trkpt>
      <trkpt lat="48.65287" lon="-2.36284">
        <ele>40</ele>
        <time>2020-06-24T12:21:51.077Z</time>
      </trkpt>
      <trkpt lat="48.65287" lon="-2.36286">
        <ele>40</ele>
        <time>2020-06-24T12:21:52.077Z</time>
      </trkpt>
      <trkpt lat="48.65288" lon="-2.36288">
        <ele>39</ele>
        <time>2020-06-24T12:21:53.077Z</time>
      </trkpt>
      <trkpt lat="48.65288" lon="-2.3629">
        <ele>39</ele>
        <time>2020-06-24T12:21:54.077Z</time>
      </trkpt>
      <trkpt lat="48.65288" lon="-2.36292">
        <ele>39</ele>
        <time>2020-06-24T12:21:55.077Z</time>
      </trkpt>
      <trkpt lat="48.65289" lon="-2.36294">
        <ele>39</ele>
        <time>2020-06-24T12:21:56.077Z</time>
      </trkpt>
      <trkpt lat="48.65289" lon="-2.36296">
        <ele>39</ele>
        <time>2020-06-24T12:21:57.077Z</time>
      </trkpt>
      <trkpt lat="48.6529" lon="-2.36298">
        <ele>39</ele>
        <time>2020-06-24T12:21:58.077Z</time>
      </trkpt>
      <trkpt lat="48.6529" lon="-2.363">
        <ele>38</ele>
        <time>2020-06-24T12:21:59.077Z</time>
      </trkpt>
      <trkpt lat="48.65291" lon="-2.36302">
        <ele>38</ele>
        <time>2020-06-24T12:22:00.077Z</time>
      </trkpt>
      <trkpt lat="48.65291" lon="-2.36304">
        <ele>38</ele>
        <time>2020-06-24T12:22:01.077Z</time>
      </trkpt>
      <trkpt lat="48.65292" lon="-2.36307">
        <ele>38</ele>
        <time>2020-06-24T12:22:02.077Z</time>
      </trkpt>
      <trkpt lat="48.65292" lon="-2.36309">
        <ele>38</ele>
        <time>2020-06-24T12:22:03.077Z</time>
      </trkpt>
      <trkpt lat="48.65293" lon="-2.36311">
        <ele>38</ele>
        <time>2020-06-24T12:22:04.077Z</time>
      </trkpt>
      <trkpt lat="48.65293" lon="-2.36313">
        <ele>38</ele>
        <time>2020-06-24T12:22:05.077Z</time>
      </trkpt>
      <trkpt lat="48.65294" lon="-2.36315">
        <ele>38</ele>
        <time>2020-06-24T12:22:06.077Z</time>
      </trkpt>
      <trkpt lat="48.65294" lon="-2.36317">
        <ele>38</ele>
        <time>2020-06-24T12:22:07.077Z</time>
      </trkpt>
      <trkpt lat="48.65294" lon="-2.36319">
        <ele>38</ele>
        <time>2020-06-24T12:22:08.077Z</time>
      </trkpt>
      <trkpt lat="48.65295" lon="-2.36321">
        <ele>37</ele>
        <time>2020-06-24T12:22:09.077Z</time>
      </trkpt>
      <trkpt lat="48.65295" lon="-2.36323">
        <ele>37</ele>
        <time>2020-06-24T12:22:10.077Z</time>
      </trkpt>
      <trkpt lat="48.65296" lon="-2.36325">
        <ele>37</ele>
        <time>2020-06-24T12:22:11.077Z</time>
      </trkpt>
      <trkpt lat="48.65297" lon="-2.36326">
        <ele>37</ele>
        <time>2020-06-24T12:22:12.077Z</time>
      </trkpt>
      <trkpt lat="48.65297" lon="-2.36328">
        <ele>37</ele>
        <time>2020-06-24T12:22:13.077Z</time>
      </trkpt>
      <trkpt lat="48.65298" lon="-2.3633">
        <ele>37</ele>
        <time>2020-06-24T12:22:14.077Z</time>
      </trkpt>
      <trkpt lat="48.65299" lon="-2.36332">
        <ele>37</ele>
        <time>2020-06-24T12:22:15.077Z</time>
      </trkpt>
      <trkpt lat="48.65299" lon="-2.36334">
        <ele>36</ele>
        <time>2020-06-24T12:22:16.077Z</time>
      </trkpt>
      <trkpt lat="48.653" lon="-2.36337">
        <ele>36</ele>
        <time>2020-06-24T12:22:17.077Z</time>
      </trkpt>
      <trkpt lat="48.653" lon="-2.36339">
        <ele>36</ele>
        <time>2020-06-24T12:22:18.077Z</time>
      </trkpt>
      <trkpt lat="48.653" lon="-2.36341">
        <ele>36</ele>
        <time>2020-06-24T12:22:19.077Z</time>
      </trkpt>
      <trkpt lat="48.65301" lon="-2.36343">
        <ele>36</ele>
        <time>2020-06-24T12:22:20.077Z</time>
      </trkpt>
      <trkpt lat="48.65301" lon="-2.36345">
        <ele>36</ele>
        <time>2020-06-24T12:22:21.077Z</time>
      </trkpt>
      <trkpt lat="48.65301" lon="-2.36347">
        <ele>36</ele>
        <time>2020-06-24T12:22:22.077Z</time>
      </trkpt>
      <trkpt lat="48.65302" lon="-2.36348">
        <ele>36</ele>
        <time>2020-06-24T12:22:23.077Z</time>
      </trkpt>
      <trkpt lat="48.65302" lon="-2.3635">
        <ele>36</ele>
        <time>2020-06-24T12:22:24.077Z</time>
      </trkpt>
      <trkpt lat="48.65302" lon="-2.36352">
        <ele>35</ele>
        <time>2020-06-24T12:22:25.077Z</time>
      </trkpt>
      <trkpt lat="48.65303" lon="-2.36355">
        <ele>35</ele>
        <time>2020-06-24T12:22:26.077Z</time>
      </trkpt>
      <trkpt lat="48.65303" lon="-2.36357">
        <ele>35</ele>
        <time>2020-06-24T12:22:27.077Z</time>
      </trkpt>
      <trkpt lat="48.65304" lon="-2.36359">
        <ele>34</ele>
        <time>2020-06-24T12:22:28.077Z</time>
      </trkpt>
      <trkpt lat="48.65304" lon="-2.36361">
        <ele>34</ele>
        <time>2020-06-24T12:22:29.077Z</time>
      </trkpt>
      <trkpt lat="48.65305" lon="-2.36363">
        <ele>34</ele>
        <time>2020-06-24T12:22:30.077Z</time>
      </trkpt>
      <trkpt lat="48.65306" lon="-2.36365">
        <ele>34</ele>
        <time>2020-06-24T12:22:31.077Z</time>
      </trkpt>
      <trkpt lat="48.65307" lon="-2.36366">
        <ele>34</ele>
        <time>2020-06-24T12:22:32.077Z</time>
      </trkpt>
      <trkpt lat="48.65308" lon="-2.36368">
        <ele>34</ele>
        <time>2020-06-24T12:22:33.077Z</time>
      </trkpt>
      <trkpt lat="48.65308" lon="-2.3637">
        <ele>34</ele>
        <time>2020-06-24T12:22:34.077Z</time>
      </trkpt>
      <trkpt lat="48.65309" lon="-2.36371">
        <ele>34</ele>
        <time>2020-06-24T12:22:35.077Z</time>
      </trkpt>
      <trkpt lat="48.6531" lon="-2.36373">
        <ele>34</ele>
        <time>2020-06-24T12:22:36.077Z</time>
      </trkpt>
      <trkpt lat="48.6531" lon="-2.36374">
        <ele>33</ele>
        <time>2020-06-24T12:22:37.077Z</time>
      </trkpt>
      <trkpt lat="48.65311" lon="-2.36376">
        <ele>33</ele>
        <time>2020-06-24T12:22:38.077Z</time>
      </trkpt>
      <trkpt lat="48.65312" lon="-2.36377">
        <ele>33</ele>
        <time>2020-06-24T12:22:39.077Z</time>
      </trkpt>
      <trkpt lat="48.65313" lon="-2.36379">
        <ele>33</ele>
        <time>2020-06-24T12:22:40.077Z</time>
      </trkpt>
      <trkpt lat="48.65314" lon="-2.36381">
        <ele>33</ele>
        <time>2020-06-24T12:22:41.077Z</time>
      </trkpt>
      <trkpt lat="48.65314" lon="-2.36382">
        <ele>32</ele>
        <time>2020-06-24T12:22:42.077Z</time>
      </trkpt>
      <trkpt lat="48.65315" lon="-2.36384">
        <ele>32</ele>
        <time>2020-06-24T12:22:43.077Z</time>
      </trkpt>
      <trkpt lat="48.65316" lon="-2.36386">
        <ele>32</ele>
        <time>2020-06-24T12:22:44.077Z</time>
      </trkpt>
      <trkpt lat="48.65317" lon="-2.36388">
        <ele>32</ele>
        <time>2020-06-24T12:22:45.077Z</time>
      </trkpt>
      <trkpt lat="48.65318" lon="-2.36389">
        <ele>31</ele>
        <time>2020-06-24T12:22:46.077Z</time>
      </trkpt>
      <trkpt lat="48.65318" lon="-2.36391">
        <ele>31</ele>
        <time>2020-06-24T12:22:47.077Z</time>
      </trkpt>
      <trkpt lat="48.65319" lon="-2.36393">
        <ele>31</ele>
        <time>2020-06-24T12:22:48.077Z</time>
      </trkpt>
      <trkpt lat="48.6532" lon="-2.36395">
        <ele>31</ele>
        <time>2020-06-24T12:22:49.077Z</time>
      </trkpt>
      <trkpt lat="48.65321" lon="-2.36396">
        <ele>31</ele>
        <time>2020-06-24T12:22:50.077Z</time>
      </trkpt>
      <trkpt lat="48.65322" lon="-2.36398">
        <ele>31</ele>
        <time>2020-06-24T12:22:51.077Z</time>
      </trkpt>
      <trkpt lat="48.65323" lon="-2.364">
        <ele>31</ele>
        <time>2020-06-24T12:22:52.077Z</time>
      </trkpt>
      <trkpt lat="48.65324" lon="-2.36401">
        <ele>31</ele>
        <time>2020-06-24T12:22:53.077Z</time>
      </trkpt>
      <trkpt lat="48.65325" lon="-2.36403">
        <ele>31</ele>
        <time>2020-06-24T12:22:54.077Z</time>
      </trkpt>
      <trkpt lat="48.65326" lon="-2.36405">
        <ele>30</ele>
        <time>2020-06-24T12:22:55.077Z</time>
      </trkpt>
      <trkpt lat="48.65327" lon="-2.36407">
        <ele>31</ele>
        <time>2020-06-24T12:22:56.077Z</time>
      </trkpt>
      <trkpt lat="48.65328" lon="-2.36408">
        <ele>31</ele>
        <time>2020-06-24T12:22:57.077Z</time>
      </trkpt>
      <trkpt lat="48.65328" lon="-2.3641">
        <ele>30</ele>
        <time>2020-06-24T12:22:58.077Z</time>
      </trkpt>
      <trkpt lat="48.65329" lon="-2.36412">
        <ele>31</ele>
        <time>2020-06-24T12:22:59.077Z</time>
      </trkpt>
      <trkpt lat="48.6533" lon="-2.36413">
        <ele>31</ele>
        <time>2020-06-24T12:23:00.077Z</time>
      </trkpt>
      <trkpt lat="48.65331" lon="-2.36415">
        <ele>30</ele>
        <time>2020-06-24T12:23:01.077Z</time>
      </trkpt>
      <trkpt lat="48.65332" lon="-2.36417">
        <ele>31</ele>
        <time>2020-06-24T12:23:02.077Z</time>
      </trkpt>
      <trkpt lat="48.65333" lon="-2.36419">
        <ele>31</ele>
        <time>2020-06-24T12:23:03.077Z</time>
      </trkpt>
      <trkpt lat="48.65334" lon="-2.36421">
        <ele>31</ele>
        <time>2020-06-24T12:23:04.077Z</time>
      </trkpt>
      <trkpt lat="48.65335" lon="-2.36422">
        <ele>31</ele>
        <time>2020-06-24T12:23:05.077Z</time>
      </trkpt>
      <trkpt lat="48.65336" lon="-2.36424">
        <ele>31</ele>
        <time>2020-06-24T12:23:06.077Z</time>
      </trkpt>
      <trkpt lat="48.65336" lon="-2.36426">
        <ele>31</ele>
        <time>2020-06-24T12:23:07.077Z</time>
      </trkpt>
      <trkpt lat="48.65337" lon="-2.36427">
        <ele>31</ele>
        <time>2020-06-24T12:23:08.077Z</time>
      </trkpt>
      <trkpt lat="48.65338" lon="-2.36429">
        <ele>30</ele>
        <time>2020-06-24T12:23:09.077Z</time>
      </trkpt>
      <trkpt lat="48.65339" lon="-2.36431">
        <ele>30</ele>
        <time>2020-06-24T12:23:10.077Z</time>
      </trkpt>
      <trkpt lat="48.6534" lon="-2.36432">
        <ele>30</ele>
        <time>2020-06-24T12:23:11.077Z</time>
      </trkpt>
      <trkpt lat="48.65341" lon="-2.36434">
        <ele>30</ele>
        <time>2020-06-24T12:23:12.077Z</time>
      </trkpt>
      <trkpt lat="48.65342" lon="-2.36435">
        <ele>30</ele>
        <time>2020-06-24T12:23:13.077Z</time>
      </trkpt>
      <trkpt lat="48.65343" lon="-2.36437">
        <ele>29</ele>
        <time>2020-06-24T12:23:14.077Z</time>
      </trkpt>
      <trkpt lat="48.65344" lon="-2.36438">
        <ele>29</ele>
        <time>2020-06-24T12:23:15.077Z</time>
      </trkpt>
      <trkpt lat="48.65345" lon="-2.3644">
        <ele>29</ele>
        <time>2020-06-24T12:23:16.077Z</time>
      </trkpt>
      <trkpt lat="48.65346" lon="-2.36441">
        <ele>29</ele>
        <time>2020-06-24T12:23:17.077Z</time>
      </trkpt>
      <trkpt lat="48.65347" lon="-2.36443">
        <ele>29</ele>
        <time>2020-06-24T12:23:18.077Z</time>
      </trkpt>
      <trkpt lat="48.65347" lon="-2.36444">
        <ele>29</ele>
        <time>2020-06-24T12:23:19.077Z</time>
      </trkpt>
      <trkpt lat="48.65348" lon="-2.36446">
        <ele>29</ele>
        <time>2020-06-24T12:23:20.077Z</time>
      </trkpt>
      <trkpt lat="48.65349" lon="-2.36447">
        <ele>28</ele>
        <time>2020-06-24T12:23:21.077Z</time>
      </trkpt>
      <trkpt lat="48.6535" lon="-2.36449">
        <ele>28</ele>
        <time>2020-06-24T12:23:22.077Z</time>
      </trkpt>
      <trkpt lat="48.65351" lon="-2.3645">
        <ele>28</ele>
        <time>2020-06-24T12:23:23.077Z</time>
      </trkpt>
      <trkpt lat="48.65352" lon="-2.36452">
        <ele>28</ele>
        <time>2020-06-24T12:23:24.077Z</time>
      </trkpt>
      <trkpt lat="48.65353" lon="-2.36453">
        <ele>28</ele>
        <time>2020-06-24T12:23:25.077Z</time>
      </trkpt>
      <trkpt lat="48.65354" lon="-2.36455">
        <ele>27</ele>
        <time>2020-06-24T12:23:26.077Z</time>
      </trkpt>
      <trkpt lat="48.65355" lon="-2.36456">
        <ele>27</ele>
        <time>2020-06-24T12:23:27.077Z</time>
      </trkpt>
      <trkpt lat="48.65355" lon="-2.36458">
        <ele>27</ele>
        <time>2020-06-24T12:23:28.077Z</time>
      </trkpt>
      <trkpt lat="48.65356" lon="-2.36459">
        <ele>27</ele>
        <time>2020-06-24T12:23:29.077Z</time>
      </trkpt>
      <trkpt lat="48.65357" lon="-2.36461">
        <ele>26</ele>
        <time>2020-06-24T12:23:30.077Z</time>
      </trkpt>
      <trkpt lat="48.65358" lon="-2.36462">
        <ele>26</ele>
        <time>2020-06-24T12:23:31.077Z</time>
      </trkpt>
      <trkpt lat="48.65358" lon="-2.36464">
        <ele>26</ele>
        <time>2020-06-24T12:23:32.077Z</time>
      </trkpt>
      <trkpt lat="48.65359" lon="-2.36465">
        <ele>26</ele>
        <time>2020-06-24T12:23:33.077Z</time>
      </trkpt>
      <trkpt lat="48.6536" lon="-2.36467">
        <ele>26</ele>
        <time>2020-06-24T12:23:34.077Z</time>
      </trkpt>
      <trkpt lat="48.6536" lon="-2.36468">
        <ele>26</ele>
        <time>2020-06-24T12:23:35.077Z</time>
      </trkpt>
      <trkpt lat="48.65361" lon="-2.3647">
        <ele>26</ele>
        <time>2020-06-24T12:23:36.077Z</time>
      </trkpt>
      <trkpt lat="48.65362" lon="-2.36471">
        <ele>25</ele>
        <time>2020-06-24T12:23:37.077Z</time>
      </trkpt>
      <trkpt lat="48.65363" lon="-2.36473">
        <ele>25</ele>
        <time>2020-06-24T12:23:38.077Z</time>
      </trkpt>
      <trkpt lat="48.65364" lon="-2.36475">
        <ele>25</ele>
        <time>2020-06-24T12:23:39.077Z</time>
      </trkpt>
      <trkpt lat="48.65365" lon="-2.36476">
        <ele>25</ele>
        <time>2020-06-24T12:23:40.077Z</time>
      </trkpt>
      <trkpt lat="48.65366" lon="-2.36477">
        <ele>25</ele>
        <time>2020-06-24T12:23:41.077Z</time>
      </trkpt>
      <trkpt lat="48.65366" lon="-2.36479">
        <ele>25</ele>
        <time>2020-06-24T12:23:42.077Z</time>
      </trkpt>
      <trkpt lat="48.65367" lon="-2.3648">
        <ele>25</ele>
        <time>2020-06-24T12:23:43.077Z</time>
      </trkpt>
      <trkpt lat="48.65368" lon="-2.36482">
        <ele>25</ele>
        <time>2020-06-24T12:23:44.077Z</time>
      </trkpt>
      <trkpt lat="48.65369" lon="-2.36483">
        <ele>25</ele>
        <time>2020-06-24T12:23:45.077Z</time>
      </trkpt>
      <trkpt lat="48.6537" lon="-2.36485">
        <ele>25</ele>
        <time>2020-06-24T12:23:46.077Z</time>
      </trkpt>
      <trkpt lat="48.6537" lon="-2.36487">
        <ele>25</ele>
        <time>2020-06-24T12:23:47.077Z</time>
      </trkpt>
      <trkpt lat="48.65371" lon="-2.36488">
        <ele>25</ele>
        <time>2020-06-24T12:23:48.077Z</time>
      </trkpt>
      <trkpt lat="48.65372" lon="-2.3649">
        <ele>24</ele>
        <time>2020-06-24T12:23:49.077Z</time>
      </trkpt>
      <trkpt lat="48.65372" lon="-2.36491">
        <ele>24</ele>
        <time>2020-06-24T12:23:50.077Z</time>
      </trkpt>
      <trkpt lat="48.65373" lon="-2.36493">
        <ele>25</ele>
        <time>2020-06-24T12:23:51.077Z</time>
      </trkpt>
      <trkpt lat="48.65373" lon="-2.36495">
        <ele>24</ele>
        <time>2020-06-24T12:23:52.077Z</time>
      </trkpt>
      <trkpt lat="48.65373" lon="-2.36497">
        <ele>25</ele>
        <time>2020-06-24T12:23:53.077Z</time>
      </trkpt>
      <trkpt lat="48.65374" lon="-2.36499">
        <ele>25</ele>
        <time>2020-06-24T12:23:54.077Z</time>
      </trkpt>
      <trkpt lat="48.65374" lon="-2.36501">
        <ele>24</ele>
        <time>2020-06-24T12:23:55.077Z</time>
      </trkpt>
      <trkpt lat="48.65374" lon="-2.36503">
        <ele>24</ele>
        <time>2020-06-24T12:23:56.077Z</time>
      </trkpt>
      <trkpt lat="48.65374" lon="-2.36505">
        <ele>24</ele>
        <time>2020-06-24T12:23:57.077Z</time>
      </trkpt>
      <trkpt lat="48.65374" lon="-2.36507">
        <ele>24</ele>
        <time>2020-06-24T12:23:58.077Z</time>
      </trkpt>
      <trkpt lat="48.65375" lon="-2.36508">
        <ele>24</ele>
        <time>2020-06-24T12:23:59.077Z</time>
      </trkpt>
      <trkpt lat="48.65375" lon="-2.3651">
        <ele>24</ele>
        <time>2020-06-24T12:24:00.077Z</time>
      </trkpt>
      <trkpt lat="48.65375" lon="-2.36512">
        <ele>24</ele>
        <time>2020-06-24T12:24:01.077Z</time>
      </trkpt>
      <trkpt lat="48.65376" lon="-2.36513">
        <ele>24</ele>
        <time>2020-06-24T12:24:02.077Z</time>
      </trkpt>
      <trkpt lat="48.65376" lon="-2.36515">
        <ele>24</ele>
        <time>2020-06-24T12:24:03.077Z</time>
      </trkpt>
      <trkpt lat="48.65376" lon="-2.36517">
        <ele>24</ele>
        <time>2020-06-24T12:24:04.077Z</time>
      </trkpt>
      <trkpt lat="48.65377" lon="-2.36519">
        <ele>23</ele>
        <time>2020-06-24T12:24:05.077Z</time>
      </trkpt>
      <trkpt lat="48.65377" lon="-2.3652">
        <ele>23</ele>
        <time>2020-06-24T12:24:06.077Z</time>
      </trkpt>
      <trkpt lat="48.65377" lon="-2.36522">
        <ele>23</ele>
        <time>2020-06-24T12:24:07.077Z</time>
      </trkpt>
      <trkpt lat="48.65378" lon="-2.36524">
        <ele>23</ele>
        <time>2020-06-24T12:24:08.077Z</time>
      </trkpt>
      <trkpt lat="48.65378" lon="-2.36526">
        <ele>23</ele>
        <time>2020-06-24T12:24:09.077Z</time>
      </trkpt>
      <trkpt lat="48.65378" lon="-2.36527">
        <ele>23</ele>
        <time>2020-06-24T12:24:10.077Z</time>
      </trkpt>
      <trkpt lat="48.65379" lon="-2.36529">
        <ele>23</ele>
        <time>2020-06-24T12:24:11.077Z</time>
      </trkpt>
      <trkpt lat="48.65379" lon="-2.3653">
        <ele>23</ele>
        <time>2020-06-24T12:24:12.077Z</time>
      </trkpt>
      <trkpt lat="48.6538" lon="-2.36532">
        <ele>23</ele>
        <time>2020-06-24T12:24:13.077Z</time>
      </trkpt>
      <trkpt lat="48.6538" lon="-2.36533">
        <ele>23</ele>
        <time>2020-06-24T12:24:14.077Z</time>
      </trkpt>
      <trkpt lat="48.65381" lon="-2.36535">
        <ele>23</ele>
        <time>2020-06-24T12:24:15.077Z</time>
      </trkpt>
      <trkpt lat="48.65381" lon="-2.36537">
        <ele>23</ele>
        <time>2020-06-24T12:24:16.077Z</time>
      </trkpt>
      <trkpt lat="48.65381" lon="-2.36538">
        <ele>23</ele>
        <time>2020-06-24T12:24:17.077Z</time>
      </trkpt>
      <trkpt lat="48.65382" lon="-2.36539">
        <ele>22</ele>
        <time>2020-06-24T12:24:18.077Z</time>
      </trkpt>
      <trkpt lat="48.65382" lon="-2.36539">
        <ele>22</ele>
        <time>2020-06-24T12:24:19.077Z</time>
      </trkpt>
      <trkpt lat="48.65382" lon="-2.3654">
        <ele>22</ele>
        <time>2020-06-24T12:24:20.077Z</time>
      </trkpt>
      <trkpt lat="48.65383" lon="-2.36541">
        <ele>21</ele>
        <time>2020-06-24T12:24:21.077Z</time>
      </trkpt>
      <trkpt lat="48.65383" lon="-2.36542">
        <ele>21</ele>
        <time>2020-06-24T12:24:22.077Z</time>
      </trkpt>
      <trkpt lat="48.65383" lon="-2.36543">
        <ele>21</ele>
        <time>2020-06-24T12:24:23.077Z</time>
      </trkpt>
      <trkpt lat="48.65384" lon="-2.36544">
        <ele>21</ele>
        <time>2020-06-24T12:24:24.077Z</time>
      </trkpt>
      <trkpt lat="48.65384" lon="-2.36544">
        <ele>21</ele>
        <time>2020-06-24T12:24:25.077Z</time>
      </trkpt>
      <trkpt lat="48.65384" lon="-2.36544">
        <ele>21</ele>
        <time>2020-06-24T12:24:26.077Z</time>
      </trkpt>
      <trkpt lat="48.65384" lon="-2.36544">
        <ele>21</ele>
        <time>2020-06-24T12:24:27.077Z</time>
      </trkpt>
      <trkpt lat="48.65384" lon="-2.36544">
        <ele>21</ele>
        <time>2020-06-24T12:24:28.077Z</time>
      </trkpt>
      <trkpt lat="48.65384" lon="-2.36544">
        <ele>21</ele>
        <time>2020-06-24T12:24:29.077Z</time>
      </trkpt>
      <trkpt lat="48.65384" lon="-2.36543">
        <ele>21</ele>
        <time>2020-06-24T12:24:30.077Z</time>
      </trkpt>
    </trkseg>
  </trk>
</gpx>